<?xml version="1.0" encoding="UTF-8"?>
<gpx xmlns="http://www.topografix.com/GPX/1/1" xmlns:gpsies="http://www.gpsies.com/GPX/1/0" creator="GPSies http://www.gpsies.com - Levico Terme - Monte Grappa - Passo S Boldo" version="1.1" xmlns:xsi="http://www.w3.org/2001/XMLSchema-instance" xsi:schemaLocation="http://www.topografix.com/GPX/1/1 http://www.topografix.com/GPX/1/1/gpx.xsd http://www.gpsies.com/GPX/1/0 http://www.gpsies.com/gpsies.xsd">
  <metadata>
    <name>Levico Terme - Monte Grappa - Passo S Boldo</name>
    <author>
      <name>motorradrudi</name>
      <link href="http://www.gpsies.com/mapUser.do?username=motorradrudi">
        <text>motorradrudi on GPSies.com</text>
        <type>GPSiesUserOnWeb</type>
      </link>
    </author>
    <link href="http://www.gpsies.com/map.do?fileId=jzjqussbnwdzdhyy">
      <text>Levico Terme - Monte Grappa - Passo S Boldo on GPSies.com</text>
      <type>trackOnWeb</type>
    </link>
    <time>2017-03-07T20:08:33Z</time>
    <extensions>
      <gpsies:property>round trip</gpsies:property>
      <gpsies:trackLengthMeter>336556.61345726886</gpsies:trackLengthMeter>
      <gpsies:totalAscentMeter>8517.0</gpsies:totalAscentMeter>
      <gpsies:totalDescentMeter>8517.0</gpsies:totalDescentMeter>
      <gpsies:minHeightMeter>117.0</gpsies:minHeightMeter>
      <gpsies:maxHeightMeter>1676.0</gpsies:maxHeightMeter>
    </extensions>
  </metadata>
  <trk>
    <name>Levico Terme - Monte Grappa - Passo S Boldo on GPSies.com</name>
    <link href="http://www.gpsies.com/map.do?fileId=jzjqussbnwdzdhyy">
      <type>trackOnWeb</type>
    </link>
    <link href="http://www.gpsies.com/charts/jz/map/jzjqussbnwdzdhyy_map.png">
      <type>elevationChartUrlMap</type>
    </link>
    <link href="http://www.gpsies.com/charts/jz/mapThumb/jzjqussbnwdzdhyy_mapThumb.png">
      <type>elevationChartUrlMapThumb</type>
    </link>
    <link href="http://www.gpsies.com/charts/jz/tab/jzjqussbnwdzdhyy_tab.png">
      <type>elevationChartUrlTab</type>
    </link>
    <trkseg>
      <trkpt lat="46.01473290" lon="11.30192110">
        <ele>532.00000</ele>
        <time>2010-01-01T00:00:00Z</time>
      </trkpt>
      <trkpt lat="46.01460000" lon="11.30165000">
        <ele>532.00000</ele>
        <time>2010-01-01T00:00:09Z</time>
      </trkpt>
      <trkpt lat="46.01399000" lon="11.30263000">
        <ele>533.00000</ele>
        <time>2010-01-01T00:00:45Z</time>
      </trkpt>
      <trkpt lat="46.01372000" lon="11.30341000">
        <ele>534.00000</ele>
        <time>2010-01-01T00:01:10Z</time>
      </trkpt>
      <trkpt lat="46.01330000" lon="11.30332000">
        <ele>529.00000</ele>
        <time>2010-01-01T00:01:27Z</time>
      </trkpt>
      <trkpt lat="46.01300000" lon="11.30337000">
        <ele>525.00000</ele>
        <time>2010-01-01T00:01:39Z</time>
      </trkpt>
      <trkpt lat="46.01276000" lon="11.30337000">
        <ele>522.00000</ele>
        <time>2010-01-01T00:01:48Z</time>
      </trkpt>
      <trkpt lat="46.01264000" lon="11.30329000">
        <ele>520.00000</ele>
        <time>2010-01-01T00:01:54Z</time>
      </trkpt>
      <trkpt lat="46.01222000" lon="11.30311000">
        <ele>514.00000</ele>
        <time>2010-01-01T00:02:11Z</time>
      </trkpt>
      <trkpt lat="46.01210000" lon="11.30307000">
        <ele>512.00000</ele>
        <time>2010-01-01T00:02:16Z</time>
      </trkpt>
      <trkpt lat="46.01171000" lon="11.30276000">
        <ele>506.00000</ele>
        <time>2010-01-01T00:02:34Z</time>
      </trkpt>
      <trkpt lat="46.01120000" lon="11.30238000">
        <ele>501.00000</ele>
        <time>2010-01-01T00:02:57Z</time>
      </trkpt>
      <trkpt lat="46.01072000" lon="11.30172000">
        <ele>493.00000</ele>
        <time>2010-01-01T00:03:23Z</time>
      </trkpt>
      <trkpt lat="46.01038990" lon="11.30142000">
        <ele>490.00000</ele>
        <time>2010-01-01T00:03:39Z</time>
      </trkpt>
      <trkpt lat="46.01006000" lon="11.30090000">
        <ele>486.00000</ele>
        <time>2010-01-01T00:03:59Z</time>
      </trkpt>
      <trkpt lat="46.00973000" lon="11.30047000">
        <ele>482.00000</ele>
        <time>2010-01-01T00:04:16Z</time>
      </trkpt>
      <trkpt lat="46.00951000" lon="11.30025000">
        <ele>480.00000</ele>
        <time>2010-01-01T00:04:27Z</time>
      </trkpt>
      <trkpt lat="46.01002990" lon="11.29921000">
        <ele>479.00000</ele>
        <time>2010-01-01T00:05:03Z</time>
      </trkpt>
      <trkpt lat="46.01027000" lon="11.29870000">
        <ele>479.00000</ele>
        <time>2010-01-01T00:05:20Z</time>
      </trkpt>
      <trkpt lat="46.01013990" lon="11.29853000">
        <ele>478.00000</ele>
        <time>2010-01-01T00:05:27Z</time>
      </trkpt>
      <trkpt lat="46.00954000" lon="11.29835000">
        <ele>474.00000</ele>
        <time>2010-01-01T00:05:51Z</time>
      </trkpt>
      <trkpt lat="46.00924000" lon="11.29813000">
        <ele>471.00000</ele>
        <time>2010-01-01T00:06:05Z</time>
      </trkpt>
      <trkpt lat="46.00909000" lon="11.29784000">
        <ele>469.00000</ele>
        <time>2010-01-01T00:06:15Z</time>
      </trkpt>
      <trkpt lat="46.00871000" lon="11.29645000">
        <ele>463.00000</ele>
        <time>2010-01-01T00:06:57Z</time>
      </trkpt>
      <trkpt lat="46.00849000" lon="11.29558000">
        <ele>460.00000</ele>
        <time>2010-01-01T00:07:22Z</time>
      </trkpt>
      <trkpt lat="46.00804000" lon="11.29424000">
        <ele>453.00000</ele>
        <time>2010-01-01T00:08:04Z</time>
      </trkpt>
      <trkpt lat="46.00790000" lon="11.29394000">
        <ele>452.00000</ele>
        <time>2010-01-01T00:08:14Z</time>
      </trkpt>
      <trkpt lat="46.00745000" lon="11.29308000">
        <ele>449.00000</ele>
        <time>2010-01-01T00:08:44Z</time>
      </trkpt>
      <trkpt lat="46.00745000" lon="11.29294000">
        <ele>448.00000</ele>
        <time>2010-01-01T00:08:48Z</time>
      </trkpt>
      <trkpt lat="46.00713990" lon="11.29273000">
        <ele>448.00000</ele>
        <time>2010-01-01T00:09:01Z</time>
      </trkpt>
      <trkpt lat="46.00561000" lon="11.29091000">
        <ele>445.00000</ele>
        <time>2010-01-01T00:10:21Z</time>
      </trkpt>
      <trkpt lat="46.00459000" lon="11.28970000">
        <ele>445.00000</ele>
        <time>2010-01-01T00:11:14Z</time>
      </trkpt>
      <trkpt lat="46.00396000" lon="11.28897000">
        <ele>445.00000</ele>
        <time>2010-01-01T00:11:46Z</time>
      </trkpt>
      <trkpt lat="46.00285000" lon="11.28749000">
        <ele>444.00000</ele>
        <time>2010-01-01T00:12:47Z</time>
      </trkpt>
      <trkpt lat="46.00270000" lon="11.28723000">
        <ele>444.00000</ele>
        <time>2010-01-01T00:12:56Z</time>
      </trkpt>
      <trkpt lat="46.00255000" lon="11.28694000">
        <ele>444.00000</ele>
        <time>2010-01-01T00:13:06Z</time>
      </trkpt>
      <trkpt lat="46.00245000" lon="11.28680000">
        <ele>444.00000</ele>
        <time>2010-01-01T00:13:12Z</time>
      </trkpt>
      <trkpt lat="46.00196990" lon="11.28581000">
        <ele>445.00000</ele>
        <time>2010-01-01T00:13:45Z</time>
      </trkpt>
      <trkpt lat="46.00189000" lon="11.28563000">
        <ele>445.00000</ele>
        <time>2010-01-01T00:13:51Z</time>
      </trkpt>
      <trkpt lat="46.00179000" lon="11.28537000">
        <ele>446.00000</ele>
        <time>2010-01-01T00:13:59Z</time>
      </trkpt>
      <trkpt lat="46.00160990" lon="11.28494000">
        <ele>447.00000</ele>
        <time>2010-01-01T00:14:13Z</time>
      </trkpt>
      <trkpt lat="46.00038000" lon="11.28352000">
        <ele>451.00000</ele>
        <time>2010-01-01T00:15:16Z</time>
      </trkpt>
      <trkpt lat="46.00010990" lon="11.28295000">
        <ele>452.00000</ele>
        <time>2010-01-01T00:15:36Z</time>
      </trkpt>
      <trkpt lat="46.00002000" lon="11.28274000">
        <ele>452.00000</ele>
        <time>2010-01-01T00:15:42Z</time>
      </trkpt>
      <trkpt lat="45.99954000" lon="11.28170000">
        <ele>453.00000</ele>
        <time>2010-01-01T00:16:17Z</time>
      </trkpt>
      <trkpt lat="45.99915000" lon="11.28096000">
        <ele>454.00000</ele>
        <time>2010-01-01T00:16:43Z</time>
      </trkpt>
      <trkpt lat="45.99756000" lon="11.27872000">
        <ele>456.00000</ele>
        <time>2010-01-01T00:18:12Z</time>
      </trkpt>
      <trkpt lat="45.99696000" lon="11.27759000">
        <ele>458.00000</ele>
        <time>2010-01-01T00:18:52Z</time>
      </trkpt>
      <trkpt lat="45.99681000" lon="11.27733000">
        <ele>458.00000</ele>
        <time>2010-01-01T00:19:01Z</time>
      </trkpt>
      <trkpt lat="45.99513000" lon="11.27248000">
        <ele>463.00000</ele>
        <time>2010-01-01T00:21:32Z</time>
      </trkpt>
      <trkpt lat="45.99513000" lon="11.27196000">
        <ele>463.00000</ele>
        <time>2010-01-01T00:21:46Z</time>
      </trkpt>
      <trkpt lat="45.99513000" lon="11.27167000">
        <ele>464.00000</ele>
        <time>2010-01-01T00:21:54Z</time>
      </trkpt>
      <trkpt lat="45.99518000" lon="11.27123000">
        <ele>464.00000</ele>
        <time>2010-01-01T00:22:07Z</time>
      </trkpt>
      <trkpt lat="45.99561000" lon="11.26989000">
        <ele>464.00000</ele>
        <time>2010-01-01T00:22:48Z</time>
      </trkpt>
      <trkpt lat="45.99606000" lon="11.26855000">
        <ele>464.00000</ele>
        <time>2010-01-01T00:23:29Z</time>
      </trkpt>
      <trkpt lat="45.99659000" lon="11.26695000">
        <ele>465.00000</ele>
        <time>2010-01-01T00:24:18Z</time>
      </trkpt>
      <trkpt lat="45.99684000" lon="11.26622000">
        <ele>465.00000</ele>
        <time>2010-01-01T00:24:41Z</time>
      </trkpt>
      <trkpt lat="45.99696000" lon="11.26557000">
        <ele>465.00000</ele>
        <time>2010-01-01T00:25:00Z</time>
      </trkpt>
      <trkpt lat="45.99710990" lon="11.26470000">
        <ele>465.00000</ele>
        <time>2010-01-01T00:25:25Z</time>
      </trkpt>
      <trkpt lat="45.99708000" lon="11.26202000">
        <ele>467.00000</ele>
        <time>2010-01-01T00:26:39Z</time>
      </trkpt>
      <trkpt lat="45.99696000" lon="11.26124000">
        <ele>468.00000</ele>
        <time>2010-01-01T00:27:01Z</time>
      </trkpt>
      <trkpt lat="45.99689000" lon="11.26098000">
        <ele>468.00000</ele>
        <time>2010-01-01T00:27:09Z</time>
      </trkpt>
      <trkpt lat="45.99674000" lon="11.26029000">
        <ele>469.00000</ele>
        <time>2010-01-01T00:27:29Z</time>
      </trkpt>
      <trkpt lat="45.99656000" lon="11.25972000">
        <ele>469.00000</ele>
        <time>2010-01-01T00:27:47Z</time>
      </trkpt>
      <trkpt lat="45.99611000" lon="11.25795000">
        <ele>471.00000</ele>
        <time>2010-01-01T00:28:39Z</time>
      </trkpt>
      <trkpt lat="45.99609000" lon="11.25773000">
        <ele>471.00000</ele>
        <time>2010-01-01T00:28:45Z</time>
      </trkpt>
      <trkpt lat="45.99584000" lon="11.25644000">
        <ele>472.00000</ele>
        <time>2010-01-01T00:29:23Z</time>
      </trkpt>
      <trkpt lat="45.99588000" lon="11.25613000">
        <ele>473.00000</ele>
        <time>2010-01-01T00:29:31Z</time>
      </trkpt>
      <trkpt lat="45.99591000" lon="11.25587000">
        <ele>473.00000</ele>
        <time>2010-01-01T00:29:39Z</time>
      </trkpt>
      <trkpt lat="45.99596000" lon="11.25544000">
        <ele>473.00000</ele>
        <time>2010-01-01T00:29:51Z</time>
      </trkpt>
      <trkpt lat="45.99696000" lon="11.25289000">
        <ele>473.00000</ele>
        <time>2010-01-01T00:31:12Z</time>
      </trkpt>
      <trkpt lat="45.99750000" lon="11.25147000">
        <ele>473.00000</ele>
        <time>2010-01-01T00:31:57Z</time>
      </trkpt>
      <trkpt lat="45.99780000" lon="11.25068000">
        <ele>474.00000</ele>
        <time>2010-01-01T00:32:22Z</time>
      </trkpt>
      <trkpt lat="45.99807000" lon="11.24999000">
        <ele>474.00000</ele>
        <time>2010-01-01T00:32:44Z</time>
      </trkpt>
      <trkpt lat="45.99867000" lon="11.24839000">
        <ele>475.00000</ele>
        <time>2010-01-01T00:33:35Z</time>
      </trkpt>
      <trkpt lat="45.99894000" lon="11.24783000">
        <ele>475.00000</ele>
        <time>2010-01-01T00:33:54Z</time>
      </trkpt>
      <trkpt lat="45.99957000" lon="11.24710000">
        <ele>473.00000</ele>
        <time>2010-01-01T00:34:26Z</time>
      </trkpt>
      <trkpt lat="45.99978000" lon="11.24688000">
        <ele>472.00000</ele>
        <time>2010-01-01T00:34:37Z</time>
      </trkpt>
      <trkpt lat="46.00020000" lon="11.24662000">
        <ele>470.00000</ele>
        <time>2010-01-01T00:34:55Z</time>
      </trkpt>
      <trkpt lat="46.00144000" lon="11.24576000">
        <ele>465.00000</ele>
        <time>2010-01-01T00:35:50Z</time>
      </trkpt>
      <trkpt lat="46.00207000" lon="11.24532000">
        <ele>465.00000</ele>
        <time>2010-01-01T00:36:18Z</time>
      </trkpt>
      <trkpt lat="46.00227000" lon="11.24519000">
        <ele>465.00000</ele>
        <time>2010-01-01T00:36:27Z</time>
      </trkpt>
      <trkpt lat="46.00270000" lon="11.24489000">
        <ele>465.00000</ele>
        <time>2010-01-01T00:36:46Z</time>
      </trkpt>
      <trkpt lat="46.00305000" lon="11.24463000">
        <ele>465.00000</ele>
        <time>2010-01-01T00:37:02Z</time>
      </trkpt>
      <trkpt lat="46.00345000" lon="11.24416000">
        <ele>466.00000</ele>
        <time>2010-01-01T00:37:22Z</time>
      </trkpt>
      <trkpt lat="46.00352990" lon="11.24403000">
        <ele>466.00000</ele>
        <time>2010-01-01T00:37:27Z</time>
      </trkpt>
      <trkpt lat="46.00396000" lon="11.24342000">
        <ele>465.00000</ele>
        <time>2010-01-01T00:37:51Z</time>
      </trkpt>
      <trkpt lat="46.00413000" lon="11.24316000">
        <ele>464.00000</ele>
        <time>2010-01-01T00:38:01Z</time>
      </trkpt>
      <trkpt lat="46.00453000" lon="11.24264000">
        <ele>463.00000</ele>
        <time>2010-01-01T00:38:23Z</time>
      </trkpt>
      <trkpt lat="46.00459000" lon="11.24260000">
        <ele>463.00000</ele>
        <time>2010-01-01T00:38:25Z</time>
      </trkpt>
      <trkpt lat="46.00495000" lon="11.24221000">
        <ele>463.00000</ele>
        <time>2010-01-01T00:38:43Z</time>
      </trkpt>
      <trkpt lat="46.00507000" lon="11.24225000">
        <ele>462.00000</ele>
        <time>2010-01-01T00:38:48Z</time>
      </trkpt>
      <trkpt lat="46.00513000" lon="11.24221000">
        <ele>462.00000</ele>
        <time>2010-01-01T00:38:51Z</time>
      </trkpt>
      <trkpt lat="46.00513000" lon="11.24203000">
        <ele>463.00000</ele>
        <time>2010-01-01T00:38:56Z</time>
      </trkpt>
      <trkpt lat="46.00507000" lon="11.24195000">
        <ele>463.00000</ele>
        <time>2010-01-01T00:38:59Z</time>
      </trkpt>
      <trkpt lat="46.00516000" lon="11.24165000">
        <ele>465.00000</ele>
        <time>2010-01-01T00:39:08Z</time>
      </trkpt>
      <trkpt lat="46.00552000" lon="11.24086000">
        <ele>470.00000</ele>
        <time>2010-01-01T00:39:35Z</time>
      </trkpt>
      <trkpt lat="46.00569990" lon="11.23996000">
        <ele>476.00000</ele>
        <time>2010-01-01T00:40:01Z</time>
      </trkpt>
      <trkpt lat="46.00609000" lon="11.23918000">
        <ele>484.00000</ele>
        <time>2010-01-01T00:40:27Z</time>
      </trkpt>
      <trkpt lat="46.00624000" lon="11.23901000">
        <ele>485.00000</ele>
        <time>2010-01-01T00:40:35Z</time>
      </trkpt>
      <trkpt lat="46.00657000" lon="11.23862000">
        <ele>487.00000</ele>
        <time>2010-01-01T00:40:52Z</time>
      </trkpt>
      <trkpt lat="46.00654000" lon="11.23844000">
        <ele>491.00000</ele>
        <time>2010-01-01T00:40:57Z</time>
      </trkpt>
      <trkpt lat="46.00645000" lon="11.23840000">
        <ele>492.00000</ele>
        <time>2010-01-01T00:41:01Z</time>
      </trkpt>
      <trkpt lat="46.00594000" lon="11.23901000">
        <ele>488.00000</ele>
        <time>2010-01-01T00:41:28Z</time>
      </trkpt>
      <trkpt lat="46.00569990" lon="11.23918000">
        <ele>487.00000</ele>
        <time>2010-01-01T00:41:38Z</time>
      </trkpt>
      <trkpt lat="46.00549000" lon="11.23918000">
        <ele>488.00000</ele>
        <time>2010-01-01T00:41:47Z</time>
      </trkpt>
      <trkpt lat="46.00540000" lon="11.23909000">
        <ele>490.00000</ele>
        <time>2010-01-01T00:41:51Z</time>
      </trkpt>
      <trkpt lat="46.00537000" lon="11.23901000">
        <ele>491.00000</ele>
        <time>2010-01-01T00:41:54Z</time>
      </trkpt>
      <trkpt lat="46.00534000" lon="11.23888000">
        <ele>493.00000</ele>
        <time>2010-01-01T00:41:57Z</time>
      </trkpt>
      <trkpt lat="46.00543000" lon="11.23862000">
        <ele>497.00000</ele>
        <time>2010-01-01T00:42:06Z</time>
      </trkpt>
      <trkpt lat="46.00609000" lon="11.23780000">
        <ele>505.00000</ele>
        <time>2010-01-01T00:42:40Z</time>
      </trkpt>
      <trkpt lat="46.00687000" lon="11.23684000">
        <ele>514.00000</ele>
        <time>2010-01-01T00:43:22Z</time>
      </trkpt>
      <trkpt lat="46.00726000" lon="11.23654000">
        <ele>516.00000</ele>
        <time>2010-01-01T00:43:39Z</time>
      </trkpt>
      <trkpt lat="46.00713990" lon="11.23632000">
        <ele>522.00000</ele>
        <time>2010-01-01T00:43:47Z</time>
      </trkpt>
      <trkpt lat="46.00651000" lon="11.23650000">
        <ele>522.00000</ele>
        <time>2010-01-01T00:44:13Z</time>
      </trkpt>
      <trkpt lat="46.00633000" lon="11.23641000">
        <ele>525.00000</ele>
        <time>2010-01-01T00:44:20Z</time>
      </trkpt>
      <trkpt lat="46.00627000" lon="11.23607000">
        <ele>531.00000</ele>
        <time>2010-01-01T00:44:30Z</time>
      </trkpt>
      <trkpt lat="46.00639000" lon="11.23589000">
        <ele>534.00000</ele>
        <time>2010-01-01T00:44:37Z</time>
      </trkpt>
      <trkpt lat="46.00861000" lon="11.23447000">
        <ele>548.00000</ele>
        <time>2010-01-01T00:46:14Z</time>
      </trkpt>
      <trkpt lat="46.00858000" lon="11.23429000">
        <ele>554.00000</ele>
        <time>2010-01-01T00:46:19Z</time>
      </trkpt>
      <trkpt lat="46.00801000" lon="11.23442000">
        <ele>558.00000</ele>
        <time>2010-01-01T00:46:43Z</time>
      </trkpt>
      <trkpt lat="46.00745000" lon="11.23429000">
        <ele>562.00000</ele>
        <time>2010-01-01T00:47:05Z</time>
      </trkpt>
      <trkpt lat="46.00648000" lon="11.23399000">
        <ele>574.00000</ele>
        <time>2010-01-01T00:47:45Z</time>
      </trkpt>
      <trkpt lat="46.00621000" lon="11.23399000">
        <ele>578.00000</ele>
        <time>2010-01-01T00:47:56Z</time>
      </trkpt>
      <trkpt lat="46.00527990" lon="11.23442000">
        <ele>579.00000</ele>
        <time>2010-01-01T00:48:35Z</time>
      </trkpt>
      <trkpt lat="46.00485990" lon="11.23442000">
        <ele>582.00000</ele>
        <time>2010-01-01T00:48:52Z</time>
      </trkpt>
      <trkpt lat="46.00459000" lon="11.23412000">
        <ele>588.00000</ele>
        <time>2010-01-01T00:49:05Z</time>
      </trkpt>
      <trkpt lat="46.00417000" lon="11.23360000">
        <ele>597.00000</ele>
        <time>2010-01-01T00:49:27Z</time>
      </trkpt>
      <trkpt lat="46.00377990" lon="11.23326000">
        <ele>603.00000</ele>
        <time>2010-01-01T00:49:46Z</time>
      </trkpt>
      <trkpt lat="46.00287000" lon="11.23265000">
        <ele>612.00000</ele>
        <time>2010-01-01T00:50:26Z</time>
      </trkpt>
      <trkpt lat="46.00263990" lon="11.23230000">
        <ele>615.00000</ele>
        <time>2010-01-01T00:50:39Z</time>
      </trkpt>
      <trkpt lat="46.00179000" lon="11.23031000">
        <ele>634.00000</ele>
        <time>2010-01-01T00:51:44Z</time>
      </trkpt>
      <trkpt lat="46.00177000" lon="11.22971000">
        <ele>640.00000</ele>
        <time>2010-01-01T00:52:01Z</time>
      </trkpt>
      <trkpt lat="46.00215000" lon="11.22880000">
        <ele>651.00000</ele>
        <time>2010-01-01T00:52:31Z</time>
      </trkpt>
      <trkpt lat="46.00221990" lon="11.22859000">
        <ele>654.00000</ele>
        <time>2010-01-01T00:52:37Z</time>
      </trkpt>
      <trkpt lat="46.00212000" lon="11.22802000">
        <ele>660.00000</ele>
        <time>2010-01-01T00:52:53Z</time>
      </trkpt>
      <trkpt lat="46.00209000" lon="11.22798000">
        <ele>661.00000</ele>
        <time>2010-01-01T00:52:55Z</time>
      </trkpt>
      <trkpt lat="46.00170000" lon="11.22659000">
        <ele>669.00000</ele>
        <time>2010-01-01T00:53:37Z</time>
      </trkpt>
      <trkpt lat="46.00144000" lon="11.22564000">
        <ele>671.00000</ele>
        <time>2010-01-01T00:54:05Z</time>
      </trkpt>
      <trkpt lat="46.00129000" lon="11.22460000">
        <ele>672.00000</ele>
        <time>2010-01-01T00:54:35Z</time>
      </trkpt>
      <trkpt lat="46.00129000" lon="11.22413000">
        <ele>673.00000</ele>
        <time>2010-01-01T00:54:48Z</time>
      </trkpt>
      <trkpt lat="46.00129000" lon="11.22382000">
        <ele>674.00000</ele>
        <time>2010-01-01T00:54:56Z</time>
      </trkpt>
      <trkpt lat="46.00122000" lon="11.22343000">
        <ele>673.00000</ele>
        <time>2010-01-01T00:55:07Z</time>
      </trkpt>
      <trkpt lat="46.00116000" lon="11.22288000">
        <ele>675.00000</ele>
        <time>2010-01-01T00:55:23Z</time>
      </trkpt>
      <trkpt lat="46.00104000" lon="11.22240000">
        <ele>675.00000</ele>
        <time>2010-01-01T00:55:37Z</time>
      </trkpt>
      <trkpt lat="46.00068000" lon="11.22063000">
        <ele>673.00000</ele>
        <time>2010-01-01T00:56:28Z</time>
      </trkpt>
      <trkpt lat="46.00062000" lon="11.22032000">
        <ele>673.00000</ele>
        <time>2010-01-01T00:56:37Z</time>
      </trkpt>
      <trkpt lat="46.00046990" lon="11.21950000">
        <ele>672.00000</ele>
        <time>2010-01-01T00:57:01Z</time>
      </trkpt>
      <trkpt lat="46.00032000" lon="11.21820000">
        <ele>666.00000</ele>
        <time>2010-01-01T00:57:38Z</time>
      </trkpt>
      <trkpt lat="46.00041000" lon="11.21703000">
        <ele>664.00000</ele>
        <time>2010-01-01T00:58:10Z</time>
      </trkpt>
      <trkpt lat="46.00044000" lon="11.21669000">
        <ele>662.00000</ele>
        <time>2010-01-01T00:58:20Z</time>
      </trkpt>
      <trkpt lat="46.00066000" lon="11.21518000">
        <ele>661.00000</ele>
        <time>2010-01-01T00:59:03Z</time>
      </trkpt>
      <trkpt lat="46.00098000" lon="11.21201000">
        <ele>661.00000</ele>
        <time>2010-01-01T01:00:32Z</time>
      </trkpt>
      <trkpt lat="46.00086000" lon="11.21089000">
        <ele>661.00000</ele>
        <time>2010-01-01T01:01:03Z</time>
      </trkpt>
      <trkpt lat="46.00074000" lon="11.20977000">
        <ele>664.00000</ele>
        <time>2010-01-01T01:01:35Z</time>
      </trkpt>
      <trkpt lat="46.00035000" lon="11.20605000">
        <ele>676.00000</ele>
        <time>2010-01-01T01:03:19Z</time>
      </trkpt>
      <trkpt lat="46.00030000" lon="11.20570000">
        <ele>677.00000</ele>
        <time>2010-01-01T01:03:29Z</time>
      </trkpt>
      <trkpt lat="46.00031000" lon="11.20571000">
        <ele>677.00000</ele>
        <time>2010-01-01T01:03:30Z</time>
      </trkpt>
      <trkpt lat="46.00030000" lon="11.20570000">
        <ele>677.00000</ele>
        <time>2010-01-01T01:03:30Z</time>
      </trkpt>
      <trkpt lat="46.00026000" lon="11.20540000">
        <ele>677.00000</ele>
        <time>2010-01-01T01:03:39Z</time>
      </trkpt>
      <trkpt lat="46.00010990" lon="11.20419000">
        <ele>677.00000</ele>
        <time>2010-01-01T01:04:13Z</time>
      </trkpt>
      <trkpt lat="46.00017000" lon="11.20362000">
        <ele>678.00000</ele>
        <time>2010-01-01T01:04:29Z</time>
      </trkpt>
      <trkpt lat="46.00002000" lon="11.20337000">
        <ele>678.00000</ele>
        <time>2010-01-01T01:04:38Z</time>
      </trkpt>
      <trkpt lat="45.99987000" lon="11.20362000">
        <ele>678.00000</ele>
        <time>2010-01-01T01:04:47Z</time>
      </trkpt>
      <trkpt lat="45.99978000" lon="11.20380000">
        <ele>678.00000</ele>
        <time>2010-01-01T01:04:54Z</time>
      </trkpt>
      <trkpt lat="45.99912000" lon="11.20514000">
        <ele>674.00000</ele>
        <time>2010-01-01T01:05:39Z</time>
      </trkpt>
      <trkpt lat="45.99888000" lon="11.20566000">
        <ele>674.00000</ele>
        <time>2010-01-01T01:05:57Z</time>
      </trkpt>
      <trkpt lat="45.99870000" lon="11.20605000">
        <ele>674.00000</ele>
        <time>2010-01-01T01:06:10Z</time>
      </trkpt>
      <trkpt lat="45.99824990" lon="11.20717000">
        <ele>677.00000</ele>
        <time>2010-01-01T01:06:46Z</time>
      </trkpt>
      <trkpt lat="45.99746990" lon="11.21020000">
        <ele>680.00000</ele>
        <time>2010-01-01T01:08:16Z</time>
      </trkpt>
      <trkpt lat="45.99702000" lon="11.21158000">
        <ele>677.00000</ele>
        <time>2010-01-01T01:08:58Z</time>
      </trkpt>
      <trkpt lat="45.99696000" lon="11.21176000">
        <ele>677.00000</ele>
        <time>2010-01-01T01:09:03Z</time>
      </trkpt>
      <trkpt lat="45.99668990" lon="11.21245000">
        <ele>674.00000</ele>
        <time>2010-01-01T01:09:25Z</time>
      </trkpt>
      <trkpt lat="45.99613990" lon="11.21392000">
        <ele>679.00000</ele>
        <time>2010-01-01T01:10:12Z</time>
      </trkpt>
      <trkpt lat="45.99606000" lon="11.21418000">
        <ele>680.00000</ele>
        <time>2010-01-01T01:10:20Z</time>
      </trkpt>
      <trkpt lat="45.99578000" lon="11.21496000">
        <ele>682.00000</ele>
        <time>2010-01-01T01:10:44Z</time>
      </trkpt>
      <trkpt lat="45.99546000" lon="11.21583000">
        <ele>685.00000</ele>
        <time>2010-01-01T01:11:12Z</time>
      </trkpt>
      <trkpt lat="45.99539000" lon="11.21595000">
        <ele>686.00000</ele>
        <time>2010-01-01T01:11:16Z</time>
      </trkpt>
      <trkpt lat="45.99521000" lon="11.21621000">
        <ele>688.00000</ele>
        <time>2010-01-01T01:11:26Z</time>
      </trkpt>
      <trkpt lat="45.99470000" lon="11.21703000">
        <ele>693.00000</ele>
        <time>2010-01-01T01:11:57Z</time>
      </trkpt>
      <trkpt lat="45.99467000" lon="11.21712000">
        <ele>693.00000</ele>
        <time>2010-01-01T01:12:00Z</time>
      </trkpt>
      <trkpt lat="45.99451990" lon="11.21734000">
        <ele>694.00000</ele>
        <time>2010-01-01T01:12:08Z</time>
      </trkpt>
      <trkpt lat="45.99425000" lon="11.21746000">
        <ele>696.00000</ele>
        <time>2010-01-01T01:12:19Z</time>
      </trkpt>
      <trkpt lat="45.99385990" lon="11.21751000">
        <ele>700.00000</ele>
        <time>2010-01-01T01:12:35Z</time>
      </trkpt>
      <trkpt lat="45.99347000" lon="11.21786000">
        <ele>703.00000</ele>
        <time>2010-01-01T01:12:54Z</time>
      </trkpt>
      <trkpt lat="45.99299000" lon="11.21863000">
        <ele>704.00000</ele>
        <time>2010-01-01T01:13:22Z</time>
      </trkpt>
      <trkpt lat="45.99296000" lon="11.21872000">
        <ele>703.00000</ele>
        <time>2010-01-01T01:13:25Z</time>
      </trkpt>
      <trkpt lat="45.99221000" lon="11.21972000">
        <ele>704.00000</ele>
        <time>2010-01-01T01:14:06Z</time>
      </trkpt>
      <trkpt lat="45.99188000" lon="11.21976000">
        <ele>707.00000</ele>
        <time>2010-01-01T01:14:19Z</time>
      </trkpt>
      <trkpt lat="45.99167000" lon="11.21972000">
        <ele>710.00000</ele>
        <time>2010-01-01T01:14:28Z</time>
      </trkpt>
      <trkpt lat="45.99121000" lon="11.21963000">
        <ele>707.00000</ele>
        <time>2010-01-01T01:14:46Z</time>
      </trkpt>
      <trkpt lat="45.98932000" lon="11.21889000">
        <ele>717.00000</ele>
        <time>2010-01-01T01:16:05Z</time>
      </trkpt>
      <trkpt lat="45.98915000" lon="11.21903000">
        <ele>718.00000</ele>
        <time>2010-01-01T01:16:13Z</time>
      </trkpt>
      <trkpt lat="45.98845000" lon="11.22075000">
        <ele>726.00000</ele>
        <time>2010-01-01T01:17:08Z</time>
      </trkpt>
      <trkpt lat="45.98848000" lon="11.22132000">
        <ele>735.00000</ele>
        <time>2010-01-01T01:17:24Z</time>
      </trkpt>
      <trkpt lat="45.98908000" lon="11.22223000">
        <ele>740.00000</ele>
        <time>2010-01-01T01:17:59Z</time>
      </trkpt>
      <trkpt lat="45.98932000" lon="11.22279000">
        <ele>744.00000</ele>
        <time>2010-01-01T01:18:17Z</time>
      </trkpt>
      <trkpt lat="45.98962000" lon="11.22352000">
        <ele>744.00000</ele>
        <time>2010-01-01T01:18:41Z</time>
      </trkpt>
      <trkpt lat="45.98987000" lon="11.22465000">
        <ele>746.00000</ele>
        <time>2010-01-01T01:19:14Z</time>
      </trkpt>
      <trkpt lat="45.98982990" lon="11.22542000">
        <ele>748.00000</ele>
        <time>2010-01-01T01:19:35Z</time>
      </trkpt>
      <trkpt lat="45.98968000" lon="11.22599000">
        <ele>754.00000</ele>
        <time>2010-01-01T01:19:52Z</time>
      </trkpt>
      <trkpt lat="45.98957000" lon="11.22694000">
        <ele>755.00000</ele>
        <time>2010-01-01T01:20:19Z</time>
      </trkpt>
      <trkpt lat="45.98932000" lon="11.22742000">
        <ele>758.00000</ele>
        <time>2010-01-01T01:20:36Z</time>
      </trkpt>
      <trkpt lat="45.98929990" lon="11.22750000">
        <ele>757.00000</ele>
        <time>2010-01-01T01:20:38Z</time>
      </trkpt>
      <trkpt lat="45.98875000" lon="11.22802000">
        <ele>764.00000</ele>
        <time>2010-01-01T01:21:04Z</time>
      </trkpt>
      <trkpt lat="45.98764000" lon="11.22910000">
        <ele>778.00000</ele>
        <time>2010-01-01T01:21:58Z</time>
      </trkpt>
      <trkpt lat="45.98689000" lon="11.22996000">
        <ele>787.00000</ele>
        <time>2010-01-01T01:22:36Z</time>
      </trkpt>
      <trkpt lat="45.98653000" lon="11.23053000">
        <ele>790.00000</ele>
        <time>2010-01-01T01:22:58Z</time>
      </trkpt>
      <trkpt lat="45.98617000" lon="11.23027000">
        <ele>801.00000</ele>
        <time>2010-01-01T01:23:14Z</time>
      </trkpt>
      <trkpt lat="45.98604990" lon="11.23031000">
        <ele>804.00000</ele>
        <time>2010-01-01T01:23:19Z</time>
      </trkpt>
      <trkpt lat="45.98587000" lon="11.23118000">
        <ele>802.00000</ele>
        <time>2010-01-01T01:23:44Z</time>
      </trkpt>
      <trkpt lat="45.98524000" lon="11.23118000">
        <ele>817.00000</ele>
        <time>2010-01-01T01:24:09Z</time>
      </trkpt>
      <trkpt lat="45.98505000" lon="11.23122000">
        <ele>821.00000</ele>
        <time>2010-01-01T01:24:17Z</time>
      </trkpt>
      <trkpt lat="45.98500000" lon="11.23139000">
        <ele>821.00000</ele>
        <time>2010-01-01T01:24:22Z</time>
      </trkpt>
      <trkpt lat="45.98524000" lon="11.23192000">
        <ele>811.00000</ele>
        <time>2010-01-01T01:24:40Z</time>
      </trkpt>
      <trkpt lat="45.98518000" lon="11.23222000">
        <ele>809.00000</ele>
        <time>2010-01-01T01:24:48Z</time>
      </trkpt>
      <trkpt lat="45.98494000" lon="11.23244000">
        <ele>813.00000</ele>
        <time>2010-01-01T01:25:00Z</time>
      </trkpt>
      <trkpt lat="45.98457000" lon="11.23278000">
        <ele>821.00000</ele>
        <time>2010-01-01T01:25:17Z</time>
      </trkpt>
      <trkpt lat="45.98448990" lon="11.23317000">
        <ele>818.00000</ele>
        <time>2010-01-01T01:25:29Z</time>
      </trkpt>
      <trkpt lat="45.98410000" lon="11.23347000">
        <ele>826.00000</ele>
        <time>2010-01-01T01:25:46Z</time>
      </trkpt>
      <trkpt lat="45.98389000" lon="11.23373000">
        <ele>827.00000</ele>
        <time>2010-01-01T01:25:57Z</time>
      </trkpt>
      <trkpt lat="45.98295000" lon="11.23486000">
        <ele>835.00000</ele>
        <time>2010-01-01T01:26:46Z</time>
      </trkpt>
      <trkpt lat="45.98175000" lon="11.23706000">
        <ele>846.00000</ele>
        <time>2010-01-01T01:28:04Z</time>
      </trkpt>
      <trkpt lat="45.98169000" lon="11.23719000">
        <ele>847.00000</ele>
        <time>2010-01-01T01:28:09Z</time>
      </trkpt>
      <trkpt lat="45.98148000" lon="11.23763000">
        <ele>846.00000</ele>
        <time>2010-01-01T01:28:23Z</time>
      </trkpt>
      <trkpt lat="45.98136000" lon="11.23789000">
        <ele>845.00000</ele>
        <time>2010-01-01T01:28:32Z</time>
      </trkpt>
      <trkpt lat="45.98097000" lon="11.23818000">
        <ele>851.00000</ele>
        <time>2010-01-01T01:28:50Z</time>
      </trkpt>
      <trkpt lat="45.98058000" lon="11.23835000">
        <ele>855.00000</ele>
        <time>2010-01-01T01:29:06Z</time>
      </trkpt>
      <trkpt lat="45.97995000" lon="11.23849000">
        <ele>859.00000</ele>
        <time>2010-01-01T01:29:32Z</time>
      </trkpt>
      <trkpt lat="45.97955000" lon="11.23840000">
        <ele>860.00000</ele>
        <time>2010-01-01T01:29:48Z</time>
      </trkpt>
      <trkpt lat="45.97929000" lon="11.23810000">
        <ele>863.00000</ele>
        <time>2010-01-01T01:30:01Z</time>
      </trkpt>
      <trkpt lat="45.97906990" lon="11.23706000">
        <ele>872.00000</ele>
        <time>2010-01-01T01:30:31Z</time>
      </trkpt>
      <trkpt lat="45.97880000" lon="11.23650000">
        <ele>873.00000</ele>
        <time>2010-01-01T01:30:50Z</time>
      </trkpt>
      <trkpt lat="45.97874000" lon="11.23646000">
        <ele>873.00000</ele>
        <time>2010-01-01T01:30:53Z</time>
      </trkpt>
      <trkpt lat="45.97862000" lon="11.23632000">
        <ele>872.00000</ele>
        <time>2010-01-01T01:30:59Z</time>
      </trkpt>
      <trkpt lat="45.97779000" lon="11.23555000">
        <ele>867.00000</ele>
        <time>2010-01-01T01:31:39Z</time>
      </trkpt>
      <trkpt lat="45.97756990" lon="11.23533000">
        <ele>865.00000</ele>
        <time>2010-01-01T01:31:49Z</time>
      </trkpt>
      <trkpt lat="45.97700000" lon="11.23378000">
        <ele>886.00000</ele>
        <time>2010-01-01T01:32:38Z</time>
      </trkpt>
      <trkpt lat="45.97678990" lon="11.23352000">
        <ele>886.00000</ele>
        <time>2010-01-01T01:32:49Z</time>
      </trkpt>
      <trkpt lat="45.97580000" lon="11.23265000">
        <ele>884.00000</ele>
        <time>2010-01-01T01:33:36Z</time>
      </trkpt>
      <trkpt lat="45.97544000" lon="11.23261000">
        <ele>883.00000</ele>
        <time>2010-01-01T01:33:50Z</time>
      </trkpt>
      <trkpt lat="45.97490000" lon="11.23269000">
        <ele>877.00000</ele>
        <time>2010-01-01T01:34:12Z</time>
      </trkpt>
      <trkpt lat="45.97405000" lon="11.23261000">
        <ele>882.00000</ele>
        <time>2010-01-01T01:34:46Z</time>
      </trkpt>
      <trkpt lat="45.97390000" lon="11.23256000">
        <ele>882.00000</ele>
        <time>2010-01-01T01:34:52Z</time>
      </trkpt>
      <trkpt lat="45.97334000" lon="11.23204000">
        <ele>890.00000</ele>
        <time>2010-01-01T01:35:19Z</time>
      </trkpt>
      <trkpt lat="45.97285000" lon="11.23200000">
        <ele>880.00000</ele>
        <time>2010-01-01T01:35:38Z</time>
      </trkpt>
      <trkpt lat="45.97274000" lon="11.23187000">
        <ele>882.00000</ele>
        <time>2010-01-01T01:35:44Z</time>
      </trkpt>
      <trkpt lat="45.97264000" lon="11.23148000">
        <ele>889.00000</ele>
        <time>2010-01-01T01:35:56Z</time>
      </trkpt>
      <trkpt lat="45.97222000" lon="11.23092000">
        <ele>895.00000</ele>
        <time>2010-01-01T01:36:19Z</time>
      </trkpt>
      <trkpt lat="45.97203990" lon="11.23087000">
        <ele>894.00000</ele>
        <time>2010-01-01T01:36:26Z</time>
      </trkpt>
      <trkpt lat="45.97114000" lon="11.23109000">
        <ele>884.00000</ele>
        <time>2010-01-01T01:37:02Z</time>
      </trkpt>
      <trkpt lat="45.97051000" lon="11.23070000">
        <ele>893.00000</ele>
        <time>2010-01-01T01:37:30Z</time>
      </trkpt>
      <trkpt lat="45.97003000" lon="11.23070000">
        <ele>889.00000</ele>
        <time>2010-01-01T01:37:49Z</time>
      </trkpt>
      <trkpt lat="45.96914990" lon="11.23014000">
        <ele>897.00000</ele>
        <time>2010-01-01T01:38:28Z</time>
      </trkpt>
      <trkpt lat="45.96900000" lon="11.22958000">
        <ele>902.00000</ele>
        <time>2010-01-01T01:38:44Z</time>
      </trkpt>
      <trkpt lat="45.96903990" lon="11.22919000">
        <ele>912.00000</ele>
        <time>2010-01-01T01:38:55Z</time>
      </trkpt>
      <trkpt lat="45.96897000" lon="11.22884000">
        <ele>914.00000</ele>
        <time>2010-01-01T01:39:05Z</time>
      </trkpt>
      <trkpt lat="45.96861990" lon="11.22802000">
        <ele>913.00000</ele>
        <time>2010-01-01T01:39:32Z</time>
      </trkpt>
      <trkpt lat="45.96852000" lon="11.22781000">
        <ele>914.00000</ele>
        <time>2010-01-01T01:39:39Z</time>
      </trkpt>
      <trkpt lat="45.96814000" lon="11.22737000">
        <ele>914.00000</ele>
        <time>2010-01-01T01:39:59Z</time>
      </trkpt>
      <trkpt lat="45.96762000" lon="11.22699000">
        <ele>918.00000</ele>
        <time>2010-01-01T01:40:22Z</time>
      </trkpt>
      <trkpt lat="45.96744000" lon="11.22685000">
        <ele>923.00000</ele>
        <time>2010-01-01T01:40:30Z</time>
      </trkpt>
      <trkpt lat="45.96705000" lon="11.22681000">
        <ele>931.00000</ele>
        <time>2010-01-01T01:40:46Z</time>
      </trkpt>
      <trkpt lat="45.96675000" lon="11.22711000">
        <ele>918.00000</ele>
        <time>2010-01-01T01:41:01Z</time>
      </trkpt>
      <trkpt lat="45.96642000" lon="11.22720000">
        <ele>913.00000</ele>
        <time>2010-01-01T01:41:14Z</time>
      </trkpt>
      <trkpt lat="45.96639000" lon="11.22720000">
        <ele>913.00000</ele>
        <time>2010-01-01T01:41:15Z</time>
      </trkpt>
      <trkpt lat="45.96603000" lon="11.22694000">
        <ele>925.00000</ele>
        <time>2010-01-01T01:41:31Z</time>
      </trkpt>
      <trkpt lat="45.96564000" lon="11.22685000">
        <ele>920.00000</ele>
        <time>2010-01-01T01:41:47Z</time>
      </trkpt>
      <trkpt lat="45.96536990" lon="11.22659000">
        <ele>919.00000</ele>
        <time>2010-01-01T01:42:00Z</time>
      </trkpt>
      <trkpt lat="45.96531000" lon="11.22642000">
        <ele>920.00000</ele>
        <time>2010-01-01T01:42:06Z</time>
      </trkpt>
      <trkpt lat="45.96540000" lon="11.22477000">
        <ele>951.00000</ele>
        <time>2010-01-01T01:42:52Z</time>
      </trkpt>
      <trkpt lat="45.96510000" lon="11.22374000">
        <ele>946.00000</ele>
        <time>2010-01-01T01:43:23Z</time>
      </trkpt>
      <trkpt lat="45.96498000" lon="11.22283000">
        <ele>954.00000</ele>
        <time>2010-01-01T01:43:48Z</time>
      </trkpt>
      <trkpt lat="45.96485000" lon="11.22270000">
        <ele>952.00000</ele>
        <time>2010-01-01T01:43:55Z</time>
      </trkpt>
      <trkpt lat="45.96450000" lon="11.22245000">
        <ele>948.00000</ele>
        <time>2010-01-01T01:44:10Z</time>
      </trkpt>
      <trkpt lat="45.96432000" lon="11.22218000">
        <ele>950.00000</ele>
        <time>2010-01-01T01:44:21Z</time>
      </trkpt>
      <trkpt lat="45.96410000" lon="11.22145000">
        <ele>963.00000</ele>
        <time>2010-01-01T01:44:43Z</time>
      </trkpt>
      <trkpt lat="45.96296000" lon="11.22080000">
        <ele>958.00000</ele>
        <time>2010-01-01T01:45:32Z</time>
      </trkpt>
      <trkpt lat="45.96221000" lon="11.22023000">
        <ele>966.00000</ele>
        <time>2010-01-01T01:46:06Z</time>
      </trkpt>
      <trkpt lat="45.96211990" lon="11.21932000">
        <ele>985.00000</ele>
        <time>2010-01-01T01:46:32Z</time>
      </trkpt>
      <trkpt lat="45.96133990" lon="11.21885000">
        <ele>992.00000</ele>
        <time>2010-01-01T01:47:05Z</time>
      </trkpt>
      <trkpt lat="45.96122000" lon="11.21889000">
        <ele>993.00000</ele>
        <time>2010-01-01T01:47:10Z</time>
      </trkpt>
      <trkpt lat="45.96095000" lon="11.21932000">
        <ele>985.00000</ele>
        <time>2010-01-01T01:47:27Z</time>
      </trkpt>
      <trkpt lat="45.96035000" lon="11.21946000">
        <ele>984.00000</ele>
        <time>2010-01-01T01:47:51Z</time>
      </trkpt>
      <trkpt lat="45.96023000" lon="11.21941000">
        <ele>985.00000</ele>
        <time>2010-01-01T01:47:56Z</time>
      </trkpt>
      <trkpt lat="45.96005000" lon="11.21903000">
        <ele>993.00000</ele>
        <time>2010-01-01T01:48:09Z</time>
      </trkpt>
      <trkpt lat="45.95987000" lon="11.21903000">
        <ele>996.00000</ele>
        <time>2010-01-01T01:48:16Z</time>
      </trkpt>
      <trkpt lat="45.95938000" lon="11.21963000">
        <ele>991.00000</ele>
        <time>2010-01-01T01:48:42Z</time>
      </trkpt>
      <trkpt lat="45.95926000" lon="11.21963000">
        <ele>992.00000</ele>
        <time>2010-01-01T01:48:46Z</time>
      </trkpt>
      <trkpt lat="45.95905000" lon="11.21946000">
        <ele>1002.0000</ele>
        <time>2010-01-01T01:48:56Z</time>
      </trkpt>
      <trkpt lat="45.95886990" lon="11.21950000">
        <ele>1007.0000</ele>
        <time>2010-01-01T01:49:03Z</time>
      </trkpt>
      <trkpt lat="45.95878000" lon="11.21954000">
        <ele>1009.0000</ele>
        <time>2010-01-01T01:49:07Z</time>
      </trkpt>
      <trkpt lat="45.95845000" lon="11.21985000">
        <ele>1014.0000</ele>
        <time>2010-01-01T01:49:23Z</time>
      </trkpt>
      <trkpt lat="45.95863000" lon="11.22066000">
        <ele>1001.0000</ele>
        <time>2010-01-01T01:49:47Z</time>
      </trkpt>
      <trkpt lat="45.95860000" lon="11.22080000">
        <ele>1000.0000</ele>
        <time>2010-01-01T01:49:51Z</time>
      </trkpt>
      <trkpt lat="45.95842000" lon="11.22097000">
        <ele>1002.0000</ele>
        <time>2010-01-01T01:49:59Z</time>
      </trkpt>
      <trkpt lat="45.95746000" lon="11.22088000">
        <ele>1010.0000</ele>
        <time>2010-01-01T01:50:38Z</time>
      </trkpt>
      <trkpt lat="45.95731000" lon="11.22075000">
        <ele>1010.0000</ele>
        <time>2010-01-01T01:50:45Z</time>
      </trkpt>
      <trkpt lat="45.95716000" lon="11.21997000">
        <ele>1018.0000</ele>
        <time>2010-01-01T01:51:07Z</time>
      </trkpt>
      <trkpt lat="45.95710000" lon="11.21932000">
        <ele>1024.0000</ele>
        <time>2010-01-01T01:51:26Z</time>
      </trkpt>
      <trkpt lat="45.95700990" lon="11.21903000">
        <ele>1025.0000</ele>
        <time>2010-01-01T01:51:34Z</time>
      </trkpt>
      <trkpt lat="45.95692000" lon="11.21889000">
        <ele>1026.0000</ele>
        <time>2010-01-01T01:51:40Z</time>
      </trkpt>
      <trkpt lat="45.95653000" lon="11.21881000">
        <ele>1018.0000</ele>
        <time>2010-01-01T01:51:55Z</time>
      </trkpt>
      <trkpt lat="45.95626000" lon="11.21825000">
        <ele>1023.0000</ele>
        <time>2010-01-01T01:52:14Z</time>
      </trkpt>
      <trkpt lat="45.95578000" lon="11.21760000">
        <ele>1029.0000</ele>
        <time>2010-01-01T01:52:41Z</time>
      </trkpt>
      <trkpt lat="45.95574000" lon="11.21703000">
        <ele>1035.0000</ele>
        <time>2010-01-01T01:52:57Z</time>
      </trkpt>
      <trkpt lat="45.95574000" lon="11.21700000">
        <ele>1036.0000</ele>
        <time>2010-01-01T01:52:58Z</time>
      </trkpt>
      <trkpt lat="45.95566000" lon="11.21664000">
        <ele>1038.0000</ele>
        <time>2010-01-01T01:53:08Z</time>
      </trkpt>
      <trkpt lat="45.95529000" lon="11.21587000">
        <ele>1046.0000</ele>
        <time>2010-01-01T01:53:34Z</time>
      </trkpt>
      <trkpt lat="45.95488000" lon="11.21574000">
        <ele>1045.0000</ele>
        <time>2010-01-01T01:53:51Z</time>
      </trkpt>
      <trkpt lat="45.95458000" lon="11.21583000">
        <ele>1045.0000</ele>
        <time>2010-01-01T01:54:03Z</time>
      </trkpt>
      <trkpt lat="45.95409000" lon="11.21574000">
        <ele>1049.0000</ele>
        <time>2010-01-01T01:54:23Z</time>
      </trkpt>
      <trkpt lat="45.95367000" lon="11.21504000">
        <ele>1057.0000</ele>
        <time>2010-01-01T01:54:49Z</time>
      </trkpt>
      <trkpt lat="45.95328000" lon="11.21466000">
        <ele>1060.0000</ele>
        <time>2010-01-01T01:55:08Z</time>
      </trkpt>
      <trkpt lat="45.95259000" lon="11.21401000">
        <ele>1063.0000</ele>
        <time>2010-01-01T01:55:41Z</time>
      </trkpt>
      <trkpt lat="45.95255990" lon="11.21340000">
        <ele>1069.0000</ele>
        <time>2010-01-01T01:55:58Z</time>
      </trkpt>
      <trkpt lat="45.95229000" lon="11.21158000">
        <ele>1080.0000</ele>
        <time>2010-01-01T01:56:49Z</time>
      </trkpt>
      <trkpt lat="45.95132000" lon="11.21033000">
        <ele>1089.0000</ele>
        <time>2010-01-01T01:57:42Z</time>
      </trkpt>
      <trkpt lat="45.95114000" lon="11.21024000">
        <ele>1091.0000</ele>
        <time>2010-01-01T01:57:49Z</time>
      </trkpt>
      <trkpt lat="45.95084000" lon="11.21038000">
        <ele>1091.0000</ele>
        <time>2010-01-01T01:58:02Z</time>
      </trkpt>
      <trkpt lat="45.95061000" lon="11.21089000">
        <ele>1084.0000</ele>
        <time>2010-01-01T01:58:19Z</time>
      </trkpt>
      <trkpt lat="45.95033000" lon="11.21085000">
        <ele>1086.0000</ele>
        <time>2010-01-01T01:58:30Z</time>
      </trkpt>
      <trkpt lat="45.95012000" lon="11.21067000">
        <ele>1090.0000</ele>
        <time>2010-01-01T01:58:40Z</time>
      </trkpt>
      <trkpt lat="45.94985000" lon="11.20951000">
        <ele>1103.0000</ele>
        <time>2010-01-01T01:59:14Z</time>
      </trkpt>
      <trkpt lat="45.94937000" lon="11.20882000">
        <ele>1100.0000</ele>
        <time>2010-01-01T01:59:41Z</time>
      </trkpt>
      <trkpt lat="45.94928000" lon="11.20838000">
        <ele>1102.0000</ele>
        <time>2010-01-01T01:59:54Z</time>
      </trkpt>
      <trkpt lat="45.94934000" lon="11.20791000">
        <ele>1098.0000</ele>
        <time>2010-01-01T02:00:07Z</time>
      </trkpt>
      <trkpt lat="45.94970000" lon="11.20730000">
        <ele>1108.0000</ele>
        <time>2010-01-01T02:00:29Z</time>
      </trkpt>
      <trkpt lat="45.95009000" lon="11.20696000">
        <ele>1119.0000</ele>
        <time>2010-01-01T02:00:48Z</time>
      </trkpt>
      <trkpt lat="45.95000000" lon="11.20653000">
        <ele>1113.0000</ele>
        <time>2010-01-01T02:01:00Z</time>
      </trkpt>
      <trkpt lat="45.94967000" lon="11.20605000">
        <ele>1107.0000</ele>
        <time>2010-01-01T02:01:19Z</time>
      </trkpt>
      <trkpt lat="45.94961000" lon="11.20596000">
        <ele>1106.0000</ele>
        <time>2010-01-01T02:01:22Z</time>
      </trkpt>
      <trkpt lat="45.94970000" lon="11.20475000">
        <ele>1116.0000</ele>
        <time>2010-01-01T02:01:56Z</time>
      </trkpt>
      <trkpt lat="45.94982000" lon="11.20410000">
        <ele>1117.0000</ele>
        <time>2010-01-01T02:02:15Z</time>
      </trkpt>
      <trkpt lat="45.94973000" lon="11.20393000">
        <ele>1118.0000</ele>
        <time>2010-01-01T02:02:21Z</time>
      </trkpt>
      <trkpt lat="45.94955000" lon="11.20384000">
        <ele>1116.0000</ele>
        <time>2010-01-01T02:02:29Z</time>
      </trkpt>
      <trkpt lat="45.94922000" lon="11.20393000">
        <ele>1108.0000</ele>
        <time>2010-01-01T02:02:42Z</time>
      </trkpt>
      <trkpt lat="45.94805000" lon="11.20527000">
        <ele>1122.0000</ele>
        <time>2010-01-01T02:03:42Z</time>
      </trkpt>
      <trkpt lat="45.94787000" lon="11.20605000">
        <ele>1113.0000</ele>
        <time>2010-01-01T02:04:05Z</time>
      </trkpt>
      <trkpt lat="45.94757000" lon="11.20691000">
        <ele>1108.0000</ele>
        <time>2010-01-01T02:04:31Z</time>
      </trkpt>
      <trkpt lat="45.94745000" lon="11.20717000">
        <ele>1107.0000</ele>
        <time>2010-01-01T02:04:40Z</time>
      </trkpt>
      <trkpt lat="45.94705000" lon="11.20747000">
        <ele>1117.0000</ele>
        <time>2010-01-01T02:04:58Z</time>
      </trkpt>
      <trkpt lat="45.94630000" lon="11.20782000">
        <ele>1125.0000</ele>
        <time>2010-01-01T02:05:30Z</time>
      </trkpt>
      <trkpt lat="45.94465000" lon="11.20821000">
        <ele>1236.0000</ele>
        <time>2010-01-01T02:06:37Z</time>
      </trkpt>
      <trkpt lat="45.94399000" lon="11.20873000">
        <ele>1259.0000</ele>
        <time>2010-01-01T02:07:07Z</time>
      </trkpt>
      <trkpt lat="45.94351000" lon="11.20942000">
        <ele>1240.0000</ele>
        <time>2010-01-01T02:07:34Z</time>
      </trkpt>
      <trkpt lat="45.94345000" lon="11.20951000">
        <ele>1236.0000</ele>
        <time>2010-01-01T02:07:37Z</time>
      </trkpt>
      <trkpt lat="45.94300000" lon="11.21050000">
        <ele>1205.0000</ele>
        <time>2010-01-01T02:08:10Z</time>
      </trkpt>
      <trkpt lat="45.94185000" lon="11.21600000">
        <ele>1096.0000</ele>
        <time>2010-01-01T02:10:50Z</time>
      </trkpt>
      <trkpt lat="45.94149000" lon="11.21703000">
        <ele>1091.0000</ele>
        <time>2010-01-01T02:11:22Z</time>
      </trkpt>
      <trkpt lat="45.94143000" lon="11.21712000">
        <ele>1091.0000</ele>
        <time>2010-01-01T02:11:26Z</time>
      </trkpt>
      <trkpt lat="45.94119000" lon="11.21751000">
        <ele>1087.0000</ele>
        <time>2010-01-01T02:11:40Z</time>
      </trkpt>
      <trkpt lat="45.94037000" lon="11.21820000">
        <ele>1086.0000</ele>
        <time>2010-01-01T02:12:18Z</time>
      </trkpt>
      <trkpt lat="45.93992000" lon="11.21834000">
        <ele>1088.0000</ele>
        <time>2010-01-01T02:12:37Z</time>
      </trkpt>
      <trkpt lat="45.93942000" lon="11.21889000">
        <ele>1082.0000</ele>
        <time>2010-01-01T02:13:02Z</time>
      </trkpt>
      <trkpt lat="45.93929000" lon="11.21889000">
        <ele>1083.0000</ele>
        <time>2010-01-01T02:13:07Z</time>
      </trkpt>
      <trkpt lat="45.93887000" lon="11.21872000">
        <ele>1091.0000</ele>
        <time>2010-01-01T02:13:25Z</time>
      </trkpt>
      <trkpt lat="45.93857000" lon="11.21885000">
        <ele>1088.0000</ele>
        <time>2010-01-01T02:13:37Z</time>
      </trkpt>
      <trkpt lat="45.93794000" lon="11.21881000">
        <ele>1094.0000</ele>
        <time>2010-01-01T02:14:02Z</time>
      </trkpt>
      <trkpt lat="45.93770000" lon="11.21889000">
        <ele>1094.0000</ele>
        <time>2010-01-01T02:14:12Z</time>
      </trkpt>
      <trkpt lat="45.93746000" lon="11.21911000">
        <ele>1091.0000</ele>
        <time>2010-01-01T02:14:24Z</time>
      </trkpt>
      <trkpt lat="45.93632000" lon="11.22071000">
        <ele>1079.0000</ele>
        <time>2010-01-01T02:15:27Z</time>
      </trkpt>
      <trkpt lat="45.93587000" lon="11.22093000">
        <ele>1082.0000</ele>
        <time>2010-01-01T02:15:47Z</time>
      </trkpt>
      <trkpt lat="45.93565000" lon="11.22102000">
        <ele>1083.0000</ele>
        <time>2010-01-01T02:15:56Z</time>
      </trkpt>
      <trkpt lat="45.93481000" lon="11.22162000">
        <ele>1081.0000</ele>
        <time>2010-01-01T02:16:33Z</time>
      </trkpt>
      <trkpt lat="45.93457000" lon="11.22149000">
        <ele>1087.0000</ele>
        <time>2010-01-01T02:16:43Z</time>
      </trkpt>
      <trkpt lat="45.93442000" lon="11.22154000">
        <ele>1087.0000</ele>
        <time>2010-01-01T02:16:50Z</time>
      </trkpt>
      <trkpt lat="45.93421000" lon="11.22240000">
        <ele>1084.0000</ele>
        <time>2010-01-01T02:17:15Z</time>
      </trkpt>
      <trkpt lat="45.93351990" lon="11.22365000">
        <ele>1091.0000</ele>
        <time>2010-01-01T02:17:59Z</time>
      </trkpt>
      <trkpt lat="45.93346000" lon="11.22408000">
        <ele>1089.0000</ele>
        <time>2010-01-01T02:18:12Z</time>
      </trkpt>
      <trkpt lat="45.93367000" lon="11.22542000">
        <ele>1082.0000</ele>
        <time>2010-01-01T02:18:50Z</time>
      </trkpt>
      <trkpt lat="45.93393990" lon="11.22608000">
        <ele>1078.0000</ele>
        <time>2010-01-01T02:19:11Z</time>
      </trkpt>
      <trkpt lat="45.93412000" lon="11.22642000">
        <ele>1075.0000</ele>
        <time>2010-01-01T02:19:23Z</time>
      </trkpt>
      <trkpt lat="45.93429990" lon="11.22655000">
        <ele>1075.0000</ele>
        <time>2010-01-01T02:19:31Z</time>
      </trkpt>
      <trkpt lat="45.93460000" lon="11.22664000">
        <ele>1074.0000</ele>
        <time>2010-01-01T02:19:43Z</time>
      </trkpt>
      <trkpt lat="45.93502000" lon="11.22673000">
        <ele>1074.0000</ele>
        <time>2010-01-01T02:20:00Z</time>
      </trkpt>
      <trkpt lat="45.93487000" lon="11.22750000">
        <ele>1074.0000</ele>
        <time>2010-01-01T02:20:23Z</time>
      </trkpt>
      <trkpt lat="45.93451000" lon="11.22790000">
        <ele>1072.0000</ele>
        <time>2010-01-01T02:20:41Z</time>
      </trkpt>
      <trkpt lat="45.93435990" lon="11.22802000">
        <ele>1070.0000</ele>
        <time>2010-01-01T02:20:48Z</time>
      </trkpt>
      <trkpt lat="45.93433000" lon="11.22807000">
        <ele>1070.0000</ele>
        <time>2010-01-01T02:20:50Z</time>
      </trkpt>
      <trkpt lat="45.93406000" lon="11.22906000">
        <ele>1066.0000</ele>
        <time>2010-01-01T02:21:19Z</time>
      </trkpt>
      <trkpt lat="45.93385000" lon="11.23005000">
        <ele>1060.0000</ele>
        <time>2010-01-01T02:21:48Z</time>
      </trkpt>
      <trkpt lat="45.93388000" lon="11.23040000">
        <ele>1052.0000</ele>
        <time>2010-01-01T02:21:58Z</time>
      </trkpt>
      <trkpt lat="45.93399990" lon="11.23066000">
        <ele>1045.0000</ele>
        <time>2010-01-01T02:22:07Z</time>
      </trkpt>
      <trkpt lat="45.93415000" lon="11.23079000">
        <ele>1040.0000</ele>
        <time>2010-01-01T02:22:14Z</time>
      </trkpt>
      <trkpt lat="45.93463000" lon="11.23092000">
        <ele>1050.0000</ele>
        <time>2010-01-01T02:22:33Z</time>
      </trkpt>
      <trkpt lat="45.93515000" lon="11.23148000">
        <ele>1042.0000</ele>
        <time>2010-01-01T02:22:59Z</time>
      </trkpt>
      <trkpt lat="45.93587000" lon="11.23244000">
        <ele>1042.0000</ele>
        <time>2010-01-01T02:23:38Z</time>
      </trkpt>
      <trkpt lat="45.93590000" lon="11.23247000">
        <ele>1043.0000</ele>
        <time>2010-01-01T02:23:40Z</time>
      </trkpt>
      <trkpt lat="45.93641000" lon="11.23378000">
        <ele>1039.0000</ele>
        <time>2010-01-01T02:24:22Z</time>
      </trkpt>
      <trkpt lat="45.93662000" lon="11.23693000">
        <ele>1042.0000</ele>
        <time>2010-01-01T02:25:50Z</time>
      </trkpt>
      <trkpt lat="45.93635000" lon="11.23784000">
        <ele>1044.0000</ele>
        <time>2010-01-01T02:26:17Z</time>
      </trkpt>
      <trkpt lat="45.93587000" lon="11.23853000">
        <ele>1041.0000</ele>
        <time>2010-01-01T02:26:45Z</time>
      </trkpt>
      <trkpt lat="45.93553000" lon="11.23901000">
        <ele>1036.0000</ele>
        <time>2010-01-01T02:27:04Z</time>
      </trkpt>
      <trkpt lat="45.93475000" lon="11.24009000">
        <ele>1030.0000</ele>
        <time>2010-01-01T02:27:47Z</time>
      </trkpt>
      <trkpt lat="45.93427000" lon="11.24134000">
        <ele>1027.0000</ele>
        <time>2010-01-01T02:28:27Z</time>
      </trkpt>
      <trkpt lat="45.93388000" lon="11.24174000">
        <ele>1022.0000</ele>
        <time>2010-01-01T02:28:46Z</time>
      </trkpt>
      <trkpt lat="45.93171000" lon="11.24433000">
        <ele>1013.0000</ele>
        <time>2010-01-01T02:30:39Z</time>
      </trkpt>
      <trkpt lat="45.93146990" lon="11.24480000">
        <ele>1013.0000</ele>
        <time>2010-01-01T02:30:55Z</time>
      </trkpt>
      <trkpt lat="45.93129000" lon="11.24494000">
        <ele>1010.0000</ele>
        <time>2010-01-01T02:31:03Z</time>
      </trkpt>
      <trkpt lat="45.93126000" lon="11.24471000">
        <ele>1006.0000</ele>
        <time>2010-01-01T02:31:10Z</time>
      </trkpt>
      <trkpt lat="45.93178000" lon="11.24389000">
        <ele>1009.0000</ele>
        <time>2010-01-01T02:31:41Z</time>
      </trkpt>
      <trkpt lat="45.93181000" lon="11.24264000">
        <ele>993.00000</ele>
        <time>2010-01-01T02:32:15Z</time>
      </trkpt>
      <trkpt lat="45.93199000" lon="11.24225000">
        <ele>990.00000</ele>
        <time>2010-01-01T02:32:28Z</time>
      </trkpt>
      <trkpt lat="45.93223000" lon="11.24195000">
        <ele>990.00000</ele>
        <time>2010-01-01T02:32:41Z</time>
      </trkpt>
      <trkpt lat="45.93289000" lon="11.24152000">
        <ele>993.00000</ele>
        <time>2010-01-01T02:33:10Z</time>
      </trkpt>
      <trkpt lat="45.93391000" lon="11.23901000">
        <ele>965.00000</ele>
        <time>2010-01-01T02:34:31Z</time>
      </trkpt>
      <trkpt lat="45.93406000" lon="11.23862000">
        <ele>962.00000</ele>
        <time>2010-01-01T02:34:44Z</time>
      </trkpt>
      <trkpt lat="45.93460000" lon="11.23784000">
        <ele>966.00000</ele>
        <time>2010-01-01T02:35:14Z</time>
      </trkpt>
      <trkpt lat="45.93490000" lon="11.23710000">
        <ele>963.00000</ele>
        <time>2010-01-01T02:35:38Z</time>
      </trkpt>
      <trkpt lat="45.93493000" lon="11.23594000">
        <ele>949.00000</ele>
        <time>2010-01-01T02:36:10Z</time>
      </trkpt>
      <trkpt lat="45.93465990" lon="11.23429000">
        <ele>933.00000</ele>
        <time>2010-01-01T02:36:58Z</time>
      </trkpt>
      <trkpt lat="45.93451000" lon="11.23395000">
        <ele>931.00000</ele>
        <time>2010-01-01T02:37:09Z</time>
      </trkpt>
      <trkpt lat="45.93406000" lon="11.23352000">
        <ele>926.00000</ele>
        <time>2010-01-01T02:37:30Z</time>
      </trkpt>
      <trkpt lat="45.93334000" lon="11.23317000">
        <ele>929.00000</ele>
        <time>2010-01-01T02:38:01Z</time>
      </trkpt>
      <trkpt lat="45.93334000" lon="11.23343000">
        <ele>917.00000</ele>
        <time>2010-01-01T02:38:08Z</time>
      </trkpt>
      <trkpt lat="45.93340000" lon="11.23352000">
        <ele>914.00000</ele>
        <time>2010-01-01T02:38:11Z</time>
      </trkpt>
      <trkpt lat="45.93370000" lon="11.23356000">
        <ele>918.00000</ele>
        <time>2010-01-01T02:38:24Z</time>
      </trkpt>
      <trkpt lat="45.93412000" lon="11.23399000">
        <ele>914.00000</ele>
        <time>2010-01-01T02:38:44Z</time>
      </trkpt>
      <trkpt lat="45.93439000" lon="11.23512000">
        <ele>916.00000</ele>
        <time>2010-01-01T02:39:17Z</time>
      </trkpt>
      <trkpt lat="45.93412000" lon="11.23607000">
        <ele>915.00000</ele>
        <time>2010-01-01T02:39:46Z</time>
      </trkpt>
      <trkpt lat="45.93370000" lon="11.23663000">
        <ele>904.00000</ele>
        <time>2010-01-01T02:40:09Z</time>
      </trkpt>
      <trkpt lat="45.93346000" lon="11.23758000">
        <ele>909.00000</ele>
        <time>2010-01-01T02:40:37Z</time>
      </trkpt>
      <trkpt lat="45.93331000" lon="11.23758000">
        <ele>902.00000</ele>
        <time>2010-01-01T02:40:43Z</time>
      </trkpt>
      <trkpt lat="45.93367000" lon="11.23555000">
        <ele>889.00000</ele>
        <time>2010-01-01T02:41:41Z</time>
      </trkpt>
      <trkpt lat="45.93357990" lon="11.23486000">
        <ele>883.00000</ele>
        <time>2010-01-01T02:42:01Z</time>
      </trkpt>
      <trkpt lat="45.93343000" lon="11.23455000">
        <ele>881.00000</ele>
        <time>2010-01-01T02:42:11Z</time>
      </trkpt>
      <trkpt lat="45.93337000" lon="11.23455000">
        <ele>879.00000</ele>
        <time>2010-01-01T02:42:14Z</time>
      </trkpt>
      <trkpt lat="45.93331000" lon="11.23516000">
        <ele>872.00000</ele>
        <time>2010-01-01T02:42:31Z</time>
      </trkpt>
      <trkpt lat="45.93315990" lon="11.23567000">
        <ele>871.00000</ele>
        <time>2010-01-01T02:42:46Z</time>
      </trkpt>
      <trkpt lat="45.93289000" lon="11.23693000">
        <ele>872.00000</ele>
        <time>2010-01-01T02:43:23Z</time>
      </trkpt>
      <trkpt lat="45.93241000" lon="11.23784000">
        <ele>868.00000</ele>
        <time>2010-01-01T02:43:55Z</time>
      </trkpt>
      <trkpt lat="45.93229000" lon="11.23784000">
        <ele>864.00000</ele>
        <time>2010-01-01T02:44:00Z</time>
      </trkpt>
      <trkpt lat="45.93223000" lon="11.23767000">
        <ele>858.00000</ele>
        <time>2010-01-01T02:44:05Z</time>
      </trkpt>
      <trkpt lat="45.93249000" lon="11.23693000">
        <ele>856.00000</ele>
        <time>2010-01-01T02:44:28Z</time>
      </trkpt>
      <trkpt lat="45.93249000" lon="11.23611000">
        <ele>853.00000</ele>
        <time>2010-01-01T02:44:51Z</time>
      </trkpt>
      <trkpt lat="45.93238000" lon="11.23615000">
        <ele>852.00000</ele>
        <time>2010-01-01T02:44:56Z</time>
      </trkpt>
      <trkpt lat="45.93204000" lon="11.23732000">
        <ele>848.00000</ele>
        <time>2010-01-01T02:45:31Z</time>
      </trkpt>
      <trkpt lat="45.93184000" lon="11.23775000">
        <ele>849.00000</ele>
        <time>2010-01-01T02:45:45Z</time>
      </trkpt>
      <trkpt lat="45.93114000" lon="11.23835000">
        <ele>845.00000</ele>
        <time>2010-01-01T02:46:18Z</time>
      </trkpt>
      <trkpt lat="45.93048000" lon="11.23901000">
        <ele>847.00000</ele>
        <time>2010-01-01T02:46:50Z</time>
      </trkpt>
      <trkpt lat="45.93042000" lon="11.23909000">
        <ele>847.00000</ele>
        <time>2010-01-01T02:46:53Z</time>
      </trkpt>
      <trkpt lat="45.92949000" lon="11.23918000">
        <ele>825.00000</ele>
        <time>2010-01-01T02:47:31Z</time>
      </trkpt>
      <trkpt lat="45.92931000" lon="11.23926000">
        <ele>823.00000</ele>
        <time>2010-01-01T02:47:38Z</time>
      </trkpt>
      <trkpt lat="45.92882990" lon="11.24014000">
        <ele>824.00000</ele>
        <time>2010-01-01T02:48:09Z</time>
      </trkpt>
      <trkpt lat="45.92822000" lon="11.24074000">
        <ele>811.00000</ele>
        <time>2010-01-01T02:48:39Z</time>
      </trkpt>
      <trkpt lat="45.92768000" lon="11.24130000">
        <ele>818.00000</ele>
        <time>2010-01-01T02:49:06Z</time>
      </trkpt>
      <trkpt lat="45.92750000" lon="11.24160000">
        <ele>827.00000</ele>
        <time>2010-01-01T02:49:17Z</time>
      </trkpt>
      <trkpt lat="45.92738000" lon="11.24160000">
        <ele>821.00000</ele>
        <time>2010-01-01T02:49:21Z</time>
      </trkpt>
      <trkpt lat="45.92779990" lon="11.24069000">
        <ele>797.00000</ele>
        <time>2010-01-01T02:49:52Z</time>
      </trkpt>
      <trkpt lat="45.92787000" lon="11.24000000">
        <ele>789.00000</ele>
        <time>2010-01-01T02:50:11Z</time>
      </trkpt>
      <trkpt lat="45.92768000" lon="11.23983000">
        <ele>788.00000</ele>
        <time>2010-01-01T02:50:20Z</time>
      </trkpt>
      <trkpt lat="45.92714000" lon="11.24000000">
        <ele>778.00000</ele>
        <time>2010-01-01T02:50:42Z</time>
      </trkpt>
      <trkpt lat="45.92639000" lon="11.24005000">
        <ele>779.00000</ele>
        <time>2010-01-01T02:51:12Z</time>
      </trkpt>
      <trkpt lat="45.92612000" lon="11.24022000">
        <ele>779.00000</ele>
        <time>2010-01-01T02:51:24Z</time>
      </trkpt>
      <trkpt lat="45.92528000" lon="11.24152000">
        <ele>770.00000</ele>
        <time>2010-01-01T02:52:14Z</time>
      </trkpt>
      <trkpt lat="45.92501000" lon="11.24217000">
        <ele>762.00000</ele>
        <time>2010-01-01T02:52:35Z</time>
      </trkpt>
      <trkpt lat="45.92419000" lon="11.24299000">
        <ele>764.00000</ele>
        <time>2010-01-01T02:53:15Z</time>
      </trkpt>
      <trkpt lat="45.92383000" lon="11.24368000">
        <ele>767.00000</ele>
        <time>2010-01-01T02:53:39Z</time>
      </trkpt>
      <trkpt lat="45.92329000" lon="11.24528000">
        <ele>756.00000</ele>
        <time>2010-01-01T02:54:28Z</time>
      </trkpt>
      <trkpt lat="45.92278000" lon="11.24736000">
        <ele>745.00000</ele>
        <time>2010-01-01T02:55:30Z</time>
      </trkpt>
      <trkpt lat="45.92269000" lon="11.24809000">
        <ele>739.00000</ele>
        <time>2010-01-01T02:55:50Z</time>
      </trkpt>
      <trkpt lat="45.92220000" lon="11.24999000">
        <ele>741.00000</ele>
        <time>2010-01-01T02:56:47Z</time>
      </trkpt>
      <trkpt lat="45.92218000" lon="11.25004000">
        <ele>742.00000</ele>
        <time>2010-01-01T02:56:48Z</time>
      </trkpt>
      <trkpt lat="45.92218000" lon="11.25168000">
        <ele>721.00000</ele>
        <time>2010-01-01T02:57:34Z</time>
      </trkpt>
      <trkpt lat="45.92200000" lon="11.25255000">
        <ele>712.00000</ele>
        <time>2010-01-01T02:57:59Z</time>
      </trkpt>
      <trkpt lat="45.92175000" lon="11.25289000">
        <ele>715.00000</ele>
        <time>2010-01-01T02:58:13Z</time>
      </trkpt>
      <trkpt lat="45.92112000" lon="11.25415000">
        <ele>712.00000</ele>
        <time>2010-01-01T02:58:56Z</time>
      </trkpt>
      <trkpt lat="45.92076990" lon="11.25458000">
        <ele>710.00000</ele>
        <time>2010-01-01T02:59:15Z</time>
      </trkpt>
      <trkpt lat="45.92064000" lon="11.25488000">
        <ele>707.00000</ele>
        <time>2010-01-01T02:59:24Z</time>
      </trkpt>
      <trkpt lat="45.92084990" lon="11.25493000">
        <ele>682.00000</ele>
        <time>2010-01-01T02:59:33Z</time>
      </trkpt>
      <trkpt lat="45.92137000" lon="11.25402000">
        <ele>701.00000</ele>
        <time>2010-01-01T03:00:06Z</time>
      </trkpt>
      <trkpt lat="45.92205000" lon="11.25324000">
        <ele>689.00000</ele>
        <time>2010-01-01T03:00:41Z</time>
      </trkpt>
      <trkpt lat="45.92226990" lon="11.25319000">
        <ele>680.00000</ele>
        <time>2010-01-01T03:00:49Z</time>
      </trkpt>
      <trkpt lat="45.92226990" lon="11.25341000">
        <ele>675.00000</ele>
        <time>2010-01-01T03:00:56Z</time>
      </trkpt>
      <trkpt lat="45.92145000" lon="11.25445000">
        <ele>682.00000</ele>
        <time>2010-01-01T03:01:39Z</time>
      </trkpt>
      <trkpt lat="45.92058000" lon="11.25605000">
        <ele>664.00000</ele>
        <time>2010-01-01T03:02:36Z</time>
      </trkpt>
      <trkpt lat="45.92052000" lon="11.25613000">
        <ele>665.00000</ele>
        <time>2010-01-01T03:02:39Z</time>
      </trkpt>
      <trkpt lat="45.92034000" lon="11.25683000">
        <ele>652.00000</ele>
        <time>2010-01-01T03:03:00Z</time>
      </trkpt>
      <trkpt lat="45.92001000" lon="11.25752000">
        <ele>644.00000</ele>
        <time>2010-01-01T03:03:23Z</time>
      </trkpt>
      <trkpt lat="45.92010000" lon="11.25773000">
        <ele>638.00000</ele>
        <time>2010-01-01T03:03:30Z</time>
      </trkpt>
      <trkpt lat="45.92022000" lon="11.25765000">
        <ele>638.00000</ele>
        <time>2010-01-01T03:03:35Z</time>
      </trkpt>
      <trkpt lat="45.92037000" lon="11.25709000">
        <ele>646.00000</ele>
        <time>2010-01-01T03:03:52Z</time>
      </trkpt>
      <trkpt lat="45.92058000" lon="11.25675000">
        <ele>647.00000</ele>
        <time>2010-01-01T03:04:05Z</time>
      </trkpt>
      <trkpt lat="45.92107000" lon="11.25601000">
        <ele>649.00000</ele>
        <time>2010-01-01T03:04:33Z</time>
      </trkpt>
      <trkpt lat="45.92122000" lon="11.25592000">
        <ele>648.00000</ele>
        <time>2010-01-01T03:04:40Z</time>
      </trkpt>
      <trkpt lat="45.92130000" lon="11.25605000">
        <ele>645.00000</ele>
        <time>2010-01-01T03:04:45Z</time>
      </trkpt>
      <trkpt lat="45.92079000" lon="11.25670000">
        <ele>641.00000</ele>
        <time>2010-01-01T03:05:12Z</time>
      </trkpt>
      <trkpt lat="45.92067000" lon="11.25696000">
        <ele>640.00000</ele>
        <time>2010-01-01T03:05:21Z</time>
      </trkpt>
      <trkpt lat="45.92058000" lon="11.25752000">
        <ele>632.00000</ele>
        <time>2010-01-01T03:05:37Z</time>
      </trkpt>
      <trkpt lat="45.92040000" lon="11.25847000">
        <ele>626.00000</ele>
        <time>2010-01-01T03:06:04Z</time>
      </trkpt>
      <trkpt lat="45.91898990" lon="11.26029000">
        <ele>618.00000</ele>
        <time>2010-01-01T03:07:20Z</time>
      </trkpt>
      <trkpt lat="45.91872000" lon="11.26077000">
        <ele>620.00000</ele>
        <time>2010-01-01T03:07:37Z</time>
      </trkpt>
      <trkpt lat="45.91869000" lon="11.26098000">
        <ele>618.00000</ele>
        <time>2010-01-01T03:07:43Z</time>
      </trkpt>
      <trkpt lat="45.91839000" lon="11.26197000">
        <ele>611.00000</ele>
        <time>2010-01-01T03:08:13Z</time>
      </trkpt>
      <trkpt lat="45.91823990" lon="11.26228000">
        <ele>609.00000</ele>
        <time>2010-01-01T03:08:24Z</time>
      </trkpt>
      <trkpt lat="45.91787000" lon="11.26258000">
        <ele>615.00000</ele>
        <time>2010-01-01T03:08:41Z</time>
      </trkpt>
      <trkpt lat="45.91776000" lon="11.26288000">
        <ele>614.00000</ele>
        <time>2010-01-01T03:08:50Z</time>
      </trkpt>
      <trkpt lat="45.91769000" lon="11.26318000">
        <ele>613.00000</ele>
        <time>2010-01-01T03:08:59Z</time>
      </trkpt>
      <trkpt lat="45.91700000" lon="11.26483000">
        <ele>619.00000</ele>
        <time>2010-01-01T03:09:52Z</time>
      </trkpt>
      <trkpt lat="45.91652000" lon="11.26600000">
        <ele>620.00000</ele>
        <time>2010-01-01T03:10:30Z</time>
      </trkpt>
      <trkpt lat="45.91640000" lon="11.26786000">
        <ele>601.00000</ele>
        <time>2010-01-01T03:11:22Z</time>
      </trkpt>
      <trkpt lat="45.91613000" lon="11.26877000">
        <ele>600.00000</ele>
        <time>2010-01-01T03:11:50Z</time>
      </trkpt>
      <trkpt lat="45.91613000" lon="11.26968000">
        <ele>592.00000</ele>
        <time>2010-01-01T03:12:15Z</time>
      </trkpt>
      <trkpt lat="45.91616000" lon="11.27045000">
        <ele>583.00000</ele>
        <time>2010-01-01T03:12:37Z</time>
      </trkpt>
      <trkpt lat="45.91589000" lon="11.27110000">
        <ele>583.00000</ele>
        <time>2010-01-01T03:12:58Z</time>
      </trkpt>
      <trkpt lat="45.91592000" lon="11.27153000">
        <ele>580.00000</ele>
        <time>2010-01-01T03:13:10Z</time>
      </trkpt>
      <trkpt lat="45.91583000" lon="11.27179000">
        <ele>580.00000</ele>
        <time>2010-01-01T03:13:18Z</time>
      </trkpt>
      <trkpt lat="45.91568000" lon="11.27196000">
        <ele>582.00000</ele>
        <time>2010-01-01T03:13:26Z</time>
      </trkpt>
      <trkpt lat="45.91528000" lon="11.27214000">
        <ele>589.00000</ele>
        <time>2010-01-01T03:13:42Z</time>
      </trkpt>
      <trkpt lat="45.91512990" lon="11.27236000">
        <ele>591.00000</ele>
        <time>2010-01-01T03:13:51Z</time>
      </trkpt>
      <trkpt lat="45.91523000" lon="11.27331000">
        <ele>580.00000</ele>
        <time>2010-01-01T03:14:18Z</time>
      </trkpt>
      <trkpt lat="45.91498000" lon="11.27378000">
        <ele>579.00000</ele>
        <time>2010-01-01T03:14:34Z</time>
      </trkpt>
      <trkpt lat="45.91483000" lon="11.27430000">
        <ele>572.00000</ele>
        <time>2010-01-01T03:14:50Z</time>
      </trkpt>
      <trkpt lat="45.91505000" lon="11.27426000">
        <ele>568.00000</ele>
        <time>2010-01-01T03:14:59Z</time>
      </trkpt>
      <trkpt lat="45.91542990" lon="11.27400000">
        <ele>564.00000</ele>
        <time>2010-01-01T03:15:16Z</time>
      </trkpt>
      <trkpt lat="45.91568000" lon="11.27353000">
        <ele>566.00000</ele>
        <time>2010-01-01T03:15:32Z</time>
      </trkpt>
      <trkpt lat="45.91595000" lon="11.27356000">
        <ele>559.00000</ele>
        <time>2010-01-01T03:15:43Z</time>
      </trkpt>
      <trkpt lat="45.91595000" lon="11.27391000">
        <ele>554.00000</ele>
        <time>2010-01-01T03:15:53Z</time>
      </trkpt>
      <trkpt lat="45.91556000" lon="11.27439000">
        <ele>554.00000</ele>
        <time>2010-01-01T03:16:13Z</time>
      </trkpt>
      <trkpt lat="45.91517000" lon="11.27482000">
        <ele>552.00000</ele>
        <time>2010-01-01T03:16:33Z</time>
      </trkpt>
      <trkpt lat="45.91487000" lon="11.27513000">
        <ele>551.00000</ele>
        <time>2010-01-01T03:16:48Z</time>
      </trkpt>
      <trkpt lat="45.91480000" lon="11.27538000">
        <ele>548.00000</ele>
        <time>2010-01-01T03:16:55Z</time>
      </trkpt>
      <trkpt lat="45.91487000" lon="11.27560000">
        <ele>542.00000</ele>
        <time>2010-01-01T03:17:02Z</time>
      </trkpt>
      <trkpt lat="45.91505000" lon="11.27633000">
        <ele>531.00000</ele>
        <time>2010-01-01T03:17:23Z</time>
      </trkpt>
      <trkpt lat="45.91508000" lon="11.27642000">
        <ele>531.00000</ele>
        <time>2010-01-01T03:17:26Z</time>
      </trkpt>
      <trkpt lat="45.91493000" lon="11.27690000">
        <ele>527.00000</ele>
        <time>2010-01-01T03:17:41Z</time>
      </trkpt>
      <trkpt lat="45.91408000" lon="11.27767000">
        <ele>524.00000</ele>
        <time>2010-01-01T03:18:21Z</time>
      </trkpt>
      <trkpt lat="45.91387000" lon="11.27810000">
        <ele>528.00000</ele>
        <time>2010-01-01T03:18:36Z</time>
      </trkpt>
      <trkpt lat="45.91392990" lon="11.27936000">
        <ele>532.00000</ele>
        <time>2010-01-01T03:19:11Z</time>
      </trkpt>
      <trkpt lat="45.91417000" lon="11.28006000">
        <ele>525.00000</ele>
        <time>2010-01-01T03:19:33Z</time>
      </trkpt>
      <trkpt lat="45.91426000" lon="11.28049000">
        <ele>524.00000</ele>
        <time>2010-01-01T03:19:45Z</time>
      </trkpt>
      <trkpt lat="45.91430000" lon="11.28096000">
        <ele>523.00000</ele>
        <time>2010-01-01T03:19:58Z</time>
      </trkpt>
      <trkpt lat="45.91363000" lon="11.28221000">
        <ele>521.00000</ele>
        <time>2010-01-01T03:20:42Z</time>
      </trkpt>
      <trkpt lat="45.91356990" lon="11.28295000">
        <ele>516.00000</ele>
        <time>2010-01-01T03:21:03Z</time>
      </trkpt>
      <trkpt lat="45.91351000" lon="11.28330000">
        <ele>515.00000</ele>
        <time>2010-01-01T03:21:13Z</time>
      </trkpt>
      <trkpt lat="45.91330000" lon="11.28412000">
        <ele>516.00000</ele>
        <time>2010-01-01T03:21:37Z</time>
      </trkpt>
      <trkpt lat="45.91339000" lon="11.28546000">
        <ele>504.00000</ele>
        <time>2010-01-01T03:22:15Z</time>
      </trkpt>
      <trkpt lat="45.91336000" lon="11.28646000">
        <ele>498.00000</ele>
        <time>2010-01-01T03:22:43Z</time>
      </trkpt>
      <trkpt lat="45.91312000" lon="11.28732000">
        <ele>497.00000</ele>
        <time>2010-01-01T03:23:09Z</time>
      </trkpt>
      <trkpt lat="45.91297000" lon="11.28766000">
        <ele>497.00000</ele>
        <time>2010-01-01T03:23:20Z</time>
      </trkpt>
      <trkpt lat="45.91294000" lon="11.28802000">
        <ele>495.00000</ele>
        <time>2010-01-01T03:23:30Z</time>
      </trkpt>
      <trkpt lat="45.91291000" lon="11.28836000">
        <ele>493.00000</ele>
        <time>2010-01-01T03:23:39Z</time>
      </trkpt>
      <trkpt lat="45.91294000" lon="11.28892000">
        <ele>492.00000</ele>
        <time>2010-01-01T03:23:55Z</time>
      </trkpt>
      <trkpt lat="45.91297000" lon="11.28953000">
        <ele>492.00000</ele>
        <time>2010-01-01T03:24:12Z</time>
      </trkpt>
      <trkpt lat="45.91336000" lon="11.29151000">
        <ele>488.00000</ele>
        <time>2010-01-01T03:25:09Z</time>
      </trkpt>
      <trkpt lat="45.91333000" lon="11.29282000">
        <ele>482.00000</ele>
        <time>2010-01-01T03:25:46Z</time>
      </trkpt>
      <trkpt lat="45.91306000" lon="11.29385000">
        <ele>480.00000</ele>
        <time>2010-01-01T03:26:17Z</time>
      </trkpt>
      <trkpt lat="45.91300000" lon="11.29394000">
        <ele>480.00000</ele>
        <time>2010-01-01T03:26:20Z</time>
      </trkpt>
      <trkpt lat="45.91294000" lon="11.29407000">
        <ele>480.00000</ele>
        <time>2010-01-01T03:26:24Z</time>
      </trkpt>
      <trkpt lat="45.91252000" lon="11.29489000">
        <ele>474.00000</ele>
        <time>2010-01-01T03:26:53Z</time>
      </trkpt>
      <trkpt lat="45.91189000" lon="11.29588000">
        <ele>484.00000</ele>
        <time>2010-01-01T03:27:30Z</time>
      </trkpt>
      <trkpt lat="45.91053000" lon="11.29978000">
        <ele>480.00000</ele>
        <time>2010-01-01T03:29:32Z</time>
      </trkpt>
      <trkpt lat="45.90903000" lon="11.30281000">
        <ele>466.00000</ele>
        <time>2010-01-01T03:31:15Z</time>
      </trkpt>
      <trkpt lat="45.90809990" lon="11.30458000">
        <ele>458.00000</ele>
        <time>2010-01-01T03:32:17Z</time>
      </trkpt>
      <trkpt lat="45.90788000" lon="11.30492000">
        <ele>458.00000</ele>
        <time>2010-01-01T03:32:30Z</time>
      </trkpt>
      <trkpt lat="45.90742990" lon="11.30570000">
        <ele>461.00000</ele>
        <time>2010-01-01T03:32:58Z</time>
      </trkpt>
      <trkpt lat="45.90710000" lon="11.30722000">
        <ele>453.00000</ele>
        <time>2010-01-01T03:33:42Z</time>
      </trkpt>
      <trkpt lat="45.90722000" lon="11.31098000">
        <ele>450.00000</ele>
        <time>2010-01-01T03:35:27Z</time>
      </trkpt>
      <trkpt lat="45.90728000" lon="11.31215000">
        <ele>446.00000</ele>
        <time>2010-01-01T03:36:00Z</time>
      </trkpt>
      <trkpt lat="45.90740000" lon="11.31353000">
        <ele>443.00000</ele>
        <time>2010-01-01T03:36:39Z</time>
      </trkpt>
      <trkpt lat="45.90737000" lon="11.31375000">
        <ele>445.00000</ele>
        <time>2010-01-01T03:36:45Z</time>
      </trkpt>
      <trkpt lat="45.90605000" lon="11.31323000">
        <ele>439.00000</ele>
        <time>2010-01-01T03:37:40Z</time>
      </trkpt>
      <trkpt lat="45.90556990" lon="11.31331000">
        <ele>440.00000</ele>
        <time>2010-01-01T03:37:59Z</time>
      </trkpt>
      <trkpt lat="45.90550000" lon="11.31331000">
        <ele>440.00000</ele>
        <time>2010-01-01T03:38:02Z</time>
      </trkpt>
      <trkpt lat="45.90530000" lon="11.31349000">
        <ele>440.00000</ele>
        <time>2010-01-01T03:38:11Z</time>
      </trkpt>
      <trkpt lat="45.90512000" lon="11.31366000">
        <ele>439.00000</ele>
        <time>2010-01-01T03:38:20Z</time>
      </trkpt>
      <trkpt lat="45.90439000" lon="11.31436000">
        <ele>441.00000</ele>
        <time>2010-01-01T03:38:55Z</time>
      </trkpt>
      <trkpt lat="45.90355000" lon="11.31531000">
        <ele>438.00000</ele>
        <time>2010-01-01T03:39:38Z</time>
      </trkpt>
      <trkpt lat="45.90328000" lon="11.31587000">
        <ele>434.00000</ele>
        <time>2010-01-01T03:39:57Z</time>
      </trkpt>
      <trkpt lat="45.90328000" lon="11.31591000">
        <ele>434.00000</ele>
        <time>2010-01-01T03:39:58Z</time>
      </trkpt>
      <trkpt lat="45.90316000" lon="11.31691000">
        <ele>435.00000</ele>
        <time>2010-01-01T03:40:26Z</time>
      </trkpt>
      <trkpt lat="45.90328000" lon="11.31807000">
        <ele>425.00000</ele>
        <time>2010-01-01T03:40:59Z</time>
      </trkpt>
      <trkpt lat="45.90343000" lon="11.31894000">
        <ele>423.00000</ele>
        <time>2010-01-01T03:41:24Z</time>
      </trkpt>
      <trkpt lat="45.90259000" lon="11.32175000">
        <ele>427.00000</ele>
        <time>2010-01-01T03:42:49Z</time>
      </trkpt>
      <trkpt lat="45.90057000" lon="11.32690000">
        <ele>430.00000</ele>
        <time>2010-01-01T03:45:34Z</time>
      </trkpt>
      <trkpt lat="45.90050990" lon="11.32703000">
        <ele>430.00000</ele>
        <time>2010-01-01T03:45:38Z</time>
      </trkpt>
      <trkpt lat="45.89885000" lon="11.32975000">
        <ele>423.00000</ele>
        <time>2010-01-01T03:47:19Z</time>
      </trkpt>
      <trkpt lat="45.89794990" lon="11.33152000">
        <ele>416.00000</ele>
        <time>2010-01-01T03:48:20Z</time>
      </trkpt>
      <trkpt lat="45.89765000" lon="11.33226000">
        <ele>417.00000</ele>
        <time>2010-01-01T03:48:44Z</time>
      </trkpt>
      <trkpt lat="45.89732000" lon="11.33304000">
        <ele>417.00000</ele>
        <time>2010-01-01T03:49:09Z</time>
      </trkpt>
      <trkpt lat="45.89711000" lon="11.33339000">
        <ele>415.00000</ele>
        <time>2010-01-01T03:49:22Z</time>
      </trkpt>
      <trkpt lat="45.89557000" lon="11.33429000">
        <ele>430.00000</ele>
        <time>2010-01-01T03:50:29Z</time>
      </trkpt>
      <trkpt lat="45.89524000" lon="11.33482000">
        <ele>437.00000</ele>
        <time>2010-01-01T03:50:49Z</time>
      </trkpt>
      <trkpt lat="45.89500000" lon="11.33555000">
        <ele>432.00000</ele>
        <time>2010-01-01T03:51:11Z</time>
      </trkpt>
      <trkpt lat="45.89503000" lon="11.33633000">
        <ele>423.00000</ele>
        <time>2010-01-01T03:51:33Z</time>
      </trkpt>
      <trkpt lat="45.89488000" lon="11.33719000">
        <ele>421.00000</ele>
        <time>2010-01-01T03:51:57Z</time>
      </trkpt>
      <trkpt lat="45.89488000" lon="11.33788000">
        <ele>420.00000</ele>
        <time>2010-01-01T03:52:17Z</time>
      </trkpt>
      <trkpt lat="45.89488000" lon="11.33831000">
        <ele>421.00000</ele>
        <time>2010-01-01T03:52:29Z</time>
      </trkpt>
      <trkpt lat="45.89475990" lon="11.34156000">
        <ele>406.00000</ele>
        <time>2010-01-01T03:53:59Z</time>
      </trkpt>
      <trkpt lat="45.89464000" lon="11.34221000">
        <ele>403.00000</ele>
        <time>2010-01-01T03:54:18Z</time>
      </trkpt>
      <trkpt lat="45.89410000" lon="11.34398000">
        <ele>394.00000</ele>
        <time>2010-01-01T03:55:12Z</time>
      </trkpt>
      <trkpt lat="45.89349000" lon="11.34528000">
        <ele>388.00000</ele>
        <time>2010-01-01T03:55:56Z</time>
      </trkpt>
      <trkpt lat="45.89304000" lon="11.34580000">
        <ele>388.00000</ele>
        <time>2010-01-01T03:56:19Z</time>
      </trkpt>
      <trkpt lat="45.89258990" lon="11.34606000">
        <ele>389.00000</ele>
        <time>2010-01-01T03:56:38Z</time>
      </trkpt>
      <trkpt lat="45.89241000" lon="11.34623000">
        <ele>390.00000</ele>
        <time>2010-01-01T03:56:47Z</time>
      </trkpt>
      <trkpt lat="45.89214000" lon="11.34688000">
        <ele>391.00000</ele>
        <time>2010-01-01T03:57:08Z</time>
      </trkpt>
      <trkpt lat="45.89186990" lon="11.34887000">
        <ele>385.00000</ele>
        <time>2010-01-01T03:58:04Z</time>
      </trkpt>
      <trkpt lat="45.89180990" lon="11.34918000">
        <ele>383.00000</ele>
        <time>2010-01-01T03:58:13Z</time>
      </trkpt>
      <trkpt lat="45.89136000" lon="11.35069000">
        <ele>373.00000</ele>
        <time>2010-01-01T03:58:59Z</time>
      </trkpt>
      <trkpt lat="45.89108000" lon="11.35103000">
        <ele>372.00000</ele>
        <time>2010-01-01T03:59:14Z</time>
      </trkpt>
      <trkpt lat="45.89070000" lon="11.35125000">
        <ele>372.00000</ele>
        <time>2010-01-01T03:59:30Z</time>
      </trkpt>
      <trkpt lat="45.89000000" lon="11.35168000">
        <ele>371.00000</ele>
        <time>2010-01-01T04:00:01Z</time>
      </trkpt>
      <trkpt lat="45.88973000" lon="11.35186000">
        <ele>370.00000</ele>
        <time>2010-01-01T04:00:13Z</time>
      </trkpt>
      <trkpt lat="45.88904000" lon="11.35251000">
        <ele>365.00000</ele>
        <time>2010-01-01T04:00:46Z</time>
      </trkpt>
      <trkpt lat="45.88841000" lon="11.35298000">
        <ele>361.00000</ele>
        <time>2010-01-01T04:01:14Z</time>
      </trkpt>
      <trkpt lat="45.88772000" lon="11.35315000">
        <ele>361.00000</ele>
        <time>2010-01-01T04:01:42Z</time>
      </trkpt>
      <trkpt lat="45.88738000" lon="11.35324000">
        <ele>363.00000</ele>
        <time>2010-01-01T04:01:56Z</time>
      </trkpt>
      <trkpt lat="45.88716990" lon="11.35341000">
        <ele>364.00000</ele>
        <time>2010-01-01T04:02:05Z</time>
      </trkpt>
      <trkpt lat="45.88591000" lon="11.35471000">
        <ele>365.00000</ele>
        <time>2010-01-01T04:03:08Z</time>
      </trkpt>
      <trkpt lat="45.88516000" lon="11.35554000">
        <ele>359.00000</ele>
        <time>2010-01-01T04:03:45Z</time>
      </trkpt>
      <trkpt lat="45.88491000" lon="11.35566000">
        <ele>357.00000</ele>
        <time>2010-01-01T04:03:56Z</time>
      </trkpt>
      <trkpt lat="45.88350000" lon="11.35579000">
        <ele>350.00000</ele>
        <time>2010-01-01T04:04:53Z</time>
      </trkpt>
      <trkpt lat="45.88263000" lon="11.35597000">
        <ele>349.00000</ele>
        <time>2010-01-01T04:05:28Z</time>
      </trkpt>
      <trkpt lat="45.88236000" lon="11.35614000">
        <ele>349.00000</ele>
        <time>2010-01-01T04:05:40Z</time>
      </trkpt>
      <trkpt lat="45.88148000" lon="11.35657000">
        <ele>350.00000</ele>
        <time>2010-01-01T04:06:17Z</time>
      </trkpt>
      <trkpt lat="45.88049000" lon="11.35778000">
        <ele>348.00000</ele>
        <time>2010-01-01T04:07:09Z</time>
      </trkpt>
      <trkpt lat="45.87977000" lon="11.35843000">
        <ele>346.00000</ele>
        <time>2010-01-01T04:07:43Z</time>
      </trkpt>
      <trkpt lat="45.87787000" lon="11.35930000">
        <ele>345.00000</ele>
        <time>2010-01-01T04:09:03Z</time>
      </trkpt>
      <trkpt lat="45.87684000" lon="11.35951000">
        <ele>344.00000</ele>
        <time>2010-01-01T04:09:44Z</time>
      </trkpt>
      <trkpt lat="45.87513000" lon="11.35968000">
        <ele>341.00000</ele>
        <time>2010-01-01T04:10:53Z</time>
      </trkpt>
      <trkpt lat="45.87477000" lon="11.35977000">
        <ele>347.00000</ele>
        <time>2010-01-01T04:11:08Z</time>
      </trkpt>
      <trkpt lat="45.87471000" lon="11.35977000">
        <ele>349.00000</ele>
        <time>2010-01-01T04:11:10Z</time>
      </trkpt>
      <trkpt lat="45.87462000" lon="11.35985000">
        <ele>349.00000</ele>
        <time>2010-01-01T04:11:14Z</time>
      </trkpt>
      <trkpt lat="45.87441000" lon="11.35999000">
        <ele>348.00000</ele>
        <time>2010-01-01T04:11:23Z</time>
      </trkpt>
      <trkpt lat="45.87308000" lon="11.36167000">
        <ele>342.00000</ele>
        <time>2010-01-01T04:12:34Z</time>
      </trkpt>
      <trkpt lat="45.87251000" lon="11.36207000">
        <ele>343.00000</ele>
        <time>2010-01-01T04:13:00Z</time>
      </trkpt>
      <trkpt lat="45.87139000" lon="11.36207000">
        <ele>344.00000</ele>
        <time>2010-01-01T04:13:45Z</time>
      </trkpt>
      <trkpt lat="45.87001000" lon="11.36180000">
        <ele>337.00000</ele>
        <time>2010-01-01T04:14:40Z</time>
      </trkpt>
      <trkpt lat="45.86971000" lon="11.36163000">
        <ele>336.00000</ele>
        <time>2010-01-01T04:14:53Z</time>
      </trkpt>
      <trkpt lat="45.86775000" lon="11.36142000">
        <ele>333.00000</ele>
        <time>2010-01-01T04:16:12Z</time>
      </trkpt>
      <trkpt lat="45.86724000" lon="11.36137000">
        <ele>333.00000</ele>
        <time>2010-01-01T04:16:32Z</time>
      </trkpt>
      <trkpt lat="45.86706000" lon="11.36133000">
        <ele>332.00000</ele>
        <time>2010-01-01T04:16:40Z</time>
      </trkpt>
      <trkpt lat="45.86398990" lon="11.36116000">
        <ele>327.00000</ele>
        <time>2010-01-01T04:18:43Z</time>
      </trkpt>
      <trkpt lat="45.86090990" lon="11.36145000">
        <ele>323.00000</ele>
        <time>2010-01-01T04:20:46Z</time>
      </trkpt>
      <trkpt lat="45.85950000" lon="11.36154000">
        <ele>322.00000</ele>
        <time>2010-01-01T04:21:43Z</time>
      </trkpt>
      <trkpt lat="45.85940990" lon="11.36159000">
        <ele>322.00000</ele>
        <time>2010-01-01T04:21:47Z</time>
      </trkpt>
      <trkpt lat="45.85896000" lon="11.36159000">
        <ele>321.00000</ele>
        <time>2010-01-01T04:22:05Z</time>
      </trkpt>
      <trkpt lat="45.85706000" lon="11.36176000">
        <ele>321.00000</ele>
        <time>2010-01-01T04:23:21Z</time>
      </trkpt>
      <trkpt lat="45.85684990" lon="11.36176000">
        <ele>321.00000</ele>
        <time>2010-01-01T04:23:29Z</time>
      </trkpt>
      <trkpt lat="45.85613000" lon="11.36219000">
        <ele>320.00000</ele>
        <time>2010-01-01T04:24:00Z</time>
      </trkpt>
      <trkpt lat="45.85444000" lon="11.36288000">
        <ele>320.00000</ele>
        <time>2010-01-01T04:25:11Z</time>
      </trkpt>
      <trkpt lat="45.85287000" lon="11.36358000">
        <ele>321.00000</ele>
        <time>2010-01-01T04:26:17Z</time>
      </trkpt>
      <trkpt lat="45.85175000" lon="11.36410000">
        <ele>319.00000</ele>
        <time>2010-01-01T04:27:04Z</time>
      </trkpt>
      <trkpt lat="45.85170000" lon="11.36410000">
        <ele>319.00000</ele>
        <time>2010-01-01T04:27:06Z</time>
      </trkpt>
      <trkpt lat="45.84962000" lon="11.36539000">
        <ele>316.00000</ele>
        <time>2010-01-01T04:28:36Z</time>
      </trkpt>
      <trkpt lat="45.84835000" lon="11.36600000">
        <ele>313.00000</ele>
        <time>2010-01-01T04:29:30Z</time>
      </trkpt>
      <trkpt lat="45.84702000" lon="11.36620000">
        <ele>314.00000</ele>
        <time>2010-01-01T04:30:24Z</time>
      </trkpt>
      <trkpt lat="45.84703000" lon="11.36621000">
        <ele>314.00000</ele>
        <time>2010-01-01T04:30:24Z</time>
      </trkpt>
      <trkpt lat="45.84702000" lon="11.36620000">
        <ele>314.00000</ele>
        <time>2010-01-01T04:30:25Z</time>
      </trkpt>
      <trkpt lat="45.84639000" lon="11.36630000">
        <ele>315.00000</ele>
        <time>2010-01-01T04:30:50Z</time>
      </trkpt>
      <trkpt lat="45.84588000" lon="11.36656000">
        <ele>312.00000</ele>
        <time>2010-01-01T04:31:12Z</time>
      </trkpt>
      <trkpt lat="45.84453000" lon="11.36695000">
        <ele>310.00000</ele>
        <time>2010-01-01T04:32:07Z</time>
      </trkpt>
      <trkpt lat="45.84479000" lon="11.36764000">
        <ele>307.00000</ele>
        <time>2010-01-01T04:32:29Z</time>
      </trkpt>
      <trkpt lat="45.84537000" lon="11.36816000">
        <ele>309.00000</ele>
        <time>2010-01-01T04:32:56Z</time>
      </trkpt>
      <trkpt lat="45.84609000" lon="11.36864000">
        <ele>314.00000</ele>
        <time>2010-01-01T04:33:28Z</time>
      </trkpt>
      <trkpt lat="45.84709000" lon="11.36855000">
        <ele>316.00000</ele>
        <time>2010-01-01T04:34:08Z</time>
      </trkpt>
      <trkpt lat="45.84742000" lon="11.36881000">
        <ele>317.00000</ele>
        <time>2010-01-01T04:34:23Z</time>
      </trkpt>
      <trkpt lat="45.84823000" lon="11.37011000">
        <ele>322.00000</ele>
        <time>2010-01-01T04:35:12Z</time>
      </trkpt>
      <trkpt lat="45.84856000" lon="11.37024000">
        <ele>324.00000</ele>
        <time>2010-01-01T04:35:25Z</time>
      </trkpt>
      <trkpt lat="45.84899000" lon="11.37075000">
        <ele>333.00000</ele>
        <time>2010-01-01T04:35:48Z</time>
      </trkpt>
      <trkpt lat="45.84904000" lon="11.37084000">
        <ele>335.00000</ele>
        <time>2010-01-01T04:35:51Z</time>
      </trkpt>
      <trkpt lat="45.84910000" lon="11.37089000">
        <ele>337.00000</ele>
        <time>2010-01-01T04:35:54Z</time>
      </trkpt>
      <trkpt lat="45.84934000" lon="11.37089000">
        <ele>344.00000</ele>
        <time>2010-01-01T04:36:03Z</time>
      </trkpt>
      <trkpt lat="45.84941000" lon="11.37084000">
        <ele>345.00000</ele>
        <time>2010-01-01T04:36:06Z</time>
      </trkpt>
      <trkpt lat="45.84967000" lon="11.37067000">
        <ele>350.00000</ele>
        <time>2010-01-01T04:36:18Z</time>
      </trkpt>
      <trkpt lat="45.84998000" lon="11.37011000">
        <ele>344.00000</ele>
        <time>2010-01-01T04:36:38Z</time>
      </trkpt>
      <trkpt lat="45.85100000" lon="11.36950000">
        <ele>356.00000</ele>
        <time>2010-01-01T04:37:22Z</time>
      </trkpt>
      <trkpt lat="45.85142000" lon="11.36938000">
        <ele>366.00000</ele>
        <time>2010-01-01T04:37:39Z</time>
      </trkpt>
      <trkpt lat="45.85175000" lon="11.36907000">
        <ele>364.00000</ele>
        <time>2010-01-01T04:37:55Z</time>
      </trkpt>
      <trkpt lat="45.85212000" lon="11.36877000">
        <ele>364.00000</ele>
        <time>2010-01-01T04:38:12Z</time>
      </trkpt>
      <trkpt lat="45.85233000" lon="11.36842000">
        <ele>357.00000</ele>
        <time>2010-01-01T04:38:25Z</time>
      </trkpt>
      <trkpt lat="45.85242000" lon="11.36855000">
        <ele>365.00000</ele>
        <time>2010-01-01T04:38:30Z</time>
      </trkpt>
      <trkpt lat="45.85212000" lon="11.36894000">
        <ele>370.00000</ele>
        <time>2010-01-01T04:38:46Z</time>
      </trkpt>
      <trkpt lat="45.85175000" lon="11.36929000">
        <ele>373.00000</ele>
        <time>2010-01-01T04:39:04Z</time>
      </trkpt>
      <trkpt lat="45.85152000" lon="11.36955000">
        <ele>376.00000</ele>
        <time>2010-01-01T04:39:15Z</time>
      </trkpt>
      <trkpt lat="45.85073000" lon="11.37002000">
        <ele>365.00000</ele>
        <time>2010-01-01T04:39:50Z</time>
      </trkpt>
      <trkpt lat="45.85061000" lon="11.37020000">
        <ele>367.00000</ele>
        <time>2010-01-01T04:39:57Z</time>
      </trkpt>
      <trkpt lat="45.85045990" lon="11.37075000">
        <ele>380.00000</ele>
        <time>2010-01-01T04:40:13Z</time>
      </trkpt>
      <trkpt lat="45.85043000" lon="11.37084000">
        <ele>382.00000</ele>
        <time>2010-01-01T04:40:16Z</time>
      </trkpt>
      <trkpt lat="45.85007000" lon="11.37192000">
        <ele>397.00000</ele>
        <time>2010-01-01T04:40:49Z</time>
      </trkpt>
      <trkpt lat="45.84947000" lon="11.37249000">
        <ele>388.00000</ele>
        <time>2010-01-01T04:41:18Z</time>
      </trkpt>
      <trkpt lat="45.84925990" lon="11.37335000">
        <ele>399.00000</ele>
        <time>2010-01-01T04:41:43Z</time>
      </trkpt>
      <trkpt lat="45.84884000" lon="11.37392000">
        <ele>393.00000</ele>
        <time>2010-01-01T04:42:07Z</time>
      </trkpt>
      <trkpt lat="45.84869000" lon="11.37426000">
        <ele>392.00000</ele>
        <time>2010-01-01T04:42:18Z</time>
      </trkpt>
      <trkpt lat="45.84805000" lon="11.37586000">
        <ele>384.00000</ele>
        <time>2010-01-01T04:43:09Z</time>
      </trkpt>
      <trkpt lat="45.84799000" lon="11.37668000">
        <ele>382.00000</ele>
        <time>2010-01-01T04:43:32Z</time>
      </trkpt>
      <trkpt lat="45.84814000" lon="11.37737000">
        <ele>390.00000</ele>
        <time>2010-01-01T04:43:52Z</time>
      </trkpt>
      <trkpt lat="45.84823000" lon="11.37902000">
        <ele>394.00000</ele>
        <time>2010-01-01T04:44:39Z</time>
      </trkpt>
      <trkpt lat="45.84832000" lon="11.37906000">
        <ele>399.00000</ele>
        <time>2010-01-01T04:44:42Z</time>
      </trkpt>
      <trkpt lat="45.84832000" lon="11.37885000">
        <ele>400.00000</ele>
        <time>2010-01-01T04:44:48Z</time>
      </trkpt>
      <trkpt lat="45.84847000" lon="11.37716000">
        <ele>408.00000</ele>
        <time>2010-01-01T04:45:36Z</time>
      </trkpt>
      <trkpt lat="45.84862000" lon="11.37586000">
        <ele>410.00000</ele>
        <time>2010-01-01T04:46:12Z</time>
      </trkpt>
      <trkpt lat="45.84895000" lon="11.37500000">
        <ele>418.00000</ele>
        <time>2010-01-01T04:46:40Z</time>
      </trkpt>
      <trkpt lat="45.84931990" lon="11.37413000">
        <ele>420.00000</ele>
        <time>2010-01-01T04:47:08Z</time>
      </trkpt>
      <trkpt lat="45.85022000" lon="11.37296000">
        <ele>436.00000</ele>
        <time>2010-01-01T04:47:57Z</time>
      </trkpt>
      <trkpt lat="45.85039990" lon="11.37227000">
        <ele>423.00000</ele>
        <time>2010-01-01T04:48:17Z</time>
      </trkpt>
      <trkpt lat="45.85070000" lon="11.37197000">
        <ele>429.00000</ele>
        <time>2010-01-01T04:48:32Z</time>
      </trkpt>
      <trkpt lat="45.85127000" lon="11.37171000">
        <ele>447.00000</ele>
        <time>2010-01-01T04:48:56Z</time>
      </trkpt>
      <trkpt lat="45.85175000" lon="11.37110000">
        <ele>450.00000</ele>
        <time>2010-01-01T04:49:22Z</time>
      </trkpt>
      <trkpt lat="45.85190000" lon="11.37093000">
        <ele>455.00000</ele>
        <time>2010-01-01T04:49:29Z</time>
      </trkpt>
      <trkpt lat="45.85194000" lon="11.37106000">
        <ele>462.00000</ele>
        <time>2010-01-01T04:49:33Z</time>
      </trkpt>
      <trkpt lat="45.85175000" lon="11.37127000">
        <ele>456.00000</ele>
        <time>2010-01-01T04:49:43Z</time>
      </trkpt>
      <trkpt lat="45.85142000" lon="11.37192000">
        <ele>464.00000</ele>
        <time>2010-01-01T04:50:05Z</time>
      </trkpt>
      <trkpt lat="45.85087990" lon="11.37232000">
        <ele>450.00000</ele>
        <time>2010-01-01T04:50:30Z</time>
      </trkpt>
      <trkpt lat="45.85064000" lon="11.37270000">
        <ele>452.00000</ele>
        <time>2010-01-01T04:50:44Z</time>
      </trkpt>
      <trkpt lat="45.85028000" lon="11.37366000">
        <ele>468.00000</ele>
        <time>2010-01-01T04:51:14Z</time>
      </trkpt>
      <trkpt lat="45.84964000" lon="11.37469000">
        <ele>453.00000</ele>
        <time>2010-01-01T04:51:53Z</time>
      </trkpt>
      <trkpt lat="45.84959000" lon="11.37517000">
        <ele>459.00000</ele>
        <time>2010-01-01T04:52:06Z</time>
      </trkpt>
      <trkpt lat="45.84952000" lon="11.37711000">
        <ele>477.00000</ele>
        <time>2010-01-01T04:53:01Z</time>
      </trkpt>
      <trkpt lat="45.84931990" lon="11.37824000">
        <ele>473.00000</ele>
        <time>2010-01-01T04:53:33Z</time>
      </trkpt>
      <trkpt lat="45.84941000" lon="11.37897000">
        <ele>489.00000</ele>
        <time>2010-01-01T04:53:54Z</time>
      </trkpt>
      <trkpt lat="45.84937000" lon="11.37954000">
        <ele>485.00000</ele>
        <time>2010-01-01T04:54:10Z</time>
      </trkpt>
      <trkpt lat="45.84964000" lon="11.38040000">
        <ele>494.00000</ele>
        <time>2010-01-01T04:54:36Z</time>
      </trkpt>
      <trkpt lat="45.84964000" lon="11.38097000">
        <ele>487.00000</ele>
        <time>2010-01-01T04:54:52Z</time>
      </trkpt>
      <trkpt lat="45.84995000" lon="11.38183000">
        <ele>503.00000</ele>
        <time>2010-01-01T04:55:19Z</time>
      </trkpt>
      <trkpt lat="45.85001000" lon="11.38196000">
        <ele>509.00000</ele>
        <time>2010-01-01T04:55:23Z</time>
      </trkpt>
      <trkpt lat="45.85007000" lon="11.38296000">
        <ele>514.00000</ele>
        <time>2010-01-01T04:55:51Z</time>
      </trkpt>
      <trkpt lat="45.84989000" lon="11.38347000">
        <ele>497.00000</ele>
        <time>2010-01-01T04:56:07Z</time>
      </trkpt>
      <trkpt lat="45.85028000" lon="11.38464000">
        <ele>502.00000</ele>
        <time>2010-01-01T04:56:43Z</time>
      </trkpt>
      <trkpt lat="45.85034000" lon="11.38529000">
        <ele>495.00000</ele>
        <time>2010-01-01T04:57:02Z</time>
      </trkpt>
      <trkpt lat="45.85067000" lon="11.38616000">
        <ele>511.00000</ele>
        <time>2010-01-01T04:57:29Z</time>
      </trkpt>
      <trkpt lat="45.85073000" lon="11.38702000">
        <ele>508.00000</ele>
        <time>2010-01-01T04:57:53Z</time>
      </trkpt>
      <trkpt lat="45.85103000" lon="11.38776000">
        <ele>521.00000</ele>
        <time>2010-01-01T04:58:17Z</time>
      </trkpt>
      <trkpt lat="45.85097000" lon="11.38853000">
        <ele>507.00000</ele>
        <time>2010-01-01T04:58:39Z</time>
      </trkpt>
      <trkpt lat="45.85106990" lon="11.38853000">
        <ele>514.00000</ele>
        <time>2010-01-01T04:58:43Z</time>
      </trkpt>
      <trkpt lat="45.85117990" lon="11.38779000">
        <ele>532.00000</ele>
        <time>2010-01-01T04:59:04Z</time>
      </trkpt>
      <trkpt lat="45.85087990" lon="11.38702000">
        <ele>520.00000</ele>
        <time>2010-01-01T04:59:28Z</time>
      </trkpt>
      <trkpt lat="45.85091000" lon="11.38607000">
        <ele>533.00000</ele>
        <time>2010-01-01T04:59:55Z</time>
      </trkpt>
      <trkpt lat="45.85070000" lon="11.38529000">
        <ele>525.00000</ele>
        <time>2010-01-01T05:00:18Z</time>
      </trkpt>
      <trkpt lat="45.85079000" lon="11.38456000">
        <ele>542.00000</ele>
        <time>2010-01-01T05:00:39Z</time>
      </trkpt>
      <trkpt lat="45.85043000" lon="11.38347000">
        <ele>533.00000</ele>
        <time>2010-01-01T05:01:13Z</time>
      </trkpt>
      <trkpt lat="45.85049000" lon="11.38343000">
        <ele>538.00000</ele>
        <time>2010-01-01T05:01:15Z</time>
      </trkpt>
      <trkpt lat="45.85058000" lon="11.38369000">
        <ele>540.00000</ele>
        <time>2010-01-01T05:01:23Z</time>
      </trkpt>
      <trkpt lat="45.85094000" lon="11.38442000">
        <ele>556.00000</ele>
        <time>2010-01-01T05:01:48Z</time>
      </trkpt>
      <trkpt lat="45.85085000" lon="11.38511000">
        <ele>540.00000</ele>
        <time>2010-01-01T05:02:08Z</time>
      </trkpt>
      <trkpt lat="45.85106990" lon="11.38581000">
        <ele>549.00000</ele>
        <time>2010-01-01T05:02:29Z</time>
      </trkpt>
      <trkpt lat="45.85109000" lon="11.38628000">
        <ele>544.00000</ele>
        <time>2010-01-01T05:02:42Z</time>
      </trkpt>
      <trkpt lat="45.85152000" lon="11.38736000">
        <ele>562.00000</ele>
        <time>2010-01-01T05:03:17Z</time>
      </trkpt>
      <trkpt lat="45.85164000" lon="11.38832000">
        <ele>555.00000</ele>
        <time>2010-01-01T05:03:44Z</time>
      </trkpt>
      <trkpt lat="45.85172000" lon="11.38836000">
        <ele>562.00000</ele>
        <time>2010-01-01T05:03:48Z</time>
      </trkpt>
      <trkpt lat="45.85172000" lon="11.38754000">
        <ele>576.00000</ele>
        <time>2010-01-01T05:04:11Z</time>
      </trkpt>
      <trkpt lat="45.85139000" lon="11.38654000">
        <ele>562.00000</ele>
        <time>2010-01-01T05:04:41Z</time>
      </trkpt>
      <trkpt lat="45.85127000" lon="11.38529000">
        <ele>573.00000</ele>
        <time>2010-01-01T05:05:17Z</time>
      </trkpt>
      <trkpt lat="45.85137000" lon="11.38425000">
        <ele>594.00000</ele>
        <time>2010-01-01T05:05:46Z</time>
      </trkpt>
      <trkpt lat="45.85094000" lon="11.38308000">
        <ele>576.00000</ele>
        <time>2010-01-01T05:06:23Z</time>
      </trkpt>
      <trkpt lat="45.85091000" lon="11.38279000">
        <ele>578.00000</ele>
        <time>2010-01-01T05:06:31Z</time>
      </trkpt>
      <trkpt lat="45.85076000" lon="11.38191000">
        <ele>576.00000</ele>
        <time>2010-01-01T05:06:56Z</time>
      </trkpt>
      <trkpt lat="45.85076000" lon="11.38183000">
        <ele>577.00000</ele>
        <time>2010-01-01T05:06:58Z</time>
      </trkpt>
      <trkpt lat="45.85070000" lon="11.38148000">
        <ele>574.00000</ele>
        <time>2010-01-01T05:07:08Z</time>
      </trkpt>
      <trkpt lat="45.85109000" lon="11.38092000">
        <ele>619.00000</ele>
        <time>2010-01-01T05:07:31Z</time>
      </trkpt>
      <trkpt lat="45.85100000" lon="11.37971000">
        <ele>600.00000</ele>
        <time>2010-01-01T05:08:04Z</time>
      </trkpt>
      <trkpt lat="45.85076000" lon="11.37923000">
        <ele>581.00000</ele>
        <time>2010-01-01T05:08:21Z</time>
      </trkpt>
      <trkpt lat="45.85087990" lon="11.37824000">
        <ele>597.00000</ele>
        <time>2010-01-01T05:08:49Z</time>
      </trkpt>
      <trkpt lat="45.85085000" lon="11.37794000">
        <ele>593.00000</ele>
        <time>2010-01-01T05:08:57Z</time>
      </trkpt>
      <trkpt lat="45.85122000" lon="11.37720000">
        <ele>623.00000</ele>
        <time>2010-01-01T05:09:23Z</time>
      </trkpt>
      <trkpt lat="45.85109000" lon="11.37560000">
        <ele>610.00000</ele>
        <time>2010-01-01T05:10:08Z</time>
      </trkpt>
      <trkpt lat="45.85122000" lon="11.37569000">
        <ele>624.00000</ele>
        <time>2010-01-01T05:10:13Z</time>
      </trkpt>
      <trkpt lat="45.85133000" lon="11.37729000">
        <ele>633.00000</ele>
        <time>2010-01-01T05:10:58Z</time>
      </trkpt>
      <trkpt lat="45.85142000" lon="11.37729000">
        <ele>642.00000</ele>
        <time>2010-01-01T05:11:02Z</time>
      </trkpt>
      <trkpt lat="45.85123990" lon="11.37526000">
        <ele>625.00000</ele>
        <time>2010-01-01T05:11:59Z</time>
      </trkpt>
      <trkpt lat="45.85137000" lon="11.37529000">
        <ele>639.00000</ele>
        <time>2010-01-01T05:12:04Z</time>
      </trkpt>
      <trkpt lat="45.85142000" lon="11.37638000">
        <ele>640.00000</ele>
        <time>2010-01-01T05:12:35Z</time>
      </trkpt>
      <trkpt lat="45.85157000" lon="11.37677000">
        <ele>652.00000</ele>
        <time>2010-01-01T05:12:47Z</time>
      </trkpt>
      <trkpt lat="45.85153990" lon="11.37734000">
        <ele>653.00000</ele>
        <time>2010-01-01T05:13:03Z</time>
      </trkpt>
      <trkpt lat="45.85122000" lon="11.37780000">
        <ele>626.00000</ele>
        <time>2010-01-01T05:13:21Z</time>
      </trkpt>
      <trkpt lat="45.85117990" lon="11.37811000">
        <ele>624.00000</ele>
        <time>2010-01-01T05:13:30Z</time>
      </trkpt>
      <trkpt lat="45.85130000" lon="11.37837000">
        <ele>635.00000</ele>
        <time>2010-01-01T05:13:39Z</time>
      </trkpt>
      <trkpt lat="45.85127000" lon="11.37876000">
        <ele>631.00000</ele>
        <time>2010-01-01T05:13:50Z</time>
      </trkpt>
      <trkpt lat="45.85152000" lon="11.37940000">
        <ele>654.00000</ele>
        <time>2010-01-01T05:14:10Z</time>
      </trkpt>
      <trkpt lat="45.85159990" lon="11.37932000">
        <ele>662.00000</ele>
        <time>2010-01-01T05:14:14Z</time>
      </trkpt>
      <trkpt lat="45.85139000" lon="11.37880000">
        <ele>642.00000</ele>
        <time>2010-01-01T05:14:31Z</time>
      </trkpt>
      <trkpt lat="45.85142000" lon="11.37789000">
        <ele>645.00000</ele>
        <time>2010-01-01T05:14:56Z</time>
      </trkpt>
      <trkpt lat="45.85175000" lon="11.37746000">
        <ele>673.00000</ele>
        <time>2010-01-01T05:15:14Z</time>
      </trkpt>
      <trkpt lat="45.85178990" lon="11.37742000">
        <ele>678.00000</ele>
        <time>2010-01-01T05:15:16Z</time>
      </trkpt>
      <trkpt lat="45.85178990" lon="11.37595000">
        <ele>679.00000</ele>
        <time>2010-01-01T05:15:57Z</time>
      </trkpt>
      <trkpt lat="45.85182000" lon="11.37512000">
        <ele>676.00000</ele>
        <time>2010-01-01T05:16:20Z</time>
      </trkpt>
      <trkpt lat="45.85212000" lon="11.37478000">
        <ele>677.00000</ele>
        <time>2010-01-01T05:16:35Z</time>
      </trkpt>
      <trkpt lat="45.85254000" lon="11.37508000">
        <ele>705.00000</ele>
        <time>2010-01-01T05:16:54Z</time>
      </trkpt>
      <trkpt lat="45.85266000" lon="11.37500000">
        <ele>707.00000</ele>
        <time>2010-01-01T05:16:59Z</time>
      </trkpt>
      <trkpt lat="45.85272000" lon="11.37478000">
        <ele>700.00000</ele>
        <time>2010-01-01T05:17:06Z</time>
      </trkpt>
      <trkpt lat="45.85311000" lon="11.37426000">
        <ele>696.00000</ele>
        <time>2010-01-01T05:17:27Z</time>
      </trkpt>
      <trkpt lat="45.85347000" lon="11.37395000">
        <ele>702.00000</ele>
        <time>2010-01-01T05:17:44Z</time>
      </trkpt>
      <trkpt lat="45.85362000" lon="11.37344000">
        <ele>694.00000</ele>
        <time>2010-01-01T05:18:00Z</time>
      </trkpt>
      <trkpt lat="45.85402000" lon="11.37301000">
        <ele>707.00000</ele>
        <time>2010-01-01T05:18:20Z</time>
      </trkpt>
      <trkpt lat="45.85405000" lon="11.37309000">
        <ele>711.00000</ele>
        <time>2010-01-01T05:18:22Z</time>
      </trkpt>
      <trkpt lat="45.85402000" lon="11.37314000">
        <ele>711.00000</ele>
        <time>2010-01-01T05:18:24Z</time>
      </trkpt>
      <trkpt lat="45.85365000" lon="11.37361000">
        <ele>701.00000</ele>
        <time>2010-01-01T05:18:44Z</time>
      </trkpt>
      <trkpt lat="45.85365000" lon="11.37378000">
        <ele>705.00000</ele>
        <time>2010-01-01T05:18:48Z</time>
      </trkpt>
      <trkpt lat="45.85380000" lon="11.37366000">
        <ele>710.00000</ele>
        <time>2010-01-01T05:18:55Z</time>
      </trkpt>
      <trkpt lat="45.85405000" lon="11.37331000">
        <ele>717.00000</ele>
        <time>2010-01-01T05:19:09Z</time>
      </trkpt>
      <trkpt lat="45.85423000" lon="11.37331000">
        <ele>725.00000</ele>
        <time>2010-01-01T05:19:17Z</time>
      </trkpt>
      <trkpt lat="45.85470000" lon="11.37344000">
        <ele>735.00000</ele>
        <time>2010-01-01T05:19:36Z</time>
      </trkpt>
      <trkpt lat="45.85509990" lon="11.37344000">
        <ele>742.00000</ele>
        <time>2010-01-01T05:19:52Z</time>
      </trkpt>
      <trkpt lat="45.85504000" lon="11.37357000">
        <ele>743.00000</ele>
        <time>2010-01-01T05:19:56Z</time>
      </trkpt>
      <trkpt lat="45.85450000" lon="11.37370000">
        <ele>736.00000</ele>
        <time>2010-01-01T05:20:18Z</time>
      </trkpt>
      <trkpt lat="45.85405000" lon="11.37361000">
        <ele>723.00000</ele>
        <time>2010-01-01T05:20:36Z</time>
      </trkpt>
      <trkpt lat="45.85406990" lon="11.37370000">
        <ele>725.00000</ele>
        <time>2010-01-01T05:20:39Z</time>
      </trkpt>
      <trkpt lat="45.85462000" lon="11.37392000">
        <ele>741.00000</ele>
        <time>2010-01-01T05:21:02Z</time>
      </trkpt>
      <trkpt lat="45.85540000" lon="11.37361000">
        <ele>751.00000</ele>
        <time>2010-01-01T05:21:34Z</time>
      </trkpt>
      <trkpt lat="45.85591000" lon="11.37335000">
        <ele>757.00000</ele>
        <time>2010-01-01T05:21:56Z</time>
      </trkpt>
      <trkpt lat="45.85643000" lon="11.37292000">
        <ele>758.00000</ele>
        <time>2010-01-01T05:22:20Z</time>
      </trkpt>
      <trkpt lat="45.85691000" lon="11.37270000">
        <ele>761.00000</ele>
        <time>2010-01-01T05:22:40Z</time>
      </trkpt>
      <trkpt lat="45.85802000" lon="11.37235000">
        <ele>765.00000</ele>
        <time>2010-01-01T05:23:25Z</time>
      </trkpt>
      <trkpt lat="45.85826000" lon="11.37223000">
        <ele>764.00000</ele>
        <time>2010-01-01T05:23:36Z</time>
      </trkpt>
      <trkpt lat="45.85826000" lon="11.37235000">
        <ele>768.00000</ele>
        <time>2010-01-01T05:23:39Z</time>
      </trkpt>
      <trkpt lat="45.85703000" lon="11.37296000">
        <ele>766.00000</ele>
        <time>2010-01-01T05:24:31Z</time>
      </trkpt>
      <trkpt lat="45.85663000" lon="11.37309000">
        <ele>763.00000</ele>
        <time>2010-01-01T05:24:47Z</time>
      </trkpt>
      <trkpt lat="45.85581990" lon="11.37395000">
        <ele>763.00000</ele>
        <time>2010-01-01T05:25:28Z</time>
      </trkpt>
      <trkpt lat="45.85540000" lon="11.37426000">
        <ele>760.00000</ele>
        <time>2010-01-01T05:25:47Z</time>
      </trkpt>
      <trkpt lat="45.85549000" lon="11.37439000">
        <ele>764.00000</ele>
        <time>2010-01-01T05:25:52Z</time>
      </trkpt>
      <trkpt lat="45.85643000" lon="11.37395000">
        <ele>772.00000</ele>
        <time>2010-01-01T05:26:31Z</time>
      </trkpt>
      <trkpt lat="45.85691000" lon="11.37335000">
        <ele>770.00000</ele>
        <time>2010-01-01T05:26:57Z</time>
      </trkpt>
      <trkpt lat="45.85796000" lon="11.37331000">
        <ele>783.00000</ele>
        <time>2010-01-01T05:27:39Z</time>
      </trkpt>
      <trkpt lat="45.85886000" lon="11.37301000">
        <ele>790.00000</ele>
        <time>2010-01-01T05:28:16Z</time>
      </trkpt>
      <trkpt lat="45.85890000" lon="11.37305000">
        <ele>791.00000</ele>
        <time>2010-01-01T05:28:18Z</time>
      </trkpt>
      <trkpt lat="45.85886000" lon="11.37314000">
        <ele>793.00000</ele>
        <time>2010-01-01T05:28:21Z</time>
      </trkpt>
      <trkpt lat="45.85742000" lon="11.37370000">
        <ele>781.00000</ele>
        <time>2010-01-01T05:29:20Z</time>
      </trkpt>
      <trkpt lat="45.85730000" lon="11.37387000">
        <ele>782.00000</ele>
        <time>2010-01-01T05:29:27Z</time>
      </trkpt>
      <trkpt lat="45.85739000" lon="11.37457000">
        <ele>793.00000</ele>
        <time>2010-01-01T05:29:47Z</time>
      </trkpt>
      <trkpt lat="45.85733000" lon="11.37500000">
        <ele>799.00000</ele>
        <time>2010-01-01T05:29:59Z</time>
      </trkpt>
      <trkpt lat="45.85706000" lon="11.37543000">
        <ele>803.00000</ele>
        <time>2010-01-01T05:30:15Z</time>
      </trkpt>
      <trkpt lat="45.85628000" lon="11.37646000">
        <ele>813.00000</ele>
        <time>2010-01-01T05:30:58Z</time>
      </trkpt>
      <trkpt lat="45.85549000" lon="11.37751000">
        <ele>815.00000</ele>
        <time>2010-01-01T05:31:41Z</time>
      </trkpt>
      <trkpt lat="45.85480000" lon="11.37811000">
        <ele>810.00000</ele>
        <time>2010-01-01T05:32:13Z</time>
      </trkpt>
      <trkpt lat="45.85483000" lon="11.37841000">
        <ele>812.00000</ele>
        <time>2010-01-01T05:32:22Z</time>
      </trkpt>
      <trkpt lat="45.85501000" lon="11.37854000">
        <ele>811.00000</ele>
        <time>2010-01-01T05:32:30Z</time>
      </trkpt>
      <trkpt lat="45.85534000" lon="11.37863000">
        <ele>816.00000</ele>
        <time>2010-01-01T05:32:43Z</time>
      </trkpt>
      <trkpt lat="45.85591000" lon="11.37850000">
        <ele>824.00000</ele>
        <time>2010-01-01T05:33:06Z</time>
      </trkpt>
      <trkpt lat="45.85655000" lon="11.37863000">
        <ele>827.00000</ele>
        <time>2010-01-01T05:33:32Z</time>
      </trkpt>
      <trkpt lat="45.85730000" lon="11.37915000">
        <ele>827.00000</ele>
        <time>2010-01-01T05:34:06Z</time>
      </trkpt>
      <trkpt lat="45.85772000" lon="11.37984000">
        <ele>831.00000</ele>
        <time>2010-01-01T05:34:31Z</time>
      </trkpt>
      <trkpt lat="45.85787000" lon="11.38057000">
        <ele>835.00000</ele>
        <time>2010-01-01T05:34:52Z</time>
      </trkpt>
      <trkpt lat="45.85805000" lon="11.38109000">
        <ele>840.00000</ele>
        <time>2010-01-01T05:35:08Z</time>
      </trkpt>
      <trkpt lat="45.85826000" lon="11.38144000">
        <ele>844.00000</ele>
        <time>2010-01-01T05:35:21Z</time>
      </trkpt>
      <trkpt lat="45.85859000" lon="11.38144000">
        <ele>846.00000</ele>
        <time>2010-01-01T05:35:35Z</time>
      </trkpt>
      <trkpt lat="45.85901000" lon="11.38109000">
        <ele>848.00000</ele>
        <time>2010-01-01T05:35:54Z</time>
      </trkpt>
      <trkpt lat="45.85934990" lon="11.38105000">
        <ele>852.00000</ele>
        <time>2010-01-01T05:36:08Z</time>
      </trkpt>
      <trkpt lat="45.85940990" lon="11.38114000">
        <ele>852.00000</ele>
        <time>2010-01-01T05:36:11Z</time>
      </trkpt>
      <trkpt lat="45.85956000" lon="11.38131000">
        <ele>854.00000</ele>
        <time>2010-01-01T05:36:19Z</time>
      </trkpt>
      <trkpt lat="45.85976990" lon="11.38183000">
        <ele>854.00000</ele>
        <time>2010-01-01T05:36:36Z</time>
      </trkpt>
      <trkpt lat="45.86037000" lon="11.38330000">
        <ele>860.00000</ele>
        <time>2010-01-01T05:37:23Z</time>
      </trkpt>
      <trkpt lat="45.86046000" lon="11.38369000">
        <ele>863.00000</ele>
        <time>2010-01-01T05:37:35Z</time>
      </trkpt>
      <trkpt lat="45.86058000" lon="11.38654000">
        <ele>871.00000</ele>
        <time>2010-01-01T05:38:54Z</time>
      </trkpt>
      <trkpt lat="45.86071000" lon="11.38762000">
        <ele>877.00000</ele>
        <time>2010-01-01T05:39:25Z</time>
      </trkpt>
      <trkpt lat="45.86079000" lon="11.38793000">
        <ele>878.00000</ele>
        <time>2010-01-01T05:39:34Z</time>
      </trkpt>
      <trkpt lat="45.86227000" lon="11.39048000">
        <ele>895.00000</ele>
        <time>2010-01-01T05:41:06Z</time>
      </trkpt>
      <trkpt lat="45.86233000" lon="11.39074000">
        <ele>896.00000</ele>
        <time>2010-01-01T05:41:14Z</time>
      </trkpt>
      <trkpt lat="45.86233000" lon="11.39121000">
        <ele>900.00000</ele>
        <time>2010-01-01T05:41:27Z</time>
      </trkpt>
      <trkpt lat="45.86191000" lon="11.39247000">
        <ele>902.00000</ele>
        <time>2010-01-01T05:42:06Z</time>
      </trkpt>
      <trkpt lat="45.86184000" lon="11.39281000">
        <ele>902.00000</ele>
        <time>2010-01-01T05:42:16Z</time>
      </trkpt>
      <trkpt lat="45.86164000" lon="11.39381000">
        <ele>903.00000</ele>
        <time>2010-01-01T05:42:45Z</time>
      </trkpt>
      <trkpt lat="45.86164000" lon="11.39481000">
        <ele>911.00000</ele>
        <time>2010-01-01T05:43:13Z</time>
      </trkpt>
      <trkpt lat="45.86200000" lon="11.39623000">
        <ele>921.00000</ele>
        <time>2010-01-01T05:43:55Z</time>
      </trkpt>
      <trkpt lat="45.86227000" lon="11.39706000">
        <ele>927.00000</ele>
        <time>2010-01-01T05:44:21Z</time>
      </trkpt>
      <trkpt lat="45.86248000" lon="11.39749000">
        <ele>929.00000</ele>
        <time>2010-01-01T05:44:35Z</time>
      </trkpt>
      <trkpt lat="45.86257000" lon="11.39775000">
        <ele>929.00000</ele>
        <time>2010-01-01T05:44:43Z</time>
      </trkpt>
      <trkpt lat="45.86284000" lon="11.39826000">
        <ele>930.00000</ele>
        <time>2010-01-01T05:45:01Z</time>
      </trkpt>
      <trkpt lat="45.86301990" lon="11.39857000">
        <ele>931.00000</ele>
        <time>2010-01-01T05:45:12Z</time>
      </trkpt>
      <trkpt lat="45.86324000" lon="11.39883000">
        <ele>932.00000</ele>
        <time>2010-01-01T05:45:24Z</time>
      </trkpt>
      <trkpt lat="45.86402000" lon="11.40086000">
        <ele>932.00000</ele>
        <time>2010-01-01T05:46:28Z</time>
      </trkpt>
      <trkpt lat="45.86429000" lon="11.40134000">
        <ele>933.00000</ele>
        <time>2010-01-01T05:46:46Z</time>
      </trkpt>
      <trkpt lat="45.86468000" lon="11.40177000">
        <ele>932.00000</ele>
        <time>2010-01-01T05:47:05Z</time>
      </trkpt>
      <trkpt lat="45.86516000" lon="11.40203000">
        <ele>932.00000</ele>
        <time>2010-01-01T05:47:26Z</time>
      </trkpt>
      <trkpt lat="45.86588000" lon="11.40263000">
        <ele>930.00000</ele>
        <time>2010-01-01T05:47:59Z</time>
      </trkpt>
      <trkpt lat="45.86615000" lon="11.40268000">
        <ele>934.00000</ele>
        <time>2010-01-01T05:48:10Z</time>
      </trkpt>
      <trkpt lat="45.86664000" lon="11.40280000">
        <ele>942.00000</ele>
        <time>2010-01-01T05:48:30Z</time>
      </trkpt>
      <trkpt lat="45.86672000" lon="11.40311000">
        <ele>945.00000</ele>
        <time>2010-01-01T05:48:39Z</time>
      </trkpt>
      <trkpt lat="45.86651990" lon="11.40380000">
        <ele>949.00000</ele>
        <time>2010-01-01T05:49:00Z</time>
      </trkpt>
      <trkpt lat="45.86625000" lon="11.40484000">
        <ele>957.00000</ele>
        <time>2010-01-01T05:49:31Z</time>
      </trkpt>
      <trkpt lat="45.86615000" lon="11.40662000">
        <ele>963.00000</ele>
        <time>2010-01-01T05:50:21Z</time>
      </trkpt>
      <trkpt lat="45.86657000" lon="11.40756000">
        <ele>974.00000</ele>
        <time>2010-01-01T05:50:52Z</time>
      </trkpt>
      <trkpt lat="45.86660000" lon="11.40796000">
        <ele>977.00000</ele>
        <time>2010-01-01T05:51:03Z</time>
      </trkpt>
      <trkpt lat="45.86626990" lon="11.40856000">
        <ele>972.00000</ele>
        <time>2010-01-01T05:51:24Z</time>
      </trkpt>
      <trkpt lat="45.86618000" lon="11.40973000">
        <ele>976.00000</ele>
        <time>2010-01-01T05:51:57Z</time>
      </trkpt>
      <trkpt lat="45.86622000" lon="11.41042000">
        <ele>976.00000</ele>
        <time>2010-01-01T05:52:16Z</time>
      </trkpt>
      <trkpt lat="45.86637000" lon="11.41081000">
        <ele>977.00000</ele>
        <time>2010-01-01T05:52:29Z</time>
      </trkpt>
      <trkpt lat="45.86691000" lon="11.41120000">
        <ele>991.00000</ele>
        <time>2010-01-01T05:52:53Z</time>
      </trkpt>
      <trkpt lat="45.86697000" lon="11.41163000">
        <ele>993.00000</ele>
        <time>2010-01-01T05:53:05Z</time>
      </trkpt>
      <trkpt lat="45.86645000" lon="11.41405000">
        <ele>992.00000</ele>
        <time>2010-01-01T05:54:16Z</time>
      </trkpt>
      <trkpt lat="45.86637000" lon="11.41479000">
        <ele>994.00000</ele>
        <time>2010-01-01T05:54:37Z</time>
      </trkpt>
      <trkpt lat="45.86626990" lon="11.41566000">
        <ele>995.00000</ele>
        <time>2010-01-01T05:55:01Z</time>
      </trkpt>
      <trkpt lat="45.86634000" lon="11.41613000">
        <ele>995.00000</ele>
        <time>2010-01-01T05:55:15Z</time>
      </trkpt>
      <trkpt lat="45.86706000" lon="11.41886000">
        <ele>1003.0000</ele>
        <time>2010-01-01T05:56:36Z</time>
      </trkpt>
      <trkpt lat="45.86745000" lon="11.42032000">
        <ele>999.00000</ele>
        <time>2010-01-01T05:57:20Z</time>
      </trkpt>
      <trkpt lat="45.86787000" lon="11.42106000">
        <ele>995.00000</ele>
        <time>2010-01-01T05:57:46Z</time>
      </trkpt>
      <trkpt lat="45.86956000" lon="11.42245000">
        <ele>1000.0000</ele>
        <time>2010-01-01T05:59:04Z</time>
      </trkpt>
      <trkpt lat="45.86956000" lon="11.42257000">
        <ele>999.00000</ele>
        <time>2010-01-01T05:59:08Z</time>
      </trkpt>
      <trkpt lat="45.86895000" lon="11.42452000">
        <ele>990.00000</ele>
        <time>2010-01-01T06:00:07Z</time>
      </trkpt>
      <trkpt lat="45.86893000" lon="11.42565000">
        <ele>995.00000</ele>
        <time>2010-01-01T06:00:39Z</time>
      </trkpt>
      <trkpt lat="45.86893000" lon="11.42577000">
        <ele>996.00000</ele>
        <time>2010-01-01T06:00:42Z</time>
      </trkpt>
      <trkpt lat="45.86895000" lon="11.42729000">
        <ele>997.00000</ele>
        <time>2010-01-01T06:01:24Z</time>
      </trkpt>
      <trkpt lat="45.86878000" lon="11.42781000">
        <ele>991.00000</ele>
        <time>2010-01-01T06:01:40Z</time>
      </trkpt>
      <trkpt lat="45.86925000" lon="11.42911000">
        <ele>999.00000</ele>
        <time>2010-01-01T06:02:21Z</time>
      </trkpt>
      <trkpt lat="45.86968000" lon="11.43045000">
        <ele>1002.0000</ele>
        <time>2010-01-01T06:03:02Z</time>
      </trkpt>
      <trkpt lat="45.86971000" lon="11.43058000">
        <ele>1002.0000</ele>
        <time>2010-01-01T06:03:06Z</time>
      </trkpt>
      <trkpt lat="45.86974000" lon="11.43079000">
        <ele>1001.0000</ele>
        <time>2010-01-01T06:03:12Z</time>
      </trkpt>
      <trkpt lat="45.87016000" lon="11.43196000">
        <ele>999.00000</ele>
        <time>2010-01-01T06:03:49Z</time>
      </trkpt>
      <trkpt lat="45.87170000" lon="11.43390000">
        <ele>1012.0000</ele>
        <time>2010-01-01T06:05:11Z</time>
      </trkpt>
      <trkpt lat="45.87206000" lon="11.43456000">
        <ele>1012.0000</ele>
        <time>2010-01-01T06:05:34Z</time>
      </trkpt>
      <trkpt lat="45.87260000" lon="11.43538000">
        <ele>1015.0000</ele>
        <time>2010-01-01T06:06:06Z</time>
      </trkpt>
      <trkpt lat="45.87293000" lon="11.43650000">
        <ele>1013.0000</ele>
        <time>2010-01-01T06:06:40Z</time>
      </trkpt>
      <trkpt lat="45.87302000" lon="11.43676000">
        <ele>1012.0000</ele>
        <time>2010-01-01T06:06:48Z</time>
      </trkpt>
      <trkpt lat="45.87344000" lon="11.43819000">
        <ele>1011.0000</ele>
        <time>2010-01-01T06:07:31Z</time>
      </trkpt>
      <trkpt lat="45.87353000" lon="11.43853000">
        <ele>1012.0000</ele>
        <time>2010-01-01T06:07:41Z</time>
      </trkpt>
      <trkpt lat="45.87356000" lon="11.43858000">
        <ele>1012.0000</ele>
        <time>2010-01-01T06:07:43Z</time>
      </trkpt>
      <trkpt lat="45.87449000" lon="11.44338000">
        <ele>1009.0000</ele>
        <time>2010-01-01T06:10:02Z</time>
      </trkpt>
      <trkpt lat="45.87471000" lon="11.44459000">
        <ele>1009.0000</ele>
        <time>2010-01-01T06:10:37Z</time>
      </trkpt>
      <trkpt lat="45.87507000" lon="11.44671000">
        <ele>1008.0000</ele>
        <time>2010-01-01T06:11:37Z</time>
      </trkpt>
      <trkpt lat="45.87507000" lon="11.44774000">
        <ele>1007.0000</ele>
        <time>2010-01-01T06:12:06Z</time>
      </trkpt>
      <trkpt lat="45.87507000" lon="11.44844000">
        <ele>1006.0000</ele>
        <time>2010-01-01T06:12:26Z</time>
      </trkpt>
      <trkpt lat="45.87504000" lon="11.45022000">
        <ele>1000.0000</ele>
        <time>2010-01-01T06:13:15Z</time>
      </trkpt>
      <trkpt lat="45.87516000" lon="11.45177000">
        <ele>993.00000</ele>
        <time>2010-01-01T06:13:59Z</time>
      </trkpt>
      <trkpt lat="45.87537000" lon="11.45290000">
        <ele>992.00000</ele>
        <time>2010-01-01T06:14:31Z</time>
      </trkpt>
      <trkpt lat="45.87606000" lon="11.45670000">
        <ele>992.00000</ele>
        <time>2010-01-01T06:16:21Z</time>
      </trkpt>
      <trkpt lat="45.87609000" lon="11.45826000">
        <ele>986.00000</ele>
        <time>2010-01-01T06:17:04Z</time>
      </trkpt>
      <trkpt lat="45.87609000" lon="11.45843000">
        <ele>986.00000</ele>
        <time>2010-01-01T06:17:09Z</time>
      </trkpt>
      <trkpt lat="45.87618000" lon="11.45869000">
        <ele>987.00000</ele>
        <time>2010-01-01T06:17:17Z</time>
      </trkpt>
      <trkpt lat="45.87624000" lon="11.45873000">
        <ele>988.00000</ele>
        <time>2010-01-01T06:17:20Z</time>
      </trkpt>
      <trkpt lat="45.87684000" lon="11.45960000">
        <ele>998.00000</ele>
        <time>2010-01-01T06:17:54Z</time>
      </trkpt>
      <trkpt lat="45.87682000" lon="11.45990000">
        <ele>997.00000</ele>
        <time>2010-01-01T06:18:02Z</time>
      </trkpt>
      <trkpt lat="45.87637000" lon="11.46021000">
        <ele>990.00000</ele>
        <time>2010-01-01T06:18:22Z</time>
      </trkpt>
      <trkpt lat="45.87612000" lon="11.46094000">
        <ele>985.00000</ele>
        <time>2010-01-01T06:18:45Z</time>
      </trkpt>
      <trkpt lat="45.87593990" lon="11.46146000">
        <ele>979.00000</ele>
        <time>2010-01-01T06:19:01Z</time>
      </trkpt>
      <trkpt lat="45.87582000" lon="11.46189000">
        <ele>976.00000</ele>
        <time>2010-01-01T06:19:14Z</time>
      </trkpt>
      <trkpt lat="45.87555000" lon="11.46263000">
        <ele>971.00000</ele>
        <time>2010-01-01T06:19:37Z</time>
      </trkpt>
      <trkpt lat="45.87549000" lon="11.46280000">
        <ele>971.00000</ele>
        <time>2010-01-01T06:19:43Z</time>
      </trkpt>
      <trkpt lat="45.87525000" lon="11.46349000">
        <ele>971.00000</ele>
        <time>2010-01-01T06:20:04Z</time>
      </trkpt>
      <trkpt lat="45.87498000" lon="11.46392000">
        <ele>971.00000</ele>
        <time>2010-01-01T06:20:20Z</time>
      </trkpt>
      <trkpt lat="45.87471000" lon="11.46406000">
        <ele>968.00000</ele>
        <time>2010-01-01T06:20:32Z</time>
      </trkpt>
      <trkpt lat="45.87401000" lon="11.46444000">
        <ele>962.00000</ele>
        <time>2010-01-01T06:21:02Z</time>
      </trkpt>
      <trkpt lat="45.87344000" lon="11.46526000">
        <ele>970.00000</ele>
        <time>2010-01-01T06:21:34Z</time>
      </trkpt>
      <trkpt lat="45.87314000" lon="11.46531000">
        <ele>966.00000</ele>
        <time>2010-01-01T06:21:46Z</time>
      </trkpt>
      <trkpt lat="45.87266000" lon="11.46544000">
        <ele>959.00000</ele>
        <time>2010-01-01T06:22:06Z</time>
      </trkpt>
      <trkpt lat="45.87293000" lon="11.46665000">
        <ele>959.00000</ele>
        <time>2010-01-01T06:22:41Z</time>
      </trkpt>
      <trkpt lat="45.87326000" lon="11.46712000">
        <ele>961.00000</ele>
        <time>2010-01-01T06:23:00Z</time>
      </trkpt>
      <trkpt lat="45.87386000" lon="11.46881000">
        <ele>939.00000</ele>
        <time>2010-01-01T06:23:53Z</time>
      </trkpt>
      <trkpt lat="45.87404000" lon="11.46908000">
        <ele>936.00000</ele>
        <time>2010-01-01T06:24:03Z</time>
      </trkpt>
      <trkpt lat="45.87429000" lon="11.46916000">
        <ele>940.00000</ele>
        <time>2010-01-01T06:24:13Z</time>
      </trkpt>
      <trkpt lat="45.87471000" lon="11.46920000">
        <ele>947.00000</ele>
        <time>2010-01-01T06:24:30Z</time>
      </trkpt>
      <trkpt lat="45.87485990" lon="11.46951000">
        <ele>945.00000</ele>
        <time>2010-01-01T06:24:41Z</time>
      </trkpt>
      <trkpt lat="45.87479000" lon="11.46972000">
        <ele>939.00000</ele>
        <time>2010-01-01T06:24:47Z</time>
      </trkpt>
      <trkpt lat="45.87477000" lon="11.46989000">
        <ele>935.00000</ele>
        <time>2010-01-01T06:24:52Z</time>
      </trkpt>
      <trkpt lat="45.87485990" lon="11.47011000">
        <ele>935.00000</ele>
        <time>2010-01-01T06:24:59Z</time>
      </trkpt>
      <trkpt lat="45.87557990" lon="11.47106000">
        <ele>938.00000</ele>
        <time>2010-01-01T06:25:38Z</time>
      </trkpt>
      <trkpt lat="45.87639000" lon="11.47180000">
        <ele>935.00000</ele>
        <time>2010-01-01T06:26:17Z</time>
      </trkpt>
      <trkpt lat="45.87742000" lon="11.47257000">
        <ele>925.00000</ele>
        <time>2010-01-01T06:27:03Z</time>
      </trkpt>
      <trkpt lat="45.87712000" lon="11.47465000">
        <ele>915.00000</ele>
        <time>2010-01-01T06:28:02Z</time>
      </trkpt>
      <trkpt lat="45.87700000" lon="11.47491000">
        <ele>930.00000</ele>
        <time>2010-01-01T06:28:11Z</time>
      </trkpt>
      <trkpt lat="45.87682000" lon="11.47513000">
        <ele>939.00000</ele>
        <time>2010-01-01T06:28:20Z</time>
      </trkpt>
      <trkpt lat="45.87549000" lon="11.47504000">
        <ele>945.00000</ele>
        <time>2010-01-01T06:29:14Z</time>
      </trkpt>
      <trkpt lat="45.87531000" lon="11.47513000">
        <ele>947.00000</ele>
        <time>2010-01-01T06:29:21Z</time>
      </trkpt>
      <trkpt lat="45.87521990" lon="11.47547000">
        <ele>951.00000</ele>
        <time>2010-01-01T06:29:31Z</time>
      </trkpt>
      <trkpt lat="45.87525000" lon="11.47764000">
        <ele>967.00000</ele>
        <time>2010-01-01T06:30:32Z</time>
      </trkpt>
      <trkpt lat="45.87555000" lon="11.47811000">
        <ele>972.00000</ele>
        <time>2010-01-01T06:30:50Z</time>
      </trkpt>
      <trkpt lat="45.87557990" lon="11.47841000">
        <ele>974.00000</ele>
        <time>2010-01-01T06:30:58Z</time>
      </trkpt>
      <trkpt lat="45.87546000" lon="11.47859000">
        <ele>974.00000</ele>
        <time>2010-01-01T06:31:05Z</time>
      </trkpt>
      <trkpt lat="45.87510000" lon="11.47859000">
        <ele>970.00000</ele>
        <time>2010-01-01T06:31:20Z</time>
      </trkpt>
      <trkpt lat="45.87483000" lon="11.47950000">
        <ele>980.00000</ele>
        <time>2010-01-01T06:31:47Z</time>
      </trkpt>
      <trkpt lat="45.87471000" lon="11.47958000">
        <ele>984.00000</ele>
        <time>2010-01-01T06:31:52Z</time>
      </trkpt>
      <trkpt lat="45.87462000" lon="11.47962000">
        <ele>987.00000</ele>
        <time>2010-01-01T06:31:56Z</time>
      </trkpt>
      <trkpt lat="45.87443990" lon="11.47950000">
        <ele>991.00000</ele>
        <time>2010-01-01T06:32:04Z</time>
      </trkpt>
      <trkpt lat="45.87404000" lon="11.47881000">
        <ele>993.00000</ele>
        <time>2010-01-01T06:32:29Z</time>
      </trkpt>
      <trkpt lat="45.87396000" lon="11.47816000">
        <ele>988.00000</ele>
        <time>2010-01-01T06:32:48Z</time>
      </trkpt>
      <trkpt lat="45.87381000" lon="11.47772000">
        <ele>984.00000</ele>
        <time>2010-01-01T06:33:01Z</time>
      </trkpt>
      <trkpt lat="45.87351000" lon="11.47772000">
        <ele>987.00000</ele>
        <time>2010-01-01T06:33:13Z</time>
      </trkpt>
      <trkpt lat="45.87275000" lon="11.47798000">
        <ele>999.00000</ele>
        <time>2010-01-01T06:33:44Z</time>
      </trkpt>
      <trkpt lat="45.87257000" lon="11.47781000">
        <ele>1000.0000</ele>
        <time>2010-01-01T06:33:53Z</time>
      </trkpt>
      <trkpt lat="45.87257000" lon="11.47747000">
        <ele>998.00000</ele>
        <time>2010-01-01T06:34:03Z</time>
      </trkpt>
      <trkpt lat="45.87281000" lon="11.47677000">
        <ele>989.00000</ele>
        <time>2010-01-01T06:34:24Z</time>
      </trkpt>
      <trkpt lat="45.87281000" lon="11.47634000">
        <ele>985.00000</ele>
        <time>2010-01-01T06:34:36Z</time>
      </trkpt>
      <trkpt lat="45.87268990" lon="11.47608000">
        <ele>986.00000</ele>
        <time>2010-01-01T06:34:45Z</time>
      </trkpt>
      <trkpt lat="45.87203000" lon="11.47613000">
        <ele>997.00000</ele>
        <time>2010-01-01T06:35:11Z</time>
      </trkpt>
      <trkpt lat="45.87121000" lon="11.47638000">
        <ele>1002.0000</ele>
        <time>2010-01-01T06:35:45Z</time>
      </trkpt>
      <trkpt lat="45.87064000" lon="11.47703000">
        <ele>1003.0000</ele>
        <time>2010-01-01T06:36:14Z</time>
      </trkpt>
      <trkpt lat="45.87028000" lon="11.47828000">
        <ele>1002.0000</ele>
        <time>2010-01-01T06:36:52Z</time>
      </trkpt>
      <trkpt lat="45.86986000" lon="11.47958000">
        <ele>1002.0000</ele>
        <time>2010-01-01T06:37:32Z</time>
      </trkpt>
      <trkpt lat="45.86968000" lon="11.47998000">
        <ele>1002.0000</ele>
        <time>2010-01-01T06:37:45Z</time>
      </trkpt>
      <trkpt lat="45.86925000" lon="11.48070000">
        <ele>1002.0000</ele>
        <time>2010-01-01T06:38:12Z</time>
      </trkpt>
      <trkpt lat="45.86905000" lon="11.48110000">
        <ele>1002.0000</ele>
        <time>2010-01-01T06:38:25Z</time>
      </trkpt>
      <trkpt lat="45.86878000" lon="11.48161000">
        <ele>1002.0000</ele>
        <time>2010-01-01T06:38:43Z</time>
      </trkpt>
      <trkpt lat="45.86871000" lon="11.48201000">
        <ele>1002.0000</ele>
        <time>2010-01-01T06:38:55Z</time>
      </trkpt>
      <trkpt lat="45.86898000" lon="11.48270000">
        <ele>1005.0000</ele>
        <time>2010-01-01T06:39:17Z</time>
      </trkpt>
      <trkpt lat="45.86910000" lon="11.48304000">
        <ele>1006.0000</ele>
        <time>2010-01-01T06:39:27Z</time>
      </trkpt>
      <trkpt lat="45.86920000" lon="11.48352000">
        <ele>1009.0000</ele>
        <time>2010-01-01T06:39:41Z</time>
      </trkpt>
      <trkpt lat="45.86920000" lon="11.48426000">
        <ele>1012.0000</ele>
        <time>2010-01-01T06:40:02Z</time>
      </trkpt>
      <trkpt lat="45.86913000" lon="11.48452000">
        <ele>1012.0000</ele>
        <time>2010-01-01T06:40:10Z</time>
      </trkpt>
      <trkpt lat="45.86826000" lon="11.48577000">
        <ele>1011.0000</ele>
        <time>2010-01-01T06:40:59Z</time>
      </trkpt>
      <trkpt lat="45.86832000" lon="11.48624000">
        <ele>1013.0000</ele>
        <time>2010-01-01T06:41:12Z</time>
      </trkpt>
      <trkpt lat="45.86947000" lon="11.48871000">
        <ele>1024.0000</ele>
        <time>2010-01-01T06:42:35Z</time>
      </trkpt>
      <trkpt lat="45.86968000" lon="11.48918000">
        <ele>1024.0000</ele>
        <time>2010-01-01T06:42:51Z</time>
      </trkpt>
      <trkpt lat="45.86974000" lon="11.48949000">
        <ele>1022.0000</ele>
        <time>2010-01-01T06:43:00Z</time>
      </trkpt>
      <trkpt lat="45.86865000" lon="11.49169000">
        <ele>1008.0000</ele>
        <time>2010-01-01T06:44:15Z</time>
      </trkpt>
      <trkpt lat="45.86829990" lon="11.49243000">
        <ele>1004.0000</ele>
        <time>2010-01-01T06:44:40Z</time>
      </trkpt>
      <trkpt lat="45.86817000" lon="11.49299000">
        <ele>1003.0000</ele>
        <time>2010-01-01T06:44:56Z</time>
      </trkpt>
      <trkpt lat="45.86814000" lon="11.49364000">
        <ele>1001.0000</ele>
        <time>2010-01-01T06:45:14Z</time>
      </trkpt>
      <trkpt lat="45.86845000" lon="11.49494000">
        <ele>1000.0000</ele>
        <time>2010-01-01T06:45:53Z</time>
      </trkpt>
      <trkpt lat="45.86907990" lon="11.49654000">
        <ele>1000.0000</ele>
        <time>2010-01-01T06:46:44Z</time>
      </trkpt>
      <trkpt lat="45.87004000" lon="11.49805000">
        <ele>1000.0000</ele>
        <time>2010-01-01T06:47:41Z</time>
      </trkpt>
      <trkpt lat="45.87016000" lon="11.49827000">
        <ele>1000.0000</ele>
        <time>2010-01-01T06:47:49Z</time>
      </trkpt>
      <trkpt lat="45.87133000" lon="11.50017000">
        <ele>995.00000</ele>
        <time>2010-01-01T06:48:59Z</time>
      </trkpt>
      <trkpt lat="45.87215000" lon="11.50142000">
        <ele>1003.0000</ele>
        <time>2010-01-01T06:49:47Z</time>
      </trkpt>
      <trkpt lat="45.87254000" lon="11.50233000">
        <ele>1006.0000</ele>
        <time>2010-01-01T06:50:17Z</time>
      </trkpt>
      <trkpt lat="45.87266000" lon="11.50268000">
        <ele>1008.0000</ele>
        <time>2010-01-01T06:50:28Z</time>
      </trkpt>
      <trkpt lat="45.87310990" lon="11.50389000">
        <ele>1012.0000</ele>
        <time>2010-01-01T06:51:06Z</time>
      </trkpt>
      <trkpt lat="45.87359000" lon="11.50549000">
        <ele>1009.0000</ele>
        <time>2010-01-01T06:51:55Z</time>
      </trkpt>
      <trkpt lat="45.87365990" lon="11.50570000">
        <ele>1009.0000</ele>
        <time>2010-01-01T06:52:01Z</time>
      </trkpt>
      <trkpt lat="45.87404000" lon="11.50692000">
        <ele>1005.0000</ele>
        <time>2010-01-01T06:52:38Z</time>
      </trkpt>
      <trkpt lat="45.87441000" lon="11.50748000">
        <ele>1000.0000</ele>
        <time>2010-01-01T06:53:00Z</time>
      </trkpt>
      <trkpt lat="45.87464000" lon="11.50787000">
        <ele>1000.0000</ele>
        <time>2010-01-01T06:53:14Z</time>
      </trkpt>
      <trkpt lat="45.87471000" lon="11.50800000">
        <ele>1000.0000</ele>
        <time>2010-01-01T06:53:19Z</time>
      </trkpt>
      <trkpt lat="45.87510000" lon="11.50865000">
        <ele>1000.0000</ele>
        <time>2010-01-01T06:53:43Z</time>
      </trkpt>
      <trkpt lat="45.87527990" lon="11.50917000">
        <ele>1000.0000</ele>
        <time>2010-01-01T06:53:59Z</time>
      </trkpt>
      <trkpt lat="45.87537000" lon="11.50955000">
        <ele>1002.0000</ele>
        <time>2010-01-01T06:54:10Z</time>
      </trkpt>
      <trkpt lat="45.87546000" lon="11.51038000">
        <ele>1002.0000</ele>
        <time>2010-01-01T06:54:33Z</time>
      </trkpt>
      <trkpt lat="45.87546000" lon="11.51068000">
        <ele>1002.0000</ele>
        <time>2010-01-01T06:54:42Z</time>
      </trkpt>
      <trkpt lat="45.87576000" lon="11.51077000">
        <ele>1002.0000</ele>
        <time>2010-01-01T06:54:54Z</time>
      </trkpt>
      <trkpt lat="45.87582000" lon="11.51081000">
        <ele>1002.0000</ele>
        <time>2010-01-01T06:54:57Z</time>
      </trkpt>
      <trkpt lat="45.87627000" lon="11.51124000">
        <ele>1004.0000</ele>
        <time>2010-01-01T06:55:18Z</time>
      </trkpt>
      <trkpt lat="45.87687000" lon="11.51189000">
        <ele>1006.0000</ele>
        <time>2010-01-01T06:55:48Z</time>
      </trkpt>
      <trkpt lat="45.87709000" lon="11.51215000">
        <ele>1006.0000</ele>
        <time>2010-01-01T06:56:00Z</time>
      </trkpt>
      <trkpt lat="45.87721000" lon="11.51228000">
        <ele>1005.0000</ele>
        <time>2010-01-01T06:56:06Z</time>
      </trkpt>
      <trkpt lat="45.87738990" lon="11.51249000">
        <ele>1005.0000</ele>
        <time>2010-01-01T06:56:15Z</time>
      </trkpt>
      <trkpt lat="45.87757000" lon="11.51289000">
        <ele>1006.0000</ele>
        <time>2010-01-01T06:56:28Z</time>
      </trkpt>
      <trkpt lat="45.87772000" lon="11.51328000">
        <ele>1006.0000</ele>
        <time>2010-01-01T06:56:41Z</time>
      </trkpt>
      <trkpt lat="45.87790000" lon="11.51366000">
        <ele>1007.0000</ele>
        <time>2010-01-01T06:56:54Z</time>
      </trkpt>
      <trkpt lat="45.87799000" lon="11.51383000">
        <ele>1008.0000</ele>
        <time>2010-01-01T06:57:00Z</time>
      </trkpt>
      <trkpt lat="45.87810990" lon="11.51419000">
        <ele>1009.0000</ele>
        <time>2010-01-01T06:57:11Z</time>
      </trkpt>
      <trkpt lat="45.87844000" lon="11.51505000">
        <ele>1009.0000</ele>
        <time>2010-01-01T06:57:38Z</time>
      </trkpt>
      <trkpt lat="45.87846990" lon="11.51514000">
        <ele>1009.0000</ele>
        <time>2010-01-01T06:57:41Z</time>
      </trkpt>
      <trkpt lat="45.87877000" lon="11.51609000">
        <ele>1011.0000</ele>
        <time>2010-01-01T06:58:10Z</time>
      </trkpt>
      <trkpt lat="45.87947000" lon="11.51877000">
        <ele>1013.0000</ele>
        <time>2010-01-01T06:59:30Z</time>
      </trkpt>
      <trkpt lat="45.87965000" lon="11.51946000">
        <ele>1013.0000</ele>
        <time>2010-01-01T06:59:50Z</time>
      </trkpt>
      <trkpt lat="45.88007000" lon="11.52085000">
        <ele>1022.0000</ele>
        <time>2010-01-01T07:00:33Z</time>
      </trkpt>
      <trkpt lat="45.88046000" lon="11.52210000">
        <ele>1026.0000</ele>
        <time>2010-01-01T07:01:11Z</time>
      </trkpt>
      <trkpt lat="45.88052000" lon="11.52249000">
        <ele>1026.0000</ele>
        <time>2010-01-01T07:01:22Z</time>
      </trkpt>
      <trkpt lat="45.88061000" lon="11.52379000">
        <ele>1027.0000</ele>
        <time>2010-01-01T07:01:58Z</time>
      </trkpt>
      <trkpt lat="45.88055000" lon="11.52430000">
        <ele>1028.0000</ele>
        <time>2010-01-01T07:02:13Z</time>
      </trkpt>
      <trkpt lat="45.88055000" lon="11.52465000">
        <ele>1029.0000</ele>
        <time>2010-01-01T07:02:22Z</time>
      </trkpt>
      <trkpt lat="45.88049000" lon="11.52543000">
        <ele>1029.0000</ele>
        <time>2010-01-01T07:02:44Z</time>
      </trkpt>
      <trkpt lat="45.88046000" lon="11.52690000">
        <ele>1032.0000</ele>
        <time>2010-01-01T07:03:25Z</time>
      </trkpt>
      <trkpt lat="45.88052000" lon="11.52750000">
        <ele>1032.0000</ele>
        <time>2010-01-01T07:03:42Z</time>
      </trkpt>
      <trkpt lat="45.88097000" lon="11.52980000">
        <ele>1032.0000</ele>
        <time>2010-01-01T07:04:49Z</time>
      </trkpt>
      <trkpt lat="45.88130000" lon="11.53109000">
        <ele>1033.0000</ele>
        <time>2010-01-01T07:05:27Z</time>
      </trkpt>
      <trkpt lat="45.88199000" lon="11.53231000">
        <ele>1044.0000</ele>
        <time>2010-01-01T07:06:11Z</time>
      </trkpt>
      <trkpt lat="45.88226000" lon="11.53287000">
        <ele>1047.0000</ele>
        <time>2010-01-01T07:06:30Z</time>
      </trkpt>
      <trkpt lat="45.88236000" lon="11.53291000">
        <ele>1048.0000</ele>
        <time>2010-01-01T07:06:34Z</time>
      </trkpt>
      <trkpt lat="45.88323000" lon="11.53374000">
        <ele>1052.0000</ele>
        <time>2010-01-01T07:07:16Z</time>
      </trkpt>
      <trkpt lat="45.88377000" lon="11.53434000">
        <ele>1055.0000</ele>
        <time>2010-01-01T07:07:43Z</time>
      </trkpt>
      <trkpt lat="45.88395000" lon="11.53469000">
        <ele>1057.0000</ele>
        <time>2010-01-01T07:07:55Z</time>
      </trkpt>
      <trkpt lat="45.88437000" lon="11.53563000">
        <ele>1060.0000</ele>
        <time>2010-01-01T07:08:26Z</time>
      </trkpt>
      <trkpt lat="45.88459000" lon="11.53607000">
        <ele>1061.0000</ele>
        <time>2010-01-01T07:08:41Z</time>
      </trkpt>
      <trkpt lat="45.88561000" lon="11.53776000">
        <ele>1068.0000</ele>
        <time>2010-01-01T07:09:44Z</time>
      </trkpt>
      <trkpt lat="45.88621000" lon="11.53880000">
        <ele>1073.0000</ele>
        <time>2010-01-01T07:10:21Z</time>
      </trkpt>
      <trkpt lat="45.88630000" lon="11.53888000">
        <ele>1073.0000</ele>
        <time>2010-01-01T07:10:26Z</time>
      </trkpt>
      <trkpt lat="45.88680990" lon="11.53949000">
        <ele>1073.0000</ele>
        <time>2010-01-01T07:10:52Z</time>
      </trkpt>
      <trkpt lat="45.88775000" lon="11.54044000">
        <ele>1072.0000</ele>
        <time>2010-01-01T07:11:38Z</time>
      </trkpt>
      <trkpt lat="45.88802000" lon="11.54070000">
        <ele>1071.0000</ele>
        <time>2010-01-01T07:11:51Z</time>
      </trkpt>
      <trkpt lat="45.88925000" lon="11.54100000">
        <ele>1071.0000</ele>
        <time>2010-01-01T07:12:41Z</time>
      </trkpt>
      <trkpt lat="45.88940000" lon="11.54105000">
        <ele>1071.0000</ele>
        <time>2010-01-01T07:12:47Z</time>
      </trkpt>
      <trkpt lat="45.88961000" lon="11.54113000">
        <ele>1071.0000</ele>
        <time>2010-01-01T07:12:56Z</time>
      </trkpt>
      <trkpt lat="45.88976000" lon="11.54117000">
        <ele>1071.0000</ele>
        <time>2010-01-01T07:13:02Z</time>
      </trkpt>
      <trkpt lat="45.89000000" lon="11.54134000">
        <ele>1070.0000</ele>
        <time>2010-01-01T07:13:13Z</time>
      </trkpt>
      <trkpt lat="45.89088000" lon="11.54199000">
        <ele>1071.0000</ele>
        <time>2010-01-01T07:13:52Z</time>
      </trkpt>
      <trkpt lat="45.89148000" lon="11.54251000">
        <ele>1073.0000</ele>
        <time>2010-01-01T07:14:20Z</time>
      </trkpt>
      <trkpt lat="45.89169000" lon="11.54260000">
        <ele>1075.0000</ele>
        <time>2010-01-01T07:14:29Z</time>
      </trkpt>
      <trkpt lat="45.89205000" lon="11.54313000">
        <ele>1073.0000</ele>
        <time>2010-01-01T07:14:50Z</time>
      </trkpt>
      <trkpt lat="45.89235000" lon="11.54385000">
        <ele>1075.0000</ele>
        <time>2010-01-01T07:15:13Z</time>
      </trkpt>
      <trkpt lat="45.89250000" lon="11.54433000">
        <ele>1075.0000</ele>
        <time>2010-01-01T07:15:28Z</time>
      </trkpt>
      <trkpt lat="45.89258990" lon="11.54472000">
        <ele>1076.0000</ele>
        <time>2010-01-01T07:15:39Z</time>
      </trkpt>
      <trkpt lat="45.89281000" lon="11.54528000">
        <ele>1078.0000</ele>
        <time>2010-01-01T07:15:57Z</time>
      </trkpt>
      <trkpt lat="45.89300990" lon="11.54593000">
        <ele>1080.0000</ele>
        <time>2010-01-01T07:16:17Z</time>
      </trkpt>
      <trkpt lat="45.89300990" lon="11.54632000">
        <ele>1081.0000</ele>
        <time>2010-01-01T07:16:28Z</time>
      </trkpt>
      <trkpt lat="45.89286000" lon="11.54662000">
        <ele>1085.0000</ele>
        <time>2010-01-01T07:16:38Z</time>
      </trkpt>
      <trkpt lat="45.89262000" lon="11.54710000">
        <ele>1088.0000</ele>
        <time>2010-01-01T07:16:55Z</time>
      </trkpt>
      <trkpt lat="45.89256000" lon="11.54736000">
        <ele>1087.0000</ele>
        <time>2010-01-01T07:17:02Z</time>
      </trkpt>
      <trkpt lat="45.89250000" lon="11.54784000">
        <ele>1087.0000</ele>
        <time>2010-01-01T07:17:16Z</time>
      </trkpt>
      <trkpt lat="45.89244000" lon="11.54822000">
        <ele>1087.0000</ele>
        <time>2010-01-01T07:17:27Z</time>
      </trkpt>
      <trkpt lat="45.89244000" lon="11.54858000">
        <ele>1086.0000</ele>
        <time>2010-01-01T07:17:37Z</time>
      </trkpt>
      <trkpt lat="45.89211000" lon="11.55078000">
        <ele>1092.0000</ele>
        <time>2010-01-01T07:18:40Z</time>
      </trkpt>
      <trkpt lat="45.89202000" lon="11.55177000">
        <ele>1092.0000</ele>
        <time>2010-01-01T07:19:07Z</time>
      </trkpt>
      <trkpt lat="45.89196000" lon="11.55233000">
        <ele>1094.0000</ele>
        <time>2010-01-01T07:19:23Z</time>
      </trkpt>
      <trkpt lat="45.89175000" lon="11.55312000">
        <ele>1093.0000</ele>
        <time>2010-01-01T07:19:47Z</time>
      </trkpt>
      <trkpt lat="45.89172000" lon="11.55346000">
        <ele>1094.0000</ele>
        <time>2010-01-01T07:19:56Z</time>
      </trkpt>
      <trkpt lat="45.89160000" lon="11.55428000">
        <ele>1094.0000</ele>
        <time>2010-01-01T07:20:20Z</time>
      </trkpt>
      <trkpt lat="45.89133000" lon="11.55631000">
        <ele>1090.0000</ele>
        <time>2010-01-01T07:21:17Z</time>
      </trkpt>
      <trkpt lat="45.89138000" lon="11.55666000">
        <ele>1090.0000</ele>
        <time>2010-01-01T07:21:27Z</time>
      </trkpt>
      <trkpt lat="45.89205000" lon="11.55752000">
        <ele>1095.0000</ele>
        <time>2010-01-01T07:22:03Z</time>
      </trkpt>
      <trkpt lat="45.89211000" lon="11.55761000">
        <ele>1095.0000</ele>
        <time>2010-01-01T07:22:07Z</time>
      </trkpt>
      <trkpt lat="45.89216990" lon="11.55769000">
        <ele>1095.0000</ele>
        <time>2010-01-01T07:22:10Z</time>
      </trkpt>
      <trkpt lat="45.89220000" lon="11.55796000">
        <ele>1091.0000</ele>
        <time>2010-01-01T07:22:17Z</time>
      </trkpt>
      <trkpt lat="45.89229000" lon="11.55869000">
        <ele>1082.0000</ele>
        <time>2010-01-01T07:22:38Z</time>
      </trkpt>
      <trkpt lat="45.89338000" lon="11.55973000">
        <ele>1089.0000</ele>
        <time>2010-01-01T07:23:30Z</time>
      </trkpt>
      <trkpt lat="45.89413000" lon="11.56137000">
        <ele>1080.0000</ele>
        <time>2010-01-01T07:24:25Z</time>
      </trkpt>
      <trkpt lat="45.89505990" lon="11.56216000">
        <ele>1089.0000</ele>
        <time>2010-01-01T07:25:08Z</time>
      </trkpt>
      <trkpt lat="45.89575000" lon="11.56220000">
        <ele>1091.0000</ele>
        <time>2010-01-01T07:25:36Z</time>
      </trkpt>
      <trkpt lat="45.89599000" lon="11.56207000">
        <ele>1091.0000</ele>
        <time>2010-01-01T07:25:46Z</time>
      </trkpt>
      <trkpt lat="45.89654000" lon="11.56125000">
        <ele>1093.0000</ele>
        <time>2010-01-01T07:26:18Z</time>
      </trkpt>
      <trkpt lat="45.89677000" lon="11.56120000">
        <ele>1091.0000</ele>
        <time>2010-01-01T07:26:27Z</time>
      </trkpt>
      <trkpt lat="45.89714000" lon="11.56159000">
        <ele>1090.0000</ele>
        <time>2010-01-01T07:26:46Z</time>
      </trkpt>
      <trkpt lat="45.89762000" lon="11.56228000">
        <ele>1082.0000</ele>
        <time>2010-01-01T07:27:13Z</time>
      </trkpt>
      <trkpt lat="45.89765000" lon="11.56233000">
        <ele>1082.0000</ele>
        <time>2010-01-01T07:27:15Z</time>
      </trkpt>
      <trkpt lat="45.89810000" lon="11.56271000">
        <ele>1083.0000</ele>
        <time>2010-01-01T07:27:36Z</time>
      </trkpt>
      <trkpt lat="45.89861000" lon="11.56350000">
        <ele>1079.0000</ele>
        <time>2010-01-01T07:28:06Z</time>
      </trkpt>
      <trkpt lat="45.89910000" lon="11.56448000">
        <ele>1087.0000</ele>
        <time>2010-01-01T07:28:39Z</time>
      </trkpt>
      <trkpt lat="45.89906000" lon="11.56496000">
        <ele>1084.0000</ele>
        <time>2010-01-01T07:28:53Z</time>
      </trkpt>
      <trkpt lat="45.89885000" lon="11.56518000">
        <ele>1082.0000</ele>
        <time>2010-01-01T07:29:03Z</time>
      </trkpt>
      <trkpt lat="45.89825000" lon="11.56544000">
        <ele>1070.0000</ele>
        <time>2010-01-01T07:29:28Z</time>
      </trkpt>
      <trkpt lat="45.89786000" lon="11.56553000">
        <ele>1065.0000</ele>
        <time>2010-01-01T07:29:44Z</time>
      </trkpt>
      <trkpt lat="45.89765000" lon="11.56570000">
        <ele>1065.0000</ele>
        <time>2010-01-01T07:29:54Z</time>
      </trkpt>
      <trkpt lat="45.89735000" lon="11.56605000">
        <ele>1059.0000</ele>
        <time>2010-01-01T07:30:09Z</time>
      </trkpt>
      <trkpt lat="45.89735000" lon="11.56630000">
        <ele>1058.0000</ele>
        <time>2010-01-01T07:30:16Z</time>
      </trkpt>
      <trkpt lat="45.89765000" lon="11.56670000">
        <ele>1069.0000</ele>
        <time>2010-01-01T07:30:33Z</time>
      </trkpt>
      <trkpt lat="45.89768000" lon="11.56674000">
        <ele>1071.0000</ele>
        <time>2010-01-01T07:30:34Z</time>
      </trkpt>
      <trkpt lat="45.89765000" lon="11.56713000">
        <ele>1078.0000</ele>
        <time>2010-01-01T07:30:45Z</time>
      </trkpt>
      <trkpt lat="45.89765000" lon="11.56717000">
        <ele>1079.0000</ele>
        <time>2010-01-01T07:30:46Z</time>
      </trkpt>
      <trkpt lat="45.89669000" lon="11.56743000">
        <ele>1066.0000</ele>
        <time>2010-01-01T07:31:25Z</time>
      </trkpt>
      <trkpt lat="45.89627000" lon="11.56734000">
        <ele>1060.0000</ele>
        <time>2010-01-01T07:31:42Z</time>
      </trkpt>
      <trkpt lat="45.89551000" lon="11.56769000">
        <ele>1074.0000</ele>
        <time>2010-01-01T07:32:14Z</time>
      </trkpt>
      <trkpt lat="45.89518000" lon="11.56769000">
        <ele>1076.0000</ele>
        <time>2010-01-01T07:32:27Z</time>
      </trkpt>
      <trkpt lat="45.89443000" lon="11.56717000">
        <ele>1057.0000</ele>
        <time>2010-01-01T07:33:01Z</time>
      </trkpt>
      <trkpt lat="45.89386000" lon="11.56725000">
        <ele>1051.0000</ele>
        <time>2010-01-01T07:33:24Z</time>
      </trkpt>
      <trkpt lat="45.89368000" lon="11.56739000">
        <ele>1048.0000</ele>
        <time>2010-01-01T07:33:32Z</time>
      </trkpt>
      <trkpt lat="45.89338000" lon="11.56795000">
        <ele>1044.0000</ele>
        <time>2010-01-01T07:33:52Z</time>
      </trkpt>
      <trkpt lat="45.89311000" lon="11.56859000">
        <ele>1041.0000</ele>
        <time>2010-01-01T07:34:12Z</time>
      </trkpt>
      <trkpt lat="45.89281000" lon="11.56933000">
        <ele>1043.0000</ele>
        <time>2010-01-01T07:34:36Z</time>
      </trkpt>
      <trkpt lat="45.89250000" lon="11.57046000">
        <ele>1044.0000</ele>
        <time>2010-01-01T07:35:10Z</time>
      </trkpt>
      <trkpt lat="45.89262000" lon="11.57141000">
        <ele>1047.0000</ele>
        <time>2010-01-01T07:35:37Z</time>
      </trkpt>
      <trkpt lat="45.89265000" lon="11.57219000">
        <ele>1050.0000</ele>
        <time>2010-01-01T07:35:59Z</time>
      </trkpt>
      <trkpt lat="45.89235000" lon="11.57275000">
        <ele>1044.0000</ele>
        <time>2010-01-01T07:36:19Z</time>
      </trkpt>
      <trkpt lat="45.89211000" lon="11.57349000">
        <ele>1043.0000</ele>
        <time>2010-01-01T07:36:41Z</time>
      </trkpt>
      <trkpt lat="45.89208000" lon="11.57383000">
        <ele>1040.0000</ele>
        <time>2010-01-01T07:36:51Z</time>
      </trkpt>
      <trkpt lat="45.89238000" lon="11.57504000">
        <ele>1052.0000</ele>
        <time>2010-01-01T07:37:27Z</time>
      </trkpt>
      <trkpt lat="45.89220000" lon="11.57573000">
        <ele>1046.0000</ele>
        <time>2010-01-01T07:37:47Z</time>
      </trkpt>
      <trkpt lat="45.89220000" lon="11.57617000">
        <ele>1043.0000</ele>
        <time>2010-01-01T07:37:59Z</time>
      </trkpt>
      <trkpt lat="45.89256000" lon="11.57686000">
        <ele>1053.0000</ele>
        <time>2010-01-01T07:38:23Z</time>
      </trkpt>
      <trkpt lat="45.89265000" lon="11.57746000">
        <ele>1056.0000</ele>
        <time>2010-01-01T07:38:41Z</time>
      </trkpt>
      <trkpt lat="45.89262000" lon="11.57811000">
        <ele>1063.0000</ele>
        <time>2010-01-01T07:38:59Z</time>
      </trkpt>
      <trkpt lat="45.89247000" lon="11.57824000">
        <ele>1058.0000</ele>
        <time>2010-01-01T07:39:06Z</time>
      </trkpt>
      <trkpt lat="45.89211000" lon="11.57833000">
        <ele>1046.0000</ele>
        <time>2010-01-01T07:39:20Z</time>
      </trkpt>
      <trkpt lat="45.89196000" lon="11.57855000">
        <ele>1043.0000</ele>
        <time>2010-01-01T07:39:29Z</time>
      </trkpt>
      <trkpt lat="45.89184000" lon="11.57915000">
        <ele>1042.0000</ele>
        <time>2010-01-01T07:39:46Z</time>
      </trkpt>
      <trkpt lat="45.89166000" lon="11.57958000">
        <ele>1038.0000</ele>
        <time>2010-01-01T07:40:00Z</time>
      </trkpt>
      <trkpt lat="45.89154000" lon="11.57984000">
        <ele>1040.0000</ele>
        <time>2010-01-01T07:40:09Z</time>
      </trkpt>
      <trkpt lat="45.89172000" lon="11.58058000">
        <ele>1041.0000</ele>
        <time>2010-01-01T07:40:31Z</time>
      </trkpt>
      <trkpt lat="45.89220000" lon="11.58188000">
        <ele>1040.0000</ele>
        <time>2010-01-01T07:41:12Z</time>
      </trkpt>
      <trkpt lat="45.89265000" lon="11.58331000">
        <ele>1032.0000</ele>
        <time>2010-01-01T07:41:56Z</time>
      </trkpt>
      <trkpt lat="45.89286000" lon="11.58360000">
        <ele>1031.0000</ele>
        <time>2010-01-01T07:42:07Z</time>
      </trkpt>
      <trkpt lat="45.89338000" lon="11.58377000">
        <ele>1037.0000</ele>
        <time>2010-01-01T07:42:29Z</time>
      </trkpt>
      <trkpt lat="45.89353000" lon="11.58386000">
        <ele>1042.0000</ele>
        <time>2010-01-01T07:42:35Z</time>
      </trkpt>
      <trkpt lat="45.89364000" lon="11.58422000">
        <ele>1042.0000</ele>
        <time>2010-01-01T07:42:46Z</time>
      </trkpt>
      <trkpt lat="45.89404000" lon="11.58659000">
        <ele>1027.0000</ele>
        <time>2010-01-01T07:43:54Z</time>
      </trkpt>
      <trkpt lat="45.89461000" lon="11.58785000">
        <ele>1026.0000</ele>
        <time>2010-01-01T07:44:36Z</time>
      </trkpt>
      <trkpt lat="45.89473000" lon="11.58876000">
        <ele>1023.0000</ele>
        <time>2010-01-01T07:45:02Z</time>
      </trkpt>
      <trkpt lat="45.89469990" lon="11.59057000">
        <ele>1021.0000</ele>
        <time>2010-01-01T07:45:52Z</time>
      </trkpt>
      <trkpt lat="45.89467000" lon="11.59221000">
        <ele>1014.0000</ele>
        <time>2010-01-01T07:46:38Z</time>
      </trkpt>
      <trkpt lat="45.89505990" lon="11.59399000">
        <ele>1023.0000</ele>
        <time>2010-01-01T07:47:30Z</time>
      </trkpt>
      <trkpt lat="45.89500000" lon="11.59498000">
        <ele>1016.0000</ele>
        <time>2010-01-01T07:47:57Z</time>
      </trkpt>
      <trkpt lat="45.89545000" lon="11.59693000">
        <ele>1006.0000</ele>
        <time>2010-01-01T07:48:55Z</time>
      </trkpt>
      <trkpt lat="45.89539000" lon="11.59870000">
        <ele>1003.0000</ele>
        <time>2010-01-01T07:49:44Z</time>
      </trkpt>
      <trkpt lat="45.89505990" lon="11.60052000">
        <ele>992.00000</ele>
        <time>2010-01-01T07:50:36Z</time>
      </trkpt>
      <trkpt lat="45.89518000" lon="11.60082000">
        <ele>996.00000</ele>
        <time>2010-01-01T07:50:46Z</time>
      </trkpt>
      <trkpt lat="45.89599000" lon="11.60103000">
        <ele>1007.0000</ele>
        <time>2010-01-01T07:51:19Z</time>
      </trkpt>
      <trkpt lat="45.89612000" lon="11.60112000">
        <ele>1007.0000</ele>
        <time>2010-01-01T07:51:25Z</time>
      </trkpt>
      <trkpt lat="45.89617000" lon="11.60155000">
        <ele>998.00000</ele>
        <time>2010-01-01T07:51:37Z</time>
      </trkpt>
      <trkpt lat="45.89551000" lon="11.60385000">
        <ele>1009.0000</ele>
        <time>2010-01-01T07:52:46Z</time>
      </trkpt>
      <trkpt lat="45.89473000" lon="11.60493000">
        <ele>1001.0000</ele>
        <time>2010-01-01T07:53:30Z</time>
      </trkpt>
      <trkpt lat="45.89455000" lon="11.60566000">
        <ele>1004.0000</ele>
        <time>2010-01-01T07:53:51Z</time>
      </trkpt>
      <trkpt lat="45.89461000" lon="11.60709000">
        <ele>1013.0000</ele>
        <time>2010-01-01T07:54:31Z</time>
      </trkpt>
      <trkpt lat="45.89455000" lon="11.60757000">
        <ele>1011.0000</ele>
        <time>2010-01-01T07:54:45Z</time>
      </trkpt>
      <trkpt lat="45.89443000" lon="11.60939000">
        <ele>1015.0000</ele>
        <time>2010-01-01T07:55:36Z</time>
      </trkpt>
      <trkpt lat="45.89401000" lon="11.61021000">
        <ele>1019.0000</ele>
        <time>2010-01-01T07:56:04Z</time>
      </trkpt>
      <trkpt lat="45.89323000" lon="11.61085000">
        <ele>1016.0000</ele>
        <time>2010-01-01T07:56:40Z</time>
      </trkpt>
      <trkpt lat="45.89244000" lon="11.61120000">
        <ele>1006.0000</ele>
        <time>2010-01-01T07:57:13Z</time>
      </trkpt>
      <trkpt lat="45.89232000" lon="11.61129000">
        <ele>1004.0000</ele>
        <time>2010-01-01T07:57:18Z</time>
      </trkpt>
      <trkpt lat="45.89193000" lon="11.61190000">
        <ele>1001.0000</ele>
        <time>2010-01-01T07:57:42Z</time>
      </trkpt>
      <trkpt lat="45.89193000" lon="11.61237000">
        <ele>1006.0000</ele>
        <time>2010-01-01T07:57:55Z</time>
      </trkpt>
      <trkpt lat="45.89196000" lon="11.61254000">
        <ele>1009.0000</ele>
        <time>2010-01-01T07:57:59Z</time>
      </trkpt>
      <trkpt lat="45.89222990" lon="11.61401000">
        <ele>1012.0000</ele>
        <time>2010-01-01T07:58:42Z</time>
      </trkpt>
      <trkpt lat="45.89216990" lon="11.61441000">
        <ele>1012.0000</ele>
        <time>2010-01-01T07:58:53Z</time>
      </trkpt>
      <trkpt lat="45.89193000" lon="11.61505000">
        <ele>1014.0000</ele>
        <time>2010-01-01T07:59:14Z</time>
      </trkpt>
      <trkpt lat="45.89148000" lon="11.61557000">
        <ele>1014.0000</ele>
        <time>2010-01-01T07:59:37Z</time>
      </trkpt>
      <trkpt lat="45.89082000" lon="11.61604000">
        <ele>1016.0000</ele>
        <time>2010-01-01T08:00:06Z</time>
      </trkpt>
      <trkpt lat="45.89070000" lon="11.61652000">
        <ele>1012.0000</ele>
        <time>2010-01-01T08:00:20Z</time>
      </trkpt>
      <trkpt lat="45.89091000" lon="11.61678000">
        <ele>1015.0000</ele>
        <time>2010-01-01T08:00:31Z</time>
      </trkpt>
      <trkpt lat="45.89196000" lon="11.61644000">
        <ele>1019.0000</ele>
        <time>2010-01-01T08:01:15Z</time>
      </trkpt>
      <trkpt lat="45.89229000" lon="11.61622000">
        <ele>1021.0000</ele>
        <time>2010-01-01T08:01:29Z</time>
      </trkpt>
      <trkpt lat="45.89361000" lon="11.61501000">
        <ele>1024.0000</ele>
        <time>2010-01-01T08:02:32Z</time>
      </trkpt>
      <trkpt lat="45.89386000" lon="11.61488000">
        <ele>1028.0000</ele>
        <time>2010-01-01T08:02:42Z</time>
      </trkpt>
      <trkpt lat="45.89533000" lon="11.61566000">
        <ele>1030.0000</ele>
        <time>2010-01-01T08:03:45Z</time>
      </trkpt>
      <trkpt lat="45.89691990" lon="11.61730000">
        <ele>1023.0000</ele>
        <time>2010-01-01T08:05:03Z</time>
      </trkpt>
      <trkpt lat="45.89765000" lon="11.61752000">
        <ele>1037.0000</ele>
        <time>2010-01-01T08:05:33Z</time>
      </trkpt>
      <trkpt lat="45.89774000" lon="11.61756000">
        <ele>1038.0000</ele>
        <time>2010-01-01T08:05:37Z</time>
      </trkpt>
      <trkpt lat="45.89807000" lon="11.61808000">
        <ele>1034.0000</ele>
        <time>2010-01-01T08:05:57Z</time>
      </trkpt>
      <trkpt lat="45.89855000" lon="11.61890000">
        <ele>1029.0000</ele>
        <time>2010-01-01T08:06:27Z</time>
      </trkpt>
      <trkpt lat="45.89898000" lon="11.61955000">
        <ele>1028.0000</ele>
        <time>2010-01-01T08:06:52Z</time>
      </trkpt>
      <trkpt lat="45.89993000" lon="11.62084000">
        <ele>1031.0000</ele>
        <time>2010-01-01T08:07:44Z</time>
      </trkpt>
      <trkpt lat="45.90050990" lon="11.62171000">
        <ele>1044.0000</ele>
        <time>2010-01-01T08:08:17Z</time>
      </trkpt>
      <trkpt lat="45.90075000" lon="11.62240000">
        <ele>1051.0000</ele>
        <time>2010-01-01T08:08:39Z</time>
      </trkpt>
      <trkpt lat="45.90066000" lon="11.62352000">
        <ele>1042.0000</ele>
        <time>2010-01-01T08:09:10Z</time>
      </trkpt>
      <trkpt lat="45.90066000" lon="11.62366000">
        <ele>1043.0000</ele>
        <time>2010-01-01T08:09:14Z</time>
      </trkpt>
      <trkpt lat="45.90069000" lon="11.62483000">
        <ele>1050.0000</ele>
        <time>2010-01-01T08:09:47Z</time>
      </trkpt>
      <trkpt lat="45.90050990" lon="11.62495000">
        <ele>1049.0000</ele>
        <time>2010-01-01T08:09:55Z</time>
      </trkpt>
      <trkpt lat="45.89993000" lon="11.62500000">
        <ele>1044.0000</ele>
        <time>2010-01-01T08:10:18Z</time>
      </trkpt>
      <trkpt lat="45.89963000" lon="11.62526000">
        <ele>1042.0000</ele>
        <time>2010-01-01T08:10:32Z</time>
      </trkpt>
      <trkpt lat="45.89943000" lon="11.62647000">
        <ele>1055.0000</ele>
        <time>2010-01-01T08:11:07Z</time>
      </trkpt>
      <trkpt lat="45.89928000" lon="11.62686000">
        <ele>1054.0000</ele>
        <time>2010-01-01T08:11:19Z</time>
      </trkpt>
      <trkpt lat="45.89936990" lon="11.62760000">
        <ele>1057.0000</ele>
        <time>2010-01-01T08:11:40Z</time>
      </trkpt>
      <trkpt lat="45.89913000" lon="11.62794000">
        <ele>1059.0000</ele>
        <time>2010-01-01T08:11:54Z</time>
      </trkpt>
      <trkpt lat="45.89792000" lon="11.62868000">
        <ele>1062.0000</ele>
        <time>2010-01-01T08:12:46Z</time>
      </trkpt>
      <trkpt lat="45.89765000" lon="11.62897000">
        <ele>1069.0000</ele>
        <time>2010-01-01T08:13:00Z</time>
      </trkpt>
      <trkpt lat="45.89699000" lon="11.62967000">
        <ele>1074.0000</ele>
        <time>2010-01-01T08:13:33Z</time>
      </trkpt>
      <trkpt lat="45.89647000" lon="11.63045000">
        <ele>1078.0000</ele>
        <time>2010-01-01T08:14:03Z</time>
      </trkpt>
      <trkpt lat="45.89650000" lon="11.63071000">
        <ele>1082.0000</ele>
        <time>2010-01-01T08:14:10Z</time>
      </trkpt>
      <trkpt lat="45.89747000" lon="11.63058000">
        <ele>1091.0000</ele>
        <time>2010-01-01T08:14:49Z</time>
      </trkpt>
      <trkpt lat="45.89765000" lon="11.63045000">
        <ele>1091.0000</ele>
        <time>2010-01-01T08:14:57Z</time>
      </trkpt>
      <trkpt lat="45.89913000" lon="11.63006000">
        <ele>1085.0000</ele>
        <time>2010-01-01T08:15:57Z</time>
      </trkpt>
      <trkpt lat="45.89985000" lon="11.62985000">
        <ele>1080.0000</ele>
        <time>2010-01-01T08:16:27Z</time>
      </trkpt>
      <trkpt lat="45.90039000" lon="11.62985000">
        <ele>1080.0000</ele>
        <time>2010-01-01T08:16:48Z</time>
      </trkpt>
      <trkpt lat="45.89997000" lon="11.63010000">
        <ele>1077.0000</ele>
        <time>2010-01-01T08:17:06Z</time>
      </trkpt>
      <trkpt lat="45.89963000" lon="11.63032000">
        <ele>1076.0000</ele>
        <time>2010-01-01T08:17:21Z</time>
      </trkpt>
      <trkpt lat="45.89913000" lon="11.63088000">
        <ele>1076.0000</ele>
        <time>2010-01-01T08:17:47Z</time>
      </trkpt>
      <trkpt lat="45.89895000" lon="11.63136000">
        <ele>1081.0000</ele>
        <time>2010-01-01T08:18:02Z</time>
      </trkpt>
      <trkpt lat="45.89903000" lon="11.63183000">
        <ele>1082.0000</ele>
        <time>2010-01-01T08:18:15Z</time>
      </trkpt>
      <trkpt lat="45.89933000" lon="11.63222000">
        <ele>1077.0000</ele>
        <time>2010-01-01T08:18:32Z</time>
      </trkpt>
      <trkpt lat="45.89961000" lon="11.63265000">
        <ele>1074.0000</ele>
        <time>2010-01-01T08:18:48Z</time>
      </trkpt>
      <trkpt lat="45.90036000" lon="11.63417000">
        <ele>1053.0000</ele>
        <time>2010-01-01T08:19:40Z</time>
      </trkpt>
      <trkpt lat="45.90042000" lon="11.63451000">
        <ele>1052.0000</ele>
        <time>2010-01-01T08:19:50Z</time>
      </trkpt>
      <trkpt lat="45.90066000" lon="11.63551000">
        <ele>1046.0000</ele>
        <time>2010-01-01T08:20:19Z</time>
      </trkpt>
      <trkpt lat="45.90060000" lon="11.63590000">
        <ele>1047.0000</ele>
        <time>2010-01-01T08:20:30Z</time>
      </trkpt>
      <trkpt lat="45.90039000" lon="11.63629000">
        <ele>1043.0000</ele>
        <time>2010-01-01T08:20:44Z</time>
      </trkpt>
      <trkpt lat="45.89961000" lon="11.63690000">
        <ele>1037.0000</ele>
        <time>2010-01-01T08:21:20Z</time>
      </trkpt>
      <trkpt lat="45.89819000" lon="11.63767000">
        <ele>1022.0000</ele>
        <time>2010-01-01T08:22:20Z</time>
      </trkpt>
      <trkpt lat="45.89765000" lon="11.63781000">
        <ele>1014.0000</ele>
        <time>2010-01-01T08:22:42Z</time>
      </trkpt>
      <trkpt lat="45.89753000" lon="11.63781000">
        <ele>1013.0000</ele>
        <time>2010-01-01T08:22:47Z</time>
      </trkpt>
      <trkpt lat="45.89720000" lon="11.63772000">
        <ele>1008.0000</ele>
        <time>2010-01-01T08:23:01Z</time>
      </trkpt>
      <trkpt lat="45.89684000" lon="11.63719000">
        <ele>1009.0000</ele>
        <time>2010-01-01T08:23:21Z</time>
      </trkpt>
      <trkpt lat="45.89644990" lon="11.63585000">
        <ele>1002.0000</ele>
        <time>2010-01-01T08:24:02Z</time>
      </trkpt>
      <trkpt lat="45.89642000" lon="11.63451000">
        <ele>1001.0000</ele>
        <time>2010-01-01T08:24:39Z</time>
      </trkpt>
      <trkpt lat="45.89642000" lon="11.63387000">
        <ele>1005.0000</ele>
        <time>2010-01-01T08:24:57Z</time>
      </trkpt>
      <trkpt lat="45.89627000" lon="11.63365000">
        <ele>1005.0000</ele>
        <time>2010-01-01T08:25:05Z</time>
      </trkpt>
      <trkpt lat="45.89515000" lon="11.63442000">
        <ele>995.00000</ele>
        <time>2010-01-01T08:25:55Z</time>
      </trkpt>
      <trkpt lat="45.89511990" lon="11.63451000">
        <ele>994.00000</ele>
        <time>2010-01-01T08:25:58Z</time>
      </trkpt>
      <trkpt lat="45.89505990" lon="11.63465000">
        <ele>992.00000</ele>
        <time>2010-01-01T08:26:02Z</time>
      </trkpt>
      <trkpt lat="45.89482000" lon="11.63538000">
        <ele>992.00000</ele>
        <time>2010-01-01T08:26:25Z</time>
      </trkpt>
      <trkpt lat="45.89497000" lon="11.63737000">
        <ele>977.00000</ele>
        <time>2010-01-01T08:27:21Z</time>
      </trkpt>
      <trkpt lat="45.89505990" lon="11.63889000">
        <ele>959.00000</ele>
        <time>2010-01-01T08:28:03Z</time>
      </trkpt>
      <trkpt lat="45.89482000" lon="11.63936000">
        <ele>954.00000</ele>
        <time>2010-01-01T08:28:19Z</time>
      </trkpt>
      <trkpt lat="45.89446000" lon="11.63949000">
        <ele>952.00000</ele>
        <time>2010-01-01T08:28:34Z</time>
      </trkpt>
      <trkpt lat="45.89323000" lon="11.63932000">
        <ele>960.00000</ele>
        <time>2010-01-01T08:29:24Z</time>
      </trkpt>
      <trkpt lat="45.89226000" lon="11.64049000">
        <ele>938.00000</ele>
        <time>2010-01-01T08:30:14Z</time>
      </trkpt>
      <trkpt lat="45.89190000" lon="11.64070000">
        <ele>930.00000</ele>
        <time>2010-01-01T08:30:30Z</time>
      </trkpt>
      <trkpt lat="45.89160000" lon="11.64075000">
        <ele>926.00000</ele>
        <time>2010-01-01T08:30:42Z</time>
      </trkpt>
      <trkpt lat="45.89108000" lon="11.64061000">
        <ele>931.00000</ele>
        <time>2010-01-01T08:31:03Z</time>
      </trkpt>
      <trkpt lat="45.89000000" lon="11.64096000">
        <ele>915.00000</ele>
        <time>2010-01-01T08:31:48Z</time>
      </trkpt>
      <trkpt lat="45.88922000" lon="11.64118000">
        <ele>913.00000</ele>
        <time>2010-01-01T08:32:19Z</time>
      </trkpt>
      <trkpt lat="45.88787000" lon="11.64161000">
        <ele>913.00000</ele>
        <time>2010-01-01T08:33:15Z</time>
      </trkpt>
      <trkpt lat="45.88712000" lon="11.64230000">
        <ele>904.00000</ele>
        <time>2010-01-01T08:33:50Z</time>
      </trkpt>
      <trkpt lat="45.88684000" lon="11.64230000">
        <ele>906.00000</ele>
        <time>2010-01-01T08:34:02Z</time>
      </trkpt>
      <trkpt lat="45.88624000" lon="11.64260000">
        <ele>896.00000</ele>
        <time>2010-01-01T08:34:27Z</time>
      </trkpt>
      <trkpt lat="45.88564000" lon="11.64247000">
        <ele>894.00000</ele>
        <time>2010-01-01T08:34:51Z</time>
      </trkpt>
      <trkpt lat="45.88537000" lon="11.64247000">
        <ele>894.00000</ele>
        <time>2010-01-01T08:35:02Z</time>
      </trkpt>
      <trkpt lat="45.88437000" lon="11.64291000">
        <ele>885.00000</ele>
        <time>2010-01-01T08:35:44Z</time>
      </trkpt>
      <trkpt lat="45.88320000" lon="11.64278000">
        <ele>871.00000</ele>
        <time>2010-01-01T08:36:31Z</time>
      </trkpt>
      <trkpt lat="45.88293000" lon="11.64260000">
        <ele>872.00000</ele>
        <time>2010-01-01T08:36:43Z</time>
      </trkpt>
      <trkpt lat="45.88266000" lon="11.64217000">
        <ele>887.00000</ele>
        <time>2010-01-01T08:36:59Z</time>
      </trkpt>
      <trkpt lat="45.88236000" lon="11.64235000">
        <ele>869.00000</ele>
        <time>2010-01-01T08:37:12Z</time>
      </trkpt>
      <trkpt lat="45.88218000" lon="11.64247000">
        <ele>859.00000</ele>
        <time>2010-01-01T08:37:20Z</time>
      </trkpt>
      <trkpt lat="45.88188000" lon="11.64247000">
        <ele>853.00000</ele>
        <time>2010-01-01T08:37:32Z</time>
      </trkpt>
      <trkpt lat="45.88076000" lon="11.64195000">
        <ele>849.00000</ele>
        <time>2010-01-01T08:38:19Z</time>
      </trkpt>
      <trkpt lat="45.88034000" lon="11.64195000">
        <ele>833.00000</ele>
        <time>2010-01-01T08:38:36Z</time>
      </trkpt>
      <trkpt lat="45.87992000" lon="11.64161000">
        <ele>839.00000</ele>
        <time>2010-01-01T08:38:55Z</time>
      </trkpt>
      <trkpt lat="45.87965000" lon="11.64157000">
        <ele>838.00000</ele>
        <time>2010-01-01T08:39:06Z</time>
      </trkpt>
      <trkpt lat="45.87922000" lon="11.64169000">
        <ele>825.00000</ele>
        <time>2010-01-01T08:39:24Z</time>
      </trkpt>
      <trkpt lat="45.87920000" lon="11.64187000">
        <ele>815.00000</ele>
        <time>2010-01-01T08:39:29Z</time>
      </trkpt>
      <trkpt lat="45.87955000" lon="11.64178000">
        <ele>824.00000</ele>
        <time>2010-01-01T08:39:43Z</time>
      </trkpt>
      <trkpt lat="45.87992000" lon="11.64187000">
        <ele>824.00000</ele>
        <time>2010-01-01T08:39:58Z</time>
      </trkpt>
      <trkpt lat="45.88019000" lon="11.64243000">
        <ele>801.00000</ele>
        <time>2010-01-01T08:40:17Z</time>
      </trkpt>
      <trkpt lat="45.88085000" lon="11.64252000">
        <ele>822.00000</ele>
        <time>2010-01-01T08:40:44Z</time>
      </trkpt>
      <trkpt lat="45.88099990" lon="11.64278000">
        <ele>810.00000</ele>
        <time>2010-01-01T08:40:53Z</time>
      </trkpt>
      <trkpt lat="45.88151000" lon="11.64304000">
        <ele>814.00000</ele>
        <time>2010-01-01T08:41:15Z</time>
      </trkpt>
      <trkpt lat="45.88193000" lon="11.64304000">
        <ele>823.00000</ele>
        <time>2010-01-01T08:41:31Z</time>
      </trkpt>
      <trkpt lat="45.88221000" lon="11.64308000">
        <ele>823.00000</ele>
        <time>2010-01-01T08:41:43Z</time>
      </trkpt>
      <trkpt lat="45.88233000" lon="11.64334000">
        <ele>809.00000</ele>
        <time>2010-01-01T08:41:51Z</time>
      </trkpt>
      <trkpt lat="45.88230000" lon="11.64364000">
        <ele>816.00000</ele>
        <time>2010-01-01T08:42:00Z</time>
      </trkpt>
      <trkpt lat="45.88158000" lon="11.64429000">
        <ele>796.00000</ele>
        <time>2010-01-01T08:42:34Z</time>
      </trkpt>
      <trkpt lat="45.88097000" lon="11.64438000">
        <ele>781.00000</ele>
        <time>2010-01-01T08:42:58Z</time>
      </trkpt>
      <trkpt lat="45.88058000" lon="11.64455000">
        <ele>771.00000</ele>
        <time>2010-01-01T08:43:15Z</time>
      </trkpt>
      <trkpt lat="45.88000000" lon="11.64494000">
        <ele>756.00000</ele>
        <time>2010-01-01T08:43:40Z</time>
      </trkpt>
      <trkpt lat="45.87985000" lon="11.64520000">
        <ele>760.00000</ele>
        <time>2010-01-01T08:43:50Z</time>
      </trkpt>
      <trkpt lat="45.87965000" lon="11.64550000">
        <ele>763.00000</ele>
        <time>2010-01-01T08:44:01Z</time>
      </trkpt>
      <trkpt lat="45.87943000" lon="11.64577000">
        <ele>762.00000</ele>
        <time>2010-01-01T08:44:13Z</time>
      </trkpt>
      <trkpt lat="45.87932000" lon="11.64623000">
        <ele>779.00000</ele>
        <time>2010-01-01T08:44:26Z</time>
      </trkpt>
      <trkpt lat="45.87877000" lon="11.64646000">
        <ele>761.00000</ele>
        <time>2010-01-01T08:44:49Z</time>
      </trkpt>
      <trkpt lat="45.87826000" lon="11.64693000">
        <ele>764.00000</ele>
        <time>2010-01-01T08:45:14Z</time>
      </trkpt>
      <trkpt lat="45.87802000" lon="11.64680000">
        <ele>751.00000</ele>
        <time>2010-01-01T08:45:24Z</time>
      </trkpt>
      <trkpt lat="45.87768990" lon="11.64667000">
        <ele>737.00000</ele>
        <time>2010-01-01T08:45:38Z</time>
      </trkpt>
      <trkpt lat="45.87721000" lon="11.64688000">
        <ele>726.00000</ele>
        <time>2010-01-01T08:45:58Z</time>
      </trkpt>
      <trkpt lat="45.87721000" lon="11.64687000">
        <ele>726.00000</ele>
        <time>2010-01-01T08:45:58Z</time>
      </trkpt>
      <trkpt lat="45.87721000" lon="11.64688000">
        <ele>726.00000</ele>
        <time>2010-01-01T08:45:58Z</time>
      </trkpt>
      <trkpt lat="45.87712000" lon="11.64693000">
        <ele>724.00000</ele>
        <time>2010-01-01T08:46:02Z</time>
      </trkpt>
      <trkpt lat="45.87694000" lon="11.64762000">
        <ele>744.00000</ele>
        <time>2010-01-01T08:46:23Z</time>
      </trkpt>
      <trkpt lat="45.87660000" lon="11.64805000">
        <ele>747.00000</ele>
        <time>2010-01-01T08:46:41Z</time>
      </trkpt>
      <trkpt lat="45.87621000" lon="11.64792000">
        <ele>722.00000</ele>
        <time>2010-01-01T08:46:57Z</time>
      </trkpt>
      <trkpt lat="45.87599990" lon="11.64805000">
        <ele>719.00000</ele>
        <time>2010-01-01T08:47:06Z</time>
      </trkpt>
      <trkpt lat="45.87582000" lon="11.64866000">
        <ele>738.00000</ele>
        <time>2010-01-01T08:47:24Z</time>
      </trkpt>
      <trkpt lat="45.87557990" lon="11.64871000">
        <ele>725.00000</ele>
        <time>2010-01-01T08:47:34Z</time>
      </trkpt>
      <trkpt lat="45.87513000" lon="11.64900000">
        <ele>708.00000</ele>
        <time>2010-01-01T08:47:54Z</time>
      </trkpt>
      <trkpt lat="45.87495000" lon="11.64965000">
        <ele>730.00000</ele>
        <time>2010-01-01T08:48:13Z</time>
      </trkpt>
      <trkpt lat="45.87479000" lon="11.64974000">
        <ele>725.00000</ele>
        <time>2010-01-01T08:48:20Z</time>
      </trkpt>
      <trkpt lat="45.87510000" lon="11.64874000">
        <ele>697.00000</ele>
        <time>2010-01-01T08:48:51Z</time>
      </trkpt>
      <trkpt lat="45.87567000" lon="11.64831000">
        <ele>716.00000</ele>
        <time>2010-01-01T08:49:17Z</time>
      </trkpt>
      <trkpt lat="45.87591000" lon="11.64775000">
        <ele>698.00000</ele>
        <time>2010-01-01T08:49:35Z</time>
      </trkpt>
      <trkpt lat="45.87582000" lon="11.64771000">
        <ele>690.00000</ele>
        <time>2010-01-01T08:49:39Z</time>
      </trkpt>
      <trkpt lat="45.87563990" lon="11.64818000">
        <ele>706.00000</ele>
        <time>2010-01-01T08:49:54Z</time>
      </trkpt>
      <trkpt lat="45.87537000" lon="11.64823000">
        <ele>692.00000</ele>
        <time>2010-01-01T08:50:05Z</time>
      </trkpt>
      <trkpt lat="45.87479000" lon="11.64862000">
        <ele>676.00000</ele>
        <time>2010-01-01T08:50:30Z</time>
      </trkpt>
      <trkpt lat="45.87471000" lon="11.64888000">
        <ele>682.00000</ele>
        <time>2010-01-01T08:50:38Z</time>
      </trkpt>
      <trkpt lat="45.87462000" lon="11.64914000">
        <ele>688.00000</ele>
        <time>2010-01-01T08:50:46Z</time>
      </trkpt>
      <trkpt lat="45.87389000" lon="11.64952000">
        <ele>669.00000</ele>
        <time>2010-01-01T08:51:17Z</time>
      </trkpt>
      <trkpt lat="45.87374000" lon="11.64979000">
        <ele>673.00000</ele>
        <time>2010-01-01T08:51:27Z</time>
      </trkpt>
      <trkpt lat="45.87332000" lon="11.65009000">
        <ele>661.00000</ele>
        <time>2010-01-01T08:51:46Z</time>
      </trkpt>
      <trkpt lat="45.87320000" lon="11.65031000">
        <ele>657.00000</ele>
        <time>2010-01-01T08:51:53Z</time>
      </trkpt>
      <trkpt lat="45.87317000" lon="11.65091000">
        <ele>668.00000</ele>
        <time>2010-01-01T08:52:10Z</time>
      </trkpt>
      <trkpt lat="45.87305000" lon="11.65113000">
        <ele>670.00000</ele>
        <time>2010-01-01T08:52:18Z</time>
      </trkpt>
      <trkpt lat="45.87260000" lon="11.65117000">
        <ele>648.00000</ele>
        <time>2010-01-01T08:52:36Z</time>
      </trkpt>
      <trkpt lat="45.87160990" lon="11.65234000">
        <ele>632.00000</ele>
        <time>2010-01-01T08:53:27Z</time>
      </trkpt>
      <trkpt lat="45.87133000" lon="11.65251000">
        <ele>633.00000</ele>
        <time>2010-01-01T08:53:40Z</time>
      </trkpt>
      <trkpt lat="45.87151000" lon="11.65229000">
        <ele>631.00000</ele>
        <time>2010-01-01T08:53:49Z</time>
      </trkpt>
      <trkpt lat="45.87224000" lon="11.65077000">
        <ele>620.00000</ele>
        <time>2010-01-01T08:54:40Z</time>
      </trkpt>
      <trkpt lat="45.87266000" lon="11.65052000">
        <ele>632.00000</ele>
        <time>2010-01-01T08:54:59Z</time>
      </trkpt>
      <trkpt lat="45.87263000" lon="11.64957000">
        <ele>609.00000</ele>
        <time>2010-01-01T08:55:25Z</time>
      </trkpt>
      <trkpt lat="45.87272000" lon="11.64931000">
        <ele>607.00000</ele>
        <time>2010-01-01T08:55:33Z</time>
      </trkpt>
      <trkpt lat="45.87329000" lon="11.64892000">
        <ele>619.00000</ele>
        <time>2010-01-01T08:55:59Z</time>
      </trkpt>
      <trkpt lat="45.87346990" lon="11.64866000">
        <ele>613.00000</ele>
        <time>2010-01-01T08:56:09Z</time>
      </trkpt>
      <trkpt lat="45.87389000" lon="11.64831000">
        <ele>619.00000</ele>
        <time>2010-01-01T08:56:28Z</time>
      </trkpt>
      <trkpt lat="45.87401000" lon="11.64801000">
        <ele>611.00000</ele>
        <time>2010-01-01T08:56:38Z</time>
      </trkpt>
      <trkpt lat="45.87396000" lon="11.64783000">
        <ele>599.00000</ele>
        <time>2010-01-01T08:56:43Z</time>
      </trkpt>
      <trkpt lat="45.87381000" lon="11.64827000">
        <ele>613.00000</ele>
        <time>2010-01-01T08:56:57Z</time>
      </trkpt>
      <trkpt lat="45.87356000" lon="11.64836000">
        <ele>603.00000</ele>
        <time>2010-01-01T08:57:07Z</time>
      </trkpt>
      <trkpt lat="45.87317000" lon="11.64871000">
        <ele>604.00000</ele>
        <time>2010-01-01T08:57:26Z</time>
      </trkpt>
      <trkpt lat="45.87251000" lon="11.64892000">
        <ele>587.00000</ele>
        <time>2010-01-01T08:57:53Z</time>
      </trkpt>
      <trkpt lat="45.87218000" lon="11.64935000">
        <ele>582.00000</ele>
        <time>2010-01-01T08:58:11Z</time>
      </trkpt>
      <trkpt lat="45.87209000" lon="11.64987000">
        <ele>588.00000</ele>
        <time>2010-01-01T08:58:25Z</time>
      </trkpt>
      <trkpt lat="45.87173000" lon="11.65022000">
        <ele>581.00000</ele>
        <time>2010-01-01T08:58:43Z</time>
      </trkpt>
      <trkpt lat="45.87128000" lon="11.65082000">
        <ele>583.00000</ele>
        <time>2010-01-01T08:59:07Z</time>
      </trkpt>
      <trkpt lat="45.87064000" lon="11.65125000">
        <ele>577.00000</ele>
        <time>2010-01-01T08:59:36Z</time>
      </trkpt>
      <trkpt lat="45.87018990" lon="11.65134000">
        <ele>572.00000</ele>
        <time>2010-01-01T08:59:54Z</time>
      </trkpt>
      <trkpt lat="45.87016000" lon="11.65125000">
        <ele>568.00000</ele>
        <time>2010-01-01T08:59:57Z</time>
      </trkpt>
      <trkpt lat="45.87043000" lon="11.65117000">
        <ele>570.00000</ele>
        <time>2010-01-01T09:00:08Z</time>
      </trkpt>
      <trkpt lat="45.87100000" lon="11.65065000">
        <ele>565.00000</ele>
        <time>2010-01-01T09:00:35Z</time>
      </trkpt>
      <trkpt lat="45.87154990" lon="11.64965000">
        <ele>558.00000</ele>
        <time>2010-01-01T09:01:10Z</time>
      </trkpt>
      <trkpt lat="45.87178000" lon="11.64862000">
        <ele>548.00000</ele>
        <time>2010-01-01T09:01:40Z</time>
      </trkpt>
      <trkpt lat="45.87173000" lon="11.64853000">
        <ele>544.00000</ele>
        <time>2010-01-01T09:01:44Z</time>
      </trkpt>
      <trkpt lat="45.87158000" lon="11.64883000">
        <ele>542.00000</ele>
        <time>2010-01-01T09:01:54Z</time>
      </trkpt>
      <trkpt lat="45.87143000" lon="11.64957000">
        <ele>551.00000</ele>
        <time>2010-01-01T09:02:15Z</time>
      </trkpt>
      <trkpt lat="45.87115000" lon="11.64974000">
        <ele>544.00000</ele>
        <time>2010-01-01T09:02:28Z</time>
      </trkpt>
      <trkpt lat="45.87043000" lon="11.65052000">
        <ele>545.00000</ele>
        <time>2010-01-01T09:03:04Z</time>
      </trkpt>
      <trkpt lat="45.87034000" lon="11.65052000">
        <ele>543.00000</ele>
        <time>2010-01-01T09:03:07Z</time>
      </trkpt>
      <trkpt lat="45.87115000" lon="11.64948000">
        <ele>537.00000</ele>
        <time>2010-01-01T09:03:51Z</time>
      </trkpt>
      <trkpt lat="45.87136000" lon="11.64857000">
        <ele>525.00000</ele>
        <time>2010-01-01T09:04:17Z</time>
      </trkpt>
      <trkpt lat="45.87131000" lon="11.64849000">
        <ele>520.00000</ele>
        <time>2010-01-01T09:04:20Z</time>
      </trkpt>
      <trkpt lat="45.87113000" lon="11.64914000">
        <ele>527.00000</ele>
        <time>2010-01-01T09:04:40Z</time>
      </trkpt>
      <trkpt lat="45.87031000" lon="11.64983000">
        <ele>515.00000</ele>
        <time>2010-01-01T09:05:18Z</time>
      </trkpt>
      <trkpt lat="45.86910000" lon="11.65022000">
        <ele>498.00000</ele>
        <time>2010-01-01T09:06:08Z</time>
      </trkpt>
      <trkpt lat="45.86907990" lon="11.65009000">
        <ele>493.00000</ele>
        <time>2010-01-01T09:06:11Z</time>
      </trkpt>
      <trkpt lat="45.86971000" lon="11.64974000">
        <ele>496.00000</ele>
        <time>2010-01-01T09:06:38Z</time>
      </trkpt>
      <trkpt lat="45.87073000" lon="11.64888000">
        <ele>501.00000</ele>
        <time>2010-01-01T09:07:26Z</time>
      </trkpt>
      <trkpt lat="45.87073000" lon="11.64805000">
        <ele>472.00000</ele>
        <time>2010-01-01T09:07:49Z</time>
      </trkpt>
      <trkpt lat="45.87115000" lon="11.64780000">
        <ele>484.00000</ele>
        <time>2010-01-01T09:08:07Z</time>
      </trkpt>
      <trkpt lat="45.87154990" lon="11.64702000">
        <ele>463.00000</ele>
        <time>2010-01-01T09:08:34Z</time>
      </trkpt>
      <trkpt lat="45.87170000" lon="11.64693000">
        <ele>465.00000</ele>
        <time>2010-01-01T09:08:41Z</time>
      </trkpt>
      <trkpt lat="45.87242000" lon="11.64693000">
        <ele>489.00000</ele>
        <time>2010-01-01T09:09:09Z</time>
      </trkpt>
      <trkpt lat="45.87242000" lon="11.64680000">
        <ele>481.00000</ele>
        <time>2010-01-01T09:09:13Z</time>
      </trkpt>
      <trkpt lat="45.87154990" lon="11.64675000">
        <ele>447.00000</ele>
        <time>2010-01-01T09:09:48Z</time>
      </trkpt>
      <trkpt lat="45.87103000" lon="11.64749000">
        <ele>465.00000</ele>
        <time>2010-01-01T09:10:17Z</time>
      </trkpt>
      <trkpt lat="45.87052000" lon="11.64766000">
        <ele>443.00000</ele>
        <time>2010-01-01T09:10:38Z</time>
      </trkpt>
      <trkpt lat="45.87025000" lon="11.64831000">
        <ele>456.00000</ele>
        <time>2010-01-01T09:10:59Z</time>
      </trkpt>
      <trkpt lat="45.87007000" lon="11.64857000">
        <ele>459.00000</ele>
        <time>2010-01-01T09:11:09Z</time>
      </trkpt>
      <trkpt lat="45.86928000" lon="11.64871000">
        <ele>446.00000</ele>
        <time>2010-01-01T09:11:41Z</time>
      </trkpt>
      <trkpt lat="45.86868000" lon="11.64918000">
        <ele>439.00000</ele>
        <time>2010-01-01T09:12:09Z</time>
      </trkpt>
      <trkpt lat="45.86829990" lon="11.64965000">
        <ele>431.00000</ele>
        <time>2010-01-01T09:12:29Z</time>
      </trkpt>
      <trkpt lat="45.86820000" lon="11.65013000">
        <ele>435.00000</ele>
        <time>2010-01-01T09:12:43Z</time>
      </trkpt>
      <trkpt lat="45.86814000" lon="11.65009000">
        <ele>430.00000</ele>
        <time>2010-01-01T09:12:45Z</time>
      </trkpt>
      <trkpt lat="45.86829990" lon="11.64948000">
        <ele>426.00000</ele>
        <time>2010-01-01T09:13:04Z</time>
      </trkpt>
      <trkpt lat="45.86905000" lon="11.64836000">
        <ele>420.00000</ele>
        <time>2010-01-01T09:13:47Z</time>
      </trkpt>
      <trkpt lat="45.86932000" lon="11.64818000">
        <ele>422.00000</ele>
        <time>2010-01-01T09:13:59Z</time>
      </trkpt>
      <trkpt lat="45.86962000" lon="11.64823000">
        <ele>431.00000</ele>
        <time>2010-01-01T09:14:11Z</time>
      </trkpt>
      <trkpt lat="45.86968000" lon="11.64809000">
        <ele>425.00000</ele>
        <time>2010-01-01T09:14:15Z</time>
      </trkpt>
      <trkpt lat="45.86913000" lon="11.64809000">
        <ele>412.00000</ele>
        <time>2010-01-01T09:14:37Z</time>
      </trkpt>
      <trkpt lat="45.86862000" lon="11.64853000">
        <ele>404.00000</ele>
        <time>2010-01-01T09:15:01Z</time>
      </trkpt>
      <trkpt lat="45.86790000" lon="11.64935000">
        <ele>387.00000</ele>
        <time>2010-01-01T09:15:38Z</time>
      </trkpt>
      <trkpt lat="45.86781000" lon="11.64979000">
        <ele>395.00000</ele>
        <time>2010-01-01T09:15:51Z</time>
      </trkpt>
      <trkpt lat="45.86757000" lon="11.65000000">
        <ele>383.00000</ele>
        <time>2010-01-01T09:16:02Z</time>
      </trkpt>
      <trkpt lat="45.86778000" lon="11.64935000">
        <ele>376.00000</ele>
        <time>2010-01-01T09:16:22Z</time>
      </trkpt>
      <trkpt lat="45.86826000" lon="11.64845000">
        <ele>377.00000</ele>
        <time>2010-01-01T09:16:54Z</time>
      </trkpt>
      <trkpt lat="45.86850000" lon="11.64783000">
        <ele>370.00000</ele>
        <time>2010-01-01T09:17:13Z</time>
      </trkpt>
      <trkpt lat="45.86871000" lon="11.64754000">
        <ele>368.00000</ele>
        <time>2010-01-01T09:17:25Z</time>
      </trkpt>
      <trkpt lat="45.86943000" lon="11.64745000">
        <ele>387.00000</ele>
        <time>2010-01-01T09:17:54Z</time>
      </trkpt>
      <trkpt lat="45.86947000" lon="11.64728000">
        <ele>378.00000</ele>
        <time>2010-01-01T09:17:59Z</time>
      </trkpt>
      <trkpt lat="45.86847000" lon="11.64737000">
        <ele>345.00000</ele>
        <time>2010-01-01T09:18:39Z</time>
      </trkpt>
      <trkpt lat="45.86751000" lon="11.64883000">
        <ele>333.00000</ele>
        <time>2010-01-01T09:19:35Z</time>
      </trkpt>
      <trkpt lat="45.86742000" lon="11.64914000">
        <ele>335.00000</ele>
        <time>2010-01-01T09:19:44Z</time>
      </trkpt>
      <trkpt lat="45.86712000" lon="11.64948000">
        <ele>324.00000</ele>
        <time>2010-01-01T09:20:00Z</time>
      </trkpt>
      <trkpt lat="45.86706000" lon="11.64961000">
        <ele>326.00000</ele>
        <time>2010-01-01T09:20:04Z</time>
      </trkpt>
      <trkpt lat="45.86706000" lon="11.64965000">
        <ele>328.00000</ele>
        <time>2010-01-01T09:20:05Z</time>
      </trkpt>
      <trkpt lat="45.86700000" lon="11.65022000">
        <ele>351.00000</ele>
        <time>2010-01-01T09:20:21Z</time>
      </trkpt>
      <trkpt lat="45.86651990" lon="11.65034000">
        <ele>327.00000</ele>
        <time>2010-01-01T09:20:41Z</time>
      </trkpt>
      <trkpt lat="45.86615000" lon="11.65077000">
        <ele>330.00000</ele>
        <time>2010-01-01T09:21:00Z</time>
      </trkpt>
      <trkpt lat="45.86543000" lon="11.65113000">
        <ele>318.00000</ele>
        <time>2010-01-01T09:21:30Z</time>
      </trkpt>
      <trkpt lat="45.86528000" lon="11.65151000">
        <ele>335.00000</ele>
        <time>2010-01-01T09:21:43Z</time>
      </trkpt>
      <trkpt lat="45.86504000" lon="11.65151000">
        <ele>327.00000</ele>
        <time>2010-01-01T09:21:52Z</time>
      </trkpt>
      <trkpt lat="45.86480000" lon="11.65168000">
        <ele>324.00000</ele>
        <time>2010-01-01T09:22:03Z</time>
      </trkpt>
      <trkpt lat="45.86462000" lon="11.65168000">
        <ele>315.00000</ele>
        <time>2010-01-01T09:22:10Z</time>
      </trkpt>
      <trkpt lat="45.86440990" lon="11.65199000">
        <ele>315.00000</ele>
        <time>2010-01-01T09:22:22Z</time>
      </trkpt>
      <trkpt lat="45.86396000" lon="11.65234000">
        <ele>302.00000</ele>
        <time>2010-01-01T09:22:43Z</time>
      </trkpt>
      <trkpt lat="45.86389000" lon="11.65225000">
        <ele>293.00000</ele>
        <time>2010-01-01T09:22:46Z</time>
      </trkpt>
      <trkpt lat="45.86417000" lon="11.65199000">
        <ele>302.00000</ele>
        <time>2010-01-01T09:23:00Z</time>
      </trkpt>
      <trkpt lat="45.86438000" lon="11.65165000">
        <ele>300.00000</ele>
        <time>2010-01-01T09:23:12Z</time>
      </trkpt>
      <trkpt lat="45.86468000" lon="11.65143000">
        <ele>303.00000</ele>
        <time>2010-01-01T09:23:26Z</time>
      </trkpt>
      <trkpt lat="45.86501000" lon="11.65130000">
        <ele>312.00000</ele>
        <time>2010-01-01T09:23:40Z</time>
      </trkpt>
      <trkpt lat="45.86522000" lon="11.65086000">
        <ele>294.00000</ele>
        <time>2010-01-01T09:23:54Z</time>
      </trkpt>
      <trkpt lat="45.86579000" lon="11.65060000">
        <ele>299.00000</ele>
        <time>2010-01-01T09:24:18Z</time>
      </trkpt>
      <trkpt lat="45.86625000" lon="11.64991000">
        <ele>284.00000</ele>
        <time>2010-01-01T09:24:45Z</time>
      </trkpt>
      <trkpt lat="45.86655000" lon="11.64974000">
        <ele>294.00000</ele>
        <time>2010-01-01T09:24:58Z</time>
      </trkpt>
      <trkpt lat="45.86655000" lon="11.64922000">
        <ele>264.00000</ele>
        <time>2010-01-01T09:25:12Z</time>
      </trkpt>
      <trkpt lat="45.86703000" lon="11.64866000">
        <ele>283.00000</ele>
        <time>2010-01-01T09:25:37Z</time>
      </trkpt>
      <trkpt lat="45.86706000" lon="11.64849000">
        <ele>279.00000</ele>
        <time>2010-01-01T09:25:42Z</time>
      </trkpt>
      <trkpt lat="45.86709000" lon="11.64840000">
        <ele>279.00000</ele>
        <time>2010-01-01T09:25:45Z</time>
      </trkpt>
      <trkpt lat="45.86727000" lon="11.64797000">
        <ele>281.00000</ele>
        <time>2010-01-01T09:25:59Z</time>
      </trkpt>
      <trkpt lat="45.86733000" lon="11.64693000">
        <ele>251.00000</ele>
        <time>2010-01-01T09:26:28Z</time>
      </trkpt>
      <trkpt lat="45.86727000" lon="11.64693000">
        <ele>249.00000</ele>
        <time>2010-01-01T09:26:30Z</time>
      </trkpt>
      <trkpt lat="45.86721000" lon="11.64728000">
        <ele>256.00000</ele>
        <time>2010-01-01T09:26:40Z</time>
      </trkpt>
      <trkpt lat="45.86706000" lon="11.64809000">
        <ele>268.00000</ele>
        <time>2010-01-01T09:27:04Z</time>
      </trkpt>
      <trkpt lat="45.86700000" lon="11.64836000">
        <ele>269.00000</ele>
        <time>2010-01-01T09:27:12Z</time>
      </trkpt>
      <trkpt lat="45.86685000" lon="11.64871000">
        <ele>268.00000</ele>
        <time>2010-01-01T09:27:23Z</time>
      </trkpt>
      <trkpt lat="45.86651990" lon="11.64892000">
        <ele>252.00000</ele>
        <time>2010-01-01T09:27:38Z</time>
      </trkpt>
      <trkpt lat="45.86630000" lon="11.64940000">
        <ele>259.00000</ele>
        <time>2010-01-01T09:27:54Z</time>
      </trkpt>
      <trkpt lat="45.86603000" lon="11.64961000">
        <ele>254.00000</ele>
        <time>2010-01-01T09:28:06Z</time>
      </trkpt>
      <trkpt lat="45.86588000" lon="11.64996000">
        <ele>261.00000</ele>
        <time>2010-01-01T09:28:17Z</time>
      </trkpt>
      <trkpt lat="45.86577000" lon="11.65000000">
        <ele>258.00000</ele>
        <time>2010-01-01T09:28:22Z</time>
      </trkpt>
      <trkpt lat="45.86625000" lon="11.64892000">
        <ele>241.00000</ele>
        <time>2010-01-01T09:28:58Z</time>
      </trkpt>
      <trkpt lat="45.86657000" lon="11.64840000">
        <ele>239.00000</ele>
        <time>2010-01-01T09:29:17Z</time>
      </trkpt>
      <trkpt lat="45.86682000" lon="11.64758000">
        <ele>238.00000</ele>
        <time>2010-01-01T09:29:42Z</time>
      </trkpt>
      <trkpt lat="45.86682000" lon="11.64658000">
        <ele>233.00000</ele>
        <time>2010-01-01T09:30:10Z</time>
      </trkpt>
      <trkpt lat="45.86660000" lon="11.64680000">
        <ele>233.00000</ele>
        <time>2010-01-01T09:30:20Z</time>
      </trkpt>
      <trkpt lat="45.86645000" lon="11.64702000">
        <ele>241.00000</ele>
        <time>2010-01-01T09:30:29Z</time>
      </trkpt>
      <trkpt lat="45.86637000" lon="11.64723000">
        <ele>243.00000</ele>
        <time>2010-01-01T09:30:36Z</time>
      </trkpt>
      <trkpt lat="45.86615000" lon="11.64783000">
        <ele>245.00000</ele>
        <time>2010-01-01T09:30:55Z</time>
      </trkpt>
      <trkpt lat="45.86531000" lon="11.64922000">
        <ele>235.00000</ele>
        <time>2010-01-01T09:31:46Z</time>
      </trkpt>
      <trkpt lat="45.86407000" lon="11.64961000">
        <ele>245.00000</ele>
        <time>2010-01-01T09:32:37Z</time>
      </trkpt>
      <trkpt lat="45.86284000" lon="11.65130000">
        <ele>224.00000</ele>
        <time>2010-01-01T09:33:45Z</time>
      </trkpt>
      <trkpt lat="45.86203000" lon="11.65212000">
        <ele>216.00000</ele>
        <time>2010-01-01T09:34:25Z</time>
      </trkpt>
      <trkpt lat="45.86176000" lon="11.65277000">
        <ele>200.00000</ele>
        <time>2010-01-01T09:34:46Z</time>
      </trkpt>
      <trkpt lat="45.86145990" lon="11.65445000">
        <ele>200.00000</ele>
        <time>2010-01-01T09:35:34Z</time>
      </trkpt>
      <trkpt lat="45.86121000" lon="11.65485000">
        <ele>202.00000</ele>
        <time>2010-01-01T09:35:49Z</time>
      </trkpt>
      <trkpt lat="45.86115990" lon="11.65506000">
        <ele>201.00000</ele>
        <time>2010-01-01T09:35:55Z</time>
      </trkpt>
      <trkpt lat="45.86109000" lon="11.65536000">
        <ele>196.00000</ele>
        <time>2010-01-01T09:36:04Z</time>
      </trkpt>
      <trkpt lat="45.86094000" lon="11.65579000">
        <ele>185.00000</ele>
        <time>2010-01-01T09:36:17Z</time>
      </trkpt>
      <trkpt lat="45.86055000" lon="11.65614000">
        <ele>183.00000</ele>
        <time>2010-01-01T09:36:36Z</time>
      </trkpt>
      <trkpt lat="45.86007000" lon="11.65649000">
        <ele>177.00000</ele>
        <time>2010-01-01T09:36:57Z</time>
      </trkpt>
      <trkpt lat="45.85956000" lon="11.65684000">
        <ele>189.00000</ele>
        <time>2010-01-01T09:37:20Z</time>
      </trkpt>
      <trkpt lat="45.85940990" lon="11.65718000">
        <ele>183.00000</ele>
        <time>2010-01-01T09:37:31Z</time>
      </trkpt>
      <trkpt lat="45.85926000" lon="11.65757000">
        <ele>172.00000</ele>
        <time>2010-01-01T09:37:44Z</time>
      </trkpt>
      <trkpt lat="45.85911000" lon="11.65774000">
        <ele>170.00000</ele>
        <time>2010-01-01T09:37:51Z</time>
      </trkpt>
      <trkpt lat="45.85853000" lon="11.65791000">
        <ele>176.00000</ele>
        <time>2010-01-01T09:38:15Z</time>
      </trkpt>
      <trkpt lat="45.85853000" lon="11.65804000">
        <ele>171.00000</ele>
        <time>2010-01-01T09:38:19Z</time>
      </trkpt>
      <trkpt lat="45.85920000" lon="11.65783000">
        <ele>165.00000</ele>
        <time>2010-01-01T09:38:46Z</time>
      </trkpt>
      <trkpt lat="45.85940990" lon="11.65757000">
        <ele>169.00000</ele>
        <time>2010-01-01T09:38:57Z</time>
      </trkpt>
      <trkpt lat="45.85992000" lon="11.65688000">
        <ele>170.00000</ele>
        <time>2010-01-01T09:39:25Z</time>
      </trkpt>
      <trkpt lat="45.86012990" lon="11.65701000">
        <ele>165.00000</ele>
        <time>2010-01-01T09:39:34Z</time>
      </trkpt>
      <trkpt lat="45.86040000" lon="11.65744000">
        <ele>163.00000</ele>
        <time>2010-01-01T09:39:51Z</time>
      </trkpt>
      <trkpt lat="45.86046000" lon="11.65774000">
        <ele>159.00000</ele>
        <time>2010-01-01T09:39:59Z</time>
      </trkpt>
      <trkpt lat="45.86046000" lon="11.65787000">
        <ele>157.00000</ele>
        <time>2010-01-01T09:40:03Z</time>
      </trkpt>
      <trkpt lat="45.86037000" lon="11.65830000">
        <ele>151.00000</ele>
        <time>2010-01-01T09:40:15Z</time>
      </trkpt>
      <trkpt lat="45.86025000" lon="11.65835000">
        <ele>150.00000</ele>
        <time>2010-01-01T09:40:20Z</time>
      </trkpt>
      <trkpt lat="45.86001000" lon="11.65835000">
        <ele>148.00000</ele>
        <time>2010-01-01T09:40:30Z</time>
      </trkpt>
      <trkpt lat="45.85940990" lon="11.65839000">
        <ele>150.00000</ele>
        <time>2010-01-01T09:40:54Z</time>
      </trkpt>
      <trkpt lat="45.85934990" lon="11.65839000">
        <ele>150.00000</ele>
        <time>2010-01-01T09:40:56Z</time>
      </trkpt>
      <trkpt lat="45.85823000" lon="11.65865000">
        <ele>158.00000</ele>
        <time>2010-01-01T09:41:42Z</time>
      </trkpt>
      <trkpt lat="45.85727000" lon="11.65908000">
        <ele>160.00000</ele>
        <time>2010-01-01T09:42:22Z</time>
      </trkpt>
      <trkpt lat="45.85739000" lon="11.65947000">
        <ele>152.00000</ele>
        <time>2010-01-01T09:42:34Z</time>
      </trkpt>
      <trkpt lat="45.85757000" lon="11.66008000">
        <ele>150.00000</ele>
        <time>2010-01-01T09:42:52Z</time>
      </trkpt>
      <trkpt lat="45.85784000" lon="11.66030000">
        <ele>152.00000</ele>
        <time>2010-01-01T09:43:05Z</time>
      </trkpt>
      <trkpt lat="45.85802000" lon="11.66068000">
        <ele>153.00000</ele>
        <time>2010-01-01T09:43:18Z</time>
      </trkpt>
      <trkpt lat="45.85808000" lon="11.66081000">
        <ele>153.00000</ele>
        <time>2010-01-01T09:43:22Z</time>
      </trkpt>
      <trkpt lat="45.85820000" lon="11.66112000">
        <ele>154.00000</ele>
        <time>2010-01-01T09:43:32Z</time>
      </trkpt>
      <trkpt lat="45.85733000" lon="11.66193000">
        <ele>157.00000</ele>
        <time>2010-01-01T09:44:13Z</time>
      </trkpt>
      <trkpt lat="45.85700000" lon="11.66233000">
        <ele>157.00000</ele>
        <time>2010-01-01T09:44:31Z</time>
      </trkpt>
      <trkpt lat="45.85603000" lon="11.66372000">
        <ele>151.00000</ele>
        <time>2010-01-01T09:45:26Z</time>
      </trkpt>
      <trkpt lat="45.85581990" lon="11.66397000">
        <ele>149.00000</ele>
        <time>2010-01-01T09:45:36Z</time>
      </trkpt>
      <trkpt lat="45.85410000" lon="11.66527000">
        <ele>146.00000</ele>
        <time>2010-01-01T09:46:54Z</time>
      </trkpt>
      <trkpt lat="45.85326000" lon="11.66631000">
        <ele>146.00000</ele>
        <time>2010-01-01T09:47:39Z</time>
      </trkpt>
      <trkpt lat="45.85256990" lon="11.66730000">
        <ele>147.00000</ele>
        <time>2010-01-01T09:48:18Z</time>
      </trkpt>
      <trkpt lat="45.85242000" lon="11.66747000">
        <ele>147.00000</ele>
        <time>2010-01-01T09:48:25Z</time>
      </trkpt>
      <trkpt lat="45.85209000" lon="11.66782000">
        <ele>151.00000</ele>
        <time>2010-01-01T09:48:42Z</time>
      </trkpt>
      <trkpt lat="45.85175000" lon="11.66808000">
        <ele>148.00000</ele>
        <time>2010-01-01T09:48:57Z</time>
      </trkpt>
      <trkpt lat="45.85127000" lon="11.66847000">
        <ele>146.00000</ele>
        <time>2010-01-01T09:49:19Z</time>
      </trkpt>
      <trkpt lat="45.84989000" lon="11.66934000">
        <ele>150.00000</ele>
        <time>2010-01-01T09:50:20Z</time>
      </trkpt>
      <trkpt lat="45.84925990" lon="11.66981000">
        <ele>150.00000</ele>
        <time>2010-01-01T09:50:48Z</time>
      </trkpt>
      <trkpt lat="45.84790000" lon="11.67115000">
        <ele>147.00000</ele>
        <time>2010-01-01T09:51:54Z</time>
      </trkpt>
      <trkpt lat="45.84742000" lon="11.67158000">
        <ele>146.00000</ele>
        <time>2010-01-01T09:52:17Z</time>
      </trkpt>
      <trkpt lat="45.84657000" lon="11.67254000">
        <ele>140.00000</ele>
        <time>2010-01-01T09:53:00Z</time>
      </trkpt>
      <trkpt lat="45.84612000" lon="11.67379000">
        <ele>147.00000</ele>
        <time>2010-01-01T09:53:39Z</time>
      </trkpt>
      <trkpt lat="45.84570000" lon="11.67431000">
        <ele>144.00000</ele>
        <time>2010-01-01T09:54:01Z</time>
      </trkpt>
      <trkpt lat="45.84471000" lon="11.67560000">
        <ele>147.00000</ele>
        <time>2010-01-01T09:54:55Z</time>
      </trkpt>
      <trkpt lat="45.84411000" lon="11.67694000">
        <ele>142.00000</ele>
        <time>2010-01-01T09:55:39Z</time>
      </trkpt>
      <trkpt lat="45.84344000" lon="11.67846000">
        <ele>144.00000</ele>
        <time>2010-01-01T09:56:30Z</time>
      </trkpt>
      <trkpt lat="45.84335000" lon="11.67868000">
        <ele>144.00000</ele>
        <time>2010-01-01T09:56:37Z</time>
      </trkpt>
      <trkpt lat="45.84320000" lon="11.67898000">
        <ele>143.00000</ele>
        <time>2010-01-01T09:56:47Z</time>
      </trkpt>
      <trkpt lat="45.84256000" lon="11.68036000">
        <ele>139.00000</ele>
        <time>2010-01-01T09:57:33Z</time>
      </trkpt>
      <trkpt lat="45.84233000" lon="11.68123000">
        <ele>142.00000</ele>
        <time>2010-01-01T09:57:59Z</time>
      </trkpt>
      <trkpt lat="45.84160000" lon="11.68391000">
        <ele>145.00000</ele>
        <time>2010-01-01T09:59:19Z</time>
      </trkpt>
      <trkpt lat="45.84097000" lon="11.68555000">
        <ele>141.00000</ele>
        <time>2010-01-01T10:00:12Z</time>
      </trkpt>
      <trkpt lat="45.83991000" lon="11.68758000">
        <ele>147.00000</ele>
        <time>2010-01-01T10:01:22Z</time>
      </trkpt>
      <trkpt lat="45.83916000" lon="11.68901000">
        <ele>149.00000</ele>
        <time>2010-01-01T10:02:12Z</time>
      </trkpt>
      <trkpt lat="45.83892000" lon="11.68945000">
        <ele>145.00000</ele>
        <time>2010-01-01T10:02:28Z</time>
      </trkpt>
      <trkpt lat="45.83853000" lon="11.69023000">
        <ele>140.00000</ele>
        <time>2010-01-01T10:02:55Z</time>
      </trkpt>
      <trkpt lat="45.83835000" lon="11.69057000">
        <ele>140.00000</ele>
        <time>2010-01-01T10:03:07Z</time>
      </trkpt>
      <trkpt lat="45.83787000" lon="11.69143000">
        <ele>140.00000</ele>
        <time>2010-01-01T10:03:37Z</time>
      </trkpt>
      <trkpt lat="45.83684000" lon="11.69278000">
        <ele>138.00000</ele>
        <time>2010-01-01T10:04:33Z</time>
      </trkpt>
      <trkpt lat="45.83645000" lon="11.69321000">
        <ele>137.00000</ele>
        <time>2010-01-01T10:04:53Z</time>
      </trkpt>
      <trkpt lat="45.83636000" lon="11.69334000">
        <ele>136.00000</ele>
        <time>2010-01-01T10:04:58Z</time>
      </trkpt>
      <trkpt lat="45.83606000" lon="11.69369000">
        <ele>135.00000</ele>
        <time>2010-01-01T10:05:13Z</time>
      </trkpt>
      <trkpt lat="45.83392000" lon="11.69632000">
        <ele>136.00000</ele>
        <time>2010-01-01T10:07:06Z</time>
      </trkpt>
      <trkpt lat="45.83280000" lon="11.69793000">
        <ele>138.00000</ele>
        <time>2010-01-01T10:08:10Z</time>
      </trkpt>
      <trkpt lat="45.83193000" lon="11.70043000">
        <ele>138.00000</ele>
        <time>2010-01-01T10:09:28Z</time>
      </trkpt>
      <trkpt lat="45.83178000" lon="11.70078000">
        <ele>138.00000</ele>
        <time>2010-01-01T10:09:39Z</time>
      </trkpt>
      <trkpt lat="45.83141990" lon="11.70147000">
        <ele>138.00000</ele>
        <time>2010-01-01T10:10:03Z</time>
      </trkpt>
      <trkpt lat="45.83072000" lon="11.70225000">
        <ele>133.00000</ele>
        <time>2010-01-01T10:10:39Z</time>
      </trkpt>
      <trkpt lat="45.82879000" lon="11.70376000">
        <ele>133.00000</ele>
        <time>2010-01-01T10:12:07Z</time>
      </trkpt>
      <trkpt lat="45.82804000" lon="11.70436000">
        <ele>135.00000</ele>
        <time>2010-01-01T10:12:41Z</time>
      </trkpt>
      <trkpt lat="45.82647000" lon="11.70558000">
        <ele>132.00000</ele>
        <time>2010-01-01T10:13:52Z</time>
      </trkpt>
      <trkpt lat="45.82587000" lon="11.70623000">
        <ele>136.00000</ele>
        <time>2010-01-01T10:14:22Z</time>
      </trkpt>
      <trkpt lat="45.82533000" lon="11.70718000">
        <ele>137.00000</ele>
        <time>2010-01-01T10:14:57Z</time>
      </trkpt>
      <trkpt lat="45.82479000" lon="11.70809000">
        <ele>131.00000</ele>
        <time>2010-01-01T10:15:30Z</time>
      </trkpt>
      <trkpt lat="45.82402990" lon="11.70947000">
        <ele>133.00000</ele>
        <time>2010-01-01T10:16:19Z</time>
      </trkpt>
      <trkpt lat="45.82349000" lon="11.71012000">
        <ele>135.00000</ele>
        <time>2010-01-01T10:16:47Z</time>
      </trkpt>
      <trkpt lat="45.82271000" lon="11.71090000">
        <ele>131.00000</ele>
        <time>2010-01-01T10:17:25Z</time>
      </trkpt>
      <trkpt lat="45.82216000" lon="11.71142000">
        <ele>132.00000</ele>
        <time>2010-01-01T10:17:52Z</time>
      </trkpt>
      <trkpt lat="45.82196000" lon="11.71163000">
        <ele>132.00000</ele>
        <time>2010-01-01T10:18:02Z</time>
      </trkpt>
      <trkpt lat="45.82113990" lon="11.71237000">
        <ele>131.00000</ele>
        <time>2010-01-01T10:18:40Z</time>
      </trkpt>
      <trkpt lat="45.82023000" lon="11.71323000">
        <ele>132.00000</ele>
        <time>2010-01-01T10:19:24Z</time>
      </trkpt>
      <trkpt lat="45.81987000" lon="11.71358000">
        <ele>132.00000</ele>
        <time>2010-01-01T10:19:41Z</time>
      </trkpt>
      <trkpt lat="45.81885000" lon="11.71462000">
        <ele>127.00000</ele>
        <time>2010-01-01T10:20:32Z</time>
      </trkpt>
      <trkpt lat="45.81858000" lon="11.71492000">
        <ele>127.00000</ele>
        <time>2010-01-01T10:20:45Z</time>
      </trkpt>
      <trkpt lat="45.81791000" lon="11.71562000">
        <ele>127.00000</ele>
        <time>2010-01-01T10:21:18Z</time>
      </trkpt>
      <trkpt lat="45.81737000" lon="11.71605000">
        <ele>126.00000</ele>
        <time>2010-01-01T10:21:43Z</time>
      </trkpt>
      <trkpt lat="45.81727990" lon="11.71609000">
        <ele>126.00000</ele>
        <time>2010-01-01T10:21:47Z</time>
      </trkpt>
      <trkpt lat="45.81707000" lon="11.71605000">
        <ele>126.00000</ele>
        <time>2010-01-01T10:21:55Z</time>
      </trkpt>
      <trkpt lat="45.81649990" lon="11.71622000">
        <ele>124.00000</ele>
        <time>2010-01-01T10:22:19Z</time>
      </trkpt>
      <trkpt lat="45.81348000" lon="11.71678000">
        <ele>126.00000</ele>
        <time>2010-01-01T10:24:21Z</time>
      </trkpt>
      <trkpt lat="45.81243000" lon="11.71700000">
        <ele>125.00000</ele>
        <time>2010-01-01T10:25:03Z</time>
      </trkpt>
      <trkpt lat="45.80902000" lon="11.71765000">
        <ele>117.00000</ele>
        <time>2010-01-01T10:27:21Z</time>
      </trkpt>
      <trkpt lat="45.80868990" lon="11.71769000">
        <ele>119.00000</ele>
        <time>2010-01-01T10:27:34Z</time>
      </trkpt>
      <trkpt lat="45.80781000" lon="11.71786000">
        <ele>122.00000</ele>
        <time>2010-01-01T10:28:10Z</time>
      </trkpt>
      <trkpt lat="45.80729990" lon="11.71795000">
        <ele>123.00000</ele>
        <time>2010-01-01T10:28:30Z</time>
      </trkpt>
      <trkpt lat="45.80709000" lon="11.71803000">
        <ele>125.00000</ele>
        <time>2010-01-01T10:28:39Z</time>
      </trkpt>
      <trkpt lat="45.80667000" lon="11.71808000">
        <ele>128.00000</ele>
        <time>2010-01-01T10:28:56Z</time>
      </trkpt>
      <trkpt lat="45.80582000" lon="11.71817000">
        <ele>131.00000</ele>
        <time>2010-01-01T10:29:30Z</time>
      </trkpt>
      <trkpt lat="45.80579990" lon="11.71817000">
        <ele>131.00000</ele>
        <time>2010-01-01T10:29:31Z</time>
      </trkpt>
      <trkpt lat="45.80525000" lon="11.71821000">
        <ele>128.00000</ele>
        <time>2010-01-01T10:29:53Z</time>
      </trkpt>
      <trkpt lat="45.80498000" lon="11.71821000">
        <ele>126.00000</ele>
        <time>2010-01-01T10:30:03Z</time>
      </trkpt>
      <trkpt lat="45.80454990" lon="11.71856000">
        <ele>132.00000</ele>
        <time>2010-01-01T10:30:23Z</time>
      </trkpt>
      <trkpt lat="45.80387000" lon="11.71929000">
        <ele>135.00000</ele>
        <time>2010-01-01T10:30:57Z</time>
      </trkpt>
      <trkpt lat="45.80338000" lon="11.71955000">
        <ele>131.00000</ele>
        <time>2010-01-01T10:31:18Z</time>
      </trkpt>
      <trkpt lat="45.80254000" lon="11.72016000">
        <ele>134.00000</ele>
        <time>2010-01-01T10:31:56Z</time>
      </trkpt>
      <trkpt lat="45.80207990" lon="11.72063000">
        <ele>134.00000</ele>
        <time>2010-01-01T10:32:18Z</time>
      </trkpt>
      <trkpt lat="45.80190000" lon="11.72154000">
        <ele>142.00000</ele>
        <time>2010-01-01T10:32:45Z</time>
      </trkpt>
      <trkpt lat="45.80181000" lon="11.72171000">
        <ele>143.00000</ele>
        <time>2010-01-01T10:32:51Z</time>
      </trkpt>
      <trkpt lat="45.80121000" lon="11.72241000">
        <ele>143.00000</ele>
        <time>2010-01-01T10:33:22Z</time>
      </trkpt>
      <trkpt lat="45.80100000" lon="11.72267000">
        <ele>144.00000</ele>
        <time>2010-01-01T10:33:33Z</time>
      </trkpt>
      <trkpt lat="45.79967000" lon="11.72392000">
        <ele>146.00000</ele>
        <time>2010-01-01T10:34:37Z</time>
      </trkpt>
      <trkpt lat="45.79946000" lon="11.72418000">
        <ele>148.00000</ele>
        <time>2010-01-01T10:34:48Z</time>
      </trkpt>
      <trkpt lat="45.79886000" lon="11.72470000">
        <ele>151.00000</ele>
        <time>2010-01-01T10:35:16Z</time>
      </trkpt>
      <trkpt lat="45.79852000" lon="11.72573000">
        <ele>159.00000</ele>
        <time>2010-01-01T10:35:47Z</time>
      </trkpt>
      <trkpt lat="45.79850000" lon="11.72587000">
        <ele>160.00000</ele>
        <time>2010-01-01T10:35:51Z</time>
      </trkpt>
      <trkpt lat="45.79844000" lon="11.72630000">
        <ele>161.00000</ele>
        <time>2010-01-01T10:36:04Z</time>
      </trkpt>
      <trkpt lat="45.79850000" lon="11.72695000">
        <ele>162.00000</ele>
        <time>2010-01-01T10:36:22Z</time>
      </trkpt>
      <trkpt lat="45.79852000" lon="11.72707000">
        <ele>163.00000</ele>
        <time>2010-01-01T10:36:25Z</time>
      </trkpt>
      <trkpt lat="45.79898000" lon="11.72846000">
        <ele>164.00000</ele>
        <time>2010-01-01T10:37:08Z</time>
      </trkpt>
      <trkpt lat="45.79910000" lon="11.72885000">
        <ele>163.00000</ele>
        <time>2010-01-01T10:37:20Z</time>
      </trkpt>
      <trkpt lat="45.79922000" lon="11.72920000">
        <ele>163.00000</ele>
        <time>2010-01-01T10:37:31Z</time>
      </trkpt>
      <trkpt lat="45.79946000" lon="11.72993000">
        <ele>163.00000</ele>
        <time>2010-01-01T10:37:54Z</time>
      </trkpt>
      <trkpt lat="45.79970000" lon="11.73041000">
        <ele>163.00000</ele>
        <time>2010-01-01T10:38:10Z</time>
      </trkpt>
      <trkpt lat="45.80022000" lon="11.73127000">
        <ele>165.00000</ele>
        <time>2010-01-01T10:38:42Z</time>
      </trkpt>
      <trkpt lat="45.80018000" lon="11.73140000">
        <ele>165.00000</ele>
        <time>2010-01-01T10:38:46Z</time>
      </trkpt>
      <trkpt lat="45.79948990" lon="11.73214000">
        <ele>162.00000</ele>
        <time>2010-01-01T10:39:20Z</time>
      </trkpt>
      <trkpt lat="45.79931000" lon="11.73257000">
        <ele>161.00000</ele>
        <time>2010-01-01T10:39:34Z</time>
      </trkpt>
      <trkpt lat="45.79919000" lon="11.73283000">
        <ele>161.00000</ele>
        <time>2010-01-01T10:39:43Z</time>
      </trkpt>
      <trkpt lat="45.79883000" lon="11.73335000">
        <ele>162.00000</ele>
        <time>2010-01-01T10:40:04Z</time>
      </trkpt>
      <trkpt lat="45.79876990" lon="11.73340000">
        <ele>162.00000</ele>
        <time>2010-01-01T10:40:06Z</time>
      </trkpt>
      <trkpt lat="45.79837000" lon="11.73369000">
        <ele>161.00000</ele>
        <time>2010-01-01T10:40:24Z</time>
      </trkpt>
      <trkpt lat="45.79825000" lon="11.73395000">
        <ele>162.00000</ele>
        <time>2010-01-01T10:40:33Z</time>
      </trkpt>
      <trkpt lat="45.79817000" lon="11.73409000">
        <ele>163.00000</ele>
        <time>2010-01-01T10:40:38Z</time>
      </trkpt>
      <trkpt lat="45.79798000" lon="11.73438000">
        <ele>163.00000</ele>
        <time>2010-01-01T10:40:49Z</time>
      </trkpt>
      <trkpt lat="45.79765000" lon="11.73495000">
        <ele>164.00000</ele>
        <time>2010-01-01T10:41:10Z</time>
      </trkpt>
      <trkpt lat="45.79650000" lon="11.73603000">
        <ele>166.00000</ele>
        <time>2010-01-01T10:42:05Z</time>
      </trkpt>
      <trkpt lat="45.79605000" lon="11.73620000">
        <ele>163.00000</ele>
        <time>2010-01-01T10:42:23Z</time>
      </trkpt>
      <trkpt lat="45.79578000" lon="11.73668000">
        <ele>165.00000</ele>
        <time>2010-01-01T10:42:41Z</time>
      </trkpt>
      <trkpt lat="45.79569000" lon="11.73698000">
        <ele>165.00000</ele>
        <time>2010-01-01T10:42:50Z</time>
      </trkpt>
      <trkpt lat="45.79542000" lon="11.73820000">
        <ele>165.00000</ele>
        <time>2010-01-01T10:43:26Z</time>
      </trkpt>
      <trkpt lat="45.79512000" lon="11.74009000">
        <ele>169.00000</ele>
        <time>2010-01-01T10:44:20Z</time>
      </trkpt>
      <trkpt lat="45.79491000" lon="11.74083000">
        <ele>166.00000</ele>
        <time>2010-01-01T10:44:42Z</time>
      </trkpt>
      <trkpt lat="45.79403000" lon="11.74260000">
        <ele>167.00000</ele>
        <time>2010-01-01T10:45:43Z</time>
      </trkpt>
      <trkpt lat="45.79400000" lon="11.74308000">
        <ele>166.00000</ele>
        <time>2010-01-01T10:45:56Z</time>
      </trkpt>
      <trkpt lat="45.79425000" lon="11.74420000">
        <ele>165.00000</ele>
        <time>2010-01-01T10:46:29Z</time>
      </trkpt>
      <trkpt lat="45.79426990" lon="11.74438000">
        <ele>165.00000</ele>
        <time>2010-01-01T10:46:34Z</time>
      </trkpt>
      <trkpt lat="45.79445000" lon="11.74879000">
        <ele>160.00000</ele>
        <time>2010-01-01T10:48:37Z</time>
      </trkpt>
      <trkpt lat="45.79509000" lon="11.75126000">
        <ele>162.00000</ele>
        <time>2010-01-01T10:49:51Z</time>
      </trkpt>
      <trkpt lat="45.79521000" lon="11.75152000">
        <ele>161.00000</ele>
        <time>2010-01-01T10:50:00Z</time>
      </trkpt>
      <trkpt lat="45.79551000" lon="11.75281000">
        <ele>164.00000</ele>
        <time>2010-01-01T10:50:37Z</time>
      </trkpt>
      <trkpt lat="45.79575000" lon="11.75376000">
        <ele>167.00000</ele>
        <time>2010-01-01T10:51:06Z</time>
      </trkpt>
      <trkpt lat="45.79615000" lon="11.75506000">
        <ele>171.00000</ele>
        <time>2010-01-01T10:51:45Z</time>
      </trkpt>
      <trkpt lat="45.79623000" lon="11.75537000">
        <ele>172.00000</ele>
        <time>2010-01-01T10:51:55Z</time>
      </trkpt>
      <trkpt lat="45.79675000" lon="11.75662000">
        <ele>173.00000</ele>
        <time>2010-01-01T10:52:35Z</time>
      </trkpt>
      <trkpt lat="45.79698990" lon="11.75735000">
        <ele>171.00000</ele>
        <time>2010-01-01T10:52:58Z</time>
      </trkpt>
      <trkpt lat="45.79726000" lon="11.75727000">
        <ele>172.00000</ele>
        <time>2010-01-01T10:53:09Z</time>
      </trkpt>
      <trkpt lat="45.79810000" lon="11.75671000">
        <ele>175.00000</ele>
        <time>2010-01-01T10:53:46Z</time>
      </trkpt>
      <trkpt lat="45.79817000" lon="11.75671000">
        <ele>175.00000</ele>
        <time>2010-01-01T10:53:49Z</time>
      </trkpt>
      <trkpt lat="45.79886000" lon="11.75653000">
        <ele>178.00000</ele>
        <time>2010-01-01T10:54:17Z</time>
      </trkpt>
      <trkpt lat="45.79907000" lon="11.75653000">
        <ele>179.00000</ele>
        <time>2010-01-01T10:54:25Z</time>
      </trkpt>
      <trkpt lat="45.79946000" lon="11.75640000">
        <ele>182.00000</ele>
        <time>2010-01-01T10:54:41Z</time>
      </trkpt>
      <trkpt lat="45.80022000" lon="11.75653000">
        <ele>185.00000</ele>
        <time>2010-01-01T10:55:12Z</time>
      </trkpt>
      <trkpt lat="45.80051990" lon="11.75706000">
        <ele>184.00000</ele>
        <time>2010-01-01T10:55:31Z</time>
      </trkpt>
      <trkpt lat="45.80085000" lon="11.75740000">
        <ele>184.00000</ele>
        <time>2010-01-01T10:55:47Z</time>
      </trkpt>
      <trkpt lat="45.80133000" lon="11.75792000">
        <ele>186.00000</ele>
        <time>2010-01-01T10:56:11Z</time>
      </trkpt>
      <trkpt lat="45.80145000" lon="11.75800000">
        <ele>187.00000</ele>
        <time>2010-01-01T10:56:16Z</time>
      </trkpt>
      <trkpt lat="45.80185000" lon="11.75783000">
        <ele>188.00000</ele>
        <time>2010-01-01T10:56:33Z</time>
      </trkpt>
      <trkpt lat="45.80207990" lon="11.75792000">
        <ele>188.00000</ele>
        <time>2010-01-01T10:56:43Z</time>
      </trkpt>
      <trkpt lat="45.80220000" lon="11.75792000">
        <ele>188.00000</ele>
        <time>2010-01-01T10:56:48Z</time>
      </trkpt>
      <trkpt lat="45.80332000" lon="11.75727000">
        <ele>194.00000</ele>
        <time>2010-01-01T10:57:36Z</time>
      </trkpt>
      <trkpt lat="45.80432000" lon="11.75653000">
        <ele>205.00000</ele>
        <time>2010-01-01T10:58:21Z</time>
      </trkpt>
      <trkpt lat="45.80447000" lon="11.75636000">
        <ele>210.00000</ele>
        <time>2010-01-01T10:58:29Z</time>
      </trkpt>
      <trkpt lat="45.80471000" lon="11.75627000">
        <ele>215.00000</ele>
        <time>2010-01-01T10:58:39Z</time>
      </trkpt>
      <trkpt lat="45.80582000" lon="11.75658000">
        <ele>228.00000</ele>
        <time>2010-01-01T10:59:24Z</time>
      </trkpt>
      <trkpt lat="45.80615000" lon="11.75666000">
        <ele>230.00000</ele>
        <time>2010-01-01T10:59:37Z</time>
      </trkpt>
      <trkpt lat="45.80742000" lon="11.75675000">
        <ele>241.00000</ele>
        <time>2010-01-01T11:00:28Z</time>
      </trkpt>
      <trkpt lat="45.80770000" lon="11.75688000">
        <ele>238.00000</ele>
        <time>2010-01-01T11:00:40Z</time>
      </trkpt>
      <trkpt lat="45.80778000" lon="11.75675000">
        <ele>241.00000</ele>
        <time>2010-01-01T11:00:45Z</time>
      </trkpt>
      <trkpt lat="45.80772000" lon="11.75658000">
        <ele>248.00000</ele>
        <time>2010-01-01T11:00:50Z</time>
      </trkpt>
      <trkpt lat="45.80657990" lon="11.75627000">
        <ele>261.00000</ele>
        <time>2010-01-01T11:01:36Z</time>
      </trkpt>
      <trkpt lat="45.80582000" lon="11.75580000">
        <ele>266.00000</ele>
        <time>2010-01-01T11:02:10Z</time>
      </trkpt>
      <trkpt lat="45.80570000" lon="11.75571000">
        <ele>266.00000</ele>
        <time>2010-01-01T11:02:15Z</time>
      </trkpt>
      <trkpt lat="45.80531000" lon="11.75537000">
        <ele>267.00000</ele>
        <time>2010-01-01T11:02:33Z</time>
      </trkpt>
      <trkpt lat="45.80528000" lon="11.75532000">
        <ele>269.00000</ele>
        <time>2010-01-01T11:02:35Z</time>
      </trkpt>
      <trkpt lat="45.80365000" lon="11.75295000">
        <ele>290.00000</ele>
        <time>2010-01-01T11:04:08Z</time>
      </trkpt>
      <trkpt lat="45.80248000" lon="11.74979000">
        <ele>326.00000</ele>
        <time>2010-01-01T11:05:48Z</time>
      </trkpt>
      <trkpt lat="45.80154000" lon="11.74901000">
        <ele>327.00000</ele>
        <time>2010-01-01T11:06:31Z</time>
      </trkpt>
      <trkpt lat="45.80049000" lon="11.74702000">
        <ele>351.00000</ele>
        <time>2010-01-01T11:07:41Z</time>
      </trkpt>
      <trkpt lat="45.80060000" lon="11.74693000">
        <ele>357.00000</ele>
        <time>2010-01-01T11:07:46Z</time>
      </trkpt>
      <trkpt lat="45.80082000" lon="11.74732000">
        <ele>353.00000</ele>
        <time>2010-01-01T11:08:00Z</time>
      </trkpt>
      <trkpt lat="45.80190000" lon="11.74853000">
        <ele>364.00000</ele>
        <time>2010-01-01T11:08:55Z</time>
      </trkpt>
      <trkpt lat="45.80230000" lon="11.74866000">
        <ele>373.00000</ele>
        <time>2010-01-01T11:09:11Z</time>
      </trkpt>
      <trkpt lat="45.80296000" lon="11.74879000">
        <ele>391.00000</ele>
        <time>2010-01-01T11:09:38Z</time>
      </trkpt>
      <trkpt lat="45.80375000" lon="11.75001000">
        <ele>387.00000</ele>
        <time>2010-01-01T11:10:24Z</time>
      </trkpt>
      <trkpt lat="45.80440000" lon="11.75147000">
        <ele>390.00000</ele>
        <time>2010-01-01T11:11:13Z</time>
      </trkpt>
      <trkpt lat="45.80582000" lon="11.75260000">
        <ele>415.00000</ele>
        <time>2010-01-01T11:12:18Z</time>
      </trkpt>
      <trkpt lat="45.80652000" lon="11.75316000">
        <ele>412.00000</ele>
        <time>2010-01-01T11:12:50Z</time>
      </trkpt>
      <trkpt lat="45.80715000" lon="11.75333000">
        <ele>422.00000</ele>
        <time>2010-01-01T11:13:16Z</time>
      </trkpt>
      <trkpt lat="45.80745000" lon="11.75320000">
        <ele>438.00000</ele>
        <time>2010-01-01T11:13:28Z</time>
      </trkpt>
      <trkpt lat="45.80823000" lon="11.75307000">
        <ele>436.00000</ele>
        <time>2010-01-01T11:14:00Z</time>
      </trkpt>
      <trkpt lat="45.80968000" lon="11.75242000">
        <ele>451.00000</ele>
        <time>2010-01-01T11:15:00Z</time>
      </trkpt>
      <trkpt lat="45.80992000" lon="11.75212000">
        <ele>463.00000</ele>
        <time>2010-01-01T11:15:13Z</time>
      </trkpt>
      <trkpt lat="45.81013000" lon="11.75195000">
        <ele>467.00000</ele>
        <time>2010-01-01T11:15:23Z</time>
      </trkpt>
      <trkpt lat="45.81071000" lon="11.75186000">
        <ele>450.00000</ele>
        <time>2010-01-01T11:15:46Z</time>
      </trkpt>
      <trkpt lat="45.81074000" lon="11.75173000">
        <ele>455.00000</ele>
        <time>2010-01-01T11:15:50Z</time>
      </trkpt>
      <trkpt lat="45.81065000" lon="11.75164000">
        <ele>463.00000</ele>
        <time>2010-01-01T11:15:54Z</time>
      </trkpt>
      <trkpt lat="45.81038000" lon="11.75178000">
        <ele>468.00000</ele>
        <time>2010-01-01T11:16:06Z</time>
      </trkpt>
      <trkpt lat="45.80990000" lon="11.75182000">
        <ele>482.00000</ele>
        <time>2010-01-01T11:16:25Z</time>
      </trkpt>
      <trkpt lat="45.80959000" lon="11.75207000">
        <ele>473.00000</ele>
        <time>2010-01-01T11:16:39Z</time>
      </trkpt>
      <trkpt lat="45.80848000" lon="11.75233000">
        <ele>478.00000</ele>
        <time>2010-01-01T11:17:24Z</time>
      </trkpt>
      <trkpt lat="45.80721000" lon="11.75221000">
        <ele>480.00000</ele>
        <time>2010-01-01T11:18:15Z</time>
      </trkpt>
      <trkpt lat="45.80660000" lon="11.75164000">
        <ele>493.00000</ele>
        <time>2010-01-01T11:18:44Z</time>
      </trkpt>
      <trkpt lat="45.80607000" lon="11.75056000">
        <ele>510.00000</ele>
        <time>2010-01-01T11:19:21Z</time>
      </trkpt>
      <trkpt lat="45.80582000" lon="11.75035000">
        <ele>509.00000</ele>
        <time>2010-01-01T11:19:33Z</time>
      </trkpt>
      <trkpt lat="45.80546000" lon="11.75001000">
        <ele>499.00000</ele>
        <time>2010-01-01T11:19:50Z</time>
      </trkpt>
      <trkpt lat="45.80465000" lon="11.74736000">
        <ele>530.00000</ele>
        <time>2010-01-01T11:21:11Z</time>
      </trkpt>
      <trkpt lat="45.80392000" lon="11.74619000">
        <ele>530.00000</ele>
        <time>2010-01-01T11:21:55Z</time>
      </trkpt>
      <trkpt lat="45.80375000" lon="11.74563000">
        <ele>537.00000</ele>
        <time>2010-01-01T11:22:12Z</time>
      </trkpt>
      <trkpt lat="45.80390000" lon="11.74451000">
        <ele>556.00000</ele>
        <time>2010-01-01T11:22:44Z</time>
      </trkpt>
      <trkpt lat="45.80376990" lon="11.74438000">
        <ele>556.00000</ele>
        <time>2010-01-01T11:22:50Z</time>
      </trkpt>
      <trkpt lat="45.80375000" lon="11.74438000">
        <ele>556.00000</ele>
        <time>2010-01-01T11:22:51Z</time>
      </trkpt>
      <trkpt lat="45.80350000" lon="11.74451000">
        <ele>551.00000</ele>
        <time>2010-01-01T11:23:01Z</time>
      </trkpt>
      <trkpt lat="45.80326000" lon="11.74442000">
        <ele>548.00000</ele>
        <time>2010-01-01T11:23:11Z</time>
      </trkpt>
      <trkpt lat="45.80320000" lon="11.74438000">
        <ele>547.00000</ele>
        <time>2010-01-01T11:23:14Z</time>
      </trkpt>
      <trkpt lat="45.80269000" lon="11.74390000">
        <ele>545.00000</ele>
        <time>2010-01-01T11:23:38Z</time>
      </trkpt>
      <trkpt lat="45.80275000" lon="11.74373000">
        <ele>552.00000</ele>
        <time>2010-01-01T11:23:44Z</time>
      </trkpt>
      <trkpt lat="45.80338000" lon="11.74399000">
        <ele>559.00000</ele>
        <time>2010-01-01T11:24:10Z</time>
      </trkpt>
      <trkpt lat="45.80420000" lon="11.74360000">
        <ele>576.00000</ele>
        <time>2010-01-01T11:24:44Z</time>
      </trkpt>
      <trkpt lat="45.80432000" lon="11.74360000">
        <ele>579.00000</ele>
        <time>2010-01-01T11:24:49Z</time>
      </trkpt>
      <trkpt lat="45.80444000" lon="11.74438000">
        <ele>572.00000</ele>
        <time>2010-01-01T11:25:12Z</time>
      </trkpt>
      <trkpt lat="45.80447000" lon="11.74459000">
        <ele>572.00000</ele>
        <time>2010-01-01T11:25:18Z</time>
      </trkpt>
      <trkpt lat="45.80480000" lon="11.74525000">
        <ele>582.00000</ele>
        <time>2010-01-01T11:25:40Z</time>
      </trkpt>
      <trkpt lat="45.80513000" lon="11.74645000">
        <ele>583.00000</ele>
        <time>2010-01-01T11:26:16Z</time>
      </trkpt>
      <trkpt lat="45.80543000" lon="11.74715000">
        <ele>583.00000</ele>
        <time>2010-01-01T11:26:39Z</time>
      </trkpt>
      <trkpt lat="45.80582000" lon="11.74784000">
        <ele>589.00000</ele>
        <time>2010-01-01T11:27:04Z</time>
      </trkpt>
      <trkpt lat="45.80582000" lon="11.74788000">
        <ele>588.00000</ele>
        <time>2010-01-01T11:27:05Z</time>
      </trkpt>
      <trkpt lat="45.80634000" lon="11.74836000">
        <ele>591.00000</ele>
        <time>2010-01-01T11:27:30Z</time>
      </trkpt>
      <trkpt lat="45.80643000" lon="11.74827000">
        <ele>595.00000</ele>
        <time>2010-01-01T11:27:34Z</time>
      </trkpt>
      <trkpt lat="45.80643000" lon="11.74819000">
        <ele>597.00000</ele>
        <time>2010-01-01T11:27:36Z</time>
      </trkpt>
      <trkpt lat="45.80610000" lon="11.74775000">
        <ele>598.00000</ele>
        <time>2010-01-01T11:27:54Z</time>
      </trkpt>
      <trkpt lat="45.80582000" lon="11.74710000">
        <ele>607.00000</ele>
        <time>2010-01-01T11:28:16Z</time>
      </trkpt>
      <trkpt lat="45.80570000" lon="11.74684000">
        <ele>606.00000</ele>
        <time>2010-01-01T11:28:24Z</time>
      </trkpt>
      <trkpt lat="45.80567000" lon="11.74624000">
        <ele>611.00000</ele>
        <time>2010-01-01T11:28:41Z</time>
      </trkpt>
      <trkpt lat="45.80576000" lon="11.74546000">
        <ele>619.00000</ele>
        <time>2010-01-01T11:29:03Z</time>
      </trkpt>
      <trkpt lat="45.80567000" lon="11.74438000">
        <ele>626.00000</ele>
        <time>2010-01-01T11:29:34Z</time>
      </trkpt>
      <trkpt lat="45.80565000" lon="11.74411000">
        <ele>627.00000</ele>
        <time>2010-01-01T11:29:41Z</time>
      </trkpt>
      <trkpt lat="45.80582000" lon="11.74343000">
        <ele>631.00000</ele>
        <time>2010-01-01T11:30:01Z</time>
      </trkpt>
      <trkpt lat="45.80612000" lon="11.74230000">
        <ele>646.00000</ele>
        <time>2010-01-01T11:30:35Z</time>
      </trkpt>
      <trkpt lat="45.80622000" lon="11.74234000">
        <ele>649.00000</ele>
        <time>2010-01-01T11:30:39Z</time>
      </trkpt>
      <trkpt lat="45.80618000" lon="11.74269000">
        <ele>646.00000</ele>
        <time>2010-01-01T11:30:49Z</time>
      </trkpt>
      <trkpt lat="45.80615000" lon="11.74360000">
        <ele>644.00000</ele>
        <time>2010-01-01T11:31:15Z</time>
      </trkpt>
      <trkpt lat="45.80625000" lon="11.74394000">
        <ele>648.00000</ele>
        <time>2010-01-01T11:31:25Z</time>
      </trkpt>
      <trkpt lat="45.80640000" lon="11.74416000">
        <ele>652.00000</ele>
        <time>2010-01-01T11:31:34Z</time>
      </trkpt>
      <trkpt lat="45.80657990" lon="11.74438000">
        <ele>655.00000</ele>
        <time>2010-01-01T11:31:43Z</time>
      </trkpt>
      <trkpt lat="45.80685000" lon="11.74468000">
        <ele>656.00000</ele>
        <time>2010-01-01T11:31:57Z</time>
      </trkpt>
      <trkpt lat="45.80693990" lon="11.74468000">
        <ele>658.00000</ele>
        <time>2010-01-01T11:32:00Z</time>
      </trkpt>
      <trkpt lat="45.80703000" lon="11.74473000">
        <ele>658.00000</ele>
        <time>2010-01-01T11:32:04Z</time>
      </trkpt>
      <trkpt lat="45.80727000" lon="11.74468000">
        <ele>663.00000</ele>
        <time>2010-01-01T11:32:14Z</time>
      </trkpt>
      <trkpt lat="45.80751000" lon="11.74456000">
        <ele>667.00000</ele>
        <time>2010-01-01T11:32:24Z</time>
      </trkpt>
      <trkpt lat="45.80766000" lon="11.74438000">
        <ele>668.00000</ele>
        <time>2010-01-01T11:32:32Z</time>
      </trkpt>
      <trkpt lat="45.80848000" lon="11.74351000">
        <ele>688.00000</ele>
        <time>2010-01-01T11:33:13Z</time>
      </trkpt>
      <trkpt lat="45.80890000" lon="11.74330000">
        <ele>693.00000</ele>
        <time>2010-01-01T11:33:30Z</time>
      </trkpt>
      <trkpt lat="45.80944000" lon="11.74321000">
        <ele>701.00000</ele>
        <time>2010-01-01T11:33:52Z</time>
      </trkpt>
      <trkpt lat="45.80953000" lon="11.74330000">
        <ele>702.00000</ele>
        <time>2010-01-01T11:33:57Z</time>
      </trkpt>
      <trkpt lat="45.80965000" lon="11.74386000">
        <ele>696.00000</ele>
        <time>2010-01-01T11:34:13Z</time>
      </trkpt>
      <trkpt lat="45.81001000" lon="11.74438000">
        <ele>700.00000</ele>
        <time>2010-01-01T11:34:33Z</time>
      </trkpt>
      <trkpt lat="45.81007990" lon="11.74451000">
        <ele>702.00000</ele>
        <time>2010-01-01T11:34:38Z</time>
      </trkpt>
      <trkpt lat="45.81005000" lon="11.74537000">
        <ele>698.00000</ele>
        <time>2010-01-01T11:35:02Z</time>
      </trkpt>
      <trkpt lat="45.81032000" lon="11.74581000">
        <ele>702.00000</ele>
        <time>2010-01-01T11:35:18Z</time>
      </trkpt>
      <trkpt lat="45.81085990" lon="11.74590000">
        <ele>709.00000</ele>
        <time>2010-01-01T11:35:40Z</time>
      </trkpt>
      <trkpt lat="45.81237000" lon="11.74581000">
        <ele>727.00000</ele>
        <time>2010-01-01T11:36:41Z</time>
      </trkpt>
      <trkpt lat="45.81296990" lon="11.74585000">
        <ele>731.00000</ele>
        <time>2010-01-01T11:37:05Z</time>
      </trkpt>
      <trkpt lat="45.81336000" lon="11.74568000">
        <ele>738.00000</ele>
        <time>2010-01-01T11:37:21Z</time>
      </trkpt>
      <trkpt lat="45.81348000" lon="11.74572000">
        <ele>736.00000</ele>
        <time>2010-01-01T11:37:26Z</time>
      </trkpt>
      <trkpt lat="45.81415000" lon="11.74590000">
        <ele>722.00000</ele>
        <time>2010-01-01T11:37:53Z</time>
      </trkpt>
      <trkpt lat="45.81420000" lon="11.74572000">
        <ele>726.00000</ele>
        <time>2010-01-01T11:37:59Z</time>
      </trkpt>
      <trkpt lat="45.81348000" lon="11.74550000">
        <ele>742.00000</ele>
        <time>2010-01-01T11:38:28Z</time>
      </trkpt>
      <trkpt lat="45.81291000" lon="11.74533000">
        <ele>746.00000</ele>
        <time>2010-01-01T11:38:51Z</time>
      </trkpt>
      <trkpt lat="45.81182000" lon="11.74451000">
        <ele>755.00000</ele>
        <time>2010-01-01T11:39:41Z</time>
      </trkpt>
      <trkpt lat="45.81176000" lon="11.74438000">
        <ele>756.00000</ele>
        <time>2010-01-01T11:39:45Z</time>
      </trkpt>
      <trkpt lat="45.81167000" lon="11.74399000">
        <ele>759.00000</ele>
        <time>2010-01-01T11:39:56Z</time>
      </trkpt>
      <trkpt lat="45.81180000" lon="11.74295000">
        <ele>769.00000</ele>
        <time>2010-01-01T11:40:26Z</time>
      </trkpt>
      <trkpt lat="45.81140000" lon="11.74170000">
        <ele>768.00000</ele>
        <time>2010-01-01T11:41:04Z</time>
      </trkpt>
      <trkpt lat="45.81143000" lon="11.74139000">
        <ele>772.00000</ele>
        <time>2010-01-01T11:41:13Z</time>
      </trkpt>
      <trkpt lat="45.81191000" lon="11.74053000">
        <ele>791.00000</ele>
        <time>2010-01-01T11:41:44Z</time>
      </trkpt>
      <trkpt lat="45.81198000" lon="11.74048000">
        <ele>793.00000</ele>
        <time>2010-01-01T11:41:47Z</time>
      </trkpt>
      <trkpt lat="45.81228000" lon="11.74048000">
        <ele>795.00000</ele>
        <time>2010-01-01T11:41:59Z</time>
      </trkpt>
      <trkpt lat="45.81345000" lon="11.74114000">
        <ele>786.00000</ele>
        <time>2010-01-01T11:42:49Z</time>
      </trkpt>
      <trkpt lat="45.81348000" lon="11.74114000">
        <ele>786.00000</ele>
        <time>2010-01-01T11:42:50Z</time>
      </trkpt>
      <trkpt lat="45.81390000" lon="11.74117000">
        <ele>785.00000</ele>
        <time>2010-01-01T11:43:07Z</time>
      </trkpt>
      <trkpt lat="45.81423000" lon="11.74105000">
        <ele>787.00000</ele>
        <time>2010-01-01T11:43:21Z</time>
      </trkpt>
      <trkpt lat="45.81453000" lon="11.74066000">
        <ele>788.00000</ele>
        <time>2010-01-01T11:43:37Z</time>
      </trkpt>
      <trkpt lat="45.81490000" lon="11.74001000">
        <ele>789.00000</ele>
        <time>2010-01-01T11:44:01Z</time>
      </trkpt>
      <trkpt lat="45.81523000" lon="11.73975000">
        <ele>791.00000</ele>
        <time>2010-01-01T11:44:16Z</time>
      </trkpt>
      <trkpt lat="45.81544000" lon="11.73979000">
        <ele>793.00000</ele>
        <time>2010-01-01T11:44:24Z</time>
      </trkpt>
      <trkpt lat="45.81559000" lon="11.73997000">
        <ele>797.00000</ele>
        <time>2010-01-01T11:44:32Z</time>
      </trkpt>
      <trkpt lat="45.81568000" lon="11.74036000">
        <ele>799.00000</ele>
        <time>2010-01-01T11:44:43Z</time>
      </trkpt>
      <trkpt lat="45.81577990" lon="11.74161000">
        <ele>800.00000</ele>
        <time>2010-01-01T11:45:18Z</time>
      </trkpt>
      <trkpt lat="45.81605000" lon="11.74200000">
        <ele>798.00000</ele>
        <time>2010-01-01T11:45:34Z</time>
      </trkpt>
      <trkpt lat="45.81673000" lon="11.74208000">
        <ele>804.00000</ele>
        <time>2010-01-01T11:46:01Z</time>
      </trkpt>
      <trkpt lat="45.81698000" lon="11.74191000">
        <ele>808.00000</ele>
        <time>2010-01-01T11:46:12Z</time>
      </trkpt>
      <trkpt lat="45.81734000" lon="11.74117000">
        <ele>824.00000</ele>
        <time>2010-01-01T11:46:37Z</time>
      </trkpt>
      <trkpt lat="45.81755000" lon="11.74117000">
        <ele>823.00000</ele>
        <time>2010-01-01T11:46:46Z</time>
      </trkpt>
      <trkpt lat="45.81818000" lon="11.74174000">
        <ele>817.00000</ele>
        <time>2010-01-01T11:47:16Z</time>
      </trkpt>
      <trkpt lat="45.81891000" lon="11.74092000">
        <ele>829.00000</ele>
        <time>2010-01-01T11:47:53Z</time>
      </trkpt>
      <trkpt lat="45.81921000" lon="11.74096000">
        <ele>827.00000</ele>
        <time>2010-01-01T11:48:05Z</time>
      </trkpt>
      <trkpt lat="45.81960000" lon="11.74105000">
        <ele>833.00000</ele>
        <time>2010-01-01T11:48:21Z</time>
      </trkpt>
      <trkpt lat="45.82005000" lon="11.74174000">
        <ele>834.00000</ele>
        <time>2010-01-01T11:48:47Z</time>
      </trkpt>
      <trkpt lat="45.82048000" lon="11.74183000">
        <ele>846.00000</ele>
        <time>2010-01-01T11:49:04Z</time>
      </trkpt>
      <trkpt lat="45.82099000" lon="11.74208000">
        <ele>849.00000</ele>
        <time>2010-01-01T11:49:26Z</time>
      </trkpt>
      <trkpt lat="45.82113990" lon="11.74205000">
        <ele>854.00000</ele>
        <time>2010-01-01T11:49:32Z</time>
      </trkpt>
      <trkpt lat="45.82138000" lon="11.74191000">
        <ele>867.00000</ele>
        <time>2010-01-01T11:49:42Z</time>
      </trkpt>
      <trkpt lat="45.82168000" lon="11.74222000">
        <ele>860.00000</ele>
        <time>2010-01-01T11:49:57Z</time>
      </trkpt>
      <trkpt lat="45.82207000" lon="11.74222000">
        <ele>864.00000</ele>
        <time>2010-01-01T11:50:13Z</time>
      </trkpt>
      <trkpt lat="45.82280000" lon="11.74265000">
        <ele>850.00000</ele>
        <time>2010-01-01T11:50:44Z</time>
      </trkpt>
      <trkpt lat="45.82328000" lon="11.74260000">
        <ele>856.00000</ele>
        <time>2010-01-01T11:51:04Z</time>
      </trkpt>
      <trkpt lat="45.82382000" lon="11.74157000">
        <ele>863.00000</ele>
        <time>2010-01-01T11:51:40Z</time>
      </trkpt>
      <trkpt lat="45.82436000" lon="11.73820000">
        <ele>858.00000</ele>
        <time>2010-01-01T11:53:16Z</time>
      </trkpt>
      <trkpt lat="45.82379000" lon="11.73737000">
        <ele>862.00000</ele>
        <time>2010-01-01T11:53:49Z</time>
      </trkpt>
      <trkpt lat="45.82376000" lon="11.73715000">
        <ele>863.00000</ele>
        <time>2010-01-01T11:53:55Z</time>
      </trkpt>
      <trkpt lat="45.82421000" lon="11.73685000">
        <ele>862.00000</ele>
        <time>2010-01-01T11:54:15Z</time>
      </trkpt>
      <trkpt lat="45.82454000" lon="11.73698000">
        <ele>863.00000</ele>
        <time>2010-01-01T11:54:28Z</time>
      </trkpt>
      <trkpt lat="45.82499000" lon="11.73742000">
        <ele>859.00000</ele>
        <time>2010-01-01T11:54:50Z</time>
      </trkpt>
      <trkpt lat="45.82530000" lon="11.73806000">
        <ele>862.00000</ele>
        <time>2010-01-01T11:55:12Z</time>
      </trkpt>
      <trkpt lat="45.82569000" lon="11.73837000">
        <ele>869.00000</ele>
        <time>2010-01-01T11:55:30Z</time>
      </trkpt>
      <trkpt lat="45.82608000" lon="11.73928000">
        <ele>883.00000</ele>
        <time>2010-01-01T11:56:00Z</time>
      </trkpt>
      <trkpt lat="45.82626000" lon="11.74100000">
        <ele>888.00000</ele>
        <time>2010-01-01T11:56:48Z</time>
      </trkpt>
      <trkpt lat="45.82674000" lon="11.74222000">
        <ele>898.00000</ele>
        <time>2010-01-01T11:57:27Z</time>
      </trkpt>
      <trkpt lat="45.82708000" lon="11.74252000">
        <ele>899.00000</ele>
        <time>2010-01-01T11:57:43Z</time>
      </trkpt>
      <trkpt lat="45.82768000" lon="11.74256000">
        <ele>911.00000</ele>
        <time>2010-01-01T11:58:07Z</time>
      </trkpt>
      <trkpt lat="45.82829000" lon="11.74243000">
        <ele>924.00000</ele>
        <time>2010-01-01T11:58:32Z</time>
      </trkpt>
      <trkpt lat="45.82840000" lon="11.74274000">
        <ele>926.00000</ele>
        <time>2010-01-01T11:58:42Z</time>
      </trkpt>
      <trkpt lat="45.82852000" lon="11.74429000">
        <ele>932.00000</ele>
        <time>2010-01-01T11:59:25Z</time>
      </trkpt>
      <trkpt lat="45.82855000" lon="11.74438000">
        <ele>931.00000</ele>
        <time>2010-01-01T11:59:28Z</time>
      </trkpt>
      <trkpt lat="45.82869990" lon="11.74485000">
        <ele>929.00000</ele>
        <time>2010-01-01T11:59:42Z</time>
      </trkpt>
      <trkpt lat="45.82879000" lon="11.74490000">
        <ele>932.00000</ele>
        <time>2010-01-01T11:59:46Z</time>
      </trkpt>
      <trkpt lat="45.82912000" lon="11.74525000">
        <ele>936.00000</ele>
        <time>2010-01-01T12:00:03Z</time>
      </trkpt>
      <trkpt lat="45.82982000" lon="11.74533000">
        <ele>939.00000</ele>
        <time>2010-01-01T12:00:31Z</time>
      </trkpt>
      <trkpt lat="45.82997000" lon="11.74533000">
        <ele>940.00000</ele>
        <time>2010-01-01T12:00:37Z</time>
      </trkpt>
      <trkpt lat="45.83000000" lon="11.74525000">
        <ele>942.00000</ele>
        <time>2010-01-01T12:00:39Z</time>
      </trkpt>
      <trkpt lat="45.82997000" lon="11.74516000">
        <ele>943.00000</ele>
        <time>2010-01-01T12:00:42Z</time>
      </trkpt>
      <trkpt lat="45.82970000" lon="11.74507000">
        <ele>944.00000</ele>
        <time>2010-01-01T12:00:53Z</time>
      </trkpt>
      <trkpt lat="45.82912000" lon="11.74473000">
        <ele>949.00000</ele>
        <time>2010-01-01T12:01:18Z</time>
      </trkpt>
      <trkpt lat="45.82901000" lon="11.74447000">
        <ele>950.00000</ele>
        <time>2010-01-01T12:01:27Z</time>
      </trkpt>
      <trkpt lat="45.82901000" lon="11.74438000">
        <ele>952.00000</ele>
        <time>2010-01-01T12:01:29Z</time>
      </trkpt>
      <trkpt lat="45.82904000" lon="11.74399000">
        <ele>959.00000</ele>
        <time>2010-01-01T12:01:40Z</time>
      </trkpt>
      <trkpt lat="45.82919000" lon="11.74274000">
        <ele>961.00000</ele>
        <time>2010-01-01T12:02:15Z</time>
      </trkpt>
      <trkpt lat="45.82979000" lon="11.74096000">
        <ele>984.00000</ele>
        <time>2010-01-01T12:03:11Z</time>
      </trkpt>
      <trkpt lat="45.82970000" lon="11.74074000">
        <ele>984.00000</ele>
        <time>2010-01-01T12:03:18Z</time>
      </trkpt>
      <trkpt lat="45.82879000" lon="11.74062000">
        <ele>978.00000</ele>
        <time>2010-01-01T12:03:54Z</time>
      </trkpt>
      <trkpt lat="45.82846000" lon="11.74057000">
        <ele>977.00000</ele>
        <time>2010-01-01T12:04:08Z</time>
      </trkpt>
      <trkpt lat="45.82822000" lon="11.74045000">
        <ele>975.00000</ele>
        <time>2010-01-01T12:04:18Z</time>
      </trkpt>
      <trkpt lat="45.82813000" lon="11.73992000">
        <ele>976.00000</ele>
        <time>2010-01-01T12:04:33Z</time>
      </trkpt>
      <trkpt lat="45.82840000" lon="11.73914000">
        <ele>992.00000</ele>
        <time>2010-01-01T12:04:57Z</time>
      </trkpt>
      <trkpt lat="45.82816000" lon="11.73794000">
        <ele>992.00000</ele>
        <time>2010-01-01T12:05:32Z</time>
      </trkpt>
      <trkpt lat="45.82829000" lon="11.73698000">
        <ele>993.00000</ele>
        <time>2010-01-01T12:05:59Z</time>
      </trkpt>
      <trkpt lat="45.82846000" lon="11.73677000">
        <ele>994.00000</ele>
        <time>2010-01-01T12:06:08Z</time>
      </trkpt>
      <trkpt lat="45.82874000" lon="11.73668000">
        <ele>997.00000</ele>
        <time>2010-01-01T12:06:20Z</time>
      </trkpt>
      <trkpt lat="45.82879000" lon="11.73668000">
        <ele>997.00000</ele>
        <time>2010-01-01T12:06:22Z</time>
      </trkpt>
      <trkpt lat="45.83063000" lon="11.73694000">
        <ele>1009.0000</ele>
        <time>2010-01-01T12:07:36Z</time>
      </trkpt>
      <trkpt lat="45.83147000" lon="11.73677000">
        <ele>1017.0000</ele>
        <time>2010-01-01T12:08:10Z</time>
      </trkpt>
      <trkpt lat="45.83166000" lon="11.73634000">
        <ele>1008.0000</ele>
        <time>2010-01-01T12:08:24Z</time>
      </trkpt>
      <trkpt lat="45.83183990" lon="11.73590000">
        <ele>1002.0000</ele>
        <time>2010-01-01T12:08:38Z</time>
      </trkpt>
      <trkpt lat="45.83247000" lon="11.73581000">
        <ele>1018.0000</ele>
        <time>2010-01-01T12:09:04Z</time>
      </trkpt>
      <trkpt lat="45.83280000" lon="11.73529000">
        <ele>1010.0000</ele>
        <time>2010-01-01T12:09:23Z</time>
      </trkpt>
      <trkpt lat="45.83289000" lon="11.73512000">
        <ele>1007.0000</ele>
        <time>2010-01-01T12:09:29Z</time>
      </trkpt>
      <trkpt lat="45.83347000" lon="11.73500000">
        <ele>1022.0000</ele>
        <time>2010-01-01T12:09:53Z</time>
      </trkpt>
      <trkpt lat="45.83392000" lon="11.73465000">
        <ele>1012.0000</ele>
        <time>2010-01-01T12:10:13Z</time>
      </trkpt>
      <trkpt lat="45.83416000" lon="11.73434000">
        <ele>1007.0000</ele>
        <time>2010-01-01T12:10:26Z</time>
      </trkpt>
      <trkpt lat="45.83452000" lon="11.73395000">
        <ele>1009.0000</ele>
        <time>2010-01-01T12:10:44Z</time>
      </trkpt>
      <trkpt lat="45.83500000" lon="11.73395000">
        <ele>1023.0000</ele>
        <time>2010-01-01T12:11:03Z</time>
      </trkpt>
      <trkpt lat="45.83508990" lon="11.73447000">
        <ele>1018.0000</ele>
        <time>2010-01-01T12:11:18Z</time>
      </trkpt>
      <trkpt lat="45.83624000" lon="11.73577000">
        <ele>1003.0000</ele>
        <time>2010-01-01T12:12:17Z</time>
      </trkpt>
      <trkpt lat="45.83645000" lon="11.73581000">
        <ele>1003.0000</ele>
        <time>2010-01-01T12:12:25Z</time>
      </trkpt>
      <trkpt lat="45.83666000" lon="11.73590000">
        <ele>1003.0000</ele>
        <time>2010-01-01T12:12:34Z</time>
      </trkpt>
      <trkpt lat="45.83726000" lon="11.73620000">
        <ele>1005.0000</ele>
        <time>2010-01-01T12:13:00Z</time>
      </trkpt>
      <trkpt lat="45.83795000" lon="11.73668000">
        <ele>998.00000</ele>
        <time>2010-01-01T12:13:30Z</time>
      </trkpt>
      <trkpt lat="45.83916000" lon="11.73672000">
        <ele>996.00000</ele>
        <time>2010-01-01T12:14:19Z</time>
      </trkpt>
      <trkpt lat="45.84022000" lon="11.73768000">
        <ele>1007.0000</ele>
        <time>2010-01-01T12:15:09Z</time>
      </trkpt>
      <trkpt lat="45.84064000" lon="11.73858000">
        <ele>1005.0000</ele>
        <time>2010-01-01T12:15:39Z</time>
      </trkpt>
      <trkpt lat="45.84118000" lon="11.73906000">
        <ele>1013.0000</ele>
        <time>2010-01-01T12:16:05Z</time>
      </trkpt>
      <trkpt lat="45.84160000" lon="11.73992000">
        <ele>1007.0000</ele>
        <time>2010-01-01T12:16:34Z</time>
      </trkpt>
      <trkpt lat="45.84205000" lon="11.74036000">
        <ele>1008.0000</ele>
        <time>2010-01-01T12:16:56Z</time>
      </trkpt>
      <trkpt lat="45.84233000" lon="11.74048000">
        <ele>1011.0000</ele>
        <time>2010-01-01T12:17:07Z</time>
      </trkpt>
      <trkpt lat="45.84275000" lon="11.74048000">
        <ele>1022.0000</ele>
        <time>2010-01-01T12:17:24Z</time>
      </trkpt>
      <trkpt lat="45.84302000" lon="11.74187000">
        <ele>1013.0000</ele>
        <time>2010-01-01T12:18:04Z</time>
      </trkpt>
      <trkpt lat="45.84299000" lon="11.74269000">
        <ele>1004.0000</ele>
        <time>2010-01-01T12:18:27Z</time>
      </trkpt>
      <trkpt lat="45.84361990" lon="11.74382000">
        <ele>1011.0000</ele>
        <time>2010-01-01T12:19:08Z</time>
      </trkpt>
      <trkpt lat="45.84407000" lon="11.74438000">
        <ele>1016.0000</ele>
        <time>2010-01-01T12:19:31Z</time>
      </trkpt>
      <trkpt lat="45.84411000" lon="11.74442000">
        <ele>1016.0000</ele>
        <time>2010-01-01T12:19:33Z</time>
      </trkpt>
      <trkpt lat="45.84446000" lon="11.74485000">
        <ele>1011.0000</ele>
        <time>2010-01-01T12:19:52Z</time>
      </trkpt>
      <trkpt lat="45.84491000" lon="11.74511000">
        <ele>1011.0000</ele>
        <time>2010-01-01T12:20:11Z</time>
      </trkpt>
      <trkpt lat="45.84588000" lon="11.74438000">
        <ele>1022.0000</ele>
        <time>2010-01-01T12:20:55Z</time>
      </trkpt>
      <trkpt lat="45.84606000" lon="11.74425000">
        <ele>1020.0000</ele>
        <time>2010-01-01T12:21:03Z</time>
      </trkpt>
      <trkpt lat="45.84646000" lon="11.74368000">
        <ele>1017.0000</ele>
        <time>2010-01-01T12:21:26Z</time>
      </trkpt>
      <trkpt lat="45.84666000" lon="11.74330000">
        <ele>1014.0000</ele>
        <time>2010-01-01T12:21:39Z</time>
      </trkpt>
      <trkpt lat="45.84694000" lon="11.74321000">
        <ele>1019.0000</ele>
        <time>2010-01-01T12:21:50Z</time>
      </trkpt>
      <trkpt lat="45.84724000" lon="11.74356000">
        <ele>1019.0000</ele>
        <time>2010-01-01T12:22:06Z</time>
      </trkpt>
      <trkpt lat="45.84751000" lon="11.74403000">
        <ele>1014.0000</ele>
        <time>2010-01-01T12:22:23Z</time>
      </trkpt>
      <trkpt lat="45.84772000" lon="11.74399000">
        <ele>1013.0000</ele>
        <time>2010-01-01T12:22:31Z</time>
      </trkpt>
      <trkpt lat="45.84838000" lon="11.74356000">
        <ele>1021.0000</ele>
        <time>2010-01-01T12:23:00Z</time>
      </trkpt>
      <trkpt lat="45.84899000" lon="11.74295000">
        <ele>1029.0000</ele>
        <time>2010-01-01T12:23:30Z</time>
      </trkpt>
      <trkpt lat="45.85001000" lon="11.74269000">
        <ele>1028.0000</ele>
        <time>2010-01-01T12:24:12Z</time>
      </trkpt>
      <trkpt lat="45.85034000" lon="11.74286000">
        <ele>1016.0000</ele>
        <time>2010-01-01T12:24:26Z</time>
      </trkpt>
      <trkpt lat="45.85106990" lon="11.74243000">
        <ele>1017.0000</ele>
        <time>2010-01-01T12:24:57Z</time>
      </trkpt>
      <trkpt lat="45.85149000" lon="11.74170000">
        <ele>1025.0000</ele>
        <time>2010-01-01T12:25:24Z</time>
      </trkpt>
      <trkpt lat="45.85175000" lon="11.74100000">
        <ele>1030.0000</ele>
        <time>2010-01-01T12:25:46Z</time>
      </trkpt>
      <trkpt lat="45.85182000" lon="11.74088000">
        <ele>1030.0000</ele>
        <time>2010-01-01T12:25:50Z</time>
      </trkpt>
      <trkpt lat="45.85212000" lon="11.74027000">
        <ele>1029.0000</ele>
        <time>2010-01-01T12:26:11Z</time>
      </trkpt>
      <trkpt lat="45.85224000" lon="11.73966000">
        <ele>1030.0000</ele>
        <time>2010-01-01T12:26:29Z</time>
      </trkpt>
      <trkpt lat="45.85175000" lon="11.73863000">
        <ele>1045.0000</ele>
        <time>2010-01-01T12:27:03Z</time>
      </trkpt>
      <trkpt lat="45.85170000" lon="11.73849000">
        <ele>1046.0000</ele>
        <time>2010-01-01T12:27:08Z</time>
      </trkpt>
      <trkpt lat="45.85175000" lon="11.73837000">
        <ele>1044.0000</ele>
        <time>2010-01-01T12:27:12Z</time>
      </trkpt>
      <trkpt lat="45.85187000" lon="11.73823000">
        <ele>1043.0000</ele>
        <time>2010-01-01T12:27:18Z</time>
      </trkpt>
      <trkpt lat="45.85224000" lon="11.73797000">
        <ele>1037.0000</ele>
        <time>2010-01-01T12:27:34Z</time>
      </trkpt>
      <trkpt lat="45.85248000" lon="11.73746000">
        <ele>1036.0000</ele>
        <time>2010-01-01T12:27:52Z</time>
      </trkpt>
      <trkpt lat="45.85245000" lon="11.73694000">
        <ele>1040.0000</ele>
        <time>2010-01-01T12:28:06Z</time>
      </trkpt>
      <trkpt lat="45.85248000" lon="11.73660000">
        <ele>1041.0000</ele>
        <time>2010-01-01T12:28:16Z</time>
      </trkpt>
      <trkpt lat="45.85262990" lon="11.73638000">
        <ele>1042.0000</ele>
        <time>2010-01-01T12:28:24Z</time>
      </trkpt>
      <trkpt lat="45.85353000" lon="11.73560000">
        <ele>1052.0000</ele>
        <time>2010-01-01T12:29:06Z</time>
      </trkpt>
      <trkpt lat="45.85383000" lon="11.73547000">
        <ele>1049.0000</ele>
        <time>2010-01-01T12:29:19Z</time>
      </trkpt>
      <trkpt lat="45.85410000" lon="11.73503000">
        <ele>1056.0000</ele>
        <time>2010-01-01T12:29:35Z</time>
      </trkpt>
      <trkpt lat="45.85447000" lon="11.73495000">
        <ele>1053.0000</ele>
        <time>2010-01-01T12:29:50Z</time>
      </trkpt>
      <trkpt lat="45.85480000" lon="11.73456000">
        <ele>1063.0000</ele>
        <time>2010-01-01T12:30:07Z</time>
      </trkpt>
      <trkpt lat="45.85525000" lon="11.73469000">
        <ele>1059.0000</ele>
        <time>2010-01-01T12:30:26Z</time>
      </trkpt>
      <trkpt lat="45.85573000" lon="11.73508000">
        <ele>1053.0000</ele>
        <time>2010-01-01T12:30:48Z</time>
      </trkpt>
      <trkpt lat="45.85606000" lon="11.73495000">
        <ele>1055.0000</ele>
        <time>2010-01-01T12:31:01Z</time>
      </trkpt>
      <trkpt lat="45.85652000" lon="11.73421000">
        <ele>1064.0000</ele>
        <time>2010-01-01T12:31:29Z</time>
      </trkpt>
      <trkpt lat="45.85682000" lon="11.73404000">
        <ele>1063.0000</ele>
        <time>2010-01-01T12:31:42Z</time>
      </trkpt>
      <trkpt lat="45.85712000" lon="11.73352000">
        <ele>1065.0000</ele>
        <time>2010-01-01T12:32:01Z</time>
      </trkpt>
      <trkpt lat="45.85727000" lon="11.73352000">
        <ele>1062.0000</ele>
        <time>2010-01-01T12:32:07Z</time>
      </trkpt>
      <trkpt lat="45.85757000" lon="11.73366000">
        <ele>1057.0000</ele>
        <time>2010-01-01T12:32:19Z</time>
      </trkpt>
      <trkpt lat="45.85787000" lon="11.73340000">
        <ele>1059.0000</ele>
        <time>2010-01-01T12:32:34Z</time>
      </trkpt>
      <trkpt lat="45.85834990" lon="11.73309000">
        <ele>1061.0000</ele>
        <time>2010-01-01T12:32:55Z</time>
      </trkpt>
      <trkpt lat="45.85850000" lon="11.73192000">
        <ele>1068.0000</ele>
        <time>2010-01-01T12:33:28Z</time>
      </trkpt>
      <trkpt lat="45.85868000" lon="11.73197000">
        <ele>1070.0000</ele>
        <time>2010-01-01T12:33:35Z</time>
      </trkpt>
      <trkpt lat="45.85881000" lon="11.73244000">
        <ele>1072.0000</ele>
        <time>2010-01-01T12:33:49Z</time>
      </trkpt>
      <trkpt lat="45.85916000" lon="11.73309000">
        <ele>1077.0000</ele>
        <time>2010-01-01T12:34:12Z</time>
      </trkpt>
      <trkpt lat="45.85905000" lon="11.73340000">
        <ele>1076.0000</ele>
        <time>2010-01-01T12:34:22Z</time>
      </trkpt>
      <trkpt lat="45.85896000" lon="11.73357000">
        <ele>1076.0000</ele>
        <time>2010-01-01T12:34:28Z</time>
      </trkpt>
      <trkpt lat="45.85841000" lon="11.73599000">
        <ele>1083.0000</ele>
        <time>2010-01-01T12:35:39Z</time>
      </trkpt>
      <trkpt lat="45.85850000" lon="11.73694000">
        <ele>1093.0000</ele>
        <time>2010-01-01T12:36:05Z</time>
      </trkpt>
      <trkpt lat="45.85820000" lon="11.73750000">
        <ele>1092.0000</ele>
        <time>2010-01-01T12:36:25Z</time>
      </trkpt>
      <trkpt lat="45.85805000" lon="11.73854000">
        <ele>1096.0000</ele>
        <time>2010-01-01T12:36:55Z</time>
      </trkpt>
      <trkpt lat="45.85829000" lon="11.73957000">
        <ele>1101.0000</ele>
        <time>2010-01-01T12:37:25Z</time>
      </trkpt>
      <trkpt lat="45.85866000" lon="11.74036000">
        <ele>1104.0000</ele>
        <time>2010-01-01T12:37:52Z</time>
      </trkpt>
      <trkpt lat="45.85908000" lon="11.74074000">
        <ele>1113.0000</ele>
        <time>2010-01-01T12:38:11Z</time>
      </trkpt>
      <trkpt lat="45.85912000" lon="11.74126000">
        <ele>1110.0000</ele>
        <time>2010-01-01T12:38:26Z</time>
      </trkpt>
      <trkpt lat="45.85910000" lon="11.74126000">
        <ele>1109.0000</ele>
        <time>2010-01-01T12:38:27Z</time>
      </trkpt>
      <trkpt lat="45.85912000" lon="11.74126000">
        <ele>1110.0000</ele>
        <time>2010-01-01T12:38:28Z</time>
      </trkpt>
      <trkpt lat="45.85912990" lon="11.74139000">
        <ele>1109.0000</ele>
        <time>2010-01-01T12:38:31Z</time>
      </trkpt>
      <trkpt lat="45.85938000" lon="11.74187000">
        <ele>1115.0000</ele>
        <time>2010-01-01T12:38:48Z</time>
      </trkpt>
      <trkpt lat="45.85940990" lon="11.74196000">
        <ele>1116.0000</ele>
        <time>2010-01-01T12:38:51Z</time>
      </trkpt>
      <trkpt lat="45.85959000" lon="11.74234000">
        <ele>1123.0000</ele>
        <time>2010-01-01T12:39:04Z</time>
      </trkpt>
      <trkpt lat="45.86004000" lon="11.74295000">
        <ele>1128.0000</ele>
        <time>2010-01-01T12:39:28Z</time>
      </trkpt>
      <trkpt lat="45.86040000" lon="11.74438000">
        <ele>1143.0000</ele>
        <time>2010-01-01T12:40:11Z</time>
      </trkpt>
      <trkpt lat="45.86040000" lon="11.74442000">
        <ele>1143.0000</ele>
        <time>2010-01-01T12:40:12Z</time>
      </trkpt>
      <trkpt lat="45.86034000" lon="11.74451000">
        <ele>1143.0000</ele>
        <time>2010-01-01T12:40:15Z</time>
      </trkpt>
      <trkpt lat="45.86019000" lon="11.74438000">
        <ele>1139.0000</ele>
        <time>2010-01-01T12:40:22Z</time>
      </trkpt>
      <trkpt lat="45.85995000" lon="11.74416000">
        <ele>1131.0000</ele>
        <time>2010-01-01T12:40:34Z</time>
      </trkpt>
      <trkpt lat="45.85940990" lon="11.74429000">
        <ele>1135.0000</ele>
        <time>2010-01-01T12:40:56Z</time>
      </trkpt>
      <trkpt lat="45.85912990" lon="11.74438000">
        <ele>1138.0000</ele>
        <time>2010-01-01T12:41:07Z</time>
      </trkpt>
      <trkpt lat="45.85890000" lon="11.74447000">
        <ele>1141.0000</ele>
        <time>2010-01-01T12:41:17Z</time>
      </trkpt>
      <trkpt lat="45.85859000" lon="11.74464000">
        <ele>1145.0000</ele>
        <time>2010-01-01T12:41:30Z</time>
      </trkpt>
      <trkpt lat="45.85850000" lon="11.74525000">
        <ele>1148.0000</ele>
        <time>2010-01-01T12:41:47Z</time>
      </trkpt>
      <trkpt lat="45.85837990" lon="11.74762000">
        <ele>1156.0000</ele>
        <time>2010-01-01T12:42:54Z</time>
      </trkpt>
      <trkpt lat="45.85833000" lon="11.74819000">
        <ele>1159.0000</ele>
        <time>2010-01-01T12:43:10Z</time>
      </trkpt>
      <trkpt lat="45.85856000" lon="11.74927000">
        <ele>1171.0000</ele>
        <time>2010-01-01T12:43:41Z</time>
      </trkpt>
      <trkpt lat="45.85871000" lon="11.74965000">
        <ele>1179.0000</ele>
        <time>2010-01-01T12:43:53Z</time>
      </trkpt>
      <trkpt lat="45.85862990" lon="11.75091000">
        <ele>1179.0000</ele>
        <time>2010-01-01T12:44:29Z</time>
      </trkpt>
      <trkpt lat="45.85862990" lon="11.75117000">
        <ele>1181.0000</ele>
        <time>2010-01-01T12:44:36Z</time>
      </trkpt>
      <trkpt lat="45.85837990" lon="11.75225000">
        <ele>1182.0000</ele>
        <time>2010-01-01T12:45:08Z</time>
      </trkpt>
      <trkpt lat="45.85837990" lon="11.75303000">
        <ele>1188.0000</ele>
        <time>2010-01-01T12:45:29Z</time>
      </trkpt>
      <trkpt lat="45.85874000" lon="11.75537000">
        <ele>1207.0000</ele>
        <time>2010-01-01T12:46:36Z</time>
      </trkpt>
      <trkpt lat="45.85890000" lon="11.75627000">
        <ele>1214.0000</ele>
        <time>2010-01-01T12:47:02Z</time>
      </trkpt>
      <trkpt lat="45.85905000" lon="11.75796000">
        <ele>1218.0000</ele>
        <time>2010-01-01T12:47:49Z</time>
      </trkpt>
      <trkpt lat="45.85940990" lon="11.75874000">
        <ele>1227.0000</ele>
        <time>2010-01-01T12:48:16Z</time>
      </trkpt>
      <trkpt lat="45.86012990" lon="11.76046000">
        <ele>1231.0000</ele>
        <time>2010-01-01T12:49:11Z</time>
      </trkpt>
      <trkpt lat="45.86061000" lon="11.76103000">
        <ele>1237.0000</ele>
        <time>2010-01-01T12:49:36Z</time>
      </trkpt>
      <trkpt lat="45.86139000" lon="11.76099000">
        <ele>1252.0000</ele>
        <time>2010-01-01T12:50:08Z</time>
      </trkpt>
      <trkpt lat="45.86161000" lon="11.76129000">
        <ele>1249.0000</ele>
        <time>2010-01-01T12:50:20Z</time>
      </trkpt>
      <trkpt lat="45.86173000" lon="11.76151000">
        <ele>1246.0000</ele>
        <time>2010-01-01T12:50:28Z</time>
      </trkpt>
      <trkpt lat="45.86236000" lon="11.76155000">
        <ele>1251.0000</ele>
        <time>2010-01-01T12:50:53Z</time>
      </trkpt>
      <trkpt lat="45.86275000" lon="11.76194000">
        <ele>1255.0000</ele>
        <time>2010-01-01T12:51:12Z</time>
      </trkpt>
      <trkpt lat="45.86301990" lon="11.76211000">
        <ele>1261.0000</ele>
        <time>2010-01-01T12:51:24Z</time>
      </trkpt>
      <trkpt lat="45.86335000" lon="11.76315000">
        <ele>1262.0000</ele>
        <time>2010-01-01T12:51:56Z</time>
      </trkpt>
      <trkpt lat="45.86365000" lon="11.76345000">
        <ele>1268.0000</ele>
        <time>2010-01-01T12:52:10Z</time>
      </trkpt>
      <trkpt lat="45.86404000" lon="11.76359000">
        <ele>1276.0000</ele>
        <time>2010-01-01T12:52:26Z</time>
      </trkpt>
      <trkpt lat="45.86440990" lon="11.76419000">
        <ele>1279.0000</ele>
        <time>2010-01-01T12:52:49Z</time>
      </trkpt>
      <trkpt lat="45.86447000" lon="11.76440000">
        <ele>1282.0000</ele>
        <time>2010-01-01T12:52:55Z</time>
      </trkpt>
      <trkpt lat="45.86435000" lon="11.76454000">
        <ele>1280.0000</ele>
        <time>2010-01-01T12:53:01Z</time>
      </trkpt>
      <trkpt lat="45.86414000" lon="11.76466000">
        <ele>1278.0000</ele>
        <time>2010-01-01T12:53:10Z</time>
      </trkpt>
      <trkpt lat="45.86396000" lon="11.76449000">
        <ele>1276.0000</ele>
        <time>2010-01-01T12:53:19Z</time>
      </trkpt>
      <trkpt lat="45.86356000" lon="11.76454000">
        <ele>1279.0000</ele>
        <time>2010-01-01T12:53:35Z</time>
      </trkpt>
      <trkpt lat="45.86307990" lon="11.76488000">
        <ele>1289.0000</ele>
        <time>2010-01-01T12:53:56Z</time>
      </trkpt>
      <trkpt lat="45.86278000" lon="11.76440000">
        <ele>1277.0000</ele>
        <time>2010-01-01T12:54:14Z</time>
      </trkpt>
      <trkpt lat="45.86248000" lon="11.76454000">
        <ele>1282.0000</ele>
        <time>2010-01-01T12:54:27Z</time>
      </trkpt>
      <trkpt lat="45.86184000" lon="11.76523000">
        <ele>1295.0000</ele>
        <time>2010-01-01T12:54:59Z</time>
      </trkpt>
      <trkpt lat="45.86143000" lon="11.76636000">
        <ele>1301.0000</ele>
        <time>2010-01-01T12:55:34Z</time>
      </trkpt>
      <trkpt lat="45.86134000" lon="11.76665000">
        <ele>1304.0000</ele>
        <time>2010-01-01T12:55:43Z</time>
      </trkpt>
      <trkpt lat="45.86139000" lon="11.76705000">
        <ele>1303.0000</ele>
        <time>2010-01-01T12:55:55Z</time>
      </trkpt>
      <trkpt lat="45.86212000" lon="11.76739000">
        <ele>1321.0000</ele>
        <time>2010-01-01T12:56:25Z</time>
      </trkpt>
      <trkpt lat="45.86212000" lon="11.76804000">
        <ele>1322.0000</ele>
        <time>2010-01-01T12:56:43Z</time>
      </trkpt>
      <trkpt lat="45.86236000" lon="11.76847000">
        <ele>1330.0000</ele>
        <time>2010-01-01T12:56:59Z</time>
      </trkpt>
      <trkpt lat="45.86221000" lon="11.76873000">
        <ele>1329.0000</ele>
        <time>2010-01-01T12:57:08Z</time>
      </trkpt>
      <trkpt lat="45.86193990" lon="11.76921000">
        <ele>1324.0000</ele>
        <time>2010-01-01T12:57:25Z</time>
      </trkpt>
      <trkpt lat="45.86206000" lon="11.76994000">
        <ele>1336.0000</ele>
        <time>2010-01-01T12:57:46Z</time>
      </trkpt>
      <trkpt lat="45.86169000" lon="11.77081000">
        <ele>1334.0000</ele>
        <time>2010-01-01T12:58:15Z</time>
      </trkpt>
      <trkpt lat="45.86166000" lon="11.77154000">
        <ele>1340.0000</ele>
        <time>2010-01-01T12:58:35Z</time>
      </trkpt>
      <trkpt lat="45.86149000" lon="11.77206000">
        <ele>1337.0000</ele>
        <time>2010-01-01T12:58:51Z</time>
      </trkpt>
      <trkpt lat="45.86161000" lon="11.77288000">
        <ele>1349.0000</ele>
        <time>2010-01-01T12:59:15Z</time>
      </trkpt>
      <trkpt lat="45.86182000" lon="11.77366000">
        <ele>1361.0000</ele>
        <time>2010-01-01T12:59:38Z</time>
      </trkpt>
      <trkpt lat="45.86173000" lon="11.77478000">
        <ele>1361.0000</ele>
        <time>2010-01-01T13:00:09Z</time>
      </trkpt>
      <trkpt lat="45.86209000" lon="11.77595000">
        <ele>1367.0000</ele>
        <time>2010-01-01T13:00:45Z</time>
      </trkpt>
      <trkpt lat="45.86293000" lon="11.77699000">
        <ele>1377.0000</ele>
        <time>2010-01-01T13:01:29Z</time>
      </trkpt>
      <trkpt lat="45.86339000" lon="11.77721000">
        <ele>1386.0000</ele>
        <time>2010-01-01T13:01:49Z</time>
      </trkpt>
      <trkpt lat="45.86347000" lon="11.77734000">
        <ele>1384.0000</ele>
        <time>2010-01-01T13:01:54Z</time>
      </trkpt>
      <trkpt lat="45.86368990" lon="11.77772000">
        <ele>1382.0000</ele>
        <time>2010-01-01T13:02:07Z</time>
      </trkpt>
      <trkpt lat="45.86377000" lon="11.77777000">
        <ele>1382.0000</ele>
        <time>2010-01-01T13:02:11Z</time>
      </trkpt>
      <trkpt lat="45.86422000" lon="11.77760000">
        <ele>1388.0000</ele>
        <time>2010-01-01T13:02:29Z</time>
      </trkpt>
      <trkpt lat="45.86440990" lon="11.77734000">
        <ele>1391.0000</ele>
        <time>2010-01-01T13:02:40Z</time>
      </trkpt>
      <trkpt lat="45.86588000" lon="11.77504000">
        <ele>1413.0000</ele>
        <time>2010-01-01T13:04:07Z</time>
      </trkpt>
      <trkpt lat="45.86625000" lon="11.77435000">
        <ele>1429.0000</ele>
        <time>2010-01-01T13:04:31Z</time>
      </trkpt>
      <trkpt lat="45.86634000" lon="11.77401000">
        <ele>1436.0000</ele>
        <time>2010-01-01T13:04:41Z</time>
      </trkpt>
      <trkpt lat="45.86660000" lon="11.77401000">
        <ele>1432.0000</ele>
        <time>2010-01-01T13:04:52Z</time>
      </trkpt>
      <trkpt lat="45.86691000" lon="11.77466000">
        <ele>1431.0000</ele>
        <time>2010-01-01T13:05:14Z</time>
      </trkpt>
      <trkpt lat="45.86697000" lon="11.77591000">
        <ele>1432.0000</ele>
        <time>2010-01-01T13:05:49Z</time>
      </trkpt>
      <trkpt lat="45.86675000" lon="11.77708000">
        <ele>1438.0000</ele>
        <time>2010-01-01T13:06:22Z</time>
      </trkpt>
      <trkpt lat="45.86672000" lon="11.77734000">
        <ele>1441.0000</ele>
        <time>2010-01-01T13:06:30Z</time>
      </trkpt>
      <trkpt lat="45.86657000" lon="11.77833000">
        <ele>1442.0000</ele>
        <time>2010-01-01T13:06:58Z</time>
      </trkpt>
      <trkpt lat="45.86651990" lon="11.77900000">
        <ele>1446.0000</ele>
        <time>2010-01-01T13:07:17Z</time>
      </trkpt>
      <trkpt lat="45.86639000" lon="11.77899000">
        <ele>1441.0000</ele>
        <time>2010-01-01T13:07:22Z</time>
      </trkpt>
      <trkpt lat="45.86651990" lon="11.77900000">
        <ele>1446.0000</ele>
        <time>2010-01-01T13:07:27Z</time>
      </trkpt>
      <trkpt lat="45.86649000" lon="11.77946000">
        <ele>1450.0000</ele>
        <time>2010-01-01T13:07:40Z</time>
      </trkpt>
      <trkpt lat="45.86637000" lon="11.77984000">
        <ele>1448.0000</ele>
        <time>2010-01-01T13:07:52Z</time>
      </trkpt>
      <trkpt lat="45.86651990" lon="11.78092000">
        <ele>1458.0000</ele>
        <time>2010-01-01T13:08:22Z</time>
      </trkpt>
      <trkpt lat="45.86664000" lon="11.78154000">
        <ele>1464.0000</ele>
        <time>2010-01-01T13:08:40Z</time>
      </trkpt>
      <trkpt lat="45.86655000" lon="11.78205000">
        <ele>1459.0000</ele>
        <time>2010-01-01T13:08:55Z</time>
      </trkpt>
      <trkpt lat="45.86685000" lon="11.78261000">
        <ele>1466.0000</ele>
        <time>2010-01-01T13:09:15Z</time>
      </trkpt>
      <trkpt lat="45.86706000" lon="11.78283000">
        <ele>1470.0000</ele>
        <time>2010-01-01T13:09:25Z</time>
      </trkpt>
      <trkpt lat="45.86778000" lon="11.78357000">
        <ele>1483.0000</ele>
        <time>2010-01-01T13:10:01Z</time>
      </trkpt>
      <trkpt lat="45.86784000" lon="11.78386000">
        <ele>1484.0000</ele>
        <time>2010-01-01T13:10:09Z</time>
      </trkpt>
      <trkpt lat="45.86754000" lon="11.78434000">
        <ele>1478.0000</ele>
        <time>2010-01-01T13:10:27Z</time>
      </trkpt>
      <trkpt lat="45.86754000" lon="11.78547000">
        <ele>1492.0000</ele>
        <time>2010-01-01T13:10:59Z</time>
      </trkpt>
      <trkpt lat="45.86721000" lon="11.78625000">
        <ele>1489.0000</ele>
        <time>2010-01-01T13:11:24Z</time>
      </trkpt>
      <trkpt lat="45.86718000" lon="11.78655000">
        <ele>1492.0000</ele>
        <time>2010-01-01T13:11:32Z</time>
      </trkpt>
      <trkpt lat="45.86742000" lon="11.78716000">
        <ele>1495.0000</ele>
        <time>2010-01-01T13:11:52Z</time>
      </trkpt>
      <trkpt lat="45.86847000" lon="11.78733000">
        <ele>1510.0000</ele>
        <time>2010-01-01T13:12:34Z</time>
      </trkpt>
      <trkpt lat="45.86913000" lon="11.78828000">
        <ele>1521.0000</ele>
        <time>2010-01-01T13:13:12Z</time>
      </trkpt>
      <trkpt lat="45.86910000" lon="11.78833000">
        <ele>1520.0000</ele>
        <time>2010-01-01T13:13:13Z</time>
      </trkpt>
      <trkpt lat="45.86902000" lon="11.78859000">
        <ele>1522.0000</ele>
        <time>2010-01-01T13:13:21Z</time>
      </trkpt>
      <trkpt lat="45.86853000" lon="11.78867000">
        <ele>1512.0000</ele>
        <time>2010-01-01T13:13:41Z</time>
      </trkpt>
      <trkpt lat="45.86847000" lon="11.78893000">
        <ele>1515.0000</ele>
        <time>2010-01-01T13:13:49Z</time>
      </trkpt>
      <trkpt lat="45.86925000" lon="11.78876000">
        <ele>1531.0000</ele>
        <time>2010-01-01T13:14:20Z</time>
      </trkpt>
      <trkpt lat="45.86932000" lon="11.78833000">
        <ele>1531.0000</ele>
        <time>2010-01-01T13:14:33Z</time>
      </trkpt>
      <trkpt lat="45.86943000" lon="11.78742000">
        <ele>1537.0000</ele>
        <time>2010-01-01T13:14:58Z</time>
      </trkpt>
      <trkpt lat="45.86953000" lon="11.78725000">
        <ele>1542.0000</ele>
        <time>2010-01-01T13:15:05Z</time>
      </trkpt>
      <trkpt lat="45.86932000" lon="11.78586000">
        <ele>1542.0000</ele>
        <time>2010-01-01T13:15:44Z</time>
      </trkpt>
      <trkpt lat="45.86947000" lon="11.78586000">
        <ele>1545.0000</ele>
        <time>2010-01-01T13:15:50Z</time>
      </trkpt>
      <trkpt lat="45.86953000" lon="11.78646000">
        <ele>1545.0000</ele>
        <time>2010-01-01T13:16:07Z</time>
      </trkpt>
      <trkpt lat="45.86983000" lon="11.78707000">
        <ele>1555.0000</ele>
        <time>2010-01-01T13:16:28Z</time>
      </trkpt>
      <trkpt lat="45.86992000" lon="11.78833000">
        <ele>1564.0000</ele>
        <time>2010-01-01T13:17:03Z</time>
      </trkpt>
      <trkpt lat="45.87001000" lon="11.78936000">
        <ele>1571.0000</ele>
        <time>2010-01-01T13:17:32Z</time>
      </trkpt>
      <trkpt lat="45.87025000" lon="11.79088000">
        <ele>1582.0000</ele>
        <time>2010-01-01T13:18:16Z</time>
      </trkpt>
      <trkpt lat="45.87022000" lon="11.79139000">
        <ele>1587.0000</ele>
        <time>2010-01-01T13:18:30Z</time>
      </trkpt>
      <trkpt lat="45.86890000" lon="11.79252000">
        <ele>1588.0000</ele>
        <time>2010-01-01T13:19:31Z</time>
      </trkpt>
      <trkpt lat="45.86860000" lon="11.79282000">
        <ele>1585.0000</ele>
        <time>2010-01-01T13:19:46Z</time>
      </trkpt>
      <trkpt lat="45.86841000" lon="11.79386000">
        <ele>1598.0000</ele>
        <time>2010-01-01T13:20:16Z</time>
      </trkpt>
      <trkpt lat="45.86841000" lon="11.79512000">
        <ele>1614.0000</ele>
        <time>2010-01-01T13:20:51Z</time>
      </trkpt>
      <trkpt lat="45.86814000" lon="11.79546000">
        <ele>1616.0000</ele>
        <time>2010-01-01T13:21:06Z</time>
      </trkpt>
      <trkpt lat="45.86793000" lon="11.79607000">
        <ele>1620.0000</ele>
        <time>2010-01-01T13:21:25Z</time>
      </trkpt>
      <trkpt lat="45.86775000" lon="11.79633000">
        <ele>1617.0000</ele>
        <time>2010-01-01T13:21:35Z</time>
      </trkpt>
      <trkpt lat="45.86739000" lon="11.79767000">
        <ele>1632.0000</ele>
        <time>2010-01-01T13:22:15Z</time>
      </trkpt>
      <trkpt lat="45.86706000" lon="11.79789000">
        <ele>1634.0000</ele>
        <time>2010-01-01T13:22:29Z</time>
      </trkpt>
      <trkpt lat="45.86592000" lon="11.79861000">
        <ele>1641.0000</ele>
        <time>2010-01-01T13:23:19Z</time>
      </trkpt>
      <trkpt lat="45.86585000" lon="11.79923000">
        <ele>1646.0000</ele>
        <time>2010-01-01T13:23:37Z</time>
      </trkpt>
      <trkpt lat="45.86585000" lon="11.79931000">
        <ele>1645.0000</ele>
        <time>2010-01-01T13:23:39Z</time>
      </trkpt>
      <trkpt lat="45.86592000" lon="11.79957000">
        <ele>1642.0000</ele>
        <time>2010-01-01T13:23:47Z</time>
      </trkpt>
      <trkpt lat="45.86634000" lon="11.79987000">
        <ele>1647.0000</ele>
        <time>2010-01-01T13:24:05Z</time>
      </trkpt>
      <trkpt lat="45.86682000" lon="11.79987000">
        <ele>1657.0000</ele>
        <time>2010-01-01T13:24:25Z</time>
      </trkpt>
      <trkpt lat="45.86706000" lon="11.79983000">
        <ele>1660.0000</ele>
        <time>2010-01-01T13:24:34Z</time>
      </trkpt>
      <trkpt lat="45.86745000" lon="11.79978000">
        <ele>1666.0000</ele>
        <time>2010-01-01T13:24:50Z</time>
      </trkpt>
      <trkpt lat="45.86807990" lon="11.80004000">
        <ele>1676.0000</ele>
        <time>2010-01-01T13:25:16Z</time>
      </trkpt>
      <trkpt lat="45.86847000" lon="11.80052000">
        <ele>1674.0000</ele>
        <time>2010-01-01T13:25:37Z</time>
      </trkpt>
      <trkpt lat="45.86856000" lon="11.80078000">
        <ele>1672.0000</ele>
        <time>2010-01-01T13:25:45Z</time>
      </trkpt>
      <trkpt lat="45.86868000" lon="11.80134000">
        <ele>1662.0000</ele>
        <time>2010-01-01T13:26:01Z</time>
      </trkpt>
      <trkpt lat="45.86793000" lon="11.80043000">
        <ele>1660.0000</ele>
        <time>2010-01-01T13:26:41Z</time>
      </trkpt>
      <trkpt lat="45.86748000" lon="11.80030000">
        <ele>1653.0000</ele>
        <time>2010-01-01T13:26:59Z</time>
      </trkpt>
      <trkpt lat="45.86706000" lon="11.80052000">
        <ele>1642.0000</ele>
        <time>2010-01-01T13:27:17Z</time>
      </trkpt>
      <trkpt lat="45.86706000" lon="11.80048000">
        <ele>1643.0000</ele>
        <time>2010-01-01T13:27:18Z</time>
      </trkpt>
      <trkpt lat="45.86679000" lon="11.80035000">
        <ele>1644.0000</ele>
        <time>2010-01-01T13:27:29Z</time>
      </trkpt>
      <trkpt lat="45.86640000" lon="11.80048000">
        <ele>1631.0000</ele>
        <time>2010-01-01T13:27:45Z</time>
      </trkpt>
      <trkpt lat="45.86507000" lon="11.79992000">
        <ele>1619.0000</ele>
        <time>2010-01-01T13:28:41Z</time>
      </trkpt>
      <trkpt lat="45.86492000" lon="11.79996000">
        <ele>1617.0000</ele>
        <time>2010-01-01T13:28:47Z</time>
      </trkpt>
      <trkpt lat="45.86462000" lon="11.80121000">
        <ele>1603.0000</ele>
        <time>2010-01-01T13:29:24Z</time>
      </trkpt>
      <trkpt lat="45.86476990" lon="11.80217000">
        <ele>1586.0000</ele>
        <time>2010-01-01T13:29:51Z</time>
      </trkpt>
      <trkpt lat="45.86474000" lon="11.80269000">
        <ele>1578.0000</ele>
        <time>2010-01-01T13:30:06Z</time>
      </trkpt>
      <trkpt lat="45.86407000" lon="11.80264000">
        <ele>1591.0000</ele>
        <time>2010-01-01T13:30:33Z</time>
      </trkpt>
      <trkpt lat="45.86356000" lon="11.80286000">
        <ele>1581.0000</ele>
        <time>2010-01-01T13:30:54Z</time>
      </trkpt>
      <trkpt lat="45.86314000" lon="11.80294000">
        <ele>1578.0000</ele>
        <time>2010-01-01T13:31:11Z</time>
      </trkpt>
      <trkpt lat="45.86296000" lon="11.80264000">
        <ele>1582.0000</ele>
        <time>2010-01-01T13:31:22Z</time>
      </trkpt>
      <trkpt lat="45.86287000" lon="11.80251000">
        <ele>1583.0000</ele>
        <time>2010-01-01T13:31:27Z</time>
      </trkpt>
      <trkpt lat="45.86265990" lon="11.80247000">
        <ele>1582.0000</ele>
        <time>2010-01-01T13:31:36Z</time>
      </trkpt>
      <trkpt lat="45.86229990" lon="11.80269000">
        <ele>1574.0000</ele>
        <time>2010-01-01T13:31:51Z</time>
      </trkpt>
      <trkpt lat="45.86215000" lon="11.80264000">
        <ele>1571.0000</ele>
        <time>2010-01-01T13:31:57Z</time>
      </trkpt>
      <trkpt lat="45.86206000" lon="11.80260000">
        <ele>1570.0000</ele>
        <time>2010-01-01T13:32:01Z</time>
      </trkpt>
      <trkpt lat="45.86200000" lon="11.80156000">
        <ele>1571.0000</ele>
        <time>2010-01-01T13:32:30Z</time>
      </trkpt>
      <trkpt lat="45.86212000" lon="11.80117000">
        <ele>1572.0000</ele>
        <time>2010-01-01T13:32:42Z</time>
      </trkpt>
      <trkpt lat="45.86200000" lon="11.80061000">
        <ele>1567.0000</ele>
        <time>2010-01-01T13:32:58Z</time>
      </trkpt>
      <trkpt lat="45.86169000" lon="11.80035000">
        <ele>1561.0000</ele>
        <time>2010-01-01T13:33:13Z</time>
      </trkpt>
      <trkpt lat="45.86149000" lon="11.79970000">
        <ele>1556.0000</ele>
        <time>2010-01-01T13:33:33Z</time>
      </trkpt>
      <trkpt lat="45.86149000" lon="11.79931000">
        <ele>1558.0000</ele>
        <time>2010-01-01T13:33:44Z</time>
      </trkpt>
      <trkpt lat="45.86121000" lon="11.79896000">
        <ele>1550.0000</ele>
        <time>2010-01-01T13:33:58Z</time>
      </trkpt>
      <trkpt lat="45.86090990" lon="11.79815000">
        <ele>1545.0000</ele>
        <time>2010-01-01T13:34:24Z</time>
      </trkpt>
      <trkpt lat="45.86079000" lon="11.79815000">
        <ele>1541.0000</ele>
        <time>2010-01-01T13:34:29Z</time>
      </trkpt>
      <trkpt lat="45.86103000" lon="11.79931000">
        <ele>1542.0000</ele>
        <time>2010-01-01T13:35:02Z</time>
      </trkpt>
      <trkpt lat="45.86103000" lon="11.79961000">
        <ele>1542.0000</ele>
        <time>2010-01-01T13:35:11Z</time>
      </trkpt>
      <trkpt lat="45.86052000" lon="11.79975000">
        <ele>1529.0000</ele>
        <time>2010-01-01T13:35:32Z</time>
      </trkpt>
      <trkpt lat="45.86016000" lon="11.80035000">
        <ele>1521.0000</ele>
        <time>2010-01-01T13:35:54Z</time>
      </trkpt>
      <trkpt lat="45.86001000" lon="11.80069000">
        <ele>1517.0000</ele>
        <time>2010-01-01T13:36:05Z</time>
      </trkpt>
      <trkpt lat="45.86019000" lon="11.80156000">
        <ele>1516.0000</ele>
        <time>2010-01-01T13:36:30Z</time>
      </trkpt>
      <trkpt lat="45.86004000" lon="11.80173000">
        <ele>1510.0000</ele>
        <time>2010-01-01T13:36:38Z</time>
      </trkpt>
      <trkpt lat="45.85992000" lon="11.80238000">
        <ele>1509.0000</ele>
        <time>2010-01-01T13:36:57Z</time>
      </trkpt>
      <trkpt lat="45.85940990" lon="11.80238000">
        <ele>1495.0000</ele>
        <time>2010-01-01T13:37:17Z</time>
      </trkpt>
      <trkpt lat="45.85929000" lon="11.80238000">
        <ele>1491.0000</ele>
        <time>2010-01-01T13:37:22Z</time>
      </trkpt>
      <trkpt lat="45.85908000" lon="11.80264000">
        <ele>1489.0000</ele>
        <time>2010-01-01T13:37:33Z</time>
      </trkpt>
      <trkpt lat="45.85901000" lon="11.80264000">
        <ele>1486.0000</ele>
        <time>2010-01-01T13:37:36Z</time>
      </trkpt>
      <trkpt lat="45.85908000" lon="11.80238000">
        <ele>1485.0000</ele>
        <time>2010-01-01T13:37:44Z</time>
      </trkpt>
      <trkpt lat="45.85938000" lon="11.80217000">
        <ele>1491.0000</ele>
        <time>2010-01-01T13:37:57Z</time>
      </trkpt>
      <trkpt lat="45.85940990" lon="11.80208000">
        <ele>1491.0000</ele>
        <time>2010-01-01T13:38:00Z</time>
      </trkpt>
      <trkpt lat="45.85901000" lon="11.80221000">
        <ele>1479.0000</ele>
        <time>2010-01-01T13:38:16Z</time>
      </trkpt>
      <trkpt lat="45.85886000" lon="11.80272000">
        <ele>1481.0000</ele>
        <time>2010-01-01T13:38:31Z</time>
      </trkpt>
      <trkpt lat="45.85837990" lon="11.80389000">
        <ele>1470.0000</ele>
        <time>2010-01-01T13:39:09Z</time>
      </trkpt>
      <trkpt lat="45.85808000" lon="11.80406000">
        <ele>1464.0000</ele>
        <time>2010-01-01T13:39:22Z</time>
      </trkpt>
      <trkpt lat="45.85790000" lon="11.80381000">
        <ele>1455.0000</ele>
        <time>2010-01-01T13:39:32Z</time>
      </trkpt>
      <trkpt lat="45.85772000" lon="11.80372000">
        <ele>1449.0000</ele>
        <time>2010-01-01T13:39:40Z</time>
      </trkpt>
      <trkpt lat="45.85739000" lon="11.80420000">
        <ele>1446.0000</ele>
        <time>2010-01-01T13:39:59Z</time>
      </trkpt>
      <trkpt lat="45.85733000" lon="11.80429000">
        <ele>1442.0000</ele>
        <time>2010-01-01T13:40:02Z</time>
      </trkpt>
      <trkpt lat="45.85703000" lon="11.80437000">
        <ele>1433.0000</ele>
        <time>2010-01-01T13:40:14Z</time>
      </trkpt>
      <trkpt lat="45.85697000" lon="11.80437000">
        <ele>1431.0000</ele>
        <time>2010-01-01T13:40:17Z</time>
      </trkpt>
      <trkpt lat="45.85676000" lon="11.80377000">
        <ele>1424.0000</ele>
        <time>2010-01-01T13:40:36Z</time>
      </trkpt>
      <trkpt lat="45.85663000" lon="11.80272000">
        <ele>1414.0000</ele>
        <time>2010-01-01T13:41:05Z</time>
      </trkpt>
      <trkpt lat="45.85636000" lon="11.80255000">
        <ele>1404.0000</ele>
        <time>2010-01-01T13:41:17Z</time>
      </trkpt>
      <trkpt lat="45.85630000" lon="11.80191000">
        <ele>1407.0000</ele>
        <time>2010-01-01T13:41:35Z</time>
      </trkpt>
      <trkpt lat="45.85613000" lon="11.80169000">
        <ele>1406.0000</ele>
        <time>2010-01-01T13:41:44Z</time>
      </trkpt>
      <trkpt lat="45.85609990" lon="11.80130000">
        <ele>1408.0000</ele>
        <time>2010-01-01T13:41:55Z</time>
      </trkpt>
      <trkpt lat="45.85609990" lon="11.80121000">
        <ele>1409.0000</ele>
        <time>2010-01-01T13:41:58Z</time>
      </trkpt>
      <trkpt lat="45.85564000" lon="11.80052000">
        <ele>1412.0000</ele>
        <time>2010-01-01T13:42:24Z</time>
      </trkpt>
      <trkpt lat="45.85495000" lon="11.79983000">
        <ele>1412.0000</ele>
        <time>2010-01-01T13:42:58Z</time>
      </trkpt>
      <trkpt lat="45.85465000" lon="11.79931000">
        <ele>1408.0000</ele>
        <time>2010-01-01T13:43:17Z</time>
      </trkpt>
      <trkpt lat="45.85455000" lon="11.79909000">
        <ele>1406.0000</ele>
        <time>2010-01-01T13:43:24Z</time>
      </trkpt>
      <trkpt lat="45.85450000" lon="11.79879000">
        <ele>1402.0000</ele>
        <time>2010-01-01T13:43:33Z</time>
      </trkpt>
      <trkpt lat="45.85477000" lon="11.79827000">
        <ele>1400.0000</ele>
        <time>2010-01-01T13:43:51Z</time>
      </trkpt>
      <trkpt lat="45.85504000" lon="11.79753000">
        <ele>1391.0000</ele>
        <time>2010-01-01T13:44:14Z</time>
      </trkpt>
      <trkpt lat="45.85489000" lon="11.79710000">
        <ele>1389.0000</ele>
        <time>2010-01-01T13:44:27Z</time>
      </trkpt>
      <trkpt lat="45.85429000" lon="11.79698000">
        <ele>1377.0000</ele>
        <time>2010-01-01T13:44:52Z</time>
      </trkpt>
      <trkpt lat="45.85392000" lon="11.79663000">
        <ele>1369.0000</ele>
        <time>2010-01-01T13:45:09Z</time>
      </trkpt>
      <trkpt lat="45.85383000" lon="11.79663000">
        <ele>1366.0000</ele>
        <time>2010-01-01T13:45:13Z</time>
      </trkpt>
      <trkpt lat="45.85412990" lon="11.79719000">
        <ele>1373.0000</ele>
        <time>2010-01-01T13:45:33Z</time>
      </trkpt>
      <trkpt lat="45.85417000" lon="11.79741000">
        <ele>1373.0000</ele>
        <time>2010-01-01T13:45:39Z</time>
      </trkpt>
      <trkpt lat="45.85380000" lon="11.79745000">
        <ele>1363.0000</ele>
        <time>2010-01-01T13:45:54Z</time>
      </trkpt>
      <trkpt lat="45.85332000" lon="11.79710000">
        <ele>1350.0000</ele>
        <time>2010-01-01T13:46:16Z</time>
      </trkpt>
      <trkpt lat="45.85328990" lon="11.79732000">
        <ele>1350.0000</ele>
        <time>2010-01-01T13:46:22Z</time>
      </trkpt>
      <trkpt lat="45.85323000" lon="11.79775000">
        <ele>1348.0000</ele>
        <time>2010-01-01T13:46:34Z</time>
      </trkpt>
      <trkpt lat="45.85302000" lon="11.79784000">
        <ele>1342.0000</ele>
        <time>2010-01-01T13:46:43Z</time>
      </trkpt>
      <trkpt lat="45.85278000" lon="11.79758000">
        <ele>1341.0000</ele>
        <time>2010-01-01T13:46:55Z</time>
      </trkpt>
      <trkpt lat="45.85272000" lon="11.79672000">
        <ele>1344.0000</ele>
        <time>2010-01-01T13:47:19Z</time>
      </trkpt>
      <trkpt lat="45.85290000" lon="11.79602000">
        <ele>1342.0000</ele>
        <time>2010-01-01T13:47:40Z</time>
      </trkpt>
      <trkpt lat="45.85290000" lon="11.79572000">
        <ele>1340.0000</ele>
        <time>2010-01-01T13:47:48Z</time>
      </trkpt>
      <trkpt lat="45.85256990" lon="11.79473000">
        <ele>1338.0000</ele>
        <time>2010-01-01T13:48:19Z</time>
      </trkpt>
      <trkpt lat="45.85209000" lon="11.79473000">
        <ele>1337.0000</ele>
        <time>2010-01-01T13:48:38Z</time>
      </trkpt>
      <trkpt lat="45.85182000" lon="11.79425000">
        <ele>1338.0000</ele>
        <time>2010-01-01T13:48:55Z</time>
      </trkpt>
      <trkpt lat="45.85175000" lon="11.79430000">
        <ele>1337.0000</ele>
        <time>2010-01-01T13:48:58Z</time>
      </trkpt>
      <trkpt lat="45.85152000" lon="11.79433000">
        <ele>1337.0000</ele>
        <time>2010-01-01T13:49:07Z</time>
      </trkpt>
      <trkpt lat="45.85100000" lon="11.79399000">
        <ele>1337.0000</ele>
        <time>2010-01-01T13:49:30Z</time>
      </trkpt>
      <trkpt lat="45.85055000" lon="11.79430000">
        <ele>1338.0000</ele>
        <time>2010-01-01T13:49:50Z</time>
      </trkpt>
      <trkpt lat="45.85034000" lon="11.79438000">
        <ele>1339.0000</ele>
        <time>2010-01-01T13:49:59Z</time>
      </trkpt>
      <trkpt lat="45.84992000" lon="11.79425000">
        <ele>1344.0000</ele>
        <time>2010-01-01T13:50:16Z</time>
      </trkpt>
      <trkpt lat="45.84949000" lon="11.79399000">
        <ele>1349.0000</ele>
        <time>2010-01-01T13:50:35Z</time>
      </trkpt>
      <trkpt lat="45.84934000" lon="11.79399000">
        <ele>1349.0000</ele>
        <time>2010-01-01T13:50:41Z</time>
      </trkpt>
      <trkpt lat="45.84895000" lon="11.79390000">
        <ele>1350.0000</ele>
        <time>2010-01-01T13:50:57Z</time>
      </trkpt>
      <trkpt lat="45.84850000" lon="11.79347000">
        <ele>1349.0000</ele>
        <time>2010-01-01T13:51:18Z</time>
      </trkpt>
      <trkpt lat="45.84838000" lon="11.79334000">
        <ele>1348.0000</ele>
        <time>2010-01-01T13:51:24Z</time>
      </trkpt>
      <trkpt lat="45.84823000" lon="11.79278000">
        <ele>1340.0000</ele>
        <time>2010-01-01T13:51:41Z</time>
      </trkpt>
      <trkpt lat="45.84841000" lon="11.79204000">
        <ele>1332.0000</ele>
        <time>2010-01-01T13:52:03Z</time>
      </trkpt>
      <trkpt lat="45.84832000" lon="11.79161000">
        <ele>1327.0000</ele>
        <time>2010-01-01T13:52:15Z</time>
      </trkpt>
      <trkpt lat="45.84805000" lon="11.79139000">
        <ele>1324.0000</ele>
        <time>2010-01-01T13:52:28Z</time>
      </trkpt>
      <trkpt lat="45.84802000" lon="11.79127000">
        <ele>1322.0000</ele>
        <time>2010-01-01T13:52:31Z</time>
      </trkpt>
      <trkpt lat="45.84828990" lon="11.79135000">
        <ele>1322.0000</ele>
        <time>2010-01-01T13:52:42Z</time>
      </trkpt>
      <trkpt lat="45.84847000" lon="11.79131000">
        <ele>1324.0000</ele>
        <time>2010-01-01T13:52:50Z</time>
      </trkpt>
      <trkpt lat="45.84865000" lon="11.79088000">
        <ele>1323.0000</ele>
        <time>2010-01-01T13:53:04Z</time>
      </trkpt>
      <trkpt lat="45.84859000" lon="11.79010000">
        <ele>1317.0000</ele>
        <time>2010-01-01T13:53:26Z</time>
      </trkpt>
      <trkpt lat="45.84808000" lon="11.78854000">
        <ele>1300.0000</ele>
        <time>2010-01-01T13:54:14Z</time>
      </trkpt>
      <trkpt lat="45.84796000" lon="11.78833000">
        <ele>1296.0000</ele>
        <time>2010-01-01T13:54:21Z</time>
      </trkpt>
      <trkpt lat="45.84796000" lon="11.78828000">
        <ele>1297.0000</ele>
        <time>2010-01-01T13:54:23Z</time>
      </trkpt>
      <trkpt lat="45.84706000" lon="11.78754000">
        <ele>1280.0000</ele>
        <time>2010-01-01T13:55:04Z</time>
      </trkpt>
      <trkpt lat="45.84654000" lon="11.78625000">
        <ele>1270.0000</ele>
        <time>2010-01-01T13:55:46Z</time>
      </trkpt>
      <trkpt lat="45.84561000" lon="11.78534000">
        <ele>1249.0000</ele>
        <time>2010-01-01T13:56:31Z</time>
      </trkpt>
      <trkpt lat="45.84498000" lon="11.78408000">
        <ele>1235.0000</ele>
        <time>2010-01-01T13:57:14Z</time>
      </trkpt>
      <trkpt lat="45.84411000" lon="11.78361000">
        <ele>1231.0000</ele>
        <time>2010-01-01T13:57:51Z</time>
      </trkpt>
      <trkpt lat="45.84383000" lon="11.78348000">
        <ele>1230.0000</ele>
        <time>2010-01-01T13:58:03Z</time>
      </trkpt>
      <trkpt lat="45.84289990" lon="11.78270000">
        <ele>1218.0000</ele>
        <time>2010-01-01T13:58:46Z</time>
      </trkpt>
      <trkpt lat="45.84238000" lon="11.78322000">
        <ele>1201.0000</ele>
        <time>2010-01-01T13:59:12Z</time>
      </trkpt>
      <trkpt lat="45.84222990" lon="11.78322000">
        <ele>1199.0000</ele>
        <time>2010-01-01T13:59:18Z</time>
      </trkpt>
      <trkpt lat="45.84192990" lon="11.78305000">
        <ele>1195.0000</ele>
        <time>2010-01-01T13:59:30Z</time>
      </trkpt>
      <trkpt lat="45.84178000" lon="11.78274000">
        <ele>1192.0000</ele>
        <time>2010-01-01T13:59:41Z</time>
      </trkpt>
      <trkpt lat="45.84163000" lon="11.78171000">
        <ele>1184.0000</ele>
        <time>2010-01-01T14:00:10Z</time>
      </trkpt>
      <trkpt lat="45.84139000" lon="11.78097000">
        <ele>1183.0000</ele>
        <time>2010-01-01T14:00:33Z</time>
      </trkpt>
      <trkpt lat="45.84121000" lon="11.78089000">
        <ele>1180.0000</ele>
        <time>2010-01-01T14:00:41Z</time>
      </trkpt>
      <trkpt lat="45.84061000" lon="11.78089000">
        <ele>1166.0000</ele>
        <time>2010-01-01T14:01:05Z</time>
      </trkpt>
      <trkpt lat="45.83952000" lon="11.77993000">
        <ele>1144.0000</ele>
        <time>2010-01-01T14:01:56Z</time>
      </trkpt>
      <trkpt lat="45.83937000" lon="11.77954000">
        <ele>1143.0000</ele>
        <time>2010-01-01T14:02:08Z</time>
      </trkpt>
      <trkpt lat="45.83889000" lon="11.77872000">
        <ele>1120.0000</ele>
        <time>2010-01-01T14:02:38Z</time>
      </trkpt>
      <trkpt lat="45.83910000" lon="11.77781000">
        <ele>1124.0000</ele>
        <time>2010-01-01T14:03:05Z</time>
      </trkpt>
      <trkpt lat="45.83913000" lon="11.77734000">
        <ele>1119.0000</ele>
        <time>2010-01-01T14:03:18Z</time>
      </trkpt>
      <trkpt lat="45.83919000" lon="11.77574000">
        <ele>1097.0000</ele>
        <time>2010-01-01T14:04:03Z</time>
      </trkpt>
      <trkpt lat="45.83931000" lon="11.77530000">
        <ele>1097.0000</ele>
        <time>2010-01-01T14:04:16Z</time>
      </trkpt>
      <trkpt lat="45.83922000" lon="11.77544000">
        <ele>1095.0000</ele>
        <time>2010-01-01T14:04:21Z</time>
      </trkpt>
      <trkpt lat="45.83880000" lon="11.77690000">
        <ele>1091.0000</ele>
        <time>2010-01-01T14:05:05Z</time>
      </trkpt>
      <trkpt lat="45.83856000" lon="11.77734000">
        <ele>1085.0000</ele>
        <time>2010-01-01T14:05:21Z</time>
      </trkpt>
      <trkpt lat="45.83795000" lon="11.77842000">
        <ele>1071.0000</ele>
        <time>2010-01-01T14:06:00Z</time>
      </trkpt>
      <trkpt lat="45.83793000" lon="11.77872000">
        <ele>1070.0000</ele>
        <time>2010-01-01T14:06:08Z</time>
      </trkpt>
      <trkpt lat="45.83802000" lon="11.77920000">
        <ele>1075.0000</ele>
        <time>2010-01-01T14:06:22Z</time>
      </trkpt>
      <trkpt lat="45.83795000" lon="11.77954000">
        <ele>1073.0000</ele>
        <time>2010-01-01T14:06:32Z</time>
      </trkpt>
      <trkpt lat="45.83780000" lon="11.77984000">
        <ele>1069.0000</ele>
        <time>2010-01-01T14:06:42Z</time>
      </trkpt>
      <trkpt lat="45.83738000" lon="11.78037000">
        <ele>1061.0000</ele>
        <time>2010-01-01T14:07:04Z</time>
      </trkpt>
      <trkpt lat="45.83708000" lon="11.78067000">
        <ele>1058.0000</ele>
        <time>2010-01-01T14:07:19Z</time>
      </trkpt>
      <trkpt lat="45.83645000" lon="11.78132000">
        <ele>1052.0000</ele>
        <time>2010-01-01T14:07:50Z</time>
      </trkpt>
      <trkpt lat="45.83600000" lon="11.78180000">
        <ele>1047.0000</ele>
        <time>2010-01-01T14:08:13Z</time>
      </trkpt>
      <trkpt lat="45.83446000" lon="11.78300000">
        <ele>1045.0000</ele>
        <time>2010-01-01T14:09:23Z</time>
      </trkpt>
      <trkpt lat="45.83422000" lon="11.78322000">
        <ele>1047.0000</ele>
        <time>2010-01-01T14:09:34Z</time>
      </trkpt>
      <trkpt lat="45.83397990" lon="11.78322000">
        <ele>1043.0000</ele>
        <time>2010-01-01T14:09:44Z</time>
      </trkpt>
      <trkpt lat="45.83322000" lon="11.78240000">
        <ele>1045.0000</ele>
        <time>2010-01-01T14:10:22Z</time>
      </trkpt>
      <trkpt lat="45.83274000" lon="11.78162000">
        <ele>1051.0000</ele>
        <time>2010-01-01T14:10:51Z</time>
      </trkpt>
      <trkpt lat="45.83205000" lon="11.78106000">
        <ele>1027.0000</ele>
        <time>2010-01-01T14:11:23Z</time>
      </trkpt>
      <trkpt lat="45.83211000" lon="11.78075000">
        <ele>1030.0000</ele>
        <time>2010-01-01T14:11:32Z</time>
      </trkpt>
      <trkpt lat="45.83253000" lon="11.78028000">
        <ele>1041.0000</ele>
        <time>2010-01-01T14:11:53Z</time>
      </trkpt>
      <trkpt lat="45.83265000" lon="11.77980000">
        <ele>1040.0000</ele>
        <time>2010-01-01T14:12:07Z</time>
      </trkpt>
      <trkpt lat="45.83238000" lon="11.77911000">
        <ele>1008.0000</ele>
        <time>2010-01-01T14:12:29Z</time>
      </trkpt>
      <trkpt lat="45.83255990" lon="11.77894000">
        <ele>1018.0000</ele>
        <time>2010-01-01T14:12:38Z</time>
      </trkpt>
      <trkpt lat="45.83265000" lon="11.77868000">
        <ele>1016.0000</ele>
        <time>2010-01-01T14:12:46Z</time>
      </trkpt>
      <trkpt lat="45.83295000" lon="11.77829000">
        <ele>1028.0000</ele>
        <time>2010-01-01T14:13:02Z</time>
      </trkpt>
      <trkpt lat="45.83295000" lon="11.77734000">
        <ele>1025.0000</ele>
        <time>2010-01-01T14:13:29Z</time>
      </trkpt>
      <trkpt lat="45.83295000" lon="11.77721000">
        <ele>1029.0000</ele>
        <time>2010-01-01T14:13:32Z</time>
      </trkpt>
      <trkpt lat="45.83274000" lon="11.77669000">
        <ele>1024.0000</ele>
        <time>2010-01-01T14:13:49Z</time>
      </trkpt>
      <trkpt lat="45.83241000" lon="11.77652000">
        <ele>1002.0000</ele>
        <time>2010-01-01T14:14:03Z</time>
      </trkpt>
      <trkpt lat="45.83232000" lon="11.77638000">
        <ele>1000.0000</ele>
        <time>2010-01-01T14:14:08Z</time>
      </trkpt>
      <trkpt lat="45.83229000" lon="11.77561000">
        <ele>1028.0000</ele>
        <time>2010-01-01T14:14:30Z</time>
      </trkpt>
      <trkpt lat="45.83193000" lon="11.77504000">
        <ele>1003.0000</ele>
        <time>2010-01-01T14:14:51Z</time>
      </trkpt>
      <trkpt lat="45.83175000" lon="11.77405000">
        <ele>1022.0000</ele>
        <time>2010-01-01T14:15:20Z</time>
      </trkpt>
      <trkpt lat="45.83147000" lon="11.77392000">
        <ele>995.00000</ele>
        <time>2010-01-01T14:15:32Z</time>
      </trkpt>
      <trkpt lat="45.83141990" lon="11.77379000">
        <ele>993.00000</ele>
        <time>2010-01-01T14:15:36Z</time>
      </trkpt>
      <trkpt lat="45.83157000" lon="11.77349000">
        <ele>1014.0000</ele>
        <time>2010-01-01T14:15:46Z</time>
      </trkpt>
      <trkpt lat="45.83169000" lon="11.77275000">
        <ele>1043.0000</ele>
        <time>2010-01-01T14:16:07Z</time>
      </trkpt>
      <trkpt lat="45.83151000" lon="11.77236000">
        <ele>1045.0000</ele>
        <time>2010-01-01T14:16:20Z</time>
      </trkpt>
      <trkpt lat="45.83127000" lon="11.77215000">
        <ele>1039.0000</ele>
        <time>2010-01-01T14:16:32Z</time>
      </trkpt>
      <trkpt lat="45.83033000" lon="11.77172000">
        <ele>1010.0000</ele>
        <time>2010-01-01T14:17:11Z</time>
      </trkpt>
      <trkpt lat="45.82972990" lon="11.77107000">
        <ele>1017.0000</ele>
        <time>2010-01-01T14:17:41Z</time>
      </trkpt>
      <trkpt lat="45.82928000" lon="11.77093000">
        <ele>1004.0000</ele>
        <time>2010-01-01T14:18:00Z</time>
      </trkpt>
      <trkpt lat="45.82888990" lon="11.77098000">
        <ele>982.00000</ele>
        <time>2010-01-01T14:18:15Z</time>
      </trkpt>
      <trkpt lat="45.82879000" lon="11.77090000">
        <ele>980.00000</ele>
        <time>2010-01-01T14:18:20Z</time>
      </trkpt>
      <trkpt lat="45.82864000" lon="11.77076000">
        <ele>976.00000</ele>
        <time>2010-01-01T14:18:27Z</time>
      </trkpt>
      <trkpt lat="45.82864000" lon="11.77046000">
        <ele>983.00000</ele>
        <time>2010-01-01T14:18:35Z</time>
      </trkpt>
      <trkpt lat="45.82840000" lon="11.76964000">
        <ele>988.00000</ele>
        <time>2010-01-01T14:19:00Z</time>
      </trkpt>
      <trkpt lat="45.82813000" lon="11.76938000">
        <ele>984.00000</ele>
        <time>2010-01-01T14:19:13Z</time>
      </trkpt>
      <trkpt lat="45.82735000" lon="11.76912000">
        <ele>963.00000</ele>
        <time>2010-01-01T14:19:45Z</time>
      </trkpt>
      <trkpt lat="45.82723000" lon="11.76908000">
        <ele>962.00000</ele>
        <time>2010-01-01T14:19:50Z</time>
      </trkpt>
      <trkpt lat="45.82611000" lon="11.76904000">
        <ele>942.00000</ele>
        <time>2010-01-01T14:20:35Z</time>
      </trkpt>
      <trkpt lat="45.82575000" lon="11.76868000">
        <ele>938.00000</ele>
        <time>2010-01-01T14:20:53Z</time>
      </trkpt>
      <trkpt lat="45.82572000" lon="11.76813000">
        <ele>940.00000</ele>
        <time>2010-01-01T14:21:08Z</time>
      </trkpt>
      <trkpt lat="45.82560000" lon="11.76808000">
        <ele>935.00000</ele>
        <time>2010-01-01T14:21:13Z</time>
      </trkpt>
      <trkpt lat="45.82563000" lon="11.76890000">
        <ele>930.00000</ele>
        <time>2010-01-01T14:21:36Z</time>
      </trkpt>
      <trkpt lat="45.82587000" lon="11.76930000">
        <ele>931.00000</ele>
        <time>2010-01-01T14:21:51Z</time>
      </trkpt>
      <trkpt lat="45.82647000" lon="11.76964000">
        <ele>933.00000</ele>
        <time>2010-01-01T14:22:16Z</time>
      </trkpt>
      <trkpt lat="45.82647000" lon="11.76985000">
        <ele>927.00000</ele>
        <time>2010-01-01T14:22:22Z</time>
      </trkpt>
      <trkpt lat="45.82578000" lon="11.76955000">
        <ele>922.00000</ele>
        <time>2010-01-01T14:22:51Z</time>
      </trkpt>
      <trkpt lat="45.82518000" lon="11.76908000">
        <ele>910.00000</ele>
        <time>2010-01-01T14:23:18Z</time>
      </trkpt>
      <trkpt lat="45.82481000" lon="11.76830000">
        <ele>901.00000</ele>
        <time>2010-01-01T14:23:45Z</time>
      </trkpt>
      <trkpt lat="45.82469000" lon="11.76761000">
        <ele>896.00000</ele>
        <time>2010-01-01T14:24:05Z</time>
      </trkpt>
      <trkpt lat="45.82499000" lon="11.76657000">
        <ele>890.00000</ele>
        <time>2010-01-01T14:24:36Z</time>
      </trkpt>
      <trkpt lat="45.82491000" lon="11.76648000">
        <ele>887.00000</ele>
        <time>2010-01-01T14:24:40Z</time>
      </trkpt>
      <trkpt lat="45.82446000" lon="11.76726000">
        <ele>885.00000</ele>
        <time>2010-01-01T14:25:08Z</time>
      </trkpt>
      <trkpt lat="45.82430990" lon="11.76834000">
        <ele>878.00000</ele>
        <time>2010-01-01T14:25:39Z</time>
      </trkpt>
      <trkpt lat="45.82430990" lon="11.76912000">
        <ele>872.00000</ele>
        <time>2010-01-01T14:26:01Z</time>
      </trkpt>
      <trkpt lat="45.82466000" lon="11.77007000">
        <ele>875.00000</ele>
        <time>2010-01-01T14:26:31Z</time>
      </trkpt>
      <trkpt lat="45.82466000" lon="11.77068000">
        <ele>870.00000</ele>
        <time>2010-01-01T14:26:48Z</time>
      </trkpt>
      <trkpt lat="45.82451000" lon="11.77085000">
        <ele>864.00000</ele>
        <time>2010-01-01T14:26:55Z</time>
      </trkpt>
      <trkpt lat="45.82421000" lon="11.77055000">
        <ele>856.00000</ele>
        <time>2010-01-01T14:27:10Z</time>
      </trkpt>
      <trkpt lat="45.82421000" lon="11.76977000">
        <ele>861.00000</ele>
        <time>2010-01-01T14:27:32Z</time>
      </trkpt>
      <trkpt lat="45.82400000" lon="11.76955000">
        <ele>852.00000</ele>
        <time>2010-01-01T14:27:42Z</time>
      </trkpt>
      <trkpt lat="45.82388000" lon="11.76930000">
        <ele>847.00000</ele>
        <time>2010-01-01T14:27:51Z</time>
      </trkpt>
      <trkpt lat="45.82366990" lon="11.76791000">
        <ele>847.00000</ele>
        <time>2010-01-01T14:28:30Z</time>
      </trkpt>
      <trkpt lat="45.82346000" lon="11.76761000">
        <ele>839.00000</ele>
        <time>2010-01-01T14:28:42Z</time>
      </trkpt>
      <trkpt lat="45.82334000" lon="11.76708000">
        <ele>834.00000</ele>
        <time>2010-01-01T14:28:58Z</time>
      </trkpt>
      <trkpt lat="45.82310000" lon="11.76644000">
        <ele>824.00000</ele>
        <time>2010-01-01T14:29:18Z</time>
      </trkpt>
      <trkpt lat="45.82313000" lon="11.76636000">
        <ele>825.00000</ele>
        <time>2010-01-01T14:29:21Z</time>
      </trkpt>
      <trkpt lat="45.82322000" lon="11.76562000">
        <ele>825.00000</ele>
        <time>2010-01-01T14:29:42Z</time>
      </trkpt>
      <trkpt lat="45.82304000" lon="11.76505000">
        <ele>817.00000</ele>
        <time>2010-01-01T14:29:59Z</time>
      </trkpt>
      <trkpt lat="45.82295000" lon="11.76466000">
        <ele>812.00000</ele>
        <time>2010-01-01T14:30:10Z</time>
      </trkpt>
      <trkpt lat="45.82313000" lon="11.76414000">
        <ele>816.00000</ele>
        <time>2010-01-01T14:30:27Z</time>
      </trkpt>
      <trkpt lat="45.82319000" lon="11.76367000">
        <ele>814.00000</ele>
        <time>2010-01-01T14:30:40Z</time>
      </trkpt>
      <trkpt lat="45.82304000" lon="11.76345000">
        <ele>806.00000</ele>
        <time>2010-01-01T14:30:49Z</time>
      </trkpt>
      <trkpt lat="45.82280000" lon="11.76251000">
        <ele>796.00000</ele>
        <time>2010-01-01T14:31:17Z</time>
      </trkpt>
      <trkpt lat="45.82276000" lon="11.76194000">
        <ele>790.00000</ele>
        <time>2010-01-01T14:31:33Z</time>
      </trkpt>
      <trkpt lat="45.82263990" lon="11.76185000">
        <ele>783.00000</ele>
        <time>2010-01-01T14:31:38Z</time>
      </trkpt>
      <trkpt lat="45.82253000" lon="11.76328000">
        <ele>785.00000</ele>
        <time>2010-01-01T14:32:18Z</time>
      </trkpt>
      <trkpt lat="45.82241000" lon="11.76359000">
        <ele>785.00000</ele>
        <time>2010-01-01T14:32:28Z</time>
      </trkpt>
      <trkpt lat="45.82185990" lon="11.76354000">
        <ele>770.00000</ele>
        <time>2010-01-01T14:32:50Z</time>
      </trkpt>
      <trkpt lat="45.82159000" lon="11.76345000">
        <ele>763.00000</ele>
        <time>2010-01-01T14:33:01Z</time>
      </trkpt>
      <trkpt lat="45.82147000" lon="11.76306000">
        <ele>757.00000</ele>
        <time>2010-01-01T14:33:13Z</time>
      </trkpt>
      <trkpt lat="45.82138000" lon="11.76272000">
        <ele>754.00000</ele>
        <time>2010-01-01T14:33:23Z</time>
      </trkpt>
      <trkpt lat="45.82132000" lon="11.76280000">
        <ele>754.00000</ele>
        <time>2010-01-01T14:33:26Z</time>
      </trkpt>
      <trkpt lat="45.82117000" lon="11.76328000">
        <ele>755.00000</ele>
        <time>2010-01-01T14:33:41Z</time>
      </trkpt>
      <trkpt lat="45.82113990" lon="11.76341000">
        <ele>755.00000</ele>
        <time>2010-01-01T14:33:45Z</time>
      </trkpt>
      <trkpt lat="45.82077990" lon="11.76462000">
        <ele>745.00000</ele>
        <time>2010-01-01T14:34:22Z</time>
      </trkpt>
      <trkpt lat="45.82099000" lon="11.76545000">
        <ele>743.00000</ele>
        <time>2010-01-01T14:34:46Z</time>
      </trkpt>
      <trkpt lat="45.82090000" lon="11.76562000">
        <ele>739.00000</ele>
        <time>2010-01-01T14:34:52Z</time>
      </trkpt>
      <trkpt lat="45.82052990" lon="11.76514000">
        <ele>731.00000</ele>
        <time>2010-01-01T14:35:12Z</time>
      </trkpt>
      <trkpt lat="45.82038000" lon="11.76454000">
        <ele>731.00000</ele>
        <time>2010-01-01T14:35:30Z</time>
      </trkpt>
      <trkpt lat="45.82021000" lon="11.76350000">
        <ele>733.00000</ele>
        <time>2010-01-01T14:36:00Z</time>
      </trkpt>
      <trkpt lat="45.81980990" lon="11.76306000">
        <ele>727.00000</ele>
        <time>2010-01-01T14:36:20Z</time>
      </trkpt>
      <trkpt lat="45.81965000" lon="11.76288000">
        <ele>725.00000</ele>
        <time>2010-01-01T14:36:28Z</time>
      </trkpt>
      <trkpt lat="45.81963990" lon="11.76292000">
        <ele>724.00000</ele>
        <time>2010-01-01T14:36:29Z</time>
      </trkpt>
      <trkpt lat="45.81965000" lon="11.76288000">
        <ele>725.00000</ele>
        <time>2010-01-01T14:36:30Z</time>
      </trkpt>
      <trkpt lat="45.81957000" lon="11.76280000">
        <ele>724.00000</ele>
        <time>2010-01-01T14:36:34Z</time>
      </trkpt>
      <trkpt lat="45.81902990" lon="11.76228000">
        <ele>714.00000</ele>
        <time>2010-01-01T14:37:00Z</time>
      </trkpt>
      <trkpt lat="45.81906000" lon="11.76189000">
        <ele>714.00000</ele>
        <time>2010-01-01T14:37:11Z</time>
      </trkpt>
      <trkpt lat="45.81873000" lon="11.76155000">
        <ele>704.00000</ele>
        <time>2010-01-01T14:37:28Z</time>
      </trkpt>
      <trkpt lat="45.81870000" lon="11.76116000">
        <ele>698.00000</ele>
        <time>2010-01-01T14:37:39Z</time>
      </trkpt>
      <trkpt lat="45.81863000" lon="11.76094000">
        <ele>693.00000</ele>
        <time>2010-01-01T14:37:45Z</time>
      </trkpt>
      <trkpt lat="45.81848000" lon="11.76177000">
        <ele>699.00000</ele>
        <time>2010-01-01T14:38:09Z</time>
      </trkpt>
      <trkpt lat="45.81818000" lon="11.76220000">
        <ele>686.00000</ele>
        <time>2010-01-01T14:38:26Z</time>
      </trkpt>
      <trkpt lat="45.81821000" lon="11.76268000">
        <ele>683.00000</ele>
        <time>2010-01-01T14:38:40Z</time>
      </trkpt>
      <trkpt lat="45.81848000" lon="11.76306000">
        <ele>688.00000</ele>
        <time>2010-01-01T14:38:55Z</time>
      </trkpt>
      <trkpt lat="45.81876000" lon="11.76385000">
        <ele>681.00000</ele>
        <time>2010-01-01T14:39:20Z</time>
      </trkpt>
      <trkpt lat="45.81906000" lon="11.76514000">
        <ele>679.00000</ele>
        <time>2010-01-01T14:39:57Z</time>
      </trkpt>
      <trkpt lat="45.81900000" lon="11.76531000">
        <ele>677.00000</ele>
        <time>2010-01-01T14:40:03Z</time>
      </trkpt>
      <trkpt lat="45.81894000" lon="11.76510000">
        <ele>673.00000</ele>
        <time>2010-01-01T14:40:09Z</time>
      </trkpt>
      <trkpt lat="45.81828000" lon="11.76359000">
        <ele>668.00000</ele>
        <time>2010-01-01T14:40:59Z</time>
      </trkpt>
      <trkpt lat="45.81798000" lon="11.76345000">
        <ele>657.00000</ele>
        <time>2010-01-01T14:41:11Z</time>
      </trkpt>
      <trkpt lat="45.81743000" lon="11.76276000">
        <ele>645.00000</ele>
        <time>2010-01-01T14:41:41Z</time>
      </trkpt>
      <trkpt lat="45.81737000" lon="11.76233000">
        <ele>648.00000</ele>
        <time>2010-01-01T14:41:53Z</time>
      </trkpt>
      <trkpt lat="45.81677000" lon="11.76086000">
        <ele>624.00000</ele>
        <time>2010-01-01T14:42:40Z</time>
      </trkpt>
      <trkpt lat="45.81668000" lon="11.76082000">
        <ele>619.00000</ele>
        <time>2010-01-01T14:42:44Z</time>
      </trkpt>
      <trkpt lat="45.81683000" lon="11.76142000">
        <ele>625.00000</ele>
        <time>2010-01-01T14:43:02Z</time>
      </trkpt>
      <trkpt lat="45.81701000" lon="11.76306000">
        <ele>618.00000</ele>
        <time>2010-01-01T14:43:48Z</time>
      </trkpt>
      <trkpt lat="45.81755000" lon="11.76393000">
        <ele>621.00000</ele>
        <time>2010-01-01T14:44:21Z</time>
      </trkpt>
      <trkpt lat="45.81758000" lon="11.76410000">
        <ele>617.00000</ele>
        <time>2010-01-01T14:44:26Z</time>
      </trkpt>
      <trkpt lat="45.81746000" lon="11.76397000">
        <ele>615.00000</ele>
        <time>2010-01-01T14:44:32Z</time>
      </trkpt>
      <trkpt lat="45.81658000" lon="11.76302000">
        <ele>599.00000</ele>
        <time>2010-01-01T14:45:16Z</time>
      </trkpt>
      <trkpt lat="45.81628000" lon="11.76198000">
        <ele>601.00000</ele>
        <time>2010-01-01T14:45:47Z</time>
      </trkpt>
      <trkpt lat="45.81620000" lon="11.76185000">
        <ele>599.00000</ele>
        <time>2010-01-01T14:45:52Z</time>
      </trkpt>
      <trkpt lat="45.81620000" lon="11.76220000">
        <ele>595.00000</ele>
        <time>2010-01-01T14:46:02Z</time>
      </trkpt>
      <trkpt lat="45.81620000" lon="11.76272000">
        <ele>589.00000</ele>
        <time>2010-01-01T14:46:16Z</time>
      </trkpt>
      <trkpt lat="45.81623000" lon="11.76319000">
        <ele>582.00000</ele>
        <time>2010-01-01T14:46:30Z</time>
      </trkpt>
      <trkpt lat="45.81707000" lon="11.76428000">
        <ele>586.00000</ele>
        <time>2010-01-01T14:47:15Z</time>
      </trkpt>
      <trkpt lat="45.81713000" lon="11.76454000">
        <ele>583.00000</ele>
        <time>2010-01-01T14:47:23Z</time>
      </trkpt>
      <trkpt lat="45.81698000" lon="11.76432000">
        <ele>580.00000</ele>
        <time>2010-01-01T14:47:31Z</time>
      </trkpt>
      <trkpt lat="45.81562000" lon="11.76328000">
        <ele>553.00000</ele>
        <time>2010-01-01T14:48:33Z</time>
      </trkpt>
      <trkpt lat="45.81541000" lon="11.76254000">
        <ele>555.00000</ele>
        <time>2010-01-01T14:48:55Z</time>
      </trkpt>
      <trkpt lat="45.81435000" lon="11.76134000">
        <ele>519.00000</ele>
        <time>2010-01-01T14:49:49Z</time>
      </trkpt>
      <trkpt lat="45.81430000" lon="11.76146000">
        <ele>517.00000</ele>
        <time>2010-01-01T14:49:53Z</time>
      </trkpt>
      <trkpt lat="45.81487000" lon="11.76233000">
        <ele>533.00000</ele>
        <time>2010-01-01T14:50:26Z</time>
      </trkpt>
      <trkpt lat="45.81523000" lon="11.76380000">
        <ele>513.00000</ele>
        <time>2010-01-01T14:51:10Z</time>
      </trkpt>
      <trkpt lat="45.81623000" lon="11.76493000">
        <ele>517.00000</ele>
        <time>2010-01-01T14:52:01Z</time>
      </trkpt>
      <trkpt lat="45.81623000" lon="11.76510000">
        <ele>512.00000</ele>
        <time>2010-01-01T14:52:06Z</time>
      </trkpt>
      <trkpt lat="45.81607990" lon="11.76488000">
        <ele>511.00000</ele>
        <time>2010-01-01T14:52:14Z</time>
      </trkpt>
      <trkpt lat="45.81493000" lon="11.76410000">
        <ele>483.00000</ele>
        <time>2010-01-01T14:53:05Z</time>
      </trkpt>
      <trkpt lat="45.81466000" lon="11.76341000">
        <ele>490.00000</ele>
        <time>2010-01-01T14:53:27Z</time>
      </trkpt>
      <trkpt lat="45.81368990" lon="11.76225000">
        <ele>467.00000</ele>
        <time>2010-01-01T14:54:18Z</time>
      </trkpt>
      <trkpt lat="45.81348000" lon="11.76177000">
        <ele>464.00000</ele>
        <time>2010-01-01T14:54:33Z</time>
      </trkpt>
      <trkpt lat="45.81345000" lon="11.76172000">
        <ele>463.00000</ele>
        <time>2010-01-01T14:54:35Z</time>
      </trkpt>
      <trkpt lat="45.81332990" lon="11.76155000">
        <ele>456.00000</ele>
        <time>2010-01-01T14:54:42Z</time>
      </trkpt>
      <trkpt lat="45.81330000" lon="11.76163000">
        <ele>454.00000</ele>
        <time>2010-01-01T14:54:45Z</time>
      </trkpt>
      <trkpt lat="45.81348000" lon="11.76203000">
        <ele>458.00000</ele>
        <time>2010-01-01T14:54:58Z</time>
      </trkpt>
      <trkpt lat="45.81418000" lon="11.76350000">
        <ele>454.00000</ele>
        <time>2010-01-01T14:55:48Z</time>
      </trkpt>
      <trkpt lat="45.81438000" lon="11.76432000">
        <ele>444.00000</ele>
        <time>2010-01-01T14:56:12Z</time>
      </trkpt>
      <trkpt lat="45.81471990" lon="11.76501000">
        <ele>443.00000</ele>
        <time>2010-01-01T14:56:35Z</time>
      </trkpt>
      <trkpt lat="45.81529000" lon="11.76553000">
        <ele>448.00000</ele>
        <time>2010-01-01T14:57:02Z</time>
      </trkpt>
      <trkpt lat="45.81541000" lon="11.76574000">
        <ele>446.00000</ele>
        <time>2010-01-01T14:57:10Z</time>
      </trkpt>
      <trkpt lat="45.81448000" lon="11.76510000">
        <ele>423.00000</ele>
        <time>2010-01-01T14:57:51Z</time>
      </trkpt>
      <trkpt lat="45.81400000" lon="11.76428000">
        <ele>422.00000</ele>
        <time>2010-01-01T14:58:21Z</time>
      </trkpt>
      <trkpt lat="45.81348000" lon="11.76367000">
        <ele>408.00000</ele>
        <time>2010-01-01T14:58:48Z</time>
      </trkpt>
      <trkpt lat="45.81324000" lon="11.76337000">
        <ele>403.00000</ele>
        <time>2010-01-01T14:59:01Z</time>
      </trkpt>
      <trkpt lat="45.81285000" lon="11.76272000">
        <ele>398.00000</ele>
        <time>2010-01-01T14:59:25Z</time>
      </trkpt>
      <trkpt lat="45.81276000" lon="11.76276000">
        <ele>391.00000</ele>
        <time>2010-01-01T14:59:28Z</time>
      </trkpt>
      <trkpt lat="45.81345000" lon="11.76414000">
        <ele>391.00000</ele>
        <time>2010-01-01T15:00:16Z</time>
      </trkpt>
      <trkpt lat="45.81348000" lon="11.76419000">
        <ele>391.00000</ele>
        <time>2010-01-01T15:00:18Z</time>
      </trkpt>
      <trkpt lat="45.81390000" lon="11.76545000">
        <ele>373.00000</ele>
        <time>2010-01-01T15:00:57Z</time>
      </trkpt>
      <trkpt lat="45.81453000" lon="11.76636000">
        <ele>378.00000</ele>
        <time>2010-01-01T15:01:32Z</time>
      </trkpt>
      <trkpt lat="45.81460000" lon="11.76644000">
        <ele>380.00000</ele>
        <time>2010-01-01T15:01:36Z</time>
      </trkpt>
      <trkpt lat="45.81505000" lon="11.76895000">
        <ele>353.00000</ele>
        <time>2010-01-01T15:02:48Z</time>
      </trkpt>
      <trkpt lat="45.81529000" lon="11.76947000">
        <ele>358.00000</ele>
        <time>2010-01-01T15:03:06Z</time>
      </trkpt>
      <trkpt lat="45.81523000" lon="11.76955000">
        <ele>351.00000</ele>
        <time>2010-01-01T15:03:09Z</time>
      </trkpt>
      <trkpt lat="45.81463000" lon="11.76817000">
        <ele>343.00000</ele>
        <time>2010-01-01T15:03:54Z</time>
      </trkpt>
      <trkpt lat="45.81430000" lon="11.76691000">
        <ele>347.00000</ele>
        <time>2010-01-01T15:04:32Z</time>
      </trkpt>
      <trkpt lat="45.81368990" lon="11.76636000">
        <ele>329.00000</ele>
        <time>2010-01-01T15:05:01Z</time>
      </trkpt>
      <trkpt lat="45.81348000" lon="11.76614000">
        <ele>323.00000</ele>
        <time>2010-01-01T15:05:11Z</time>
      </trkpt>
      <trkpt lat="45.81339000" lon="11.76605000">
        <ele>320.00000</ele>
        <time>2010-01-01T15:05:16Z</time>
      </trkpt>
      <trkpt lat="45.81300000" lon="11.76531000">
        <ele>322.00000</ele>
        <time>2010-01-01T15:05:41Z</time>
      </trkpt>
      <trkpt lat="45.81199990" lon="11.76419000">
        <ele>300.00000</ele>
        <time>2010-01-01T15:06:32Z</time>
      </trkpt>
      <trkpt lat="45.81128000" lon="11.76289000">
        <ele>285.00000</ele>
        <time>2010-01-01T15:07:19Z</time>
      </trkpt>
      <trkpt lat="45.81121990" lon="11.76168000">
        <ele>284.00000</ele>
        <time>2010-01-01T15:07:52Z</time>
      </trkpt>
      <trkpt lat="45.81113000" lon="11.76155000">
        <ele>277.00000</ele>
        <time>2010-01-01T15:07:58Z</time>
      </trkpt>
      <trkpt lat="45.81107000" lon="11.76328000">
        <ele>265.00000</ele>
        <time>2010-01-01T15:08:46Z</time>
      </trkpt>
      <trkpt lat="45.81198000" lon="11.76574000">
        <ele>253.00000</ele>
        <time>2010-01-01T15:10:04Z</time>
      </trkpt>
      <trkpt lat="45.81213000" lon="11.76591000">
        <ele>257.00000</ele>
        <time>2010-01-01T15:10:11Z</time>
      </trkpt>
      <trkpt lat="45.81225000" lon="11.76636000">
        <ele>254.00000</ele>
        <time>2010-01-01T15:10:25Z</time>
      </trkpt>
      <trkpt lat="45.81252000" lon="11.76743000">
        <ele>239.00000</ele>
        <time>2010-01-01T15:10:56Z</time>
      </trkpt>
      <trkpt lat="45.81267000" lon="11.76825000">
        <ele>231.00000</ele>
        <time>2010-01-01T15:11:20Z</time>
      </trkpt>
      <trkpt lat="45.81300000" lon="11.76930000">
        <ele>226.00000</ele>
        <time>2010-01-01T15:11:52Z</time>
      </trkpt>
      <trkpt lat="45.81321000" lon="11.77024000">
        <ele>220.00000</ele>
        <time>2010-01-01T15:12:20Z</time>
      </trkpt>
      <trkpt lat="45.81315000" lon="11.77072000">
        <ele>214.00000</ele>
        <time>2010-01-01T15:12:33Z</time>
      </trkpt>
      <trkpt lat="45.81306000" lon="11.77098000">
        <ele>212.00000</ele>
        <time>2010-01-01T15:12:41Z</time>
      </trkpt>
      <trkpt lat="45.81306000" lon="11.77136000">
        <ele>212.00000</ele>
        <time>2010-01-01T15:12:52Z</time>
      </trkpt>
      <trkpt lat="45.81279000" lon="11.77202000">
        <ele>209.00000</ele>
        <time>2010-01-01T15:13:13Z</time>
      </trkpt>
      <trkpt lat="45.81248000" lon="11.77245000">
        <ele>205.00000</ele>
        <time>2010-01-01T15:13:31Z</time>
      </trkpt>
      <trkpt lat="45.81203000" lon="11.77306000">
        <ele>202.00000</ele>
        <time>2010-01-01T15:13:55Z</time>
      </trkpt>
      <trkpt lat="45.81167000" lon="11.77341000">
        <ele>200.00000</ele>
        <time>2010-01-01T15:14:13Z</time>
      </trkpt>
      <trkpt lat="45.81137000" lon="11.77336000">
        <ele>196.00000</ele>
        <time>2010-01-01T15:14:25Z</time>
      </trkpt>
      <trkpt lat="45.81101000" lon="11.77418000">
        <ele>193.00000</ele>
        <time>2010-01-01T15:14:52Z</time>
      </trkpt>
      <trkpt lat="45.81089000" lon="11.77453000">
        <ele>192.00000</ele>
        <time>2010-01-01T15:15:03Z</time>
      </trkpt>
      <trkpt lat="45.81074000" lon="11.77478000">
        <ele>192.00000</ele>
        <time>2010-01-01T15:15:12Z</time>
      </trkpt>
      <trkpt lat="45.80971000" lon="11.77621000">
        <ele>186.00000</ele>
        <time>2010-01-01T15:16:09Z</time>
      </trkpt>
      <trkpt lat="45.80965000" lon="11.77630000">
        <ele>185.00000</ele>
        <time>2010-01-01T15:16:13Z</time>
      </trkpt>
      <trkpt lat="45.80917000" lon="11.77734000">
        <ele>181.00000</ele>
        <time>2010-01-01T15:16:48Z</time>
      </trkpt>
      <trkpt lat="45.80914000" lon="11.77738000">
        <ele>181.00000</ele>
        <time>2010-01-01T15:16:49Z</time>
      </trkpt>
      <trkpt lat="45.80850000" lon="11.77929000">
        <ele>178.00000</ele>
        <time>2010-01-01T15:17:49Z</time>
      </trkpt>
      <trkpt lat="45.80785000" lon="11.78045000">
        <ele>173.00000</ele>
        <time>2010-01-01T15:18:30Z</time>
      </trkpt>
      <trkpt lat="45.80790000" lon="11.78063000">
        <ele>174.00000</ele>
        <time>2010-01-01T15:18:35Z</time>
      </trkpt>
      <trkpt lat="45.80807990" lon="11.78123000">
        <ele>175.00000</ele>
        <time>2010-01-01T15:18:54Z</time>
      </trkpt>
      <trkpt lat="45.80893000" lon="11.78391000">
        <ele>179.00000</ele>
        <time>2010-01-01T15:20:16Z</time>
      </trkpt>
      <trkpt lat="45.80917000" lon="11.78469000">
        <ele>178.00000</ele>
        <time>2010-01-01T15:20:40Z</time>
      </trkpt>
      <trkpt lat="45.81001000" lon="11.78707000">
        <ele>180.00000</ele>
        <time>2010-01-01T15:21:54Z</time>
      </trkpt>
      <trkpt lat="45.81089000" lon="11.78824000">
        <ele>182.00000</ele>
        <time>2010-01-01T15:22:42Z</time>
      </trkpt>
      <trkpt lat="45.81098000" lon="11.78833000">
        <ele>183.00000</ele>
        <time>2010-01-01T15:22:46Z</time>
      </trkpt>
      <trkpt lat="45.81113000" lon="11.78850000">
        <ele>183.00000</ele>
        <time>2010-01-01T15:22:54Z</time>
      </trkpt>
      <trkpt lat="45.81215000" lon="11.78962000">
        <ele>188.00000</ele>
        <time>2010-01-01T15:23:46Z</time>
      </trkpt>
      <trkpt lat="45.81228000" lon="11.78979000">
        <ele>188.00000</ele>
        <time>2010-01-01T15:23:53Z</time>
      </trkpt>
      <trkpt lat="45.81243000" lon="11.78993000">
        <ele>190.00000</ele>
        <time>2010-01-01T15:24:00Z</time>
      </trkpt>
      <trkpt lat="45.81348000" lon="11.79118000">
        <ele>189.00000</ele>
        <time>2010-01-01T15:24:54Z</time>
      </trkpt>
      <trkpt lat="45.81405000" lon="11.79187000">
        <ele>189.00000</ele>
        <time>2010-01-01T15:25:24Z</time>
      </trkpt>
      <trkpt lat="45.81457000" lon="11.79235000">
        <ele>190.00000</ele>
        <time>2010-01-01T15:25:49Z</time>
      </trkpt>
      <trkpt lat="45.81502000" lon="11.79265000">
        <ele>190.00000</ele>
        <time>2010-01-01T15:26:09Z</time>
      </trkpt>
      <trkpt lat="45.81510990" lon="11.79282000">
        <ele>189.00000</ele>
        <time>2010-01-01T15:26:15Z</time>
      </trkpt>
      <trkpt lat="45.81526000" lon="11.79308000">
        <ele>187.00000</ele>
        <time>2010-01-01T15:26:24Z</time>
      </trkpt>
      <trkpt lat="45.81547000" lon="11.79390000">
        <ele>185.00000</ele>
        <time>2010-01-01T15:26:49Z</time>
      </trkpt>
      <trkpt lat="45.81547000" lon="11.79430000">
        <ele>184.00000</ele>
        <time>2010-01-01T15:27:00Z</time>
      </trkpt>
      <trkpt lat="45.81547000" lon="11.79498000">
        <ele>184.00000</ele>
        <time>2010-01-01T15:27:19Z</time>
      </trkpt>
      <trkpt lat="45.81544000" lon="11.79676000">
        <ele>183.00000</ele>
        <time>2010-01-01T15:28:08Z</time>
      </trkpt>
      <trkpt lat="45.81544000" lon="11.79931000">
        <ele>192.00000</ele>
        <time>2010-01-01T15:29:20Z</time>
      </trkpt>
      <trkpt lat="45.81544000" lon="11.79952000">
        <ele>192.00000</ele>
        <time>2010-01-01T15:29:25Z</time>
      </trkpt>
      <trkpt lat="45.81547000" lon="11.80018000">
        <ele>192.00000</ele>
        <time>2010-01-01T15:29:44Z</time>
      </trkpt>
      <trkpt lat="45.81559000" lon="11.80195000">
        <ele>196.00000</ele>
        <time>2010-01-01T15:30:33Z</time>
      </trkpt>
      <trkpt lat="45.81601000" lon="11.80623000">
        <ele>203.00000</ele>
        <time>2010-01-01T15:32:34Z</time>
      </trkpt>
      <trkpt lat="45.81695000" lon="11.81030000">
        <ele>211.00000</ele>
        <time>2010-01-01T15:34:34Z</time>
      </trkpt>
      <trkpt lat="45.81698000" lon="11.81034000">
        <ele>211.00000</ele>
        <time>2010-01-01T15:34:35Z</time>
      </trkpt>
      <trkpt lat="45.81725000" lon="11.81156000">
        <ele>213.00000</ele>
        <time>2010-01-01T15:35:11Z</time>
      </trkpt>
      <trkpt lat="45.81770000" lon="11.81350000">
        <ele>215.00000</ele>
        <time>2010-01-01T15:36:08Z</time>
      </trkpt>
      <trkpt lat="45.81794000" lon="11.81450000">
        <ele>218.00000</ele>
        <time>2010-01-01T15:36:38Z</time>
      </trkpt>
      <trkpt lat="45.81803000" lon="11.81484000">
        <ele>219.00000</ele>
        <time>2010-01-01T15:36:48Z</time>
      </trkpt>
      <trkpt lat="45.81809000" lon="11.81519000">
        <ele>220.00000</ele>
        <time>2010-01-01T15:36:58Z</time>
      </trkpt>
      <trkpt lat="45.81840000" lon="11.81627000">
        <ele>222.00000</ele>
        <time>2010-01-01T15:37:30Z</time>
      </trkpt>
      <trkpt lat="45.81848000" lon="11.81648000">
        <ele>223.00000</ele>
        <time>2010-01-01T15:37:37Z</time>
      </trkpt>
      <trkpt lat="45.81873000" lon="11.81709000">
        <ele>226.00000</ele>
        <time>2010-01-01T15:37:57Z</time>
      </trkpt>
      <trkpt lat="45.81915000" lon="11.81804000">
        <ele>232.00000</ele>
        <time>2010-01-01T15:38:28Z</time>
      </trkpt>
      <trkpt lat="45.81978000" lon="11.81964000">
        <ele>238.00000</ele>
        <time>2010-01-01T15:39:19Z</time>
      </trkpt>
      <trkpt lat="45.82005000" lon="11.82129000">
        <ele>244.00000</ele>
        <time>2010-01-01T15:40:07Z</time>
      </trkpt>
      <trkpt lat="45.82008000" lon="11.82146000">
        <ele>245.00000</ele>
        <time>2010-01-01T15:40:12Z</time>
      </trkpt>
      <trkpt lat="45.82014000" lon="11.82180000">
        <ele>246.00000</ele>
        <time>2010-01-01T15:40:21Z</time>
      </trkpt>
      <trkpt lat="45.82029000" lon="11.82245000">
        <ele>245.00000</ele>
        <time>2010-01-01T15:40:41Z</time>
      </trkpt>
      <trkpt lat="45.82044000" lon="11.82314000">
        <ele>246.00000</ele>
        <time>2010-01-01T15:41:01Z</time>
      </trkpt>
      <trkpt lat="45.82113990" lon="11.82617000">
        <ele>253.00000</ele>
        <time>2010-01-01T15:42:30Z</time>
      </trkpt>
      <trkpt lat="45.82149990" lon="11.82772000">
        <ele>258.00000</ele>
        <time>2010-01-01T15:43:15Z</time>
      </trkpt>
      <trkpt lat="45.82168000" lon="11.82837000">
        <ele>261.00000</ele>
        <time>2010-01-01T15:43:35Z</time>
      </trkpt>
      <trkpt lat="45.82183000" lon="11.82894000">
        <ele>261.00000</ele>
        <time>2010-01-01T15:43:52Z</time>
      </trkpt>
      <trkpt lat="45.82191990" lon="11.82924000">
        <ele>261.00000</ele>
        <time>2010-01-01T15:44:01Z</time>
      </trkpt>
      <trkpt lat="45.82204000" lon="11.82963000">
        <ele>262.00000</ele>
        <time>2010-01-01T15:44:13Z</time>
      </trkpt>
      <trkpt lat="45.82226000" lon="11.83006000">
        <ele>263.00000</ele>
        <time>2010-01-01T15:44:28Z</time>
      </trkpt>
      <trkpt lat="45.82283000" lon="11.83110000">
        <ele>267.00000</ele>
        <time>2010-01-01T15:45:05Z</time>
      </trkpt>
      <trkpt lat="45.82313000" lon="11.83171000">
        <ele>269.00000</ele>
        <time>2010-01-01T15:45:25Z</time>
      </trkpt>
      <trkpt lat="45.82346000" lon="11.83227000">
        <ele>270.00000</ele>
        <time>2010-01-01T15:45:46Z</time>
      </trkpt>
      <trkpt lat="45.82385000" lon="11.83296000">
        <ele>271.00000</ele>
        <time>2010-01-01T15:46:11Z</time>
      </trkpt>
      <trkpt lat="45.82454000" lon="11.83365000">
        <ele>276.00000</ele>
        <time>2010-01-01T15:46:44Z</time>
      </trkpt>
      <trkpt lat="45.82533000" lon="11.83451000">
        <ele>280.00000</ele>
        <time>2010-01-01T15:47:24Z</time>
      </trkpt>
      <trkpt lat="45.82626000" lon="11.83556000">
        <ele>284.00000</ele>
        <time>2010-01-01T15:48:11Z</time>
      </trkpt>
      <trkpt lat="45.82639000" lon="11.83573000">
        <ele>284.00000</ele>
        <time>2010-01-01T15:48:18Z</time>
      </trkpt>
      <trkpt lat="45.82689000" lon="11.83790000">
        <ele>287.00000</ele>
        <time>2010-01-01T15:49:22Z</time>
      </trkpt>
      <trkpt lat="45.82704000" lon="11.83871000">
        <ele>290.00000</ele>
        <time>2010-01-01T15:49:46Z</time>
      </trkpt>
      <trkpt lat="45.82717000" lon="11.83915000">
        <ele>290.00000</ele>
        <time>2010-01-01T15:49:59Z</time>
      </trkpt>
      <trkpt lat="45.82735000" lon="11.83993000">
        <ele>292.00000</ele>
        <time>2010-01-01T15:50:22Z</time>
      </trkpt>
      <trkpt lat="45.82744000" lon="11.84005000">
        <ele>292.00000</ele>
        <time>2010-01-01T15:50:27Z</time>
      </trkpt>
      <trkpt lat="45.82774000" lon="11.84014000">
        <ele>293.00000</ele>
        <time>2010-01-01T15:50:39Z</time>
      </trkpt>
      <trkpt lat="45.82874000" lon="11.83996000">
        <ele>297.00000</ele>
        <time>2010-01-01T15:51:19Z</time>
      </trkpt>
      <trkpt lat="45.82879000" lon="11.84005000">
        <ele>297.00000</ele>
        <time>2010-01-01T15:51:23Z</time>
      </trkpt>
      <trkpt lat="45.82882000" lon="11.84014000">
        <ele>298.00000</ele>
        <time>2010-01-01T15:51:25Z</time>
      </trkpt>
      <trkpt lat="45.82909000" lon="11.84122000">
        <ele>300.00000</ele>
        <time>2010-01-01T15:51:57Z</time>
      </trkpt>
      <trkpt lat="45.82924000" lon="11.84161000">
        <ele>300.00000</ele>
        <time>2010-01-01T15:52:10Z</time>
      </trkpt>
      <trkpt lat="45.82937000" lon="11.84170000">
        <ele>299.00000</ele>
        <time>2010-01-01T15:52:16Z</time>
      </trkpt>
      <trkpt lat="45.82964000" lon="11.84192000">
        <ele>297.00000</ele>
        <time>2010-01-01T15:52:28Z</time>
      </trkpt>
      <trkpt lat="45.82994000" lon="11.84221000">
        <ele>296.00000</ele>
        <time>2010-01-01T15:52:42Z</time>
      </trkpt>
      <trkpt lat="45.83008990" lon="11.84261000">
        <ele>294.00000</ele>
        <time>2010-01-01T15:52:55Z</time>
      </trkpt>
      <trkpt lat="45.83018000" lon="11.84282000">
        <ele>291.00000</ele>
        <time>2010-01-01T15:53:02Z</time>
      </trkpt>
      <trkpt lat="45.83030000" lon="11.84312000">
        <ele>288.00000</ele>
        <time>2010-01-01T15:53:12Z</time>
      </trkpt>
      <trkpt lat="45.83033000" lon="11.84326000">
        <ele>287.00000</ele>
        <time>2010-01-01T15:53:16Z</time>
      </trkpt>
      <trkpt lat="45.83042000" lon="11.84347000">
        <ele>286.00000</ele>
        <time>2010-01-01T15:53:23Z</time>
      </trkpt>
      <trkpt lat="45.83060000" lon="11.84399000">
        <ele>290.00000</ele>
        <time>2010-01-01T15:53:39Z</time>
      </trkpt>
      <trkpt lat="45.83002990" lon="11.84507000">
        <ele>297.00000</ele>
        <time>2010-01-01T15:54:17Z</time>
      </trkpt>
      <trkpt lat="45.82961000" lon="11.84516000">
        <ele>290.00000</ele>
        <time>2010-01-01T15:54:34Z</time>
      </trkpt>
      <trkpt lat="45.82919000" lon="11.84603000">
        <ele>303.00000</ele>
        <time>2010-01-01T15:55:03Z</time>
      </trkpt>
      <trkpt lat="45.82901000" lon="11.84658000">
        <ele>301.00000</ele>
        <time>2010-01-01T15:55:20Z</time>
      </trkpt>
      <trkpt lat="45.82894000" lon="11.84675000">
        <ele>301.00000</ele>
        <time>2010-01-01T15:55:26Z</time>
      </trkpt>
      <trkpt lat="45.82882000" lon="11.84698000">
        <ele>300.00000</ele>
        <time>2010-01-01T15:55:34Z</time>
      </trkpt>
      <trkpt lat="45.82879000" lon="11.84698000">
        <ele>300.00000</ele>
        <time>2010-01-01T15:55:35Z</time>
      </trkpt>
      <trkpt lat="45.82833990" lon="11.84728000">
        <ele>295.00000</ele>
        <time>2010-01-01T15:55:55Z</time>
      </trkpt>
      <trkpt lat="45.82825000" lon="11.84745000">
        <ele>294.00000</ele>
        <time>2010-01-01T15:56:01Z</time>
      </trkpt>
      <trkpt lat="45.82807000" lon="11.84792000">
        <ele>295.00000</ele>
        <time>2010-01-01T15:56:16Z</time>
      </trkpt>
      <trkpt lat="45.82816000" lon="11.84905000">
        <ele>294.00000</ele>
        <time>2010-01-01T15:56:47Z</time>
      </trkpt>
      <trkpt lat="45.82765000" lon="11.85131000">
        <ele>290.00000</ele>
        <time>2010-01-01T15:57:54Z</time>
      </trkpt>
      <trkpt lat="45.82755990" lon="11.85160000">
        <ele>289.00000</ele>
        <time>2010-01-01T15:58:02Z</time>
      </trkpt>
      <trkpt lat="45.82717000" lon="11.85342000">
        <ele>282.00000</ele>
        <time>2010-01-01T15:58:56Z</time>
      </trkpt>
      <trkpt lat="45.82711000" lon="11.85372000">
        <ele>283.00000</ele>
        <time>2010-01-01T15:59:04Z</time>
      </trkpt>
      <trkpt lat="45.82681000" lon="11.85425000">
        <ele>285.00000</ele>
        <time>2010-01-01T15:59:23Z</time>
      </trkpt>
      <trkpt lat="45.82669000" lon="11.85446000">
        <ele>284.00000</ele>
        <time>2010-01-01T15:59:31Z</time>
      </trkpt>
      <trkpt lat="45.82677000" lon="11.85515000">
        <ele>284.00000</ele>
        <time>2010-01-01T15:59:50Z</time>
      </trkpt>
      <trkpt lat="45.82783000" lon="11.85719000">
        <ele>289.00000</ele>
        <time>2010-01-01T16:01:01Z</time>
      </trkpt>
      <trkpt lat="45.82813000" lon="11.85762000">
        <ele>289.00000</ele>
        <time>2010-01-01T16:01:18Z</time>
      </trkpt>
      <trkpt lat="45.82795000" lon="11.85835000">
        <ele>288.00000</ele>
        <time>2010-01-01T16:01:40Z</time>
      </trkpt>
      <trkpt lat="45.82791990" lon="11.85835000">
        <ele>287.00000</ele>
        <time>2010-01-01T16:01:41Z</time>
      </trkpt>
      <trkpt lat="45.82786000" lon="11.85848000">
        <ele>287.00000</ele>
        <time>2010-01-01T16:01:45Z</time>
      </trkpt>
      <trkpt lat="45.82795000" lon="11.85853000">
        <ele>287.00000</ele>
        <time>2010-01-01T16:01:49Z</time>
      </trkpt>
      <trkpt lat="45.82879000" lon="11.85995000">
        <ele>283.00000</ele>
        <time>2010-01-01T16:02:41Z</time>
      </trkpt>
      <trkpt lat="45.82909000" lon="11.86030000">
        <ele>282.00000</ele>
        <time>2010-01-01T16:02:57Z</time>
      </trkpt>
      <trkpt lat="45.82972990" lon="11.86077000">
        <ele>280.00000</ele>
        <time>2010-01-01T16:03:26Z</time>
      </trkpt>
      <trkpt lat="45.83021000" lon="11.86125000">
        <ele>277.00000</ele>
        <time>2010-01-01T16:03:49Z</time>
      </trkpt>
      <trkpt lat="45.83033000" lon="11.86173000">
        <ele>276.00000</ele>
        <time>2010-01-01T16:04:03Z</time>
      </trkpt>
      <trkpt lat="45.83030000" lon="11.86293000">
        <ele>269.00000</ele>
        <time>2010-01-01T16:04:37Z</time>
      </trkpt>
      <trkpt lat="45.83030000" lon="11.86441000">
        <ele>262.00000</ele>
        <time>2010-01-01T16:05:18Z</time>
      </trkpt>
      <trkpt lat="45.83030000" lon="11.86523000">
        <ele>258.00000</ele>
        <time>2010-01-01T16:05:41Z</time>
      </trkpt>
      <trkpt lat="45.83030000" lon="11.86649000">
        <ele>251.00000</ele>
        <time>2010-01-01T16:06:16Z</time>
      </trkpt>
      <trkpt lat="45.83060000" lon="11.86890000">
        <ele>240.00000</ele>
        <time>2010-01-01T16:07:24Z</time>
      </trkpt>
      <trkpt lat="45.83086990" lon="11.86972000">
        <ele>239.00000</ele>
        <time>2010-01-01T16:07:50Z</time>
      </trkpt>
      <trkpt lat="45.83121000" lon="11.87042000">
        <ele>235.00000</ele>
        <time>2010-01-01T16:08:13Z</time>
      </trkpt>
      <trkpt lat="45.83175000" lon="11.87150000">
        <ele>229.00000</ele>
        <time>2010-01-01T16:08:50Z</time>
      </trkpt>
      <trkpt lat="45.83183990" lon="11.87163000">
        <ele>228.00000</ele>
        <time>2010-01-01T16:08:56Z</time>
      </trkpt>
      <trkpt lat="45.83232000" lon="11.87266000">
        <ele>222.00000</ele>
        <time>2010-01-01T16:09:30Z</time>
      </trkpt>
      <trkpt lat="45.83255990" lon="11.87383000">
        <ele>217.00000</ele>
        <time>2010-01-01T16:10:04Z</time>
      </trkpt>
      <trkpt lat="45.83268000" lon="11.87522000">
        <ele>213.00000</ele>
        <time>2010-01-01T16:10:43Z</time>
      </trkpt>
      <trkpt lat="45.83277000" lon="11.87622000">
        <ele>209.00000</ele>
        <time>2010-01-01T16:11:11Z</time>
      </trkpt>
      <trkpt lat="45.83283000" lon="11.87703000">
        <ele>208.00000</ele>
        <time>2010-01-01T16:11:34Z</time>
      </trkpt>
      <trkpt lat="45.83310000" lon="11.87899000">
        <ele>202.00000</ele>
        <time>2010-01-01T16:12:30Z</time>
      </trkpt>
      <trkpt lat="45.83319000" lon="11.87937000">
        <ele>201.00000</ele>
        <time>2010-01-01T16:12:41Z</time>
      </trkpt>
      <trkpt lat="45.83337000" lon="11.88062000">
        <ele>196.00000</ele>
        <time>2010-01-01T16:13:17Z</time>
      </trkpt>
      <trkpt lat="45.83355000" lon="11.88184000">
        <ele>192.00000</ele>
        <time>2010-01-01T16:13:51Z</time>
      </trkpt>
      <trkpt lat="45.83371000" lon="11.88287000">
        <ele>190.00000</ele>
        <time>2010-01-01T16:14:21Z</time>
      </trkpt>
      <trkpt lat="45.83335000" lon="11.88404000">
        <ele>188.00000</ele>
        <time>2010-01-01T16:14:56Z</time>
      </trkpt>
      <trkpt lat="45.83314000" lon="11.88487000">
        <ele>186.00000</ele>
        <time>2010-01-01T16:15:21Z</time>
      </trkpt>
      <trkpt lat="45.83304000" lon="11.88495000">
        <ele>186.00000</ele>
        <time>2010-01-01T16:15:26Z</time>
      </trkpt>
      <trkpt lat="45.83310000" lon="11.88513000">
        <ele>186.00000</ele>
        <time>2010-01-01T16:15:31Z</time>
      </trkpt>
      <trkpt lat="45.83319000" lon="11.88504000">
        <ele>186.00000</ele>
        <time>2010-01-01T16:15:36Z</time>
      </trkpt>
      <trkpt lat="45.83365000" lon="11.88521000">
        <ele>185.00000</ele>
        <time>2010-01-01T16:15:55Z</time>
      </trkpt>
      <trkpt lat="45.83449000" lon="11.88556000">
        <ele>183.00000</ele>
        <time>2010-01-01T16:16:30Z</time>
      </trkpt>
      <trkpt lat="45.83494000" lon="11.88564000">
        <ele>181.00000</ele>
        <time>2010-01-01T16:16:48Z</time>
      </trkpt>
      <trkpt lat="45.83560000" lon="11.88538000">
        <ele>189.00000</ele>
        <time>2010-01-01T16:17:15Z</time>
      </trkpt>
      <trkpt lat="45.83630000" lon="11.88513000">
        <ele>200.00000</ele>
        <time>2010-01-01T16:17:44Z</time>
      </trkpt>
      <trkpt lat="45.83645000" lon="11.88504000">
        <ele>201.00000</ele>
        <time>2010-01-01T16:17:51Z</time>
      </trkpt>
      <trkpt lat="45.83747000" lon="11.88465000">
        <ele>218.00000</ele>
        <time>2010-01-01T16:18:33Z</time>
      </trkpt>
      <trkpt lat="45.83805000" lon="11.88469000">
        <ele>213.00000</ele>
        <time>2010-01-01T16:18:56Z</time>
      </trkpt>
      <trkpt lat="45.83867990" lon="11.88487000">
        <ele>204.00000</ele>
        <time>2010-01-01T16:19:22Z</time>
      </trkpt>
      <trkpt lat="45.83973000" lon="11.88491000">
        <ele>209.00000</ele>
        <time>2010-01-01T16:20:04Z</time>
      </trkpt>
      <trkpt lat="45.84082000" lon="11.88569000">
        <ele>217.00000</ele>
        <time>2010-01-01T16:20:53Z</time>
      </trkpt>
      <trkpt lat="45.84214000" lon="11.88647000">
        <ele>215.00000</ele>
        <time>2010-01-01T16:21:50Z</time>
      </trkpt>
      <trkpt lat="45.84251000" lon="11.88720000">
        <ele>220.00000</ele>
        <time>2010-01-01T16:22:15Z</time>
      </trkpt>
      <trkpt lat="45.84341000" lon="11.88910000">
        <ele>237.00000</ele>
        <time>2010-01-01T16:23:19Z</time>
      </trkpt>
      <trkpt lat="45.84411000" lon="11.89010000">
        <ele>232.00000</ele>
        <time>2010-01-01T16:23:59Z</time>
      </trkpt>
      <trkpt lat="45.84416000" lon="11.89018000">
        <ele>231.00000</ele>
        <time>2010-01-01T16:24:02Z</time>
      </trkpt>
      <trkpt lat="45.84431000" lon="11.89023000">
        <ele>231.00000</ele>
        <time>2010-01-01T16:24:08Z</time>
      </trkpt>
      <trkpt lat="45.84479000" lon="11.89027000">
        <ele>234.00000</ele>
        <time>2010-01-01T16:24:27Z</time>
      </trkpt>
      <trkpt lat="45.84491000" lon="11.89023000">
        <ele>234.00000</ele>
        <time>2010-01-01T16:24:32Z</time>
      </trkpt>
      <trkpt lat="45.84570000" lon="11.88963000">
        <ele>238.00000</ele>
        <time>2010-01-01T16:25:08Z</time>
      </trkpt>
      <trkpt lat="45.84612000" lon="11.88941000">
        <ele>234.00000</ele>
        <time>2010-01-01T16:25:26Z</time>
      </trkpt>
      <trkpt lat="45.84727000" lon="11.88919000">
        <ele>227.00000</ele>
        <time>2010-01-01T16:26:12Z</time>
      </trkpt>
      <trkpt lat="45.84736000" lon="11.88919000">
        <ele>227.00000</ele>
        <time>2010-01-01T16:26:16Z</time>
      </trkpt>
      <trkpt lat="45.84769000" lon="11.88915000">
        <ele>227.00000</ele>
        <time>2010-01-01T16:26:29Z</time>
      </trkpt>
      <trkpt lat="45.84814000" lon="11.88906000">
        <ele>226.00000</ele>
        <time>2010-01-01T16:26:47Z</time>
      </trkpt>
      <trkpt lat="45.84914000" lon="11.88837000">
        <ele>232.00000</ele>
        <time>2010-01-01T16:27:31Z</time>
      </trkpt>
      <trkpt lat="45.84956000" lon="11.88841000">
        <ele>230.00000</ele>
        <time>2010-01-01T16:27:48Z</time>
      </trkpt>
      <trkpt lat="45.85003990" lon="11.88872000">
        <ele>227.00000</ele>
        <time>2010-01-01T16:28:09Z</time>
      </trkpt>
      <trkpt lat="45.85055000" lon="11.88967000">
        <ele>226.00000</ele>
        <time>2010-01-01T16:28:43Z</time>
      </trkpt>
      <trkpt lat="45.85112000" lon="11.89070000">
        <ele>223.00000</ele>
        <time>2010-01-01T16:29:19Z</time>
      </trkpt>
      <trkpt lat="45.85175000" lon="11.89195000">
        <ele>220.00000</ele>
        <time>2010-01-01T16:30:02Z</time>
      </trkpt>
      <trkpt lat="45.85178990" lon="11.89204000">
        <ele>220.00000</ele>
        <time>2010-01-01T16:30:05Z</time>
      </trkpt>
      <trkpt lat="45.85194000" lon="11.89257000">
        <ele>219.00000</ele>
        <time>2010-01-01T16:30:21Z</time>
      </trkpt>
      <trkpt lat="45.85202000" lon="11.89283000">
        <ele>219.00000</ele>
        <time>2010-01-01T16:30:29Z</time>
      </trkpt>
      <trkpt lat="45.85220990" lon="11.89356000">
        <ele>219.00000</ele>
        <time>2010-01-01T16:30:51Z</time>
      </trkpt>
      <trkpt lat="45.85227000" lon="11.89377000">
        <ele>219.00000</ele>
        <time>2010-01-01T16:30:57Z</time>
      </trkpt>
      <trkpt lat="45.85296000" lon="11.89680000">
        <ele>218.00000</ele>
        <time>2010-01-01T16:32:26Z</time>
      </trkpt>
      <trkpt lat="45.85305000" lon="11.89711000">
        <ele>218.00000</ele>
        <time>2010-01-01T16:32:36Z</time>
      </trkpt>
      <trkpt lat="45.85326000" lon="11.89819000">
        <ele>215.00000</ele>
        <time>2010-01-01T16:33:07Z</time>
      </trkpt>
      <trkpt lat="45.85332000" lon="11.89849000">
        <ele>214.00000</ele>
        <time>2010-01-01T16:33:16Z</time>
      </trkpt>
      <trkpt lat="45.85360000" lon="11.89962000">
        <ele>215.00000</ele>
        <time>2010-01-01T16:33:49Z</time>
      </trkpt>
      <trkpt lat="45.85368000" lon="11.90143000">
        <ele>213.00000</ele>
        <time>2010-01-01T16:34:40Z</time>
      </trkpt>
      <trkpt lat="45.85350000" lon="11.90347000">
        <ele>213.00000</ele>
        <time>2010-01-01T16:35:37Z</time>
      </trkpt>
      <trkpt lat="45.85353000" lon="11.90442000">
        <ele>210.00000</ele>
        <time>2010-01-01T16:36:03Z</time>
      </trkpt>
      <trkpt lat="45.85356000" lon="11.90490000">
        <ele>211.00000</ele>
        <time>2010-01-01T16:36:17Z</time>
      </trkpt>
      <trkpt lat="45.85398000" lon="11.90809000">
        <ele>207.00000</ele>
        <time>2010-01-01T16:37:47Z</time>
      </trkpt>
      <trkpt lat="45.85395000" lon="11.90918000">
        <ele>205.00000</ele>
        <time>2010-01-01T16:38:18Z</time>
      </trkpt>
      <trkpt lat="45.85392000" lon="11.90965000">
        <ele>204.00000</ele>
        <time>2010-01-01T16:38:31Z</time>
      </trkpt>
      <trkpt lat="45.85353000" lon="11.91346000">
        <ele>201.00000</ele>
        <time>2010-01-01T16:40:18Z</time>
      </trkpt>
      <trkpt lat="45.85356000" lon="11.91441000">
        <ele>202.00000</ele>
        <time>2010-01-01T16:40:45Z</time>
      </trkpt>
      <trkpt lat="45.85377000" lon="11.91566000">
        <ele>201.00000</ele>
        <time>2010-01-01T16:41:21Z</time>
      </trkpt>
      <trkpt lat="45.85507000" lon="11.92016000">
        <ele>199.00000</ele>
        <time>2010-01-01T16:43:37Z</time>
      </trkpt>
      <trkpt lat="45.85673000" lon="11.92596000">
        <ele>192.00000</ele>
        <time>2010-01-01T16:46:31Z</time>
      </trkpt>
      <trkpt lat="45.85727000" lon="11.92825000">
        <ele>195.00000</ele>
        <time>2010-01-01T16:47:39Z</time>
      </trkpt>
      <trkpt lat="45.85802000" lon="11.93115000">
        <ele>189.00000</ele>
        <time>2010-01-01T16:49:05Z</time>
      </trkpt>
      <trkpt lat="45.85829000" lon="11.93206000">
        <ele>188.00000</ele>
        <time>2010-01-01T16:49:33Z</time>
      </trkpt>
      <trkpt lat="45.85834990" lon="11.93236000">
        <ele>189.00000</ele>
        <time>2010-01-01T16:49:41Z</time>
      </trkpt>
      <trkpt lat="45.85844000" lon="11.93279000">
        <ele>189.00000</ele>
        <time>2010-01-01T16:49:54Z</time>
      </trkpt>
      <trkpt lat="45.85886000" lon="11.93469000">
        <ele>187.00000</ele>
        <time>2010-01-01T16:50:49Z</time>
      </trkpt>
      <trkpt lat="45.85911000" lon="11.93560000">
        <ele>186.00000</ele>
        <time>2010-01-01T16:51:17Z</time>
      </trkpt>
      <trkpt lat="45.85940990" lon="11.93672000">
        <ele>187.00000</ele>
        <time>2010-01-01T16:51:50Z</time>
      </trkpt>
      <trkpt lat="45.86079000" lon="11.94214000">
        <ele>185.00000</ele>
        <time>2010-01-01T16:54:31Z</time>
      </trkpt>
      <trkpt lat="45.86193990" lon="11.94464000">
        <ele>187.00000</ele>
        <time>2010-01-01T16:55:55Z</time>
      </trkpt>
      <trkpt lat="45.86245000" lon="11.94542000">
        <ele>188.00000</ele>
        <time>2010-01-01T16:56:24Z</time>
      </trkpt>
      <trkpt lat="45.86688000" lon="11.95269000">
        <ele>193.00000</ele>
        <time>2010-01-01T17:00:54Z</time>
      </trkpt>
      <trkpt lat="45.86706000" lon="11.95295000">
        <ele>193.00000</ele>
        <time>2010-01-01T17:01:04Z</time>
      </trkpt>
      <trkpt lat="45.86718000" lon="11.95312000">
        <ele>193.00000</ele>
        <time>2010-01-01T17:01:11Z</time>
      </trkpt>
      <trkpt lat="45.86724000" lon="11.95325000">
        <ele>193.00000</ele>
        <time>2010-01-01T17:01:15Z</time>
      </trkpt>
      <trkpt lat="45.86941000" lon="11.95684000">
        <ele>196.00000</ele>
        <time>2010-01-01T17:03:27Z</time>
      </trkpt>
      <trkpt lat="45.86989000" lon="11.95758000">
        <ele>198.00000</ele>
        <time>2010-01-01T17:03:56Z</time>
      </trkpt>
      <trkpt lat="45.87028000" lon="11.95852000">
        <ele>196.00000</ele>
        <time>2010-01-01T17:04:26Z</time>
      </trkpt>
      <trkpt lat="45.87079000" lon="11.95991000">
        <ele>196.00000</ele>
        <time>2010-01-01T17:05:10Z</time>
      </trkpt>
      <trkpt lat="45.87133000" lon="11.96138000">
        <ele>196.00000</ele>
        <time>2010-01-01T17:05:56Z</time>
      </trkpt>
      <trkpt lat="45.87143000" lon="11.96155000">
        <ele>195.00000</ele>
        <time>2010-01-01T17:06:02Z</time>
      </trkpt>
      <trkpt lat="45.87151000" lon="11.96190000">
        <ele>192.00000</ele>
        <time>2010-01-01T17:06:13Z</time>
      </trkpt>
      <trkpt lat="45.87166000" lon="11.96225000">
        <ele>190.00000</ele>
        <time>2010-01-01T17:06:24Z</time>
      </trkpt>
      <trkpt lat="45.87194000" lon="11.96303000">
        <ele>189.00000</ele>
        <time>2010-01-01T17:06:49Z</time>
      </trkpt>
      <trkpt lat="45.87209000" lon="11.96346000">
        <ele>188.00000</ele>
        <time>2010-01-01T17:07:02Z</time>
      </trkpt>
      <trkpt lat="45.87242000" lon="11.96411000">
        <ele>184.00000</ele>
        <time>2010-01-01T17:07:24Z</time>
      </trkpt>
      <trkpt lat="45.87275000" lon="11.96480000">
        <ele>184.00000</ele>
        <time>2010-01-01T17:07:48Z</time>
      </trkpt>
      <trkpt lat="45.87310990" lon="11.96536000">
        <ele>181.00000</ele>
        <time>2010-01-01T17:08:09Z</time>
      </trkpt>
      <trkpt lat="45.87371000" lon="11.96583000">
        <ele>174.00000</ele>
        <time>2010-01-01T17:08:36Z</time>
      </trkpt>
      <trkpt lat="45.87416000" lon="11.96583000">
        <ele>172.00000</ele>
        <time>2010-01-01T17:08:54Z</time>
      </trkpt>
      <trkpt lat="45.87447000" lon="11.96557000">
        <ele>172.00000</ele>
        <time>2010-01-01T17:09:09Z</time>
      </trkpt>
      <trkpt lat="45.87468000" lon="11.96506000">
        <ele>176.00000</ele>
        <time>2010-01-01T17:09:25Z</time>
      </trkpt>
      <trkpt lat="45.87471000" lon="11.96493000">
        <ele>177.00000</ele>
        <time>2010-01-01T17:09:29Z</time>
      </trkpt>
      <trkpt lat="45.87477000" lon="11.96454000">
        <ele>180.00000</ele>
        <time>2010-01-01T17:09:40Z</time>
      </trkpt>
      <trkpt lat="45.87516000" lon="11.96411000">
        <ele>182.00000</ele>
        <time>2010-01-01T17:10:00Z</time>
      </trkpt>
      <trkpt lat="45.87531000" lon="11.96394000">
        <ele>183.00000</ele>
        <time>2010-01-01T17:10:08Z</time>
      </trkpt>
      <trkpt lat="45.87540000" lon="11.96389000">
        <ele>183.00000</ele>
        <time>2010-01-01T17:10:11Z</time>
      </trkpt>
      <trkpt lat="45.87603000" lon="11.96350000">
        <ele>184.00000</ele>
        <time>2010-01-01T17:10:39Z</time>
      </trkpt>
      <trkpt lat="45.87747000" lon="11.96315000">
        <ele>180.00000</ele>
        <time>2010-01-01T17:11:37Z</time>
      </trkpt>
      <trkpt lat="45.87805000" lon="11.96303000">
        <ele>182.00000</ele>
        <time>2010-01-01T17:12:01Z</time>
      </trkpt>
      <trkpt lat="45.87898000" lon="11.96281000">
        <ele>179.00000</ele>
        <time>2010-01-01T17:12:39Z</time>
      </trkpt>
      <trkpt lat="45.87935000" lon="11.96263000">
        <ele>178.00000</ele>
        <time>2010-01-01T17:12:54Z</time>
      </trkpt>
      <trkpt lat="45.87980000" lon="11.96216000">
        <ele>180.00000</ele>
        <time>2010-01-01T17:13:16Z</time>
      </trkpt>
      <trkpt lat="45.88043000" lon="11.96138000">
        <ele>182.00000</ele>
        <time>2010-01-01T17:13:50Z</time>
      </trkpt>
      <trkpt lat="45.88055000" lon="11.96121000">
        <ele>181.00000</ele>
        <time>2010-01-01T17:13:56Z</time>
      </trkpt>
      <trkpt lat="45.88221000" lon="11.95814000">
        <ele>179.00000</ele>
        <time>2010-01-01T17:15:45Z</time>
      </trkpt>
      <trkpt lat="45.88236000" lon="11.95787000">
        <ele>180.00000</ele>
        <time>2010-01-01T17:15:54Z</time>
      </trkpt>
      <trkpt lat="45.88461000" lon="11.95407000">
        <ele>191.00000</ele>
        <time>2010-01-01T17:18:13Z</time>
      </trkpt>
      <trkpt lat="45.88482000" lon="11.95312000">
        <ele>191.00000</ele>
        <time>2010-01-01T17:18:41Z</time>
      </trkpt>
      <trkpt lat="45.88554000" lon="11.94957000">
        <ele>193.00000</ele>
        <time>2010-01-01T17:20:24Z</time>
      </trkpt>
      <trkpt lat="45.88588000" lon="11.94862000">
        <ele>192.00000</ele>
        <time>2010-01-01T17:20:54Z</time>
      </trkpt>
      <trkpt lat="45.88663000" lon="11.94728000">
        <ele>183.00000</ele>
        <time>2010-01-01T17:21:42Z</time>
      </trkpt>
      <trkpt lat="45.88780000" lon="11.94616000">
        <ele>187.00000</ele>
        <time>2010-01-01T17:22:38Z</time>
      </trkpt>
      <trkpt lat="45.89000000" lon="11.94425000">
        <ele>183.00000</ele>
        <time>2010-01-01T17:24:21Z</time>
      </trkpt>
      <trkpt lat="45.89021000" lon="11.94408000">
        <ele>185.00000</ele>
        <time>2010-01-01T17:24:31Z</time>
      </trkpt>
      <trkpt lat="45.89091000" lon="11.94386000">
        <ele>181.00000</ele>
        <time>2010-01-01T17:24:59Z</time>
      </trkpt>
      <trkpt lat="45.89196000" lon="11.94369000">
        <ele>184.00000</ele>
        <time>2010-01-01T17:25:42Z</time>
      </trkpt>
      <trkpt lat="45.89286000" lon="11.94330000">
        <ele>185.00000</ele>
        <time>2010-01-01T17:26:19Z</time>
      </trkpt>
      <trkpt lat="45.89413000" lon="11.94248000">
        <ele>183.00000</ele>
        <time>2010-01-01T17:27:15Z</time>
      </trkpt>
      <trkpt lat="45.89458000" lon="11.94235000">
        <ele>183.00000</ele>
        <time>2010-01-01T17:27:33Z</time>
      </trkpt>
      <trkpt lat="45.89632000" lon="11.94260000">
        <ele>183.00000</ele>
        <time>2010-01-01T17:28:43Z</time>
      </trkpt>
      <trkpt lat="45.89714000" lon="11.94269000">
        <ele>183.00000</ele>
        <time>2010-01-01T17:29:16Z</time>
      </trkpt>
      <trkpt lat="45.89765000" lon="11.94269000">
        <ele>181.00000</ele>
        <time>2010-01-01T17:29:37Z</time>
      </trkpt>
      <trkpt lat="45.89865000" lon="11.94260000">
        <ele>185.00000</ele>
        <time>2010-01-01T17:30:17Z</time>
      </trkpt>
      <trkpt lat="45.89948000" lon="11.94282000">
        <ele>192.00000</ele>
        <time>2010-01-01T17:30:51Z</time>
      </trkpt>
      <trkpt lat="45.89967000" lon="11.94322000">
        <ele>185.00000</ele>
        <time>2010-01-01T17:31:04Z</time>
      </trkpt>
      <trkpt lat="45.89973000" lon="11.94343000">
        <ele>182.00000</ele>
        <time>2010-01-01T17:31:11Z</time>
      </trkpt>
      <trkpt lat="45.89976000" lon="11.94408000">
        <ele>176.00000</ele>
        <time>2010-01-01T17:31:29Z</time>
      </trkpt>
      <trkpt lat="45.89978000" lon="11.94468000">
        <ele>177.00000</ele>
        <time>2010-01-01T17:31:45Z</time>
      </trkpt>
      <trkpt lat="45.90008000" lon="11.94922000">
        <ele>172.00000</ele>
        <time>2010-01-01T17:33:52Z</time>
      </trkpt>
      <trkpt lat="45.90021000" lon="11.95130000">
        <ele>181.00000</ele>
        <time>2010-01-01T17:34:51Z</time>
      </trkpt>
      <trkpt lat="45.90018000" lon="11.95144000">
        <ele>183.00000</ele>
        <time>2010-01-01T17:34:55Z</time>
      </trkpt>
      <trkpt lat="45.90006000" lon="11.95165000">
        <ele>186.00000</ele>
        <time>2010-01-01T17:35:02Z</time>
      </trkpt>
      <trkpt lat="45.89913000" lon="11.95208000">
        <ele>182.00000</ele>
        <time>2010-01-01T17:35:41Z</time>
      </trkpt>
      <trkpt lat="45.89801000" lon="11.95269000">
        <ele>181.00000</ele>
        <time>2010-01-01T17:36:29Z</time>
      </trkpt>
      <trkpt lat="45.89783000" lon="11.95281000">
        <ele>181.00000</ele>
        <time>2010-01-01T17:36:37Z</time>
      </trkpt>
      <trkpt lat="45.89765000" lon="11.95299000">
        <ele>181.00000</ele>
        <time>2010-01-01T17:36:46Z</time>
      </trkpt>
      <trkpt lat="45.89750000" lon="11.95312000">
        <ele>179.00000</ele>
        <time>2010-01-01T17:36:53Z</time>
      </trkpt>
      <trkpt lat="45.89705000" lon="11.95355000">
        <ele>179.00000</ele>
        <time>2010-01-01T17:37:15Z</time>
      </trkpt>
      <trkpt lat="45.89657000" lon="11.95416000">
        <ele>180.00000</ele>
        <time>2010-01-01T17:37:40Z</time>
      </trkpt>
      <trkpt lat="45.89644990" lon="11.95441000">
        <ele>182.00000</ele>
        <time>2010-01-01T17:37:49Z</time>
      </trkpt>
      <trkpt lat="45.89642000" lon="11.95489000">
        <ele>190.00000</ele>
        <time>2010-01-01T17:38:02Z</time>
      </trkpt>
      <trkpt lat="45.89639000" lon="11.95498000">
        <ele>190.00000</ele>
        <time>2010-01-01T17:38:05Z</time>
      </trkpt>
      <trkpt lat="45.89608990" lon="11.95706000">
        <ele>198.00000</ele>
        <time>2010-01-01T17:39:04Z</time>
      </trkpt>
      <trkpt lat="45.89590000" lon="11.95835000">
        <ele>195.00000</ele>
        <time>2010-01-01T17:39:41Z</time>
      </trkpt>
      <trkpt lat="45.89521000" lon="11.95978000">
        <ele>196.00000</ele>
        <time>2010-01-01T17:40:29Z</time>
      </trkpt>
      <trkpt lat="45.89515000" lon="11.96043000">
        <ele>200.00000</ele>
        <time>2010-01-01T17:40:48Z</time>
      </trkpt>
      <trkpt lat="45.89527000" lon="11.96082000">
        <ele>206.00000</ele>
        <time>2010-01-01T17:41:00Z</time>
      </trkpt>
      <trkpt lat="45.89594000" lon="11.96091000">
        <ele>219.00000</ele>
        <time>2010-01-01T17:41:27Z</time>
      </trkpt>
      <trkpt lat="45.89608990" lon="11.96129000">
        <ele>221.00000</ele>
        <time>2010-01-01T17:41:39Z</time>
      </trkpt>
      <trkpt lat="45.89587000" lon="11.96164000">
        <ele>219.00000</ele>
        <time>2010-01-01T17:41:52Z</time>
      </trkpt>
      <trkpt lat="45.89557000" lon="11.96186000">
        <ele>218.00000</ele>
        <time>2010-01-01T17:42:05Z</time>
      </trkpt>
      <trkpt lat="45.89541990" lon="11.96216000">
        <ele>220.00000</ele>
        <time>2010-01-01T17:42:16Z</time>
      </trkpt>
      <trkpt lat="45.89533000" lon="11.96234000">
        <ele>221.00000</ele>
        <time>2010-01-01T17:42:22Z</time>
      </trkpt>
      <trkpt lat="45.89530000" lon="11.96263000">
        <ele>222.00000</ele>
        <time>2010-01-01T17:42:30Z</time>
      </trkpt>
      <trkpt lat="45.89545000" lon="11.96320000">
        <ele>222.00000</ele>
        <time>2010-01-01T17:42:47Z</time>
      </trkpt>
      <trkpt lat="45.89560000" lon="11.96372000">
        <ele>222.00000</ele>
        <time>2010-01-01T17:43:03Z</time>
      </trkpt>
      <trkpt lat="45.89569000" lon="11.96411000">
        <ele>221.00000</ele>
        <time>2010-01-01T17:43:14Z</time>
      </trkpt>
      <trkpt lat="45.89579000" lon="11.96432000">
        <ele>222.00000</ele>
        <time>2010-01-01T17:43:21Z</time>
      </trkpt>
      <trkpt lat="45.89597000" lon="11.96502000">
        <ele>225.00000</ele>
        <time>2010-01-01T17:43:42Z</time>
      </trkpt>
      <trkpt lat="45.89629000" lon="11.96571000">
        <ele>229.00000</ele>
        <time>2010-01-01T17:44:05Z</time>
      </trkpt>
      <trkpt lat="45.89639000" lon="11.96609000">
        <ele>231.00000</ele>
        <time>2010-01-01T17:44:16Z</time>
      </trkpt>
      <trkpt lat="45.89629000" lon="11.96731000">
        <ele>233.00000</ele>
        <time>2010-01-01T17:44:51Z</time>
      </trkpt>
      <trkpt lat="45.89627000" lon="11.96800000">
        <ele>233.00000</ele>
        <time>2010-01-01T17:45:10Z</time>
      </trkpt>
      <trkpt lat="45.89617000" lon="11.96895000">
        <ele>234.00000</ele>
        <time>2010-01-01T17:45:37Z</time>
      </trkpt>
      <trkpt lat="45.89605000" lon="11.97085000">
        <ele>231.00000</ele>
        <time>2010-01-01T17:46:30Z</time>
      </trkpt>
      <trkpt lat="45.89587000" lon="11.97193000">
        <ele>228.00000</ele>
        <time>2010-01-01T17:47:01Z</time>
      </trkpt>
      <trkpt lat="45.89575000" lon="11.97267000">
        <ele>225.00000</ele>
        <time>2010-01-01T17:47:22Z</time>
      </trkpt>
      <trkpt lat="45.89566000" lon="11.97310000">
        <ele>225.00000</ele>
        <time>2010-01-01T17:47:34Z</time>
      </trkpt>
      <trkpt lat="45.89545000" lon="11.97405000">
        <ele>228.00000</ele>
        <time>2010-01-01T17:48:02Z</time>
      </trkpt>
      <trkpt lat="45.89545000" lon="11.97470000">
        <ele>227.00000</ele>
        <time>2010-01-01T17:48:20Z</time>
      </trkpt>
      <trkpt lat="45.89554000" lon="11.97509000">
        <ele>227.00000</ele>
        <time>2010-01-01T17:48:32Z</time>
      </trkpt>
      <trkpt lat="45.89572000" lon="11.97587000">
        <ele>227.00000</ele>
        <time>2010-01-01T17:48:55Z</time>
      </trkpt>
      <trkpt lat="45.89583990" lon="11.97630000">
        <ele>228.00000</ele>
        <time>2010-01-01T17:49:07Z</time>
      </trkpt>
      <trkpt lat="45.89602000" lon="11.97682000">
        <ele>228.00000</ele>
        <time>2010-01-01T17:49:24Z</time>
      </trkpt>
      <trkpt lat="45.89612000" lon="11.97708000">
        <ele>226.00000</ele>
        <time>2010-01-01T17:49:32Z</time>
      </trkpt>
      <trkpt lat="45.89614000" lon="11.97721000">
        <ele>225.00000</ele>
        <time>2010-01-01T17:49:36Z</time>
      </trkpt>
      <trkpt lat="45.89632000" lon="11.97786000">
        <ele>223.00000</ele>
        <time>2010-01-01T17:49:55Z</time>
      </trkpt>
      <trkpt lat="45.89681000" lon="11.97955000">
        <ele>226.00000</ele>
        <time>2010-01-01T17:50:46Z</time>
      </trkpt>
      <trkpt lat="45.89705000" lon="11.98037000">
        <ele>229.00000</ele>
        <time>2010-01-01T17:51:11Z</time>
      </trkpt>
      <trkpt lat="45.89732000" lon="11.98145000">
        <ele>231.00000</ele>
        <time>2010-01-01T17:51:43Z</time>
      </trkpt>
      <trkpt lat="45.89747000" lon="11.98197000">
        <ele>231.00000</ele>
        <time>2010-01-01T17:51:59Z</time>
      </trkpt>
      <trkpt lat="45.89765000" lon="11.98253000">
        <ele>232.00000</ele>
        <time>2010-01-01T17:52:16Z</time>
      </trkpt>
      <trkpt lat="45.89786000" lon="11.98323000">
        <ele>233.00000</ele>
        <time>2010-01-01T17:52:37Z</time>
      </trkpt>
      <trkpt lat="45.89789000" lon="11.98366000">
        <ele>233.00000</ele>
        <time>2010-01-01T17:52:49Z</time>
      </trkpt>
      <trkpt lat="45.89789000" lon="11.98378000">
        <ele>234.00000</ele>
        <time>2010-01-01T17:52:52Z</time>
      </trkpt>
      <trkpt lat="45.89765000" lon="11.98443000">
        <ele>234.00000</ele>
        <time>2010-01-01T17:53:13Z</time>
      </trkpt>
      <trkpt lat="45.89732000" lon="11.98538000">
        <ele>240.00000</ele>
        <time>2010-01-01T17:53:42Z</time>
      </trkpt>
      <trkpt lat="45.89714000" lon="11.98577000">
        <ele>240.00000</ele>
        <time>2010-01-01T17:53:55Z</time>
      </trkpt>
      <trkpt lat="45.89711000" lon="11.98608000">
        <ele>239.00000</ele>
        <time>2010-01-01T17:54:04Z</time>
      </trkpt>
      <trkpt lat="45.89708000" lon="11.98634000">
        <ele>238.00000</ele>
        <time>2010-01-01T17:54:12Z</time>
      </trkpt>
      <trkpt lat="45.89711000" lon="11.98672000">
        <ele>238.00000</ele>
        <time>2010-01-01T17:54:22Z</time>
      </trkpt>
      <trkpt lat="45.89765000" lon="11.98780000">
        <ele>236.00000</ele>
        <time>2010-01-01T17:54:59Z</time>
      </trkpt>
      <trkpt lat="45.89786000" lon="11.98824000">
        <ele>237.00000</ele>
        <time>2010-01-01T17:55:14Z</time>
      </trkpt>
      <trkpt lat="45.89786000" lon="11.98850000">
        <ele>237.00000</ele>
        <time>2010-01-01T17:55:21Z</time>
      </trkpt>
      <trkpt lat="45.89765000" lon="11.98902000">
        <ele>236.00000</ele>
        <time>2010-01-01T17:55:38Z</time>
      </trkpt>
      <trkpt lat="45.89738000" lon="11.98945000">
        <ele>237.00000</ele>
        <time>2010-01-01T17:55:54Z</time>
      </trkpt>
      <trkpt lat="45.89744000" lon="11.99074000">
        <ele>240.00000</ele>
        <time>2010-01-01T17:56:30Z</time>
      </trkpt>
      <trkpt lat="45.89753000" lon="11.99231000">
        <ele>241.00000</ele>
        <time>2010-01-01T17:57:14Z</time>
      </trkpt>
      <trkpt lat="45.89765000" lon="11.99256000">
        <ele>242.00000</ele>
        <time>2010-01-01T17:57:23Z</time>
      </trkpt>
      <trkpt lat="45.89816000" lon="11.99317000">
        <ele>245.00000</ele>
        <time>2010-01-01T17:57:49Z</time>
      </trkpt>
      <trkpt lat="45.89835000" lon="11.99343000">
        <ele>244.00000</ele>
        <time>2010-01-01T17:58:00Z</time>
      </trkpt>
      <trkpt lat="45.89895000" lon="11.99408000">
        <ele>245.00000</ele>
        <time>2010-01-01T17:58:30Z</time>
      </trkpt>
      <trkpt lat="45.89906000" lon="11.99421000">
        <ele>246.00000</ele>
        <time>2010-01-01T17:58:35Z</time>
      </trkpt>
      <trkpt lat="45.89940000" lon="11.99464000">
        <ele>249.00000</ele>
        <time>2010-01-01T17:58:54Z</time>
      </trkpt>
      <trkpt lat="45.89952000" lon="11.99468000">
        <ele>250.00000</ele>
        <time>2010-01-01T17:58:58Z</time>
      </trkpt>
      <trkpt lat="45.89958000" lon="11.99473000">
        <ele>251.00000</ele>
        <time>2010-01-01T17:59:01Z</time>
      </trkpt>
      <trkpt lat="45.89988000" lon="11.99490000">
        <ele>253.00000</ele>
        <time>2010-01-01T17:59:14Z</time>
      </trkpt>
      <trkpt lat="45.90078000" lon="11.99516000">
        <ele>257.00000</ele>
        <time>2010-01-01T17:59:51Z</time>
      </trkpt>
      <trkpt lat="45.90129000" lon="11.99551000">
        <ele>258.00000</ele>
        <time>2010-01-01T18:00:14Z</time>
      </trkpt>
      <trkpt lat="45.90132000" lon="11.99555000">
        <ele>257.00000</ele>
        <time>2010-01-01T18:00:15Z</time>
      </trkpt>
      <trkpt lat="45.90161990" lon="11.99573000">
        <ele>257.00000</ele>
        <time>2010-01-01T18:00:28Z</time>
      </trkpt>
      <trkpt lat="45.90168000" lon="11.99576000">
        <ele>257.00000</ele>
        <time>2010-01-01T18:00:31Z</time>
      </trkpt>
      <trkpt lat="45.90174000" lon="11.99564000">
        <ele>258.00000</ele>
        <time>2010-01-01T18:00:35Z</time>
      </trkpt>
      <trkpt lat="45.90174000" lon="11.99555000">
        <ele>258.00000</ele>
        <time>2010-01-01T18:00:37Z</time>
      </trkpt>
      <trkpt lat="45.90171000" lon="11.99547000">
        <ele>259.00000</ele>
        <time>2010-01-01T18:00:40Z</time>
      </trkpt>
      <trkpt lat="45.90135000" lon="11.99529000">
        <ele>258.00000</ele>
        <time>2010-01-01T18:00:55Z</time>
      </trkpt>
      <trkpt lat="45.90123000" lon="11.99494000">
        <ele>259.00000</ele>
        <time>2010-01-01T18:01:06Z</time>
      </trkpt>
      <trkpt lat="45.90111000" lon="11.99447000">
        <ele>261.00000</ele>
        <time>2010-01-01T18:01:20Z</time>
      </trkpt>
      <trkpt lat="45.90108000" lon="11.99438000">
        <ele>261.00000</ele>
        <time>2010-01-01T18:01:23Z</time>
      </trkpt>
      <trkpt lat="45.90120000" lon="11.99395000">
        <ele>263.00000</ele>
        <time>2010-01-01T18:01:36Z</time>
      </trkpt>
      <trkpt lat="45.90123000" lon="11.99334000">
        <ele>266.00000</ele>
        <time>2010-01-01T18:01:53Z</time>
      </trkpt>
      <trkpt lat="45.90147000" lon="11.99279000">
        <ele>273.00000</ele>
        <time>2010-01-01T18:02:11Z</time>
      </trkpt>
      <trkpt lat="45.90147000" lon="11.99261000">
        <ele>275.00000</ele>
        <time>2010-01-01T18:02:16Z</time>
      </trkpt>
      <trkpt lat="45.90201000" lon="11.99235000">
        <ele>284.00000</ele>
        <time>2010-01-01T18:02:39Z</time>
      </trkpt>
      <trkpt lat="45.90253000" lon="11.99217000">
        <ele>292.00000</ele>
        <time>2010-01-01T18:03:00Z</time>
      </trkpt>
      <trkpt lat="45.90294000" lon="11.99217000">
        <ele>300.00000</ele>
        <time>2010-01-01T18:03:16Z</time>
      </trkpt>
      <trkpt lat="45.90310000" lon="11.99217000">
        <ele>303.00000</ele>
        <time>2010-01-01T18:03:23Z</time>
      </trkpt>
      <trkpt lat="45.90316000" lon="11.99196000">
        <ele>309.00000</ele>
        <time>2010-01-01T18:03:29Z</time>
      </trkpt>
      <trkpt lat="45.90292000" lon="11.99110000">
        <ele>319.00000</ele>
        <time>2010-01-01T18:03:55Z</time>
      </trkpt>
      <trkpt lat="45.90303990" lon="11.99019000">
        <ele>325.00000</ele>
        <time>2010-01-01T18:04:21Z</time>
      </trkpt>
      <trkpt lat="45.90322000" lon="11.99019000">
        <ele>331.00000</ele>
        <time>2010-01-01T18:04:28Z</time>
      </trkpt>
      <trkpt lat="45.90364000" lon="11.99074000">
        <ele>345.00000</ele>
        <time>2010-01-01T18:04:51Z</time>
      </trkpt>
      <trkpt lat="45.90433000" lon="11.99119000">
        <ele>356.00000</ele>
        <time>2010-01-01T18:05:21Z</time>
      </trkpt>
      <trkpt lat="45.90445000" lon="11.99101000">
        <ele>360.00000</ele>
        <time>2010-01-01T18:05:28Z</time>
      </trkpt>
      <trkpt lat="45.90475000" lon="11.99122000">
        <ele>366.00000</ele>
        <time>2010-01-01T18:05:41Z</time>
      </trkpt>
      <trkpt lat="45.90520000" lon="11.99114000">
        <ele>379.00000</ele>
        <time>2010-01-01T18:05:59Z</time>
      </trkpt>
      <trkpt lat="45.90530000" lon="11.99105000">
        <ele>381.00000</ele>
        <time>2010-01-01T18:06:04Z</time>
      </trkpt>
      <trkpt lat="45.90592990" lon="11.99053000">
        <ele>378.00000</ele>
        <time>2010-01-01T18:06:33Z</time>
      </trkpt>
      <trkpt lat="45.90628990" lon="11.99040000">
        <ele>372.00000</ele>
        <time>2010-01-01T18:06:48Z</time>
      </trkpt>
      <trkpt lat="45.90659000" lon="11.99074000">
        <ele>381.00000</ele>
        <time>2010-01-01T18:07:03Z</time>
      </trkpt>
      <trkpt lat="45.90674000" lon="11.99119000">
        <ele>393.00000</ele>
        <time>2010-01-01T18:07:17Z</time>
      </trkpt>
      <trkpt lat="45.90791000" lon="11.99261000">
        <ele>417.00000</ele>
        <time>2010-01-01T18:08:19Z</time>
      </trkpt>
      <trkpt lat="45.90828000" lon="11.99287000">
        <ele>423.00000</ele>
        <time>2010-01-01T18:08:35Z</time>
      </trkpt>
      <trkpt lat="45.90875990" lon="11.99279000">
        <ele>415.00000</ele>
        <time>2010-01-01T18:08:54Z</time>
      </trkpt>
      <trkpt lat="45.90903000" lon="11.99274000">
        <ele>411.00000</ele>
        <time>2010-01-01T18:09:05Z</time>
      </trkpt>
      <trkpt lat="45.90975000" lon="11.99378000">
        <ele>439.00000</ele>
        <time>2010-01-01T18:09:46Z</time>
      </trkpt>
      <trkpt lat="45.91067990" lon="11.99382000">
        <ele>438.00000</ele>
        <time>2010-01-01T18:10:23Z</time>
      </trkpt>
      <trkpt lat="45.91116000" lon="11.99365000">
        <ele>439.00000</ele>
        <time>2010-01-01T18:10:43Z</time>
      </trkpt>
      <trkpt lat="45.91122000" lon="11.99369000">
        <ele>442.00000</ele>
        <time>2010-01-01T18:10:46Z</time>
      </trkpt>
      <trkpt lat="45.91119000" lon="11.99387000">
        <ele>448.00000</ele>
        <time>2010-01-01T18:10:51Z</time>
      </trkpt>
      <trkpt lat="45.90963000" lon="11.99421000">
        <ele>465.00000</ele>
        <time>2010-01-01T18:11:54Z</time>
      </trkpt>
      <trkpt lat="45.90900000" lon="11.99360000">
        <ele>447.00000</ele>
        <time>2010-01-01T18:12:25Z</time>
      </trkpt>
      <trkpt lat="45.90878000" lon="11.99360000">
        <ele>450.00000</ele>
        <time>2010-01-01T18:12:33Z</time>
      </trkpt>
      <trkpt lat="45.90778990" lon="11.99408000">
        <ele>473.00000</ele>
        <time>2010-01-01T18:13:15Z</time>
      </trkpt>
      <trkpt lat="45.90734000" lon="11.99391000">
        <ele>467.00000</ele>
        <time>2010-01-01T18:13:34Z</time>
      </trkpt>
      <trkpt lat="45.90680000" lon="11.99416000">
        <ele>469.00000</ele>
        <time>2010-01-01T18:13:57Z</time>
      </trkpt>
      <trkpt lat="45.90677000" lon="11.99473000">
        <ele>471.00000</ele>
        <time>2010-01-01T18:14:13Z</time>
      </trkpt>
      <trkpt lat="45.90710000" lon="11.99551000">
        <ele>478.00000</ele>
        <time>2010-01-01T18:14:38Z</time>
      </trkpt>
      <trkpt lat="45.90719000" lon="11.99573000">
        <ele>480.00000</ele>
        <time>2010-01-01T18:14:45Z</time>
      </trkpt>
      <trkpt lat="45.90728000" lon="11.99551000">
        <ele>485.00000</ele>
        <time>2010-01-01T18:14:52Z</time>
      </trkpt>
      <trkpt lat="45.90716000" lon="11.99503000">
        <ele>484.00000</ele>
        <time>2010-01-01T18:15:06Z</time>
      </trkpt>
      <trkpt lat="45.90731000" lon="11.99482000">
        <ele>486.00000</ele>
        <time>2010-01-01T18:15:15Z</time>
      </trkpt>
      <trkpt lat="45.90809990" lon="11.99477000">
        <ele>498.00000</ele>
        <time>2010-01-01T18:15:46Z</time>
      </trkpt>
      <trkpt lat="45.90843000" lon="11.99464000">
        <ele>496.00000</ele>
        <time>2010-01-01T18:16:00Z</time>
      </trkpt>
      <trkpt lat="45.90875990" lon="11.99464000">
        <ele>496.00000</ele>
        <time>2010-01-01T18:16:13Z</time>
      </trkpt>
      <trkpt lat="45.91011000" lon="11.99555000">
        <ele>515.00000</ele>
        <time>2010-01-01T18:17:13Z</time>
      </trkpt>
      <trkpt lat="45.91071000" lon="11.99568000">
        <ele>518.00000</ele>
        <time>2010-01-01T18:17:37Z</time>
      </trkpt>
      <trkpt lat="45.91111000" lon="11.99555000">
        <ele>521.00000</ele>
        <time>2010-01-01T18:17:54Z</time>
      </trkpt>
      <trkpt lat="45.91128990" lon="11.99547000">
        <ele>522.00000</ele>
        <time>2010-01-01T18:18:01Z</time>
      </trkpt>
      <trkpt lat="45.91145990" lon="11.99555000">
        <ele>530.00000</ele>
        <time>2010-01-01T18:18:08Z</time>
      </trkpt>
      <trkpt lat="45.91145990" lon="11.99559000">
        <ele>532.00000</ele>
        <time>2010-01-01T18:18:10Z</time>
      </trkpt>
      <trkpt lat="45.91116000" lon="11.99576000">
        <ele>530.00000</ele>
        <time>2010-01-01T18:18:22Z</time>
      </trkpt>
      <trkpt lat="45.91059000" lon="11.99602000">
        <ele>532.00000</ele>
        <time>2010-01-01T18:18:46Z</time>
      </trkpt>
      <trkpt lat="45.91005000" lon="11.99607000">
        <ele>533.00000</ele>
        <time>2010-01-01T18:19:08Z</time>
      </trkpt>
      <trkpt lat="45.90911990" lon="11.99624000">
        <ele>539.00000</ele>
        <time>2010-01-01T18:19:46Z</time>
      </trkpt>
      <trkpt lat="45.90891000" lon="11.99659000">
        <ele>539.00000</ele>
        <time>2010-01-01T18:19:58Z</time>
      </trkpt>
      <trkpt lat="45.90888000" lon="11.99707000">
        <ele>543.00000</ele>
        <time>2010-01-01T18:20:12Z</time>
      </trkpt>
      <trkpt lat="45.90885000" lon="11.99728000">
        <ele>544.00000</ele>
        <time>2010-01-01T18:20:18Z</time>
      </trkpt>
      <trkpt lat="45.90892990" lon="11.99776000">
        <ele>551.00000</ele>
        <time>2010-01-01T18:20:32Z</time>
      </trkpt>
      <trkpt lat="45.90892990" lon="11.99901000">
        <ele>563.00000</ele>
        <time>2010-01-01T18:21:06Z</time>
      </trkpt>
      <trkpt lat="45.90873000" lon="11.99975000">
        <ele>565.00000</ele>
        <time>2010-01-01T18:21:29Z</time>
      </trkpt>
      <trkpt lat="45.90866000" lon="12.00052000">
        <ele>561.00000</ele>
        <time>2010-01-01T18:21:50Z</time>
      </trkpt>
      <trkpt lat="45.90911990" lon="12.00161000">
        <ele>582.00000</ele>
        <time>2010-01-01T18:22:26Z</time>
      </trkpt>
      <trkpt lat="45.90885000" lon="12.00255000">
        <ele>578.00000</ele>
        <time>2010-01-01T18:22:54Z</time>
      </trkpt>
      <trkpt lat="45.90878000" lon="12.00316000">
        <ele>591.00000</ele>
        <time>2010-01-01T18:23:11Z</time>
      </trkpt>
      <trkpt lat="45.90830000" lon="12.00415000">
        <ele>592.00000</ele>
        <time>2010-01-01T18:23:45Z</time>
      </trkpt>
      <trkpt lat="45.90828000" lon="12.00446000">
        <ele>590.00000</ele>
        <time>2010-01-01T18:23:53Z</time>
      </trkpt>
      <trkpt lat="45.90921000" lon="12.00649000">
        <ele>604.00000</ele>
        <time>2010-01-01T18:25:01Z</time>
      </trkpt>
      <trkpt lat="45.90953990" lon="12.00697000">
        <ele>619.00000</ele>
        <time>2010-01-01T18:25:20Z</time>
      </trkpt>
      <trkpt lat="45.90953990" lon="12.00736000">
        <ele>617.00000</ele>
        <time>2010-01-01T18:25:31Z</time>
      </trkpt>
      <trkpt lat="45.90936000" lon="12.00805000">
        <ele>608.00000</ele>
        <time>2010-01-01T18:25:51Z</time>
      </trkpt>
      <trkpt lat="45.90953990" lon="12.00861000">
        <ele>612.00000</ele>
        <time>2010-01-01T18:26:09Z</time>
      </trkpt>
      <trkpt lat="45.90969000" lon="12.00857000">
        <ele>620.00000</ele>
        <time>2010-01-01T18:26:15Z</time>
      </trkpt>
      <trkpt lat="45.90951000" lon="12.00805000">
        <ele>615.00000</ele>
        <time>2010-01-01T18:26:31Z</time>
      </trkpt>
      <trkpt lat="45.90951000" lon="12.00800000">
        <ele>615.00000</ele>
        <time>2010-01-01T18:26:32Z</time>
      </trkpt>
      <trkpt lat="45.90978000" lon="12.00718000">
        <ele>631.00000</ele>
        <time>2010-01-01T18:26:57Z</time>
      </trkpt>
      <trkpt lat="45.90975000" lon="12.00671000">
        <ele>633.00000</ele>
        <time>2010-01-01T18:27:11Z</time>
      </trkpt>
      <trkpt lat="45.90945000" lon="12.00589000">
        <ele>627.00000</ele>
        <time>2010-01-01T18:27:36Z</time>
      </trkpt>
      <trkpt lat="45.90945000" lon="12.00441000">
        <ele>639.00000</ele>
        <time>2010-01-01T18:28:18Z</time>
      </trkpt>
      <trkpt lat="45.90984000" lon="12.00369000">
        <ele>655.00000</ele>
        <time>2010-01-01T18:28:43Z</time>
      </trkpt>
      <trkpt lat="45.90993000" lon="12.00260000">
        <ele>652.00000</ele>
        <time>2010-01-01T18:29:14Z</time>
      </trkpt>
      <trkpt lat="45.91035000" lon="12.00139000">
        <ele>661.00000</ele>
        <time>2010-01-01T18:29:51Z</time>
      </trkpt>
      <trkpt lat="45.91035000" lon="12.00113000">
        <ele>659.00000</ele>
        <time>2010-01-01T18:29:59Z</time>
      </trkpt>
      <trkpt lat="45.91053000" lon="12.00096000">
        <ele>666.00000</ele>
        <time>2010-01-01T18:30:07Z</time>
      </trkpt>
      <trkpt lat="45.91056000" lon="12.00126000">
        <ele>670.00000</ele>
        <time>2010-01-01T18:30:16Z</time>
      </trkpt>
      <trkpt lat="45.91023000" lon="12.00252000">
        <ele>667.00000</ele>
        <time>2010-01-01T18:30:53Z</time>
      </trkpt>
      <trkpt lat="45.91029000" lon="12.00420000">
        <ele>676.00000</ele>
        <time>2010-01-01T18:31:40Z</time>
      </trkpt>
      <trkpt lat="45.91044000" lon="12.00489000">
        <ele>683.00000</ele>
        <time>2010-01-01T18:32:00Z</time>
      </trkpt>
      <trkpt lat="45.91095000" lon="12.00615000">
        <ele>697.00000</ele>
        <time>2010-01-01T18:32:41Z</time>
      </trkpt>
      <trkpt lat="45.91103990" lon="12.00675000">
        <ele>699.00000</ele>
        <time>2010-01-01T18:32:58Z</time>
      </trkpt>
      <trkpt lat="45.91116000" lon="12.00675000">
        <ele>705.00000</ele>
        <time>2010-01-01T18:33:03Z</time>
      </trkpt>
      <trkpt lat="45.91107000" lon="12.00463000">
        <ele>710.00000</ele>
        <time>2010-01-01T18:34:02Z</time>
      </trkpt>
      <trkpt lat="45.91152000" lon="12.00255000">
        <ele>720.00000</ele>
        <time>2010-01-01T18:35:02Z</time>
      </trkpt>
      <trkpt lat="45.91179000" lon="12.00156000">
        <ele>725.00000</ele>
        <time>2010-01-01T18:35:32Z</time>
      </trkpt>
      <trkpt lat="45.91204000" lon="12.00096000">
        <ele>727.00000</ele>
        <time>2010-01-01T18:35:52Z</time>
      </trkpt>
      <trkpt lat="45.91240000" lon="12.00061000">
        <ele>730.00000</ele>
        <time>2010-01-01T18:36:09Z</time>
      </trkpt>
      <trkpt lat="45.91261000" lon="12.00074000">
        <ele>734.00000</ele>
        <time>2010-01-01T18:36:18Z</time>
      </trkpt>
      <trkpt lat="45.91284990" lon="12.00109000">
        <ele>737.00000</ele>
        <time>2010-01-01T18:36:32Z</time>
      </trkpt>
      <trkpt lat="45.91294000" lon="12.00130000">
        <ele>739.00000</ele>
        <time>2010-01-01T18:36:39Z</time>
      </trkpt>
      <trkpt lat="45.91300000" lon="12.00147000">
        <ele>741.00000</ele>
        <time>2010-01-01T18:36:44Z</time>
      </trkpt>
      <trkpt lat="45.91372000" lon="12.00247000">
        <ele>752.00000</ele>
        <time>2010-01-01T18:37:24Z</time>
      </trkpt>
      <trkpt lat="45.91392990" lon="12.00338000">
        <ele>765.00000</ele>
        <time>2010-01-01T18:37:51Z</time>
      </trkpt>
      <trkpt lat="45.91441000" lon="12.00372000">
        <ele>764.00000</ele>
        <time>2010-01-01T18:38:12Z</time>
      </trkpt>
      <trkpt lat="45.91441000" lon="12.00398000">
        <ele>771.00000</ele>
        <time>2010-01-01T18:38:19Z</time>
      </trkpt>
      <trkpt lat="45.91411000" lon="12.00377000">
        <ele>771.00000</ele>
        <time>2010-01-01T18:38:33Z</time>
      </trkpt>
      <trkpt lat="45.91327000" lon="12.00369000">
        <ele>774.00000</ele>
        <time>2010-01-01T18:39:06Z</time>
      </trkpt>
      <trkpt lat="45.91294000" lon="12.00386000">
        <ele>769.00000</ele>
        <time>2010-01-01T18:39:20Z</time>
      </trkpt>
      <trkpt lat="45.91276000" lon="12.00415000">
        <ele>769.00000</ele>
        <time>2010-01-01T18:39:31Z</time>
      </trkpt>
      <trkpt lat="45.91294000" lon="12.00589000">
        <ele>787.00000</ele>
        <time>2010-01-01T18:40:20Z</time>
      </trkpt>
      <trkpt lat="45.91297000" lon="12.00611000">
        <ele>790.00000</ele>
        <time>2010-01-01T18:40:27Z</time>
      </trkpt>
      <trkpt lat="45.91303000" lon="12.00611000">
        <ele>793.00000</ele>
        <time>2010-01-01T18:40:29Z</time>
      </trkpt>
      <trkpt lat="45.91315000" lon="12.00593000">
        <ele>795.00000</ele>
        <time>2010-01-01T18:40:36Z</time>
      </trkpt>
      <trkpt lat="45.91306000" lon="12.00537000">
        <ele>791.00000</ele>
        <time>2010-01-01T18:40:52Z</time>
      </trkpt>
      <trkpt lat="45.91330000" lon="12.00489000">
        <ele>796.00000</ele>
        <time>2010-01-01T18:41:08Z</time>
      </trkpt>
      <trkpt lat="45.91360000" lon="12.00485000">
        <ele>793.00000</ele>
        <time>2010-01-01T18:41:20Z</time>
      </trkpt>
      <trkpt lat="45.91390000" lon="12.00511000">
        <ele>794.00000</ele>
        <time>2010-01-01T18:41:34Z</time>
      </trkpt>
      <trkpt lat="45.91384000" lon="12.00632000">
        <ele>810.00000</ele>
        <time>2010-01-01T18:42:08Z</time>
      </trkpt>
      <trkpt lat="45.91372000" lon="12.00666000">
        <ele>814.00000</ele>
        <time>2010-01-01T18:42:19Z</time>
      </trkpt>
      <trkpt lat="45.91351000" lon="12.00692000">
        <ele>814.00000</ele>
        <time>2010-01-01T18:42:30Z</time>
      </trkpt>
      <trkpt lat="45.91342000" lon="12.00727000">
        <ele>814.00000</ele>
        <time>2010-01-01T18:42:40Z</time>
      </trkpt>
      <trkpt lat="45.91342000" lon="12.00792000">
        <ele>817.00000</ele>
        <time>2010-01-01T18:42:58Z</time>
      </trkpt>
      <trkpt lat="45.91342000" lon="12.00805000">
        <ele>818.00000</ele>
        <time>2010-01-01T18:43:02Z</time>
      </trkpt>
      <trkpt lat="45.91366000" lon="12.01000000">
        <ele>830.00000</ele>
        <time>2010-01-01T18:43:57Z</time>
      </trkpt>
      <trkpt lat="45.91356990" lon="12.01134000">
        <ele>840.00000</ele>
        <time>2010-01-01T18:44:35Z</time>
      </trkpt>
      <trkpt lat="45.91381000" lon="12.01290000">
        <ele>852.00000</ele>
        <time>2010-01-01T18:45:19Z</time>
      </trkpt>
      <trkpt lat="45.91402000" lon="12.01363000">
        <ele>857.00000</ele>
        <time>2010-01-01T18:45:41Z</time>
      </trkpt>
      <trkpt lat="45.91457000" lon="12.01484000">
        <ele>865.00000</ele>
        <time>2010-01-01T18:46:21Z</time>
      </trkpt>
      <trkpt lat="45.91465000" lon="12.01462000">
        <ele>871.00000</ele>
        <time>2010-01-01T18:46:28Z</time>
      </trkpt>
      <trkpt lat="45.91438000" lon="12.01371000">
        <ele>873.00000</ele>
        <time>2010-01-01T18:46:56Z</time>
      </trkpt>
      <trkpt lat="45.91432000" lon="12.01259000">
        <ele>879.00000</ele>
        <time>2010-01-01T18:47:27Z</time>
      </trkpt>
      <trkpt lat="45.91459990" lon="12.01108000">
        <ele>884.00000</ele>
        <time>2010-01-01T18:48:11Z</time>
      </trkpt>
      <trkpt lat="45.91547000" lon="12.00948000">
        <ele>898.00000</ele>
        <time>2010-01-01T18:49:07Z</time>
      </trkpt>
      <trkpt lat="45.91562000" lon="12.00926000">
        <ele>899.00000</ele>
        <time>2010-01-01T18:49:16Z</time>
      </trkpt>
      <trkpt lat="45.91589000" lon="12.00905000">
        <ele>902.00000</ele>
        <time>2010-01-01T18:49:28Z</time>
      </trkpt>
      <trkpt lat="45.91643000" lon="12.00896000">
        <ele>905.00000</ele>
        <time>2010-01-01T18:49:50Z</time>
      </trkpt>
      <trkpt lat="45.91709000" lon="12.00939000">
        <ele>917.00000</ele>
        <time>2010-01-01T18:50:19Z</time>
      </trkpt>
      <trkpt lat="45.91748000" lon="12.00952000">
        <ele>917.00000</ele>
        <time>2010-01-01T18:50:35Z</time>
      </trkpt>
      <trkpt lat="45.91784000" lon="12.01017000">
        <ele>929.00000</ele>
        <time>2010-01-01T18:50:58Z</time>
      </trkpt>
      <trkpt lat="45.91829000" lon="12.01048000">
        <ele>930.00000</ele>
        <time>2010-01-01T18:51:18Z</time>
      </trkpt>
      <trkpt lat="45.91844000" lon="12.01095000">
        <ele>942.00000</ele>
        <time>2010-01-01T18:51:32Z</time>
      </trkpt>
      <trkpt lat="45.91908000" lon="12.01125000">
        <ele>940.00000</ele>
        <time>2010-01-01T18:51:59Z</time>
      </trkpt>
      <trkpt lat="45.91956000" lon="12.01177000">
        <ele>951.00000</ele>
        <time>2010-01-01T18:52:23Z</time>
      </trkpt>
      <trkpt lat="45.91932000" lon="12.01182000">
        <ele>958.00000</ele>
        <time>2010-01-01T18:52:33Z</time>
      </trkpt>
      <trkpt lat="45.91898990" lon="12.01151000">
        <ele>951.00000</ele>
        <time>2010-01-01T18:52:49Z</time>
      </trkpt>
      <trkpt lat="45.91814000" lon="12.01138000">
        <ele>958.00000</ele>
        <time>2010-01-01T18:53:23Z</time>
      </trkpt>
      <trkpt lat="45.91715000" lon="12.01095000">
        <ele>956.00000</ele>
        <time>2010-01-01T18:54:05Z</time>
      </trkpt>
      <trkpt lat="45.91687990" lon="12.01120000">
        <ele>961.00000</ele>
        <time>2010-01-01T18:54:17Z</time>
      </trkpt>
      <trkpt lat="45.91670000" lon="12.01203000">
        <ele>971.00000</ele>
        <time>2010-01-01T18:54:42Z</time>
      </trkpt>
      <trkpt lat="45.91681990" lon="12.01272000">
        <ele>974.00000</ele>
        <time>2010-01-01T18:55:01Z</time>
      </trkpt>
      <trkpt lat="45.91721000" lon="12.01333000">
        <ele>981.00000</ele>
        <time>2010-01-01T18:55:24Z</time>
      </trkpt>
      <trkpt lat="45.91806000" lon="12.01389000">
        <ele>992.00000</ele>
        <time>2010-01-01T18:56:02Z</time>
      </trkpt>
      <trkpt lat="45.91823990" lon="12.01411000">
        <ele>995.00000</ele>
        <time>2010-01-01T18:56:11Z</time>
      </trkpt>
      <trkpt lat="45.91833000" lon="12.01462000">
        <ele>1000.0000</ele>
        <time>2010-01-01T18:56:26Z</time>
      </trkpt>
      <trkpt lat="45.91836000" lon="12.01527000">
        <ele>998.00000</ele>
        <time>2010-01-01T18:56:44Z</time>
      </trkpt>
      <trkpt lat="45.91863000" lon="12.01562000">
        <ele>1000.0000</ele>
        <time>2010-01-01T18:56:59Z</time>
      </trkpt>
      <trkpt lat="45.91944000" lon="12.01605000">
        <ele>1013.0000</ele>
        <time>2010-01-01T18:57:33Z</time>
      </trkpt>
      <trkpt lat="45.91995000" lon="12.01657000">
        <ele>1018.0000</ele>
        <time>2010-01-01T18:57:58Z</time>
      </trkpt>
      <trkpt lat="45.92013000" lon="12.01653000">
        <ele>1022.0000</ele>
        <time>2010-01-01T18:58:06Z</time>
      </trkpt>
      <trkpt lat="45.92016000" lon="12.01631000">
        <ele>1024.0000</ele>
        <time>2010-01-01T18:58:12Z</time>
      </trkpt>
      <trkpt lat="45.91926000" lon="12.01531000">
        <ele>1018.0000</ele>
        <time>2010-01-01T18:58:57Z</time>
      </trkpt>
      <trkpt lat="45.91923000" lon="12.01514000">
        <ele>1019.0000</ele>
        <time>2010-01-01T18:59:02Z</time>
      </trkpt>
      <trkpt lat="45.91944000" lon="12.01510000">
        <ele>1022.0000</ele>
        <time>2010-01-01T18:59:11Z</time>
      </trkpt>
      <trkpt lat="45.92040000" lon="12.01549000">
        <ele>1034.0000</ele>
        <time>2010-01-01T18:59:51Z</time>
      </trkpt>
      <trkpt lat="45.92047000" lon="12.01549000">
        <ele>1035.0000</ele>
        <time>2010-01-01T18:59:53Z</time>
      </trkpt>
      <trkpt lat="45.92058000" lon="12.01549000">
        <ele>1037.0000</ele>
        <time>2010-01-01T18:59:58Z</time>
      </trkpt>
      <trkpt lat="45.92112000" lon="12.01567000">
        <ele>1044.0000</ele>
        <time>2010-01-01T19:00:20Z</time>
      </trkpt>
      <trkpt lat="45.92190000" lon="12.01593000">
        <ele>1055.0000</ele>
        <time>2010-01-01T19:00:52Z</time>
      </trkpt>
      <trkpt lat="45.92205000" lon="12.01601000">
        <ele>1058.0000</ele>
        <time>2010-01-01T19:00:59Z</time>
      </trkpt>
      <trkpt lat="45.92251000" lon="12.01662000">
        <ele>1072.0000</ele>
        <time>2010-01-01T19:01:24Z</time>
      </trkpt>
      <trkpt lat="45.92308000" lon="12.01705000">
        <ele>1074.0000</ele>
        <time>2010-01-01T19:01:49Z</time>
      </trkpt>
      <trkpt lat="45.92353000" lon="12.01696000">
        <ele>1079.0000</ele>
        <time>2010-01-01T19:02:08Z</time>
      </trkpt>
      <trkpt lat="45.92374000" lon="12.01683000">
        <ele>1082.0000</ele>
        <time>2010-01-01T19:02:17Z</time>
      </trkpt>
      <trkpt lat="45.92386000" lon="12.01692000">
        <ele>1083.0000</ele>
        <time>2010-01-01T19:02:22Z</time>
      </trkpt>
      <trkpt lat="45.92395000" lon="12.01735000">
        <ele>1084.0000</ele>
        <time>2010-01-01T19:02:35Z</time>
      </trkpt>
      <trkpt lat="45.92368000" lon="12.01895000">
        <ele>1095.0000</ele>
        <time>2010-01-01T19:03:20Z</time>
      </trkpt>
      <trkpt lat="45.92365000" lon="12.01904000">
        <ele>1095.0000</ele>
        <time>2010-01-01T19:03:23Z</time>
      </trkpt>
      <trkpt lat="45.92347000" lon="12.01938000">
        <ele>1096.0000</ele>
        <time>2010-01-01T19:03:35Z</time>
      </trkpt>
      <trkpt lat="45.92302000" lon="12.02021000">
        <ele>1098.0000</ele>
        <time>2010-01-01T19:04:04Z</time>
      </trkpt>
      <trkpt lat="45.92257000" lon="12.02138000">
        <ele>1106.0000</ele>
        <time>2010-01-01T19:04:42Z</time>
      </trkpt>
      <trkpt lat="45.92254000" lon="12.02172000">
        <ele>1110.0000</ele>
        <time>2010-01-01T19:04:51Z</time>
      </trkpt>
      <trkpt lat="45.92287000" lon="12.02306000">
        <ele>1119.0000</ele>
        <time>2010-01-01T19:05:31Z</time>
      </trkpt>
      <trkpt lat="45.92284000" lon="12.02362000">
        <ele>1115.0000</ele>
        <time>2010-01-01T19:05:46Z</time>
      </trkpt>
      <trkpt lat="45.92296000" lon="12.02423000">
        <ele>1120.0000</ele>
        <time>2010-01-01T19:06:04Z</time>
      </trkpt>
      <trkpt lat="45.92329000" lon="12.02509000">
        <ele>1130.0000</ele>
        <time>2010-01-01T19:06:31Z</time>
      </trkpt>
      <trkpt lat="45.92338000" lon="12.02583000">
        <ele>1130.0000</ele>
        <time>2010-01-01T19:06:52Z</time>
      </trkpt>
      <trkpt lat="45.92413000" lon="12.02674000">
        <ele>1135.0000</ele>
        <time>2010-01-01T19:07:32Z</time>
      </trkpt>
      <trkpt lat="45.92554000" lon="12.02795000">
        <ele>1148.0000</ele>
        <time>2010-01-01T19:08:37Z</time>
      </trkpt>
      <trkpt lat="45.92612000" lon="12.02829000">
        <ele>1156.0000</ele>
        <time>2010-01-01T19:09:02Z</time>
      </trkpt>
      <trkpt lat="45.92618000" lon="12.02851000">
        <ele>1156.0000</ele>
        <time>2010-01-01T19:09:09Z</time>
      </trkpt>
      <trkpt lat="45.92612000" lon="12.02868000">
        <ele>1155.0000</ele>
        <time>2010-01-01T19:09:14Z</time>
      </trkpt>
      <trkpt lat="45.92585000" lon="12.02907000">
        <ele>1150.0000</ele>
        <time>2010-01-01T19:09:30Z</time>
      </trkpt>
      <trkpt lat="45.92693000" lon="12.02994000">
        <ele>1153.0000</ele>
        <time>2010-01-01T19:10:19Z</time>
      </trkpt>
      <trkpt lat="45.92720000" lon="12.02994000">
        <ele>1156.0000</ele>
        <time>2010-01-01T19:10:30Z</time>
      </trkpt>
      <trkpt lat="45.92774000" lon="12.02972000">
        <ele>1166.0000</ele>
        <time>2010-01-01T19:10:53Z</time>
      </trkpt>
      <trkpt lat="45.92822000" lon="12.02985000">
        <ele>1161.0000</ele>
        <time>2010-01-01T19:11:12Z</time>
      </trkpt>
      <trkpt lat="45.92828000" lon="12.02989000">
        <ele>1160.0000</ele>
        <time>2010-01-01T19:11:15Z</time>
      </trkpt>
      <trkpt lat="45.92862000" lon="12.02972000">
        <ele>1158.0000</ele>
        <time>2010-01-01T19:11:29Z</time>
      </trkpt>
      <trkpt lat="45.92931000" lon="12.02864000">
        <ele>1166.0000</ele>
        <time>2010-01-01T19:12:10Z</time>
      </trkpt>
      <trkpt lat="45.92934000" lon="12.02799000">
        <ele>1181.0000</ele>
        <time>2010-01-01T19:12:28Z</time>
      </trkpt>
      <trkpt lat="45.92982000" lon="12.02764000">
        <ele>1173.0000</ele>
        <time>2010-01-01T19:12:50Z</time>
      </trkpt>
      <trkpt lat="45.93026990" lon="12.02704000">
        <ele>1179.0000</ele>
        <time>2010-01-01T19:13:14Z</time>
      </trkpt>
      <trkpt lat="45.93060000" lon="12.02674000">
        <ele>1179.0000</ele>
        <time>2010-01-01T19:13:30Z</time>
      </trkpt>
      <trkpt lat="45.93121000" lon="12.02609000">
        <ele>1189.0000</ele>
        <time>2010-01-01T19:14:00Z</time>
      </trkpt>
      <trkpt lat="45.93159000" lon="12.02587000">
        <ele>1188.0000</ele>
        <time>2010-01-01T19:14:17Z</time>
      </trkpt>
      <trkpt lat="45.93171000" lon="12.02600000">
        <ele>1186.0000</ele>
        <time>2010-01-01T19:14:23Z</time>
      </trkpt>
      <trkpt lat="45.93193000" lon="12.02678000">
        <ele>1181.0000</ele>
        <time>2010-01-01T19:14:46Z</time>
      </trkpt>
      <trkpt lat="45.93218990" lon="12.02712000">
        <ele>1186.0000</ele>
        <time>2010-01-01T19:15:00Z</time>
      </trkpt>
      <trkpt lat="45.93238000" lon="12.02786000">
        <ele>1183.0000</ele>
        <time>2010-01-01T19:15:22Z</time>
      </trkpt>
      <trkpt lat="45.93346000" lon="12.02907000">
        <ele>1199.0000</ele>
        <time>2010-01-01T19:16:17Z</time>
      </trkpt>
      <trkpt lat="45.93397000" lon="12.02924000">
        <ele>1207.0000</ele>
        <time>2010-01-01T19:16:38Z</time>
      </trkpt>
      <trkpt lat="45.93405000" lon="12.02946000">
        <ele>1204.0000</ele>
        <time>2010-01-01T19:16:45Z</time>
      </trkpt>
      <trkpt lat="45.93406000" lon="12.02947000">
        <ele>1204.0000</ele>
        <time>2010-01-01T19:16:45Z</time>
      </trkpt>
      <trkpt lat="45.93405000" lon="12.02946000">
        <ele>1204.0000</ele>
        <time>2010-01-01T19:16:46Z</time>
      </trkpt>
      <trkpt lat="45.93424000" lon="12.02998000">
        <ele>1201.0000</ele>
        <time>2010-01-01T19:17:02Z</time>
      </trkpt>
      <trkpt lat="45.93429990" lon="12.03003000">
        <ele>1203.0000</ele>
        <time>2010-01-01T19:17:05Z</time>
      </trkpt>
      <trkpt lat="45.93502000" lon="12.03080000">
        <ele>1210.0000</ele>
        <time>2010-01-01T19:17:41Z</time>
      </trkpt>
      <trkpt lat="45.93517000" lon="12.03128000">
        <ele>1210.0000</ele>
        <time>2010-01-01T19:17:55Z</time>
      </trkpt>
      <trkpt lat="45.93575000" lon="12.03180000">
        <ele>1216.0000</ele>
        <time>2010-01-01T19:18:23Z</time>
      </trkpt>
      <trkpt lat="45.93587000" lon="12.03184000">
        <ele>1218.0000</ele>
        <time>2010-01-01T19:18:28Z</time>
      </trkpt>
      <trkpt lat="45.93617000" lon="12.03197000">
        <ele>1226.0000</ele>
        <time>2010-01-01T19:18:40Z</time>
      </trkpt>
      <trkpt lat="45.93635000" lon="12.03257000">
        <ele>1214.0000</ele>
        <time>2010-01-01T19:18:58Z</time>
      </trkpt>
      <trkpt lat="45.93668000" lon="12.03297000">
        <ele>1220.0000</ele>
        <time>2010-01-01T19:19:16Z</time>
      </trkpt>
      <trkpt lat="45.93718990" lon="12.03400000">
        <ele>1221.0000</ele>
        <time>2010-01-01T19:19:51Z</time>
      </trkpt>
      <trkpt lat="45.93773000" lon="12.03517000">
        <ele>1229.0000</ele>
        <time>2010-01-01T19:20:30Z</time>
      </trkpt>
      <trkpt lat="45.93848000" lon="12.03565000">
        <ele>1242.0000</ele>
        <time>2010-01-01T19:21:03Z</time>
      </trkpt>
      <trkpt lat="45.93854000" lon="12.03586000">
        <ele>1239.0000</ele>
        <time>2010-01-01T19:21:09Z</time>
      </trkpt>
      <trkpt lat="45.93845000" lon="12.03634000">
        <ele>1237.0000</ele>
        <time>2010-01-01T19:21:23Z</time>
      </trkpt>
      <trkpt lat="45.93851000" lon="12.03716000">
        <ele>1234.0000</ele>
        <time>2010-01-01T19:21:46Z</time>
      </trkpt>
      <trkpt lat="45.93884000" lon="12.03768000">
        <ele>1236.0000</ele>
        <time>2010-01-01T19:22:06Z</time>
      </trkpt>
      <trkpt lat="45.93916990" lon="12.03911000">
        <ele>1228.0000</ele>
        <time>2010-01-01T19:22:48Z</time>
      </trkpt>
      <trkpt lat="45.93929000" lon="12.03967000">
        <ele>1227.0000</ele>
        <time>2010-01-01T19:23:04Z</time>
      </trkpt>
      <trkpt lat="45.93971990" lon="12.03979000">
        <ele>1233.0000</ele>
        <time>2010-01-01T19:23:21Z</time>
      </trkpt>
      <trkpt lat="45.93987000" lon="12.04010000">
        <ele>1231.0000</ele>
        <time>2010-01-01T19:23:32Z</time>
      </trkpt>
      <trkpt lat="45.93981000" lon="12.04084000">
        <ele>1225.0000</ele>
        <time>2010-01-01T19:23:53Z</time>
      </trkpt>
      <trkpt lat="45.93977000" lon="12.04101000">
        <ele>1224.0000</ele>
        <time>2010-01-01T19:23:58Z</time>
      </trkpt>
      <trkpt lat="45.93971990" lon="12.04139000">
        <ele>1223.0000</ele>
        <time>2010-01-01T19:24:08Z</time>
      </trkpt>
      <trkpt lat="45.93932000" lon="12.04196000">
        <ele>1209.0000</ele>
        <time>2010-01-01T19:24:31Z</time>
      </trkpt>
      <trkpt lat="45.93932000" lon="12.04218000">
        <ele>1210.0000</ele>
        <time>2010-01-01T19:24:37Z</time>
      </trkpt>
      <trkpt lat="45.93951000" lon="12.04256000">
        <ele>1217.0000</ele>
        <time>2010-01-01T19:24:50Z</time>
      </trkpt>
      <trkpt lat="45.93951000" lon="12.04296000">
        <ele>1215.0000</ele>
        <time>2010-01-01T19:25:01Z</time>
      </trkpt>
      <trkpt lat="45.93977000" lon="12.04326000">
        <ele>1220.0000</ele>
        <time>2010-01-01T19:25:15Z</time>
      </trkpt>
      <trkpt lat="45.94005000" lon="12.04339000">
        <ele>1226.0000</ele>
        <time>2010-01-01T19:25:26Z</time>
      </trkpt>
      <trkpt lat="45.94014000" lon="12.04356000">
        <ele>1226.0000</ele>
        <time>2010-01-01T19:25:32Z</time>
      </trkpt>
      <trkpt lat="45.94011000" lon="12.04421000">
        <ele>1217.0000</ele>
        <time>2010-01-01T19:25:50Z</time>
      </trkpt>
      <trkpt lat="45.94029000" lon="12.04460000">
        <ele>1217.0000</ele>
        <time>2010-01-01T19:26:03Z</time>
      </trkpt>
      <trkpt lat="45.94104000" lon="12.04486000">
        <ele>1226.0000</ele>
        <time>2010-01-01T19:26:34Z</time>
      </trkpt>
      <trkpt lat="45.94131000" lon="12.04507000">
        <ele>1227.0000</ele>
        <time>2010-01-01T19:26:47Z</time>
      </trkpt>
      <trkpt lat="45.94152000" lon="12.04550000">
        <ele>1221.0000</ele>
        <time>2010-01-01T19:27:01Z</time>
      </trkpt>
      <trkpt lat="45.94212000" lon="12.04581000">
        <ele>1224.0000</ele>
        <time>2010-01-01T19:27:27Z</time>
      </trkpt>
      <trkpt lat="45.94290000" lon="12.04681000">
        <ele>1221.0000</ele>
        <time>2010-01-01T19:28:09Z</time>
      </trkpt>
      <trkpt lat="45.94290000" lon="12.04693000">
        <ele>1221.0000</ele>
        <time>2010-01-01T19:28:12Z</time>
      </trkpt>
      <trkpt lat="45.94263000" lon="12.04741000">
        <ele>1211.0000</ele>
        <time>2010-01-01T19:28:29Z</time>
      </trkpt>
      <trkpt lat="45.94258000" lon="12.04775000">
        <ele>1210.0000</ele>
        <time>2010-01-01T19:28:39Z</time>
      </trkpt>
      <trkpt lat="45.94260000" lon="12.04832000">
        <ele>1212.0000</ele>
        <time>2010-01-01T19:28:55Z</time>
      </trkpt>
      <trkpt lat="45.94305000" lon="12.04892000">
        <ele>1211.0000</ele>
        <time>2010-01-01T19:29:19Z</time>
      </trkpt>
      <trkpt lat="45.94330000" lon="12.04961000">
        <ele>1205.0000</ele>
        <time>2010-01-01T19:29:41Z</time>
      </trkpt>
      <trkpt lat="45.94351000" lon="12.05005000">
        <ele>1203.0000</ele>
        <time>2010-01-01T19:29:56Z</time>
      </trkpt>
      <trkpt lat="45.94371000" lon="12.05048000">
        <ele>1204.0000</ele>
        <time>2010-01-01T19:30:10Z</time>
      </trkpt>
      <trkpt lat="45.94353000" lon="12.05095000">
        <ele>1191.0000</ele>
        <time>2010-01-01T19:30:25Z</time>
      </trkpt>
      <trkpt lat="45.94374990" lon="12.05135000">
        <ele>1194.0000</ele>
        <time>2010-01-01T19:30:39Z</time>
      </trkpt>
      <trkpt lat="45.94393000" lon="12.05165000">
        <ele>1194.0000</ele>
        <time>2010-01-01T19:30:50Z</time>
      </trkpt>
      <trkpt lat="45.94377990" lon="12.05200000">
        <ele>1189.0000</ele>
        <time>2010-01-01T19:31:02Z</time>
      </trkpt>
      <trkpt lat="45.94368000" lon="12.05226000">
        <ele>1185.0000</ele>
        <time>2010-01-01T19:31:10Z</time>
      </trkpt>
      <trkpt lat="45.94363000" lon="12.05286000">
        <ele>1177.0000</ele>
        <time>2010-01-01T19:31:27Z</time>
      </trkpt>
      <trkpt lat="45.94420000" lon="12.05390000">
        <ele>1171.0000</ele>
        <time>2010-01-01T19:32:04Z</time>
      </trkpt>
      <trkpt lat="45.94480000" lon="12.05355000">
        <ele>1178.0000</ele>
        <time>2010-01-01T19:32:30Z</time>
      </trkpt>
      <trkpt lat="45.94492000" lon="12.05355000">
        <ele>1178.0000</ele>
        <time>2010-01-01T19:32:34Z</time>
      </trkpt>
      <trkpt lat="45.94537000" lon="12.05425000">
        <ele>1165.0000</ele>
        <time>2010-01-01T19:33:01Z</time>
      </trkpt>
      <trkpt lat="45.94561000" lon="12.05433000">
        <ele>1170.0000</ele>
        <time>2010-01-01T19:33:11Z</time>
      </trkpt>
      <trkpt lat="45.94579000" lon="12.05455000">
        <ele>1171.0000</ele>
        <time>2010-01-01T19:33:20Z</time>
      </trkpt>
      <trkpt lat="45.94564000" lon="12.05585000">
        <ele>1147.0000</ele>
        <time>2010-01-01T19:33:57Z</time>
      </trkpt>
      <trkpt lat="45.94573000" lon="12.05658000">
        <ele>1150.0000</ele>
        <time>2010-01-01T19:34:18Z</time>
      </trkpt>
      <trkpt lat="45.94555000" lon="12.05771000">
        <ele>1131.0000</ele>
        <time>2010-01-01T19:34:50Z</time>
      </trkpt>
      <trkpt lat="45.94609000" lon="12.05917000">
        <ele>1125.0000</ele>
        <time>2010-01-01T19:35:36Z</time>
      </trkpt>
      <trkpt lat="45.94645000" lon="12.05953000">
        <ele>1130.0000</ele>
        <time>2010-01-01T19:35:53Z</time>
      </trkpt>
      <trkpt lat="45.94693000" lon="12.06030000">
        <ele>1119.0000</ele>
        <time>2010-01-01T19:36:22Z</time>
      </trkpt>
      <trkpt lat="45.94690000" lon="12.06043000">
        <ele>1116.0000</ele>
        <time>2010-01-01T19:36:26Z</time>
      </trkpt>
      <trkpt lat="45.94645000" lon="12.05978000">
        <ele>1124.0000</ele>
        <time>2010-01-01T19:36:52Z</time>
      </trkpt>
      <trkpt lat="45.94615000" lon="12.05970000">
        <ele>1115.0000</ele>
        <time>2010-01-01T19:37:04Z</time>
      </trkpt>
      <trkpt lat="45.94573000" lon="12.05917000">
        <ele>1112.0000</ele>
        <time>2010-01-01T19:37:26Z</time>
      </trkpt>
      <trkpt lat="45.94528000" lon="12.05874000">
        <ele>1100.0000</ele>
        <time>2010-01-01T19:37:48Z</time>
      </trkpt>
      <trkpt lat="45.94507000" lon="12.05840000">
        <ele>1095.0000</ele>
        <time>2010-01-01T19:38:00Z</time>
      </trkpt>
      <trkpt lat="45.94488990" lon="12.05749000">
        <ele>1093.0000</ele>
        <time>2010-01-01T19:38:27Z</time>
      </trkpt>
      <trkpt lat="45.94492000" lon="12.05662000">
        <ele>1099.0000</ele>
        <time>2010-01-01T19:38:51Z</time>
      </trkpt>
      <trkpt lat="45.94480000" lon="12.05602000">
        <ele>1102.0000</ele>
        <time>2010-01-01T19:39:08Z</time>
      </trkpt>
      <trkpt lat="45.94462000" lon="12.05580000">
        <ele>1104.0000</ele>
        <time>2010-01-01T19:39:18Z</time>
      </trkpt>
      <trkpt lat="45.94416000" lon="12.05619000">
        <ele>1086.0000</ele>
        <time>2010-01-01T19:39:39Z</time>
      </trkpt>
      <trkpt lat="45.94355990" lon="12.05628000">
        <ele>1070.0000</ele>
        <time>2010-01-01T19:40:03Z</time>
      </trkpt>
      <trkpt lat="45.94351000" lon="12.05619000">
        <ele>1072.0000</ele>
        <time>2010-01-01T19:40:07Z</time>
      </trkpt>
      <trkpt lat="45.94303000" lon="12.05589000">
        <ele>1070.0000</ele>
        <time>2010-01-01T19:40:28Z</time>
      </trkpt>
      <trkpt lat="45.94277990" lon="12.05550000">
        <ele>1074.0000</ele>
        <time>2010-01-01T19:40:42Z</time>
      </trkpt>
      <trkpt lat="45.94242000" lon="12.05550000">
        <ele>1062.0000</ele>
        <time>2010-01-01T19:40:57Z</time>
      </trkpt>
      <trkpt lat="45.94218000" lon="12.05542000">
        <ele>1054.0000</ele>
        <time>2010-01-01T19:41:07Z</time>
      </trkpt>
      <trkpt lat="45.94191000" lon="12.05489000">
        <ele>1053.0000</ele>
        <time>2010-01-01T19:41:25Z</time>
      </trkpt>
      <trkpt lat="45.94155000" lon="12.05390000">
        <ele>1048.0000</ele>
        <time>2010-01-01T19:41:56Z</time>
      </trkpt>
      <trkpt lat="45.94155000" lon="12.05342000">
        <ele>1050.0000</ele>
        <time>2010-01-01T19:42:09Z</time>
      </trkpt>
      <trkpt lat="45.94146000" lon="12.05295000">
        <ele>1051.0000</ele>
        <time>2010-01-01T19:42:23Z</time>
      </trkpt>
      <trkpt lat="45.94104000" lon="12.05260000">
        <ele>1039.0000</ele>
        <time>2010-01-01T19:42:42Z</time>
      </trkpt>
      <trkpt lat="45.94044000" lon="12.05204000">
        <ele>1027.0000</ele>
        <time>2010-01-01T19:43:11Z</time>
      </trkpt>
      <trkpt lat="45.94044000" lon="12.05200000">
        <ele>1028.0000</ele>
        <time>2010-01-01T19:43:12Z</time>
      </trkpt>
      <trkpt lat="45.94020000" lon="12.05126000">
        <ele>1044.0000</ele>
        <time>2010-01-01T19:43:35Z</time>
      </trkpt>
      <trkpt lat="45.93996000" lon="12.05117000">
        <ele>1039.0000</ele>
        <time>2010-01-01T19:43:45Z</time>
      </trkpt>
      <trkpt lat="45.93957000" lon="12.05139000">
        <ele>1022.0000</ele>
        <time>2010-01-01T19:44:02Z</time>
      </trkpt>
      <trkpt lat="45.93921000" lon="12.05139000">
        <ele>1015.0000</ele>
        <time>2010-01-01T19:44:16Z</time>
      </trkpt>
      <trkpt lat="45.93899000" lon="12.05169000">
        <ele>1003.0000</ele>
        <time>2010-01-01T19:44:28Z</time>
      </trkpt>
      <trkpt lat="45.93872000" lon="12.05169000">
        <ele>996.00000</ele>
        <time>2010-01-01T19:44:39Z</time>
      </trkpt>
      <trkpt lat="45.93863000" lon="12.05157000">
        <ele>994.00000</ele>
        <time>2010-01-01T19:44:44Z</time>
      </trkpt>
      <trkpt lat="45.93861000" lon="12.05078000">
        <ele>994.00000</ele>
        <time>2010-01-01T19:45:06Z</time>
      </trkpt>
      <trkpt lat="45.93881000" lon="12.05031000">
        <ele>1003.0000</ele>
        <time>2010-01-01T19:45:21Z</time>
      </trkpt>
      <trkpt lat="45.93876000" lon="12.05005000">
        <ele>1000.0000</ele>
        <time>2010-01-01T19:45:29Z</time>
      </trkpt>
      <trkpt lat="45.93821000" lon="12.05113000">
        <ele>976.00000</ele>
        <time>2010-01-01T19:46:06Z</time>
      </trkpt>
      <trkpt lat="45.93782000" lon="12.05143000">
        <ele>964.00000</ele>
        <time>2010-01-01T19:46:24Z</time>
      </trkpt>
      <trkpt lat="45.93776000" lon="12.05157000">
        <ele>963.00000</ele>
        <time>2010-01-01T19:46:28Z</time>
      </trkpt>
      <trkpt lat="45.93794000" lon="12.05186000">
        <ele>969.00000</ele>
        <time>2010-01-01T19:46:39Z</time>
      </trkpt>
      <trkpt lat="45.93796990" lon="12.05200000">
        <ele>969.00000</ele>
        <time>2010-01-01T19:46:43Z</time>
      </trkpt>
      <trkpt lat="45.93812000" lon="12.05269000">
        <ele>964.00000</ele>
        <time>2010-01-01T19:47:03Z</time>
      </trkpt>
      <trkpt lat="45.93803000" lon="12.05274000">
        <ele>959.00000</ele>
        <time>2010-01-01T19:47:07Z</time>
      </trkpt>
      <trkpt lat="45.93779000" lon="12.05217000">
        <ele>961.00000</ele>
        <time>2010-01-01T19:47:26Z</time>
      </trkpt>
      <trkpt lat="45.93743000" lon="12.05200000">
        <ele>949.00000</ele>
        <time>2010-01-01T19:47:41Z</time>
      </trkpt>
      <trkpt lat="45.93737000" lon="12.05195000">
        <ele>947.00000</ele>
        <time>2010-01-01T19:47:44Z</time>
      </trkpt>
      <trkpt lat="45.93734000" lon="12.05183000">
        <ele>947.00000</ele>
        <time>2010-01-01T19:47:47Z</time>
      </trkpt>
      <trkpt lat="45.93760990" lon="12.05139000">
        <ele>955.00000</ele>
        <time>2010-01-01T19:48:03Z</time>
      </trkpt>
      <trkpt lat="45.93752000" lon="12.05126000">
        <ele>949.00000</ele>
        <time>2010-01-01T19:48:09Z</time>
      </trkpt>
      <trkpt lat="45.93688990" lon="12.05200000">
        <ele>928.00000</ele>
        <time>2010-01-01T19:48:41Z</time>
      </trkpt>
      <trkpt lat="45.93680000" lon="12.05217000">
        <ele>925.00000</ele>
        <time>2010-01-01T19:48:47Z</time>
      </trkpt>
      <trkpt lat="45.93671000" lon="12.05208000">
        <ele>922.00000</ele>
        <time>2010-01-01T19:48:51Z</time>
      </trkpt>
      <trkpt lat="45.93674000" lon="12.05200000">
        <ele>922.00000</ele>
        <time>2010-01-01T19:48:54Z</time>
      </trkpt>
      <trkpt lat="45.93728000" lon="12.05126000">
        <ele>938.00000</ele>
        <time>2010-01-01T19:49:24Z</time>
      </trkpt>
      <trkpt lat="45.93728000" lon="12.05113000">
        <ele>936.00000</ele>
        <time>2010-01-01T19:49:27Z</time>
      </trkpt>
      <trkpt lat="45.93682990" lon="12.05152000">
        <ele>922.00000</ele>
        <time>2010-01-01T19:49:49Z</time>
      </trkpt>
      <trkpt lat="45.93620000" lon="12.05200000">
        <ele>903.00000</ele>
        <time>2010-01-01T19:50:17Z</time>
      </trkpt>
      <trkpt lat="45.93598000" lon="12.05212000">
        <ele>898.00000</ele>
        <time>2010-01-01T19:50:26Z</time>
      </trkpt>
      <trkpt lat="45.93587000" lon="12.05221000">
        <ele>896.00000</ele>
        <time>2010-01-01T19:50:32Z</time>
      </trkpt>
      <trkpt lat="45.93563000" lon="12.05238000">
        <ele>896.00000</ele>
        <time>2010-01-01T19:50:42Z</time>
      </trkpt>
      <trkpt lat="45.93512000" lon="12.05226000">
        <ele>885.00000</ele>
        <time>2010-01-01T19:51:03Z</time>
      </trkpt>
      <trkpt lat="45.93487000" lon="12.05238000">
        <ele>884.00000</ele>
        <time>2010-01-01T19:51:13Z</time>
      </trkpt>
      <trkpt lat="45.93493000" lon="12.05274000">
        <ele>885.00000</ele>
        <time>2010-01-01T19:51:24Z</time>
      </trkpt>
      <trkpt lat="45.93493000" lon="12.05295000">
        <ele>883.00000</ele>
        <time>2010-01-01T19:51:30Z</time>
      </trkpt>
      <trkpt lat="45.93478000" lon="12.05291000">
        <ele>880.00000</ele>
        <time>2010-01-01T19:51:36Z</time>
      </trkpt>
      <trkpt lat="45.93448000" lon="12.05200000">
        <ele>869.00000</ele>
        <time>2010-01-01T19:52:04Z</time>
      </trkpt>
      <trkpt lat="45.93442000" lon="12.05204000">
        <ele>869.00000</ele>
        <time>2010-01-01T19:52:06Z</time>
      </trkpt>
      <trkpt lat="45.93442000" lon="12.05238000">
        <ele>875.00000</ele>
        <time>2010-01-01T19:52:16Z</time>
      </trkpt>
      <trkpt lat="45.93445000" lon="12.05247000">
        <ele>877.00000</ele>
        <time>2010-01-01T19:52:19Z</time>
      </trkpt>
      <trkpt lat="45.93439000" lon="12.05312000">
        <ele>870.00000</ele>
        <time>2010-01-01T19:52:37Z</time>
      </trkpt>
      <trkpt lat="45.93448000" lon="12.05342000">
        <ele>867.00000</ele>
        <time>2010-01-01T19:52:46Z</time>
      </trkpt>
      <trkpt lat="45.93439000" lon="12.05360000">
        <ele>861.00000</ele>
        <time>2010-01-01T19:52:52Z</time>
      </trkpt>
      <trkpt lat="45.93421000" lon="12.05355000">
        <ele>860.00000</ele>
        <time>2010-01-01T19:53:00Z</time>
      </trkpt>
      <trkpt lat="45.93415000" lon="12.05312000">
        <ele>864.00000</ele>
        <time>2010-01-01T19:53:12Z</time>
      </trkpt>
      <trkpt lat="45.93421000" lon="12.05295000">
        <ele>868.00000</ele>
        <time>2010-01-01T19:53:17Z</time>
      </trkpt>
      <trkpt lat="45.93421000" lon="12.05247000">
        <ele>872.00000</ele>
        <time>2010-01-01T19:53:30Z</time>
      </trkpt>
      <trkpt lat="45.93325000" lon="12.05226000">
        <ele>847.00000</ele>
        <time>2010-01-01T19:54:09Z</time>
      </trkpt>
      <trkpt lat="45.93298000" lon="12.05204000">
        <ele>843.00000</ele>
        <time>2010-01-01T19:54:22Z</time>
      </trkpt>
      <trkpt lat="45.93294000" lon="12.05200000">
        <ele>843.00000</ele>
        <time>2010-01-01T19:54:24Z</time>
      </trkpt>
      <trkpt lat="45.93274000" lon="12.05174000">
        <ele>842.00000</ele>
        <time>2010-01-01T19:54:34Z</time>
      </trkpt>
      <trkpt lat="45.93259000" lon="12.05131000">
        <ele>837.00000</ele>
        <time>2010-01-01T19:54:48Z</time>
      </trkpt>
      <trkpt lat="45.93218990" lon="12.05066000">
        <ele>825.00000</ele>
        <time>2010-01-01T19:55:12Z</time>
      </trkpt>
      <trkpt lat="45.93201000" lon="12.05014000">
        <ele>823.00000</ele>
        <time>2010-01-01T19:55:28Z</time>
      </trkpt>
      <trkpt lat="45.93178000" lon="12.04992000">
        <ele>824.00000</ele>
        <time>2010-01-01T19:55:39Z</time>
      </trkpt>
      <trkpt lat="45.93165990" lon="12.04997000">
        <ele>827.00000</ele>
        <time>2010-01-01T19:55:44Z</time>
      </trkpt>
      <trkpt lat="45.93189000" lon="12.05044000">
        <ele>822.00000</ele>
        <time>2010-01-01T19:56:00Z</time>
      </trkpt>
      <trkpt lat="45.93199000" lon="12.05139000">
        <ele>817.00000</ele>
        <time>2010-01-01T19:56:27Z</time>
      </trkpt>
      <trkpt lat="45.93211000" lon="12.05178000">
        <ele>818.00000</ele>
        <time>2010-01-01T19:56:39Z</time>
      </trkpt>
      <trkpt lat="45.93226000" lon="12.05200000">
        <ele>820.00000</ele>
        <time>2010-01-01T19:56:47Z</time>
      </trkpt>
      <trkpt lat="45.93243990" lon="12.05226000">
        <ele>823.00000</ele>
        <time>2010-01-01T19:56:58Z</time>
      </trkpt>
      <trkpt lat="45.93243990" lon="12.05265000">
        <ele>814.00000</ele>
        <time>2010-01-01T19:57:09Z</time>
      </trkpt>
      <trkpt lat="45.93259000" lon="12.05308000">
        <ele>810.00000</ele>
        <time>2010-01-01T19:57:22Z</time>
      </trkpt>
      <trkpt lat="45.93268000" lon="12.05338000">
        <ele>807.00000</ele>
        <time>2010-01-01T19:57:31Z</time>
      </trkpt>
      <trkpt lat="45.93262000" lon="12.05342000">
        <ele>804.00000</ele>
        <time>2010-01-01T19:57:34Z</time>
      </trkpt>
      <trkpt lat="45.93229000" lon="12.05312000">
        <ele>798.00000</ele>
        <time>2010-01-01T19:57:49Z</time>
      </trkpt>
      <trkpt lat="45.93214000" lon="12.05265000">
        <ele>801.00000</ele>
        <time>2010-01-01T19:58:04Z</time>
      </trkpt>
      <trkpt lat="45.93196000" lon="12.05247000">
        <ele>795.00000</ele>
        <time>2010-01-01T19:58:12Z</time>
      </trkpt>
      <trkpt lat="45.93168000" lon="12.05243000">
        <ele>783.00000</ele>
        <time>2010-01-01T19:58:24Z</time>
      </trkpt>
      <trkpt lat="45.93156000" lon="12.05217000">
        <ele>783.00000</ele>
        <time>2010-01-01T19:58:32Z</time>
      </trkpt>
      <trkpt lat="45.93159000" lon="12.05200000">
        <ele>788.00000</ele>
        <time>2010-01-01T19:58:37Z</time>
      </trkpt>
      <trkpt lat="45.93162000" lon="12.05165000">
        <ele>797.00000</ele>
        <time>2010-01-01T19:58:47Z</time>
      </trkpt>
      <trkpt lat="45.93129000" lon="12.05109000">
        <ele>797.00000</ele>
        <time>2010-01-01T19:59:08Z</time>
      </trkpt>
      <trkpt lat="45.93117000" lon="12.05113000">
        <ele>791.00000</ele>
        <time>2010-01-01T19:59:12Z</time>
      </trkpt>
      <trkpt lat="45.93087000" lon="12.05109000">
        <ele>782.00000</ele>
        <time>2010-01-01T19:59:25Z</time>
      </trkpt>
      <trkpt lat="45.93075000" lon="12.05078000">
        <ele>788.00000</ele>
        <time>2010-01-01T19:59:34Z</time>
      </trkpt>
      <trkpt lat="45.93024000" lon="12.05061000">
        <ele>770.00000</ele>
        <time>2010-01-01T19:59:55Z</time>
      </trkpt>
      <trkpt lat="45.93012000" lon="12.05048000">
        <ele>766.00000</ele>
        <time>2010-01-01T20:00:01Z</time>
      </trkpt>
      <trkpt lat="45.92996990" lon="12.04935000">
        <ele>768.00000</ele>
        <time>2010-01-01T20:00:33Z</time>
      </trkpt>
      <trkpt lat="45.92973000" lon="12.04901000">
        <ele>758.00000</ele>
        <time>2010-01-01T20:00:47Z</time>
      </trkpt>
      <trkpt lat="45.92946000" lon="12.04832000">
        <ele>751.00000</ele>
        <time>2010-01-01T20:01:09Z</time>
      </trkpt>
      <trkpt lat="45.92937000" lon="12.04841000">
        <ele>747.00000</ele>
        <time>2010-01-01T20:01:13Z</time>
      </trkpt>
      <trkpt lat="45.92970000" lon="12.04961000">
        <ele>750.00000</ele>
        <time>2010-01-01T20:01:49Z</time>
      </trkpt>
      <trkpt lat="45.92967000" lon="12.05104000">
        <ele>734.00000</ele>
        <time>2010-01-01T20:02:29Z</time>
      </trkpt>
      <trkpt lat="45.92970000" lon="12.05139000">
        <ele>729.00000</ele>
        <time>2010-01-01T20:02:39Z</time>
      </trkpt>
      <trkpt lat="45.92994000" lon="12.05148000">
        <ele>740.00000</ele>
        <time>2010-01-01T20:02:49Z</time>
      </trkpt>
      <trkpt lat="45.93030000" lon="12.05183000">
        <ele>741.00000</ele>
        <time>2010-01-01T20:03:06Z</time>
      </trkpt>
      <trkpt lat="45.93030000" lon="12.05200000">
        <ele>736.00000</ele>
        <time>2010-01-01T20:03:11Z</time>
      </trkpt>
      <trkpt lat="45.93030000" lon="12.05238000">
        <ele>724.00000</ele>
        <time>2010-01-01T20:03:22Z</time>
      </trkpt>
      <trkpt lat="45.93054000" lon="12.05238000">
        <ele>731.00000</ele>
        <time>2010-01-01T20:03:31Z</time>
      </trkpt>
      <trkpt lat="45.93066000" lon="12.05295000">
        <ele>729.00000</ele>
        <time>2010-01-01T20:03:48Z</time>
      </trkpt>
      <trkpt lat="45.93060000" lon="12.05329000">
        <ele>724.00000</ele>
        <time>2010-01-01T20:03:58Z</time>
      </trkpt>
      <trkpt lat="45.93039000" lon="12.05338000">
        <ele>716.00000</ele>
        <time>2010-01-01T20:04:06Z</time>
      </trkpt>
      <trkpt lat="45.93026990" lon="12.05381000">
        <ele>713.00000</ele>
        <time>2010-01-01T20:04:19Z</time>
      </trkpt>
      <trkpt lat="45.93045000" lon="12.05416000">
        <ele>720.00000</ele>
        <time>2010-01-01T20:04:31Z</time>
      </trkpt>
      <trkpt lat="45.93039000" lon="12.05446000">
        <ele>716.00000</ele>
        <time>2010-01-01T20:04:40Z</time>
      </trkpt>
      <trkpt lat="45.93009000" lon="12.05455000">
        <ele>708.00000</ele>
        <time>2010-01-01T20:04:52Z</time>
      </trkpt>
      <trkpt lat="45.92985000" lon="12.05480000">
        <ele>702.00000</ele>
        <time>2010-01-01T20:05:04Z</time>
      </trkpt>
      <trkpt lat="45.92979000" lon="12.05528000">
        <ele>696.00000</ele>
        <time>2010-01-01T20:05:18Z</time>
      </trkpt>
      <trkpt lat="45.92967000" lon="12.05550000">
        <ele>690.00000</ele>
        <time>2010-01-01T20:05:26Z</time>
      </trkpt>
      <trkpt lat="45.92918990" lon="12.05533000">
        <ele>682.00000</ele>
        <time>2010-01-01T20:05:45Z</time>
      </trkpt>
      <trkpt lat="45.92907000" lon="12.05502000">
        <ele>681.00000</ele>
        <time>2010-01-01T20:05:55Z</time>
      </trkpt>
      <trkpt lat="45.92915000" lon="12.05485000">
        <ele>683.00000</ele>
        <time>2010-01-01T20:06:01Z</time>
      </trkpt>
      <trkpt lat="45.92904000" lon="12.05468000">
        <ele>678.00000</ele>
        <time>2010-01-01T20:06:07Z</time>
      </trkpt>
      <trkpt lat="45.92880000" lon="12.05485000">
        <ele>670.00000</ele>
        <time>2010-01-01T20:06:18Z</time>
      </trkpt>
      <trkpt lat="45.92870000" lon="12.05524000">
        <ele>666.00000</ele>
        <time>2010-01-01T20:06:30Z</time>
      </trkpt>
      <trkpt lat="45.92882990" lon="12.05585000">
        <ele>665.00000</ele>
        <time>2010-01-01T20:06:47Z</time>
      </trkpt>
      <trkpt lat="45.92900000" lon="12.05611000">
        <ele>663.00000</ele>
        <time>2010-01-01T20:06:57Z</time>
      </trkpt>
      <trkpt lat="45.92954990" lon="12.05637000">
        <ele>664.00000</ele>
        <time>2010-01-01T20:07:21Z</time>
      </trkpt>
      <trkpt lat="45.92954990" lon="12.05649000">
        <ele>659.00000</ele>
        <time>2010-01-01T20:07:24Z</time>
      </trkpt>
      <trkpt lat="45.92900000" lon="12.05662000">
        <ele>649.00000</ele>
        <time>2010-01-01T20:07:46Z</time>
      </trkpt>
      <trkpt lat="45.92840000" lon="12.05649000">
        <ele>643.00000</ele>
        <time>2010-01-01T20:08:10Z</time>
      </trkpt>
      <trkpt lat="45.92822000" lon="12.05628000">
        <ele>641.00000</ele>
        <time>2010-01-01T20:08:20Z</time>
      </trkpt>
      <trkpt lat="45.92810000" lon="12.05628000">
        <ele>637.00000</ele>
        <time>2010-01-01T20:08:25Z</time>
      </trkpt>
      <trkpt lat="45.92822000" lon="12.05697000">
        <ele>629.00000</ele>
        <time>2010-01-01T20:08:44Z</time>
      </trkpt>
      <trkpt lat="45.92825000" lon="12.05710000">
        <ele>627.00000</ele>
        <time>2010-01-01T20:08:48Z</time>
      </trkpt>
      <trkpt lat="45.92865000" lon="12.05723000">
        <ele>628.00000</ele>
        <time>2010-01-01T20:09:05Z</time>
      </trkpt>
      <trkpt lat="45.92852000" lon="12.05745000">
        <ele>621.00000</ele>
        <time>2010-01-01T20:09:13Z</time>
      </trkpt>
      <trkpt lat="45.92822000" lon="12.05757000">
        <ele>615.00000</ele>
        <time>2010-01-01T20:09:25Z</time>
      </trkpt>
      <trkpt lat="45.92795000" lon="12.05766000">
        <ele>607.00000</ele>
        <time>2010-01-01T20:09:36Z</time>
      </trkpt>
      <trkpt lat="45.92777000" lon="12.05757000">
        <ele>604.00000</ele>
        <time>2010-01-01T20:09:44Z</time>
      </trkpt>
      <trkpt lat="45.92779990" lon="12.05702000">
        <ele>615.00000</ele>
        <time>2010-01-01T20:09:59Z</time>
      </trkpt>
      <trkpt lat="45.92759000" lon="12.05671000">
        <ele>614.00000</ele>
        <time>2010-01-01T20:10:11Z</time>
      </trkpt>
      <trkpt lat="45.92690000" lon="12.05667000">
        <ele>592.00000</ele>
        <time>2010-01-01T20:10:39Z</time>
      </trkpt>
      <trkpt lat="45.92678000" lon="12.05654000">
        <ele>588.00000</ele>
        <time>2010-01-01T20:10:45Z</time>
      </trkpt>
      <trkpt lat="45.92684000" lon="12.05550000">
        <ele>597.00000</ele>
        <time>2010-01-01T20:11:14Z</time>
      </trkpt>
      <trkpt lat="45.92645000" lon="12.05524000">
        <ele>585.00000</ele>
        <time>2010-01-01T20:11:31Z</time>
      </trkpt>
      <trkpt lat="45.92642000" lon="12.05485000">
        <ele>583.00000</ele>
        <time>2010-01-01T20:11:42Z</time>
      </trkpt>
      <trkpt lat="45.92633000" lon="12.05472000">
        <ele>578.00000</ele>
        <time>2010-01-01T20:11:47Z</time>
      </trkpt>
      <trkpt lat="45.92624000" lon="12.05511000">
        <ele>578.00000</ele>
        <time>2010-01-01T20:11:59Z</time>
      </trkpt>
      <trkpt lat="45.92654000" lon="12.05571000">
        <ele>584.00000</ele>
        <time>2010-01-01T20:12:19Z</time>
      </trkpt>
      <trkpt lat="45.92651000" lon="12.05593000">
        <ele>582.00000</ele>
        <time>2010-01-01T20:12:25Z</time>
      </trkpt>
      <trkpt lat="45.92615000" lon="12.05602000">
        <ele>573.00000</ele>
        <time>2010-01-01T20:12:40Z</time>
      </trkpt>
      <trkpt lat="45.92591000" lon="12.05623000">
        <ele>566.00000</ele>
        <time>2010-01-01T20:12:51Z</time>
      </trkpt>
      <trkpt lat="45.92569000" lon="12.05628000">
        <ele>562.00000</ele>
        <time>2010-01-01T20:13:00Z</time>
      </trkpt>
      <trkpt lat="45.92509000" lon="12.05632000">
        <ele>556.00000</ele>
        <time>2010-01-01T20:13:24Z</time>
      </trkpt>
      <trkpt lat="45.92476000" lon="12.05597000">
        <ele>553.00000</ele>
        <time>2010-01-01T20:13:41Z</time>
      </trkpt>
      <trkpt lat="45.92476000" lon="12.05568000">
        <ele>552.00000</ele>
        <time>2010-01-01T20:13:49Z</time>
      </trkpt>
      <trkpt lat="45.92501000" lon="12.05550000">
        <ele>556.00000</ele>
        <time>2010-01-01T20:14:00Z</time>
      </trkpt>
      <trkpt lat="45.92504000" lon="12.05533000">
        <ele>554.00000</ele>
        <time>2010-01-01T20:14:05Z</time>
      </trkpt>
      <trkpt lat="45.92473000" lon="12.05524000">
        <ele>545.00000</ele>
        <time>2010-01-01T20:14:17Z</time>
      </trkpt>
      <trkpt lat="45.92434000" lon="12.05546000">
        <ele>539.00000</ele>
        <time>2010-01-01T20:14:34Z</time>
      </trkpt>
      <trkpt lat="45.92428000" lon="12.05585000">
        <ele>542.00000</ele>
        <time>2010-01-01T20:14:45Z</time>
      </trkpt>
      <trkpt lat="45.92456000" lon="12.05688000">
        <ele>536.00000</ele>
        <time>2010-01-01T20:15:16Z</time>
      </trkpt>
      <trkpt lat="45.92468000" lon="12.05702000">
        <ele>536.00000</ele>
        <time>2010-01-01T20:15:22Z</time>
      </trkpt>
      <trkpt lat="45.92476000" lon="12.05719000">
        <ele>534.00000</ele>
        <time>2010-01-01T20:15:28Z</time>
      </trkpt>
      <trkpt lat="45.92449000" lon="12.05740000">
        <ele>528.00000</ele>
        <time>2010-01-01T20:15:40Z</time>
      </trkpt>
      <trkpt lat="45.92428000" lon="12.05728000">
        <ele>527.00000</ele>
        <time>2010-01-01T20:15:49Z</time>
      </trkpt>
      <trkpt lat="45.92395000" lon="12.05719000">
        <ele>527.00000</ele>
        <time>2010-01-01T20:16:03Z</time>
      </trkpt>
      <trkpt lat="45.92368000" lon="12.05728000">
        <ele>526.00000</ele>
        <time>2010-01-01T20:16:14Z</time>
      </trkpt>
      <trkpt lat="45.92281000" lon="12.05814000">
        <ele>518.00000</ele>
        <time>2010-01-01T20:16:56Z</time>
      </trkpt>
      <trkpt lat="45.92257000" lon="12.05814000">
        <ele>520.00000</ele>
        <time>2010-01-01T20:17:06Z</time>
      </trkpt>
      <trkpt lat="45.92224000" lon="12.05792000">
        <ele>523.00000</ele>
        <time>2010-01-01T20:17:20Z</time>
      </trkpt>
      <trkpt lat="45.92194000" lon="12.05796000">
        <ele>520.00000</ele>
        <time>2010-01-01T20:17:32Z</time>
      </trkpt>
      <trkpt lat="45.92088000" lon="12.05757000">
        <ele>519.00000</ele>
        <time>2010-01-01T20:18:16Z</time>
      </trkpt>
      <trkpt lat="45.92058000" lon="12.05766000">
        <ele>515.00000</ele>
        <time>2010-01-01T20:18:28Z</time>
      </trkpt>
      <trkpt lat="45.91956000" lon="12.05792000">
        <ele>510.00000</ele>
        <time>2010-01-01T20:19:10Z</time>
      </trkpt>
      <trkpt lat="45.91956000" lon="12.05810000">
        <ele>510.00000</ele>
        <time>2010-01-01T20:19:15Z</time>
      </trkpt>
      <trkpt lat="45.91968000" lon="12.05819000">
        <ele>509.00000</ele>
        <time>2010-01-01T20:19:20Z</time>
      </trkpt>
      <trkpt lat="45.92025000" lon="12.05801000">
        <ele>507.00000</ele>
        <time>2010-01-01T20:19:44Z</time>
      </trkpt>
      <trkpt lat="45.92058000" lon="12.05814000">
        <ele>506.00000</ele>
        <time>2010-01-01T20:19:57Z</time>
      </trkpt>
      <trkpt lat="45.92173000" lon="12.05862000">
        <ele>501.00000</ele>
        <time>2010-01-01T20:20:45Z</time>
      </trkpt>
      <trkpt lat="45.92197000" lon="12.05896000">
        <ele>494.00000</ele>
        <time>2010-01-01T20:20:59Z</time>
      </trkpt>
      <trkpt lat="45.92205000" lon="12.05931000">
        <ele>487.00000</ele>
        <time>2010-01-01T20:21:09Z</time>
      </trkpt>
      <trkpt lat="45.92205000" lon="12.06013000">
        <ele>474.00000</ele>
        <time>2010-01-01T20:21:32Z</time>
      </trkpt>
      <trkpt lat="45.92242000" lon="12.06056000">
        <ele>474.00000</ele>
        <time>2010-01-01T20:21:51Z</time>
      </trkpt>
      <trkpt lat="45.92236000" lon="12.06078000">
        <ele>469.00000</ele>
        <time>2010-01-01T20:21:58Z</time>
      </trkpt>
      <trkpt lat="45.92215000" lon="12.06065000">
        <ele>465.00000</ele>
        <time>2010-01-01T20:22:07Z</time>
      </trkpt>
      <trkpt lat="45.92190000" lon="12.05996000">
        <ele>474.00000</ele>
        <time>2010-01-01T20:22:28Z</time>
      </trkpt>
      <trkpt lat="45.92173000" lon="12.05970000">
        <ele>475.00000</ele>
        <time>2010-01-01T20:22:38Z</time>
      </trkpt>
      <trkpt lat="45.92137000" lon="12.05953000">
        <ele>473.00000</ele>
        <time>2010-01-01T20:22:54Z</time>
      </trkpt>
      <trkpt lat="45.92107000" lon="12.05956000">
        <ele>469.00000</ele>
        <time>2010-01-01T20:23:06Z</time>
      </trkpt>
      <trkpt lat="45.92097000" lon="12.05965000">
        <ele>466.00000</ele>
        <time>2010-01-01T20:23:10Z</time>
      </trkpt>
      <trkpt lat="45.92103000" lon="12.05982000">
        <ele>463.00000</ele>
        <time>2010-01-01T20:23:16Z</time>
      </trkpt>
      <trkpt lat="45.92148000" lon="12.06017000">
        <ele>462.00000</ele>
        <time>2010-01-01T20:23:36Z</time>
      </trkpt>
      <trkpt lat="45.92185000" lon="12.06138000">
        <ele>442.00000</ele>
        <time>2010-01-01T20:24:13Z</time>
      </trkpt>
      <trkpt lat="45.92188000" lon="12.06273000">
        <ele>418.00000</ele>
        <time>2010-01-01T20:24:50Z</time>
      </trkpt>
      <trkpt lat="45.92203000" lon="12.06298000">
        <ele>416.00000</ele>
        <time>2010-01-01T20:25:00Z</time>
      </trkpt>
      <trkpt lat="45.92212000" lon="12.06298000">
        <ele>417.00000</ele>
        <time>2010-01-01T20:25:03Z</time>
      </trkpt>
      <trkpt lat="45.92220000" lon="12.06298000">
        <ele>418.00000</ele>
        <time>2010-01-01T20:25:06Z</time>
      </trkpt>
      <trkpt lat="45.92242000" lon="12.06276000">
        <ele>426.00000</ele>
        <time>2010-01-01T20:25:17Z</time>
      </trkpt>
      <trkpt lat="45.92269000" lon="12.06216000">
        <ele>437.00000</ele>
        <time>2010-01-01T20:25:37Z</time>
      </trkpt>
      <trkpt lat="45.92314000" lon="12.06203000">
        <ele>429.00000</ele>
        <time>2010-01-01T20:25:55Z</time>
      </trkpt>
      <trkpt lat="45.92332000" lon="12.06173000">
        <ele>433.00000</ele>
        <time>2010-01-01T20:26:07Z</time>
      </trkpt>
      <trkpt lat="45.92347000" lon="12.06177000">
        <ele>427.00000</ele>
        <time>2010-01-01T20:26:13Z</time>
      </trkpt>
      <trkpt lat="45.92413000" lon="12.06108000">
        <ele>423.00000</ele>
        <time>2010-01-01T20:26:45Z</time>
      </trkpt>
      <trkpt lat="45.92428000" lon="12.06121000">
        <ele>422.00000</ele>
        <time>2010-01-01T20:26:52Z</time>
      </trkpt>
      <trkpt lat="45.92434000" lon="12.06159000">
        <ele>416.00000</ele>
        <time>2010-01-01T20:27:03Z</time>
      </trkpt>
      <trkpt lat="45.92428000" lon="12.06207000">
        <ele>408.00000</ele>
        <time>2010-01-01T20:27:17Z</time>
      </trkpt>
      <trkpt lat="45.92434000" lon="12.06225000">
        <ele>408.00000</ele>
        <time>2010-01-01T20:27:22Z</time>
      </trkpt>
      <trkpt lat="45.92446000" lon="12.06242000">
        <ele>407.00000</ele>
        <time>2010-01-01T20:27:29Z</time>
      </trkpt>
      <trkpt lat="45.92489000" lon="12.06250000">
        <ele>412.00000</ele>
        <time>2010-01-01T20:27:46Z</time>
      </trkpt>
      <trkpt lat="45.92528000" lon="12.06276000">
        <ele>412.00000</ele>
        <time>2010-01-01T20:28:04Z</time>
      </trkpt>
      <trkpt lat="45.92546000" lon="12.06298000">
        <ele>408.00000</ele>
        <time>2010-01-01T20:28:13Z</time>
      </trkpt>
      <trkpt lat="45.92557990" lon="12.06311000">
        <ele>406.00000</ele>
        <time>2010-01-01T20:28:19Z</time>
      </trkpt>
      <trkpt lat="45.92600000" lon="12.06307000">
        <ele>415.00000</ele>
        <time>2010-01-01T20:28:36Z</time>
      </trkpt>
      <trkpt lat="45.92612000" lon="12.06328000">
        <ele>414.00000</ele>
        <time>2010-01-01T20:28:43Z</time>
      </trkpt>
      <trkpt lat="45.92639000" lon="12.06506000">
        <ele>389.00000</ele>
        <time>2010-01-01T20:29:34Z</time>
      </trkpt>
      <trkpt lat="45.92693000" lon="12.06541000">
        <ele>396.00000</ele>
        <time>2010-01-01T20:29:58Z</time>
      </trkpt>
      <trkpt lat="45.92743990" lon="12.06622000">
        <ele>398.00000</ele>
        <time>2010-01-01T20:30:28Z</time>
      </trkpt>
      <trkpt lat="45.92750000" lon="12.06661000">
        <ele>394.00000</ele>
        <time>2010-01-01T20:30:39Z</time>
      </trkpt>
      <trkpt lat="45.92701990" lon="12.06722000">
        <ele>379.00000</ele>
        <time>2010-01-01T20:31:05Z</time>
      </trkpt>
      <trkpt lat="45.92699000" lon="12.06756000">
        <ele>378.00000</ele>
        <time>2010-01-01T20:31:15Z</time>
      </trkpt>
      <trkpt lat="45.92711000" lon="12.06778000">
        <ele>378.00000</ele>
        <time>2010-01-01T20:31:22Z</time>
      </trkpt>
      <trkpt lat="45.92757000" lon="12.06809000">
        <ele>381.00000</ele>
        <time>2010-01-01T20:31:43Z</time>
      </trkpt>
      <trkpt lat="45.92779990" lon="12.06809000">
        <ele>381.00000</ele>
        <time>2010-01-01T20:31:52Z</time>
      </trkpt>
      <trkpt lat="45.92820000" lon="12.06778000">
        <ele>389.00000</ele>
        <time>2010-01-01T20:32:10Z</time>
      </trkpt>
      <trkpt lat="45.92822000" lon="12.06778000">
        <ele>389.00000</ele>
        <time>2010-01-01T20:32:11Z</time>
      </trkpt>
      <trkpt lat="45.92835000" lon="12.06778000">
        <ele>390.00000</ele>
        <time>2010-01-01T20:32:16Z</time>
      </trkpt>
      <trkpt lat="45.92892000" lon="12.06861000">
        <ele>386.00000</ele>
        <time>2010-01-01T20:32:49Z</time>
      </trkpt>
      <trkpt lat="45.92910000" lon="12.06890000">
        <ele>386.00000</ele>
        <time>2010-01-01T20:32:59Z</time>
      </trkpt>
      <trkpt lat="45.93003000" lon="12.07120000">
        <ele>390.00000</ele>
        <time>2010-01-01T20:34:14Z</time>
      </trkpt>
      <trkpt lat="45.93032990" lon="12.07146000">
        <ele>385.00000</ele>
        <time>2010-01-01T20:34:28Z</time>
      </trkpt>
      <trkpt lat="45.93051000" lon="12.07129000">
        <ele>383.00000</ele>
        <time>2010-01-01T20:34:36Z</time>
      </trkpt>
      <trkpt lat="45.93081000" lon="12.07060000">
        <ele>389.00000</ele>
        <time>2010-01-01T20:34:59Z</time>
      </trkpt>
      <trkpt lat="45.93096000" lon="12.07055000">
        <ele>392.00000</ele>
        <time>2010-01-01T20:35:05Z</time>
      </trkpt>
      <trkpt lat="45.93104990" lon="12.07081000">
        <ele>389.00000</ele>
        <time>2010-01-01T20:35:13Z</time>
      </trkpt>
      <trkpt lat="45.93096000" lon="12.07172000">
        <ele>374.00000</ele>
        <time>2010-01-01T20:35:39Z</time>
      </trkpt>
      <trkpt lat="45.93099000" lon="12.07206000">
        <ele>372.00000</ele>
        <time>2010-01-01T20:35:48Z</time>
      </trkpt>
      <trkpt lat="45.93136000" lon="12.07254000">
        <ele>375.00000</ele>
        <time>2010-01-01T20:36:08Z</time>
      </trkpt>
      <trkpt lat="45.93146990" lon="12.07263000">
        <ele>375.00000</ele>
        <time>2010-01-01T20:36:13Z</time>
      </trkpt>
      <trkpt lat="45.93171000" lon="12.07358000">
        <ele>353.00000</ele>
        <time>2010-01-01T20:36:41Z</time>
      </trkpt>
      <trkpt lat="45.93201000" lon="12.07397000">
        <ele>350.00000</ele>
        <time>2010-01-01T20:36:58Z</time>
      </trkpt>
      <trkpt lat="45.93229000" lon="12.07435000">
        <ele>348.00000</ele>
        <time>2010-01-01T20:37:13Z</time>
      </trkpt>
      <trkpt lat="45.93249000" lon="12.07479000">
        <ele>343.00000</ele>
        <time>2010-01-01T20:37:28Z</time>
      </trkpt>
      <trkpt lat="45.93397000" lon="12.07652000">
        <ele>329.00000</ele>
        <time>2010-01-01T20:38:44Z</time>
      </trkpt>
      <trkpt lat="45.93575000" lon="12.07886000">
        <ele>315.00000</ele>
        <time>2010-01-01T20:40:21Z</time>
      </trkpt>
      <trkpt lat="45.93587000" lon="12.07908000">
        <ele>313.00000</ele>
        <time>2010-01-01T20:40:28Z</time>
      </trkpt>
      <trkpt lat="45.93635000" lon="12.07989000">
        <ele>306.00000</ele>
        <time>2010-01-01T20:40:58Z</time>
      </trkpt>
      <trkpt lat="45.93665000" lon="12.08059000">
        <ele>301.00000</ele>
        <time>2010-01-01T20:41:21Z</time>
      </trkpt>
      <trkpt lat="45.93674000" lon="12.08141000">
        <ele>296.00000</ele>
        <time>2010-01-01T20:41:44Z</time>
      </trkpt>
      <trkpt lat="45.93680000" lon="12.08245000">
        <ele>290.00000</ele>
        <time>2010-01-01T20:42:13Z</time>
      </trkpt>
      <trkpt lat="45.93740000" lon="12.08362000">
        <ele>287.00000</ele>
        <time>2010-01-01T20:42:53Z</time>
      </trkpt>
      <trkpt lat="45.93749000" lon="12.08396000">
        <ele>285.00000</ele>
        <time>2010-01-01T20:43:04Z</time>
      </trkpt>
      <trkpt lat="45.93773000" lon="12.08448000">
        <ele>281.00000</ele>
        <time>2010-01-01T20:43:21Z</time>
      </trkpt>
      <trkpt lat="45.93812000" lon="12.08461000">
        <ele>280.00000</ele>
        <time>2010-01-01T20:43:37Z</time>
      </trkpt>
      <trkpt lat="45.93832990" lon="12.08465000">
        <ele>280.00000</ele>
        <time>2010-01-01T20:43:45Z</time>
      </trkpt>
      <trkpt lat="45.93854000" lon="12.08496000">
        <ele>278.00000</ele>
        <time>2010-01-01T20:43:58Z</time>
      </trkpt>
      <trkpt lat="45.93879000" lon="12.08525000">
        <ele>276.00000</ele>
        <time>2010-01-01T20:44:10Z</time>
      </trkpt>
      <trkpt lat="45.93906000" lon="12.08552000">
        <ele>274.00000</ele>
        <time>2010-01-01T20:44:24Z</time>
      </trkpt>
      <trkpt lat="45.93951000" lon="12.08587000">
        <ele>270.00000</ele>
        <time>2010-01-01T20:44:44Z</time>
      </trkpt>
      <trkpt lat="45.94005000" lon="12.08647000">
        <ele>267.00000</ele>
        <time>2010-01-01T20:45:11Z</time>
      </trkpt>
      <trkpt lat="45.94071000" lon="12.08776000">
        <ele>263.00000</ele>
        <time>2010-01-01T20:45:56Z</time>
      </trkpt>
      <trkpt lat="45.94110000" lon="12.08863000">
        <ele>263.00000</ele>
        <time>2010-01-01T20:46:25Z</time>
      </trkpt>
      <trkpt lat="45.94143000" lon="12.08919000">
        <ele>262.00000</ele>
        <time>2010-01-01T20:46:45Z</time>
      </trkpt>
      <trkpt lat="45.94182000" lon="12.08989000">
        <ele>262.00000</ele>
        <time>2010-01-01T20:47:10Z</time>
      </trkpt>
      <trkpt lat="45.94235990" lon="12.09062000">
        <ele>258.00000</ele>
        <time>2010-01-01T20:47:40Z</time>
      </trkpt>
      <trkpt lat="45.94275000" lon="12.09132000">
        <ele>259.00000</ele>
        <time>2010-01-01T20:48:05Z</time>
      </trkpt>
      <trkpt lat="45.94351000" lon="12.09252000">
        <ele>256.00000</ele>
        <time>2010-01-01T20:48:50Z</time>
      </trkpt>
      <trkpt lat="45.94360000" lon="12.09270000">
        <ele>256.00000</ele>
        <time>2010-01-01T20:48:56Z</time>
      </trkpt>
      <trkpt lat="45.94399000" lon="12.09335000">
        <ele>256.00000</ele>
        <time>2010-01-01T20:49:20Z</time>
      </trkpt>
      <trkpt lat="45.94414000" lon="12.09352000">
        <ele>257.00000</ele>
        <time>2010-01-01T20:49:28Z</time>
      </trkpt>
      <trkpt lat="45.94435000" lon="12.09365000">
        <ele>259.00000</ele>
        <time>2010-01-01T20:49:37Z</time>
      </trkpt>
      <trkpt lat="45.94435000" lon="12.09404000">
        <ele>259.00000</ele>
        <time>2010-01-01T20:49:48Z</time>
      </trkpt>
      <trkpt lat="45.94447000" lon="12.09512000">
        <ele>259.00000</ele>
        <time>2010-01-01T20:50:18Z</time>
      </trkpt>
      <trkpt lat="45.94465000" lon="12.09572000">
        <ele>260.00000</ele>
        <time>2010-01-01T20:50:36Z</time>
      </trkpt>
      <trkpt lat="45.94471000" lon="12.09594000">
        <ele>260.00000</ele>
        <time>2010-01-01T20:50:43Z</time>
      </trkpt>
      <trkpt lat="45.94474000" lon="12.09603000">
        <ele>260.00000</ele>
        <time>2010-01-01T20:50:46Z</time>
      </trkpt>
      <trkpt lat="45.94498000" lon="12.09689000">
        <ele>259.00000</ele>
        <time>2010-01-01T20:51:11Z</time>
      </trkpt>
      <trkpt lat="45.94543000" lon="12.09828000">
        <ele>256.00000</ele>
        <time>2010-01-01T20:51:54Z</time>
      </trkpt>
      <trkpt lat="45.94576000" lon="12.09936000">
        <ele>254.00000</ele>
        <time>2010-01-01T20:52:27Z</time>
      </trkpt>
      <trkpt lat="45.94612000" lon="12.10070000">
        <ele>251.00000</ele>
        <time>2010-01-01T20:53:07Z</time>
      </trkpt>
      <trkpt lat="45.94669000" lon="12.10256000">
        <ele>243.00000</ele>
        <time>2010-01-01T20:54:04Z</time>
      </trkpt>
      <trkpt lat="45.94684000" lon="12.10316000">
        <ele>239.00000</ele>
        <time>2010-01-01T20:54:21Z</time>
      </trkpt>
      <trkpt lat="45.94690000" lon="12.10342000">
        <ele>237.00000</ele>
        <time>2010-01-01T20:54:29Z</time>
      </trkpt>
      <trkpt lat="45.94700000" lon="12.10377000">
        <ele>235.00000</ele>
        <time>2010-01-01T20:54:39Z</time>
      </trkpt>
      <trkpt lat="45.94730000" lon="12.10442000">
        <ele>234.00000</ele>
        <time>2010-01-01T20:55:01Z</time>
      </trkpt>
      <trkpt lat="45.94765000" lon="12.10524000">
        <ele>232.00000</ele>
        <time>2010-01-01T20:55:28Z</time>
      </trkpt>
      <trkpt lat="45.94853000" lon="12.10676000">
        <ele>224.00000</ele>
        <time>2010-01-01T20:56:23Z</time>
      </trkpt>
      <trkpt lat="45.94865000" lon="12.10693000">
        <ele>223.00000</ele>
        <time>2010-01-01T20:56:30Z</time>
      </trkpt>
      <trkpt lat="45.94871000" lon="12.10702000">
        <ele>223.00000</ele>
        <time>2010-01-01T20:56:33Z</time>
      </trkpt>
      <trkpt lat="45.95000000" lon="12.10844000">
        <ele>214.00000</ele>
        <time>2010-01-01T20:57:38Z</time>
      </trkpt>
      <trkpt lat="45.95009000" lon="12.10848000">
        <ele>214.00000</ele>
        <time>2010-01-01T20:57:42Z</time>
      </trkpt>
      <trkpt lat="45.95063000" lon="12.10922000">
        <ele>214.00000</ele>
        <time>2010-01-01T20:58:12Z</time>
      </trkpt>
      <trkpt lat="45.95096000" lon="12.10987000">
        <ele>212.00000</ele>
        <time>2010-01-01T20:58:34Z</time>
      </trkpt>
      <trkpt lat="45.95114000" lon="12.11030000">
        <ele>211.00000</ele>
        <time>2010-01-01T20:58:48Z</time>
      </trkpt>
      <trkpt lat="45.95151000" lon="12.11125000">
        <ele>210.00000</ele>
        <time>2010-01-01T20:59:19Z</time>
      </trkpt>
      <trkpt lat="45.95162000" lon="12.11169000">
        <ele>208.00000</ele>
        <time>2010-01-01T20:59:32Z</time>
      </trkpt>
      <trkpt lat="45.95177000" lon="12.11446000">
        <ele>198.00000</ele>
        <time>2010-01-01T21:00:49Z</time>
      </trkpt>
      <trkpt lat="45.95196000" lon="12.11549000">
        <ele>196.00000</ele>
        <time>2010-01-01T21:01:19Z</time>
      </trkpt>
      <trkpt lat="45.95217000" lon="12.11614000">
        <ele>196.00000</ele>
        <time>2010-01-01T21:01:38Z</time>
      </trkpt>
      <trkpt lat="45.95295000" lon="12.11769000">
        <ele>194.00000</ele>
        <time>2010-01-01T21:02:32Z</time>
      </trkpt>
      <trkpt lat="45.95297990" lon="12.11783000">
        <ele>194.00000</ele>
        <time>2010-01-01T21:02:36Z</time>
      </trkpt>
      <trkpt lat="45.95304000" lon="12.11792000">
        <ele>194.00000</ele>
        <time>2010-01-01T21:02:39Z</time>
      </trkpt>
      <trkpt lat="45.95319000" lon="12.11813000">
        <ele>194.00000</ele>
        <time>2010-01-01T21:02:48Z</time>
      </trkpt>
      <trkpt lat="45.95400000" lon="12.11943000">
        <ele>198.00000</ele>
        <time>2010-01-01T21:03:36Z</time>
      </trkpt>
      <trkpt lat="45.95526000" lon="12.12072000">
        <ele>197.00000</ele>
        <time>2010-01-01T21:04:38Z</time>
      </trkpt>
      <trkpt lat="45.95548000" lon="12.12094000">
        <ele>198.00000</ele>
        <time>2010-01-01T21:04:49Z</time>
      </trkpt>
      <trkpt lat="45.95749000" lon="12.12276000">
        <ele>204.00000</ele>
        <time>2010-01-01T21:06:24Z</time>
      </trkpt>
      <trkpt lat="45.95743000" lon="12.12314000">
        <ele>205.00000</ele>
        <time>2010-01-01T21:06:35Z</time>
      </trkpt>
      <trkpt lat="45.95761000" lon="12.12319000">
        <ele>206.00000</ele>
        <time>2010-01-01T21:06:42Z</time>
      </trkpt>
      <trkpt lat="45.95797000" lon="12.12328000">
        <ele>206.00000</ele>
        <time>2010-01-01T21:06:57Z</time>
      </trkpt>
      <trkpt lat="45.95857000" lon="12.12375000">
        <ele>209.00000</ele>
        <time>2010-01-01T21:07:24Z</time>
      </trkpt>
      <trkpt lat="45.95878000" lon="12.12405000">
        <ele>211.00000</ele>
        <time>2010-01-01T21:07:36Z</time>
      </trkpt>
      <trkpt lat="45.95922990" lon="12.12474000">
        <ele>213.00000</ele>
        <time>2010-01-01T21:08:02Z</time>
      </trkpt>
      <trkpt lat="45.95953000" lon="12.12565000">
        <ele>213.00000</ele>
        <time>2010-01-01T21:08:30Z</time>
      </trkpt>
      <trkpt lat="45.95963000" lon="12.12583000">
        <ele>214.00000</ele>
        <time>2010-01-01T21:08:37Z</time>
      </trkpt>
      <trkpt lat="45.95968000" lon="12.12609000">
        <ele>214.00000</ele>
        <time>2010-01-01T21:08:44Z</time>
      </trkpt>
      <trkpt lat="45.95971000" lon="12.12622000">
        <ele>213.00000</ele>
        <time>2010-01-01T21:08:48Z</time>
      </trkpt>
      <trkpt lat="45.96010000" lon="12.12739000">
        <ele>214.00000</ele>
        <time>2010-01-01T21:09:24Z</time>
      </trkpt>
      <trkpt lat="45.96061990" lon="12.12825000">
        <ele>216.00000</ele>
        <time>2010-01-01T21:09:56Z</time>
      </trkpt>
      <trkpt lat="45.96110000" lon="12.12890000">
        <ele>218.00000</ele>
        <time>2010-01-01T21:10:22Z</time>
      </trkpt>
      <trkpt lat="45.96227000" lon="12.13045000">
        <ele>220.00000</ele>
        <time>2010-01-01T21:11:26Z</time>
      </trkpt>
      <trkpt lat="45.96374000" lon="12.13253000">
        <ele>227.00000</ele>
        <time>2010-01-01T21:12:48Z</time>
      </trkpt>
      <trkpt lat="45.96398000" lon="12.13284000">
        <ele>228.00000</ele>
        <time>2010-01-01T21:13:01Z</time>
      </trkpt>
      <trkpt lat="45.96407000" lon="12.13301000">
        <ele>229.00000</ele>
        <time>2010-01-01T21:13:07Z</time>
      </trkpt>
      <trkpt lat="45.96515000" lon="12.13444000">
        <ele>234.00000</ele>
        <time>2010-01-01T21:14:06Z</time>
      </trkpt>
      <trkpt lat="45.96534000" lon="12.13474000">
        <ele>235.00000</ele>
        <time>2010-01-01T21:14:17Z</time>
      </trkpt>
      <trkpt lat="45.96540000" lon="12.13487000">
        <ele>236.00000</ele>
        <time>2010-01-01T21:14:22Z</time>
      </trkpt>
      <trkpt lat="45.96549000" lon="12.13509000">
        <ele>236.00000</ele>
        <time>2010-01-01T21:14:29Z</time>
      </trkpt>
      <trkpt lat="45.96558000" lon="12.13539000">
        <ele>238.00000</ele>
        <time>2010-01-01T21:14:38Z</time>
      </trkpt>
      <trkpt lat="45.96588000" lon="12.13630000">
        <ele>242.00000</ele>
        <time>2010-01-01T21:15:06Z</time>
      </trkpt>
      <trkpt lat="45.96588000" lon="12.13664000">
        <ele>241.00000</ele>
        <time>2010-01-01T21:15:15Z</time>
      </trkpt>
      <trkpt lat="45.96591000" lon="12.13703000">
        <ele>240.00000</ele>
        <time>2010-01-01T21:15:26Z</time>
      </trkpt>
      <trkpt lat="45.96585000" lon="12.13755000">
        <ele>236.00000</ele>
        <time>2010-01-01T21:15:41Z</time>
      </trkpt>
      <trkpt lat="45.96564000" lon="12.13928000">
        <ele>238.00000</ele>
        <time>2010-01-01T21:16:30Z</time>
      </trkpt>
      <trkpt lat="45.96558000" lon="12.13989000">
        <ele>238.00000</ele>
        <time>2010-01-01T21:16:47Z</time>
      </trkpt>
      <trkpt lat="45.96536990" lon="12.14183000">
        <ele>237.00000</ele>
        <time>2010-01-01T21:17:42Z</time>
      </trkpt>
      <trkpt lat="45.96552000" lon="12.14451000">
        <ele>235.00000</ele>
        <time>2010-01-01T21:18:56Z</time>
      </trkpt>
      <trkpt lat="45.96570000" lon="12.14560000">
        <ele>237.00000</ele>
        <time>2010-01-01T21:19:28Z</time>
      </trkpt>
      <trkpt lat="45.96612000" lon="12.14702000">
        <ele>241.00000</ele>
        <time>2010-01-01T21:20:11Z</time>
      </trkpt>
      <trkpt lat="45.96642000" lon="12.14780000">
        <ele>244.00000</ele>
        <time>2010-01-01T21:20:35Z</time>
      </trkpt>
      <trkpt lat="45.96705000" lon="12.14936000">
        <ele>250.00000</ele>
        <time>2010-01-01T21:21:26Z</time>
      </trkpt>
      <trkpt lat="45.96753000" lon="12.15087000">
        <ele>252.00000</ele>
        <time>2010-01-01T21:22:12Z</time>
      </trkpt>
      <trkpt lat="45.96768000" lon="12.15139000">
        <ele>252.00000</ele>
        <time>2010-01-01T21:22:27Z</time>
      </trkpt>
      <trkpt lat="45.96784000" lon="12.15174000">
        <ele>253.00000</ele>
        <time>2010-01-01T21:22:39Z</time>
      </trkpt>
      <trkpt lat="45.96800990" lon="12.15234000">
        <ele>252.00000</ele>
        <time>2010-01-01T21:22:57Z</time>
      </trkpt>
      <trkpt lat="45.96825000" lon="12.15330000">
        <ele>248.00000</ele>
        <time>2010-01-01T21:23:25Z</time>
      </trkpt>
      <trkpt lat="45.96910000" lon="12.15490000">
        <ele>248.00000</ele>
        <time>2010-01-01T21:24:21Z</time>
      </trkpt>
      <trkpt lat="45.97078000" lon="12.15814000">
        <ele>245.00000</ele>
        <time>2010-01-01T21:26:14Z</time>
      </trkpt>
      <trkpt lat="45.97105000" lon="12.15879000">
        <ele>248.00000</ele>
        <time>2010-01-01T21:26:35Z</time>
      </trkpt>
      <trkpt lat="45.97162000" lon="12.16112000">
        <ele>238.00000</ele>
        <time>2010-01-01T21:27:44Z</time>
      </trkpt>
      <trkpt lat="45.97167990" lon="12.16186000">
        <ele>235.00000</ele>
        <time>2010-01-01T21:28:04Z</time>
      </trkpt>
      <trkpt lat="45.97173990" lon="12.16260000">
        <ele>234.00000</ele>
        <time>2010-01-01T21:28:25Z</time>
      </trkpt>
      <trkpt lat="45.97173990" lon="12.16298000">
        <ele>233.00000</ele>
        <time>2010-01-01T21:28:36Z</time>
      </trkpt>
      <trkpt lat="45.97167990" lon="12.16385000">
        <ele>230.00000</ele>
        <time>2010-01-01T21:29:00Z</time>
      </trkpt>
      <trkpt lat="45.97173990" lon="12.16566000">
        <ele>231.00000</ele>
        <time>2010-01-01T21:29:51Z</time>
      </trkpt>
      <trkpt lat="45.97203990" lon="12.16805000">
        <ele>240.00000</ele>
        <time>2010-01-01T21:30:58Z</time>
      </trkpt>
      <trkpt lat="45.97276000" lon="12.17151000">
        <ele>247.00000</ele>
        <time>2010-01-01T21:32:39Z</time>
      </trkpt>
      <trkpt lat="45.97312000" lon="12.17285000">
        <ele>242.00000</ele>
        <time>2010-01-01T21:33:19Z</time>
      </trkpt>
      <trkpt lat="45.97339000" lon="12.17388000">
        <ele>239.00000</ele>
        <time>2010-01-01T21:33:49Z</time>
      </trkpt>
      <trkpt lat="45.97372000" lon="12.17548000">
        <ele>237.00000</ele>
        <time>2010-01-01T21:34:36Z</time>
      </trkpt>
      <trkpt lat="45.97405000" lon="12.17544000">
        <ele>237.00000</ele>
        <time>2010-01-01T21:34:49Z</time>
      </trkpt>
      <trkpt lat="45.97465000" lon="12.17544000">
        <ele>240.00000</ele>
        <time>2010-01-01T21:35:13Z</time>
      </trkpt>
      <trkpt lat="45.97577000" lon="12.17522000">
        <ele>245.00000</ele>
        <time>2010-01-01T21:35:58Z</time>
      </trkpt>
      <trkpt lat="45.97690990" lon="12.17479000">
        <ele>251.00000</ele>
        <time>2010-01-01T21:36:45Z</time>
      </trkpt>
      <trkpt lat="45.97784000" lon="12.17462000">
        <ele>255.00000</ele>
        <time>2010-01-01T21:37:23Z</time>
      </trkpt>
      <trkpt lat="45.97842000" lon="12.17479000">
        <ele>257.00000</ele>
        <time>2010-01-01T21:37:47Z</time>
      </trkpt>
      <trkpt lat="45.97889000" lon="12.17488000">
        <ele>258.00000</ele>
        <time>2010-01-01T21:38:06Z</time>
      </trkpt>
      <trkpt lat="45.97925000" lon="12.17493000">
        <ele>260.00000</ele>
        <time>2010-01-01T21:38:20Z</time>
      </trkpt>
      <trkpt lat="45.97937000" lon="12.17493000">
        <ele>260.00000</ele>
        <time>2010-01-01T21:38:25Z</time>
      </trkpt>
      <trkpt lat="45.97952000" lon="12.17484000">
        <ele>262.00000</ele>
        <time>2010-01-01T21:38:31Z</time>
      </trkpt>
      <trkpt lat="45.97977000" lon="12.17475000">
        <ele>263.00000</ele>
        <time>2010-01-01T21:38:42Z</time>
      </trkpt>
      <trkpt lat="45.98025000" lon="12.17453000">
        <ele>266.00000</ele>
        <time>2010-01-01T21:39:02Z</time>
      </trkpt>
      <trkpt lat="45.98157000" lon="12.17402000">
        <ele>273.00000</ele>
        <time>2010-01-01T21:39:56Z</time>
      </trkpt>
      <trkpt lat="45.98169000" lon="12.17397000">
        <ele>273.00000</ele>
        <time>2010-01-01T21:40:01Z</time>
      </trkpt>
      <trkpt lat="45.98309990" lon="12.17341000">
        <ele>279.00000</ele>
        <time>2010-01-01T21:41:00Z</time>
      </trkpt>
      <trkpt lat="45.98464000" lon="12.17285000">
        <ele>290.00000</ele>
        <time>2010-01-01T21:42:04Z</time>
      </trkpt>
      <trkpt lat="45.98608000" lon="12.17233000">
        <ele>302.00000</ele>
        <time>2010-01-01T21:43:03Z</time>
      </trkpt>
      <trkpt lat="45.98737000" lon="12.17220000">
        <ele>311.00000</ele>
        <time>2010-01-01T21:43:55Z</time>
      </trkpt>
      <trkpt lat="45.98824000" lon="12.17245000">
        <ele>319.00000</ele>
        <time>2010-01-01T21:44:30Z</time>
      </trkpt>
      <trkpt lat="45.98932000" lon="12.17237000">
        <ele>334.00000</ele>
        <time>2010-01-01T21:45:14Z</time>
      </trkpt>
      <trkpt lat="45.98946990" lon="12.17233000">
        <ele>337.00000</ele>
        <time>2010-01-01T21:45:20Z</time>
      </trkpt>
      <trkpt lat="45.99028000" lon="12.17245000">
        <ele>344.00000</ele>
        <time>2010-01-01T21:45:52Z</time>
      </trkpt>
      <trkpt lat="45.99028000" lon="12.17224000">
        <ele>352.00000</ele>
        <time>2010-01-01T21:45:58Z</time>
      </trkpt>
      <trkpt lat="45.99005000" lon="12.17211000">
        <ele>352.00000</ele>
        <time>2010-01-01T21:46:08Z</time>
      </trkpt>
      <trkpt lat="45.98932000" lon="12.17185000">
        <ele>348.00000</ele>
        <time>2010-01-01T21:46:38Z</time>
      </trkpt>
      <trkpt lat="45.98890000" lon="12.17172000">
        <ele>345.00000</ele>
        <time>2010-01-01T21:46:55Z</time>
      </trkpt>
      <trkpt lat="45.98890000" lon="12.17151000">
        <ele>351.00000</ele>
        <time>2010-01-01T21:47:01Z</time>
      </trkpt>
      <trkpt lat="45.98920000" lon="12.17154000">
        <ele>356.00000</ele>
        <time>2010-01-01T21:47:13Z</time>
      </trkpt>
      <trkpt lat="45.98932000" lon="12.17163000">
        <ele>355.00000</ele>
        <time>2010-01-01T21:47:19Z</time>
      </trkpt>
      <trkpt lat="45.98975000" lon="12.17185000">
        <ele>354.00000</ele>
        <time>2010-01-01T21:47:37Z</time>
      </trkpt>
      <trkpt lat="45.99050000" lon="12.17194000">
        <ele>370.00000</ele>
        <time>2010-01-01T21:48:07Z</time>
      </trkpt>
      <trkpt lat="45.99088000" lon="12.17220000">
        <ele>364.00000</ele>
        <time>2010-01-01T21:48:24Z</time>
      </trkpt>
      <trkpt lat="45.99128000" lon="12.17224000">
        <ele>370.00000</ele>
        <time>2010-01-01T21:48:40Z</time>
      </trkpt>
      <trkpt lat="45.99173000" lon="12.17285000">
        <ele>365.00000</ele>
        <time>2010-01-01T21:49:05Z</time>
      </trkpt>
      <trkpt lat="45.99179000" lon="12.17288000">
        <ele>366.00000</ele>
        <time>2010-01-01T21:49:07Z</time>
      </trkpt>
      <trkpt lat="45.99227000" lon="12.17311000">
        <ele>371.00000</ele>
        <time>2010-01-01T21:49:27Z</time>
      </trkpt>
      <trkpt lat="45.99305000" lon="12.17393000">
        <ele>373.00000</ele>
        <time>2010-01-01T21:50:06Z</time>
      </trkpt>
      <trkpt lat="45.99317000" lon="12.17384000">
        <ele>376.00000</ele>
        <time>2010-01-01T21:50:12Z</time>
      </trkpt>
      <trkpt lat="45.99305000" lon="12.17358000">
        <ele>378.00000</ele>
        <time>2010-01-01T21:50:20Z</time>
      </trkpt>
      <trkpt lat="45.99251000" lon="12.17293000">
        <ele>381.00000</ele>
        <time>2010-01-01T21:50:48Z</time>
      </trkpt>
      <trkpt lat="45.99239000" lon="12.17285000">
        <ele>380.00000</ele>
        <time>2010-01-01T21:50:54Z</time>
      </trkpt>
      <trkpt lat="45.99209000" lon="12.17263000">
        <ele>378.00000</ele>
        <time>2010-01-01T21:51:07Z</time>
      </trkpt>
      <trkpt lat="45.99206000" lon="12.17242000">
        <ele>383.00000</ele>
        <time>2010-01-01T21:51:13Z</time>
      </trkpt>
      <trkpt lat="45.99271990" lon="12.17285000">
        <ele>386.00000</ele>
        <time>2010-01-01T21:51:42Z</time>
      </trkpt>
      <trkpt lat="45.99343990" lon="12.17263000">
        <ele>401.00000</ele>
        <time>2010-01-01T21:52:12Z</time>
      </trkpt>
      <trkpt lat="45.99392000" lon="12.17285000">
        <ele>400.00000</ele>
        <time>2010-01-01T21:52:32Z</time>
      </trkpt>
      <trkpt lat="45.99421990" lon="12.17297000">
        <ele>400.00000</ele>
        <time>2010-01-01T21:52:44Z</time>
      </trkpt>
      <trkpt lat="45.99467000" lon="12.17302000">
        <ele>405.00000</ele>
        <time>2010-01-01T21:53:02Z</time>
      </trkpt>
      <trkpt lat="45.99499990" lon="12.17297000">
        <ele>410.00000</ele>
        <time>2010-01-01T21:53:16Z</time>
      </trkpt>
      <trkpt lat="45.99524000" lon="12.17285000">
        <ele>415.00000</ele>
        <time>2010-01-01T21:53:26Z</time>
      </trkpt>
      <trkpt lat="45.99643990" lon="12.17224000">
        <ele>433.00000</ele>
        <time>2010-01-01T21:54:17Z</time>
      </trkpt>
      <trkpt lat="45.99696000" lon="12.17237000">
        <ele>430.00000</ele>
        <time>2010-01-01T21:54:38Z</time>
      </trkpt>
      <trkpt lat="45.99782990" lon="12.17263000">
        <ele>437.00000</ele>
        <time>2010-01-01T21:55:13Z</time>
      </trkpt>
      <trkpt lat="45.99786000" lon="12.17285000">
        <ele>447.00000</ele>
        <time>2010-01-01T21:55:20Z</time>
      </trkpt>
      <trkpt lat="45.99786000" lon="12.17297000">
        <ele>451.00000</ele>
        <time>2010-01-01T21:55:23Z</time>
      </trkpt>
      <trkpt lat="45.99768000" lon="12.17311000">
        <ele>452.00000</ele>
        <time>2010-01-01T21:55:31Z</time>
      </trkpt>
      <trkpt lat="45.99708000" lon="12.17315000">
        <ele>443.00000</ele>
        <time>2010-01-01T21:55:55Z</time>
      </trkpt>
      <trkpt lat="45.99696000" lon="12.17324000">
        <ele>443.00000</ele>
        <time>2010-01-01T21:56:01Z</time>
      </trkpt>
      <trkpt lat="45.99641000" lon="12.17362000">
        <ele>435.00000</ele>
        <time>2010-01-01T21:56:25Z</time>
      </trkpt>
      <trkpt lat="45.99636000" lon="12.17402000">
        <ele>437.00000</ele>
        <time>2010-01-01T21:56:36Z</time>
      </trkpt>
      <trkpt lat="45.99666000" lon="12.17371000">
        <ele>441.00000</ele>
        <time>2010-01-01T21:56:51Z</time>
      </trkpt>
      <trkpt lat="45.99696000" lon="12.17354000">
        <ele>449.00000</ele>
        <time>2010-01-01T21:57:04Z</time>
      </trkpt>
      <trkpt lat="45.99719000" lon="12.17358000">
        <ele>456.00000</ele>
        <time>2010-01-01T21:57:13Z</time>
      </trkpt>
      <trkpt lat="45.99750000" lon="12.17376000">
        <ele>472.00000</ele>
        <time>2010-01-01T21:57:27Z</time>
      </trkpt>
      <trkpt lat="45.99768000" lon="12.17376000">
        <ele>483.00000</ele>
        <time>2010-01-01T21:57:34Z</time>
      </trkpt>
      <trkpt lat="45.99873000" lon="12.17336000">
        <ele>503.00000</ele>
        <time>2010-01-01T21:58:17Z</time>
      </trkpt>
      <trkpt lat="45.99912000" lon="12.17328000">
        <ele>521.00000</ele>
        <time>2010-01-01T21:58:33Z</time>
      </trkpt>
      <trkpt lat="45.99981000" lon="12.17285000">
        <ele>510.00000</ele>
        <time>2010-01-01T21:59:03Z</time>
      </trkpt>
      <trkpt lat="46.00008000" lon="12.17267000">
        <ele>512.00000</ele>
        <time>2010-01-01T21:59:15Z</time>
      </trkpt>
      <trkpt lat="46.00017000" lon="12.17242000">
        <ele>504.00000</ele>
        <time>2010-01-01T21:59:23Z</time>
      </trkpt>
      <trkpt lat="46.00005000" lon="12.17224000">
        <ele>505.00000</ele>
        <time>2010-01-01T21:59:30Z</time>
      </trkpt>
      <trkpt lat="45.99938990" lon="12.17185000">
        <ele>492.00000</ele>
        <time>2010-01-01T21:59:58Z</time>
      </trkpt>
      <trkpt lat="45.99936000" lon="12.17168000">
        <ele>495.00000</ele>
        <time>2010-01-01T22:00:03Z</time>
      </trkpt>
      <trkpt lat="45.99990000" lon="12.17185000">
        <ele>498.00000</ele>
        <time>2010-01-01T22:00:25Z</time>
      </trkpt>
      <trkpt lat="46.00081000" lon="12.17172000">
        <ele>520.00000</ele>
        <time>2010-01-01T22:01:02Z</time>
      </trkpt>
      <trkpt lat="46.00146000" lon="12.17202000">
        <ele>541.00000</ele>
        <time>2010-01-01T22:01:29Z</time>
      </trkpt>
      <trkpt lat="46.00219000" lon="12.17190000">
        <ele>561.00000</ele>
        <time>2010-01-01T22:01:59Z</time>
      </trkpt>
      <trkpt lat="46.00227000" lon="12.17216000">
        <ele>554.00000</ele>
        <time>2010-01-01T22:02:07Z</time>
      </trkpt>
      <trkpt lat="46.00204000" lon="12.17250000">
        <ele>534.00000</ele>
        <time>2010-01-01T22:02:20Z</time>
      </trkpt>
      <trkpt lat="46.00170000" lon="12.17285000">
        <ele>549.00000</ele>
        <time>2010-01-01T22:02:37Z</time>
      </trkpt>
      <trkpt lat="46.00160990" lon="12.17293000">
        <ele>553.00000</ele>
        <time>2010-01-01T22:02:41Z</time>
      </trkpt>
      <trkpt lat="46.00092000" lon="12.17302000">
        <ele>545.00000</ele>
        <time>2010-01-01T22:03:09Z</time>
      </trkpt>
      <trkpt lat="46.00044000" lon="12.17336000">
        <ele>560.00000</ele>
        <time>2010-01-01T22:03:30Z</time>
      </trkpt>
      <trkpt lat="46.00052990" lon="12.17350000">
        <ele>576.00000</ele>
        <time>2010-01-01T22:03:35Z</time>
      </trkpt>
      <trkpt lat="46.00092000" lon="12.17324000">
        <ele>557.00000</ele>
        <time>2010-01-01T22:03:53Z</time>
      </trkpt>
      <trkpt lat="46.00134000" lon="12.17336000">
        <ele>578.00000</ele>
        <time>2010-01-01T22:04:10Z</time>
      </trkpt>
      <trkpt lat="46.00170000" lon="12.17350000">
        <ele>602.00000</ele>
        <time>2010-01-01T22:04:25Z</time>
      </trkpt>
      <trkpt lat="46.00215000" lon="12.17324000">
        <ele>588.00000</ele>
        <time>2010-01-01T22:04:44Z</time>
      </trkpt>
      <trkpt lat="46.00257000" lon="12.17319000">
        <ele>594.00000</ele>
        <time>2010-01-01T22:05:01Z</time>
      </trkpt>
      <trkpt lat="46.00309000" lon="12.17354000">
        <ele>633.00000</ele>
        <time>2010-01-01T22:05:24Z</time>
      </trkpt>
      <trkpt lat="46.00360000" lon="12.17354000">
        <ele>657.00000</ele>
        <time>2010-01-01T22:05:44Z</time>
      </trkpt>
      <trkpt lat="46.00390000" lon="12.17319000">
        <ele>660.00000</ele>
        <time>2010-01-01T22:06:00Z</time>
      </trkpt>
      <trkpt lat="46.00402000" lon="12.17285000">
        <ele>658.00000</ele>
        <time>2010-01-01T22:06:10Z</time>
      </trkpt>
      <trkpt lat="46.00444000" lon="12.17151000">
        <ele>657.00000</ele>
        <time>2010-01-01T22:06:51Z</time>
      </trkpt>
      <trkpt lat="46.00432000" lon="12.17103000">
        <ele>644.00000</ele>
        <time>2010-01-01T22:07:05Z</time>
      </trkpt>
      <trkpt lat="46.00413000" lon="12.17073000">
        <ele>633.00000</ele>
        <time>2010-01-01T22:07:17Z</time>
      </trkpt>
      <trkpt lat="46.00423000" lon="12.17068000">
        <ele>638.00000</ele>
        <time>2010-01-01T22:07:21Z</time>
      </trkpt>
      <trkpt lat="46.00456000" lon="12.17116000">
        <ele>664.00000</ele>
        <time>2010-01-01T22:07:40Z</time>
      </trkpt>
      <trkpt lat="46.00459000" lon="12.17190000">
        <ele>675.00000</ele>
        <time>2010-01-01T22:08:00Z</time>
      </trkpt>
      <trkpt lat="46.00459000" lon="12.17245000">
        <ele>685.00000</ele>
        <time>2010-01-01T22:08:16Z</time>
      </trkpt>
      <trkpt lat="46.00465000" lon="12.17237000">
        <ele>688.00000</ele>
        <time>2010-01-01T22:08:19Z</time>
      </trkpt>
      <trkpt lat="46.00480000" lon="12.17129000">
        <ele>684.00000</ele>
        <time>2010-01-01T22:08:50Z</time>
      </trkpt>
      <trkpt lat="46.00465000" lon="12.17077000">
        <ele>668.00000</ele>
        <time>2010-01-01T22:09:05Z</time>
      </trkpt>
      <trkpt lat="46.00459000" lon="12.17068000">
        <ele>664.00000</ele>
        <time>2010-01-01T22:09:09Z</time>
      </trkpt>
      <trkpt lat="46.00398000" lon="12.16991000">
        <ele>657.00000</ele>
        <time>2010-01-01T22:09:41Z</time>
      </trkpt>
      <trkpt lat="46.00320000" lon="12.16973000">
        <ele>709.00000</ele>
        <time>2010-01-01T22:10:13Z</time>
      </trkpt>
      <trkpt lat="46.00309000" lon="12.16951000">
        <ele>720.00000</ele>
        <time>2010-01-01T22:10:20Z</time>
      </trkpt>
      <trkpt lat="46.00315000" lon="12.16925000">
        <ele>725.00000</ele>
        <time>2010-01-01T22:10:28Z</time>
      </trkpt>
      <trkpt lat="46.00348000" lon="12.16930000">
        <ele>710.00000</ele>
        <time>2010-01-01T22:10:41Z</time>
      </trkpt>
      <trkpt lat="46.00387000" lon="12.16951000">
        <ele>683.00000</ele>
        <time>2010-01-01T22:10:58Z</time>
      </trkpt>
      <trkpt lat="46.00441000" lon="12.17012000">
        <ele>653.00000</ele>
        <time>2010-01-01T22:11:25Z</time>
      </trkpt>
      <trkpt lat="46.00417000" lon="12.16960000">
        <ele>663.00000</ele>
        <time>2010-01-01T22:11:43Z</time>
      </trkpt>
      <trkpt lat="46.00387000" lon="12.16939000">
        <ele>689.00000</ele>
        <time>2010-01-01T22:11:56Z</time>
      </trkpt>
      <trkpt lat="46.00393000" lon="12.16922000">
        <ele>694.00000</ele>
        <time>2010-01-01T22:12:01Z</time>
      </trkpt>
      <trkpt lat="46.00444000" lon="12.16943000">
        <ele>680.00000</ele>
        <time>2010-01-01T22:12:23Z</time>
      </trkpt>
      <trkpt lat="46.00444000" lon="12.16925000">
        <ele>687.00000</ele>
        <time>2010-01-01T22:12:28Z</time>
      </trkpt>
      <trkpt lat="46.00402000" lon="12.16908000">
        <ele>696.00000</ele>
        <time>2010-01-01T22:12:45Z</time>
      </trkpt>
      <trkpt lat="46.00398000" lon="12.16891000">
        <ele>702.00000</ele>
        <time>2010-01-01T22:12:50Z</time>
      </trkpt>
      <trkpt lat="46.00459000" lon="12.16925000">
        <ele>689.00000</ele>
        <time>2010-01-01T22:13:16Z</time>
      </trkpt>
      <trkpt lat="46.00462000" lon="12.16930000">
        <ele>688.00000</ele>
        <time>2010-01-01T22:13:18Z</time>
      </trkpt>
      <trkpt lat="46.00465000" lon="12.16973000">
        <ele>676.00000</ele>
        <time>2010-01-01T22:13:30Z</time>
      </trkpt>
      <trkpt lat="46.00489000" lon="12.16973000">
        <ele>686.00000</ele>
        <time>2010-01-01T22:13:40Z</time>
      </trkpt>
      <trkpt lat="46.00567000" lon="12.16969000">
        <ele>709.00000</ele>
        <time>2010-01-01T22:14:11Z</time>
      </trkpt>
      <trkpt lat="46.00599990" lon="12.16965000">
        <ele>712.00000</ele>
        <time>2010-01-01T22:14:24Z</time>
      </trkpt>
      <trkpt lat="46.00630000" lon="12.16956000">
        <ele>710.00000</ele>
        <time>2010-01-01T22:14:36Z</time>
      </trkpt>
      <trkpt lat="46.00681000" lon="12.16939000">
        <ele>706.00000</ele>
        <time>2010-01-01T22:14:57Z</time>
      </trkpt>
      <trkpt lat="46.00729000" lon="12.16922000">
        <ele>701.00000</ele>
        <time>2010-01-01T22:15:17Z</time>
      </trkpt>
      <trkpt lat="46.00776000" lon="12.16904000">
        <ele>696.00000</ele>
        <time>2010-01-01T22:15:37Z</time>
      </trkpt>
      <trkpt lat="46.00776000" lon="12.16907000">
        <ele>697.00000</ele>
        <time>2010-01-01T22:15:37Z</time>
      </trkpt>
      <trkpt lat="46.00776000" lon="12.16904000">
        <ele>696.00000</ele>
        <time>2010-01-01T22:15:38Z</time>
      </trkpt>
      <trkpt lat="46.00883000" lon="12.16869000">
        <ele>688.00000</ele>
        <time>2010-01-01T22:16:22Z</time>
      </trkpt>
      <trkpt lat="46.01096000" lon="12.16783000">
        <ele>678.00000</ele>
        <time>2010-01-01T22:17:51Z</time>
      </trkpt>
      <trkpt lat="46.01135000" lon="12.16761000">
        <ele>675.00000</ele>
        <time>2010-01-01T22:18:08Z</time>
      </trkpt>
      <trkpt lat="46.01180000" lon="12.16761000">
        <ele>676.00000</ele>
        <time>2010-01-01T22:18:26Z</time>
      </trkpt>
      <trkpt lat="46.01222000" lon="12.16761000">
        <ele>677.00000</ele>
        <time>2010-01-01T22:18:42Z</time>
      </trkpt>
      <trkpt lat="46.01240000" lon="12.16761000">
        <ele>678.00000</ele>
        <time>2010-01-01T22:18:50Z</time>
      </trkpt>
      <trkpt lat="46.01378000" lon="12.16718000">
        <ele>669.00000</ele>
        <time>2010-01-01T22:19:46Z</time>
      </trkpt>
      <trkpt lat="46.01447000" lon="12.16714000">
        <ele>668.00000</ele>
        <time>2010-01-01T22:20:14Z</time>
      </trkpt>
      <trkpt lat="46.01536990" lon="12.16714000">
        <ele>669.00000</ele>
        <time>2010-01-01T22:20:50Z</time>
      </trkpt>
      <trkpt lat="46.01715000" lon="12.16662000">
        <ele>674.00000</ele>
        <time>2010-01-01T22:22:02Z</time>
      </trkpt>
      <trkpt lat="46.01741000" lon="12.16636000">
        <ele>673.00000</ele>
        <time>2010-01-01T22:22:15Z</time>
      </trkpt>
      <trkpt lat="46.01771000" lon="12.16614000">
        <ele>673.00000</ele>
        <time>2010-01-01T22:22:29Z</time>
      </trkpt>
      <trkpt lat="46.01817000" lon="12.16601000">
        <ele>675.00000</ele>
        <time>2010-01-01T22:22:47Z</time>
      </trkpt>
      <trkpt lat="46.01841000" lon="12.16580000">
        <ele>670.00000</ele>
        <time>2010-01-01T22:22:59Z</time>
      </trkpt>
      <trkpt lat="46.01985000" lon="12.16428000">
        <ele>645.00000</ele>
        <time>2010-01-01T22:24:10Z</time>
      </trkpt>
      <trkpt lat="46.02000000" lon="12.16411000">
        <ele>642.00000</ele>
        <time>2010-01-01T22:24:18Z</time>
      </trkpt>
      <trkpt lat="46.02039000" lon="12.16368000">
        <ele>638.00000</ele>
        <time>2010-01-01T22:24:37Z</time>
      </trkpt>
      <trkpt lat="46.02233990" lon="12.16294000">
        <ele>625.00000</ele>
        <time>2010-01-01T22:25:58Z</time>
      </trkpt>
      <trkpt lat="46.02306000" lon="12.16272000">
        <ele>623.00000</ele>
        <time>2010-01-01T22:26:28Z</time>
      </trkpt>
      <trkpt lat="46.02414990" lon="12.16207000">
        <ele>610.00000</ele>
        <time>2010-01-01T22:27:15Z</time>
      </trkpt>
      <trkpt lat="46.02467990" lon="12.16203000">
        <ele>607.00000</ele>
        <time>2010-01-01T22:27:36Z</time>
      </trkpt>
      <trkpt lat="46.02531000" lon="12.16203000">
        <ele>602.00000</ele>
        <time>2010-01-01T22:28:01Z</time>
      </trkpt>
      <trkpt lat="46.02619000" lon="12.16264000">
        <ele>605.00000</ele>
        <time>2010-01-01T22:28:40Z</time>
      </trkpt>
      <trkpt lat="46.02672000" lon="12.16255000">
        <ele>596.00000</ele>
        <time>2010-01-01T22:29:02Z</time>
      </trkpt>
      <trkpt lat="46.02747000" lon="12.16264000">
        <ele>591.00000</ele>
        <time>2010-01-01T22:29:32Z</time>
      </trkpt>
      <trkpt lat="46.02826000" lon="12.16272000">
        <ele>583.00000</ele>
        <time>2010-01-01T22:30:04Z</time>
      </trkpt>
      <trkpt lat="46.02877000" lon="12.16289000">
        <ele>579.00000</ele>
        <time>2010-01-01T22:30:25Z</time>
      </trkpt>
      <trkpt lat="46.02906990" lon="12.16315000">
        <ele>578.00000</ele>
        <time>2010-01-01T22:30:39Z</time>
      </trkpt>
      <trkpt lat="46.02958000" lon="12.16333000">
        <ele>575.00000</ele>
        <time>2010-01-01T22:31:00Z</time>
      </trkpt>
      <trkpt lat="46.02988000" lon="12.16333000">
        <ele>572.00000</ele>
        <time>2010-01-01T22:31:12Z</time>
      </trkpt>
      <trkpt lat="46.03090000" lon="12.16346000">
        <ele>569.00000</ele>
        <time>2010-01-01T22:31:53Z</time>
      </trkpt>
      <trkpt lat="46.03159000" lon="12.16355000">
        <ele>567.00000</ele>
        <time>2010-01-01T22:32:20Z</time>
      </trkpt>
      <trkpt lat="46.03210000" lon="12.16346000">
        <ele>565.00000</ele>
        <time>2010-01-01T22:32:41Z</time>
      </trkpt>
      <trkpt lat="46.03240000" lon="12.16346000">
        <ele>564.00000</ele>
        <time>2010-01-01T22:32:53Z</time>
      </trkpt>
      <trkpt lat="46.03294000" lon="12.16320000">
        <ele>558.00000</ele>
        <time>2010-01-01T22:33:16Z</time>
      </trkpt>
      <trkpt lat="46.03336000" lon="12.16355000">
        <ele>559.00000</ele>
        <time>2010-01-01T22:33:35Z</time>
      </trkpt>
      <trkpt lat="46.03394000" lon="12.16294000">
        <ele>553.00000</ele>
        <time>2010-01-01T22:34:04Z</time>
      </trkpt>
      <trkpt lat="46.03429000" lon="12.16281000">
        <ele>552.00000</ele>
        <time>2010-01-01T22:34:18Z</time>
      </trkpt>
      <trkpt lat="46.03444000" lon="12.16246000">
        <ele>547.00000</ele>
        <time>2010-01-01T22:34:30Z</time>
      </trkpt>
      <trkpt lat="46.03459000" lon="12.16190000">
        <ele>538.00000</ele>
        <time>2010-01-01T22:34:46Z</time>
      </trkpt>
      <trkpt lat="46.03465000" lon="12.16190000">
        <ele>538.00000</ele>
        <time>2010-01-01T22:34:49Z</time>
      </trkpt>
      <trkpt lat="46.03510000" lon="12.16212000">
        <ele>539.00000</ele>
        <time>2010-01-01T22:35:08Z</time>
      </trkpt>
      <trkpt lat="46.03517000" lon="12.16212000">
        <ele>537.00000</ele>
        <time>2010-01-01T22:35:11Z</time>
      </trkpt>
      <trkpt lat="46.03531990" lon="12.16255000">
        <ele>539.00000</ele>
        <time>2010-01-01T22:35:24Z</time>
      </trkpt>
      <trkpt lat="46.03531990" lon="12.16320000">
        <ele>545.00000</ele>
        <time>2010-01-01T22:35:42Z</time>
      </trkpt>
      <trkpt lat="46.03592000" lon="12.16454000">
        <ele>537.00000</ele>
        <time>2010-01-01T22:36:26Z</time>
      </trkpt>
      <trkpt lat="46.03570000" lon="12.16566000">
        <ele>544.00000</ele>
        <time>2010-01-01T22:36:59Z</time>
      </trkpt>
      <trkpt lat="46.03570000" lon="12.16627000">
        <ele>538.00000</ele>
        <time>2010-01-01T22:37:16Z</time>
      </trkpt>
      <trkpt lat="46.03510000" lon="12.16735000">
        <ele>554.00000</ele>
        <time>2010-01-01T22:37:54Z</time>
      </trkpt>
      <trkpt lat="46.03517000" lon="12.16748000">
        <ele>550.00000</ele>
        <time>2010-01-01T22:37:59Z</time>
      </trkpt>
      <trkpt lat="46.03570000" lon="12.16679000">
        <ele>532.00000</ele>
        <time>2010-01-01T22:38:27Z</time>
      </trkpt>
      <trkpt lat="46.03607000" lon="12.16705000">
        <ele>522.00000</ele>
        <time>2010-01-01T22:38:44Z</time>
      </trkpt>
      <trkpt lat="46.03666000" lon="12.16761000">
        <ele>516.00000</ele>
        <time>2010-01-01T22:39:12Z</time>
      </trkpt>
      <trkpt lat="46.03685000" lon="12.16748000">
        <ele>516.00000</ele>
        <time>2010-01-01T22:39:21Z</time>
      </trkpt>
      <trkpt lat="46.03748000" lon="12.16645000">
        <ele>516.00000</ele>
        <time>2010-01-01T22:39:59Z</time>
      </trkpt>
      <trkpt lat="46.03811000" lon="12.16545000">
        <ele>530.00000</ele>
        <time>2010-01-01T22:40:36Z</time>
      </trkpt>
      <trkpt lat="46.03817000" lon="12.16415000">
        <ele>537.00000</ele>
        <time>2010-01-01T22:41:12Z</time>
      </trkpt>
      <trkpt lat="46.03789000" lon="12.16368000">
        <ele>533.00000</ele>
        <time>2010-01-01T22:41:30Z</time>
      </trkpt>
      <trkpt lat="46.03799000" lon="12.16355000">
        <ele>538.00000</ele>
        <time>2010-01-01T22:41:35Z</time>
      </trkpt>
      <trkpt lat="46.03835000" lon="12.16398000">
        <ele>545.00000</ele>
        <time>2010-01-01T22:41:54Z</time>
      </trkpt>
      <trkpt lat="46.03862000" lon="12.16449000">
        <ele>547.00000</ele>
        <time>2010-01-01T22:42:12Z</time>
      </trkpt>
      <trkpt lat="46.03867000" lon="12.16523000">
        <ele>544.00000</ele>
        <time>2010-01-01T22:42:32Z</time>
      </trkpt>
      <trkpt lat="46.03850000" lon="12.16606000">
        <ele>540.00000</ele>
        <time>2010-01-01T22:42:56Z</time>
      </trkpt>
      <trkpt lat="46.03862000" lon="12.16609000">
        <ele>543.00000</ele>
        <time>2010-01-01T22:43:01Z</time>
      </trkpt>
      <trkpt lat="46.03871000" lon="12.16558000">
        <ele>546.00000</ele>
        <time>2010-01-01T22:43:16Z</time>
      </trkpt>
      <trkpt lat="46.03901000" lon="12.16489000">
        <ele>553.00000</ele>
        <time>2010-01-01T22:43:38Z</time>
      </trkpt>
      <trkpt lat="46.03907000" lon="12.16454000">
        <ele>558.00000</ele>
        <time>2010-01-01T22:43:48Z</time>
      </trkpt>
      <trkpt lat="46.03844000" lon="12.16315000">
        <ele>556.00000</ele>
        <time>2010-01-01T22:44:35Z</time>
      </trkpt>
      <trkpt lat="46.03829000" lon="12.16281000">
        <ele>554.00000</ele>
        <time>2010-01-01T22:44:46Z</time>
      </trkpt>
      <trkpt lat="46.03852000" lon="12.16229000">
        <ele>559.00000</ele>
        <time>2010-01-01T22:45:03Z</time>
      </trkpt>
      <trkpt lat="46.03865000" lon="12.16220000">
        <ele>560.00000</ele>
        <time>2010-01-01T22:45:09Z</time>
      </trkpt>
      <trkpt lat="46.03880000" lon="12.16198000">
        <ele>561.00000</ele>
        <time>2010-01-01T22:45:17Z</time>
      </trkpt>
      <trkpt lat="46.03892000" lon="12.16186000">
        <ele>563.00000</ele>
        <time>2010-01-01T22:45:23Z</time>
      </trkpt>
      <trkpt lat="46.03901000" lon="12.16173000">
        <ele>564.00000</ele>
        <time>2010-01-01T22:45:28Z</time>
      </trkpt>
      <trkpt lat="46.03928000" lon="12.16143000">
        <ele>566.00000</ele>
        <time>2010-01-01T22:45:42Z</time>
      </trkpt>
      <trkpt lat="46.04078000" lon="12.15995000">
        <ele>564.00000</ele>
        <time>2010-01-01T22:46:55Z</time>
      </trkpt>
      <trkpt lat="46.04150000" lon="12.15952000">
        <ele>561.00000</ele>
        <time>2010-01-01T22:47:26Z</time>
      </trkpt>
      <trkpt lat="46.04216000" lon="12.15909000">
        <ele>560.00000</ele>
        <time>2010-01-01T22:47:55Z</time>
      </trkpt>
      <trkpt lat="46.04273000" lon="12.15892000">
        <ele>560.00000</ele>
        <time>2010-01-01T22:48:18Z</time>
      </trkpt>
      <trkpt lat="46.04345000" lon="12.15870000">
        <ele>560.00000</ele>
        <time>2010-01-01T22:48:48Z</time>
      </trkpt>
      <trkpt lat="46.04471000" lon="12.15805000">
        <ele>561.00000</ele>
        <time>2010-01-01T22:49:41Z</time>
      </trkpt>
      <trkpt lat="46.04525000" lon="12.15758000">
        <ele>559.00000</ele>
        <time>2010-01-01T22:50:06Z</time>
      </trkpt>
      <trkpt lat="46.04564000" lon="12.15701000">
        <ele>553.00000</ele>
        <time>2010-01-01T22:50:29Z</time>
      </trkpt>
      <trkpt lat="46.04582000" lon="12.15693000">
        <ele>553.00000</ele>
        <time>2010-01-01T22:50:36Z</time>
      </trkpt>
      <trkpt lat="46.04618000" lon="12.15710000">
        <ele>560.00000</ele>
        <time>2010-01-01T22:50:51Z</time>
      </trkpt>
      <trkpt lat="46.04633000" lon="12.15698000">
        <ele>560.00000</ele>
        <time>2010-01-01T22:50:58Z</time>
      </trkpt>
      <trkpt lat="46.04657000" lon="12.15645000">
        <ele>553.00000</ele>
        <time>2010-01-01T22:51:16Z</time>
      </trkpt>
      <trkpt lat="46.04700000" lon="12.15636000">
        <ele>556.00000</ele>
        <time>2010-01-01T22:51:33Z</time>
      </trkpt>
      <trkpt lat="46.04734990" lon="12.15559000">
        <ele>547.00000</ele>
        <time>2010-01-01T22:51:59Z</time>
      </trkpt>
      <trkpt lat="46.04796000" lon="12.15511000">
        <ele>546.00000</ele>
        <time>2010-01-01T22:52:27Z</time>
      </trkpt>
      <trkpt lat="46.04876000" lon="12.15412000">
        <ele>546.00000</ele>
        <time>2010-01-01T22:53:09Z</time>
      </trkpt>
      <trkpt lat="46.04897000" lon="12.15364000">
        <ele>546.00000</ele>
        <time>2010-01-01T22:53:25Z</time>
      </trkpt>
      <trkpt lat="46.04876000" lon="12.15217000">
        <ele>535.00000</ele>
        <time>2010-01-01T22:54:06Z</time>
      </trkpt>
      <trkpt lat="46.04897000" lon="12.15113000">
        <ele>531.00000</ele>
        <time>2010-01-01T22:54:36Z</time>
      </trkpt>
      <trkpt lat="46.04904000" lon="12.15087000">
        <ele>529.00000</ele>
        <time>2010-01-01T22:54:44Z</time>
      </trkpt>
      <trkpt lat="46.04922000" lon="12.15036000">
        <ele>525.00000</ele>
        <time>2010-01-01T22:55:00Z</time>
      </trkpt>
      <trkpt lat="46.05035000" lon="12.14897000">
        <ele>513.00000</ele>
        <time>2010-01-01T22:55:59Z</time>
      </trkpt>
      <trkpt lat="46.05060000" lon="12.14871000">
        <ele>510.00000</ele>
        <time>2010-01-01T22:56:12Z</time>
      </trkpt>
      <trkpt lat="46.05105000" lon="12.14880000">
        <ele>512.00000</ele>
        <time>2010-01-01T22:56:30Z</time>
      </trkpt>
      <trkpt lat="46.05120000" lon="12.14862000">
        <ele>510.00000</ele>
        <time>2010-01-01T22:56:38Z</time>
      </trkpt>
      <trkpt lat="46.05156000" lon="12.14737000">
        <ele>499.00000</ele>
        <time>2010-01-01T22:57:15Z</time>
      </trkpt>
      <trkpt lat="46.05174000" lon="12.14711000">
        <ele>497.00000</ele>
        <time>2010-01-01T22:57:26Z</time>
      </trkpt>
      <trkpt lat="46.05237000" lon="12.14672000">
        <ele>496.00000</ele>
        <time>2010-01-01T22:57:53Z</time>
      </trkpt>
      <trkpt lat="46.05312000" lon="12.14625000">
        <ele>495.00000</ele>
        <time>2010-01-01T22:58:26Z</time>
      </trkpt>
      <trkpt lat="46.05324000" lon="12.14608000">
        <ele>495.00000</ele>
        <time>2010-01-01T22:58:32Z</time>
      </trkpt>
      <trkpt lat="46.05354000" lon="12.14517000">
        <ele>488.00000</ele>
        <time>2010-01-01T22:59:00Z</time>
      </trkpt>
      <trkpt lat="46.05399000" lon="12.14494000">
        <ele>488.00000</ele>
        <time>2010-01-01T22:59:20Z</time>
      </trkpt>
      <trkpt lat="46.05405000" lon="12.14486000">
        <ele>487.00000</ele>
        <time>2010-01-01T22:59:23Z</time>
      </trkpt>
      <trkpt lat="46.05405000" lon="12.14426000">
        <ele>481.00000</ele>
        <time>2010-01-01T22:59:40Z</time>
      </trkpt>
      <trkpt lat="46.05420000" lon="12.14395000">
        <ele>479.00000</ele>
        <time>2010-01-01T22:59:50Z</time>
      </trkpt>
      <trkpt lat="46.05492000" lon="12.14317000">
        <ele>474.00000</ele>
        <time>2010-01-01T23:00:26Z</time>
      </trkpt>
      <trkpt lat="46.05639000" lon="12.14127000">
        <ele>452.00000</ele>
        <time>2010-01-01T23:01:45Z</time>
      </trkpt>
      <trkpt lat="46.05675000" lon="12.14101000">
        <ele>450.00000</ele>
        <time>2010-01-01T23:02:01Z</time>
      </trkpt>
      <trkpt lat="46.05699000" lon="12.14109000">
        <ele>449.00000</ele>
        <time>2010-01-01T23:02:11Z</time>
      </trkpt>
      <trkpt lat="46.05798000" lon="12.14188000">
        <ele>447.00000</ele>
        <time>2010-01-01T23:02:56Z</time>
      </trkpt>
      <trkpt lat="46.05857990" lon="12.14235000">
        <ele>446.00000</ele>
        <time>2010-01-01T23:03:24Z</time>
      </trkpt>
      <trkpt lat="46.05984000" lon="12.14352000">
        <ele>439.00000</ele>
        <time>2010-01-01T23:04:24Z</time>
      </trkpt>
      <trkpt lat="46.06056000" lon="12.14335000">
        <ele>430.00000</ele>
        <time>2010-01-01T23:04:53Z</time>
      </trkpt>
      <trkpt lat="46.06085990" lon="12.14331000">
        <ele>428.00000</ele>
        <time>2010-01-01T23:05:05Z</time>
      </trkpt>
      <trkpt lat="46.06185000" lon="12.14391000">
        <ele>422.00000</ele>
        <time>2010-01-01T23:05:48Z</time>
      </trkpt>
      <trkpt lat="46.06230000" lon="12.14421000">
        <ele>419.00000</ele>
        <time>2010-01-01T23:06:08Z</time>
      </trkpt>
      <trkpt lat="46.06242000" lon="12.14421000">
        <ele>418.00000</ele>
        <time>2010-01-01T23:06:13Z</time>
      </trkpt>
      <trkpt lat="46.06353000" lon="12.14261000">
        <ele>401.00000</ele>
        <time>2010-01-01T23:07:15Z</time>
      </trkpt>
      <trkpt lat="46.06389000" lon="12.14235000">
        <ele>397.00000</ele>
        <time>2010-01-01T23:07:32Z</time>
      </trkpt>
      <trkpt lat="46.06398000" lon="12.14257000">
        <ele>396.00000</ele>
        <time>2010-01-01T23:07:39Z</time>
      </trkpt>
      <trkpt lat="46.06416000" lon="12.14305000">
        <ele>396.00000</ele>
        <time>2010-01-01T23:07:54Z</time>
      </trkpt>
      <trkpt lat="46.06440000" lon="12.14287000">
        <ele>393.00000</ele>
        <time>2010-01-01T23:08:05Z</time>
      </trkpt>
      <trkpt lat="46.06470000" lon="12.14257000">
        <ele>389.00000</ele>
        <time>2010-01-01T23:08:19Z</time>
      </trkpt>
      <trkpt lat="46.06491000" lon="12.14252000">
        <ele>387.00000</ele>
        <time>2010-01-01T23:08:28Z</time>
      </trkpt>
      <trkpt lat="46.06554000" lon="12.14305000">
        <ele>383.00000</ele>
        <time>2010-01-01T23:08:57Z</time>
      </trkpt>
      <trkpt lat="46.06560990" lon="12.14309000">
        <ele>383.00000</ele>
        <time>2010-01-01T23:09:00Z</time>
      </trkpt>
      <trkpt lat="46.06611000" lon="12.14322000">
        <ele>380.00000</ele>
        <time>2010-01-01T23:09:20Z</time>
      </trkpt>
      <trkpt lat="46.06659000" lon="12.14296000">
        <ele>376.00000</ele>
        <time>2010-01-01T23:09:41Z</time>
      </trkpt>
      <trkpt lat="46.06688990" lon="12.14266000">
        <ele>374.00000</ele>
        <time>2010-01-01T23:09:56Z</time>
      </trkpt>
      <trkpt lat="46.06810000" lon="12.14162000">
        <ele>370.00000</ele>
        <time>2010-01-01T23:10:52Z</time>
      </trkpt>
      <trkpt lat="46.06926000" lon="12.14063000">
        <ele>370.00000</ele>
        <time>2010-01-01T23:11:46Z</time>
      </trkpt>
      <trkpt lat="46.06956000" lon="12.14028000">
        <ele>369.00000</ele>
        <time>2010-01-01T23:12:01Z</time>
      </trkpt>
      <trkpt lat="46.06962000" lon="12.13989000">
        <ele>369.00000</ele>
        <time>2010-01-01T23:12:12Z</time>
      </trkpt>
      <trkpt lat="46.06974000" lon="12.13903000">
        <ele>368.00000</ele>
        <time>2010-01-01T23:12:37Z</time>
      </trkpt>
      <trkpt lat="46.06984000" lon="12.13894000">
        <ele>368.00000</ele>
        <time>2010-01-01T23:12:42Z</time>
      </trkpt>
      <trkpt lat="46.07073000" lon="12.13846000">
        <ele>367.00000</ele>
        <time>2010-01-01T23:13:20Z</time>
      </trkpt>
      <trkpt lat="46.07140000" lon="12.13768000">
        <ele>367.00000</ele>
        <time>2010-01-01T23:13:54Z</time>
      </trkpt>
      <trkpt lat="46.07208000" lon="12.13716000">
        <ele>368.00000</ele>
        <time>2010-01-01T23:14:25Z</time>
      </trkpt>
      <trkpt lat="46.07244000" lon="12.13578000">
        <ele>366.00000</ele>
        <time>2010-01-01T23:15:06Z</time>
      </trkpt>
      <trkpt lat="46.07304000" lon="12.13370000">
        <ele>355.00000</ele>
        <time>2010-01-01T23:16:08Z</time>
      </trkpt>
      <trkpt lat="46.07314000" lon="12.13358000">
        <ele>354.00000</ele>
        <time>2010-01-01T23:16:14Z</time>
      </trkpt>
      <trkpt lat="46.07322000" lon="12.13344000">
        <ele>352.00000</ele>
        <time>2010-01-01T23:16:19Z</time>
      </trkpt>
      <trkpt lat="46.07350000" lon="12.13310000">
        <ele>350.00000</ele>
        <time>2010-01-01T23:16:33Z</time>
      </trkpt>
      <trkpt lat="46.07362000" lon="12.13292000">
        <ele>349.00000</ele>
        <time>2010-01-01T23:16:40Z</time>
      </trkpt>
      <trkpt lat="46.07366990" lon="12.13284000">
        <ele>349.00000</ele>
        <time>2010-01-01T23:16:43Z</time>
      </trkpt>
      <trkpt lat="46.07370000" lon="12.13279000">
        <ele>349.00000</ele>
        <time>2010-01-01T23:16:45Z</time>
      </trkpt>
      <trkpt lat="46.07385000" lon="12.13267000">
        <ele>349.00000</ele>
        <time>2010-01-01T23:16:52Z</time>
      </trkpt>
      <trkpt lat="46.07370000" lon="12.13232000">
        <ele>349.00000</ele>
        <time>2010-01-01T23:17:03Z</time>
      </trkpt>
      <trkpt lat="46.07350000" lon="12.13154000">
        <ele>349.00000</ele>
        <time>2010-01-01T23:17:26Z</time>
      </trkpt>
      <trkpt lat="46.07322000" lon="12.13037000">
        <ele>346.00000</ele>
        <time>2010-01-01T23:18:01Z</time>
      </trkpt>
      <trkpt lat="46.07307000" lon="12.12976000">
        <ele>345.00000</ele>
        <time>2010-01-01T23:18:19Z</time>
      </trkpt>
      <trkpt lat="46.07296000" lon="12.12933000">
        <ele>345.00000</ele>
        <time>2010-01-01T23:18:31Z</time>
      </trkpt>
      <trkpt lat="46.07284000" lon="12.12890000">
        <ele>345.00000</ele>
        <time>2010-01-01T23:18:44Z</time>
      </trkpt>
      <trkpt lat="46.07269000" lon="12.12842000">
        <ele>345.00000</ele>
        <time>2010-01-01T23:18:59Z</time>
      </trkpt>
      <trkpt lat="46.07266000" lon="12.12825000">
        <ele>346.00000</ele>
        <time>2010-01-01T23:19:04Z</time>
      </trkpt>
      <trkpt lat="46.07254000" lon="12.12773000">
        <ele>345.00000</ele>
        <time>2010-01-01T23:19:19Z</time>
      </trkpt>
      <trkpt lat="46.07229000" lon="12.12674000">
        <ele>344.00000</ele>
        <time>2010-01-01T23:19:48Z</time>
      </trkpt>
      <trkpt lat="46.07218000" lon="12.12622000">
        <ele>344.00000</ele>
        <time>2010-01-01T23:20:03Z</time>
      </trkpt>
      <trkpt lat="46.07211000" lon="12.12609000">
        <ele>344.00000</ele>
        <time>2010-01-01T23:20:08Z</time>
      </trkpt>
      <trkpt lat="46.07203000" lon="12.12570000">
        <ele>344.00000</ele>
        <time>2010-01-01T23:20:19Z</time>
      </trkpt>
      <trkpt lat="46.07191000" lon="12.12527000">
        <ele>343.00000</ele>
        <time>2010-01-01T23:20:32Z</time>
      </trkpt>
      <trkpt lat="46.07185000" lon="12.12509000">
        <ele>343.00000</ele>
        <time>2010-01-01T23:20:38Z</time>
      </trkpt>
      <trkpt lat="46.07193000" lon="12.12471000">
        <ele>341.00000</ele>
        <time>2010-01-01T23:20:49Z</time>
      </trkpt>
      <trkpt lat="46.07205990" lon="12.12449000">
        <ele>340.00000</ele>
        <time>2010-01-01T23:20:57Z</time>
      </trkpt>
      <trkpt lat="46.07205990" lon="12.12431000">
        <ele>339.00000</ele>
        <time>2010-01-01T23:21:02Z</time>
      </trkpt>
      <trkpt lat="46.07211000" lon="12.12393000">
        <ele>338.00000</ele>
        <time>2010-01-01T23:21:12Z</time>
      </trkpt>
      <trkpt lat="46.07271000" lon="12.12323000">
        <ele>334.00000</ele>
        <time>2010-01-01T23:21:43Z</time>
      </trkpt>
      <trkpt lat="46.07292000" lon="12.12323000">
        <ele>334.00000</ele>
        <time>2010-01-01T23:21:52Z</time>
      </trkpt>
      <trkpt lat="46.07314000" lon="12.12358000">
        <ele>334.00000</ele>
        <time>2010-01-01T23:22:05Z</time>
      </trkpt>
      <trkpt lat="46.07314000" lon="12.12366000">
        <ele>334.00000</ele>
        <time>2010-01-01T23:22:07Z</time>
      </trkpt>
      <trkpt lat="46.07311000" lon="12.12397000">
        <ele>334.00000</ele>
        <time>2010-01-01T23:22:16Z</time>
      </trkpt>
      <trkpt lat="46.07299000" lon="12.12410000">
        <ele>335.00000</ele>
        <time>2010-01-01T23:22:22Z</time>
      </trkpt>
      <trkpt lat="46.07258990" lon="12.12405000">
        <ele>336.00000</ele>
        <time>2010-01-01T23:22:38Z</time>
      </trkpt>
      <trkpt lat="46.07229000" lon="12.12371000">
        <ele>337.00000</ele>
        <time>2010-01-01T23:22:53Z</time>
      </trkpt>
      <trkpt lat="46.07115000" lon="12.12180000">
        <ele>339.00000</ele>
        <time>2010-01-01T23:24:03Z</time>
      </trkpt>
      <trkpt lat="46.07095000" lon="12.12129000">
        <ele>340.00000</ele>
        <time>2010-01-01T23:24:19Z</time>
      </trkpt>
      <trkpt lat="46.06994990" lon="12.11895000">
        <ele>343.00000</ele>
        <time>2010-01-01T23:25:36Z</time>
      </trkpt>
      <trkpt lat="46.06959000" lon="12.11792000">
        <ele>340.00000</ele>
        <time>2010-01-01T23:26:08Z</time>
      </trkpt>
      <trkpt lat="46.06944000" lon="12.11744000">
        <ele>337.00000</ele>
        <time>2010-01-01T23:26:22Z</time>
      </trkpt>
      <trkpt lat="46.06914000" lon="12.11614000">
        <ele>333.00000</ele>
        <time>2010-01-01T23:27:00Z</time>
      </trkpt>
      <trkpt lat="46.06884000" lon="12.11181000">
        <ele>342.00000</ele>
        <time>2010-01-01T23:29:01Z</time>
      </trkpt>
      <trkpt lat="46.06881000" lon="12.11151000">
        <ele>342.00000</ele>
        <time>2010-01-01T23:29:10Z</time>
      </trkpt>
      <trkpt lat="46.06866000" lon="12.10978000">
        <ele>336.00000</ele>
        <time>2010-01-01T23:29:58Z</time>
      </trkpt>
      <trkpt lat="46.06800000" lon="12.10693000">
        <ele>335.00000</ele>
        <time>2010-01-01T23:31:22Z</time>
      </trkpt>
      <trkpt lat="46.06758000" lon="12.10507000">
        <ele>333.00000</ele>
        <time>2010-01-01T23:32:16Z</time>
      </trkpt>
      <trkpt lat="46.06684000" lon="12.10213000">
        <ele>329.00000</ele>
        <time>2010-01-01T23:33:43Z</time>
      </trkpt>
      <trkpt lat="46.06680000" lon="12.10196000">
        <ele>328.00000</ele>
        <time>2010-01-01T23:33:48Z</time>
      </trkpt>
      <trkpt lat="46.06672000" lon="12.10157000">
        <ele>328.00000</ele>
        <time>2010-01-01T23:33:59Z</time>
      </trkpt>
      <trkpt lat="46.06624000" lon="12.09962000">
        <ele>326.00000</ele>
        <time>2010-01-01T23:34:57Z</time>
      </trkpt>
      <trkpt lat="46.06560990" lon="12.09651000">
        <ele>328.00000</ele>
        <time>2010-01-01T23:36:26Z</time>
      </trkpt>
      <trkpt lat="46.06548000" lon="12.09594000">
        <ele>329.00000</ele>
        <time>2010-01-01T23:36:43Z</time>
      </trkpt>
      <trkpt lat="46.06542000" lon="12.09568000">
        <ele>329.00000</ele>
        <time>2010-01-01T23:36:51Z</time>
      </trkpt>
      <trkpt lat="46.06498000" lon="12.09347000">
        <ele>324.00000</ele>
        <time>2010-01-01T23:37:55Z</time>
      </trkpt>
      <trkpt lat="46.06479000" lon="12.09266000">
        <ele>323.00000</ele>
        <time>2010-01-01T23:38:18Z</time>
      </trkpt>
      <trkpt lat="46.06455000" lon="12.09140000">
        <ele>322.00000</ele>
        <time>2010-01-01T23:38:55Z</time>
      </trkpt>
      <trkpt lat="46.06401000" lon="12.08872000">
        <ele>321.00000</ele>
        <time>2010-01-01T23:40:12Z</time>
      </trkpt>
      <trkpt lat="46.06372000" lon="12.08725000">
        <ele>323.00000</ele>
        <time>2010-01-01T23:40:55Z</time>
      </trkpt>
      <trkpt lat="46.06349990" lon="12.08686000">
        <ele>325.00000</ele>
        <time>2010-01-01T23:41:09Z</time>
      </trkpt>
      <trkpt lat="46.06290000" lon="12.08595000">
        <ele>327.00000</ele>
        <time>2010-01-01T23:41:43Z</time>
      </trkpt>
      <trkpt lat="46.06239000" lon="12.08539000">
        <ele>326.00000</ele>
        <time>2010-01-01T23:42:09Z</time>
      </trkpt>
      <trkpt lat="46.06216000" lon="12.08530000">
        <ele>324.00000</ele>
        <time>2010-01-01T23:42:19Z</time>
      </trkpt>
      <trkpt lat="46.06185000" lon="12.08513000">
        <ele>321.00000</ele>
        <time>2010-01-01T23:42:32Z</time>
      </trkpt>
      <trkpt lat="46.06173000" lon="12.08496000">
        <ele>321.00000</ele>
        <time>2010-01-01T23:42:39Z</time>
      </trkpt>
      <trkpt lat="46.06163990" lon="12.08482000">
        <ele>321.00000</ele>
        <time>2010-01-01T23:42:44Z</time>
      </trkpt>
      <trkpt lat="46.06080000" lon="12.08293000">
        <ele>319.00000</ele>
        <time>2010-01-01T23:43:46Z</time>
      </trkpt>
      <trkpt lat="46.06032000" lon="12.08128000">
        <ele>318.00000</ele>
        <time>2010-01-01T23:44:36Z</time>
      </trkpt>
      <trkpt lat="46.06002000" lon="12.08037000">
        <ele>313.00000</ele>
        <time>2010-01-01T23:45:04Z</time>
      </trkpt>
      <trkpt lat="46.05975000" lon="12.07946000">
        <ele>312.00000</ele>
        <time>2010-01-01T23:45:31Z</time>
      </trkpt>
      <trkpt lat="46.05945000" lon="12.07846000">
        <ele>309.00000</ele>
        <time>2010-01-01T23:46:02Z</time>
      </trkpt>
      <trkpt lat="46.05903000" lon="12.07704000">
        <ele>308.00000</ele>
        <time>2010-01-01T23:46:45Z</time>
      </trkpt>
      <trkpt lat="46.05882000" lon="12.07635000">
        <ele>309.00000</ele>
        <time>2010-01-01T23:47:06Z</time>
      </trkpt>
      <trkpt lat="46.05834000" lon="12.07518000">
        <ele>309.00000</ele>
        <time>2010-01-01T23:47:43Z</time>
      </trkpt>
      <trkpt lat="46.05798000" lon="12.07475000">
        <ele>308.00000</ele>
        <time>2010-01-01T23:48:02Z</time>
      </trkpt>
      <trkpt lat="46.05789000" lon="12.07466000">
        <ele>308.00000</ele>
        <time>2010-01-01T23:48:06Z</time>
      </trkpt>
      <trkpt lat="46.05738000" lon="12.07449000">
        <ele>308.00000</ele>
        <time>2010-01-01T23:48:27Z</time>
      </trkpt>
      <trkpt lat="46.05669000" lon="12.07444000">
        <ele>308.00000</ele>
        <time>2010-01-01T23:48:55Z</time>
      </trkpt>
      <trkpt lat="46.05585000" lon="12.07418000">
        <ele>307.00000</ele>
        <time>2010-01-01T23:49:29Z</time>
      </trkpt>
      <trkpt lat="46.05551990" lon="12.07397000">
        <ele>307.00000</ele>
        <time>2010-01-01T23:49:44Z</time>
      </trkpt>
      <trkpt lat="46.05504000" lon="12.07363000">
        <ele>306.00000</ele>
        <time>2010-01-01T23:50:05Z</time>
      </trkpt>
      <trkpt lat="46.05429000" lon="12.07301000">
        <ele>307.00000</ele>
        <time>2010-01-01T23:50:40Z</time>
      </trkpt>
      <trkpt lat="46.05120000" lon="12.06981000">
        <ele>312.00000</ele>
        <time>2010-01-01T23:53:12Z</time>
      </trkpt>
      <trkpt lat="46.05050000" lon="12.06908000">
        <ele>314.00000</ele>
        <time>2010-01-01T23:53:47Z</time>
      </trkpt>
      <trkpt lat="46.05035000" lon="12.06899000">
        <ele>314.00000</ele>
        <time>2010-01-01T23:53:53Z</time>
      </trkpt>
      <trkpt lat="46.05027000" lon="12.06895000">
        <ele>314.00000</ele>
        <time>2010-01-01T23:53:57Z</time>
      </trkpt>
      <trkpt lat="46.04901000" lon="12.06843000">
        <ele>314.00000</ele>
        <time>2010-01-01T23:54:49Z</time>
      </trkpt>
      <trkpt lat="46.04808000" lon="12.06735000">
        <ele>310.00000</ele>
        <time>2010-01-01T23:55:37Z</time>
      </trkpt>
      <trkpt lat="46.04801000" lon="12.06709000">
        <ele>311.00000</ele>
        <time>2010-01-01T23:55:45Z</time>
      </trkpt>
      <trkpt lat="46.04798000" lon="12.06337000">
        <ele>312.00000</ele>
        <time>2010-01-01T23:57:28Z</time>
      </trkpt>
      <trkpt lat="46.04798000" lon="12.06298000">
        <ele>312.00000</ele>
        <time>2010-01-01T23:57:39Z</time>
      </trkpt>
      <trkpt lat="46.04801000" lon="12.06078000">
        <ele>312.00000</ele>
        <time>2010-01-01T23:58:40Z</time>
      </trkpt>
      <trkpt lat="46.04804000" lon="12.05891000">
        <ele>310.00000</ele>
        <time>2010-01-01T23:59:32Z</time>
      </trkpt>
      <trkpt lat="46.04804000" lon="12.05810000">
        <ele>308.00000</ele>
        <time>2010-01-01T23:59:55Z</time>
      </trkpt>
      <trkpt lat="46.04808000" lon="12.05702000">
        <ele>307.00000</ele>
        <time>2010-01-02T00:00:25Z</time>
      </trkpt>
      <trkpt lat="46.04816000" lon="12.05550000">
        <ele>308.00000</ele>
        <time>2010-01-02T00:01:07Z</time>
      </trkpt>
      <trkpt lat="46.04844000" lon="12.05437000">
        <ele>310.00000</ele>
        <time>2010-01-02T00:01:40Z</time>
      </trkpt>
      <trkpt lat="46.04861000" lon="12.05381000">
        <ele>310.00000</ele>
        <time>2010-01-02T00:01:57Z</time>
      </trkpt>
      <trkpt lat="46.04864000" lon="12.05368000">
        <ele>310.00000</ele>
        <time>2010-01-02T00:02:01Z</time>
      </trkpt>
      <trkpt lat="46.04879000" lon="12.05286000">
        <ele>310.00000</ele>
        <time>2010-01-02T00:02:25Z</time>
      </trkpt>
      <trkpt lat="46.04886000" lon="12.05234000">
        <ele>308.00000</ele>
        <time>2010-01-02T00:02:39Z</time>
      </trkpt>
      <trkpt lat="46.04886000" lon="12.05200000">
        <ele>306.00000</ele>
        <time>2010-01-02T00:02:49Z</time>
      </trkpt>
      <trkpt lat="46.04892000" lon="12.05100000">
        <ele>302.00000</ele>
        <time>2010-01-02T00:03:17Z</time>
      </trkpt>
      <trkpt lat="46.04904000" lon="12.04953000">
        <ele>301.00000</ele>
        <time>2010-01-02T00:03:58Z</time>
      </trkpt>
      <trkpt lat="46.04912000" lon="12.04923000">
        <ele>300.00000</ele>
        <time>2010-01-02T00:04:07Z</time>
      </trkpt>
      <trkpt lat="46.04964000" lon="12.04641000">
        <ele>299.00000</ele>
        <time>2010-01-02T00:05:28Z</time>
      </trkpt>
      <trkpt lat="46.04949000" lon="12.04278000">
        <ele>289.00000</ele>
        <time>2010-01-02T00:07:09Z</time>
      </trkpt>
      <trkpt lat="46.04909000" lon="12.04101000">
        <ele>286.00000</ele>
        <time>2010-01-02T00:08:01Z</time>
      </trkpt>
      <trkpt lat="46.04867000" lon="12.03902000">
        <ele>284.00000</ele>
        <time>2010-01-02T00:08:58Z</time>
      </trkpt>
      <trkpt lat="46.04700000" lon="12.03504000">
        <ele>283.00000</ele>
        <time>2010-01-02T00:11:08Z</time>
      </trkpt>
      <trkpt lat="46.04675000" lon="12.03223000">
        <ele>279.00000</ele>
        <time>2010-01-02T00:12:26Z</time>
      </trkpt>
      <trkpt lat="46.04672000" lon="12.03188000">
        <ele>279.00000</ele>
        <time>2010-01-02T00:12:36Z</time>
      </trkpt>
      <trkpt lat="46.04662990" lon="12.03166000">
        <ele>279.00000</ele>
        <time>2010-01-02T00:12:43Z</time>
      </trkpt>
      <trkpt lat="46.04618000" lon="12.03128000">
        <ele>279.00000</ele>
        <time>2010-01-02T00:13:04Z</time>
      </trkpt>
      <trkpt lat="46.04537000" lon="12.03080000">
        <ele>273.00000</ele>
        <time>2010-01-02T00:13:39Z</time>
      </trkpt>
      <trkpt lat="46.04529000" lon="12.03071000">
        <ele>272.00000</ele>
        <time>2010-01-02T00:13:43Z</time>
      </trkpt>
      <trkpt lat="46.04501000" lon="12.03011000">
        <ele>268.00000</ele>
        <time>2010-01-02T00:14:03Z</time>
      </trkpt>
      <trkpt lat="46.04501000" lon="12.03003000">
        <ele>268.00000</ele>
        <time>2010-01-02T00:14:05Z</time>
      </trkpt>
      <trkpt lat="46.04504000" lon="12.02959000">
        <ele>267.00000</ele>
        <time>2010-01-02T00:14:18Z</time>
      </trkpt>
      <trkpt lat="46.04516000" lon="12.02851000">
        <ele>265.00000</ele>
        <time>2010-01-02T00:14:48Z</time>
      </trkpt>
      <trkpt lat="46.04522000" lon="12.02752000">
        <ele>264.00000</ele>
        <time>2010-01-02T00:15:16Z</time>
      </trkpt>
      <trkpt lat="46.04507000" lon="12.02695000">
        <ele>264.00000</ele>
        <time>2010-01-02T00:15:33Z</time>
      </trkpt>
      <trkpt lat="46.04507000" lon="12.02600000">
        <ele>264.00000</ele>
        <time>2010-01-02T00:15:59Z</time>
      </trkpt>
      <trkpt lat="46.04516000" lon="12.02509000">
        <ele>264.00000</ele>
        <time>2010-01-02T00:16:25Z</time>
      </trkpt>
      <trkpt lat="46.04534000" lon="12.02414000">
        <ele>264.00000</ele>
        <time>2010-01-02T00:16:52Z</time>
      </trkpt>
      <trkpt lat="46.04514000" lon="12.02306000">
        <ele>262.00000</ele>
        <time>2010-01-02T00:17:23Z</time>
      </trkpt>
      <trkpt lat="46.04498000" lon="12.02228000">
        <ele>262.00000</ele>
        <time>2010-01-02T00:17:46Z</time>
      </trkpt>
      <trkpt lat="46.04492000" lon="12.02181000">
        <ele>261.00000</ele>
        <time>2010-01-02T00:17:59Z</time>
      </trkpt>
      <trkpt lat="46.04476990" lon="12.02124000">
        <ele>261.00000</ele>
        <time>2010-01-02T00:18:16Z</time>
      </trkpt>
      <trkpt lat="46.04453000" lon="12.02007000">
        <ele>260.00000</ele>
        <time>2010-01-02T00:18:50Z</time>
      </trkpt>
      <trkpt lat="46.04447000" lon="12.01904000">
        <ele>258.00000</ele>
        <time>2010-01-02T00:19:18Z</time>
      </trkpt>
      <trkpt lat="46.04450000" lon="12.01774000">
        <ele>257.00000</ele>
        <time>2010-01-02T00:19:55Z</time>
      </trkpt>
      <trkpt lat="46.04450000" lon="12.01727000">
        <ele>256.00000</ele>
        <time>2010-01-02T00:20:08Z</time>
      </trkpt>
      <trkpt lat="46.04444000" lon="12.01644000">
        <ele>256.00000</ele>
        <time>2010-01-02T00:20:31Z</time>
      </trkpt>
      <trkpt lat="46.04423000" lon="12.01567000">
        <ele>255.00000</ele>
        <time>2010-01-02T00:20:54Z</time>
      </trkpt>
      <trkpt lat="46.04408000" lon="12.01510000">
        <ele>255.00000</ele>
        <time>2010-01-02T00:21:11Z</time>
      </trkpt>
      <trkpt lat="46.04362990" lon="12.01363000">
        <ele>253.00000</ele>
        <time>2010-01-02T00:21:55Z</time>
      </trkpt>
      <trkpt lat="46.04312000" lon="12.01190000">
        <ele>250.00000</ele>
        <time>2010-01-02T00:22:48Z</time>
      </trkpt>
      <trkpt lat="46.04282000" lon="12.01103000">
        <ele>249.00000</ele>
        <time>2010-01-02T00:23:15Z</time>
      </trkpt>
      <trkpt lat="46.04279000" lon="12.01086000">
        <ele>248.00000</ele>
        <time>2010-01-02T00:23:19Z</time>
      </trkpt>
      <trkpt lat="46.04273000" lon="12.01065000">
        <ele>248.00000</ele>
        <time>2010-01-02T00:23:26Z</time>
      </trkpt>
      <trkpt lat="46.04261000" lon="12.01022000">
        <ele>248.00000</ele>
        <time>2010-01-02T00:23:39Z</time>
      </trkpt>
      <trkpt lat="46.04192000" lon="12.00857000">
        <ele>248.00000</ele>
        <time>2010-01-02T00:24:32Z</time>
      </trkpt>
      <trkpt lat="46.04171000" lon="12.00805000">
        <ele>248.00000</ele>
        <time>2010-01-02T00:24:49Z</time>
      </trkpt>
      <trkpt lat="46.03973000" lon="12.00369000">
        <ele>243.00000</ele>
        <time>2010-01-02T00:27:14Z</time>
      </trkpt>
      <trkpt lat="46.03895000" lon="12.00234000">
        <ele>243.00000</ele>
        <time>2010-01-02T00:28:02Z</time>
      </trkpt>
      <trkpt lat="46.03877000" lon="12.00204000">
        <ele>243.00000</ele>
        <time>2010-01-02T00:28:13Z</time>
      </trkpt>
      <trkpt lat="46.03865000" lon="12.00182000">
        <ele>243.00000</ele>
        <time>2010-01-02T00:28:21Z</time>
      </trkpt>
      <trkpt lat="46.03837000" lon="12.00113000">
        <ele>243.00000</ele>
        <time>2010-01-02T00:28:43Z</time>
      </trkpt>
      <trkpt lat="46.03787000" lon="11.99940000">
        <ele>252.00000</ele>
        <time>2010-01-02T00:29:36Z</time>
      </trkpt>
      <trkpt lat="46.03778000" lon="11.99710000">
        <ele>250.00000</ele>
        <time>2010-01-02T00:30:40Z</time>
      </trkpt>
      <trkpt lat="46.03778000" lon="11.99707000">
        <ele>250.00000</ele>
        <time>2010-01-02T00:30:40Z</time>
      </trkpt>
      <trkpt lat="46.03778000" lon="11.99693000">
        <ele>250.00000</ele>
        <time>2010-01-02T00:30:44Z</time>
      </trkpt>
      <trkpt lat="46.03789000" lon="11.99404000">
        <ele>250.00000</ele>
        <time>2010-01-02T00:32:05Z</time>
      </trkpt>
      <trkpt lat="46.03817000" lon="11.99122000">
        <ele>250.00000</ele>
        <time>2010-01-02T00:33:24Z</time>
      </trkpt>
      <trkpt lat="46.03829000" lon="11.99023000">
        <ele>250.00000</ele>
        <time>2010-01-02T00:33:52Z</time>
      </trkpt>
      <trkpt lat="46.03819000" lon="11.98937000">
        <ele>250.00000</ele>
        <time>2010-01-02T00:34:16Z</time>
      </trkpt>
      <trkpt lat="46.03802000" lon="11.98802000">
        <ele>250.00000</ele>
        <time>2010-01-02T00:34:54Z</time>
      </trkpt>
      <trkpt lat="46.03802000" lon="11.98720000">
        <ele>250.00000</ele>
        <time>2010-01-02T00:35:17Z</time>
      </trkpt>
      <trkpt lat="46.03804000" lon="11.98612000">
        <ele>250.00000</ele>
        <time>2010-01-02T00:35:47Z</time>
      </trkpt>
      <trkpt lat="46.03804000" lon="11.98608000">
        <ele>250.00000</ele>
        <time>2010-01-02T00:35:48Z</time>
      </trkpt>
      <trkpt lat="46.03817000" lon="11.98543000">
        <ele>250.00000</ele>
        <time>2010-01-02T00:36:07Z</time>
      </trkpt>
      <trkpt lat="46.03837000" lon="11.98491000">
        <ele>250.00000</ele>
        <time>2010-01-02T00:36:23Z</time>
      </trkpt>
      <trkpt lat="46.03852000" lon="11.98452000">
        <ele>250.00000</ele>
        <time>2010-01-02T00:36:36Z</time>
      </trkpt>
      <trkpt lat="46.03877000" lon="11.98370000">
        <ele>250.00000</ele>
        <time>2010-01-02T00:37:01Z</time>
      </trkpt>
      <trkpt lat="46.03895000" lon="11.98335000">
        <ele>250.00000</ele>
        <time>2010-01-02T00:37:13Z</time>
      </trkpt>
      <trkpt lat="46.03904000" lon="11.98331000">
        <ele>250.00000</ele>
        <time>2010-01-02T00:37:17Z</time>
      </trkpt>
      <trkpt lat="46.03913000" lon="11.98297000">
        <ele>250.00000</ele>
        <time>2010-01-02T00:37:27Z</time>
      </trkpt>
      <trkpt lat="46.03907000" lon="11.98288000">
        <ele>250.00000</ele>
        <time>2010-01-02T00:37:30Z</time>
      </trkpt>
      <trkpt lat="46.03889000" lon="11.98279000">
        <ele>250.00000</ele>
        <time>2010-01-02T00:37:38Z</time>
      </trkpt>
      <trkpt lat="46.03859000" lon="11.98253000">
        <ele>250.00000</ele>
        <time>2010-01-02T00:37:52Z</time>
      </trkpt>
      <trkpt lat="46.03856000" lon="11.98240000">
        <ele>250.00000</ele>
        <time>2010-01-02T00:37:56Z</time>
      </trkpt>
      <trkpt lat="46.03850000" lon="11.98227000">
        <ele>250.00000</ele>
        <time>2010-01-02T00:38:00Z</time>
      </trkpt>
      <trkpt lat="46.03799000" lon="11.98119000">
        <ele>250.00000</ele>
        <time>2010-01-02T00:38:36Z</time>
      </trkpt>
      <trkpt lat="46.03766000" lon="11.98041000">
        <ele>251.00000</ele>
        <time>2010-01-02T00:39:02Z</time>
      </trkpt>
      <trkpt lat="46.03751000" lon="11.98011000">
        <ele>251.00000</ele>
        <time>2010-01-02T00:39:12Z</time>
      </trkpt>
      <trkpt lat="46.03744000" lon="11.97989000">
        <ele>251.00000</ele>
        <time>2010-01-02T00:39:19Z</time>
      </trkpt>
      <trkpt lat="46.03733000" lon="11.97967000">
        <ele>252.00000</ele>
        <time>2010-01-02T00:39:26Z</time>
      </trkpt>
      <trkpt lat="46.03711000" lon="11.97916000">
        <ele>253.00000</ele>
        <time>2010-01-02T00:39:43Z</time>
      </trkpt>
      <trkpt lat="46.03630000" lon="11.97708000">
        <ele>262.00000</ele>
        <time>2010-01-02T00:40:49Z</time>
      </trkpt>
      <trkpt lat="46.03550000" lon="11.97509000">
        <ele>268.00000</ele>
        <time>2010-01-02T00:41:53Z</time>
      </trkpt>
      <trkpt lat="46.03510000" lon="11.97414000">
        <ele>268.00000</ele>
        <time>2010-01-02T00:42:24Z</time>
      </trkpt>
      <trkpt lat="46.03459000" lon="11.97288000">
        <ele>269.00000</ele>
        <time>2010-01-02T00:43:04Z</time>
      </trkpt>
      <trkpt lat="46.03394000" lon="11.97116000">
        <ele>268.00000</ele>
        <time>2010-01-02T00:43:59Z</time>
      </trkpt>
      <trkpt lat="46.03384000" lon="11.97085000">
        <ele>268.00000</ele>
        <time>2010-01-02T00:44:08Z</time>
      </trkpt>
      <trkpt lat="46.03351000" lon="11.96990000">
        <ele>268.00000</ele>
        <time>2010-01-02T00:44:38Z</time>
      </trkpt>
      <trkpt lat="46.03348000" lon="11.96930000">
        <ele>269.00000</ele>
        <time>2010-01-02T00:44:55Z</time>
      </trkpt>
      <trkpt lat="46.03348000" lon="11.96913000">
        <ele>269.00000</ele>
        <time>2010-01-02T00:44:59Z</time>
      </trkpt>
      <trkpt lat="46.03348000" lon="11.96873000">
        <ele>270.00000</ele>
        <time>2010-01-02T00:45:10Z</time>
      </trkpt>
      <trkpt lat="46.03348000" lon="11.96843000">
        <ele>270.00000</ele>
        <time>2010-01-02T00:45:19Z</time>
      </trkpt>
      <trkpt lat="46.03351000" lon="11.96735000">
        <ele>272.00000</ele>
        <time>2010-01-02T00:45:49Z</time>
      </trkpt>
      <trkpt lat="46.03342000" lon="11.96631000">
        <ele>274.00000</ele>
        <time>2010-01-02T00:46:18Z</time>
      </trkpt>
      <trkpt lat="46.03288000" lon="11.96458000">
        <ele>276.00000</ele>
        <time>2010-01-02T00:47:11Z</time>
      </trkpt>
      <trkpt lat="46.03261000" lon="11.96411000">
        <ele>276.00000</ele>
        <time>2010-01-02T00:47:28Z</time>
      </trkpt>
      <trkpt lat="46.03198000" lon="11.96303000">
        <ele>283.00000</ele>
        <time>2010-01-02T00:48:07Z</time>
      </trkpt>
      <trkpt lat="46.03162000" lon="11.96207000">
        <ele>287.00000</ele>
        <time>2010-01-02T00:48:37Z</time>
      </trkpt>
      <trkpt lat="46.03156000" lon="11.96177000">
        <ele>287.00000</ele>
        <time>2010-01-02T00:48:46Z</time>
      </trkpt>
      <trkpt lat="46.03153000" lon="11.96143000">
        <ele>288.00000</ele>
        <time>2010-01-02T00:48:55Z</time>
      </trkpt>
      <trkpt lat="46.03144000" lon="11.96043000">
        <ele>290.00000</ele>
        <time>2010-01-02T00:49:23Z</time>
      </trkpt>
      <trkpt lat="46.03138000" lon="11.95995000">
        <ele>291.00000</ele>
        <time>2010-01-02T00:49:37Z</time>
      </trkpt>
      <trkpt lat="46.03120000" lon="11.95801000">
        <ele>294.00000</ele>
        <time>2010-01-02T00:50:31Z</time>
      </trkpt>
      <trkpt lat="46.03072000" lon="11.95312000">
        <ele>302.00000</ele>
        <time>2010-01-02T00:52:49Z</time>
      </trkpt>
      <trkpt lat="46.03063000" lon="11.95225000">
        <ele>303.00000</ele>
        <time>2010-01-02T00:53:13Z</time>
      </trkpt>
      <trkpt lat="46.03051000" lon="11.95156000">
        <ele>305.00000</ele>
        <time>2010-01-02T00:53:33Z</time>
      </trkpt>
      <trkpt lat="46.03039000" lon="11.95078000">
        <ele>306.00000</ele>
        <time>2010-01-02T00:53:55Z</time>
      </trkpt>
      <trkpt lat="46.03027000" lon="11.95009000">
        <ele>308.00000</ele>
        <time>2010-01-02T00:54:15Z</time>
      </trkpt>
      <trkpt lat="46.02997000" lon="11.94849000">
        <ele>312.00000</ele>
        <time>2010-01-02T00:55:01Z</time>
      </trkpt>
      <trkpt lat="46.02982000" lon="11.94767000">
        <ele>312.00000</ele>
        <time>2010-01-02T00:55:24Z</time>
      </trkpt>
      <trkpt lat="46.02973000" lon="11.94733000">
        <ele>312.00000</ele>
        <time>2010-01-02T00:55:34Z</time>
      </trkpt>
      <trkpt lat="46.02973000" lon="11.94728000">
        <ele>312.00000</ele>
        <time>2010-01-02T00:55:36Z</time>
      </trkpt>
      <trkpt lat="46.02961000" lon="11.94668000">
        <ele>311.00000</ele>
        <time>2010-01-02T00:55:53Z</time>
      </trkpt>
      <trkpt lat="46.02952000" lon="11.94616000">
        <ele>311.00000</ele>
        <time>2010-01-02T00:56:08Z</time>
      </trkpt>
      <trkpt lat="46.02913000" lon="11.94421000">
        <ele>309.00000</ele>
        <time>2010-01-02T00:57:04Z</time>
      </trkpt>
      <trkpt lat="46.02889000" lon="11.94348000">
        <ele>309.00000</ele>
        <time>2010-01-02T00:57:27Z</time>
      </trkpt>
      <trkpt lat="46.02853000" lon="11.94214000">
        <ele>308.00000</ele>
        <time>2010-01-02T00:58:07Z</time>
      </trkpt>
      <trkpt lat="46.02841000" lon="11.94179000">
        <ele>308.00000</ele>
        <time>2010-01-02T00:58:18Z</time>
      </trkpt>
      <trkpt lat="46.02795000" lon="11.94019000">
        <ele>309.00000</ele>
        <time>2010-01-02T00:59:06Z</time>
      </trkpt>
      <trkpt lat="46.02747000" lon="11.93832000">
        <ele>308.00000</ele>
        <time>2010-01-02T01:00:01Z</time>
      </trkpt>
      <trkpt lat="46.02745000" lon="11.93820000">
        <ele>308.00000</ele>
        <time>2010-01-02T01:00:05Z</time>
      </trkpt>
      <trkpt lat="46.02712000" lon="11.93655000">
        <ele>311.00000</ele>
        <time>2010-01-02T01:00:52Z</time>
      </trkpt>
      <trkpt lat="46.02712000" lon="11.93651000">
        <ele>311.00000</ele>
        <time>2010-01-02T01:00:54Z</time>
      </trkpt>
      <trkpt lat="46.02684000" lon="11.93504000">
        <ele>312.00000</ele>
        <time>2010-01-02T01:01:36Z</time>
      </trkpt>
      <trkpt lat="46.02649000" lon="11.93115000">
        <ele>306.00000</ele>
        <time>2010-01-02T01:03:25Z</time>
      </trkpt>
      <trkpt lat="46.02646000" lon="11.93084000">
        <ele>304.00000</ele>
        <time>2010-01-02T01:03:34Z</time>
      </trkpt>
      <trkpt lat="46.02642000" lon="11.93063000">
        <ele>304.00000</ele>
        <time>2010-01-02T01:03:40Z</time>
      </trkpt>
      <trkpt lat="46.02589000" lon="11.92847000">
        <ele>299.00000</ele>
        <time>2010-01-02T01:04:43Z</time>
      </trkpt>
      <trkpt lat="46.02558000" lon="11.92747000">
        <ele>298.00000</ele>
        <time>2010-01-02T01:05:14Z</time>
      </trkpt>
      <trkpt lat="46.02538000" lon="11.92682000">
        <ele>297.00000</ele>
        <time>2010-01-02T01:05:34Z</time>
      </trkpt>
      <trkpt lat="46.02489000" lon="11.92561000">
        <ele>295.00000</ele>
        <time>2010-01-02T01:06:12Z</time>
      </trkpt>
      <trkpt lat="46.02460000" lon="11.92505000">
        <ele>294.00000</ele>
        <time>2010-01-02T01:06:32Z</time>
      </trkpt>
      <trkpt lat="46.02425990" lon="11.92444000">
        <ele>293.00000</ele>
        <time>2010-01-02T01:06:54Z</time>
      </trkpt>
      <trkpt lat="46.02420000" lon="11.92431000">
        <ele>293.00000</ele>
        <time>2010-01-02T01:06:58Z</time>
      </trkpt>
      <trkpt lat="46.02393000" lon="11.92384000">
        <ele>293.00000</ele>
        <time>2010-01-02T01:07:15Z</time>
      </trkpt>
      <trkpt lat="46.02375000" lon="11.92349000">
        <ele>292.00000</ele>
        <time>2010-01-02T01:07:27Z</time>
      </trkpt>
      <trkpt lat="46.02330000" lon="11.92237000">
        <ele>291.00000</ele>
        <time>2010-01-02T01:08:03Z</time>
      </trkpt>
      <trkpt lat="46.02315000" lon="11.92150000">
        <ele>289.00000</ele>
        <time>2010-01-02T01:08:28Z</time>
      </trkpt>
      <trkpt lat="46.02315000" lon="11.92120000">
        <ele>288.00000</ele>
        <time>2010-01-02T01:08:36Z</time>
      </trkpt>
      <trkpt lat="46.02309000" lon="11.92102000">
        <ele>288.00000</ele>
        <time>2010-01-02T01:08:42Z</time>
      </trkpt>
      <trkpt lat="46.02300000" lon="11.92051000">
        <ele>287.00000</ele>
        <time>2010-01-02T01:08:56Z</time>
      </trkpt>
      <trkpt lat="46.02300000" lon="11.92016000">
        <ele>286.00000</ele>
        <time>2010-01-02T01:09:06Z</time>
      </trkpt>
      <trkpt lat="46.02300000" lon="11.92008000">
        <ele>286.00000</ele>
        <time>2010-01-02T01:09:08Z</time>
      </trkpt>
      <trkpt lat="46.02282000" lon="11.91670000">
        <ele>278.00000</ele>
        <time>2010-01-02T01:10:43Z</time>
      </trkpt>
      <trkpt lat="46.02282000" lon="11.91661000">
        <ele>277.00000</ele>
        <time>2010-01-02T01:10:45Z</time>
      </trkpt>
      <trkpt lat="46.02273000" lon="11.91454000">
        <ele>275.00000</ele>
        <time>2010-01-02T01:11:43Z</time>
      </trkpt>
      <trkpt lat="46.02270000" lon="11.91367000">
        <ele>275.00000</ele>
        <time>2010-01-02T01:12:07Z</time>
      </trkpt>
      <trkpt lat="46.02267000" lon="11.91337000">
        <ele>275.00000</ele>
        <time>2010-01-02T01:12:15Z</time>
      </trkpt>
      <trkpt lat="46.02264000" lon="11.91241000">
        <ele>275.00000</ele>
        <time>2010-01-02T01:12:42Z</time>
      </trkpt>
      <trkpt lat="46.02261000" lon="11.91181000">
        <ele>275.00000</ele>
        <time>2010-01-02T01:12:59Z</time>
      </trkpt>
      <trkpt lat="46.02261000" lon="11.91172000">
        <ele>275.00000</ele>
        <time>2010-01-02T01:13:01Z</time>
      </trkpt>
      <trkpt lat="46.02246000" lon="11.91047000">
        <ele>275.00000</ele>
        <time>2010-01-02T01:13:37Z</time>
      </trkpt>
      <trkpt lat="46.02239990" lon="11.91026000">
        <ele>275.00000</ele>
        <time>2010-01-02T01:13:43Z</time>
      </trkpt>
      <trkpt lat="46.02231000" lon="11.90982000">
        <ele>275.00000</ele>
        <time>2010-01-02T01:13:56Z</time>
      </trkpt>
      <trkpt lat="46.02216000" lon="11.90918000">
        <ele>275.00000</ele>
        <time>2010-01-02T01:14:14Z</time>
      </trkpt>
      <trkpt lat="46.02183000" lon="11.90758000">
        <ele>275.00000</ele>
        <time>2010-01-02T01:15:01Z</time>
      </trkpt>
      <trkpt lat="46.02165000" lon="11.90653000">
        <ele>275.00000</ele>
        <time>2010-01-02T01:15:31Z</time>
      </trkpt>
      <trkpt lat="46.02159000" lon="11.90576000">
        <ele>275.00000</ele>
        <time>2010-01-02T01:15:52Z</time>
      </trkpt>
      <trkpt lat="46.02153000" lon="11.90507000">
        <ele>276.00000</ele>
        <time>2010-01-02T01:16:12Z</time>
      </trkpt>
      <trkpt lat="46.02144000" lon="11.90333000">
        <ele>276.00000</ele>
        <time>2010-01-02T01:17:00Z</time>
      </trkpt>
      <trkpt lat="46.02132000" lon="11.90160000">
        <ele>277.00000</ele>
        <time>2010-01-02T01:17:49Z</time>
      </trkpt>
      <trkpt lat="46.02105000" lon="11.90082000">
        <ele>276.00000</ele>
        <time>2010-01-02T01:18:13Z</time>
      </trkpt>
      <trkpt lat="46.02078000" lon="11.89996000">
        <ele>276.00000</ele>
        <time>2010-01-02T01:18:39Z</time>
      </trkpt>
      <trkpt lat="46.02111000" lon="11.89962000">
        <ele>276.00000</ele>
        <time>2010-01-02T01:18:55Z</time>
      </trkpt>
      <trkpt lat="46.02156000" lon="11.89918000">
        <ele>277.00000</ele>
        <time>2010-01-02T01:19:17Z</time>
      </trkpt>
      <trkpt lat="46.02264000" lon="11.89819000">
        <ele>280.00000</ele>
        <time>2010-01-02T01:20:08Z</time>
      </trkpt>
      <trkpt lat="46.02275990" lon="11.89806000">
        <ele>280.00000</ele>
        <time>2010-01-02T01:20:14Z</time>
      </trkpt>
      <trkpt lat="46.02369000" lon="11.89719000">
        <ele>283.00000</ele>
        <time>2010-01-02T01:20:59Z</time>
      </trkpt>
      <trkpt lat="46.02389990" lon="11.89702000">
        <ele>283.00000</ele>
        <time>2010-01-02T01:21:08Z</time>
      </trkpt>
      <trkpt lat="46.02475000" lon="11.89646000">
        <ele>286.00000</ele>
        <time>2010-01-02T01:21:46Z</time>
      </trkpt>
      <trkpt lat="46.02486000" lon="11.89646000">
        <ele>287.00000</ele>
        <time>2010-01-02T01:21:50Z</time>
      </trkpt>
      <trkpt lat="46.02528000" lon="11.89611000">
        <ele>288.00000</ele>
        <time>2010-01-02T01:22:10Z</time>
      </trkpt>
      <trkpt lat="46.02541000" lon="11.89598000">
        <ele>288.00000</ele>
        <time>2010-01-02T01:22:16Z</time>
      </trkpt>
      <trkpt lat="46.02591000" lon="11.89551000">
        <ele>290.00000</ele>
        <time>2010-01-02T01:22:40Z</time>
      </trkpt>
      <trkpt lat="46.02621000" lon="11.89529000">
        <ele>291.00000</ele>
        <time>2010-01-02T01:22:53Z</time>
      </trkpt>
      <trkpt lat="46.02653990" lon="11.89503000">
        <ele>293.00000</ele>
        <time>2010-01-02T01:23:08Z</time>
      </trkpt>
      <trkpt lat="46.02672000" lon="11.89490000">
        <ele>293.00000</ele>
        <time>2010-01-02T01:23:16Z</time>
      </trkpt>
      <trkpt lat="46.02724000" lon="11.89455000">
        <ele>295.00000</ele>
        <time>2010-01-02T01:23:39Z</time>
      </trkpt>
      <trkpt lat="46.02747000" lon="11.89438000">
        <ele>296.00000</ele>
        <time>2010-01-02T01:23:50Z</time>
      </trkpt>
      <trkpt lat="46.02792990" lon="11.89408000">
        <ele>297.00000</ele>
        <time>2010-01-02T01:24:10Z</time>
      </trkpt>
      <trkpt lat="46.02832000" lon="11.89377000">
        <ele>298.00000</ele>
        <time>2010-01-02T01:24:28Z</time>
      </trkpt>
      <trkpt lat="46.02883000" lon="11.89338000">
        <ele>302.00000</ele>
        <time>2010-01-02T01:24:51Z</time>
      </trkpt>
      <trkpt lat="46.02922000" lon="11.89304000">
        <ele>306.00000</ele>
        <time>2010-01-02T01:25:09Z</time>
      </trkpt>
      <trkpt lat="46.02931000" lon="11.89295000">
        <ele>307.00000</ele>
        <time>2010-01-02T01:25:14Z</time>
      </trkpt>
      <trkpt lat="46.03003000" lon="11.89135000">
        <ele>313.00000</ele>
        <time>2010-01-02T01:26:07Z</time>
      </trkpt>
      <trkpt lat="46.03039000" lon="11.89053000">
        <ele>316.00000</ele>
        <time>2010-01-02T01:26:34Z</time>
      </trkpt>
      <trkpt lat="46.03069000" lon="11.89006000">
        <ele>317.00000</ele>
        <time>2010-01-02T01:26:51Z</time>
      </trkpt>
      <trkpt lat="46.03201000" lon="11.88815000">
        <ele>318.00000</ele>
        <time>2010-01-02T01:28:06Z</time>
      </trkpt>
      <trkpt lat="46.03219000" lon="11.88789000">
        <ele>318.00000</ele>
        <time>2010-01-02T01:28:16Z</time>
      </trkpt>
      <trkpt lat="46.03267000" lon="11.88720000">
        <ele>318.00000</ele>
        <time>2010-01-02T01:28:43Z</time>
      </trkpt>
      <trkpt lat="46.03465000" lon="11.88435000">
        <ele>325.00000</ele>
        <time>2010-01-02T01:30:36Z</time>
      </trkpt>
      <trkpt lat="46.03510000" lon="11.88382000">
        <ele>327.00000</ele>
        <time>2010-01-02T01:30:59Z</time>
      </trkpt>
      <trkpt lat="46.03552000" lon="11.88335000">
        <ele>330.00000</ele>
        <time>2010-01-02T01:31:20Z</time>
      </trkpt>
      <trkpt lat="46.03607000" lon="11.88292000">
        <ele>332.00000</ele>
        <time>2010-01-02T01:31:45Z</time>
      </trkpt>
      <trkpt lat="46.03645990" lon="11.88262000">
        <ele>333.00000</ele>
        <time>2010-01-02T01:32:03Z</time>
      </trkpt>
      <trkpt lat="46.03769000" lon="11.88179000">
        <ele>336.00000</ele>
        <time>2010-01-02T01:32:57Z</time>
      </trkpt>
      <trkpt lat="46.03867000" lon="11.88110000">
        <ele>339.00000</ele>
        <time>2010-01-02T01:33:41Z</time>
      </trkpt>
      <trkpt lat="46.03994000" lon="11.88024000">
        <ele>343.00000</ele>
        <time>2010-01-02T01:34:37Z</time>
      </trkpt>
      <trkpt lat="46.04006000" lon="11.88002000">
        <ele>344.00000</ele>
        <time>2010-01-02T01:34:45Z</time>
      </trkpt>
      <trkpt lat="46.04072000" lon="11.87954000">
        <ele>349.00000</ele>
        <time>2010-01-02T01:35:14Z</time>
      </trkpt>
      <trkpt lat="46.04081000" lon="11.87933000">
        <ele>349.00000</ele>
        <time>2010-01-02T01:35:21Z</time>
      </trkpt>
      <trkpt lat="46.04120000" lon="11.87902000">
        <ele>352.00000</ele>
        <time>2010-01-02T01:35:39Z</time>
      </trkpt>
      <trkpt lat="46.04165000" lon="11.87855000">
        <ele>357.00000</ele>
        <time>2010-01-02T01:36:01Z</time>
      </trkpt>
      <trkpt lat="46.04180000" lon="11.87837000">
        <ele>361.00000</ele>
        <time>2010-01-02T01:36:09Z</time>
      </trkpt>
      <trkpt lat="46.04273000" lon="11.87777000">
        <ele>373.00000</ele>
        <time>2010-01-02T01:36:50Z</time>
      </trkpt>
      <trkpt lat="46.04282000" lon="11.87742000">
        <ele>374.00000</ele>
        <time>2010-01-02T01:37:00Z</time>
      </trkpt>
      <trkpt lat="46.04273000" lon="11.87708000">
        <ele>374.00000</ele>
        <time>2010-01-02T01:37:10Z</time>
      </trkpt>
      <trkpt lat="46.04258000" lon="11.87660000">
        <ele>374.00000</ele>
        <time>2010-01-02T01:37:25Z</time>
      </trkpt>
      <trkpt lat="46.04248990" lon="11.87630000">
        <ele>376.00000</ele>
        <time>2010-01-02T01:37:34Z</time>
      </trkpt>
      <trkpt lat="46.04237000" lon="11.87622000">
        <ele>376.00000</ele>
        <time>2010-01-02T01:37:39Z</time>
      </trkpt>
      <trkpt lat="46.04189000" lon="11.87574000">
        <ele>379.00000</ele>
        <time>2010-01-02T01:38:03Z</time>
      </trkpt>
      <trkpt lat="46.04141000" lon="11.87522000">
        <ele>380.00000</ele>
        <time>2010-01-02T01:38:27Z</time>
      </trkpt>
      <trkpt lat="46.04134990" lon="11.87492000">
        <ele>382.00000</ele>
        <time>2010-01-02T01:38:36Z</time>
      </trkpt>
      <trkpt lat="46.04150000" lon="11.87435000">
        <ele>388.00000</ele>
        <time>2010-01-02T01:38:53Z</time>
      </trkpt>
      <trkpt lat="46.04168000" lon="11.87392000">
        <ele>393.00000</ele>
        <time>2010-01-02T01:39:06Z</time>
      </trkpt>
      <trkpt lat="46.04171000" lon="11.87383000">
        <ele>394.00000</ele>
        <time>2010-01-02T01:39:09Z</time>
      </trkpt>
      <trkpt lat="46.04237000" lon="11.87232000">
        <ele>417.00000</ele>
        <time>2010-01-02T01:39:59Z</time>
      </trkpt>
      <trkpt lat="46.04264000" lon="11.87194000">
        <ele>422.00000</ele>
        <time>2010-01-02T01:40:14Z</time>
      </trkpt>
      <trkpt lat="46.04273000" lon="11.87194000">
        <ele>424.00000</ele>
        <time>2010-01-02T01:40:18Z</time>
      </trkpt>
      <trkpt lat="46.04351000" lon="11.87189000">
        <ele>431.00000</ele>
        <time>2010-01-02T01:40:49Z</time>
      </trkpt>
      <trkpt lat="46.04372000" lon="11.87154000">
        <ele>435.00000</ele>
        <time>2010-01-02T01:41:02Z</time>
      </trkpt>
      <trkpt lat="46.04390000" lon="11.87111000">
        <ele>439.00000</ele>
        <time>2010-01-02T01:41:16Z</time>
      </trkpt>
      <trkpt lat="46.04429000" lon="11.87003000">
        <ele>449.00000</ele>
        <time>2010-01-02T01:41:49Z</time>
      </trkpt>
      <trkpt lat="46.04474000" lon="11.86969000">
        <ele>450.00000</ele>
        <time>2010-01-02T01:42:10Z</time>
      </trkpt>
      <trkpt lat="46.04567000" lon="11.86843000">
        <ele>465.00000</ele>
        <time>2010-01-02T01:43:01Z</time>
      </trkpt>
      <trkpt lat="46.04559000" lon="11.86830000">
        <ele>469.00000</ele>
        <time>2010-01-02T01:43:06Z</time>
      </trkpt>
      <trkpt lat="46.04522000" lon="11.86843000">
        <ele>471.00000</ele>
        <time>2010-01-02T01:43:21Z</time>
      </trkpt>
      <trkpt lat="46.04495000" lon="11.86826000">
        <ele>477.00000</ele>
        <time>2010-01-02T01:43:33Z</time>
      </trkpt>
      <trkpt lat="46.04492000" lon="11.86821000">
        <ele>478.00000</ele>
        <time>2010-01-02T01:43:35Z</time>
      </trkpt>
      <trkpt lat="46.04434990" lon="11.86787000">
        <ele>485.00000</ele>
        <time>2010-01-02T01:43:59Z</time>
      </trkpt>
      <trkpt lat="46.04326990" lon="11.86783000">
        <ele>485.00000</ele>
        <time>2010-01-02T01:44:43Z</time>
      </trkpt>
      <trkpt lat="46.04273000" lon="11.86718000">
        <ele>497.00000</ele>
        <time>2010-01-02T01:45:11Z</time>
      </trkpt>
      <trkpt lat="46.04219000" lon="11.86652000">
        <ele>514.00000</ele>
        <time>2010-01-02T01:45:39Z</time>
      </trkpt>
      <trkpt lat="46.04150000" lon="11.86618000">
        <ele>516.00000</ele>
        <time>2010-01-02T01:46:08Z</time>
      </trkpt>
      <trkpt lat="46.04084000" lon="11.86605000">
        <ele>522.00000</ele>
        <time>2010-01-02T01:46:35Z</time>
      </trkpt>
      <trkpt lat="46.04036000" lon="11.86618000">
        <ele>516.00000</ele>
        <time>2010-01-02T01:46:54Z</time>
      </trkpt>
      <trkpt lat="46.03997000" lon="11.86605000">
        <ele>520.00000</ele>
        <time>2010-01-02T01:47:10Z</time>
      </trkpt>
      <trkpt lat="46.03955000" lon="11.86584000">
        <ele>524.00000</ele>
        <time>2010-01-02T01:47:28Z</time>
      </trkpt>
      <trkpt lat="46.03940000" lon="11.86570000">
        <ele>527.00000</ele>
        <time>2010-01-02T01:47:35Z</time>
      </trkpt>
      <trkpt lat="46.03949000" lon="11.86561000">
        <ele>531.00000</ele>
        <time>2010-01-02T01:47:40Z</time>
      </trkpt>
      <trkpt lat="46.03997000" lon="11.86566000">
        <ele>533.00000</ele>
        <time>2010-01-02T01:47:59Z</time>
      </trkpt>
      <trkpt lat="46.04057000" lon="11.86570000">
        <ele>535.00000</ele>
        <time>2010-01-02T01:48:23Z</time>
      </trkpt>
      <trkpt lat="46.04120000" lon="11.86523000">
        <ele>556.00000</ele>
        <time>2010-01-02T01:48:52Z</time>
      </trkpt>
      <trkpt lat="46.04123000" lon="11.86518000">
        <ele>558.00000</ele>
        <time>2010-01-02T01:48:53Z</time>
      </trkpt>
      <trkpt lat="46.04174000" lon="11.86523000">
        <ele>554.00000</ele>
        <time>2010-01-02T01:49:14Z</time>
      </trkpt>
      <trkpt lat="46.04177000" lon="11.86523000">
        <ele>555.00000</ele>
        <time>2010-01-02T01:49:15Z</time>
      </trkpt>
      <trkpt lat="46.04267000" lon="11.86570000">
        <ele>553.00000</ele>
        <time>2010-01-02T01:49:53Z</time>
      </trkpt>
      <trkpt lat="46.04273000" lon="11.86570000">
        <ele>554.00000</ele>
        <time>2010-01-02T01:49:56Z</time>
      </trkpt>
      <trkpt lat="46.04378000" lon="11.86523000">
        <ele>566.00000</ele>
        <time>2010-01-02T01:50:40Z</time>
      </trkpt>
      <trkpt lat="46.04420000" lon="11.86484000">
        <ele>572.00000</ele>
        <time>2010-01-02T01:51:00Z</time>
      </trkpt>
      <trkpt lat="46.04681000" lon="11.86142000">
        <ele>599.00000</ele>
        <time>2010-01-02T01:53:21Z</time>
      </trkpt>
      <trkpt lat="46.04738000" lon="11.86030000">
        <ele>615.00000</ele>
        <time>2010-01-02T01:54:00Z</time>
      </trkpt>
      <trkpt lat="46.04812990" lon="11.85943000">
        <ele>617.00000</ele>
        <time>2010-01-02T01:54:38Z</time>
      </trkpt>
      <trkpt lat="46.04892000" lon="11.85762000">
        <ele>639.00000</ele>
        <time>2010-01-02T01:55:38Z</time>
      </trkpt>
      <trkpt lat="46.04997000" lon="11.85562000">
        <ele>652.00000</ele>
        <time>2010-01-02T01:56:47Z</time>
      </trkpt>
      <trkpt lat="46.04990000" lon="11.85554000">
        <ele>657.00000</ele>
        <time>2010-01-02T01:56:51Z</time>
      </trkpt>
      <trkpt lat="46.04859000" lon="11.85675000">
        <ele>671.00000</ele>
        <time>2010-01-02T01:57:53Z</time>
      </trkpt>
      <trkpt lat="46.04756000" lon="11.85792000">
        <ele>676.00000</ele>
        <time>2010-01-02T01:58:46Z</time>
      </trkpt>
      <trkpt lat="46.04740990" lon="11.85792000">
        <ele>682.00000</ele>
        <time>2010-01-02T01:58:52Z</time>
      </trkpt>
      <trkpt lat="46.04804000" lon="11.85675000">
        <ele>693.00000</ele>
        <time>2010-01-02T01:59:33Z</time>
      </trkpt>
      <trkpt lat="46.04867000" lon="11.85533000">
        <ele>708.00000</ele>
        <time>2010-01-02T02:00:20Z</time>
      </trkpt>
      <trkpt lat="46.04904000" lon="11.85425000">
        <ele>715.00000</ele>
        <time>2010-01-02T02:00:53Z</time>
      </trkpt>
      <trkpt lat="46.04915990" lon="11.85390000">
        <ele>714.00000</ele>
        <time>2010-01-02T02:01:04Z</time>
      </trkpt>
      <trkpt lat="46.04924000" lon="11.85312000">
        <ele>720.00000</ele>
        <time>2010-01-02T02:01:26Z</time>
      </trkpt>
      <trkpt lat="46.04959000" lon="11.85223000">
        <ele>719.00000</ele>
        <time>2010-01-02T02:01:54Z</time>
      </trkpt>
      <trkpt lat="46.04960000" lon="11.85223000">
        <ele>718.00000</ele>
        <time>2010-01-02T02:01:55Z</time>
      </trkpt>
      <trkpt lat="46.04959000" lon="11.85223000">
        <ele>719.00000</ele>
        <time>2010-01-02T02:01:55Z</time>
      </trkpt>
      <trkpt lat="46.04990000" lon="11.85143000">
        <ele>715.00000</ele>
        <time>2010-01-02T02:02:20Z</time>
      </trkpt>
      <trkpt lat="46.04990000" lon="11.85095000">
        <ele>718.00000</ele>
        <time>2010-01-02T02:02:34Z</time>
      </trkpt>
      <trkpt lat="46.04985000" lon="11.85048000">
        <ele>719.00000</ele>
        <time>2010-01-02T02:02:47Z</time>
      </trkpt>
      <trkpt lat="46.04955000" lon="11.84940000">
        <ele>744.00000</ele>
        <time>2010-01-02T02:03:19Z</time>
      </trkpt>
      <trkpt lat="46.04987000" lon="11.84914000">
        <ele>735.00000</ele>
        <time>2010-01-02T02:03:34Z</time>
      </trkpt>
      <trkpt lat="46.05015000" lon="11.84892000">
        <ele>730.00000</ele>
        <time>2010-01-02T02:03:47Z</time>
      </trkpt>
      <trkpt lat="46.05035000" lon="11.84823000">
        <ele>735.00000</ele>
        <time>2010-01-02T02:04:08Z</time>
      </trkpt>
      <trkpt lat="46.05048000" lon="11.84784000">
        <ele>735.00000</ele>
        <time>2010-01-02T02:04:20Z</time>
      </trkpt>
      <trkpt lat="46.05053000" lon="11.84507000">
        <ele>757.00000</ele>
        <time>2010-01-02T02:05:37Z</time>
      </trkpt>
      <trkpt lat="46.05082990" lon="11.84326000">
        <ele>776.00000</ele>
        <time>2010-01-02T02:06:28Z</time>
      </trkpt>
      <trkpt lat="46.05093000" lon="11.84265000">
        <ele>782.00000</ele>
        <time>2010-01-02T02:06:46Z</time>
      </trkpt>
      <trkpt lat="46.05101990" lon="11.84239000">
        <ele>784.00000</ele>
        <time>2010-01-02T02:06:54Z</time>
      </trkpt>
      <trkpt lat="46.05156000" lon="11.84170000">
        <ele>786.00000</ele>
        <time>2010-01-02T02:07:23Z</time>
      </trkpt>
      <trkpt lat="46.05204000" lon="11.84127000">
        <ele>789.00000</ele>
        <time>2010-01-02T02:07:45Z</time>
      </trkpt>
      <trkpt lat="46.05336000" lon="11.84010000">
        <ele>795.00000</ele>
        <time>2010-01-02T02:08:47Z</time>
      </trkpt>
      <trkpt lat="46.05396000" lon="11.83962000">
        <ele>800.00000</ele>
        <time>2010-01-02T02:09:15Z</time>
      </trkpt>
      <trkpt lat="46.05407990" lon="11.83945000">
        <ele>801.00000</ele>
        <time>2010-01-02T02:09:21Z</time>
      </trkpt>
      <trkpt lat="46.05405000" lon="11.83915000">
        <ele>806.00000</ele>
        <time>2010-01-02T02:09:30Z</time>
      </trkpt>
      <trkpt lat="46.05384000" lon="11.83898000">
        <ele>813.00000</ele>
        <time>2010-01-02T02:09:40Z</time>
      </trkpt>
      <trkpt lat="46.05351000" lon="11.83906000">
        <ele>815.00000</ele>
        <time>2010-01-02T02:09:53Z</time>
      </trkpt>
      <trkpt lat="46.05201000" lon="11.83941000">
        <ele>830.00000</ele>
        <time>2010-01-02T02:10:54Z</time>
      </trkpt>
      <trkpt lat="46.05189000" lon="11.83932000">
        <ele>835.00000</ele>
        <time>2010-01-02T02:10:59Z</time>
      </trkpt>
      <trkpt lat="46.05246000" lon="11.83902000">
        <ele>835.00000</ele>
        <time>2010-01-02T02:11:23Z</time>
      </trkpt>
      <trkpt lat="46.05363000" lon="11.83811000">
        <ele>841.00000</ele>
        <time>2010-01-02T02:12:17Z</time>
      </trkpt>
      <trkpt lat="46.05381000" lon="11.83759000">
        <ele>852.00000</ele>
        <time>2010-01-02T02:12:33Z</time>
      </trkpt>
      <trkpt lat="46.05477000" lon="11.83668000">
        <ele>865.00000</ele>
        <time>2010-01-02T02:13:19Z</time>
      </trkpt>
      <trkpt lat="46.05543000" lon="11.83668000">
        <ele>866.00000</ele>
        <time>2010-01-02T02:13:45Z</time>
      </trkpt>
      <trkpt lat="46.05696000" lon="11.83685000">
        <ele>869.00000</ele>
        <time>2010-01-02T02:14:47Z</time>
      </trkpt>
      <trkpt lat="46.05723000" lon="11.83659000">
        <ele>876.00000</ele>
        <time>2010-01-02T02:15:00Z</time>
      </trkpt>
      <trkpt lat="46.05743990" lon="11.83577000">
        <ele>890.00000</ele>
        <time>2010-01-02T02:15:24Z</time>
      </trkpt>
      <trkpt lat="46.05762000" lon="11.83577000">
        <ele>890.00000</ele>
        <time>2010-01-02T02:15:31Z</time>
      </trkpt>
      <trkpt lat="46.05798000" lon="11.83655000">
        <ele>882.00000</ele>
        <time>2010-01-02T02:15:57Z</time>
      </trkpt>
      <trkpt lat="46.05804000" lon="11.83673000">
        <ele>880.00000</ele>
        <time>2010-01-02T02:16:03Z</time>
      </trkpt>
      <trkpt lat="46.05828000" lon="11.83681000">
        <ele>881.00000</ele>
        <time>2010-01-02T02:16:13Z</time>
      </trkpt>
      <trkpt lat="46.05852000" lon="11.83668000">
        <ele>882.00000</ele>
        <time>2010-01-02T02:16:23Z</time>
      </trkpt>
      <trkpt lat="46.05921000" lon="11.83556000">
        <ele>895.00000</ele>
        <time>2010-01-02T02:17:04Z</time>
      </trkpt>
      <trkpt lat="46.05951000" lon="11.83465000">
        <ele>903.00000</ele>
        <time>2010-01-02T02:17:32Z</time>
      </trkpt>
      <trkpt lat="46.05939000" lon="11.83469000">
        <ele>906.00000</ele>
        <time>2010-01-02T02:17:37Z</time>
      </trkpt>
      <trkpt lat="46.05912000" lon="11.83504000">
        <ele>907.00000</ele>
        <time>2010-01-02T02:17:52Z</time>
      </trkpt>
      <trkpt lat="46.05879000" lon="11.83495000">
        <ele>911.00000</ele>
        <time>2010-01-02T02:18:05Z</time>
      </trkpt>
      <trkpt lat="46.05798000" lon="11.83417000">
        <ele>929.00000</ele>
        <time>2010-01-02T02:18:44Z</time>
      </trkpt>
      <trkpt lat="46.05774000" lon="11.83396000">
        <ele>935.00000</ele>
        <time>2010-01-02T02:18:56Z</time>
      </trkpt>
      <trkpt lat="46.05705000" lon="11.83379000">
        <ele>950.00000</ele>
        <time>2010-01-02T02:19:24Z</time>
      </trkpt>
      <trkpt lat="46.05669000" lon="11.83426000">
        <ele>945.00000</ele>
        <time>2010-01-02T02:19:43Z</time>
      </trkpt>
      <trkpt lat="46.05654000" lon="11.83448000">
        <ele>941.00000</ele>
        <time>2010-01-02T02:19:52Z</time>
      </trkpt>
      <trkpt lat="46.05651000" lon="11.83443000">
        <ele>943.00000</ele>
        <time>2010-01-02T02:19:53Z</time>
      </trkpt>
      <trkpt lat="46.05651000" lon="11.83413000">
        <ele>951.00000</ele>
        <time>2010-01-02T02:20:02Z</time>
      </trkpt>
      <trkpt lat="46.05687000" lon="11.83339000">
        <ele>965.00000</ele>
        <time>2010-01-02T02:20:27Z</time>
      </trkpt>
      <trkpt lat="46.05798000" lon="11.83326000">
        <ele>962.00000</ele>
        <time>2010-01-02T02:21:11Z</time>
      </trkpt>
      <trkpt lat="46.05873000" lon="11.83300000">
        <ele>960.00000</ele>
        <time>2010-01-02T02:21:42Z</time>
      </trkpt>
      <trkpt lat="46.05893990" lon="11.83262000">
        <ele>962.00000</ele>
        <time>2010-01-02T02:21:56Z</time>
      </trkpt>
      <trkpt lat="46.05897000" lon="11.83227000">
        <ele>968.00000</ele>
        <time>2010-01-02T02:22:06Z</time>
      </trkpt>
      <trkpt lat="46.05903000" lon="11.83114000">
        <ele>990.00000</ele>
        <time>2010-01-02T02:22:37Z</time>
      </trkpt>
      <trkpt lat="46.05930000" lon="11.83080000">
        <ele>994.00000</ele>
        <time>2010-01-02T02:22:51Z</time>
      </trkpt>
      <trkpt lat="46.05954000" lon="11.83076000">
        <ele>995.00000</ele>
        <time>2010-01-02T02:23:01Z</time>
      </trkpt>
      <trkpt lat="46.06011000" lon="11.83106000">
        <ele>984.00000</ele>
        <time>2010-01-02T02:23:25Z</time>
      </trkpt>
      <trkpt lat="46.06146000" lon="11.83071000">
        <ele>995.00000</ele>
        <time>2010-01-02T02:24:20Z</time>
      </trkpt>
      <trkpt lat="46.06218000" lon="11.83067000">
        <ele>1000.0000</ele>
        <time>2010-01-02T02:24:49Z</time>
      </trkpt>
      <trkpt lat="46.06209000" lon="11.83054000">
        <ele>1003.0000</ele>
        <time>2010-01-02T02:24:54Z</time>
      </trkpt>
      <trkpt lat="46.06173000" lon="11.83045000">
        <ele>1003.0000</ele>
        <time>2010-01-02T02:25:09Z</time>
      </trkpt>
      <trkpt lat="46.06134000" lon="11.83006000">
        <ele>1019.0000</ele>
        <time>2010-01-02T02:25:28Z</time>
      </trkpt>
      <trkpt lat="46.06149000" lon="11.83002000">
        <ele>1019.0000</ele>
        <time>2010-01-02T02:25:34Z</time>
      </trkpt>
      <trkpt lat="46.06191000" lon="11.83006000">
        <ele>1018.0000</ele>
        <time>2010-01-02T02:25:51Z</time>
      </trkpt>
      <trkpt lat="46.06206000" lon="11.82989000">
        <ele>1021.0000</ele>
        <time>2010-01-02T02:25:59Z</time>
      </trkpt>
      <trkpt lat="46.06188000" lon="11.82976000">
        <ele>1020.0000</ele>
        <time>2010-01-02T02:26:07Z</time>
      </trkpt>
      <trkpt lat="46.06125000" lon="11.82937000">
        <ele>1025.0000</ele>
        <time>2010-01-02T02:26:34Z</time>
      </trkpt>
      <trkpt lat="46.06080000" lon="11.82972000">
        <ele>1028.0000</ele>
        <time>2010-01-02T02:26:54Z</time>
      </trkpt>
      <trkpt lat="46.06035000" lon="11.82954000">
        <ele>1033.0000</ele>
        <time>2010-01-02T02:27:13Z</time>
      </trkpt>
      <trkpt lat="46.05999000" lon="11.82963000">
        <ele>1034.0000</ele>
        <time>2010-01-02T02:27:28Z</time>
      </trkpt>
      <trkpt lat="46.05990000" lon="11.82959000">
        <ele>1035.0000</ele>
        <time>2010-01-02T02:27:32Z</time>
      </trkpt>
      <trkpt lat="46.06023000" lon="11.82933000">
        <ele>1039.0000</ele>
        <time>2010-01-02T02:27:47Z</time>
      </trkpt>
      <trkpt lat="46.06056000" lon="11.82933000">
        <ele>1035.0000</ele>
        <time>2010-01-02T02:28:00Z</time>
      </trkpt>
      <trkpt lat="46.06059000" lon="11.82915000">
        <ele>1038.0000</ele>
        <time>2010-01-02T02:28:05Z</time>
      </trkpt>
      <trkpt lat="46.05990000" lon="11.82911000">
        <ele>1047.0000</ele>
        <time>2010-01-02T02:28:33Z</time>
      </trkpt>
      <trkpt lat="46.05930000" lon="11.82868000">
        <ele>1048.0000</ele>
        <time>2010-01-02T02:28:59Z</time>
      </trkpt>
      <trkpt lat="46.05893990" lon="11.82877000">
        <ele>1051.0000</ele>
        <time>2010-01-02T02:29:14Z</time>
      </trkpt>
      <trkpt lat="46.05852000" lon="11.82889000">
        <ele>1057.0000</ele>
        <time>2010-01-02T02:29:31Z</time>
      </trkpt>
      <trkpt lat="46.05840000" lon="11.82885000">
        <ele>1058.0000</ele>
        <time>2010-01-02T02:29:36Z</time>
      </trkpt>
      <trkpt lat="46.05849000" lon="11.82872000">
        <ele>1058.0000</ele>
        <time>2010-01-02T02:29:41Z</time>
      </trkpt>
      <trkpt lat="46.05867000" lon="11.82820000">
        <ele>1056.0000</ele>
        <time>2010-01-02T02:29:57Z</time>
      </trkpt>
      <trkpt lat="46.05861000" lon="11.82808000">
        <ele>1055.0000</ele>
        <time>2010-01-02T02:30:01Z</time>
      </trkpt>
      <trkpt lat="46.05798000" lon="11.82859000">
        <ele>1066.0000</ele>
        <time>2010-01-02T02:30:30Z</time>
      </trkpt>
      <trkpt lat="46.05741000" lon="11.82881000">
        <ele>1074.0000</ele>
        <time>2010-01-02T02:30:54Z</time>
      </trkpt>
      <trkpt lat="46.05489000" lon="11.82808000">
        <ele>1108.0000</ele>
        <time>2010-01-02T02:32:37Z</time>
      </trkpt>
      <trkpt lat="46.05462000" lon="11.82729000">
        <ele>1109.0000</ele>
        <time>2010-01-02T02:33:01Z</time>
      </trkpt>
      <trkpt lat="46.05456000" lon="11.82712000">
        <ele>1109.0000</ele>
        <time>2010-01-02T02:33:07Z</time>
      </trkpt>
      <trkpt lat="46.05438000" lon="11.82677000">
        <ele>1109.0000</ele>
        <time>2010-01-02T02:33:19Z</time>
      </trkpt>
      <trkpt lat="46.05381000" lon="11.82586000">
        <ele>1114.0000</ele>
        <time>2010-01-02T02:33:53Z</time>
      </trkpt>
      <trkpt lat="46.05387000" lon="11.82513000">
        <ele>1103.0000</ele>
        <time>2010-01-02T02:34:13Z</time>
      </trkpt>
      <trkpt lat="46.05411000" lon="11.82470000">
        <ele>1090.0000</ele>
        <time>2010-01-02T02:34:29Z</time>
      </trkpt>
      <trkpt lat="46.05396000" lon="11.82409000">
        <ele>1091.0000</ele>
        <time>2010-01-02T02:34:47Z</time>
      </trkpt>
      <trkpt lat="46.05390000" lon="11.82375000">
        <ele>1088.0000</ele>
        <time>2010-01-02T02:34:56Z</time>
      </trkpt>
      <trkpt lat="46.05390000" lon="11.82254000">
        <ele>1066.0000</ele>
        <time>2010-01-02T02:35:30Z</time>
      </trkpt>
      <trkpt lat="46.05306000" lon="11.82227000">
        <ele>1065.0000</ele>
        <time>2010-01-02T02:36:04Z</time>
      </trkpt>
      <trkpt lat="46.05243000" lon="11.82249000">
        <ele>1072.0000</ele>
        <time>2010-01-02T02:36:30Z</time>
      </trkpt>
      <trkpt lat="46.05234000" lon="11.82201000">
        <ele>1070.0000</ele>
        <time>2010-01-02T02:36:44Z</time>
      </trkpt>
      <trkpt lat="46.05251990" lon="11.82129000">
        <ele>1055.0000</ele>
        <time>2010-01-02T02:37:05Z</time>
      </trkpt>
      <trkpt lat="46.05257990" lon="11.82102000">
        <ele>1051.0000</ele>
        <time>2010-01-02T02:37:13Z</time>
      </trkpt>
      <trkpt lat="46.05243000" lon="11.82041000">
        <ele>1040.0000</ele>
        <time>2010-01-02T02:37:31Z</time>
      </trkpt>
      <trkpt lat="46.05195000" lon="11.82038000">
        <ele>1042.0000</ele>
        <time>2010-01-02T02:37:51Z</time>
      </trkpt>
      <trkpt lat="46.05131000" lon="11.82029000">
        <ele>1041.0000</ele>
        <time>2010-01-02T02:38:16Z</time>
      </trkpt>
      <trkpt lat="46.05101990" lon="11.82033000">
        <ele>1044.0000</ele>
        <time>2010-01-02T02:38:28Z</time>
      </trkpt>
      <trkpt lat="46.05075000" lon="11.82012000">
        <ele>1035.0000</ele>
        <time>2010-01-02T02:38:40Z</time>
      </trkpt>
      <trkpt lat="46.05035000" lon="11.82007000">
        <ele>1037.0000</ele>
        <time>2010-01-02T02:38:56Z</time>
      </trkpt>
      <trkpt lat="46.05009000" lon="11.82007000">
        <ele>1039.0000</ele>
        <time>2010-01-02T02:39:07Z</time>
      </trkpt>
      <trkpt lat="46.04945000" lon="11.81995000">
        <ele>1047.0000</ele>
        <time>2010-01-02T02:39:33Z</time>
      </trkpt>
      <trkpt lat="46.04942000" lon="11.81964000">
        <ele>1050.0000</ele>
        <time>2010-01-02T02:39:41Z</time>
      </trkpt>
      <trkpt lat="46.05000000" lon="11.81882000">
        <ele>1035.0000</ele>
        <time>2010-01-02T02:40:14Z</time>
      </trkpt>
      <trkpt lat="46.05035000" lon="11.81860000">
        <ele>1025.0000</ele>
        <time>2010-01-02T02:40:29Z</time>
      </trkpt>
      <trkpt lat="46.05038000" lon="11.81860000">
        <ele>1024.0000</ele>
        <time>2010-01-02T02:40:30Z</time>
      </trkpt>
      <trkpt lat="46.05087000" lon="11.81821000">
        <ele>1010.0000</ele>
        <time>2010-01-02T02:40:53Z</time>
      </trkpt>
      <trkpt lat="46.05090000" lon="11.81700000">
        <ele>1010.0000</ele>
        <time>2010-01-02T02:41:26Z</time>
      </trkpt>
      <trkpt lat="46.05078000" lon="11.81674000">
        <ele>1012.0000</ele>
        <time>2010-01-02T02:41:35Z</time>
      </trkpt>
      <trkpt lat="46.05063000" lon="11.81622000">
        <ele>1006.0000</ele>
        <time>2010-01-02T02:41:51Z</time>
      </trkpt>
      <trkpt lat="46.05035000" lon="11.81587000">
        <ele>1007.0000</ele>
        <time>2010-01-02T02:42:05Z</time>
      </trkpt>
      <trkpt lat="46.05020000" lon="11.81570000">
        <ele>1008.0000</ele>
        <time>2010-01-02T02:42:13Z</time>
      </trkpt>
      <trkpt lat="46.04861000" lon="11.81250000">
        <ele>985.00000</ele>
        <time>2010-01-02T02:44:02Z</time>
      </trkpt>
      <trkpt lat="46.04816000" lon="11.81099000">
        <ele>978.00000</ele>
        <time>2010-01-02T02:44:48Z</time>
      </trkpt>
      <trkpt lat="46.04826000" lon="11.81030000">
        <ele>967.00000</ele>
        <time>2010-01-02T02:45:08Z</time>
      </trkpt>
      <trkpt lat="46.04831000" lon="11.80977000">
        <ele>965.00000</ele>
        <time>2010-01-02T02:45:22Z</time>
      </trkpt>
      <trkpt lat="46.04882000" lon="11.80891000">
        <ele>948.00000</ele>
        <time>2010-01-02T02:45:54Z</time>
      </trkpt>
      <trkpt lat="46.04909000" lon="11.80848000">
        <ele>939.00000</ele>
        <time>2010-01-02T02:46:10Z</time>
      </trkpt>
      <trkpt lat="46.04897000" lon="11.80753000">
        <ele>938.00000</ele>
        <time>2010-01-02T02:46:37Z</time>
      </trkpt>
      <trkpt lat="46.04876000" lon="11.80701000">
        <ele>933.00000</ele>
        <time>2010-01-02T02:46:54Z</time>
      </trkpt>
      <trkpt lat="46.04804000" lon="11.80654000">
        <ele>943.00000</ele>
        <time>2010-01-02T02:47:25Z</time>
      </trkpt>
      <trkpt lat="46.04793000" lon="11.80623000">
        <ele>940.00000</ele>
        <time>2010-01-02T02:47:35Z</time>
      </trkpt>
      <trkpt lat="46.04846000" lon="11.80429000">
        <ele>907.00000</ele>
        <time>2010-01-02T02:48:33Z</time>
      </trkpt>
      <trkpt lat="46.04831000" lon="11.80346000">
        <ele>914.00000</ele>
        <time>2010-01-02T02:48:57Z</time>
      </trkpt>
      <trkpt lat="46.04834000" lon="11.80225000">
        <ele>902.00000</ele>
        <time>2010-01-02T02:49:30Z</time>
      </trkpt>
      <trkpt lat="46.04804000" lon="11.80126000">
        <ele>896.00000</ele>
        <time>2010-01-02T02:50:00Z</time>
      </trkpt>
      <trkpt lat="46.04778000" lon="11.80043000">
        <ele>888.00000</ele>
        <time>2010-01-02T02:50:26Z</time>
      </trkpt>
      <trkpt lat="46.04786000" lon="11.79970000">
        <ele>868.00000</ele>
        <time>2010-01-02T02:50:46Z</time>
      </trkpt>
      <trkpt lat="46.04781000" lon="11.79944000">
        <ele>865.00000</ele>
        <time>2010-01-02T02:50:54Z</time>
      </trkpt>
      <trkpt lat="46.04763000" lon="11.79931000">
        <ele>871.00000</ele>
        <time>2010-01-02T02:51:02Z</time>
      </trkpt>
      <trkpt lat="46.04675000" lon="11.79870000">
        <ele>872.00000</ele>
        <time>2010-01-02T02:51:41Z</time>
      </trkpt>
      <trkpt lat="46.04660000" lon="11.79849000">
        <ele>872.00000</ele>
        <time>2010-01-02T02:51:49Z</time>
      </trkpt>
      <trkpt lat="46.04690000" lon="11.79793000">
        <ele>858.00000</ele>
        <time>2010-01-02T02:52:09Z</time>
      </trkpt>
      <trkpt lat="46.04693000" lon="11.79693000">
        <ele>860.00000</ele>
        <time>2010-01-02T02:52:37Z</time>
      </trkpt>
      <trkpt lat="46.04733000" lon="11.79637000">
        <ele>839.00000</ele>
        <time>2010-01-02T02:52:59Z</time>
      </trkpt>
      <trkpt lat="46.04733000" lon="11.79611000">
        <ele>839.00000</ele>
        <time>2010-01-02T02:53:06Z</time>
      </trkpt>
      <trkpt lat="46.04675000" lon="11.79447000">
        <ele>842.00000</ele>
        <time>2010-01-02T02:53:57Z</time>
      </trkpt>
      <trkpt lat="46.04681000" lon="11.79356000">
        <ele>830.00000</ele>
        <time>2010-01-02T02:54:23Z</time>
      </trkpt>
      <trkpt lat="46.04700000" lon="11.79330000">
        <ele>825.00000</ele>
        <time>2010-01-02T02:54:33Z</time>
      </trkpt>
      <trkpt lat="46.04693000" lon="11.79273000">
        <ele>823.00000</ele>
        <time>2010-01-02T02:54:49Z</time>
      </trkpt>
      <trkpt lat="46.04685000" lon="11.79278000">
        <ele>824.00000</ele>
        <time>2010-01-02T02:54:53Z</time>
      </trkpt>
      <trkpt lat="46.04670000" lon="11.79287000">
        <ele>826.00000</ele>
        <time>2010-01-02T02:54:59Z</time>
      </trkpt>
      <trkpt lat="46.04584990" lon="11.79313000">
        <ele>823.00000</ele>
        <time>2010-01-02T02:55:34Z</time>
      </trkpt>
      <trkpt lat="46.04540000" lon="11.79339000">
        <ele>826.00000</ele>
        <time>2010-01-02T02:55:53Z</time>
      </trkpt>
      <trkpt lat="46.04534000" lon="11.79356000">
        <ele>830.00000</ele>
        <time>2010-01-02T02:55:59Z</time>
      </trkpt>
      <trkpt lat="46.04516000" lon="11.79351000">
        <ele>827.00000</ele>
        <time>2010-01-02T02:56:06Z</time>
      </trkpt>
      <trkpt lat="46.04505000" lon="11.79317000">
        <ele>820.00000</ele>
        <time>2010-01-02T02:56:17Z</time>
      </trkpt>
      <trkpt lat="46.04507000" lon="11.79315000">
        <ele>820.00000</ele>
        <time>2010-01-02T02:56:17Z</time>
      </trkpt>
      <trkpt lat="46.04505000" lon="11.79317000">
        <ele>820.00000</ele>
        <time>2010-01-02T02:56:18Z</time>
      </trkpt>
      <trkpt lat="46.04486000" lon="11.79252000">
        <ele>813.00000</ele>
        <time>2010-01-02T02:56:38Z</time>
      </trkpt>
      <trkpt lat="46.04441000" lon="11.79187000">
        <ele>809.00000</ele>
        <time>2010-01-02T02:57:04Z</time>
      </trkpt>
      <trkpt lat="46.04417000" lon="11.79179000">
        <ele>812.00000</ele>
        <time>2010-01-02T02:57:13Z</time>
      </trkpt>
      <trkpt lat="46.04381000" lon="11.79304000">
        <ele>816.00000</ele>
        <time>2010-01-02T02:57:51Z</time>
      </trkpt>
      <trkpt lat="46.04354000" lon="11.79416000">
        <ele>823.00000</ele>
        <time>2010-01-02T02:58:24Z</time>
      </trkpt>
      <trkpt lat="46.04321000" lon="11.79476000">
        <ele>828.00000</ele>
        <time>2010-01-02T02:58:45Z</time>
      </trkpt>
      <trkpt lat="46.04297000" lon="11.79481000">
        <ele>833.00000</ele>
        <time>2010-01-02T02:58:55Z</time>
      </trkpt>
      <trkpt lat="46.04279000" lon="11.79455000">
        <ele>826.00000</ele>
        <time>2010-01-02T02:59:05Z</time>
      </trkpt>
      <trkpt lat="46.04273000" lon="11.79451000">
        <ele>825.00000</ele>
        <time>2010-01-02T02:59:08Z</time>
      </trkpt>
      <trkpt lat="46.04213000" lon="11.79395000">
        <ele>808.00000</ele>
        <time>2010-01-02T02:59:36Z</time>
      </trkpt>
      <trkpt lat="46.04183000" lon="11.79386000">
        <ele>807.00000</ele>
        <time>2010-01-02T02:59:49Z</time>
      </trkpt>
      <trkpt lat="46.04134990" lon="11.79412000">
        <ele>814.00000</ele>
        <time>2010-01-02T03:00:09Z</time>
      </trkpt>
      <trkpt lat="46.04105000" lon="11.79447000">
        <ele>820.00000</ele>
        <time>2010-01-02T03:00:25Z</time>
      </trkpt>
      <trkpt lat="46.04048000" lon="11.79490000">
        <ele>834.00000</ele>
        <time>2010-01-02T03:00:50Z</time>
      </trkpt>
      <trkpt lat="46.04033000" lon="11.79476000">
        <ele>835.00000</ele>
        <time>2010-01-02T03:00:58Z</time>
      </trkpt>
      <trkpt lat="46.04054000" lon="11.79313000">
        <ele>806.00000</ele>
        <time>2010-01-02T03:01:44Z</time>
      </trkpt>
      <trkpt lat="46.04051000" lon="11.79273000">
        <ele>802.00000</ele>
        <time>2010-01-02T03:01:55Z</time>
      </trkpt>
      <trkpt lat="46.04030000" lon="11.79248000">
        <ele>805.00000</ele>
        <time>2010-01-02T03:02:06Z</time>
      </trkpt>
      <trkpt lat="46.04003000" lon="11.79252000">
        <ele>813.00000</ele>
        <time>2010-01-02T03:02:17Z</time>
      </trkpt>
      <trkpt lat="46.03982000" lon="11.79244000">
        <ele>816.00000</ele>
        <time>2010-01-02T03:02:25Z</time>
      </trkpt>
      <trkpt lat="46.03940000" lon="11.79053000">
        <ele>800.00000</ele>
        <time>2010-01-02T03:03:21Z</time>
      </trkpt>
      <trkpt lat="46.03922000" lon="11.79027000">
        <ele>801.00000</ele>
        <time>2010-01-02T03:03:31Z</time>
      </trkpt>
      <trkpt lat="46.03901000" lon="11.79036000">
        <ele>793.00000</ele>
        <time>2010-01-02T03:03:40Z</time>
      </trkpt>
      <trkpt lat="46.03850000" lon="11.79170000">
        <ele>798.00000</ele>
        <time>2010-01-02T03:04:22Z</time>
      </trkpt>
      <trkpt lat="46.03808000" lon="11.79200000">
        <ele>802.00000</ele>
        <time>2010-01-02T03:04:41Z</time>
      </trkpt>
      <trkpt lat="46.03658000" lon="11.79265000">
        <ele>804.00000</ele>
        <time>2010-01-02T03:05:44Z</time>
      </trkpt>
      <trkpt lat="46.03636000" lon="11.79239000">
        <ele>808.00000</ele>
        <time>2010-01-02T03:05:55Z</time>
      </trkpt>
      <trkpt lat="46.03685000" lon="11.79066000">
        <ele>788.00000</ele>
        <time>2010-01-02T03:06:47Z</time>
      </trkpt>
      <trkpt lat="46.03703000" lon="11.78833000">
        <ele>793.00000</ele>
        <time>2010-01-02T03:07:52Z</time>
      </trkpt>
      <trkpt lat="46.03706000" lon="11.78811000">
        <ele>792.00000</ele>
        <time>2010-01-02T03:07:59Z</time>
      </trkpt>
      <trkpt lat="46.03729000" lon="11.78707000">
        <ele>782.00000</ele>
        <time>2010-01-02T03:08:29Z</time>
      </trkpt>
      <trkpt lat="46.03715000" lon="11.78642000">
        <ele>783.00000</ele>
        <time>2010-01-02T03:08:48Z</time>
      </trkpt>
      <trkpt lat="46.03670000" lon="11.78577000">
        <ele>790.00000</ele>
        <time>2010-01-02T03:09:13Z</time>
      </trkpt>
      <trkpt lat="46.03658000" lon="11.78551000">
        <ele>789.00000</ele>
        <time>2010-01-02T03:09:22Z</time>
      </trkpt>
      <trkpt lat="46.03636000" lon="11.78499000">
        <ele>783.00000</ele>
        <time>2010-01-02T03:09:39Z</time>
      </trkpt>
      <trkpt lat="46.03640000" lon="11.78456000">
        <ele>781.00000</ele>
        <time>2010-01-02T03:09:51Z</time>
      </trkpt>
      <trkpt lat="46.03636000" lon="11.78443000">
        <ele>780.00000</ele>
        <time>2010-01-02T03:09:55Z</time>
      </trkpt>
      <trkpt lat="46.03625000" lon="11.78386000">
        <ele>775.00000</ele>
        <time>2010-01-02T03:10:11Z</time>
      </trkpt>
      <trkpt lat="46.03618000" lon="11.78343000">
        <ele>772.00000</ele>
        <time>2010-01-02T03:10:24Z</time>
      </trkpt>
      <trkpt lat="46.03615000" lon="11.78288000">
        <ele>767.00000</ele>
        <time>2010-01-02T03:10:39Z</time>
      </trkpt>
      <trkpt lat="46.03636000" lon="11.78249000">
        <ele>771.00000</ele>
        <time>2010-01-02T03:10:53Z</time>
      </trkpt>
      <trkpt lat="46.03645990" lon="11.78235000">
        <ele>771.00000</ele>
        <time>2010-01-02T03:10:58Z</time>
      </trkpt>
      <trkpt lat="46.03687990" lon="11.78171000">
        <ele>770.00000</ele>
        <time>2010-01-02T03:11:23Z</time>
      </trkpt>
      <trkpt lat="46.03703000" lon="11.78097000">
        <ele>762.00000</ele>
        <time>2010-01-02T03:11:44Z</time>
      </trkpt>
      <trkpt lat="46.03700000" lon="11.78067000">
        <ele>759.00000</ele>
        <time>2010-01-02T03:11:53Z</time>
      </trkpt>
      <trkpt lat="46.03678000" lon="11.78032000">
        <ele>754.00000</ele>
        <time>2010-01-02T03:12:06Z</time>
      </trkpt>
      <trkpt lat="46.03643000" lon="11.78023000">
        <ele>751.00000</ele>
        <time>2010-01-02T03:12:20Z</time>
      </trkpt>
      <trkpt lat="46.03625000" lon="11.78020000">
        <ele>750.00000</ele>
        <time>2010-01-02T03:12:27Z</time>
      </trkpt>
      <trkpt lat="46.03535000" lon="11.77950000">
        <ele>747.00000</ele>
        <time>2010-01-02T03:13:08Z</time>
      </trkpt>
      <trkpt lat="46.03520000" lon="11.77937000">
        <ele>747.00000</ele>
        <time>2010-01-02T03:13:15Z</time>
      </trkpt>
      <trkpt lat="46.03510000" lon="11.77929000">
        <ele>747.00000</ele>
        <time>2010-01-02T03:13:20Z</time>
      </trkpt>
      <trkpt lat="46.03414000" lon="11.77798000">
        <ele>728.00000</ele>
        <time>2010-01-02T03:14:13Z</time>
      </trkpt>
      <trkpt lat="46.03378000" lon="11.77743000">
        <ele>725.00000</ele>
        <time>2010-01-02T03:14:34Z</time>
      </trkpt>
      <trkpt lat="46.03369000" lon="11.77734000">
        <ele>725.00000</ele>
        <time>2010-01-02T03:14:38Z</time>
      </trkpt>
      <trkpt lat="46.03333000" lon="11.77695000">
        <ele>725.00000</ele>
        <time>2010-01-02T03:14:56Z</time>
      </trkpt>
      <trkpt lat="46.03249000" lon="11.77673000">
        <ele>718.00000</ele>
        <time>2010-01-02T03:15:30Z</time>
      </trkpt>
      <trkpt lat="46.03213000" lon="11.77626000">
        <ele>712.00000</ele>
        <time>2010-01-02T03:15:50Z</time>
      </trkpt>
      <trkpt lat="46.03156000" lon="11.77574000">
        <ele>712.00000</ele>
        <time>2010-01-02T03:16:17Z</time>
      </trkpt>
      <trkpt lat="46.03020990" lon="11.77478000">
        <ele>703.00000</ele>
        <time>2010-01-02T03:17:17Z</time>
      </trkpt>
      <trkpt lat="46.02973000" lon="11.77435000">
        <ele>708.00000</ele>
        <time>2010-01-02T03:17:40Z</time>
      </trkpt>
      <trkpt lat="46.02925000" lon="11.77413000">
        <ele>707.00000</ele>
        <time>2010-01-02T03:18:00Z</time>
      </trkpt>
      <trkpt lat="46.02828990" lon="11.77396000">
        <ele>699.00000</ele>
        <time>2010-01-02T03:18:38Z</time>
      </trkpt>
      <trkpt lat="46.02775000" lon="11.77362000">
        <ele>694.00000</ele>
        <time>2010-01-02T03:19:02Z</time>
      </trkpt>
      <trkpt lat="46.02747000" lon="11.77349000">
        <ele>691.00000</ele>
        <time>2010-01-02T03:19:14Z</time>
      </trkpt>
      <trkpt lat="46.02727000" lon="11.77341000">
        <ele>687.00000</ele>
        <time>2010-01-02T03:19:22Z</time>
      </trkpt>
      <trkpt lat="46.02661000" lon="11.77275000">
        <ele>680.00000</ele>
        <time>2010-01-02T03:19:54Z</time>
      </trkpt>
      <trkpt lat="46.02646000" lon="11.77236000">
        <ele>679.00000</ele>
        <time>2010-01-02T03:20:07Z</time>
      </trkpt>
      <trkpt lat="46.02636990" lon="11.77245000">
        <ele>675.00000</ele>
        <time>2010-01-02T03:20:11Z</time>
      </trkpt>
      <trkpt lat="46.02712000" lon="11.77353000">
        <ele>675.00000</ele>
        <time>2010-01-02T03:20:54Z</time>
      </trkpt>
      <trkpt lat="46.02747000" lon="11.77370000">
        <ele>682.00000</ele>
        <time>2010-01-02T03:21:08Z</time>
      </trkpt>
      <trkpt lat="46.02754000" lon="11.77375000">
        <ele>683.00000</ele>
        <time>2010-01-02T03:21:11Z</time>
      </trkpt>
      <trkpt lat="46.02795000" lon="11.77427000">
        <ele>674.00000</ele>
        <time>2010-01-02T03:21:33Z</time>
      </trkpt>
      <trkpt lat="46.02940000" lon="11.77500000">
        <ele>675.00000</ele>
        <time>2010-01-02T03:22:35Z</time>
      </trkpt>
      <trkpt lat="46.02955000" lon="11.77526000">
        <ele>667.00000</ele>
        <time>2010-01-02T03:22:44Z</time>
      </trkpt>
      <trkpt lat="46.03105000" lon="11.77678000">
        <ele>661.00000</ele>
        <time>2010-01-02T03:23:58Z</time>
      </trkpt>
      <trkpt lat="46.03138000" lon="11.77734000">
        <ele>658.00000</ele>
        <time>2010-01-02T03:24:18Z</time>
      </trkpt>
      <trkpt lat="46.03147000" lon="11.77751000">
        <ele>657.00000</ele>
        <time>2010-01-02T03:24:24Z</time>
      </trkpt>
      <trkpt lat="46.03174000" lon="11.77872000">
        <ele>661.00000</ele>
        <time>2010-01-02T03:24:59Z</time>
      </trkpt>
      <trkpt lat="46.03162000" lon="11.77889000">
        <ele>659.00000</ele>
        <time>2010-01-02T03:25:06Z</time>
      </trkpt>
      <trkpt lat="46.03135000" lon="11.77795000">
        <ele>651.00000</ele>
        <time>2010-01-02T03:25:34Z</time>
      </trkpt>
      <trkpt lat="46.03099000" lon="11.77738000">
        <ele>643.00000</ele>
        <time>2010-01-02T03:25:56Z</time>
      </trkpt>
      <trkpt lat="46.03096000" lon="11.77734000">
        <ele>643.00000</ele>
        <time>2010-01-02T03:25:57Z</time>
      </trkpt>
      <trkpt lat="46.02970000" lon="11.77621000">
        <ele>636.00000</ele>
        <time>2010-01-02T03:26:57Z</time>
      </trkpt>
      <trkpt lat="46.02925000" lon="11.77595000">
        <ele>631.00000</ele>
        <time>2010-01-02T03:27:16Z</time>
      </trkpt>
      <trkpt lat="46.02828990" lon="11.77556000">
        <ele>621.00000</ele>
        <time>2010-01-02T03:27:56Z</time>
      </trkpt>
      <trkpt lat="46.02747000" lon="11.77522000">
        <ele>611.00000</ele>
        <time>2010-01-02T03:28:30Z</time>
      </trkpt>
      <trkpt lat="46.02724000" lon="11.77513000">
        <ele>607.00000</ele>
        <time>2010-01-02T03:28:40Z</time>
      </trkpt>
      <trkpt lat="46.02631000" lon="11.77431000">
        <ele>600.00000</ele>
        <time>2010-01-02T03:29:23Z</time>
      </trkpt>
      <trkpt lat="46.02613000" lon="11.77405000">
        <ele>602.00000</ele>
        <time>2010-01-02T03:29:34Z</time>
      </trkpt>
      <trkpt lat="46.02543000" lon="11.77332000">
        <ele>593.00000</ele>
        <time>2010-01-02T03:30:08Z</time>
      </trkpt>
      <trkpt lat="46.02522990" lon="11.77301000">
        <ele>588.00000</ele>
        <time>2010-01-02T03:30:20Z</time>
      </trkpt>
      <trkpt lat="46.02516000" lon="11.77172000">
        <ele>587.00000</ele>
        <time>2010-01-02T03:30:56Z</time>
      </trkpt>
      <trkpt lat="46.02553000" lon="11.77050000">
        <ele>579.00000</ele>
        <time>2010-01-02T03:31:33Z</time>
      </trkpt>
      <trkpt lat="46.02600990" lon="11.76994000">
        <ele>589.00000</ele>
        <time>2010-01-02T03:31:58Z</time>
      </trkpt>
      <trkpt lat="46.02669000" lon="11.76830000">
        <ele>581.00000</ele>
        <time>2010-01-02T03:32:51Z</time>
      </trkpt>
      <trkpt lat="46.02745000" lon="11.76748000">
        <ele>571.00000</ele>
        <time>2010-01-02T03:33:29Z</time>
      </trkpt>
      <trkpt lat="46.02747000" lon="11.76748000">
        <ele>572.00000</ele>
        <time>2010-01-02T03:33:30Z</time>
      </trkpt>
      <trkpt lat="46.02795000" lon="11.76726000">
        <ele>567.00000</ele>
        <time>2010-01-02T03:33:50Z</time>
      </trkpt>
      <trkpt lat="46.02928000" lon="11.76734000">
        <ele>574.00000</ele>
        <time>2010-01-02T03:34:43Z</time>
      </trkpt>
      <trkpt lat="46.02958000" lon="11.76734000">
        <ele>575.00000</ele>
        <time>2010-01-02T03:34:55Z</time>
      </trkpt>
      <trkpt lat="46.03048000" lon="11.76700000">
        <ele>553.00000</ele>
        <time>2010-01-02T03:35:32Z</time>
      </trkpt>
      <trkpt lat="46.03105000" lon="11.76722000">
        <ele>555.00000</ele>
        <time>2010-01-02T03:35:56Z</time>
      </trkpt>
      <trkpt lat="46.03231000" lon="11.76782000">
        <ele>556.00000</ele>
        <time>2010-01-02T03:36:49Z</time>
      </trkpt>
      <trkpt lat="46.03297000" lon="11.76787000">
        <ele>544.00000</ele>
        <time>2010-01-02T03:37:16Z</time>
      </trkpt>
      <trkpt lat="46.03376000" lon="11.76787000">
        <ele>530.00000</ele>
        <time>2010-01-02T03:37:47Z</time>
      </trkpt>
      <trkpt lat="46.03457000" lon="11.76825000">
        <ele>526.00000</ele>
        <time>2010-01-02T03:38:21Z</time>
      </trkpt>
      <trkpt lat="46.03510000" lon="11.76882000">
        <ele>527.00000</ele>
        <time>2010-01-02T03:38:48Z</time>
      </trkpt>
      <trkpt lat="46.03535000" lon="11.76912000">
        <ele>527.00000</ele>
        <time>2010-01-02T03:39:01Z</time>
      </trkpt>
      <trkpt lat="46.03577000" lon="11.76925000">
        <ele>519.00000</ele>
        <time>2010-01-02T03:39:18Z</time>
      </trkpt>
      <trkpt lat="46.03648000" lon="11.77011000">
        <ele>521.00000</ele>
        <time>2010-01-02T03:39:55Z</time>
      </trkpt>
      <trkpt lat="46.03673000" lon="11.77029000">
        <ele>520.00000</ele>
        <time>2010-01-02T03:40:06Z</time>
      </trkpt>
      <trkpt lat="46.03748000" lon="11.77076000">
        <ele>513.00000</ele>
        <time>2010-01-02T03:40:39Z</time>
      </trkpt>
      <trkpt lat="46.03766000" lon="11.77068000">
        <ele>506.00000</ele>
        <time>2010-01-02T03:40:47Z</time>
      </trkpt>
      <trkpt lat="46.03772000" lon="11.77046000">
        <ele>503.00000</ele>
        <time>2010-01-02T03:40:53Z</time>
      </trkpt>
      <trkpt lat="46.03759000" lon="11.77002000">
        <ele>502.00000</ele>
        <time>2010-01-02T03:41:06Z</time>
      </trkpt>
      <trkpt lat="46.03711000" lon="11.76933000">
        <ele>502.00000</ele>
        <time>2010-01-02T03:41:34Z</time>
      </trkpt>
      <trkpt lat="46.03573000" lon="11.76717000">
        <ele>484.00000</ele>
        <time>2010-01-02T03:42:55Z</time>
      </trkpt>
      <trkpt lat="46.03550000" lon="11.76705000">
        <ele>484.00000</ele>
        <time>2010-01-02T03:43:05Z</time>
      </trkpt>
      <trkpt lat="46.03510000" lon="11.76691000">
        <ele>485.00000</ele>
        <time>2010-01-02T03:43:21Z</time>
      </trkpt>
      <trkpt lat="46.03447000" lon="11.76674000">
        <ele>488.00000</ele>
        <time>2010-01-02T03:43:47Z</time>
      </trkpt>
      <trkpt lat="46.03439000" lon="11.76670000">
        <ele>488.00000</ele>
        <time>2010-01-02T03:43:50Z</time>
      </trkpt>
      <trkpt lat="46.03342000" lon="11.76636000">
        <ele>482.00000</ele>
        <time>2010-01-02T03:44:30Z</time>
      </trkpt>
      <trkpt lat="46.03318000" lon="11.76627000">
        <ele>480.00000</ele>
        <time>2010-01-02T03:44:40Z</time>
      </trkpt>
      <trkpt lat="46.03234000" lon="11.76566000">
        <ele>470.00000</ele>
        <time>2010-01-02T03:45:18Z</time>
      </trkpt>
      <trkpt lat="46.03237000" lon="11.76540000">
        <ele>462.00000</ele>
        <time>2010-01-02T03:45:25Z</time>
      </trkpt>
      <trkpt lat="46.03336000" lon="11.76574000">
        <ele>466.00000</ele>
        <time>2010-01-02T03:46:06Z</time>
      </trkpt>
      <trkpt lat="46.03354000" lon="11.76540000">
        <ele>458.00000</ele>
        <time>2010-01-02T03:46:18Z</time>
      </trkpt>
      <trkpt lat="46.03378000" lon="11.76497000">
        <ele>450.00000</ele>
        <time>2010-01-02T03:46:33Z</time>
      </trkpt>
      <trkpt lat="46.03411000" lon="11.76479000">
        <ele>448.00000</ele>
        <time>2010-01-02T03:46:47Z</time>
      </trkpt>
      <trkpt lat="46.03510000" lon="11.76493000">
        <ele>453.00000</ele>
        <time>2010-01-02T03:47:27Z</time>
      </trkpt>
      <trkpt lat="46.03540000" lon="11.76497000">
        <ele>448.00000</ele>
        <time>2010-01-02T03:47:39Z</time>
      </trkpt>
      <trkpt lat="46.03558000" lon="11.76493000">
        <ele>443.00000</ele>
        <time>2010-01-02T03:47:47Z</time>
      </trkpt>
      <trkpt lat="46.03555000" lon="11.76466000">
        <ele>436.00000</ele>
        <time>2010-01-02T03:47:54Z</time>
      </trkpt>
      <trkpt lat="46.03510000" lon="11.76440000">
        <ele>437.00000</ele>
        <time>2010-01-02T03:48:14Z</time>
      </trkpt>
      <trkpt lat="46.03489000" lon="11.76428000">
        <ele>434.00000</ele>
        <time>2010-01-02T03:48:23Z</time>
      </trkpt>
      <trkpt lat="46.03414000" lon="11.76449000">
        <ele>436.00000</ele>
        <time>2010-01-02T03:48:53Z</time>
      </trkpt>
      <trkpt lat="46.03309000" lon="11.76457000">
        <ele>427.00000</ele>
        <time>2010-01-02T03:49:35Z</time>
      </trkpt>
      <trkpt lat="46.03225000" lon="11.76445000">
        <ele>427.00000</ele>
        <time>2010-01-02T03:50:09Z</time>
      </trkpt>
      <trkpt lat="46.03150000" lon="11.76371000">
        <ele>399.00000</ele>
        <time>2010-01-02T03:50:46Z</time>
      </trkpt>
      <trkpt lat="46.03092990" lon="11.76419000">
        <ele>411.00000</ele>
        <time>2010-01-02T03:51:12Z</time>
      </trkpt>
      <trkpt lat="46.02985000" lon="11.76445000">
        <ele>410.00000</ele>
        <time>2010-01-02T03:51:56Z</time>
      </trkpt>
      <trkpt lat="46.02967000" lon="11.76440000">
        <ele>406.00000</ele>
        <time>2010-01-02T03:52:03Z</time>
      </trkpt>
      <trkpt lat="46.02978990" lon="11.76423000">
        <ele>398.00000</ele>
        <time>2010-01-02T03:52:10Z</time>
      </trkpt>
      <trkpt lat="46.03042000" lon="11.76410000">
        <ele>399.00000</ele>
        <time>2010-01-02T03:52:35Z</time>
      </trkpt>
      <trkpt lat="46.03048000" lon="11.76397000">
        <ele>393.00000</ele>
        <time>2010-01-02T03:52:40Z</time>
      </trkpt>
      <trkpt lat="46.02942990" lon="11.76397000">
        <ele>382.00000</ele>
        <time>2010-01-02T03:53:22Z</time>
      </trkpt>
      <trkpt lat="46.02889000" lon="11.76406000">
        <ele>376.00000</ele>
        <time>2010-01-02T03:53:43Z</time>
      </trkpt>
      <trkpt lat="46.02864990" lon="11.76436000">
        <ele>385.00000</ele>
        <time>2010-01-02T03:53:56Z</time>
      </trkpt>
      <trkpt lat="46.02853000" lon="11.76428000">
        <ele>376.00000</ele>
        <time>2010-01-02T03:54:01Z</time>
      </trkpt>
      <trkpt lat="46.02904000" lon="11.76388000">
        <ele>373.00000</ele>
        <time>2010-01-02T03:54:25Z</time>
      </trkpt>
      <trkpt lat="46.02958000" lon="11.76376000">
        <ele>373.00000</ele>
        <time>2010-01-02T03:54:47Z</time>
      </trkpt>
      <trkpt lat="46.02970000" lon="11.76350000">
        <ele>360.00000</ele>
        <time>2010-01-02T03:54:55Z</time>
      </trkpt>
      <trkpt lat="46.02964000" lon="11.76289000">
        <ele>364.00000</ele>
        <time>2010-01-02T03:55:12Z</time>
      </trkpt>
      <trkpt lat="46.02988000" lon="11.76268000">
        <ele>367.00000</ele>
        <time>2010-01-02T03:55:24Z</time>
      </trkpt>
      <trkpt lat="46.03036000" lon="11.76254000">
        <ele>364.00000</ele>
        <time>2010-01-02T03:55:43Z</time>
      </trkpt>
      <trkpt lat="46.03045000" lon="11.76237000">
        <ele>368.00000</ele>
        <time>2010-01-02T03:55:49Z</time>
      </trkpt>
      <trkpt lat="46.03128990" lon="11.76207000">
        <ele>371.00000</ele>
        <time>2010-01-02T03:56:24Z</time>
      </trkpt>
      <trkpt lat="46.03183000" lon="11.76151000">
        <ele>384.00000</ele>
        <time>2010-01-02T03:56:50Z</time>
      </trkpt>
      <trkpt lat="46.03180000" lon="11.76137000">
        <ele>390.00000</ele>
        <time>2010-01-02T03:56:55Z</time>
      </trkpt>
      <trkpt lat="46.03066000" lon="11.76203000">
        <ele>378.00000</ele>
        <time>2010-01-02T03:57:44Z</time>
      </trkpt>
      <trkpt lat="46.02994000" lon="11.76203000">
        <ele>390.00000</ele>
        <time>2010-01-02T03:58:13Z</time>
      </trkpt>
      <trkpt lat="46.02997000" lon="11.76189000">
        <ele>395.00000</ele>
        <time>2010-01-02T03:58:17Z</time>
      </trkpt>
      <trkpt lat="46.03039000" lon="11.76194000">
        <ele>386.00000</ele>
        <time>2010-01-02T03:58:33Z</time>
      </trkpt>
      <trkpt lat="46.03075000" lon="11.76172000">
        <ele>389.00000</ele>
        <time>2010-01-02T03:58:49Z</time>
      </trkpt>
      <trkpt lat="46.03141000" lon="11.76108000">
        <ele>406.00000</ele>
        <time>2010-01-02T03:59:21Z</time>
      </trkpt>
      <trkpt lat="46.03159000" lon="11.76069000">
        <ele>414.00000</ele>
        <time>2010-01-02T03:59:34Z</time>
      </trkpt>
      <trkpt lat="46.03189000" lon="11.76012000">
        <ele>429.00000</ele>
        <time>2010-01-02T03:59:54Z</time>
      </trkpt>
      <trkpt lat="46.03186000" lon="11.75943000">
        <ele>432.00000</ele>
        <time>2010-01-02T04:00:13Z</time>
      </trkpt>
      <trkpt lat="46.03159000" lon="11.75692000">
        <ele>432.00000</ele>
        <time>2010-01-02T04:01:24Z</time>
      </trkpt>
      <trkpt lat="46.03170990" lon="11.75636000">
        <ele>433.00000</ele>
        <time>2010-01-02T04:01:40Z</time>
      </trkpt>
      <trkpt lat="46.03180000" lon="11.75589000">
        <ele>438.00000</ele>
        <time>2010-01-02T04:01:54Z</time>
      </trkpt>
      <trkpt lat="46.03165000" lon="11.75537000">
        <ele>440.00000</ele>
        <time>2010-01-02T04:02:09Z</time>
      </trkpt>
      <trkpt lat="46.03138000" lon="11.75433000">
        <ele>432.00000</ele>
        <time>2010-01-02T04:02:40Z</time>
      </trkpt>
      <trkpt lat="46.03156000" lon="11.75389000">
        <ele>434.00000</ele>
        <time>2010-01-02T04:02:54Z</time>
      </trkpt>
      <trkpt lat="46.03234000" lon="11.75316000">
        <ele>435.00000</ele>
        <time>2010-01-02T04:03:31Z</time>
      </trkpt>
      <trkpt lat="46.03258000" lon="11.75333000">
        <ele>443.00000</ele>
        <time>2010-01-02T04:03:42Z</time>
      </trkpt>
      <trkpt lat="46.03273000" lon="11.75433000">
        <ele>460.00000</ele>
        <time>2010-01-02T04:04:11Z</time>
      </trkpt>
      <trkpt lat="46.03297000" lon="11.75476000">
        <ele>458.00000</ele>
        <time>2010-01-02T04:04:26Z</time>
      </trkpt>
      <trkpt lat="46.03331000" lon="11.75528000">
        <ele>457.00000</ele>
        <time>2010-01-02T04:04:46Z</time>
      </trkpt>
      <trkpt lat="46.03342000" lon="11.75537000">
        <ele>458.00000</ele>
        <time>2010-01-02T04:04:51Z</time>
      </trkpt>
      <trkpt lat="46.03376000" lon="11.75558000">
        <ele>458.00000</ele>
        <time>2010-01-02T04:05:06Z</time>
      </trkpt>
      <trkpt lat="46.03420000" lon="11.75549000">
        <ele>453.00000</ele>
        <time>2010-01-02T04:05:23Z</time>
      </trkpt>
      <trkpt lat="46.03429000" lon="11.75546000">
        <ele>452.00000</ele>
        <time>2010-01-02T04:05:27Z</time>
      </trkpt>
      <trkpt lat="46.03435000" lon="11.75541000">
        <ele>452.00000</ele>
        <time>2010-01-02T04:05:30Z</time>
      </trkpt>
      <trkpt lat="46.03441000" lon="11.75537000">
        <ele>452.00000</ele>
        <time>2010-01-02T04:05:33Z</time>
      </trkpt>
      <trkpt lat="46.03510000" lon="11.75489000">
        <ele>451.00000</ele>
        <time>2010-01-02T04:06:03Z</time>
      </trkpt>
      <trkpt lat="46.03580000" lon="11.75441000">
        <ele>458.00000</ele>
        <time>2010-01-02T04:06:34Z</time>
      </trkpt>
      <trkpt lat="46.03580000" lon="11.75429000">
        <ele>458.00000</ele>
        <time>2010-01-02T04:06:38Z</time>
      </trkpt>
      <trkpt lat="46.03598000" lon="11.75364000">
        <ele>467.00000</ele>
        <time>2010-01-02T04:06:57Z</time>
      </trkpt>
      <trkpt lat="46.03613000" lon="11.75312000">
        <ele>478.00000</ele>
        <time>2010-01-02T04:07:13Z</time>
      </trkpt>
      <trkpt lat="46.03607000" lon="11.75255000">
        <ele>481.00000</ele>
        <time>2010-01-02T04:07:29Z</time>
      </trkpt>
      <trkpt lat="46.03588000" lon="11.75178000">
        <ele>479.00000</ele>
        <time>2010-01-02T04:07:51Z</time>
      </trkpt>
      <trkpt lat="46.03528000" lon="11.74996000">
        <ele>467.00000</ele>
        <time>2010-01-02T04:08:47Z</time>
      </trkpt>
      <trkpt lat="46.03537000" lon="11.74970000">
        <ele>474.00000</ele>
        <time>2010-01-02T04:08:55Z</time>
      </trkpt>
      <trkpt lat="46.03535000" lon="11.74901000">
        <ele>471.00000</ele>
        <time>2010-01-02T04:09:15Z</time>
      </trkpt>
      <trkpt lat="46.03552000" lon="11.74836000">
        <ele>475.00000</ele>
        <time>2010-01-02T04:09:34Z</time>
      </trkpt>
      <trkpt lat="46.03609990" lon="11.74750000">
        <ele>485.00000</ele>
        <time>2010-01-02T04:10:07Z</time>
      </trkpt>
      <trkpt lat="46.03640000" lon="11.74741000">
        <ele>495.00000</ele>
        <time>2010-01-02T04:10:20Z</time>
      </trkpt>
      <trkpt lat="46.03640000" lon="11.74719000">
        <ele>492.00000</ele>
        <time>2010-01-02T04:10:26Z</time>
      </trkpt>
      <trkpt lat="46.03621000" lon="11.74693000">
        <ele>480.00000</ele>
        <time>2010-01-02T04:10:36Z</time>
      </trkpt>
      <trkpt lat="46.03636000" lon="11.74628000">
        <ele>485.00000</ele>
        <time>2010-01-02T04:10:55Z</time>
      </trkpt>
      <trkpt lat="46.03685000" lon="11.74585000">
        <ele>497.00000</ele>
        <time>2010-01-02T04:11:18Z</time>
      </trkpt>
      <trkpt lat="46.03673000" lon="11.74563000">
        <ele>498.00000</ele>
        <time>2010-01-02T04:11:26Z</time>
      </trkpt>
      <trkpt lat="46.03645990" lon="11.74546000">
        <ele>495.00000</ele>
        <time>2010-01-02T04:11:38Z</time>
      </trkpt>
      <trkpt lat="46.03615000" lon="11.74572000">
        <ele>484.00000</ele>
        <time>2010-01-02T04:11:52Z</time>
      </trkpt>
      <trkpt lat="46.03600000" lon="11.74559000">
        <ele>483.00000</ele>
        <time>2010-01-02T04:11:59Z</time>
      </trkpt>
      <trkpt lat="46.03583000" lon="11.74468000">
        <ele>496.00000</ele>
        <time>2010-01-02T04:12:25Z</time>
      </trkpt>
      <trkpt lat="46.03562000" lon="11.74438000">
        <ele>499.00000</ele>
        <time>2010-01-02T04:12:37Z</time>
      </trkpt>
      <trkpt lat="46.03552000" lon="11.74425000">
        <ele>500.00000</ele>
        <time>2010-01-02T04:12:43Z</time>
      </trkpt>
      <trkpt lat="46.03540000" lon="11.74373000">
        <ele>504.00000</ele>
        <time>2010-01-02T04:12:58Z</time>
      </trkpt>
      <trkpt lat="46.03540000" lon="11.74286000">
        <ele>505.00000</ele>
        <time>2010-01-02T04:13:22Z</time>
      </trkpt>
      <trkpt lat="46.03573000" lon="11.74222000">
        <ele>499.00000</ele>
        <time>2010-01-02T04:13:44Z</time>
      </trkpt>
      <trkpt lat="46.03595000" lon="11.74200000">
        <ele>499.00000</ele>
        <time>2010-01-02T04:13:55Z</time>
      </trkpt>
      <trkpt lat="46.03628000" lon="11.74135000">
        <ele>497.00000</ele>
        <time>2010-01-02T04:14:17Z</time>
      </trkpt>
      <trkpt lat="46.03633000" lon="11.74062000">
        <ele>486.00000</ele>
        <time>2010-01-02T04:14:38Z</time>
      </trkpt>
      <trkpt lat="46.03723990" lon="11.73957000">
        <ele>497.00000</ele>
        <time>2010-01-02T04:15:24Z</time>
      </trkpt>
      <trkpt lat="46.03754000" lon="11.73902000">
        <ele>497.00000</ele>
        <time>2010-01-02T04:15:44Z</time>
      </trkpt>
      <trkpt lat="46.03759000" lon="11.73763000">
        <ele>486.00000</ele>
        <time>2010-01-02T04:16:22Z</time>
      </trkpt>
      <trkpt lat="46.03763000" lon="11.73750000">
        <ele>487.00000</ele>
        <time>2010-01-02T04:16:26Z</time>
      </trkpt>
      <trkpt lat="46.03751000" lon="11.73655000">
        <ele>484.00000</ele>
        <time>2010-01-02T04:16:53Z</time>
      </trkpt>
      <trkpt lat="46.03703000" lon="11.73612000">
        <ele>475.00000</ele>
        <time>2010-01-02T04:17:16Z</time>
      </trkpt>
      <trkpt lat="46.03703000" lon="11.73594000">
        <ele>476.00000</ele>
        <time>2010-01-02T04:17:21Z</time>
      </trkpt>
      <trkpt lat="46.03711000" lon="11.73581000">
        <ele>477.00000</ele>
        <time>2010-01-02T04:17:26Z</time>
      </trkpt>
      <trkpt lat="46.03766000" lon="11.73521000">
        <ele>474.00000</ele>
        <time>2010-01-02T04:17:53Z</time>
      </trkpt>
      <trkpt lat="46.03787000" lon="11.73503000">
        <ele>473.00000</ele>
        <time>2010-01-02T04:18:03Z</time>
      </trkpt>
      <trkpt lat="46.03850000" lon="11.73482000">
        <ele>476.00000</ele>
        <time>2010-01-02T04:18:29Z</time>
      </trkpt>
      <trkpt lat="46.03865000" lon="11.73434000">
        <ele>472.00000</ele>
        <time>2010-01-02T04:18:44Z</time>
      </trkpt>
      <trkpt lat="46.03873990" lon="11.73374000">
        <ele>468.00000</ele>
        <time>2010-01-02T04:19:01Z</time>
      </trkpt>
      <trkpt lat="46.03886000" lon="11.73357000">
        <ele>471.00000</ele>
        <time>2010-01-02T04:19:07Z</time>
      </trkpt>
      <trkpt lat="46.03881990" lon="11.73340000">
        <ele>468.00000</ele>
        <time>2010-01-02T04:19:12Z</time>
      </trkpt>
      <trkpt lat="46.03877000" lon="11.73292000">
        <ele>461.00000</ele>
        <time>2010-01-02T04:19:26Z</time>
      </trkpt>
      <trkpt lat="46.03895000" lon="11.73261000">
        <ele>461.00000</ele>
        <time>2010-01-02T04:19:37Z</time>
      </trkpt>
      <trkpt lat="46.03925000" lon="11.73240000">
        <ele>467.00000</ele>
        <time>2010-01-02T04:19:50Z</time>
      </trkpt>
      <trkpt lat="46.03937000" lon="11.73209000">
        <ele>472.00000</ele>
        <time>2010-01-02T04:20:00Z</time>
      </trkpt>
      <trkpt lat="46.03925000" lon="11.73184000">
        <ele>466.00000</ele>
        <time>2010-01-02T04:20:09Z</time>
      </trkpt>
      <trkpt lat="46.03880000" lon="11.73140000">
        <ele>452.00000</ele>
        <time>2010-01-02T04:20:30Z</time>
      </trkpt>
      <trkpt lat="46.03837000" lon="11.73067000">
        <ele>426.00000</ele>
        <time>2010-01-02T04:20:57Z</time>
      </trkpt>
      <trkpt lat="46.03877000" lon="11.72950000">
        <ele>434.00000</ele>
        <time>2010-01-02T04:21:33Z</time>
      </trkpt>
      <trkpt lat="46.03895000" lon="11.72907000">
        <ele>434.00000</ele>
        <time>2010-01-02T04:21:47Z</time>
      </trkpt>
      <trkpt lat="46.03867000" lon="11.72859000">
        <ele>422.00000</ele>
        <time>2010-01-02T04:22:05Z</time>
      </trkpt>
      <trkpt lat="46.03919000" lon="11.72764000">
        <ele>426.00000</ele>
        <time>2010-01-02T04:22:38Z</time>
      </trkpt>
      <trkpt lat="46.03937000" lon="11.72733000">
        <ele>428.00000</ele>
        <time>2010-01-02T04:22:50Z</time>
      </trkpt>
      <trkpt lat="46.03937000" lon="11.72716000">
        <ele>429.00000</ele>
        <time>2010-01-02T04:22:54Z</time>
      </trkpt>
      <trkpt lat="46.03925000" lon="11.72690000">
        <ele>430.00000</ele>
        <time>2010-01-02T04:23:03Z</time>
      </trkpt>
      <trkpt lat="46.03909990" lon="11.72686000">
        <ele>430.00000</ele>
        <time>2010-01-02T04:23:09Z</time>
      </trkpt>
      <trkpt lat="46.03852000" lon="11.72690000">
        <ele>425.00000</ele>
        <time>2010-01-02T04:23:32Z</time>
      </trkpt>
      <trkpt lat="46.03841000" lon="11.72682000">
        <ele>425.00000</ele>
        <time>2010-01-02T04:23:37Z</time>
      </trkpt>
      <trkpt lat="46.03844000" lon="11.72673000">
        <ele>426.00000</ele>
        <time>2010-01-02T04:23:40Z</time>
      </trkpt>
      <trkpt lat="46.03881990" lon="11.72673000">
        <ele>429.00000</ele>
        <time>2010-01-02T04:23:55Z</time>
      </trkpt>
      <trkpt lat="46.03909990" lon="11.72669000">
        <ele>431.00000</ele>
        <time>2010-01-02T04:24:06Z</time>
      </trkpt>
      <trkpt lat="46.03817000" lon="11.72630000">
        <ele>434.00000</ele>
        <time>2010-01-02T04:24:45Z</time>
      </trkpt>
      <trkpt lat="46.03778000" lon="11.72613000">
        <ele>434.00000</ele>
        <time>2010-01-02T04:25:02Z</time>
      </trkpt>
      <trkpt lat="46.03751000" lon="11.72616000">
        <ele>431.00000</ele>
        <time>2010-01-02T04:25:12Z</time>
      </trkpt>
      <trkpt lat="46.03739000" lon="11.72599000">
        <ele>436.00000</ele>
        <time>2010-01-02T04:25:19Z</time>
      </trkpt>
      <trkpt lat="46.03756000" lon="11.72539000">
        <ele>429.00000</ele>
        <time>2010-01-02T04:25:37Z</time>
      </trkpt>
      <trkpt lat="46.03829000" lon="11.72491000">
        <ele>438.00000</ele>
        <time>2010-01-02T04:26:09Z</time>
      </trkpt>
      <trkpt lat="46.03881990" lon="11.72556000">
        <ele>450.00000</ele>
        <time>2010-01-02T04:26:37Z</time>
      </trkpt>
      <trkpt lat="46.03940000" lon="11.72504000">
        <ele>457.00000</ele>
        <time>2010-01-02T04:27:04Z</time>
      </trkpt>
      <trkpt lat="46.03955000" lon="11.72487000">
        <ele>459.00000</ele>
        <time>2010-01-02T04:27:12Z</time>
      </trkpt>
      <trkpt lat="46.03970000" lon="11.72461000">
        <ele>458.00000</ele>
        <time>2010-01-02T04:27:21Z</time>
      </trkpt>
      <trkpt lat="46.03985000" lon="11.72427000">
        <ele>457.00000</ele>
        <time>2010-01-02T04:27:33Z</time>
      </trkpt>
      <trkpt lat="46.04018000" lon="11.72405000">
        <ele>462.00000</ele>
        <time>2010-01-02T04:27:47Z</time>
      </trkpt>
      <trkpt lat="46.04060000" lon="11.72297000">
        <ele>458.00000</ele>
        <time>2010-01-02T04:28:22Z</time>
      </trkpt>
      <trkpt lat="46.04075000" lon="11.72241000">
        <ele>456.00000</ele>
        <time>2010-01-02T04:28:38Z</time>
      </trkpt>
      <trkpt lat="46.04114000" lon="11.72098000">
        <ele>452.00000</ele>
        <time>2010-01-02T04:29:21Z</time>
      </trkpt>
      <trkpt lat="46.04159000" lon="11.72007000">
        <ele>454.00000</ele>
        <time>2010-01-02T04:29:52Z</time>
      </trkpt>
      <trkpt lat="46.04153000" lon="11.71942000">
        <ele>450.00000</ele>
        <time>2010-01-02T04:30:10Z</time>
      </trkpt>
      <trkpt lat="46.04246000" lon="11.71717000">
        <ele>461.00000</ele>
        <time>2010-01-02T04:31:23Z</time>
      </trkpt>
      <trkpt lat="46.04219000" lon="11.71661000">
        <ele>458.00000</ele>
        <time>2010-01-02T04:31:42Z</time>
      </trkpt>
      <trkpt lat="46.04273000" lon="11.71518000">
        <ele>461.00000</ele>
        <time>2010-01-02T04:32:27Z</time>
      </trkpt>
      <trkpt lat="46.04324000" lon="11.71384000">
        <ele>459.00000</ele>
        <time>2010-01-02T04:33:10Z</time>
      </trkpt>
      <trkpt lat="46.04351000" lon="11.71349000">
        <ele>469.00000</ele>
        <time>2010-01-02T04:33:24Z</time>
      </trkpt>
      <trkpt lat="46.04342000" lon="11.71177000">
        <ele>459.00000</ele>
        <time>2010-01-02T04:34:12Z</time>
      </trkpt>
      <trkpt lat="46.04336000" lon="11.71142000">
        <ele>457.00000</ele>
        <time>2010-01-02T04:34:22Z</time>
      </trkpt>
      <trkpt lat="46.04330000" lon="11.71107000">
        <ele>458.00000</ele>
        <time>2010-01-02T04:34:32Z</time>
      </trkpt>
      <trkpt lat="46.04330000" lon="11.70921000">
        <ele>460.00000</ele>
        <time>2010-01-02T04:35:24Z</time>
      </trkpt>
      <trkpt lat="46.04336000" lon="11.70891000">
        <ele>458.00000</ele>
        <time>2010-01-02T04:35:33Z</time>
      </trkpt>
      <trkpt lat="46.04354000" lon="11.70830000">
        <ele>456.00000</ele>
        <time>2010-01-02T04:35:51Z</time>
      </trkpt>
      <trkpt lat="46.04438000" lon="11.70731000">
        <ele>454.00000</ele>
        <time>2010-01-02T04:36:34Z</time>
      </trkpt>
      <trkpt lat="46.04465000" lon="11.70722000">
        <ele>455.00000</ele>
        <time>2010-01-02T04:36:45Z</time>
      </trkpt>
      <trkpt lat="46.04474000" lon="11.70696000">
        <ele>457.00000</ele>
        <time>2010-01-02T04:36:54Z</time>
      </trkpt>
      <trkpt lat="46.04516000" lon="11.70713000">
        <ele>461.00000</ele>
        <time>2010-01-02T04:37:11Z</time>
      </trkpt>
      <trkpt lat="46.04540000" lon="11.70687000">
        <ele>466.00000</ele>
        <time>2010-01-02T04:37:23Z</time>
      </trkpt>
      <trkpt lat="46.04544000" lon="11.70649000">
        <ele>467.00000</ele>
        <time>2010-01-02T04:37:34Z</time>
      </trkpt>
      <trkpt lat="46.04537000" lon="11.70627000">
        <ele>468.00000</ele>
        <time>2010-01-02T04:37:40Z</time>
      </trkpt>
      <trkpt lat="46.04540000" lon="11.70606000">
        <ele>471.00000</ele>
        <time>2010-01-02T04:37:46Z</time>
      </trkpt>
      <trkpt lat="46.04607000" lon="11.70571000">
        <ele>477.00000</ele>
        <time>2010-01-02T04:38:15Z</time>
      </trkpt>
      <trkpt lat="46.04672000" lon="11.70481000">
        <ele>480.00000</ele>
        <time>2010-01-02T04:38:51Z</time>
      </trkpt>
      <trkpt lat="46.04715000" lon="11.70390000">
        <ele>495.00000</ele>
        <time>2010-01-02T04:39:22Z</time>
      </trkpt>
      <trkpt lat="46.04753000" lon="11.70355000">
        <ele>494.00000</ele>
        <time>2010-01-02T04:39:40Z</time>
      </trkpt>
      <trkpt lat="46.04804000" lon="11.70346000">
        <ele>497.00000</ele>
        <time>2010-01-02T04:40:00Z</time>
      </trkpt>
      <trkpt lat="46.04907000" lon="11.70359000">
        <ele>499.00000</ele>
        <time>2010-01-02T04:40:42Z</time>
      </trkpt>
      <trkpt lat="46.05035000" lon="11.70320000">
        <ele>505.00000</ele>
        <time>2010-01-02T04:41:34Z</time>
      </trkpt>
      <trkpt lat="46.05087000" lon="11.70307000">
        <ele>509.00000</ele>
        <time>2010-01-02T04:41:55Z</time>
      </trkpt>
      <trkpt lat="46.05131000" lon="11.70320000">
        <ele>508.00000</ele>
        <time>2010-01-02T04:42:13Z</time>
      </trkpt>
      <trkpt lat="46.05159000" lon="11.70333000">
        <ele>507.00000</ele>
        <time>2010-01-02T04:42:25Z</time>
      </trkpt>
      <trkpt lat="46.05246000" lon="11.70333000">
        <ele>512.00000</ele>
        <time>2010-01-02T04:43:00Z</time>
      </trkpt>
      <trkpt lat="46.05246000" lon="11.70316000">
        <ele>518.00000</ele>
        <time>2010-01-02T04:43:04Z</time>
      </trkpt>
      <trkpt lat="46.05176000" lon="11.70311000">
        <ele>519.00000</ele>
        <time>2010-01-02T04:43:32Z</time>
      </trkpt>
      <trkpt lat="46.05131000" lon="11.70273000">
        <ele>534.00000</ele>
        <time>2010-01-02T04:43:53Z</time>
      </trkpt>
      <trkpt lat="46.05035000" lon="11.70259000">
        <ele>542.00000</ele>
        <time>2010-01-02T04:44:32Z</time>
      </trkpt>
      <trkpt lat="46.05015000" lon="11.70255000">
        <ele>545.00000</ele>
        <time>2010-01-02T04:44:40Z</time>
      </trkpt>
      <trkpt lat="46.04937000" lon="11.70277000">
        <ele>538.00000</ele>
        <time>2010-01-02T04:45:12Z</time>
      </trkpt>
      <trkpt lat="46.04871000" lon="11.70251000">
        <ele>554.00000</ele>
        <time>2010-01-02T04:45:39Z</time>
      </trkpt>
      <trkpt lat="46.04841000" lon="11.70247000">
        <ele>557.00000</ele>
        <time>2010-01-02T04:45:51Z</time>
      </trkpt>
      <trkpt lat="46.04811000" lon="11.70233000">
        <ele>565.00000</ele>
        <time>2010-01-02T04:46:04Z</time>
      </trkpt>
      <trkpt lat="46.04745000" lon="11.70242000">
        <ele>567.00000</ele>
        <time>2010-01-02T04:46:30Z</time>
      </trkpt>
      <trkpt lat="46.04624000" lon="11.70307000">
        <ele>553.00000</ele>
        <time>2010-01-02T04:47:22Z</time>
      </trkpt>
      <trkpt lat="46.04612000" lon="11.70294000">
        <ele>559.00000</ele>
        <time>2010-01-02T04:47:28Z</time>
      </trkpt>
      <trkpt lat="46.04624000" lon="11.70281000">
        <ele>566.00000</ele>
        <time>2010-01-02T04:47:34Z</time>
      </trkpt>
      <trkpt lat="46.04681000" lon="11.70255000">
        <ele>577.00000</ele>
        <time>2010-01-02T04:47:58Z</time>
      </trkpt>
      <trkpt lat="46.04801000" lon="11.70168000">
        <ele>590.00000</ele>
        <time>2010-01-02T04:48:52Z</time>
      </trkpt>
      <trkpt lat="46.04871000" lon="11.70182000">
        <ele>582.00000</ele>
        <time>2010-01-02T04:49:20Z</time>
      </trkpt>
      <trkpt lat="46.04964000" lon="11.70147000">
        <ele>591.00000</ele>
        <time>2010-01-02T04:49:59Z</time>
      </trkpt>
      <trkpt lat="46.05035000" lon="11.70142000">
        <ele>591.00000</ele>
        <time>2010-01-02T04:50:27Z</time>
      </trkpt>
      <trkpt lat="46.05038000" lon="11.70142000">
        <ele>592.00000</ele>
        <time>2010-01-02T04:50:28Z</time>
      </trkpt>
      <trkpt lat="46.05068000" lon="11.70147000">
        <ele>590.00000</ele>
        <time>2010-01-02T04:50:40Z</time>
      </trkpt>
      <trkpt lat="46.05065000" lon="11.70125000">
        <ele>600.00000</ele>
        <time>2010-01-02T04:50:47Z</time>
      </trkpt>
      <trkpt lat="46.05035000" lon="11.70125000">
        <ele>599.00000</ele>
        <time>2010-01-02T04:50:59Z</time>
      </trkpt>
      <trkpt lat="46.04838000" lon="11.70099000">
        <ele>618.00000</ele>
        <time>2010-01-02T04:52:18Z</time>
      </trkpt>
      <trkpt lat="46.04781000" lon="11.70087000">
        <ele>629.00000</ele>
        <time>2010-01-02T04:52:41Z</time>
      </trkpt>
      <trkpt lat="46.04720000" lon="11.70099000">
        <ele>632.00000</ele>
        <time>2010-01-02T04:53:06Z</time>
      </trkpt>
      <trkpt lat="46.04640000" lon="11.70147000">
        <ele>622.00000</ele>
        <time>2010-01-02T04:53:40Z</time>
      </trkpt>
      <trkpt lat="46.04637000" lon="11.70121000">
        <ele>631.00000</ele>
        <time>2010-01-02T04:53:48Z</time>
      </trkpt>
      <trkpt lat="46.04700000" lon="11.70096000">
        <ele>637.00000</ele>
        <time>2010-01-02T04:54:14Z</time>
      </trkpt>
      <trkpt lat="46.04774000" lon="11.70043000">
        <ele>650.00000</ele>
        <time>2010-01-02T04:54:47Z</time>
      </trkpt>
      <trkpt lat="46.04781000" lon="11.70043000">
        <ele>650.00000</ele>
        <time>2010-01-02T04:54:50Z</time>
      </trkpt>
      <trkpt lat="46.04982000" lon="11.69982000">
        <ele>676.00000</ele>
        <time>2010-01-02T04:56:12Z</time>
      </trkpt>
      <trkpt lat="46.05035000" lon="11.69987000">
        <ele>675.00000</ele>
        <time>2010-01-02T04:56:33Z</time>
      </trkpt>
      <trkpt lat="46.05090000" lon="11.69987000">
        <ele>674.00000</ele>
        <time>2010-01-02T04:56:55Z</time>
      </trkpt>
      <trkpt lat="46.05131000" lon="11.69979000">
        <ele>672.00000</ele>
        <time>2010-01-02T04:57:12Z</time>
      </trkpt>
      <trkpt lat="46.05267000" lon="11.69900000">
        <ele>685.00000</ele>
        <time>2010-01-02T04:58:10Z</time>
      </trkpt>
      <trkpt lat="46.05306000" lon="11.69853000">
        <ele>688.00000</ele>
        <time>2010-01-02T04:58:31Z</time>
      </trkpt>
      <trkpt lat="46.05369000" lon="11.69723000">
        <ele>717.00000</ele>
        <time>2010-01-02T04:59:15Z</time>
      </trkpt>
      <trkpt lat="46.05393000" lon="11.69710000">
        <ele>714.00000</ele>
        <time>2010-01-02T04:59:25Z</time>
      </trkpt>
      <trkpt lat="46.05417000" lon="11.69697000">
        <ele>710.00000</ele>
        <time>2010-01-02T04:59:35Z</time>
      </trkpt>
      <trkpt lat="46.05447000" lon="11.69654000">
        <ele>727.00000</ele>
        <time>2010-01-02T04:59:52Z</time>
      </trkpt>
      <trkpt lat="46.05459000" lon="11.69645000">
        <ele>730.00000</ele>
        <time>2010-01-02T04:59:58Z</time>
      </trkpt>
      <trkpt lat="46.05501000" lon="11.69650000">
        <ele>713.00000</ele>
        <time>2010-01-02T05:00:15Z</time>
      </trkpt>
      <trkpt lat="46.05543000" lon="11.69597000">
        <ele>741.00000</ele>
        <time>2010-01-02T05:00:37Z</time>
      </trkpt>
      <trkpt lat="46.05593990" lon="11.69615000">
        <ele>722.00000</ele>
        <time>2010-01-02T05:00:58Z</time>
      </trkpt>
      <trkpt lat="46.05687000" lon="11.69611000">
        <ele>716.00000</ele>
        <time>2010-01-02T05:01:35Z</time>
      </trkpt>
      <trkpt lat="46.05713990" lon="11.69568000">
        <ele>735.00000</ele>
        <time>2010-01-02T05:01:51Z</time>
      </trkpt>
      <trkpt lat="46.05743990" lon="11.69468000">
        <ele>749.00000</ele>
        <time>2010-01-02T05:02:22Z</time>
      </trkpt>
      <trkpt lat="46.05784000" lon="11.69358000">
        <ele>761.00000</ele>
        <time>2010-01-02T05:02:56Z</time>
      </trkpt>
      <trkpt lat="46.05785000" lon="11.69359000">
        <ele>760.00000</ele>
        <time>2010-01-02T05:02:56Z</time>
      </trkpt>
      <trkpt lat="46.05784000" lon="11.69358000">
        <ele>761.00000</ele>
        <time>2010-01-02T05:02:57Z</time>
      </trkpt>
      <trkpt lat="46.05798000" lon="11.69321000">
        <ele>766.00000</ele>
        <time>2010-01-02T05:03:09Z</time>
      </trkpt>
      <trkpt lat="46.05828000" lon="11.69286000">
        <ele>767.00000</ele>
        <time>2010-01-02T05:03:24Z</time>
      </trkpt>
      <trkpt lat="46.05852000" lon="11.69282000">
        <ele>766.00000</ele>
        <time>2010-01-02T05:03:34Z</time>
      </trkpt>
      <trkpt lat="46.05899990" lon="11.69295000">
        <ele>762.00000</ele>
        <time>2010-01-02T05:03:53Z</time>
      </trkpt>
      <trkpt lat="46.05975000" lon="11.69239000">
        <ele>774.00000</ele>
        <time>2010-01-02T05:04:27Z</time>
      </trkpt>
      <trkpt lat="46.06044000" lon="11.69187000">
        <ele>769.00000</ele>
        <time>2010-01-02T05:04:58Z</time>
      </trkpt>
      <trkpt lat="46.06068000" lon="11.69135000">
        <ele>770.00000</ele>
        <time>2010-01-02T05:05:16Z</time>
      </trkpt>
      <trkpt lat="46.06065000" lon="11.69105000">
        <ele>774.00000</ele>
        <time>2010-01-02T05:05:24Z</time>
      </trkpt>
      <trkpt lat="46.06047000" lon="11.69074000">
        <ele>782.00000</ele>
        <time>2010-01-02T05:05:35Z</time>
      </trkpt>
      <trkpt lat="46.06011000" lon="11.69031000">
        <ele>795.00000</ele>
        <time>2010-01-02T05:05:54Z</time>
      </trkpt>
      <trkpt lat="46.05969000" lon="11.69031000">
        <ele>801.00000</ele>
        <time>2010-01-02T05:06:11Z</time>
      </trkpt>
      <trkpt lat="46.05903000" lon="11.69049000">
        <ele>808.00000</ele>
        <time>2010-01-02T05:06:38Z</time>
      </trkpt>
      <trkpt lat="46.05837000" lon="11.69088000">
        <ele>811.00000</ele>
        <time>2010-01-02T05:07:06Z</time>
      </trkpt>
      <trkpt lat="46.05798000" lon="11.69140000">
        <ele>812.00000</ele>
        <time>2010-01-02T05:07:28Z</time>
      </trkpt>
      <trkpt lat="46.05779990" lon="11.69161000">
        <ele>815.00000</ele>
        <time>2010-01-02T05:07:37Z</time>
      </trkpt>
      <trkpt lat="46.05738000" lon="11.69265000">
        <ele>806.00000</ele>
        <time>2010-01-02T05:08:10Z</time>
      </trkpt>
      <trkpt lat="46.05726000" lon="11.69256000">
        <ele>815.00000</ele>
        <time>2010-01-02T05:08:16Z</time>
      </trkpt>
      <trkpt lat="46.05749990" lon="11.69187000">
        <ele>820.00000</ele>
        <time>2010-01-02T05:08:37Z</time>
      </trkpt>
      <trkpt lat="46.05779990" lon="11.69057000">
        <ele>835.00000</ele>
        <time>2010-01-02T05:09:15Z</time>
      </trkpt>
      <trkpt lat="46.05798000" lon="11.69009000">
        <ele>840.00000</ele>
        <time>2010-01-02T05:09:30Z</time>
      </trkpt>
      <trkpt lat="46.05831000" lon="11.68997000">
        <ele>834.00000</ele>
        <time>2010-01-02T05:09:44Z</time>
      </trkpt>
      <trkpt lat="46.05867000" lon="11.68945000">
        <ele>840.00000</ele>
        <time>2010-01-02T05:10:04Z</time>
      </trkpt>
      <trkpt lat="46.05870000" lon="11.68936000">
        <ele>842.00000</ele>
        <time>2010-01-02T05:10:07Z</time>
      </trkpt>
      <trkpt lat="46.05906000" lon="11.68867000">
        <ele>849.00000</ele>
        <time>2010-01-02T05:10:31Z</time>
      </trkpt>
      <trkpt lat="46.05935990" lon="11.68828000">
        <ele>850.00000</ele>
        <time>2010-01-02T05:10:47Z</time>
      </trkpt>
      <trkpt lat="46.05981000" lon="11.68793000">
        <ele>841.00000</ele>
        <time>2010-01-02T05:11:08Z</time>
      </trkpt>
      <trkpt lat="46.05981000" lon="11.68767000">
        <ele>840.00000</ele>
        <time>2010-01-02T05:11:15Z</time>
      </trkpt>
      <trkpt lat="46.05924000" lon="11.68746000">
        <ele>855.00000</ele>
        <time>2010-01-02T05:11:39Z</time>
      </trkpt>
      <trkpt lat="46.05915000" lon="11.68711000">
        <ele>858.00000</ele>
        <time>2010-01-02T05:11:49Z</time>
      </trkpt>
      <trkpt lat="46.05951000" lon="11.68516000">
        <ele>857.00000</ele>
        <time>2010-01-02T05:12:45Z</time>
      </trkpt>
      <trkpt lat="46.05978000" lon="11.68438000">
        <ele>850.00000</ele>
        <time>2010-01-02T05:13:09Z</time>
      </trkpt>
      <trkpt lat="46.05978000" lon="11.68356000">
        <ele>858.00000</ele>
        <time>2010-01-02T05:13:32Z</time>
      </trkpt>
      <trkpt lat="46.05966000" lon="11.68257000">
        <ele>876.00000</ele>
        <time>2010-01-02T05:14:00Z</time>
      </trkpt>
      <trkpt lat="46.05987000" lon="11.68162000">
        <ele>864.00000</ele>
        <time>2010-01-02T05:14:28Z</time>
      </trkpt>
      <trkpt lat="46.06056000" lon="11.67907000">
        <ele>881.00000</ele>
        <time>2010-01-02T05:15:44Z</time>
      </trkpt>
      <trkpt lat="46.06080000" lon="11.67846000">
        <ele>877.00000</ele>
        <time>2010-01-02T05:16:03Z</time>
      </trkpt>
      <trkpt lat="46.06101000" lon="11.67785000">
        <ele>879.00000</ele>
        <time>2010-01-02T05:16:22Z</time>
      </trkpt>
      <trkpt lat="46.06116000" lon="11.67738000">
        <ele>881.00000</ele>
        <time>2010-01-02T05:16:36Z</time>
      </trkpt>
      <trkpt lat="46.06161000" lon="11.67699000">
        <ele>863.00000</ele>
        <time>2010-01-02T05:16:57Z</time>
      </trkpt>
      <trkpt lat="46.06209000" lon="11.67574000">
        <ele>865.00000</ele>
        <time>2010-01-02T05:17:37Z</time>
      </trkpt>
      <trkpt lat="46.06257000" lon="11.67491000">
        <ele>864.00000</ele>
        <time>2010-01-02T05:18:07Z</time>
      </trkpt>
      <trkpt lat="46.06254000" lon="11.67431000">
        <ele>885.00000</ele>
        <time>2010-01-02T05:18:24Z</time>
      </trkpt>
      <trkpt lat="46.06206000" lon="11.67396000">
        <ele>913.00000</ele>
        <time>2010-01-02T05:18:45Z</time>
      </trkpt>
      <trkpt lat="46.06188000" lon="11.67340000">
        <ele>914.00000</ele>
        <time>2010-01-02T05:19:02Z</time>
      </trkpt>
      <trkpt lat="46.06239000" lon="11.67193000">
        <ele>897.00000</ele>
        <time>2010-01-02T05:19:48Z</time>
      </trkpt>
      <trkpt lat="46.06235990" lon="11.67132000">
        <ele>893.00000</ele>
        <time>2010-01-02T05:20:05Z</time>
      </trkpt>
      <trkpt lat="46.06216000" lon="11.67033000">
        <ele>894.00000</ele>
        <time>2010-01-02T05:20:34Z</time>
      </trkpt>
      <trkpt lat="46.06206000" lon="11.66834000">
        <ele>888.00000</ele>
        <time>2010-01-02T05:21:29Z</time>
      </trkpt>
      <trkpt lat="46.06206000" lon="11.66747000">
        <ele>880.00000</ele>
        <time>2010-01-02T05:21:53Z</time>
      </trkpt>
      <trkpt lat="46.06206000" lon="11.66674000">
        <ele>879.00000</ele>
        <time>2010-01-02T05:22:14Z</time>
      </trkpt>
      <trkpt lat="46.06233000" lon="11.66557000">
        <ele>865.00000</ele>
        <time>2010-01-02T05:22:48Z</time>
      </trkpt>
      <trkpt lat="46.06242000" lon="11.66501000">
        <ele>864.00000</ele>
        <time>2010-01-02T05:23:04Z</time>
      </trkpt>
      <trkpt lat="46.06287000" lon="11.66401000">
        <ele>861.00000</ele>
        <time>2010-01-02T05:23:37Z</time>
      </trkpt>
      <trkpt lat="46.06326000" lon="11.66281000">
        <ele>857.00000</ele>
        <time>2010-01-02T05:24:14Z</time>
      </trkpt>
      <trkpt lat="46.06349990" lon="11.66107000">
        <ele>881.00000</ele>
        <time>2010-01-02T05:25:03Z</time>
      </trkpt>
      <trkpt lat="46.06387000" lon="11.66047000">
        <ele>869.00000</ele>
        <time>2010-01-02T05:25:25Z</time>
      </trkpt>
      <trkpt lat="46.06420000" lon="11.65770000">
        <ele>870.00000</ele>
        <time>2010-01-02T05:26:43Z</time>
      </trkpt>
      <trkpt lat="46.06420000" lon="11.65679000">
        <ele>879.00000</ele>
        <time>2010-01-02T05:27:09Z</time>
      </trkpt>
      <trkpt lat="46.06425000" lon="11.65649000">
        <ele>880.00000</ele>
        <time>2010-01-02T05:27:17Z</time>
      </trkpt>
      <trkpt lat="46.06461000" lon="11.65476000">
        <ele>889.00000</ele>
        <time>2010-01-02T05:28:07Z</time>
      </trkpt>
      <trkpt lat="46.06494000" lon="11.65354000">
        <ele>887.00000</ele>
        <time>2010-01-02T05:28:44Z</time>
      </trkpt>
      <trkpt lat="46.06498000" lon="11.65354000">
        <ele>886.00000</ele>
        <time>2010-01-02T05:28:45Z</time>
      </trkpt>
      <trkpt lat="46.06554000" lon="11.65433000">
        <ele>891.00000</ele>
        <time>2010-01-02T05:29:17Z</time>
      </trkpt>
      <trkpt lat="46.06560990" lon="11.65433000">
        <ele>893.00000</ele>
        <time>2010-01-02T05:29:19Z</time>
      </trkpt>
      <trkpt lat="46.06591000" lon="11.65437000">
        <ele>899.00000</ele>
        <time>2010-01-02T05:29:32Z</time>
      </trkpt>
      <trkpt lat="46.06596000" lon="11.65433000">
        <ele>899.00000</ele>
        <time>2010-01-02T05:29:34Z</time>
      </trkpt>
      <trkpt lat="46.06702000" lon="11.65247000">
        <ele>889.00000</ele>
        <time>2010-01-02T05:30:41Z</time>
      </trkpt>
      <trkpt lat="46.06713000" lon="11.65182000">
        <ele>883.00000</ele>
        <time>2010-01-02T05:30:59Z</time>
      </trkpt>
      <trkpt lat="46.06722000" lon="11.64957000">
        <ele>876.00000</ele>
        <time>2010-01-02T05:32:02Z</time>
      </trkpt>
      <trkpt lat="46.06762000" lon="11.64836000">
        <ele>872.00000</ele>
        <time>2010-01-02T05:32:39Z</time>
      </trkpt>
      <trkpt lat="46.06785000" lon="11.64749000">
        <ele>871.00000</ele>
        <time>2010-01-02T05:33:05Z</time>
      </trkpt>
      <trkpt lat="46.06830000" lon="11.64641000">
        <ele>860.00000</ele>
        <time>2010-01-02T05:33:40Z</time>
      </trkpt>
      <trkpt lat="46.06828000" lon="11.64602000">
        <ele>859.00000</ele>
        <time>2010-01-02T05:33:51Z</time>
      </trkpt>
      <trkpt lat="46.06815000" lon="11.64550000">
        <ele>862.00000</ele>
        <time>2010-01-02T05:34:06Z</time>
      </trkpt>
      <trkpt lat="46.06766990" lon="11.64334000">
        <ele>866.00000</ele>
        <time>2010-01-02T05:35:09Z</time>
      </trkpt>
      <trkpt lat="46.06750000" lon="11.64075000">
        <ele>854.00000</ele>
        <time>2010-01-02T05:36:21Z</time>
      </trkpt>
      <trkpt lat="46.06674000" lon="11.63693000">
        <ele>855.00000</ele>
        <time>2010-01-02T05:38:12Z</time>
      </trkpt>
      <trkpt lat="46.06657000" lon="11.63633000">
        <ele>855.00000</ele>
        <time>2010-01-02T05:38:30Z</time>
      </trkpt>
      <trkpt lat="46.06626000" lon="11.63512000">
        <ele>851.00000</ele>
        <time>2010-01-02T05:39:06Z</time>
      </trkpt>
      <trkpt lat="46.06611000" lon="11.63451000">
        <ele>850.00000</ele>
        <time>2010-01-02T05:39:24Z</time>
      </trkpt>
      <trkpt lat="46.06587000" lon="11.63421000">
        <ele>856.00000</ele>
        <time>2010-01-02T05:39:36Z</time>
      </trkpt>
      <trkpt lat="46.06577990" lon="11.63413000">
        <ele>858.00000</ele>
        <time>2010-01-02T05:39:41Z</time>
      </trkpt>
      <trkpt lat="46.06566000" lon="11.63399000">
        <ele>858.00000</ele>
        <time>2010-01-02T05:39:47Z</time>
      </trkpt>
      <trkpt lat="46.06560990" lon="11.63396000">
        <ele>859.00000</ele>
        <time>2010-01-02T05:39:49Z</time>
      </trkpt>
      <trkpt lat="46.06533000" lon="11.63365000">
        <ele>861.00000</ele>
        <time>2010-01-02T05:40:03Z</time>
      </trkpt>
      <trkpt lat="46.06518000" lon="11.63352000">
        <ele>863.00000</ele>
        <time>2010-01-02T05:40:10Z</time>
      </trkpt>
      <trkpt lat="46.06503000" lon="11.63335000">
        <ele>865.00000</ele>
        <time>2010-01-02T05:40:18Z</time>
      </trkpt>
      <trkpt lat="46.06494000" lon="11.63330000">
        <ele>865.00000</ele>
        <time>2010-01-02T05:40:22Z</time>
      </trkpt>
      <trkpt lat="46.06485000" lon="11.63322000">
        <ele>865.00000</ele>
        <time>2010-01-02T05:40:26Z</time>
      </trkpt>
      <trkpt lat="46.06473000" lon="11.63308000">
        <ele>865.00000</ele>
        <time>2010-01-02T05:40:32Z</time>
      </trkpt>
      <trkpt lat="46.06468000" lon="11.63300000">
        <ele>864.00000</ele>
        <time>2010-01-02T05:40:35Z</time>
      </trkpt>
      <trkpt lat="46.06455000" lon="11.63270000">
        <ele>863.00000</ele>
        <time>2010-01-02T05:40:45Z</time>
      </trkpt>
      <trkpt lat="46.06446000" lon="11.63231000">
        <ele>862.00000</ele>
        <time>2010-01-02T05:40:56Z</time>
      </trkpt>
      <trkpt lat="46.06452000" lon="11.63153000">
        <ele>862.00000</ele>
        <time>2010-01-02T05:41:18Z</time>
      </trkpt>
      <trkpt lat="46.06488000" lon="11.62971000">
        <ele>861.00000</ele>
        <time>2010-01-02T05:42:11Z</time>
      </trkpt>
      <trkpt lat="46.06503000" lon="11.62902000">
        <ele>855.00000</ele>
        <time>2010-01-02T05:42:31Z</time>
      </trkpt>
      <trkpt lat="46.06506000" lon="11.62889000">
        <ele>853.00000</ele>
        <time>2010-01-02T05:42:34Z</time>
      </trkpt>
      <trkpt lat="46.06530990" lon="11.62863000">
        <ele>853.00000</ele>
        <time>2010-01-02T05:42:47Z</time>
      </trkpt>
      <trkpt lat="46.06542000" lon="11.62833000">
        <ele>850.00000</ele>
        <time>2010-01-02T05:42:56Z</time>
      </trkpt>
      <trkpt lat="46.06530990" lon="11.62820000">
        <ele>845.00000</ele>
        <time>2010-01-02T05:43:02Z</time>
      </trkpt>
      <trkpt lat="46.06506000" lon="11.62863000">
        <ele>849.00000</ele>
        <time>2010-01-02T05:43:17Z</time>
      </trkpt>
      <trkpt lat="46.06461000" lon="11.62919000">
        <ele>847.00000</ele>
        <time>2010-01-02T05:43:41Z</time>
      </trkpt>
      <trkpt lat="46.06446000" lon="11.62971000">
        <ele>849.00000</ele>
        <time>2010-01-02T05:43:57Z</time>
      </trkpt>
      <trkpt lat="46.06435000" lon="11.62980000">
        <ele>847.00000</ele>
        <time>2010-01-02T05:44:02Z</time>
      </trkpt>
      <trkpt lat="46.06427990" lon="11.62963000">
        <ele>843.00000</ele>
        <time>2010-01-02T05:44:07Z</time>
      </trkpt>
      <trkpt lat="46.06458000" lon="11.62794000">
        <ele>828.00000</ele>
        <time>2010-01-02T05:44:56Z</time>
      </trkpt>
      <trkpt lat="46.06560990" lon="11.62665000">
        <ele>817.00000</ele>
        <time>2010-01-02T05:45:51Z</time>
      </trkpt>
      <trkpt lat="46.06576000" lon="11.62643000">
        <ele>814.00000</ele>
        <time>2010-01-02T05:45:59Z</time>
      </trkpt>
      <trkpt lat="46.06641000" lon="11.62591000">
        <ele>803.00000</ele>
        <time>2010-01-02T05:46:29Z</time>
      </trkpt>
      <trkpt lat="46.06665000" lon="11.62578000">
        <ele>800.00000</ele>
        <time>2010-01-02T05:46:39Z</time>
      </trkpt>
      <trkpt lat="46.06702000" lon="11.62600000">
        <ele>798.00000</ele>
        <time>2010-01-02T05:46:55Z</time>
      </trkpt>
      <trkpt lat="46.06765000" lon="11.62682000">
        <ele>798.00000</ele>
        <time>2010-01-02T05:47:29Z</time>
      </trkpt>
      <trkpt lat="46.06785000" lon="11.62720000">
        <ele>800.00000</ele>
        <time>2010-01-02T05:47:42Z</time>
      </trkpt>
      <trkpt lat="46.06800000" lon="11.62725000">
        <ele>797.00000</ele>
        <time>2010-01-02T05:47:49Z</time>
      </trkpt>
      <trkpt lat="46.06821000" lon="11.62691000">
        <ele>791.00000</ele>
        <time>2010-01-02T05:48:01Z</time>
      </trkpt>
      <trkpt lat="46.06869000" lon="11.62556000">
        <ele>786.00000</ele>
        <time>2010-01-02T05:48:43Z</time>
      </trkpt>
      <trkpt lat="46.06939000" lon="11.62370000">
        <ele>789.00000</ele>
        <time>2010-01-02T05:49:42Z</time>
      </trkpt>
      <trkpt lat="46.06944000" lon="11.62352000">
        <ele>789.00000</ele>
        <time>2010-01-02T05:49:47Z</time>
      </trkpt>
      <trkpt lat="46.06969000" lon="11.62288000">
        <ele>787.00000</ele>
        <time>2010-01-02T05:50:08Z</time>
      </trkpt>
      <trkpt lat="46.06988990" lon="11.62266000">
        <ele>786.00000</ele>
        <time>2010-01-02T05:50:18Z</time>
      </trkpt>
      <trkpt lat="46.07077000" lon="11.62206000">
        <ele>792.00000</ele>
        <time>2010-01-02T05:50:57Z</time>
      </trkpt>
      <trkpt lat="46.07113000" lon="11.62184000">
        <ele>792.00000</ele>
        <time>2010-01-02T05:51:13Z</time>
      </trkpt>
      <trkpt lat="46.07140000" lon="11.62115000">
        <ele>785.00000</ele>
        <time>2010-01-02T05:51:35Z</time>
      </trkpt>
      <trkpt lat="46.07118000" lon="11.62037000">
        <ele>780.00000</ele>
        <time>2010-01-02T05:51:58Z</time>
      </trkpt>
      <trkpt lat="46.07107000" lon="11.62007000">
        <ele>782.00000</ele>
        <time>2010-01-02T05:52:07Z</time>
      </trkpt>
      <trkpt lat="46.07032000" lon="11.61929000">
        <ele>796.00000</ele>
        <time>2010-01-02T05:52:44Z</time>
      </trkpt>
      <trkpt lat="46.06941000" lon="11.61821000">
        <ele>811.00000</ele>
        <time>2010-01-02T05:53:32Z</time>
      </trkpt>
      <trkpt lat="46.06916990" lon="11.61816000">
        <ele>808.00000</ele>
        <time>2010-01-02T05:53:41Z</time>
      </trkpt>
      <trkpt lat="46.06833000" lon="11.61852000">
        <ele>811.00000</ele>
        <time>2010-01-02T05:54:16Z</time>
      </trkpt>
      <trkpt lat="46.06791000" lon="11.61903000">
        <ele>803.00000</ele>
        <time>2010-01-02T05:54:38Z</time>
      </trkpt>
      <trkpt lat="46.06732000" lon="11.61890000">
        <ele>817.00000</ele>
        <time>2010-01-02T05:55:02Z</time>
      </trkpt>
      <trkpt lat="46.06659000" lon="11.61903000">
        <ele>814.00000</ele>
        <time>2010-01-02T05:55:32Z</time>
      </trkpt>
      <trkpt lat="46.06647000" lon="11.61895000">
        <ele>814.00000</ele>
        <time>2010-01-02T05:55:37Z</time>
      </trkpt>
      <trkpt lat="46.06609000" lon="11.61834000">
        <ele>823.00000</ele>
        <time>2010-01-02T05:56:00Z</time>
      </trkpt>
      <trkpt lat="46.06576000" lon="11.61743000">
        <ele>828.00000</ele>
        <time>2010-01-02T05:56:28Z</time>
      </trkpt>
      <trkpt lat="46.06594000" lon="11.61691000">
        <ele>830.00000</ele>
        <time>2010-01-02T05:56:44Z</time>
      </trkpt>
      <trkpt lat="46.06638990" lon="11.61604000">
        <ele>834.00000</ele>
        <time>2010-01-02T05:57:15Z</time>
      </trkpt>
      <trkpt lat="46.06669000" lon="11.61522000">
        <ele>837.00000</ele>
        <time>2010-01-02T05:57:40Z</time>
      </trkpt>
      <trkpt lat="46.06713000" lon="11.61441000">
        <ele>843.00000</ele>
        <time>2010-01-02T05:58:09Z</time>
      </trkpt>
      <trkpt lat="46.06752000" lon="11.61345000">
        <ele>839.00000</ele>
        <time>2010-01-02T05:58:40Z</time>
      </trkpt>
      <trkpt lat="46.06765000" lon="11.61302000">
        <ele>838.00000</ele>
        <time>2010-01-02T05:58:53Z</time>
      </trkpt>
      <trkpt lat="46.06770000" lon="11.61280000">
        <ele>838.00000</ele>
        <time>2010-01-02T05:58:59Z</time>
      </trkpt>
      <trkpt lat="46.06776000" lon="11.61254000">
        <ele>837.00000</ele>
        <time>2010-01-02T05:59:07Z</time>
      </trkpt>
      <trkpt lat="46.06806000" lon="11.61077000">
        <ele>834.00000</ele>
        <time>2010-01-02T05:59:57Z</time>
      </trkpt>
      <trkpt lat="46.06815000" lon="11.61008000">
        <ele>832.00000</ele>
        <time>2010-01-02T06:00:17Z</time>
      </trkpt>
      <trkpt lat="46.06783000" lon="11.60865000">
        <ele>829.00000</ele>
        <time>2010-01-02T06:00:59Z</time>
      </trkpt>
      <trkpt lat="46.06770000" lon="11.60805000">
        <ele>828.00000</ele>
        <time>2010-01-02T06:01:16Z</time>
      </trkpt>
      <trkpt lat="46.06770000" lon="11.60757000">
        <ele>828.00000</ele>
        <time>2010-01-02T06:01:29Z</time>
      </trkpt>
      <trkpt lat="46.06783000" lon="11.60718000">
        <ele>830.00000</ele>
        <time>2010-01-02T06:01:41Z</time>
      </trkpt>
      <trkpt lat="46.06806000" lon="11.60657000">
        <ele>832.00000</ele>
        <time>2010-01-02T06:02:01Z</time>
      </trkpt>
      <trkpt lat="46.06851000" lon="11.60566000">
        <ele>837.00000</ele>
        <time>2010-01-02T06:02:32Z</time>
      </trkpt>
      <trkpt lat="46.06869000" lon="11.60485000">
        <ele>844.00000</ele>
        <time>2010-01-02T06:02:55Z</time>
      </trkpt>
      <trkpt lat="46.06863000" lon="11.60389000">
        <ele>845.00000</ele>
        <time>2010-01-02T06:03:22Z</time>
      </trkpt>
      <trkpt lat="46.06858000" lon="11.60289000">
        <ele>847.00000</ele>
        <time>2010-01-02T06:03:50Z</time>
      </trkpt>
      <trkpt lat="46.06866000" lon="11.60220000">
        <ele>849.00000</ele>
        <time>2010-01-02T06:04:09Z</time>
      </trkpt>
      <trkpt lat="46.06896000" lon="11.60155000">
        <ele>852.00000</ele>
        <time>2010-01-02T06:04:31Z</time>
      </trkpt>
      <trkpt lat="46.06899000" lon="11.60155000">
        <ele>853.00000</ele>
        <time>2010-01-02T06:04:32Z</time>
      </trkpt>
      <trkpt lat="46.06916990" lon="11.60129000">
        <ele>855.00000</ele>
        <time>2010-01-02T06:04:42Z</time>
      </trkpt>
      <trkpt lat="46.06987000" lon="11.60026000">
        <ele>867.00000</ele>
        <time>2010-01-02T06:05:23Z</time>
      </trkpt>
      <trkpt lat="46.07004000" lon="11.59940000">
        <ele>872.00000</ele>
        <time>2010-01-02T06:05:47Z</time>
      </trkpt>
      <trkpt lat="46.07007000" lon="11.59749000">
        <ele>890.00000</ele>
        <time>2010-01-02T06:06:40Z</time>
      </trkpt>
      <trkpt lat="46.06999000" lon="11.59563000">
        <ele>895.00000</ele>
        <time>2010-01-02T06:07:32Z</time>
      </trkpt>
      <trkpt lat="46.07016990" lon="11.59442000">
        <ele>910.00000</ele>
        <time>2010-01-02T06:08:07Z</time>
      </trkpt>
      <trkpt lat="46.07032000" lon="11.59399000">
        <ele>917.00000</ele>
        <time>2010-01-02T06:08:20Z</time>
      </trkpt>
      <trkpt lat="46.07052000" lon="11.59338000">
        <ele>923.00000</ele>
        <time>2010-01-02T06:08:39Z</time>
      </trkpt>
      <trkpt lat="46.07118000" lon="11.59152000">
        <ele>923.00000</ele>
        <time>2010-01-02T06:09:37Z</time>
      </trkpt>
      <trkpt lat="46.07166000" lon="11.59096000">
        <ele>907.00000</ele>
        <time>2010-01-02T06:10:01Z</time>
      </trkpt>
      <trkpt lat="46.07226000" lon="11.59057000">
        <ele>908.00000</ele>
        <time>2010-01-02T06:10:28Z</time>
      </trkpt>
      <trkpt lat="46.07292000" lon="11.59013000">
        <ele>894.00000</ele>
        <time>2010-01-02T06:10:57Z</time>
      </trkpt>
      <trkpt lat="46.07322000" lon="11.59001000">
        <ele>888.00000</ele>
        <time>2010-01-02T06:11:09Z</time>
      </trkpt>
      <trkpt lat="46.07332000" lon="11.58996000">
        <ele>887.00000</ele>
        <time>2010-01-02T06:11:14Z</time>
      </trkpt>
      <trkpt lat="46.07400000" lon="11.59005000">
        <ele>887.00000</ele>
        <time>2010-01-02T06:11:41Z</time>
      </trkpt>
      <trkpt lat="46.07463000" lon="11.58992000">
        <ele>890.00000</ele>
        <time>2010-01-02T06:12:06Z</time>
      </trkpt>
      <trkpt lat="46.07596000" lon="11.58888000">
        <ele>891.00000</ele>
        <time>2010-01-02T06:13:07Z</time>
      </trkpt>
      <trkpt lat="46.07602000" lon="11.58867000">
        <ele>889.00000</ele>
        <time>2010-01-02T06:13:13Z</time>
      </trkpt>
      <trkpt lat="46.07697000" lon="11.58352000">
        <ele>879.00000</ele>
        <time>2010-01-02T06:15:41Z</time>
      </trkpt>
      <trkpt lat="46.07707000" lon="11.58309000">
        <ele>879.00000</ele>
        <time>2010-01-02T06:15:54Z</time>
      </trkpt>
      <trkpt lat="46.07875000" lon="11.57958000">
        <ele>872.00000</ele>
        <time>2010-01-02T06:17:52Z</time>
      </trkpt>
      <trkpt lat="46.07944000" lon="11.57772000">
        <ele>873.00000</ele>
        <time>2010-01-02T06:18:51Z</time>
      </trkpt>
      <trkpt lat="46.07995000" lon="11.57612000">
        <ele>879.00000</ele>
        <time>2010-01-02T06:19:40Z</time>
      </trkpt>
      <trkpt lat="46.08060000" lon="11.57244000">
        <ele>899.00000</ele>
        <time>2010-01-02T06:21:25Z</time>
      </trkpt>
      <trkpt lat="46.08085000" lon="11.57215000">
        <ele>901.00000</ele>
        <time>2010-01-02T06:21:38Z</time>
      </trkpt>
      <trkpt lat="46.08166000" lon="11.57102000">
        <ele>884.00000</ele>
        <time>2010-01-02T06:22:23Z</time>
      </trkpt>
      <trkpt lat="46.08208000" lon="11.57046000">
        <ele>894.00000</ele>
        <time>2010-01-02T06:22:46Z</time>
      </trkpt>
      <trkpt lat="46.08253000" lon="11.56924000">
        <ele>900.00000</ele>
        <time>2010-01-02T06:23:24Z</time>
      </trkpt>
      <trkpt lat="46.08256000" lon="11.56859000">
        <ele>899.00000</ele>
        <time>2010-01-02T06:23:42Z</time>
      </trkpt>
      <trkpt lat="46.08256000" lon="11.56851000">
        <ele>899.00000</ele>
        <time>2010-01-02T06:23:45Z</time>
      </trkpt>
      <trkpt lat="46.08234000" lon="11.56704000">
        <ele>895.00000</ele>
        <time>2010-01-02T06:24:26Z</time>
      </trkpt>
      <trkpt lat="46.08196000" lon="11.56605000">
        <ele>884.00000</ele>
        <time>2010-01-02T06:24:58Z</time>
      </trkpt>
      <trkpt lat="46.08142000" lon="11.56462000">
        <ele>872.00000</ele>
        <time>2010-01-02T06:25:43Z</time>
      </trkpt>
      <trkpt lat="46.08147990" lon="11.56068000">
        <ele>852.00000</ele>
        <time>2010-01-02T06:27:32Z</time>
      </trkpt>
      <trkpt lat="46.08147990" lon="11.55969000">
        <ele>849.00000</ele>
        <time>2010-01-02T06:28:00Z</time>
      </trkpt>
      <trkpt lat="46.08133000" lon="11.55908000">
        <ele>846.00000</ele>
        <time>2010-01-02T06:28:18Z</time>
      </trkpt>
      <trkpt lat="46.08085000" lon="11.55796000">
        <ele>837.00000</ele>
        <time>2010-01-02T06:28:55Z</time>
      </trkpt>
      <trkpt lat="46.08069990" lon="11.55761000">
        <ele>834.00000</ele>
        <time>2010-01-02T06:29:06Z</time>
      </trkpt>
      <trkpt lat="46.08064000" lon="11.55735000">
        <ele>832.00000</ele>
        <time>2010-01-02T06:29:14Z</time>
      </trkpt>
      <trkpt lat="46.08052000" lon="11.55671000">
        <ele>828.00000</ele>
        <time>2010-01-02T06:29:32Z</time>
      </trkpt>
      <trkpt lat="46.08043000" lon="11.55566000">
        <ele>822.00000</ele>
        <time>2010-01-02T06:30:01Z</time>
      </trkpt>
      <trkpt lat="46.08030000" lon="11.55441000">
        <ele>814.00000</ele>
        <time>2010-01-02T06:30:36Z</time>
      </trkpt>
      <trkpt lat="46.08022000" lon="11.55385000">
        <ele>810.00000</ele>
        <time>2010-01-02T06:30:52Z</time>
      </trkpt>
      <trkpt lat="46.08019000" lon="11.55320000">
        <ele>804.00000</ele>
        <time>2010-01-02T06:31:10Z</time>
      </trkpt>
      <trkpt lat="46.08012000" lon="11.55272000">
        <ele>800.00000</ele>
        <time>2010-01-02T06:31:24Z</time>
      </trkpt>
      <trkpt lat="46.08016000" lon="11.55260000">
        <ele>799.00000</ele>
        <time>2010-01-02T06:31:28Z</time>
      </trkpt>
      <trkpt lat="46.08033990" lon="11.55255000">
        <ele>796.00000</ele>
        <time>2010-01-02T06:31:35Z</time>
      </trkpt>
      <trkpt lat="46.08085000" lon="11.55281000">
        <ele>794.00000</ele>
        <time>2010-01-02T06:31:57Z</time>
      </trkpt>
      <trkpt lat="46.08090000" lon="11.55286000">
        <ele>796.00000</ele>
        <time>2010-01-02T06:31:59Z</time>
      </trkpt>
      <trkpt lat="46.08160000" lon="11.55272000">
        <ele>800.00000</ele>
        <time>2010-01-02T06:32:27Z</time>
      </trkpt>
      <trkpt lat="46.08196000" lon="11.55264000">
        <ele>802.00000</ele>
        <time>2010-01-02T06:32:42Z</time>
      </trkpt>
      <trkpt lat="46.08274000" lon="11.55198000">
        <ele>788.00000</ele>
        <time>2010-01-02T06:33:18Z</time>
      </trkpt>
      <trkpt lat="46.08352000" lon="11.55147000">
        <ele>785.00000</ele>
        <time>2010-01-02T06:33:52Z</time>
      </trkpt>
      <trkpt lat="46.08373000" lon="11.55126000">
        <ele>786.00000</ele>
        <time>2010-01-02T06:34:03Z</time>
      </trkpt>
      <trkpt lat="46.08400000" lon="11.55095000">
        <ele>786.00000</ele>
        <time>2010-01-02T06:34:17Z</time>
      </trkpt>
      <trkpt lat="46.08409000" lon="11.55056000">
        <ele>786.00000</ele>
        <time>2010-01-02T06:34:28Z</time>
      </trkpt>
      <trkpt lat="46.08397000" lon="11.54987000">
        <ele>784.00000</ele>
        <time>2010-01-02T06:34:48Z</time>
      </trkpt>
      <trkpt lat="46.08379000" lon="11.54974000">
        <ele>783.00000</ele>
        <time>2010-01-02T06:34:56Z</time>
      </trkpt>
      <trkpt lat="46.08264000" lon="11.54901000">
        <ele>767.00000</ele>
        <time>2010-01-02T06:35:46Z</time>
      </trkpt>
      <trkpt lat="46.08127000" lon="11.54805000">
        <ele>753.00000</ele>
        <time>2010-01-02T06:36:47Z</time>
      </trkpt>
      <trkpt lat="46.08085000" lon="11.54767000">
        <ele>751.00000</ele>
        <time>2010-01-02T06:37:07Z</time>
      </trkpt>
      <trkpt lat="46.08004000" lon="11.54693000">
        <ele>740.00000</ele>
        <time>2010-01-02T06:37:45Z</time>
      </trkpt>
      <trkpt lat="46.07986000" lon="11.54662000">
        <ele>740.00000</ele>
        <time>2010-01-02T06:37:56Z</time>
      </trkpt>
      <trkpt lat="46.07863000" lon="11.54476000">
        <ele>724.00000</ele>
        <time>2010-01-02T06:39:08Z</time>
      </trkpt>
      <trkpt lat="46.07793000" lon="11.54325000">
        <ele>717.00000</ele>
        <time>2010-01-02T06:39:58Z</time>
      </trkpt>
      <trkpt lat="46.07769990" lon="11.54247000">
        <ele>722.00000</ele>
        <time>2010-01-02T06:40:22Z</time>
      </trkpt>
      <trkpt lat="46.07689000" lon="11.54208000">
        <ele>708.00000</ele>
        <time>2010-01-02T06:40:56Z</time>
      </trkpt>
      <trkpt lat="46.07677000" lon="11.54152000">
        <ele>716.00000</ele>
        <time>2010-01-02T06:41:12Z</time>
      </trkpt>
      <trkpt lat="46.07655990" lon="11.54131000">
        <ele>714.00000</ele>
        <time>2010-01-02T06:41:23Z</time>
      </trkpt>
      <trkpt lat="46.07593000" lon="11.54134000">
        <ele>692.00000</ele>
        <time>2010-01-02T06:41:48Z</time>
      </trkpt>
      <trkpt lat="46.07558990" lon="11.54108000">
        <ele>690.00000</ele>
        <time>2010-01-02T06:42:03Z</time>
      </trkpt>
      <trkpt lat="46.07430000" lon="11.53988000">
        <ele>690.00000</ele>
        <time>2010-01-02T06:43:05Z</time>
      </trkpt>
      <trkpt lat="46.07322000" lon="11.54009000">
        <ele>671.00000</ele>
        <time>2010-01-02T06:43:48Z</time>
      </trkpt>
      <trkpt lat="46.07173000" lon="11.54036000">
        <ele>649.00000</ele>
        <time>2010-01-02T06:44:48Z</time>
      </trkpt>
      <trkpt lat="46.07163000" lon="11.54027000">
        <ele>648.00000</ele>
        <time>2010-01-02T06:44:53Z</time>
      </trkpt>
      <trkpt lat="46.07140000" lon="11.53979000">
        <ele>645.00000</ele>
        <time>2010-01-02T06:45:09Z</time>
      </trkpt>
      <trkpt lat="46.07088000" lon="11.53862000">
        <ele>633.00000</ele>
        <time>2010-01-02T06:45:48Z</time>
      </trkpt>
      <trkpt lat="46.07088000" lon="11.53811000">
        <ele>635.00000</ele>
        <time>2010-01-02T06:46:02Z</time>
      </trkpt>
      <trkpt lat="46.07118000" lon="11.53706000">
        <ele>639.00000</ele>
        <time>2010-01-02T06:46:34Z</time>
      </trkpt>
      <trkpt lat="46.07102990" lon="11.53563000">
        <ele>626.00000</ele>
        <time>2010-01-02T06:47:14Z</time>
      </trkpt>
      <trkpt lat="46.07098000" lon="11.53499000">
        <ele>621.00000</ele>
        <time>2010-01-02T06:47:32Z</time>
      </trkpt>
      <trkpt lat="46.07107000" lon="11.53429000">
        <ele>624.00000</ele>
        <time>2010-01-02T06:47:51Z</time>
      </trkpt>
      <trkpt lat="46.07014000" lon="11.53170000">
        <ele>611.00000</ele>
        <time>2010-01-02T06:49:12Z</time>
      </trkpt>
      <trkpt lat="46.06888000" lon="11.53027000">
        <ele>588.00000</ele>
        <time>2010-01-02T06:50:17Z</time>
      </trkpt>
      <trkpt lat="46.06873000" lon="11.52984000">
        <ele>586.00000</ele>
        <time>2010-01-02T06:50:30Z</time>
      </trkpt>
      <trkpt lat="46.06899000" lon="11.52898000">
        <ele>590.00000</ele>
        <time>2010-01-02T06:50:56Z</time>
      </trkpt>
      <trkpt lat="46.06906000" lon="11.52855000">
        <ele>589.00000</ele>
        <time>2010-01-02T06:51:08Z</time>
      </trkpt>
      <trkpt lat="46.06902990" lon="11.52833000">
        <ele>586.00000</ele>
        <time>2010-01-02T06:51:14Z</time>
      </trkpt>
      <trkpt lat="46.06881000" lon="11.52781000">
        <ele>576.00000</ele>
        <time>2010-01-02T06:51:31Z</time>
      </trkpt>
      <trkpt lat="46.06881000" lon="11.52699000">
        <ele>570.00000</ele>
        <time>2010-01-02T06:51:54Z</time>
      </trkpt>
      <trkpt lat="46.06891000" lon="11.52599000">
        <ele>562.00000</ele>
        <time>2010-01-02T06:52:22Z</time>
      </trkpt>
      <trkpt lat="46.06899000" lon="11.52547000">
        <ele>553.00000</ele>
        <time>2010-01-02T06:52:37Z</time>
      </trkpt>
      <trkpt lat="46.06926000" lon="11.52521000">
        <ele>552.00000</ele>
        <time>2010-01-02T06:52:50Z</time>
      </trkpt>
      <trkpt lat="46.06988990" lon="11.52465000">
        <ele>548.00000</ele>
        <time>2010-01-02T06:53:20Z</time>
      </trkpt>
      <trkpt lat="46.07052000" lon="11.52409000">
        <ele>545.00000</ele>
        <time>2010-01-02T06:53:49Z</time>
      </trkpt>
      <trkpt lat="46.07125000" lon="11.52258000">
        <ele>538.00000</ele>
        <time>2010-01-02T06:54:40Z</time>
      </trkpt>
      <trkpt lat="46.07127990" lon="11.52214000">
        <ele>536.00000</ele>
        <time>2010-01-02T06:54:53Z</time>
      </trkpt>
      <trkpt lat="46.07098000" lon="11.52154000">
        <ele>530.00000</ele>
        <time>2010-01-02T06:55:13Z</time>
      </trkpt>
      <trkpt lat="46.07035000" lon="11.52093000">
        <ele>525.00000</ele>
        <time>2010-01-02T06:55:44Z</time>
      </trkpt>
      <trkpt lat="46.07019000" lon="11.52085000">
        <ele>523.00000</ele>
        <time>2010-01-02T06:55:50Z</time>
      </trkpt>
      <trkpt lat="46.06966000" lon="11.52115000">
        <ele>517.00000</ele>
        <time>2010-01-02T06:56:13Z</time>
      </trkpt>
      <trkpt lat="46.06929000" lon="11.52107000">
        <ele>516.00000</ele>
        <time>2010-01-02T06:56:28Z</time>
      </trkpt>
      <trkpt lat="46.06909000" lon="11.52115000">
        <ele>513.00000</ele>
        <time>2010-01-02T06:56:36Z</time>
      </trkpt>
      <trkpt lat="46.06876000" lon="11.52167000">
        <ele>503.00000</ele>
        <time>2010-01-02T06:56:56Z</time>
      </trkpt>
      <trkpt lat="46.06854000" lon="11.52210000">
        <ele>498.00000</ele>
        <time>2010-01-02T06:57:11Z</time>
      </trkpt>
      <trkpt lat="46.06846000" lon="11.52223000">
        <ele>497.00000</ele>
        <time>2010-01-02T06:57:16Z</time>
      </trkpt>
      <trkpt lat="46.06788000" lon="11.52387000">
        <ele>494.00000</ele>
        <time>2010-01-02T06:58:07Z</time>
      </trkpt>
      <trkpt lat="46.06773000" lon="11.52396000">
        <ele>492.00000</ele>
        <time>2010-01-02T06:58:13Z</time>
      </trkpt>
      <trkpt lat="46.06765000" lon="11.52387000">
        <ele>489.00000</ele>
        <time>2010-01-02T06:58:17Z</time>
      </trkpt>
      <trkpt lat="46.06747000" lon="11.52296000">
        <ele>485.00000</ele>
        <time>2010-01-02T06:58:44Z</time>
      </trkpt>
      <trkpt lat="46.06743000" lon="11.52270000">
        <ele>485.00000</ele>
        <time>2010-01-02T06:58:51Z</time>
      </trkpt>
      <trkpt lat="46.06732000" lon="11.52236000">
        <ele>485.00000</ele>
        <time>2010-01-02T06:59:01Z</time>
      </trkpt>
      <trkpt lat="46.06710000" lon="11.52223000">
        <ele>484.00000</ele>
        <time>2010-01-02T06:59:11Z</time>
      </trkpt>
      <trkpt lat="46.06669000" lon="11.52205000">
        <ele>482.00000</ele>
        <time>2010-01-02T06:59:28Z</time>
      </trkpt>
      <trkpt lat="46.06657000" lon="11.52197000">
        <ele>481.00000</ele>
        <time>2010-01-02T06:59:33Z</time>
      </trkpt>
      <trkpt lat="46.06620000" lon="11.52201000">
        <ele>476.00000</ele>
        <time>2010-01-02T06:59:48Z</time>
      </trkpt>
      <trkpt lat="46.06611000" lon="11.52214000">
        <ele>474.00000</ele>
        <time>2010-01-02T06:59:53Z</time>
      </trkpt>
      <trkpt lat="46.06599000" lon="11.52322000">
        <ele>468.00000</ele>
        <time>2010-01-02T07:00:24Z</time>
      </trkpt>
      <trkpt lat="46.06591000" lon="11.52331000">
        <ele>467.00000</ele>
        <time>2010-01-02T07:00:28Z</time>
      </trkpt>
      <trkpt lat="46.06560990" lon="11.52357000">
        <ele>463.00000</ele>
        <time>2010-01-02T07:00:42Z</time>
      </trkpt>
      <trkpt lat="46.06503000" lon="11.52401000">
        <ele>456.00000</ele>
        <time>2010-01-02T07:01:08Z</time>
      </trkpt>
      <trkpt lat="46.06470000" lon="11.52413000">
        <ele>453.00000</ele>
        <time>2010-01-02T07:01:22Z</time>
      </trkpt>
      <trkpt lat="46.06427990" lon="11.52404000">
        <ele>448.00000</ele>
        <time>2010-01-02T07:01:39Z</time>
      </trkpt>
      <trkpt lat="46.06389000" lon="11.52387000">
        <ele>443.00000</ele>
        <time>2010-01-02T07:01:55Z</time>
      </trkpt>
      <trkpt lat="46.06362000" lon="11.52370000">
        <ele>440.00000</ele>
        <time>2010-01-02T07:02:07Z</time>
      </trkpt>
      <trkpt lat="46.06329000" lon="11.52370000">
        <ele>437.00000</ele>
        <time>2010-01-02T07:02:20Z</time>
      </trkpt>
      <trkpt lat="46.06275000" lon="11.52396000">
        <ele>433.00000</ele>
        <time>2010-01-02T07:02:43Z</time>
      </trkpt>
      <trkpt lat="46.06235990" lon="11.52383000">
        <ele>429.00000</ele>
        <time>2010-01-02T07:02:59Z</time>
      </trkpt>
      <trkpt lat="46.06218000" lon="11.52339000">
        <ele>428.00000</ele>
        <time>2010-01-02T07:03:13Z</time>
      </trkpt>
      <trkpt lat="46.06188000" lon="11.52210000">
        <ele>423.00000</ele>
        <time>2010-01-02T07:03:51Z</time>
      </trkpt>
      <trkpt lat="46.06203000" lon="11.52136000">
        <ele>421.00000</ele>
        <time>2010-01-02T07:04:12Z</time>
      </trkpt>
      <trkpt lat="46.06212000" lon="11.52089000">
        <ele>420.00000</ele>
        <time>2010-01-02T07:04:26Z</time>
      </trkpt>
      <trkpt lat="46.06203000" lon="11.51864000">
        <ele>411.00000</ele>
        <time>2010-01-02T07:05:28Z</time>
      </trkpt>
      <trkpt lat="46.06170000" lon="11.51648000">
        <ele>401.00000</ele>
        <time>2010-01-02T07:06:30Z</time>
      </trkpt>
      <trkpt lat="46.06221000" lon="11.51583000">
        <ele>398.00000</ele>
        <time>2010-01-02T07:06:57Z</time>
      </trkpt>
      <trkpt lat="46.06254000" lon="11.51526000">
        <ele>396.00000</ele>
        <time>2010-01-02T07:07:18Z</time>
      </trkpt>
      <trkpt lat="46.06344000" lon="11.51366000">
        <ele>394.00000</ele>
        <time>2010-01-02T07:08:15Z</time>
      </trkpt>
      <trkpt lat="46.06357000" lon="11.51345000">
        <ele>394.00000</ele>
        <time>2010-01-02T07:08:23Z</time>
      </trkpt>
      <trkpt lat="46.06407000" lon="11.51254000">
        <ele>394.00000</ele>
        <time>2010-01-02T07:08:55Z</time>
      </trkpt>
      <trkpt lat="46.06431000" lon="11.51180000">
        <ele>394.00000</ele>
        <time>2010-01-02T07:09:18Z</time>
      </trkpt>
      <trkpt lat="46.06513000" lon="11.50912000">
        <ele>395.00000</ele>
        <time>2010-01-02T07:10:39Z</time>
      </trkpt>
      <trkpt lat="46.06513000" lon="11.50891000">
        <ele>395.00000</ele>
        <time>2010-01-02T07:10:45Z</time>
      </trkpt>
      <trkpt lat="46.06513000" lon="11.50865000">
        <ele>394.00000</ele>
        <time>2010-01-02T07:10:52Z</time>
      </trkpt>
      <trkpt lat="46.06494000" lon="11.50817000">
        <ele>392.00000</ele>
        <time>2010-01-02T07:11:07Z</time>
      </trkpt>
      <trkpt lat="46.06503000" lon="11.50809000">
        <ele>393.00000</ele>
        <time>2010-01-02T07:11:12Z</time>
      </trkpt>
      <trkpt lat="46.06513000" lon="11.50726000">
        <ele>393.00000</ele>
        <time>2010-01-02T07:11:35Z</time>
      </trkpt>
      <trkpt lat="46.06515000" lon="11.50666000">
        <ele>393.00000</ele>
        <time>2010-01-02T07:11:52Z</time>
      </trkpt>
      <trkpt lat="46.06515000" lon="11.50632000">
        <ele>393.00000</ele>
        <time>2010-01-02T07:12:01Z</time>
      </trkpt>
      <trkpt lat="46.06524000" lon="11.50588000">
        <ele>393.00000</ele>
        <time>2010-01-02T07:12:14Z</time>
      </trkpt>
      <trkpt lat="46.06554000" lon="11.50424000">
        <ele>395.00000</ele>
        <time>2010-01-02T07:13:01Z</time>
      </trkpt>
      <trkpt lat="46.06560990" lon="11.50406000">
        <ele>395.00000</ele>
        <time>2010-01-02T07:13:07Z</time>
      </trkpt>
      <trkpt lat="46.06572000" lon="11.50384000">
        <ele>395.00000</ele>
        <time>2010-01-02T07:13:14Z</time>
      </trkpt>
      <trkpt lat="46.06624000" lon="11.50311000">
        <ele>399.00000</ele>
        <time>2010-01-02T07:13:43Z</time>
      </trkpt>
      <trkpt lat="46.06654000" lon="11.50285000">
        <ele>401.00000</ele>
        <time>2010-01-02T07:13:57Z</time>
      </trkpt>
      <trkpt lat="46.06654000" lon="11.50268000">
        <ele>400.00000</ele>
        <time>2010-01-02T07:14:02Z</time>
      </trkpt>
      <trkpt lat="46.06657000" lon="11.50247000">
        <ele>399.00000</ele>
        <time>2010-01-02T07:14:08Z</time>
      </trkpt>
      <trkpt lat="46.06698000" lon="11.50130000">
        <ele>403.00000</ele>
        <time>2010-01-02T07:14:44Z</time>
      </trkpt>
      <trkpt lat="46.06743000" lon="11.49982000">
        <ele>401.00000</ele>
        <time>2010-01-02T07:15:29Z</time>
      </trkpt>
      <trkpt lat="46.06765000" lon="11.49961000">
        <ele>403.00000</ele>
        <time>2010-01-02T07:15:40Z</time>
      </trkpt>
      <trkpt lat="46.06791000" lon="11.49922000">
        <ele>406.00000</ele>
        <time>2010-01-02T07:15:55Z</time>
      </trkpt>
      <trkpt lat="46.06840000" lon="11.49874000">
        <ele>409.00000</ele>
        <time>2010-01-02T07:16:19Z</time>
      </trkpt>
      <trkpt lat="46.06840000" lon="11.49857000">
        <ele>408.00000</ele>
        <time>2010-01-02T07:16:23Z</time>
      </trkpt>
      <trkpt lat="46.06876000" lon="11.49836000">
        <ele>409.00000</ele>
        <time>2010-01-02T07:16:39Z</time>
      </trkpt>
      <trkpt lat="46.06899000" lon="11.49810000">
        <ele>409.00000</ele>
        <time>2010-01-02T07:16:51Z</time>
      </trkpt>
      <trkpt lat="46.07107000" lon="11.49714000">
        <ele>424.00000</ele>
        <time>2010-01-02T07:18:18Z</time>
      </trkpt>
      <trkpt lat="46.07118000" lon="11.49693000">
        <ele>424.00000</ele>
        <time>2010-01-02T07:18:25Z</time>
      </trkpt>
      <trkpt lat="46.07118000" lon="11.49679000">
        <ele>424.00000</ele>
        <time>2010-01-02T07:18:29Z</time>
      </trkpt>
      <trkpt lat="46.07122000" lon="11.49628000">
        <ele>425.00000</ele>
        <time>2010-01-02T07:18:43Z</time>
      </trkpt>
      <trkpt lat="46.07125000" lon="11.49602000">
        <ele>426.00000</ele>
        <time>2010-01-02T07:18:51Z</time>
      </trkpt>
      <trkpt lat="46.07085000" lon="11.49528000">
        <ele>426.00000</ele>
        <time>2010-01-02T07:19:17Z</time>
      </trkpt>
      <trkpt lat="46.07032000" lon="11.49442000">
        <ele>427.00000</ele>
        <time>2010-01-02T07:19:49Z</time>
      </trkpt>
      <trkpt lat="46.07050000" lon="11.49425000">
        <ele>431.00000</ele>
        <time>2010-01-02T07:19:57Z</time>
      </trkpt>
      <trkpt lat="46.07095000" lon="11.49403000">
        <ele>439.00000</ele>
        <time>2010-01-02T07:20:16Z</time>
      </trkpt>
      <trkpt lat="46.07140000" lon="11.49425000">
        <ele>450.00000</ele>
        <time>2010-01-02T07:20:35Z</time>
      </trkpt>
      <trkpt lat="46.07178000" lon="11.49420000">
        <ele>458.00000</ele>
        <time>2010-01-02T07:20:51Z</time>
      </trkpt>
      <trkpt lat="46.07193000" lon="11.49394000">
        <ele>460.00000</ele>
        <time>2010-01-02T07:21:00Z</time>
      </trkpt>
      <trkpt lat="46.07200000" lon="11.49355000">
        <ele>464.00000</ele>
        <time>2010-01-02T07:21:11Z</time>
      </trkpt>
      <trkpt lat="46.07211000" lon="11.49342000">
        <ele>465.00000</ele>
        <time>2010-01-02T07:21:17Z</time>
      </trkpt>
      <trkpt lat="46.07224000" lon="11.49334000">
        <ele>467.00000</ele>
        <time>2010-01-02T07:21:23Z</time>
      </trkpt>
      <trkpt lat="46.07214000" lon="11.49312000">
        <ele>469.00000</ele>
        <time>2010-01-02T07:21:30Z</time>
      </trkpt>
      <trkpt lat="46.07191000" lon="11.49230000">
        <ele>478.00000</ele>
        <time>2010-01-02T07:21:54Z</time>
      </trkpt>
      <trkpt lat="46.07176000" lon="11.49169000">
        <ele>482.00000</ele>
        <time>2010-01-02T07:22:12Z</time>
      </trkpt>
      <trkpt lat="46.07155000" lon="11.49105000">
        <ele>482.00000</ele>
        <time>2010-01-02T07:22:32Z</time>
      </trkpt>
      <trkpt lat="46.07144990" lon="11.48884000">
        <ele>495.00000</ele>
        <time>2010-01-02T07:23:34Z</time>
      </trkpt>
      <trkpt lat="46.07140000" lon="11.48793000">
        <ele>501.00000</ele>
        <time>2010-01-02T07:23:59Z</time>
      </trkpt>
      <trkpt lat="46.07100000" lon="11.48641000">
        <ele>503.00000</ele>
        <time>2010-01-02T07:24:44Z</time>
      </trkpt>
      <trkpt lat="46.07098000" lon="11.48543000">
        <ele>513.00000</ele>
        <time>2010-01-02T07:25:11Z</time>
      </trkpt>
      <trkpt lat="46.07062000" lon="11.48421000">
        <ele>518.00000</ele>
        <time>2010-01-02T07:25:48Z</time>
      </trkpt>
      <trkpt lat="46.07040000" lon="11.48339000">
        <ele>524.00000</ele>
        <time>2010-01-02T07:26:13Z</time>
      </trkpt>
      <trkpt lat="46.07050000" lon="11.48313000">
        <ele>526.00000</ele>
        <time>2010-01-02T07:26:21Z</time>
      </trkpt>
      <trkpt lat="46.07127990" lon="11.48452000">
        <ele>533.00000</ele>
        <time>2010-01-02T07:27:10Z</time>
      </trkpt>
      <trkpt lat="46.07166000" lon="11.48503000">
        <ele>538.00000</ele>
        <time>2010-01-02T07:27:31Z</time>
      </trkpt>
      <trkpt lat="46.07218000" lon="11.48572000">
        <ele>540.00000</ele>
        <time>2010-01-02T07:28:00Z</time>
      </trkpt>
      <trkpt lat="46.07287000" lon="11.48641000">
        <ele>549.00000</ele>
        <time>2010-01-02T07:28:33Z</time>
      </trkpt>
      <trkpt lat="46.07304000" lon="11.48633000">
        <ele>553.00000</ele>
        <time>2010-01-02T07:28:40Z</time>
      </trkpt>
      <trkpt lat="46.07284000" lon="11.48469000">
        <ele>565.00000</ele>
        <time>2010-01-02T07:29:27Z</time>
      </trkpt>
      <trkpt lat="46.07281000" lon="11.48443000">
        <ele>567.00000</ele>
        <time>2010-01-02T07:29:34Z</time>
      </trkpt>
      <trkpt lat="46.07278000" lon="11.48408000">
        <ele>570.00000</ele>
        <time>2010-01-02T07:29:44Z</time>
      </trkpt>
      <trkpt lat="46.07266000" lon="11.48274000">
        <ele>574.00000</ele>
        <time>2010-01-02T07:30:21Z</time>
      </trkpt>
      <trkpt lat="46.07288990" lon="11.48222000">
        <ele>580.00000</ele>
        <time>2010-01-02T07:30:38Z</time>
      </trkpt>
      <trkpt lat="46.07322000" lon="11.48183000">
        <ele>587.00000</ele>
        <time>2010-01-02T07:30:55Z</time>
      </trkpt>
      <trkpt lat="46.07355000" lon="11.48144000">
        <ele>592.00000</ele>
        <time>2010-01-02T07:31:12Z</time>
      </trkpt>
      <trkpt lat="46.07395000" lon="11.48075000">
        <ele>594.00000</ele>
        <time>2010-01-02T07:31:37Z</time>
      </trkpt>
      <trkpt lat="46.07397000" lon="11.48070000">
        <ele>594.00000</ele>
        <time>2010-01-02T07:31:39Z</time>
      </trkpt>
      <trkpt lat="46.07469990" lon="11.47859000">
        <ele>603.00000</ele>
        <time>2010-01-02T07:32:45Z</time>
      </trkpt>
      <trkpt lat="46.07478000" lon="11.47768000">
        <ele>600.00000</ele>
        <time>2010-01-02T07:33:10Z</time>
      </trkpt>
      <trkpt lat="46.07503000" lon="11.47417000">
        <ele>607.00000</ele>
        <time>2010-01-02T07:34:48Z</time>
      </trkpt>
      <trkpt lat="46.07511000" lon="11.47365000">
        <ele>612.00000</ele>
        <time>2010-01-02T07:35:03Z</time>
      </trkpt>
      <trkpt lat="46.07545000" lon="11.47314000">
        <ele>623.00000</ele>
        <time>2010-01-02T07:35:22Z</time>
      </trkpt>
      <trkpt lat="46.07593000" lon="11.47197000">
        <ele>641.00000</ele>
        <time>2010-01-02T07:36:00Z</time>
      </trkpt>
      <trkpt lat="46.07602000" lon="11.47119000">
        <ele>647.00000</ele>
        <time>2010-01-02T07:36:22Z</time>
      </trkpt>
      <trkpt lat="46.07586000" lon="11.47033000">
        <ele>651.00000</ele>
        <time>2010-01-02T07:36:47Z</time>
      </trkpt>
      <trkpt lat="46.07554000" lon="11.46972000">
        <ele>657.00000</ele>
        <time>2010-01-02T07:37:08Z</time>
      </trkpt>
      <trkpt lat="46.07536000" lon="11.46933000">
        <ele>661.00000</ele>
        <time>2010-01-02T07:37:21Z</time>
      </trkpt>
      <trkpt lat="46.07521000" lon="11.46855000">
        <ele>667.00000</ele>
        <time>2010-01-02T07:37:44Z</time>
      </trkpt>
      <trkpt lat="46.07545000" lon="11.46760000">
        <ele>674.00000</ele>
        <time>2010-01-02T07:38:12Z</time>
      </trkpt>
      <trkpt lat="46.07536000" lon="11.46729000">
        <ele>675.00000</ele>
        <time>2010-01-02T07:38:21Z</time>
      </trkpt>
      <trkpt lat="46.07522990" lon="11.46734000">
        <ele>673.00000</ele>
        <time>2010-01-02T07:38:26Z</time>
      </trkpt>
      <trkpt lat="46.07478000" lon="11.46808000">
        <ele>675.00000</ele>
        <time>2010-01-02T07:38:54Z</time>
      </trkpt>
      <trkpt lat="46.07458000" lon="11.46842000">
        <ele>679.00000</ele>
        <time>2010-01-02T07:39:06Z</time>
      </trkpt>
      <trkpt lat="46.07410000" lon="11.46951000">
        <ele>683.00000</ele>
        <time>2010-01-02T07:39:42Z</time>
      </trkpt>
      <trkpt lat="46.07391990" lon="11.46972000">
        <ele>684.00000</ele>
        <time>2010-01-02T07:39:51Z</time>
      </trkpt>
      <trkpt lat="46.07389000" lon="11.46980000">
        <ele>684.00000</ele>
        <time>2010-01-02T07:39:54Z</time>
      </trkpt>
      <trkpt lat="46.07382000" lon="11.46977000">
        <ele>686.00000</ele>
        <time>2010-01-02T07:39:57Z</time>
      </trkpt>
      <trkpt lat="46.07382000" lon="11.46972000">
        <ele>686.00000</ele>
        <time>2010-01-02T07:39:58Z</time>
      </trkpt>
      <trkpt lat="46.07391990" lon="11.46908000">
        <ele>691.00000</ele>
        <time>2010-01-02T07:40:16Z</time>
      </trkpt>
      <trkpt lat="46.07467000" lon="11.46514000">
        <ele>691.00000</ele>
        <time>2010-01-02T07:42:10Z</time>
      </trkpt>
      <trkpt lat="46.07455000" lon="11.46466000">
        <ele>696.00000</ele>
        <time>2010-01-02T07:42:24Z</time>
      </trkpt>
      <trkpt lat="46.07397000" lon="11.46397000">
        <ele>701.00000</ele>
        <time>2010-01-02T07:42:54Z</time>
      </trkpt>
      <trkpt lat="46.07365000" lon="11.46336000">
        <ele>704.00000</ele>
        <time>2010-01-02T07:43:15Z</time>
      </trkpt>
      <trkpt lat="46.07344000" lon="11.46024000">
        <ele>722.00000</ele>
        <time>2010-01-02T07:44:42Z</time>
      </trkpt>
      <trkpt lat="46.07344000" lon="11.45873000">
        <ele>728.00000</ele>
        <time>2010-01-02T07:45:24Z</time>
      </trkpt>
      <trkpt lat="46.07344000" lon="11.45818000">
        <ele>730.00000</ele>
        <time>2010-01-02T07:45:39Z</time>
      </trkpt>
      <trkpt lat="46.07385000" lon="11.45567000">
        <ele>732.00000</ele>
        <time>2010-01-02T07:46:51Z</time>
      </trkpt>
      <trkpt lat="46.07476000" lon="11.45156000">
        <ele>742.00000</ele>
        <time>2010-01-02T07:48:51Z</time>
      </trkpt>
      <trkpt lat="46.07511000" lon="11.45121000">
        <ele>744.00000</ele>
        <time>2010-01-02T07:49:08Z</time>
      </trkpt>
      <trkpt lat="46.07539000" lon="11.45091000">
        <ele>747.00000</ele>
        <time>2010-01-02T07:49:22Z</time>
      </trkpt>
      <trkpt lat="46.07593000" lon="11.45039000">
        <ele>750.00000</ele>
        <time>2010-01-02T07:49:48Z</time>
      </trkpt>
      <trkpt lat="46.07655990" lon="11.45000000">
        <ele>753.00000</ele>
        <time>2010-01-02T07:50:15Z</time>
      </trkpt>
      <trkpt lat="46.07775000" lon="11.44956000">
        <ele>765.00000</ele>
        <time>2010-01-02T07:51:05Z</time>
      </trkpt>
      <trkpt lat="46.07815000" lon="11.44934000">
        <ele>769.00000</ele>
        <time>2010-01-02T07:51:22Z</time>
      </trkpt>
      <trkpt lat="46.07925990" lon="11.44844000">
        <ele>783.00000</ele>
        <time>2010-01-02T07:52:13Z</time>
      </trkpt>
      <trkpt lat="46.07961990" lon="11.44774000">
        <ele>790.00000</ele>
        <time>2010-01-02T07:52:37Z</time>
      </trkpt>
      <trkpt lat="46.07961990" lon="11.44771000">
        <ele>790.00000</ele>
        <time>2010-01-02T07:52:38Z</time>
      </trkpt>
      <trkpt lat="46.07959000" lon="11.44714000">
        <ele>799.00000</ele>
        <time>2010-01-02T07:52:54Z</time>
      </trkpt>
      <trkpt lat="46.07947000" lon="11.44693000">
        <ele>803.00000</ele>
        <time>2010-01-02T07:53:01Z</time>
      </trkpt>
      <trkpt lat="46.07929000" lon="11.44684000">
        <ele>804.00000</ele>
        <time>2010-01-02T07:53:09Z</time>
      </trkpt>
      <trkpt lat="46.07827000" lon="11.44658000">
        <ele>809.00000</ele>
        <time>2010-01-02T07:53:50Z</time>
      </trkpt>
      <trkpt lat="46.07793000" lon="11.44654000">
        <ele>814.00000</ele>
        <time>2010-01-02T07:54:04Z</time>
      </trkpt>
      <trkpt lat="46.07763000" lon="11.44688000">
        <ele>808.00000</ele>
        <time>2010-01-02T07:54:19Z</time>
      </trkpt>
      <trkpt lat="46.07740000" lon="11.44697000">
        <ele>807.00000</ele>
        <time>2010-01-02T07:54:29Z</time>
      </trkpt>
      <trkpt lat="46.07715000" lon="11.44688000">
        <ele>808.00000</ele>
        <time>2010-01-02T07:54:39Z</time>
      </trkpt>
      <trkpt lat="46.07697000" lon="11.44649000">
        <ele>815.00000</ele>
        <time>2010-01-02T07:54:52Z</time>
      </trkpt>
      <trkpt lat="46.07689000" lon="11.44606000">
        <ele>823.00000</ele>
        <time>2010-01-02T07:55:04Z</time>
      </trkpt>
      <trkpt lat="46.07687000" lon="11.44603000">
        <ele>823.00000</ele>
        <time>2010-01-02T07:55:06Z</time>
      </trkpt>
      <trkpt lat="46.07677000" lon="11.44589000">
        <ele>824.00000</ele>
        <time>2010-01-02T07:55:11Z</time>
      </trkpt>
      <trkpt lat="46.07666990" lon="11.44576000">
        <ele>825.00000</ele>
        <time>2010-01-02T07:55:16Z</time>
      </trkpt>
      <trkpt lat="46.07571000" lon="11.44532000">
        <ele>831.00000</ele>
        <time>2010-01-02T07:55:57Z</time>
      </trkpt>
      <trkpt lat="46.07521000" lon="11.44489000">
        <ele>837.00000</ele>
        <time>2010-01-02T07:56:20Z</time>
      </trkpt>
      <trkpt lat="46.07482000" lon="11.44485000">
        <ele>834.00000</ele>
        <time>2010-01-02T07:56:36Z</time>
      </trkpt>
      <trkpt lat="46.07458000" lon="11.44459000">
        <ele>838.00000</ele>
        <time>2010-01-02T07:56:48Z</time>
      </trkpt>
      <trkpt lat="46.07428000" lon="11.44442000">
        <ele>839.00000</ele>
        <time>2010-01-02T07:57:01Z</time>
      </trkpt>
      <trkpt lat="46.07352000" lon="11.44455000">
        <ele>833.00000</ele>
        <time>2010-01-02T07:57:31Z</time>
      </trkpt>
      <trkpt lat="46.07322000" lon="11.44434000">
        <ele>837.00000</ele>
        <time>2010-01-02T07:57:45Z</time>
      </trkpt>
      <trkpt lat="46.07233000" lon="11.44377000">
        <ele>844.00000</ele>
        <time>2010-01-02T07:58:24Z</time>
      </trkpt>
      <trkpt lat="46.07208000" lon="11.44351000">
        <ele>847.00000</ele>
        <time>2010-01-02T07:58:36Z</time>
      </trkpt>
      <trkpt lat="46.07191000" lon="11.44338000">
        <ele>849.00000</ele>
        <time>2010-01-02T07:58:44Z</time>
      </trkpt>
      <trkpt lat="46.07144990" lon="11.44381000">
        <ele>842.00000</ele>
        <time>2010-01-02T07:59:06Z</time>
      </trkpt>
      <trkpt lat="46.07115000" lon="11.44364000">
        <ele>842.00000</ele>
        <time>2010-01-02T07:59:19Z</time>
      </trkpt>
      <trkpt lat="46.07077000" lon="11.44317000">
        <ele>845.00000</ele>
        <time>2010-01-02T07:59:39Z</time>
      </trkpt>
      <trkpt lat="46.07070000" lon="11.44252000">
        <ele>852.00000</ele>
        <time>2010-01-02T07:59:57Z</time>
      </trkpt>
      <trkpt lat="46.07082000" lon="11.44204000">
        <ele>851.00000</ele>
        <time>2010-01-02T08:00:11Z</time>
      </trkpt>
      <trkpt lat="46.07144990" lon="11.44139000">
        <ele>857.00000</ele>
        <time>2010-01-02T08:00:42Z</time>
      </trkpt>
      <trkpt lat="46.07176000" lon="11.44083000">
        <ele>855.00000</ele>
        <time>2010-01-02T08:01:02Z</time>
      </trkpt>
      <trkpt lat="46.07185000" lon="11.44026000">
        <ele>844.00000</ele>
        <time>2010-01-02T08:01:18Z</time>
      </trkpt>
      <trkpt lat="46.07263000" lon="11.43910000">
        <ele>845.00000</ele>
        <time>2010-01-02T08:02:03Z</time>
      </trkpt>
      <trkpt lat="46.07263000" lon="11.43858000">
        <ele>845.00000</ele>
        <time>2010-01-02T08:02:17Z</time>
      </trkpt>
      <trkpt lat="46.07251000" lon="11.43844000">
        <ele>840.00000</ele>
        <time>2010-01-02T08:02:24Z</time>
      </trkpt>
      <trkpt lat="46.07224000" lon="11.43832000">
        <ele>835.00000</ele>
        <time>2010-01-02T08:02:35Z</time>
      </trkpt>
      <trkpt lat="46.07180990" lon="11.43815000">
        <ele>829.00000</ele>
        <time>2010-01-02T08:02:53Z</time>
      </trkpt>
      <trkpt lat="46.07166000" lon="11.43793000">
        <ele>828.00000</ele>
        <time>2010-01-02T08:03:01Z</time>
      </trkpt>
      <trkpt lat="46.07133000" lon="11.43728000">
        <ele>827.00000</ele>
        <time>2010-01-02T08:03:24Z</time>
      </trkpt>
      <trkpt lat="46.07098000" lon="11.43702000">
        <ele>823.00000</ele>
        <time>2010-01-02T08:03:40Z</time>
      </trkpt>
      <trkpt lat="46.07065000" lon="11.43693000">
        <ele>814.00000</ele>
        <time>2010-01-02T08:03:53Z</time>
      </trkpt>
      <trkpt lat="46.07050000" lon="11.43676000">
        <ele>812.00000</ele>
        <time>2010-01-02T08:04:01Z</time>
      </trkpt>
      <trkpt lat="46.07029000" lon="11.43576000">
        <ele>821.00000</ele>
        <time>2010-01-02T08:04:30Z</time>
      </trkpt>
      <trkpt lat="46.06966000" lon="11.43503000">
        <ele>809.00000</ele>
        <time>2010-01-02T08:05:02Z</time>
      </trkpt>
      <trkpt lat="46.06911000" lon="11.43438000">
        <ele>804.00000</ele>
        <time>2010-01-02T08:05:30Z</time>
      </trkpt>
      <trkpt lat="46.06876000" lon="11.43416000">
        <ele>802.00000</ele>
        <time>2010-01-02T08:05:46Z</time>
      </trkpt>
      <trkpt lat="46.06818000" lon="11.43395000">
        <ele>794.00000</ele>
        <time>2010-01-02T08:06:10Z</time>
      </trkpt>
      <trkpt lat="46.06776000" lon="11.43390000">
        <ele>786.00000</ele>
        <time>2010-01-02T08:06:27Z</time>
      </trkpt>
      <trkpt lat="46.06728000" lon="11.43378000">
        <ele>775.00000</ele>
        <time>2010-01-02T08:06:46Z</time>
      </trkpt>
      <trkpt lat="46.06674000" lon="11.43278000">
        <ele>770.00000</ele>
        <time>2010-01-02T08:07:21Z</time>
      </trkpt>
      <trkpt lat="46.06654000" lon="11.43253000">
        <ele>767.00000</ele>
        <time>2010-01-02T08:07:32Z</time>
      </trkpt>
      <trkpt lat="46.06641000" lon="11.43227000">
        <ele>770.00000</ele>
        <time>2010-01-02T08:07:41Z</time>
      </trkpt>
      <trkpt lat="46.06560990" lon="11.43222000">
        <ele>753.00000</ele>
        <time>2010-01-02T08:08:13Z</time>
      </trkpt>
      <trkpt lat="46.06536000" lon="11.43201000">
        <ele>747.00000</ele>
        <time>2010-01-02T08:08:24Z</time>
      </trkpt>
      <trkpt lat="46.06479000" lon="11.43096000">
        <ele>740.00000</ele>
        <time>2010-01-02T08:09:01Z</time>
      </trkpt>
      <trkpt lat="46.06383000" lon="11.42984000">
        <ele>727.00000</ele>
        <time>2010-01-02T08:09:51Z</time>
      </trkpt>
      <trkpt lat="46.06368000" lon="11.42962000">
        <ele>725.00000</ele>
        <time>2010-01-02T08:09:59Z</time>
      </trkpt>
      <trkpt lat="46.06335000" lon="11.42889000">
        <ele>725.00000</ele>
        <time>2010-01-02T08:10:24Z</time>
      </trkpt>
      <trkpt lat="46.06313990" lon="11.42863000">
        <ele>722.00000</ele>
        <time>2010-01-02T08:10:35Z</time>
      </trkpt>
      <trkpt lat="46.06206000" lon="11.42725000">
        <ele>709.00000</ele>
        <time>2010-01-02T08:11:32Z</time>
      </trkpt>
      <trkpt lat="46.06170000" lon="11.42642000">
        <ele>713.00000</ele>
        <time>2010-01-02T08:12:00Z</time>
      </trkpt>
      <trkpt lat="46.06143000" lon="11.42608000">
        <ele>716.00000</ele>
        <time>2010-01-02T08:12:14Z</time>
      </trkpt>
      <trkpt lat="46.06098000" lon="11.42594000">
        <ele>716.00000</ele>
        <time>2010-01-02T08:12:32Z</time>
      </trkpt>
      <trkpt lat="46.06053000" lon="11.42612000">
        <ele>707.00000</ele>
        <time>2010-01-02T08:12:51Z</time>
      </trkpt>
      <trkpt lat="46.06017000" lon="11.42608000">
        <ele>704.00000</ele>
        <time>2010-01-02T08:13:06Z</time>
      </trkpt>
      <trkpt lat="46.06011000" lon="11.42603000">
        <ele>705.00000</ele>
        <time>2010-01-02T08:13:08Z</time>
      </trkpt>
      <trkpt lat="46.06013990" lon="11.42577000">
        <ele>708.00000</ele>
        <time>2010-01-02T08:13:16Z</time>
      </trkpt>
      <trkpt lat="46.06017000" lon="11.42543000">
        <ele>707.00000</ele>
        <time>2010-01-02T08:13:25Z</time>
      </trkpt>
      <trkpt lat="46.06026000" lon="11.42309000">
        <ele>701.00000</ele>
        <time>2010-01-02T08:14:30Z</time>
      </trkpt>
      <trkpt lat="46.06020000" lon="11.42262000">
        <ele>703.00000</ele>
        <time>2010-01-02T08:14:44Z</time>
      </trkpt>
      <trkpt lat="46.05978000" lon="11.42240000">
        <ele>688.00000</ele>
        <time>2010-01-02T08:15:01Z</time>
      </trkpt>
      <trkpt lat="46.05960000" lon="11.42188000">
        <ele>685.00000</ele>
        <time>2010-01-02T08:15:18Z</time>
      </trkpt>
      <trkpt lat="46.05909000" lon="11.42106000">
        <ele>672.00000</ele>
        <time>2010-01-02T08:15:48Z</time>
      </trkpt>
      <trkpt lat="46.05882000" lon="11.41994000">
        <ele>670.00000</ele>
        <time>2010-01-02T08:16:21Z</time>
      </trkpt>
      <trkpt lat="46.05837000" lon="11.41912000">
        <ele>654.00000</ele>
        <time>2010-01-02T08:16:50Z</time>
      </trkpt>
      <trkpt lat="46.05807000" lon="11.41825000">
        <ele>650.00000</ele>
        <time>2010-01-02T08:17:17Z</time>
      </trkpt>
      <trkpt lat="46.05798000" lon="11.41812000">
        <ele>648.00000</ele>
        <time>2010-01-02T08:17:22Z</time>
      </trkpt>
      <trkpt lat="46.05762000" lon="11.41764000">
        <ele>643.00000</ele>
        <time>2010-01-02T08:17:42Z</time>
      </trkpt>
      <trkpt lat="46.05702000" lon="11.41734000">
        <ele>631.00000</ele>
        <time>2010-01-02T08:18:07Z</time>
      </trkpt>
      <trkpt lat="46.05690000" lon="11.41730000">
        <ele>628.00000</ele>
        <time>2010-01-02T08:18:12Z</time>
      </trkpt>
      <trkpt lat="46.05629990" lon="11.41600000">
        <ele>616.00000</ele>
        <time>2010-01-02T08:18:56Z</time>
      </trkpt>
      <trkpt lat="46.05627000" lon="11.41479000">
        <ele>611.00000</ele>
        <time>2010-01-02T08:19:29Z</time>
      </trkpt>
      <trkpt lat="46.05624000" lon="11.41401000">
        <ele>606.00000</ele>
        <time>2010-01-02T08:19:51Z</time>
      </trkpt>
      <trkpt lat="46.05645000" lon="11.41146000">
        <ele>587.00000</ele>
        <time>2010-01-02T08:21:02Z</time>
      </trkpt>
      <trkpt lat="46.05693000" lon="11.41012000">
        <ele>577.00000</ele>
        <time>2010-01-02T08:21:44Z</time>
      </trkpt>
      <trkpt lat="46.05735000" lon="11.40947000">
        <ele>588.00000</ele>
        <time>2010-01-02T08:22:09Z</time>
      </trkpt>
      <trkpt lat="46.05726000" lon="11.40925000">
        <ele>584.00000</ele>
        <time>2010-01-02T08:22:16Z</time>
      </trkpt>
      <trkpt lat="46.05711000" lon="11.40925000">
        <ele>582.00000</ele>
        <time>2010-01-02T08:22:22Z</time>
      </trkpt>
      <trkpt lat="46.05645000" lon="11.40964000">
        <ele>565.00000</ele>
        <time>2010-01-02T08:22:51Z</time>
      </trkpt>
      <trkpt lat="46.05585000" lon="11.40973000">
        <ele>554.00000</ele>
        <time>2010-01-02T08:23:15Z</time>
      </trkpt>
      <trkpt lat="46.05471000" lon="11.40934000">
        <ele>537.00000</ele>
        <time>2010-01-02T08:24:02Z</time>
      </trkpt>
      <trkpt lat="46.05417000" lon="11.40934000">
        <ele>530.00000</ele>
        <time>2010-01-02T08:24:23Z</time>
      </trkpt>
      <trkpt lat="46.05381000" lon="11.40942000">
        <ele>521.00000</ele>
        <time>2010-01-02T08:24:38Z</time>
      </trkpt>
      <trkpt lat="46.05315000" lon="11.40895000">
        <ele>515.00000</ele>
        <time>2010-01-02T08:25:07Z</time>
      </trkpt>
      <trkpt lat="46.05285000" lon="11.40847000">
        <ele>517.00000</ele>
        <time>2010-01-02T08:25:25Z</time>
      </trkpt>
      <trkpt lat="46.05234000" lon="11.40804000">
        <ele>514.00000</ele>
        <time>2010-01-02T08:25:49Z</time>
      </trkpt>
      <trkpt lat="46.05195000" lon="11.40782000">
        <ele>513.00000</ele>
        <time>2010-01-02T08:26:06Z</time>
      </trkpt>
      <trkpt lat="46.05123000" lon="11.40748000">
        <ele>511.00000</ele>
        <time>2010-01-02T08:26:36Z</time>
      </trkpt>
      <trkpt lat="46.05096000" lon="11.40722000">
        <ele>513.00000</ele>
        <time>2010-01-02T08:26:49Z</time>
      </trkpt>
      <trkpt lat="46.05078000" lon="11.40709000">
        <ele>514.00000</ele>
        <time>2010-01-02T08:26:57Z</time>
      </trkpt>
      <trkpt lat="46.05035000" lon="11.40683000">
        <ele>516.00000</ele>
        <time>2010-01-02T08:27:16Z</time>
      </trkpt>
      <trkpt lat="46.05012000" lon="11.40665000">
        <ele>517.00000</ele>
        <time>2010-01-02T08:27:26Z</time>
      </trkpt>
      <trkpt lat="46.04987000" lon="11.40679000">
        <ele>515.00000</ele>
        <time>2010-01-02T08:27:37Z</time>
      </trkpt>
      <trkpt lat="46.04970000" lon="11.40670000">
        <ele>514.00000</ele>
        <time>2010-01-02T08:27:44Z</time>
      </trkpt>
      <trkpt lat="46.04955000" lon="11.40636000">
        <ele>515.00000</ele>
        <time>2010-01-02T08:27:55Z</time>
      </trkpt>
      <trkpt lat="46.04942000" lon="11.40614000">
        <ele>515.00000</ele>
        <time>2010-01-02T08:28:03Z</time>
      </trkpt>
      <trkpt lat="46.04859000" lon="11.40545000">
        <ele>511.00000</ele>
        <time>2010-01-02T08:28:42Z</time>
      </trkpt>
      <trkpt lat="46.04852000" lon="11.40562000">
        <ele>509.00000</ele>
        <time>2010-01-02T08:28:47Z</time>
      </trkpt>
      <trkpt lat="46.04871000" lon="11.40657000">
        <ele>505.00000</ele>
        <time>2010-01-02T08:29:15Z</time>
      </trkpt>
      <trkpt lat="46.04909000" lon="11.40739000">
        <ele>502.00000</ele>
        <time>2010-01-02T08:29:42Z</time>
      </trkpt>
      <trkpt lat="46.04912000" lon="11.40753000">
        <ele>501.00000</ele>
        <time>2010-01-02T08:29:46Z</time>
      </trkpt>
      <trkpt lat="46.04931000" lon="11.40825000">
        <ele>498.00000</ele>
        <time>2010-01-02T08:30:08Z</time>
      </trkpt>
      <trkpt lat="46.04957000" lon="11.40861000">
        <ele>496.00000</ele>
        <time>2010-01-02T08:30:22Z</time>
      </trkpt>
      <trkpt lat="46.05035000" lon="11.40921000">
        <ele>493.00000</ele>
        <time>2010-01-02T08:30:57Z</time>
      </trkpt>
      <trkpt lat="46.05038000" lon="11.40921000">
        <ele>493.00000</ele>
        <time>2010-01-02T08:30:59Z</time>
      </trkpt>
      <trkpt lat="46.05075000" lon="11.40959000">
        <ele>488.00000</ele>
        <time>2010-01-02T08:31:17Z</time>
      </trkpt>
      <trkpt lat="46.05075000" lon="11.40986000">
        <ele>485.00000</ele>
        <time>2010-01-02T08:31:24Z</time>
      </trkpt>
      <trkpt lat="46.05065000" lon="11.40999000">
        <ele>483.00000</ele>
        <time>2010-01-02T08:31:30Z</time>
      </trkpt>
      <trkpt lat="46.05048000" lon="11.41007000">
        <ele>483.00000</ele>
        <time>2010-01-02T08:31:37Z</time>
      </trkpt>
      <trkpt lat="46.05035000" lon="11.41029000">
        <ele>481.00000</ele>
        <time>2010-01-02T08:31:45Z</time>
      </trkpt>
      <trkpt lat="46.05024000" lon="11.41050000">
        <ele>478.00000</ele>
        <time>2010-01-02T08:31:52Z</time>
      </trkpt>
      <trkpt lat="46.05009000" lon="11.41072000">
        <ele>476.00000</ele>
        <time>2010-01-02T08:32:01Z</time>
      </trkpt>
      <trkpt lat="46.04993990" lon="11.41072000">
        <ele>476.00000</ele>
        <time>2010-01-02T08:32:07Z</time>
      </trkpt>
      <trkpt lat="46.04957000" lon="11.41076000">
        <ele>476.00000</ele>
        <time>2010-01-02T08:32:22Z</time>
      </trkpt>
      <trkpt lat="46.04926990" lon="11.41076000">
        <ele>476.00000</ele>
        <time>2010-01-02T08:32:34Z</time>
      </trkpt>
      <trkpt lat="46.04922000" lon="11.41090000">
        <ele>475.00000</ele>
        <time>2010-01-02T08:32:38Z</time>
      </trkpt>
      <trkpt lat="46.04756000" lon="11.40999000">
        <ele>474.00000</ele>
        <time>2010-01-02T08:33:49Z</time>
      </trkpt>
      <trkpt lat="46.04740990" lon="11.40995000">
        <ele>474.00000</ele>
        <time>2010-01-02T08:33:55Z</time>
      </trkpt>
      <trkpt lat="46.04681000" lon="11.40925000">
        <ele>473.00000</ele>
        <time>2010-01-02T08:34:26Z</time>
      </trkpt>
      <trkpt lat="46.04645000" lon="11.40878000">
        <ele>473.00000</ele>
        <time>2010-01-02T08:34:45Z</time>
      </trkpt>
      <trkpt lat="46.04564000" lon="11.40765000">
        <ele>470.00000</ele>
        <time>2010-01-02T08:35:31Z</time>
      </trkpt>
      <trkpt lat="46.04486000" lon="11.40700000">
        <ele>462.00000</ele>
        <time>2010-01-02T08:36:07Z</time>
      </trkpt>
      <trkpt lat="46.04459000" lon="11.40683000">
        <ele>460.00000</ele>
        <time>2010-01-02T08:36:18Z</time>
      </trkpt>
      <trkpt lat="46.04273000" lon="11.40493000">
        <ele>447.00000</ele>
        <time>2010-01-02T08:37:50Z</time>
      </trkpt>
      <trkpt lat="46.04270000" lon="11.40488000">
        <ele>447.00000</ele>
        <time>2010-01-02T08:37:52Z</time>
      </trkpt>
      <trkpt lat="46.04240000" lon="11.40445000">
        <ele>445.00000</ele>
        <time>2010-01-02T08:38:09Z</time>
      </trkpt>
      <trkpt lat="46.04204000" lon="11.40380000">
        <ele>442.00000</ele>
        <time>2010-01-02T08:38:32Z</time>
      </trkpt>
      <trkpt lat="46.04171000" lon="11.40316000">
        <ele>438.00000</ele>
        <time>2010-01-02T08:38:54Z</time>
      </trkpt>
      <trkpt lat="46.04090000" lon="11.40203000">
        <ele>430.00000</ele>
        <time>2010-01-02T08:39:39Z</time>
      </trkpt>
      <trkpt lat="46.03877000" lon="11.39931000">
        <ele>423.00000</ele>
        <time>2010-01-02T08:41:33Z</time>
      </trkpt>
      <trkpt lat="46.03844000" lon="11.39909000">
        <ele>422.00000</ele>
        <time>2010-01-02T08:41:47Z</time>
      </trkpt>
      <trkpt lat="46.03808000" lon="11.39905000">
        <ele>422.00000</ele>
        <time>2010-01-02T08:42:02Z</time>
      </trkpt>
      <trkpt lat="46.03784000" lon="11.39900000">
        <ele>421.00000</ele>
        <time>2010-01-02T08:42:12Z</time>
      </trkpt>
      <trkpt lat="46.03766000" lon="11.39917000">
        <ele>420.00000</ele>
        <time>2010-01-02T08:42:20Z</time>
      </trkpt>
      <trkpt lat="46.03643000" lon="11.39735000">
        <ele>419.00000</ele>
        <time>2010-01-02T08:43:31Z</time>
      </trkpt>
      <trkpt lat="46.03615000" lon="11.39692000">
        <ele>420.00000</ele>
        <time>2010-01-02T08:43:47Z</time>
      </trkpt>
      <trkpt lat="46.03570000" lon="11.39697000">
        <ele>418.00000</ele>
        <time>2010-01-02T08:44:05Z</time>
      </trkpt>
      <trkpt lat="46.03537000" lon="11.39649000">
        <ele>418.00000</ele>
        <time>2010-01-02T08:44:24Z</time>
      </trkpt>
      <trkpt lat="46.03510000" lon="11.39610000">
        <ele>418.00000</ele>
        <time>2010-01-02T08:44:39Z</time>
      </trkpt>
      <trkpt lat="46.03345990" lon="11.39381000">
        <ele>418.00000</ele>
        <time>2010-01-02T08:46:11Z</time>
      </trkpt>
      <trkpt lat="46.03261000" lon="11.39281000">
        <ele>420.00000</ele>
        <time>2010-01-02T08:46:55Z</time>
      </trkpt>
      <trkpt lat="46.03195000" lon="11.39204000">
        <ele>420.00000</ele>
        <time>2010-01-02T08:47:29Z</time>
      </trkpt>
      <trkpt lat="46.03020990" lon="11.39013000">
        <ele>422.00000</ele>
        <time>2010-01-02T08:48:56Z</time>
      </trkpt>
      <trkpt lat="46.02961000" lon="11.38927000">
        <ele>423.00000</ele>
        <time>2010-01-02T08:49:30Z</time>
      </trkpt>
      <trkpt lat="46.02922000" lon="11.38793000">
        <ele>422.00000</ele>
        <time>2010-01-02T08:50:11Z</time>
      </trkpt>
      <trkpt lat="46.02916000" lon="11.38676000">
        <ele>420.00000</ele>
        <time>2010-01-02T08:50:43Z</time>
      </trkpt>
      <trkpt lat="46.02931000" lon="11.38442000">
        <ele>426.00000</ele>
        <time>2010-01-02T08:51:48Z</time>
      </trkpt>
      <trkpt lat="46.02928000" lon="11.38382000">
        <ele>426.00000</ele>
        <time>2010-01-02T08:52:05Z</time>
      </trkpt>
      <trkpt lat="46.02925000" lon="11.38339000">
        <ele>426.00000</ele>
        <time>2010-01-02T08:52:17Z</time>
      </trkpt>
      <trkpt lat="46.02913000" lon="11.38183000">
        <ele>427.00000</ele>
        <time>2010-01-02T08:53:01Z</time>
      </trkpt>
      <trkpt lat="46.02913000" lon="11.38162000">
        <ele>427.00000</ele>
        <time>2010-01-02T08:53:07Z</time>
      </trkpt>
      <trkpt lat="46.02900990" lon="11.38010000">
        <ele>426.00000</ele>
        <time>2010-01-02T08:53:49Z</time>
      </trkpt>
      <trkpt lat="46.02886000" lon="11.37841000">
        <ele>425.00000</ele>
        <time>2010-01-02T08:54:36Z</time>
      </trkpt>
      <trkpt lat="46.02841000" lon="11.37655000">
        <ele>425.00000</ele>
        <time>2010-01-02T08:55:31Z</time>
      </trkpt>
      <trkpt lat="46.02808000" lon="11.37582000">
        <ele>425.00000</ele>
        <time>2010-01-02T08:55:55Z</time>
      </trkpt>
      <trkpt lat="46.02790000" lon="11.37543000">
        <ele>425.00000</ele>
        <time>2010-01-02T08:56:08Z</time>
      </trkpt>
      <trkpt lat="46.02747000" lon="11.37486000">
        <ele>427.00000</ele>
        <time>2010-01-02T08:56:32Z</time>
      </trkpt>
      <trkpt lat="46.02709000" lon="11.37439000">
        <ele>431.00000</ele>
        <time>2010-01-02T08:56:52Z</time>
      </trkpt>
      <trkpt lat="46.02568000" lon="11.37314000">
        <ele>439.00000</ele>
        <time>2010-01-02T08:57:58Z</time>
      </trkpt>
      <trkpt lat="46.02430000" lon="11.37197000">
        <ele>443.00000</ele>
        <time>2010-01-02T08:59:02Z</time>
      </trkpt>
      <trkpt lat="46.02387000" lon="11.37158000">
        <ele>445.00000</ele>
        <time>2010-01-02T08:59:23Z</time>
      </trkpt>
      <trkpt lat="46.02306000" lon="11.37093000">
        <ele>447.00000</ele>
        <time>2010-01-02T09:00:00Z</time>
      </trkpt>
      <trkpt lat="46.02297000" lon="11.37084000">
        <ele>448.00000</ele>
        <time>2010-01-02T09:00:04Z</time>
      </trkpt>
      <trkpt lat="46.02231000" lon="11.37020000">
        <ele>449.00000</ele>
        <time>2010-01-02T09:00:36Z</time>
      </trkpt>
      <trkpt lat="46.02153000" lon="11.36886000">
        <ele>452.00000</ele>
        <time>2010-01-02T09:01:25Z</time>
      </trkpt>
      <trkpt lat="46.02125990" lon="11.36825000">
        <ele>451.00000</ele>
        <time>2010-01-02T09:01:45Z</time>
      </trkpt>
      <trkpt lat="46.01985000" lon="11.36327000">
        <ele>454.00000</ele>
        <time>2010-01-02T09:04:14Z</time>
      </trkpt>
      <trkpt lat="46.01975990" lon="11.36297000">
        <ele>454.00000</ele>
        <time>2010-01-02T09:04:23Z</time>
      </trkpt>
      <trkpt lat="46.01937000" lon="11.36051000">
        <ele>456.00000</ele>
        <time>2010-01-02T09:05:33Z</time>
      </trkpt>
      <trkpt lat="46.01931000" lon="11.35985000">
        <ele>455.00000</ele>
        <time>2010-01-02T09:05:52Z</time>
      </trkpt>
      <trkpt lat="46.01927000" lon="11.35956000">
        <ele>455.00000</ele>
        <time>2010-01-02T09:06:00Z</time>
      </trkpt>
      <trkpt lat="46.01919000" lon="11.35886000">
        <ele>455.00000</ele>
        <time>2010-01-02T09:06:20Z</time>
      </trkpt>
      <trkpt lat="46.01916000" lon="11.35843000">
        <ele>454.00000</ele>
        <time>2010-01-02T09:06:32Z</time>
      </trkpt>
      <trkpt lat="46.01907000" lon="11.35765000">
        <ele>452.00000</ele>
        <time>2010-01-02T09:06:54Z</time>
      </trkpt>
      <trkpt lat="46.01883000" lon="11.35540000">
        <ele>453.00000</ele>
        <time>2010-01-02T09:07:57Z</time>
      </trkpt>
      <trkpt lat="46.01817000" lon="11.35052000">
        <ele>450.00000</ele>
        <time>2010-01-02T09:10:15Z</time>
      </trkpt>
      <trkpt lat="46.01800990" lon="11.34918000">
        <ele>450.00000</ele>
        <time>2010-01-02T09:10:53Z</time>
      </trkpt>
      <trkpt lat="46.01796000" lon="11.34887000">
        <ele>449.00000</ele>
        <time>2010-01-02T09:11:02Z</time>
      </trkpt>
      <trkpt lat="46.01766000" lon="11.34658000">
        <ele>444.00000</ele>
        <time>2010-01-02T09:12:07Z</time>
      </trkpt>
      <trkpt lat="46.01796000" lon="11.34567000">
        <ele>445.00000</ele>
        <time>2010-01-02T09:12:35Z</time>
      </trkpt>
      <trkpt lat="46.01800990" lon="11.34329000">
        <ele>443.00000</ele>
        <time>2010-01-02T09:13:41Z</time>
      </trkpt>
      <trkpt lat="46.01789000" lon="11.34256000">
        <ele>445.00000</ele>
        <time>2010-01-02T09:14:02Z</time>
      </trkpt>
      <trkpt lat="46.01763000" lon="11.34178000">
        <ele>446.00000</ele>
        <time>2010-01-02T09:14:26Z</time>
      </trkpt>
      <trkpt lat="46.01644990" lon="11.33788000">
        <ele>454.00000</ele>
        <time>2010-01-02T09:16:24Z</time>
      </trkpt>
      <trkpt lat="46.01636000" lon="11.33767000">
        <ele>454.00000</ele>
        <time>2010-01-02T09:16:31Z</time>
      </trkpt>
      <trkpt lat="46.01625000" lon="11.33663000">
        <ele>454.00000</ele>
        <time>2010-01-02T09:17:00Z</time>
      </trkpt>
      <trkpt lat="46.01643000" lon="11.33187000">
        <ele>448.00000</ele>
        <time>2010-01-02T09:19:13Z</time>
      </trkpt>
      <trkpt lat="46.01644990" lon="11.33092000">
        <ele>448.00000</ele>
        <time>2010-01-02T09:19:39Z</time>
      </trkpt>
      <trkpt lat="46.01643000" lon="11.32997000">
        <ele>449.00000</ele>
        <time>2010-01-02T09:20:06Z</time>
      </trkpt>
      <trkpt lat="46.01628000" lon="11.32945000">
        <ele>451.00000</ele>
        <time>2010-01-02T09:20:21Z</time>
      </trkpt>
      <trkpt lat="46.01603000" lon="11.32897000">
        <ele>450.00000</ele>
        <time>2010-01-02T09:20:38Z</time>
      </trkpt>
      <trkpt lat="46.01517000" lon="11.32781000">
        <ele>448.00000</ele>
        <time>2010-01-02T09:21:25Z</time>
      </trkpt>
      <trkpt lat="46.01450000" lon="11.32690000">
        <ele>448.00000</ele>
        <time>2010-01-02T09:22:02Z</time>
      </trkpt>
      <trkpt lat="46.01302990" lon="11.32482000">
        <ele>450.00000</ele>
        <time>2010-01-02T09:23:24Z</time>
      </trkpt>
      <trkpt lat="46.01222000" lon="11.32387000">
        <ele>454.00000</ele>
        <time>2010-01-02T09:24:06Z</time>
      </trkpt>
      <trkpt lat="46.01099000" lon="11.32240000">
        <ele>458.00000</ele>
        <time>2010-01-02T09:25:10Z</time>
      </trkpt>
      <trkpt lat="46.01066000" lon="11.32205000">
        <ele>459.00000</ele>
        <time>2010-01-02T09:25:27Z</time>
      </trkpt>
      <trkpt lat="46.01002990" lon="11.32115000">
        <ele>460.00000</ele>
        <time>2010-01-02T09:26:02Z</time>
      </trkpt>
      <trkpt lat="46.00958000" lon="11.32007000">
        <ele>463.00000</ele>
        <time>2010-01-02T09:26:37Z</time>
      </trkpt>
      <trkpt lat="46.00921000" lon="11.31864000">
        <ele>467.00000</ele>
        <time>2010-01-02T09:27:20Z</time>
      </trkpt>
      <trkpt lat="46.00909000" lon="11.31785000">
        <ele>470.00000</ele>
        <time>2010-01-02T09:27:42Z</time>
      </trkpt>
      <trkpt lat="46.00898000" lon="11.31682000">
        <ele>474.00000</ele>
        <time>2010-01-02T09:28:11Z</time>
      </trkpt>
      <trkpt lat="46.00888000" lon="11.31617000">
        <ele>476.00000</ele>
        <time>2010-01-02T09:28:30Z</time>
      </trkpt>
      <trkpt lat="46.00888000" lon="11.31600000">
        <ele>477.00000</ele>
        <time>2010-01-02T09:28:34Z</time>
      </trkpt>
      <trkpt lat="46.00886000" lon="11.31591000">
        <ele>477.00000</ele>
        <time>2010-01-02T09:28:37Z</time>
      </trkpt>
      <trkpt lat="46.00871000" lon="11.31488000">
        <ele>480.00000</ele>
        <time>2010-01-02T09:29:06Z</time>
      </trkpt>
      <trkpt lat="46.00861000" lon="11.31410000">
        <ele>483.00000</ele>
        <time>2010-01-02T09:29:28Z</time>
      </trkpt>
      <trkpt lat="46.00858000" lon="11.31397000">
        <ele>483.00000</ele>
        <time>2010-01-02T09:29:32Z</time>
      </trkpt>
      <trkpt lat="46.00846000" lon="11.31306000">
        <ele>485.00000</ele>
        <time>2010-01-02T09:29:58Z</time>
      </trkpt>
      <trkpt lat="46.00840000" lon="11.31254000">
        <ele>486.00000</ele>
        <time>2010-01-02T09:30:12Z</time>
      </trkpt>
      <trkpt lat="46.00831000" lon="11.31206000">
        <ele>486.00000</ele>
        <time>2010-01-02T09:30:26Z</time>
      </trkpt>
      <trkpt lat="46.00808000" lon="11.30972000">
        <ele>489.00000</ele>
        <time>2010-01-02T09:31:32Z</time>
      </trkpt>
      <trkpt lat="46.00804000" lon="11.30951000">
        <ele>488.00000</ele>
        <time>2010-01-02T09:31:38Z</time>
      </trkpt>
      <trkpt lat="46.00825000" lon="11.30739000">
        <ele>486.00000</ele>
        <time>2010-01-02T09:32:38Z</time>
      </trkpt>
      <trkpt lat="46.00833990" lon="11.30648000">
        <ele>485.00000</ele>
        <time>2010-01-02T09:33:03Z</time>
      </trkpt>
      <trkpt lat="46.00843000" lon="11.30535000">
        <ele>483.00000</ele>
        <time>2010-01-02T09:33:35Z</time>
      </trkpt>
      <trkpt lat="46.00905990" lon="11.30540000">
        <ele>490.00000</ele>
        <time>2010-01-02T09:34:00Z</time>
      </trkpt>
      <trkpt lat="46.00969000" lon="11.30549000">
        <ele>497.00000</ele>
        <time>2010-01-02T09:34:25Z</time>
      </trkpt>
      <trkpt lat="46.00988000" lon="11.30501000">
        <ele>499.00000</ele>
        <time>2010-01-02T09:34:41Z</time>
      </trkpt>
      <trkpt lat="46.00991000" lon="11.30492000">
        <ele>499.00000</ele>
        <time>2010-01-02T09:34:44Z</time>
      </trkpt>
      <trkpt lat="46.01032000" lon="11.30393000">
        <ele>499.00000</ele>
        <time>2010-01-02T09:35:16Z</time>
      </trkpt>
      <trkpt lat="46.01060000" lon="11.30354000">
        <ele>499.00000</ele>
        <time>2010-01-02T09:35:31Z</time>
      </trkpt>
      <trkpt lat="46.01077000" lon="11.30320000">
        <ele>499.00000</ele>
        <time>2010-01-02T09:35:43Z</time>
      </trkpt>
      <trkpt lat="46.01120000" lon="11.30238000">
        <ele>501.00000</ele>
        <time>2010-01-02T09:36:11Z</time>
      </trkpt>
      <trkpt lat="46.01171000" lon="11.30276000">
        <ele>506.00000</ele>
        <time>2010-01-02T09:36:34Z</time>
      </trkpt>
      <trkpt lat="46.01210000" lon="11.30307000">
        <ele>512.00000</ele>
        <time>2010-01-02T09:36:52Z</time>
      </trkpt>
      <trkpt lat="46.01222000" lon="11.30311000">
        <ele>514.00000</ele>
        <time>2010-01-02T09:36:57Z</time>
      </trkpt>
      <trkpt lat="46.01264000" lon="11.30329000">
        <ele>520.00000</ele>
        <time>2010-01-02T09:37:15Z</time>
      </trkpt>
      <trkpt lat="46.01276000" lon="11.30337000">
        <ele>522.00000</ele>
        <time>2010-01-02T09:37:20Z</time>
      </trkpt>
      <trkpt lat="46.01300000" lon="11.30337000">
        <ele>525.00000</ele>
        <time>2010-01-02T09:37:30Z</time>
      </trkpt>
      <trkpt lat="46.01330000" lon="11.30332000">
        <ele>529.00000</ele>
        <time>2010-01-02T09:37:42Z</time>
      </trkpt>
      <trkpt lat="46.01372000" lon="11.30341000">
        <ele>534.00000</ele>
        <time>2010-01-02T09:37:59Z</time>
      </trkpt>
      <trkpt lat="46.01399000" lon="11.30263000">
        <ele>533.00000</ele>
        <time>2010-01-02T09:38:23Z</time>
      </trkpt>
      <trkpt lat="46.01460000" lon="11.30165000">
        <ele>532.00000</ele>
        <time>2010-01-02T09:38:59Z</time>
      </trkpt>
      <trkpt lat="46.01499160" lon="11.30212080">
        <ele>532.00000</ele>
        <time>2010-01-02T09:39:20Z</time>
      </trkpt>
    </trkseg>
  </trk>
</gpx>

